<?xml version="1.0" encoding="UTF-8"?>
<gpx version="1.1" creator="https://www.youtrack.es" xsi:schemaLocation="http://www.topografix.com/GPX/1/1 http://www.topografix.com/GPX/1/1/gpx.xsd http://www.garmin.com/xmlschemas/GpxExtensions/v3 http://www.garmin.com/xmlschemas/GpxExtensionsv3.xsd http://www.garmin.com/xmlschemas/TrackPointExtension/v1 http://www.garmin.com/xmlschemas/TrackPointExtensionv1.xsd" xmlns:gpxtpx="http://www.garmin.com/xmlschemas/TrackPointExtension/v1" xmlns:gpxx="http://www.garmin.com/xmlschemas/GpxExtensions/v3" xmlns:xsi="http://www.w3.org/2001/XMLSchema-instance">
  <metadata>
    <link href="https://www.youtrack.es">
      <text>YouTrack.es</text>
    </link>
    <time>2026-05-10T17:12:18Z</time>
  </metadata>
  <trk>
    <src>https://www.youtrack.es</src>
    <link href="https://www.youtrack.es/ruta/10039-trini">
      <text>YouTrack.es</text>
    </link>
    <trkseg>
      <trkpt lat="41.302625" lon="1.99160333">
        <ele>23.0</ele>
        <time>2019-12-21T07:55:54.368Z</time>
      </trkpt>
      <trkpt lat="41.302625" lon="1.99160333">
        <ele>23.0</ele>
        <time>2019-12-21T07:55:55.341Z</time>
      </trkpt>
      <trkpt lat="41.30257" lon="1.99166833">
        <ele>23.0</ele>
        <time>2019-12-21T07:55:56.366Z</time>
      </trkpt>
      <trkpt lat="41.30257" lon="1.99166833">
        <ele>23.0</ele>
        <time>2019-12-21T07:55:57.370Z</time>
      </trkpt>
      <trkpt lat="41.30253667" lon="1.991745">
        <ele>24.0</ele>
        <time>2019-12-21T07:55:58.364Z</time>
      </trkpt>
      <trkpt lat="41.30253667" lon="1.991745">
        <ele>24.0</ele>
        <time>2019-12-21T07:55:59.357Z</time>
      </trkpt>
      <trkpt lat="41.30254" lon="1.99182667">
        <ele>25.0</ele>
        <time>2019-12-21T07:56:00.366Z</time>
      </trkpt>
      <trkpt lat="41.30254" lon="1.99182667">
        <ele>25.0</ele>
        <time>2019-12-21T07:56:01.362Z</time>
      </trkpt>
      <trkpt lat="41.30255667" lon="1.991915">
        <ele>26.0</ele>
        <time>2019-12-21T07:56:02.361Z</time>
      </trkpt>
      <trkpt lat="41.30255667" lon="1.991915">
        <ele>26.0</ele>
        <time>2019-12-21T07:56:03.357Z</time>
      </trkpt>
      <trkpt lat="41.302575" lon="1.99200833">
        <ele>28.0</ele>
        <time>2019-12-21T07:56:04.362Z</time>
      </trkpt>
      <trkpt lat="41.302575" lon="1.99200833">
        <ele>28.0</ele>
        <time>2019-12-21T07:56:05.357Z</time>
      </trkpt>
      <trkpt lat="41.30259667" lon="1.99210167">
        <ele>30.0</ele>
        <time>2019-12-21T07:56:06.366Z</time>
      </trkpt>
      <trkpt lat="41.30259667" lon="1.99210167">
        <ele>30.0</ele>
        <time>2019-12-21T07:56:07.360Z</time>
      </trkpt>
      <trkpt lat="41.302625" lon="1.9922">
        <ele>32.0</ele>
        <time>2019-12-21T07:56:08.403Z</time>
      </trkpt>
      <trkpt lat="41.30263667" lon="1.99225">
        <ele>33.0</ele>
        <time>2019-12-21T07:56:09.363Z</time>
      </trkpt>
      <trkpt lat="41.30263667" lon="1.99225">
        <ele>33.0</ele>
        <time>2019-12-21T07:56:10.357Z</time>
      </trkpt>
      <trkpt lat="41.30267667" lon="1.992345">
        <ele>35.0</ele>
        <time>2019-12-21T07:56:11.355Z</time>
      </trkpt>
      <trkpt lat="41.30269333" lon="1.99239">
        <ele>36.0</ele>
        <time>2019-12-21T07:56:12.340Z</time>
      </trkpt>
      <trkpt lat="41.30269333" lon="1.99239">
        <ele>36.0</ele>
        <time>2019-12-21T07:56:13.337Z</time>
      </trkpt>
      <trkpt lat="41.30272" lon="1.99246667">
        <ele>38.0</ele>
        <time>2019-12-21T07:56:14.366Z</time>
      </trkpt>
      <trkpt lat="41.30272" lon="1.99246667">
        <ele>38.0</ele>
        <time>2019-12-21T07:56:15.357Z</time>
      </trkpt>
      <trkpt lat="41.30273667" lon="1.992545">
        <ele>38.0</ele>
        <time>2019-12-21T07:56:16.363Z</time>
      </trkpt>
      <trkpt lat="41.30273667" lon="1.992545">
        <ele>38.0</ele>
        <time>2019-12-21T07:56:17.358Z</time>
      </trkpt>
      <trkpt lat="41.302745" lon="1.99264333">
        <ele>38.0</ele>
        <time>2019-12-21T07:56:18.367Z</time>
      </trkpt>
      <trkpt lat="41.302745" lon="1.99264333">
        <ele>38.0</ele>
        <time>2019-12-21T07:56:19.357Z</time>
      </trkpt>
      <trkpt lat="41.30275833" lon="1.99275333">
        <ele>39.0</ele>
        <time>2019-12-21T07:56:20.363Z</time>
      </trkpt>
      <trkpt lat="41.30275833" lon="1.99275333">
        <ele>39.0</ele>
        <time>2019-12-21T07:56:21.353Z</time>
      </trkpt>
      <trkpt lat="41.30277667" lon="1.99286333">
        <ele>41.0</ele>
        <time>2019-12-21T07:56:22.337Z</time>
      </trkpt>
      <trkpt lat="41.30279167" lon="1.99293">
        <ele>42.0</ele>
        <time>2019-12-21T07:56:23.363Z</time>
      </trkpt>
      <trkpt lat="41.30279167" lon="1.99293">
        <ele>42.0</ele>
        <time>2019-12-21T07:56:24.360Z</time>
      </trkpt>
      <trkpt lat="41.30281667" lon="1.99306333">
        <ele>44.0</ele>
        <time>2019-12-21T07:56:25.363Z</time>
      </trkpt>
      <trkpt lat="41.30281667" lon="1.99306333">
        <ele>44.0</ele>
        <time>2019-12-21T07:56:26.358Z</time>
      </trkpt>
      <trkpt lat="41.30283833" lon="1.993205">
        <ele>46.0</ele>
        <time>2019-12-21T07:56:27.362Z</time>
      </trkpt>
      <trkpt lat="41.30285167" lon="1.99327833">
        <ele>47.0</ele>
        <time>2019-12-21T07:56:28.364Z</time>
      </trkpt>
      <trkpt lat="41.30285167" lon="1.99327833">
        <ele>47.0</ele>
        <time>2019-12-21T07:56:29.357Z</time>
      </trkpt>
      <trkpt lat="41.30287167" lon="1.993415">
        <ele>49.0</ele>
        <time>2019-12-21T07:56:30.340Z</time>
      </trkpt>
      <trkpt lat="41.30287167" lon="1.993415">
        <ele>49.0</ele>
        <time>2019-12-21T07:56:31.365Z</time>
      </trkpt>
      <trkpt lat="41.30288833" lon="1.99354333">
        <ele>50.0</ele>
        <time>2019-12-21T07:56:32.342Z</time>
      </trkpt>
      <trkpt lat="41.30288833" lon="1.99354333">
        <ele>50.0</ele>
        <time>2019-12-21T07:56:33.366Z</time>
      </trkpt>
      <trkpt lat="41.302905" lon="1.993655">
        <ele>52.0</ele>
        <time>2019-12-21T07:56:34.361Z</time>
      </trkpt>
      <trkpt lat="41.30291" lon="1.99371333">
        <ele>53.0</ele>
        <time>2019-12-21T07:56:35.362Z</time>
      </trkpt>
      <trkpt lat="41.30291667" lon="1.99377667">
        <ele>54.0</ele>
        <time>2019-12-21T07:56:36.367Z</time>
      </trkpt>
      <trkpt lat="41.30291667" lon="1.99377667">
        <ele>54.0</ele>
        <time>2019-12-21T07:56:37.359Z</time>
      </trkpt>
      <trkpt lat="41.30292833" lon="1.99393">
        <ele>55.0</ele>
        <time>2019-12-21T07:56:38.337Z</time>
      </trkpt>
      <trkpt lat="41.30292833" lon="1.99393">
        <ele>55.0</ele>
        <time>2019-12-21T07:56:39.359Z</time>
      </trkpt>
      <trkpt lat="41.30296" lon="1.99410833">
        <ele>55.0</ele>
        <time>2019-12-21T07:56:40.362Z</time>
      </trkpt>
      <trkpt lat="41.30296" lon="1.99410833">
        <ele>55.0</ele>
        <time>2019-12-21T07:56:41.356Z</time>
      </trkpt>
      <trkpt lat="41.30296333" lon="1.994305">
        <ele>51.0</ele>
        <time>2019-12-21T07:56:42.366Z</time>
      </trkpt>
      <trkpt lat="41.30296333" lon="1.994305">
        <ele>51.0</ele>
        <time>2019-12-21T07:56:43.357Z</time>
      </trkpt>
      <trkpt lat="41.30295333" lon="1.99448333">
        <ele>50.0</ele>
        <time>2019-12-21T07:56:44.364Z</time>
      </trkpt>
      <trkpt lat="41.30295333" lon="1.99448333">
        <ele>50.0</ele>
        <time>2019-12-21T07:56:45.357Z</time>
      </trkpt>
      <trkpt lat="41.30293167" lon="1.99466167">
        <ele>49.0</ele>
        <time>2019-12-21T07:56:46.342Z</time>
      </trkpt>
      <trkpt lat="41.30293167" lon="1.99466167">
        <ele>49.0</ele>
        <time>2019-12-21T07:56:47.369Z</time>
      </trkpt>
      <trkpt lat="41.30291167" lon="1.99483833">
        <ele>47.0</ele>
        <time>2019-12-21T07:56:48.365Z</time>
      </trkpt>
      <trkpt lat="41.30291167" lon="1.99483833">
        <ele>47.0</ele>
        <time>2019-12-21T07:56:49.357Z</time>
      </trkpt>
      <trkpt lat="41.302885" lon="1.995">
        <ele>47.0</ele>
        <time>2019-12-21T07:56:50.339Z</time>
      </trkpt>
      <trkpt lat="41.30287333" lon="1.995085">
        <ele>46.0</ele>
        <time>2019-12-21T07:56:51.361Z</time>
      </trkpt>
      <trkpt lat="41.30287333" lon="1.995085">
        <ele>46.0</ele>
        <time>2019-12-21T07:56:52.357Z</time>
      </trkpt>
      <trkpt lat="41.30285" lon="1.99527667">
        <ele>44.0</ele>
        <time>2019-12-21T07:56:53.360Z</time>
      </trkpt>
      <trkpt lat="41.30285" lon="1.99527667">
        <ele>44.0</ele>
        <time>2019-12-21T07:56:54.360Z</time>
      </trkpt>
      <trkpt lat="41.30283333" lon="1.99544167">
        <ele>42.0</ele>
        <time>2019-12-21T07:56:55.363Z</time>
      </trkpt>
      <trkpt lat="41.30283333" lon="1.99544167">
        <ele>42.0</ele>
        <time>2019-12-21T07:56:56.358Z</time>
      </trkpt>
      <trkpt lat="41.30282333" lon="1.995595">
        <ele>41.0</ele>
        <time>2019-12-21T07:56:57.342Z</time>
      </trkpt>
      <trkpt lat="41.30282333" lon="1.995595">
        <ele>41.0</ele>
        <time>2019-12-21T07:56:58.368Z</time>
      </trkpt>
      <trkpt lat="41.30279667" lon="1.99574833">
        <ele>40.0</ele>
        <time>2019-12-21T07:56:59.363Z</time>
      </trkpt>
      <trkpt lat="41.30277" lon="1.99580833">
        <ele>39.0</ele>
        <time>2019-12-21T07:57:00.364Z</time>
      </trkpt>
      <trkpt lat="41.30277" lon="1.99580833">
        <ele>39.0</ele>
        <time>2019-12-21T07:57:01.358Z</time>
      </trkpt>
      <trkpt lat="41.30269167" lon="1.99587833">
        <ele>39.0</ele>
        <time>2019-12-21T07:57:02.343Z</time>
      </trkpt>
      <trkpt lat="41.30269167" lon="1.99587833">
        <ele>39.0</ele>
        <time>2019-12-21T07:57:03.364Z</time>
      </trkpt>
      <trkpt lat="41.302595" lon="1.99592167">
        <ele>38.0</ele>
        <time>2019-12-21T07:57:04.366Z</time>
      </trkpt>
      <trkpt lat="41.302595" lon="1.99592167">
        <ele>38.0</ele>
        <time>2019-12-21T07:57:05.357Z</time>
      </trkpt>
      <trkpt lat="41.30250833" lon="1.99598333">
        <ele>37.0</ele>
        <time>2019-12-21T07:57:06.362Z</time>
      </trkpt>
      <trkpt lat="41.30250833" lon="1.99598333">
        <ele>37.0</ele>
        <time>2019-12-21T07:57:07.358Z</time>
      </trkpt>
      <trkpt lat="41.30242667" lon="1.99607">
        <ele>36.0</ele>
        <time>2019-12-21T07:57:08.366Z</time>
      </trkpt>
      <trkpt lat="41.30242667" lon="1.99607">
        <ele>36.0</ele>
        <time>2019-12-21T07:57:09.358Z</time>
      </trkpt>
      <trkpt lat="41.30238833" lon="1.996185">
        <ele>36.0</ele>
        <time>2019-12-21T07:57:10.364Z</time>
      </trkpt>
      <trkpt lat="41.30238833" lon="1.996185">
        <ele>36.0</ele>
        <time>2019-12-21T07:57:11.358Z</time>
      </trkpt>
      <trkpt lat="41.30237333" lon="1.99631333">
        <ele>36.0</ele>
        <time>2019-12-21T07:57:12.345Z</time>
      </trkpt>
      <trkpt lat="41.30237333" lon="1.99631333">
        <ele>36.0</ele>
        <time>2019-12-21T07:57:13.337Z</time>
      </trkpt>
      <trkpt lat="41.302325" lon="1.996415">
        <ele>35.0</ele>
        <time>2019-12-21T07:57:14.364Z</time>
      </trkpt>
      <trkpt lat="41.302325" lon="1.996415">
        <ele>35.0</ele>
        <time>2019-12-21T07:57:15.357Z</time>
      </trkpt>
      <trkpt lat="41.30224667" lon="1.996505">
        <ele>34.0</ele>
        <time>2019-12-21T07:57:16.342Z</time>
      </trkpt>
      <trkpt lat="41.30224667" lon="1.996505">
        <ele>34.0</ele>
        <time>2019-12-21T07:57:17.362Z</time>
      </trkpt>
      <trkpt lat="41.30216667" lon="1.99659333">
        <ele>34.0</ele>
        <time>2019-12-21T07:57:18.363Z</time>
      </trkpt>
      <trkpt lat="41.30216667" lon="1.99659333">
        <ele>34.0</ele>
        <time>2019-12-21T07:57:19.358Z</time>
      </trkpt>
      <trkpt lat="41.30208667" lon="1.996685">
        <ele>33.0</ele>
        <time>2019-12-21T07:57:20.362Z</time>
      </trkpt>
      <trkpt lat="41.30208667" lon="1.996685">
        <ele>33.0</ele>
        <time>2019-12-21T07:57:21.357Z</time>
      </trkpt>
      <trkpt lat="41.30200667" lon="1.99678167">
        <ele>33.0</ele>
        <time>2019-12-21T07:57:22.343Z</time>
      </trkpt>
      <trkpt lat="41.30200667" lon="1.99678167">
        <ele>33.0</ele>
        <time>2019-12-21T07:57:23.363Z</time>
      </trkpt>
      <trkpt lat="41.30192333" lon="1.99688167">
        <ele>33.0</ele>
        <time>2019-12-21T07:57:24.366Z</time>
      </trkpt>
      <trkpt lat="41.30192333" lon="1.99688167">
        <ele>33.0</ele>
        <time>2019-12-21T07:57:25.358Z</time>
      </trkpt>
      <trkpt lat="41.30183833" lon="1.99698">
        <ele>32.0</ele>
        <time>2019-12-21T07:57:26.364Z</time>
      </trkpt>
      <trkpt lat="41.30183833" lon="1.99698">
        <ele>32.0</ele>
        <time>2019-12-21T07:57:27.359Z</time>
      </trkpt>
      <trkpt lat="41.30175" lon="1.997085">
        <ele>32.0</ele>
        <time>2019-12-21T07:57:28.363Z</time>
      </trkpt>
      <trkpt lat="41.30175" lon="1.997085">
        <ele>32.0</ele>
        <time>2019-12-21T07:57:29.358Z</time>
      </trkpt>
      <trkpt lat="41.30165833" lon="1.997195">
        <ele>31.0</ele>
        <time>2019-12-21T07:57:30.341Z</time>
      </trkpt>
      <trkpt lat="41.30165833" lon="1.997195">
        <ele>31.0</ele>
        <time>2019-12-21T07:57:31.360Z</time>
      </trkpt>
      <trkpt lat="41.30156833" lon="1.997305">
        <ele>30.0</ele>
        <time>2019-12-21T07:57:32.364Z</time>
      </trkpt>
      <trkpt lat="41.301525" lon="1.99735833">
        <ele>30.0</ele>
        <time>2019-12-21T07:57:33.366Z</time>
      </trkpt>
      <trkpt lat="41.301525" lon="1.99735833">
        <ele>30.0</ele>
        <time>2019-12-21T07:57:34.358Z</time>
      </trkpt>
      <trkpt lat="41.30143167" lon="1.99746833">
        <ele>29.0</ele>
        <time>2019-12-21T07:57:35.364Z</time>
      </trkpt>
      <trkpt lat="41.30138" lon="1.997525">
        <ele>29.0</ele>
        <time>2019-12-21T07:57:36.367Z</time>
      </trkpt>
      <trkpt lat="41.30138" lon="1.997525">
        <ele>29.0</ele>
        <time>2019-12-21T07:57:37.358Z</time>
      </trkpt>
      <trkpt lat="41.30128167" lon="1.99764">
        <ele>28.0</ele>
        <time>2019-12-21T07:57:38.362Z</time>
      </trkpt>
      <trkpt lat="41.30128167" lon="1.99764">
        <ele>28.0</ele>
        <time>2019-12-21T07:57:39.358Z</time>
      </trkpt>
      <trkpt lat="41.30118167" lon="1.99776333">
        <ele>28.0</ele>
        <time>2019-12-21T07:57:40.363Z</time>
      </trkpt>
      <trkpt lat="41.30113333" lon="1.997825">
        <ele>29.0</ele>
        <time>2019-12-21T07:57:41.363Z</time>
      </trkpt>
      <trkpt lat="41.301085" lon="1.99788333">
        <ele>29.0</ele>
        <time>2019-12-21T07:57:42.346Z</time>
      </trkpt>
      <trkpt lat="41.301085" lon="1.99788333">
        <ele>29.0</ele>
        <time>2019-12-21T07:57:43.334Z</time>
      </trkpt>
      <trkpt lat="41.30098833" lon="1.99800667">
        <ele>28.0</ele>
        <time>2019-12-21T07:57:44.364Z</time>
      </trkpt>
      <trkpt lat="41.30098833" lon="1.99800667">
        <ele>28.0</ele>
        <time>2019-12-21T07:57:45.357Z</time>
      </trkpt>
      <trkpt lat="41.30089" lon="1.99813167">
        <ele>28.0</ele>
        <time>2019-12-21T07:57:46.363Z</time>
      </trkpt>
      <trkpt lat="41.30089" lon="1.99813167">
        <ele>28.0</ele>
        <time>2019-12-21T07:57:47.343Z</time>
      </trkpt>
      <trkpt lat="41.30079667" lon="1.99825333">
        <ele>28.0</ele>
        <time>2019-12-21T07:57:48.368Z</time>
      </trkpt>
      <trkpt lat="41.30079667" lon="1.99825333">
        <ele>28.0</ele>
        <time>2019-12-21T07:57:49.358Z</time>
      </trkpt>
      <trkpt lat="41.3007" lon="1.99837167">
        <ele>28.0</ele>
        <time>2019-12-21T07:57:50.363Z</time>
      </trkpt>
      <trkpt lat="41.3007" lon="1.99837167">
        <ele>28.0</ele>
        <time>2019-12-21T07:57:51.360Z</time>
      </trkpt>
      <trkpt lat="41.3006" lon="1.998495">
        <ele>28.0</ele>
        <time>2019-12-21T07:57:52.343Z</time>
      </trkpt>
      <trkpt lat="41.3006" lon="1.998495">
        <ele>28.0</ele>
        <time>2019-12-21T07:57:53.365Z</time>
      </trkpt>
      <trkpt lat="41.30050333" lon="1.99861333">
        <ele>27.0</ele>
        <time>2019-12-21T07:57:54.366Z</time>
      </trkpt>
      <trkpt lat="41.30050333" lon="1.99861333">
        <ele>27.0</ele>
        <time>2019-12-21T07:57:55.359Z</time>
      </trkpt>
      <trkpt lat="41.30041" lon="1.99873333">
        <ele>27.0</ele>
        <time>2019-12-21T07:57:56.364Z</time>
      </trkpt>
      <trkpt lat="41.30041" lon="1.99873333">
        <ele>27.0</ele>
        <time>2019-12-21T07:57:57.359Z</time>
      </trkpt>
      <trkpt lat="41.30030167" lon="1.99884167">
        <ele>27.0</ele>
        <time>2019-12-21T07:57:58.364Z</time>
      </trkpt>
      <trkpt lat="41.30030167" lon="1.99884167">
        <ele>27.0</ele>
        <time>2019-12-21T07:57:59.358Z</time>
      </trkpt>
      <trkpt lat="41.300175" lon="1.99894333">
        <ele>26.0</ele>
        <time>2019-12-21T07:58:00.366Z</time>
      </trkpt>
      <trkpt lat="41.300175" lon="1.99894333">
        <ele>26.0</ele>
        <time>2019-12-21T07:58:01.359Z</time>
      </trkpt>
      <trkpt lat="41.30009" lon="1.999095">
        <ele>25.0</ele>
        <time>2019-12-21T07:58:02.343Z</time>
      </trkpt>
      <trkpt lat="41.30005" lon="1.99916833">
        <ele>23.0</ele>
        <time>2019-12-21T07:58:03.364Z</time>
      </trkpt>
      <trkpt lat="41.30000167" lon="1.99924">
        <ele>23.0</ele>
        <time>2019-12-21T07:58:04.364Z</time>
      </trkpt>
      <trkpt lat="41.30000167" lon="1.99924">
        <ele>23.0</ele>
        <time>2019-12-21T07:58:05.359Z</time>
      </trkpt>
      <trkpt lat="41.2999" lon="1.99938">
        <ele>22.0</ele>
        <time>2019-12-21T07:58:06.341Z</time>
      </trkpt>
      <trkpt lat="41.2999" lon="1.99938">
        <ele>22.0</ele>
        <time>2019-12-21T07:58:07.362Z</time>
      </trkpt>
      <trkpt lat="41.29979167" lon="1.99952667">
        <ele>21.0</ele>
        <time>2019-12-21T07:58:08.364Z</time>
      </trkpt>
      <trkpt lat="41.29979167" lon="1.99952667">
        <ele>21.0</ele>
        <time>2019-12-21T07:58:09.359Z</time>
      </trkpt>
      <trkpt lat="41.29969167" lon="1.99968667">
        <ele>20.0</ele>
        <time>2019-12-21T07:58:10.362Z</time>
      </trkpt>
      <trkpt lat="41.29969167" lon="1.99968667">
        <ele>20.0</ele>
        <time>2019-12-21T07:58:11.358Z</time>
      </trkpt>
      <trkpt lat="41.299595" lon="1.99986">
        <ele>19.0</ele>
        <time>2019-12-21T07:58:12.341Z</time>
      </trkpt>
      <trkpt lat="41.299595" lon="1.99986">
        <ele>19.0</ele>
        <time>2019-12-21T07:58:13.358Z</time>
      </trkpt>
      <trkpt lat="41.29950167" lon="2.00004333">
        <ele>18.0</ele>
        <time>2019-12-21T07:58:14.363Z</time>
      </trkpt>
      <trkpt lat="41.29950167" lon="2.00004333">
        <ele>18.0</ele>
        <time>2019-12-21T07:58:15.358Z</time>
      </trkpt>
      <trkpt lat="41.299415" lon="2.00023333">
        <ele>17.0</ele>
        <time>2019-12-21T07:58:16.364Z</time>
      </trkpt>
      <trkpt lat="41.299415" lon="2.00023333">
        <ele>17.0</ele>
        <time>2019-12-21T07:58:17.344Z</time>
      </trkpt>
      <trkpt lat="41.29933167" lon="2.00042833">
        <ele>16.0</ele>
        <time>2019-12-21T07:58:18.368Z</time>
      </trkpt>
      <trkpt lat="41.29933167" lon="2.00042833">
        <ele>16.0</ele>
        <time>2019-12-21T07:58:19.358Z</time>
      </trkpt>
      <trkpt lat="41.29925167" lon="2.00063333">
        <ele>15.0</ele>
        <time>2019-12-21T07:58:20.363Z</time>
      </trkpt>
      <trkpt lat="41.29925167" lon="2.00063333">
        <ele>15.0</ele>
        <time>2019-12-21T07:58:21.358Z</time>
      </trkpt>
      <trkpt lat="41.299175" lon="2.00084333">
        <ele>15.0</ele>
        <time>2019-12-21T07:58:22.343Z</time>
      </trkpt>
      <trkpt lat="41.299175" lon="2.00084333">
        <ele>15.0</ele>
        <time>2019-12-21T07:58:23.365Z</time>
      </trkpt>
      <trkpt lat="41.29910833" lon="2.00105333">
        <ele>14.0</ele>
        <time>2019-12-21T07:58:24.368Z</time>
      </trkpt>
      <trkpt lat="41.29910833" lon="2.00105333">
        <ele>14.0</ele>
        <time>2019-12-21T07:58:25.358Z</time>
      </trkpt>
      <trkpt lat="41.29904667" lon="2.00126">
        <ele>14.0</ele>
        <time>2019-12-21T07:58:26.365Z</time>
      </trkpt>
      <trkpt lat="41.29904667" lon="2.00126">
        <ele>14.0</ele>
        <time>2019-12-21T07:58:27.359Z</time>
      </trkpt>
      <trkpt lat="41.29899167" lon="2.00146167">
        <ele>13.0</ele>
        <time>2019-12-21T07:58:28.364Z</time>
      </trkpt>
      <trkpt lat="41.29899167" lon="2.00146167">
        <ele>13.0</ele>
        <time>2019-12-21T07:58:29.358Z</time>
      </trkpt>
      <trkpt lat="41.29894" lon="2.00165833">
        <ele>13.0</ele>
        <time>2019-12-21T07:58:30.342Z</time>
      </trkpt>
      <trkpt lat="41.29894" lon="2.00165833">
        <ele>13.0</ele>
        <time>2019-12-21T07:58:31.365Z</time>
      </trkpt>
      <trkpt lat="41.29889" lon="2.00186167">
        <ele>12.0</ele>
        <time>2019-12-21T07:58:32.364Z</time>
      </trkpt>
      <trkpt lat="41.29889" lon="2.00186167">
        <ele>12.0</ele>
        <time>2019-12-21T07:58:33.358Z</time>
      </trkpt>
      <trkpt lat="41.29884167" lon="2.00207333">
        <ele>11.0</ele>
        <time>2019-12-21T07:58:34.363Z</time>
      </trkpt>
      <trkpt lat="41.29884167" lon="2.00207333">
        <ele>11.0</ele>
        <time>2019-12-21T07:58:35.358Z</time>
      </trkpt>
      <trkpt lat="41.29879167" lon="2.00229833">
        <ele>10.0</ele>
        <time>2019-12-21T07:58:36.341Z</time>
      </trkpt>
      <trkpt lat="41.29879167" lon="2.00229833">
        <ele>10.0</ele>
        <time>2019-12-21T07:58:37.360Z</time>
      </trkpt>
      <trkpt lat="41.298735" lon="2.00253">
        <ele>8.0</ele>
        <time>2019-12-21T07:58:38.364Z</time>
      </trkpt>
      <trkpt lat="41.29870333" lon="2.00264167">
        <ele>8.0</ele>
        <time>2019-12-21T07:58:39.365Z</time>
      </trkpt>
      <trkpt lat="41.29870333" lon="2.00264167">
        <ele>8.0</ele>
        <time>2019-12-21T07:58:40.358Z</time>
      </trkpt>
      <trkpt lat="41.29863333" lon="2.002845">
        <ele>7.0</ele>
        <time>2019-12-21T07:58:41.363Z</time>
      </trkpt>
      <trkpt lat="41.29863333" lon="2.002845">
        <ele>7.0</ele>
        <time>2019-12-21T07:58:42.360Z</time>
      </trkpt>
      <trkpt lat="41.29855" lon="2.00301667">
        <ele>7.0</ele>
        <time>2019-12-21T07:58:43.345Z</time>
      </trkpt>
      <trkpt lat="41.29855" lon="2.00301667">
        <ele>7.0</ele>
        <time>2019-12-21T07:58:44.366Z</time>
      </trkpt>
      <trkpt lat="41.298485" lon="2.00312">
        <ele>7.0</ele>
        <time>2019-12-21T07:58:45.363Z</time>
      </trkpt>
      <trkpt lat="41.298485" lon="2.00312">
        <ele>7.0</ele>
        <time>2019-12-21T07:58:46.358Z</time>
      </trkpt>
      <trkpt lat="41.29843333" lon="2.00316333">
        <ele>7.0</ele>
        <time>2019-12-21T07:58:47.343Z</time>
      </trkpt>
      <trkpt lat="41.29839833" lon="2.00319333">
        <ele>7.0</ele>
        <time>2019-12-21T07:58:48.366Z</time>
      </trkpt>
      <trkpt lat="41.29839833" lon="2.00319333">
        <ele>7.0</ele>
        <time>2019-12-21T07:58:49.358Z</time>
      </trkpt>
      <trkpt lat="41.29832333" lon="2.00328167">
        <ele>8.0</ele>
        <time>2019-12-21T07:58:50.364Z</time>
      </trkpt>
      <trkpt lat="41.29832333" lon="2.00328167">
        <ele>8.0</ele>
        <time>2019-12-21T07:58:51.358Z</time>
      </trkpt>
      <trkpt lat="41.29829833" lon="2.00341333">
        <ele>8.0</ele>
        <time>2019-12-21T07:58:52.343Z</time>
      </trkpt>
      <trkpt lat="41.29829833" lon="2.00341333">
        <ele>8.0</ele>
        <time>2019-12-21T07:58:53.363Z</time>
      </trkpt>
      <trkpt lat="41.29834333" lon="2.00353167">
        <ele>9.0</ele>
        <time>2019-12-21T07:58:54.348Z</time>
      </trkpt>
      <trkpt lat="41.29834333" lon="2.00353167">
        <ele>9.0</ele>
        <time>2019-12-21T07:58:55.338Z</time>
      </trkpt>
      <trkpt lat="41.29843333" lon="2.003605">
        <ele>9.0</ele>
        <time>2019-12-21T07:58:56.362Z</time>
      </trkpt>
      <trkpt lat="41.29843333" lon="2.003605">
        <ele>9.0</ele>
        <time>2019-12-21T07:58:57.359Z</time>
      </trkpt>
      <trkpt lat="41.29854333" lon="2.00366667">
        <ele>10.0</ele>
        <time>2019-12-21T07:58:58.364Z</time>
      </trkpt>
      <trkpt lat="41.29854333" lon="2.00366667">
        <ele>10.0</ele>
        <time>2019-12-21T07:58:59.360Z</time>
      </trkpt>
      <trkpt lat="41.298655" lon="2.003735">
        <ele>10.0</ele>
        <time>2019-12-21T07:59:00.367Z</time>
      </trkpt>
      <trkpt lat="41.298655" lon="2.003735">
        <ele>10.0</ele>
        <time>2019-12-21T07:59:01.359Z</time>
      </trkpt>
      <trkpt lat="41.29875333" lon="2.00382">
        <ele>10.0</ele>
        <time>2019-12-21T07:59:02.344Z</time>
      </trkpt>
      <trkpt lat="41.29880333" lon="2.00386333">
        <ele>10.0</ele>
        <time>2019-12-21T07:59:03.366Z</time>
      </trkpt>
      <trkpt lat="41.29880333" lon="2.00386333">
        <ele>10.0</ele>
        <time>2019-12-21T07:59:04.359Z</time>
      </trkpt>
      <trkpt lat="41.298905" lon="2.00394833">
        <ele>10.0</ele>
        <time>2019-12-21T07:59:05.363Z</time>
      </trkpt>
      <trkpt lat="41.298955" lon="2.003995">
        <ele>9.0</ele>
        <time>2019-12-21T07:59:06.342Z</time>
      </trkpt>
      <trkpt lat="41.29900167" lon="2.00404167">
        <ele>9.0</ele>
        <time>2019-12-21T07:59:07.366Z</time>
      </trkpt>
      <trkpt lat="41.29900167" lon="2.00404167">
        <ele>9.0</ele>
        <time>2019-12-21T07:59:08.359Z</time>
      </trkpt>
      <trkpt lat="41.29910167" lon="2.00413">
        <ele>8.0</ele>
        <time>2019-12-21T07:59:09.364Z</time>
      </trkpt>
      <trkpt lat="41.29910167" lon="2.00413">
        <ele>8.0</ele>
        <time>2019-12-21T07:59:10.358Z</time>
      </trkpt>
      <trkpt lat="41.2992" lon="2.00421833">
        <ele>8.0</ele>
        <time>2019-12-21T07:59:11.362Z</time>
      </trkpt>
      <trkpt lat="41.29925" lon="2.00426">
        <ele>8.0</ele>
        <time>2019-12-21T07:59:12.355Z</time>
      </trkpt>
      <trkpt lat="41.29925" lon="2.00426">
        <ele>8.0</ele>
        <time>2019-12-21T07:59:13.335Z</time>
      </trkpt>
      <trkpt lat="41.29934833" lon="2.004345">
        <ele>8.0</ele>
        <time>2019-12-21T07:59:14.362Z</time>
      </trkpt>
      <trkpt lat="41.29934833" lon="2.004345">
        <ele>8.0</ele>
        <time>2019-12-21T07:59:15.358Z</time>
      </trkpt>
      <trkpt lat="41.29945" lon="2.00442667">
        <ele>8.0</ele>
        <time>2019-12-21T07:59:16.364Z</time>
      </trkpt>
      <trkpt lat="41.29945" lon="2.00442667">
        <ele>8.0</ele>
        <time>2019-12-21T07:59:17.361Z</time>
      </trkpt>
      <trkpt lat="41.29955667" lon="2.00451167">
        <ele>8.0</ele>
        <time>2019-12-21T07:59:18.367Z</time>
      </trkpt>
      <trkpt lat="41.29955667" lon="2.00451167">
        <ele>8.0</ele>
        <time>2019-12-21T07:59:19.359Z</time>
      </trkpt>
      <trkpt lat="41.29965667" lon="2.00459667">
        <ele>8.0</ele>
        <time>2019-12-21T07:59:20.361Z</time>
      </trkpt>
      <trkpt lat="41.29965667" lon="2.00459667">
        <ele>8.0</ele>
        <time>2019-12-21T07:59:21.359Z</time>
      </trkpt>
      <trkpt lat="41.299755" lon="2.00468333">
        <ele>8.0</ele>
        <time>2019-12-21T07:59:22.363Z</time>
      </trkpt>
      <trkpt lat="41.299755" lon="2.00468333">
        <ele>8.0</ele>
        <time>2019-12-21T07:59:23.342Z</time>
      </trkpt>
      <trkpt lat="41.29984667" lon="2.00477167">
        <ele>9.0</ele>
        <time>2019-12-21T07:59:24.334Z</time>
      </trkpt>
      <trkpt lat="41.29984667" lon="2.00477167">
        <ele>9.0</ele>
        <time>2019-12-21T07:59:25.359Z</time>
      </trkpt>
      <trkpt lat="41.29993833" lon="2.00485667">
        <ele>9.0</ele>
        <time>2019-12-21T07:59:26.364Z</time>
      </trkpt>
      <trkpt lat="41.29993833" lon="2.00485667">
        <ele>9.0</ele>
        <time>2019-12-21T07:59:27.359Z</time>
      </trkpt>
      <trkpt lat="41.30001667" lon="2.00495167">
        <ele>9.0</ele>
        <time>2019-12-21T07:59:28.364Z</time>
      </trkpt>
      <trkpt lat="41.30001667" lon="2.00495167">
        <ele>9.0</ele>
        <time>2019-12-21T07:59:29.361Z</time>
      </trkpt>
      <trkpt lat="41.30010167" lon="2.00504667">
        <ele>9.0</ele>
        <time>2019-12-21T07:59:30.366Z</time>
      </trkpt>
      <trkpt lat="41.30010167" lon="2.00504667">
        <ele>9.0</ele>
        <time>2019-12-21T07:59:31.359Z</time>
      </trkpt>
      <trkpt lat="41.30018833" lon="2.005135">
        <ele>9.0</ele>
        <time>2019-12-21T07:59:32.344Z</time>
      </trkpt>
      <trkpt lat="41.30018833" lon="2.005135">
        <ele>9.0</ele>
        <time>2019-12-21T07:59:33.367Z</time>
      </trkpt>
      <trkpt lat="41.30027833" lon="2.005225">
        <ele>9.0</ele>
        <time>2019-12-21T07:59:34.364Z</time>
      </trkpt>
      <trkpt lat="41.30027833" lon="2.005225">
        <ele>9.0</ele>
        <time>2019-12-21T07:59:35.359Z</time>
      </trkpt>
      <trkpt lat="41.30036833" lon="2.00531667">
        <ele>9.0</ele>
        <time>2019-12-21T07:59:36.341Z</time>
      </trkpt>
      <trkpt lat="41.30036833" lon="2.00531667">
        <ele>9.0</ele>
        <time>2019-12-21T07:59:37.361Z</time>
      </trkpt>
      <trkpt lat="41.30046167" lon="2.00541167">
        <ele>9.0</ele>
        <time>2019-12-21T07:59:38.364Z</time>
      </trkpt>
      <trkpt lat="41.30046167" lon="2.00541167">
        <ele>9.0</ele>
        <time>2019-12-21T07:59:39.358Z</time>
      </trkpt>
      <trkpt lat="41.30055667" lon="2.00550667">
        <ele>9.0</ele>
        <time>2019-12-21T07:59:40.364Z</time>
      </trkpt>
      <trkpt lat="41.30055667" lon="2.00550667">
        <ele>9.0</ele>
        <time>2019-12-21T07:59:41.359Z</time>
      </trkpt>
      <trkpt lat="41.30065167" lon="2.00560667">
        <ele>9.0</ele>
        <time>2019-12-21T07:59:42.341Z</time>
      </trkpt>
      <trkpt lat="41.30065167" lon="2.00560667">
        <ele>9.0</ele>
        <time>2019-12-21T07:59:43.366Z</time>
      </trkpt>
      <trkpt lat="41.30074833" lon="2.00570833">
        <ele>8.0</ele>
        <time>2019-12-21T07:59:44.364Z</time>
      </trkpt>
      <trkpt lat="41.30074833" lon="2.00570833">
        <ele>8.0</ele>
        <time>2019-12-21T07:59:45.359Z</time>
      </trkpt>
      <trkpt lat="41.30084667" lon="2.00580833">
        <ele>8.0</ele>
        <time>2019-12-21T07:59:46.361Z</time>
      </trkpt>
      <trkpt lat="41.30084667" lon="2.00580833">
        <ele>8.0</ele>
        <time>2019-12-21T07:59:47.359Z</time>
      </trkpt>
      <trkpt lat="41.30094333" lon="2.00590833">
        <ele>7.0</ele>
        <time>2019-12-21T07:59:48.341Z</time>
      </trkpt>
      <trkpt lat="41.30094333" lon="2.00590833">
        <ele>7.0</ele>
        <time>2019-12-21T07:59:49.360Z</time>
      </trkpt>
      <trkpt lat="41.301045" lon="2.00600667">
        <ele>7.0</ele>
        <time>2019-12-21T07:59:50.364Z</time>
      </trkpt>
      <trkpt lat="41.301045" lon="2.00600667">
        <ele>7.0</ele>
        <time>2019-12-21T07:59:51.359Z</time>
      </trkpt>
      <trkpt lat="41.30114" lon="2.00611333">
        <ele>6.0</ele>
        <time>2019-12-21T07:59:52.344Z</time>
      </trkpt>
      <trkpt lat="41.30114" lon="2.00611333">
        <ele>6.0</ele>
        <time>2019-12-21T07:59:53.365Z</time>
      </trkpt>
      <trkpt lat="41.30124333" lon="2.006205">
        <ele>6.0</ele>
        <time>2019-12-21T07:59:54.368Z</time>
      </trkpt>
      <trkpt lat="41.30124333" lon="2.006205">
        <ele>6.0</ele>
        <time>2019-12-21T07:59:55.359Z</time>
      </trkpt>
      <trkpt lat="41.30134" lon="2.006295">
        <ele>6.0</ele>
        <time>2019-12-21T07:59:56.365Z</time>
      </trkpt>
      <trkpt lat="41.30134" lon="2.006295">
        <ele>6.0</ele>
        <time>2019-12-21T07:59:57.359Z</time>
      </trkpt>
      <trkpt lat="41.30142167" lon="2.00639667">
        <ele>6.0</ele>
        <time>2019-12-21T07:59:58.364Z</time>
      </trkpt>
      <trkpt lat="41.30146333" lon="2.00644833">
        <ele>5.0</ele>
        <time>2019-12-21T07:59:59.368Z</time>
      </trkpt>
      <trkpt lat="41.30150167" lon="2.00650333">
        <ele>5.0</ele>
        <time>2019-12-21T08:00:00.359Z</time>
      </trkpt>
      <trkpt lat="41.30150167" lon="2.00650333">
        <ele>5.0</ele>
        <time>2019-12-21T08:00:01.359Z</time>
      </trkpt>
      <trkpt lat="41.30158167" lon="2.00662">
        <ele>6.0</ele>
        <time>2019-12-21T08:00:02.344Z</time>
      </trkpt>
      <trkpt lat="41.30158167" lon="2.00662">
        <ele>6.0</ele>
        <time>2019-12-21T08:00:03.364Z</time>
      </trkpt>
      <trkpt lat="41.301665" lon="2.00673333">
        <ele>6.0</ele>
        <time>2019-12-21T08:00:04.364Z</time>
      </trkpt>
      <trkpt lat="41.30171" lon="2.00678333">
        <ele>6.0</ele>
        <time>2019-12-21T08:00:05.365Z</time>
      </trkpt>
      <trkpt lat="41.30171" lon="2.00678333">
        <ele>6.0</ele>
        <time>2019-12-21T08:00:06.361Z</time>
      </trkpt>
      <trkpt lat="41.30180167" lon="2.00687333">
        <ele>7.0</ele>
        <time>2019-12-21T08:00:07.351Z</time>
      </trkpt>
      <trkpt lat="41.30180167" lon="2.00687333">
        <ele>7.0</ele>
        <time>2019-12-21T08:00:08.368Z</time>
      </trkpt>
      <trkpt lat="41.30190333" lon="2.00694833">
        <ele>8.0</ele>
        <time>2019-12-21T08:00:09.364Z</time>
      </trkpt>
      <trkpt lat="41.30195667" lon="2.00698667">
        <ele>9.0</ele>
        <time>2019-12-21T08:00:10.365Z</time>
      </trkpt>
      <trkpt lat="41.30195667" lon="2.00698667">
        <ele>9.0</ele>
        <time>2019-12-21T08:00:11.358Z</time>
      </trkpt>
      <trkpt lat="41.30205167" lon="2.007065">
        <ele>10.0</ele>
        <time>2019-12-21T08:00:12.340Z</time>
      </trkpt>
      <trkpt lat="41.30205167" lon="2.007065">
        <ele>10.0</ele>
        <time>2019-12-21T08:00:13.359Z</time>
      </trkpt>
      <trkpt lat="41.30214" lon="2.00712667">
        <ele>10.0</ele>
        <time>2019-12-21T08:00:14.344Z</time>
      </trkpt>
      <trkpt lat="41.30214" lon="2.00712667">
        <ele>10.0</ele>
        <time>2019-12-21T08:00:15.365Z</time>
      </trkpt>
      <trkpt lat="41.30222333" lon="2.00719833">
        <ele>11.0</ele>
        <time>2019-12-21T08:00:16.364Z</time>
      </trkpt>
      <trkpt lat="41.30222333" lon="2.00719833">
        <ele>11.0</ele>
        <time>2019-12-21T08:00:17.359Z</time>
      </trkpt>
      <trkpt lat="41.30231167" lon="2.007285">
        <ele>11.0</ele>
        <time>2019-12-21T08:00:18.365Z</time>
      </trkpt>
      <trkpt lat="41.30231167" lon="2.007285">
        <ele>11.0</ele>
        <time>2019-12-21T08:00:19.359Z</time>
      </trkpt>
      <trkpt lat="41.30240333" lon="2.00739667">
        <ele>11.0</ele>
        <time>2019-12-21T08:00:20.341Z</time>
      </trkpt>
      <trkpt lat="41.30240333" lon="2.00739667">
        <ele>11.0</ele>
        <time>2019-12-21T08:00:21.360Z</time>
      </trkpt>
      <trkpt lat="41.30250167" lon="2.00746833">
        <ele>11.0</ele>
        <time>2019-12-21T08:00:22.344Z</time>
      </trkpt>
      <trkpt lat="41.30253167" lon="2.007485">
        <ele>11.0</ele>
        <time>2019-12-21T08:00:23.365Z</time>
      </trkpt>
      <trkpt lat="41.30253167" lon="2.007485">
        <ele>11.0</ele>
        <time>2019-12-21T08:00:24.365Z</time>
      </trkpt>
      <trkpt lat="41.30262167" lon="2.00749333">
        <ele>12.0</ele>
        <time>2019-12-21T08:00:25.365Z</time>
      </trkpt>
      <trkpt lat="41.30262167" lon="2.00749333">
        <ele>12.0</ele>
        <time>2019-12-21T08:00:26.360Z</time>
      </trkpt>
      <trkpt lat="41.30266167" lon="2.00759">
        <ele>12.0</ele>
        <time>2019-12-21T08:00:27.344Z</time>
      </trkpt>
      <trkpt lat="41.30266167" lon="2.00759">
        <ele>12.0</ele>
        <time>2019-12-21T08:00:28.365Z</time>
      </trkpt>
      <trkpt lat="41.30273833" lon="2.00767667">
        <ele>12.0</ele>
        <time>2019-12-21T08:00:29.364Z</time>
      </trkpt>
      <trkpt lat="41.30277667" lon="2.00772333">
        <ele>12.0</ele>
        <time>2019-12-21T08:00:30.369Z</time>
      </trkpt>
      <trkpt lat="41.302825" lon="2.00776167">
        <ele>13.0</ele>
        <time>2019-12-21T08:00:31.346Z</time>
      </trkpt>
      <trkpt lat="41.302825" lon="2.00776167">
        <ele>13.0</ele>
        <time>2019-12-21T08:00:32.334Z</time>
      </trkpt>
      <trkpt lat="41.30291167" lon="2.00785333">
        <ele>13.0</ele>
        <time>2019-12-21T08:00:33.367Z</time>
      </trkpt>
      <trkpt lat="41.30295333" lon="2.00789833">
        <ele>13.0</ele>
        <time>2019-12-21T08:00:34.337Z</time>
      </trkpt>
      <trkpt lat="41.30295333" lon="2.00789833">
        <ele>13.0</ele>
        <time>2019-12-21T08:00:35.361Z</time>
      </trkpt>
      <trkpt lat="41.30304167" lon="2.00798833">
        <ele>13.0</ele>
        <time>2019-12-21T08:00:36.368Z</time>
      </trkpt>
      <trkpt lat="41.30304167" lon="2.00798833">
        <ele>13.0</ele>
        <time>2019-12-21T08:00:37.372Z</time>
      </trkpt>
      <trkpt lat="41.30313333" lon="2.00808">
        <ele>13.0</ele>
        <time>2019-12-21T08:00:38.362Z</time>
      </trkpt>
      <trkpt lat="41.30313333" lon="2.00808">
        <ele>13.0</ele>
        <time>2019-12-21T08:00:39.359Z</time>
      </trkpt>
      <trkpt lat="41.30321167" lon="2.00818167">
        <ele>12.0</ele>
        <time>2019-12-21T08:00:40.364Z</time>
      </trkpt>
      <trkpt lat="41.30321167" lon="2.00818167">
        <ele>12.0</ele>
        <time>2019-12-21T08:00:41.360Z</time>
      </trkpt>
      <trkpt lat="41.3033" lon="2.00827333">
        <ele>12.0</ele>
        <time>2019-12-21T08:00:42.347Z</time>
      </trkpt>
      <trkpt lat="41.3033" lon="2.00827333">
        <ele>12.0</ele>
        <time>2019-12-21T08:00:43.365Z</time>
      </trkpt>
      <trkpt lat="41.303395" lon="2.00836167">
        <ele>12.0</ele>
        <time>2019-12-21T08:00:44.363Z</time>
      </trkpt>
      <trkpt lat="41.303445" lon="2.0084">
        <ele>13.0</ele>
        <time>2019-12-21T08:00:45.364Z</time>
      </trkpt>
      <trkpt lat="41.303445" lon="2.0084">
        <ele>13.0</ele>
        <time>2019-12-21T08:00:46.359Z</time>
      </trkpt>
      <trkpt lat="41.30354333" lon="2.00848333">
        <ele>13.0</ele>
        <time>2019-12-21T08:00:47.345Z</time>
      </trkpt>
      <trkpt lat="41.30359167" lon="2.00852333">
        <ele>13.0</ele>
        <time>2019-12-21T08:00:48.367Z</time>
      </trkpt>
      <trkpt lat="41.30359167" lon="2.00852333">
        <ele>13.0</ele>
        <time>2019-12-21T08:00:49.359Z</time>
      </trkpt>
      <trkpt lat="41.30365667" lon="2.00863">
        <ele>13.0</ele>
        <time>2019-12-21T08:00:50.360Z</time>
      </trkpt>
      <trkpt lat="41.30369667" lon="2.00867167">
        <ele>13.0</ele>
        <time>2019-12-21T08:00:51.364Z</time>
      </trkpt>
      <trkpt lat="41.30369667" lon="2.00867167">
        <ele>13.0</ele>
        <time>2019-12-21T08:00:52.345Z</time>
      </trkpt>
      <trkpt lat="41.30376833" lon="2.00875667">
        <ele>13.0</ele>
        <time>2019-12-21T08:00:53.368Z</time>
      </trkpt>
      <trkpt lat="41.30376833" lon="2.00875667">
        <ele>13.0</ele>
        <time>2019-12-21T08:00:54.360Z</time>
      </trkpt>
      <trkpt lat="41.30385333" lon="2.00881333">
        <ele>14.0</ele>
        <time>2019-12-21T08:00:55.362Z</time>
      </trkpt>
      <trkpt lat="41.30385333" lon="2.00881333">
        <ele>14.0</ele>
        <time>2019-12-21T08:00:56.359Z</time>
      </trkpt>
      <trkpt lat="41.30392833" lon="2.00886167">
        <ele>14.0</ele>
        <time>2019-12-21T08:00:57.341Z</time>
      </trkpt>
      <trkpt lat="41.30395833" lon="2.00888667">
        <ele>14.0</ele>
        <time>2019-12-21T08:00:58.333Z</time>
      </trkpt>
      <trkpt lat="41.30395833" lon="2.00888667">
        <ele>14.0</ele>
        <time>2019-12-21T08:00:59.340Z</time>
      </trkpt>
      <trkpt lat="41.30401" lon="2.00891167">
        <ele>15.0</ele>
        <time>2019-12-21T08:01:00.366Z</time>
      </trkpt>
      <trkpt lat="41.30401" lon="2.00891167">
        <ele>15.0</ele>
        <time>2019-12-21T08:01:01.360Z</time>
      </trkpt>
      <trkpt lat="41.30403167" lon="2.008925">
        <ele>15.0</ele>
        <time>2019-12-21T08:01:02.343Z</time>
      </trkpt>
      <trkpt lat="41.30403167" lon="2.008925">
        <ele>15.0</ele>
        <time>2019-12-21T08:01:03.341Z</time>
      </trkpt>
      <trkpt lat="41.30402833" lon="2.00893333">
        <ele>15.0</ele>
        <time>2019-12-21T08:01:04.372Z</time>
      </trkpt>
      <trkpt lat="41.30403167" lon="2.00893667">
        <ele>15.0</ele>
        <time>2019-12-21T08:01:05.365Z</time>
      </trkpt>
      <trkpt lat="41.30411667" lon="2.00901833">
        <ele>16.0</ele>
        <time>2019-12-21T08:01:06.339Z</time>
      </trkpt>
      <trkpt lat="41.30411667" lon="2.00901833">
        <ele>16.0</ele>
        <time>2019-12-21T08:01:07.363Z</time>
      </trkpt>
      <trkpt lat="41.30420167" lon="2.00908167">
        <ele>16.0</ele>
        <time>2019-12-21T08:01:08.369Z</time>
      </trkpt>
      <trkpt lat="41.30421833" lon="2.00915333">
        <ele>16.0</ele>
        <time>2019-12-21T08:01:09.351Z</time>
      </trkpt>
      <trkpt lat="41.30421833" lon="2.00915333">
        <ele>16.0</ele>
        <time>2019-12-21T08:01:10.370Z</time>
      </trkpt>
      <trkpt lat="41.30429167" lon="2.00924667">
        <ele>16.0</ele>
        <time>2019-12-21T08:01:11.368Z</time>
      </trkpt>
      <trkpt lat="41.30433333" lon="2.00928667">
        <ele>17.0</ele>
        <time>2019-12-21T08:01:12.345Z</time>
      </trkpt>
      <trkpt lat="41.30433333" lon="2.00928667">
        <ele>17.0</ele>
        <time>2019-12-21T08:01:13.363Z</time>
      </trkpt>
      <trkpt lat="41.30441667" lon="2.009375">
        <ele>16.0</ele>
        <time>2019-12-21T08:01:14.349Z</time>
      </trkpt>
      <trkpt lat="41.30446167" lon="2.00941667">
        <ele>16.0</ele>
        <time>2019-12-21T08:01:15.372Z</time>
      </trkpt>
      <trkpt lat="41.30446167" lon="2.00941667">
        <ele>16.0</ele>
        <time>2019-12-21T08:01:16.363Z</time>
      </trkpt>
      <trkpt lat="41.30454667" lon="2.009505">
        <ele>16.0</ele>
        <time>2019-12-21T08:01:17.345Z</time>
      </trkpt>
      <trkpt lat="41.3046" lon="2.00954833">
        <ele>16.0</ele>
        <time>2019-12-21T08:01:18.369Z</time>
      </trkpt>
      <trkpt lat="41.3046" lon="2.00954833">
        <ele>16.0</ele>
        <time>2019-12-21T08:01:19.363Z</time>
      </trkpt>
      <trkpt lat="41.30469333" lon="2.00963667">
        <ele>16.0</ele>
        <time>2019-12-21T08:01:20.345Z</time>
      </trkpt>
      <trkpt lat="41.30477" lon="2.00966">
        <ele>16.0</ele>
        <time>2019-12-21T08:01:21.371Z</time>
      </trkpt>
      <trkpt lat="41.30477" lon="2.00966">
        <ele>16.0</ele>
        <time>2019-12-21T08:01:22.367Z</time>
      </trkpt>
      <trkpt lat="41.30485333" lon="2.00976333">
        <ele>16.0</ele>
        <time>2019-12-21T08:01:23.370Z</time>
      </trkpt>
      <trkpt lat="41.30485333" lon="2.00976333">
        <ele>16.0</ele>
        <time>2019-12-21T08:01:24.368Z</time>
      </trkpt>
      <trkpt lat="41.30489667" lon="2.00989667">
        <ele>16.0</ele>
        <time>2019-12-21T08:01:25.368Z</time>
      </trkpt>
      <trkpt lat="41.30489667" lon="2.00989667">
        <ele>16.0</ele>
        <time>2019-12-21T08:01:26.364Z</time>
      </trkpt>
      <trkpt lat="41.30497833" lon="2.009995">
        <ele>16.0</ele>
        <time>2019-12-21T08:01:27.346Z</time>
      </trkpt>
      <trkpt lat="41.30497833" lon="2.009995">
        <ele>16.0</ele>
        <time>2019-12-21T08:01:28.347Z</time>
      </trkpt>
      <trkpt lat="41.30506167" lon="2.01008667">
        <ele>17.0</ele>
        <time>2019-12-21T08:01:29.371Z</time>
      </trkpt>
      <trkpt lat="41.3051" lon="2.01013333">
        <ele>18.0</ele>
        <time>2019-12-21T08:01:30.369Z</time>
      </trkpt>
      <trkpt lat="41.3051" lon="2.01013333">
        <ele>18.0</ele>
        <time>2019-12-21T08:01:31.364Z</time>
      </trkpt>
      <trkpt lat="41.30517667" lon="2.01023667">
        <ele>18.0</ele>
        <time>2019-12-21T08:01:32.349Z</time>
      </trkpt>
      <trkpt lat="41.30522167" lon="2.01028">
        <ele>18.0</ele>
        <time>2019-12-21T08:01:33.371Z</time>
      </trkpt>
      <trkpt lat="41.30522167" lon="2.01028">
        <ele>18.0</ele>
        <time>2019-12-21T08:01:34.364Z</time>
      </trkpt>
      <trkpt lat="41.30531333" lon="2.01036333">
        <ele>19.0</ele>
        <time>2019-12-21T08:01:35.369Z</time>
      </trkpt>
      <trkpt lat="41.30531333" lon="2.01036333">
        <ele>19.0</ele>
        <time>2019-12-21T08:01:36.364Z</time>
      </trkpt>
      <trkpt lat="41.30541333" lon="2.01044833">
        <ele>20.0</ele>
        <time>2019-12-21T08:01:37.369Z</time>
      </trkpt>
      <trkpt lat="41.30546333" lon="2.01048833">
        <ele>20.0</ele>
        <time>2019-12-21T08:01:38.370Z</time>
      </trkpt>
      <trkpt lat="41.30546333" lon="2.01048833">
        <ele>20.0</ele>
        <time>2019-12-21T08:01:39.351Z</time>
      </trkpt>
      <trkpt lat="41.30555167" lon="2.01057667">
        <ele>21.0</ele>
        <time>2019-12-21T08:01:40.333Z</time>
      </trkpt>
      <trkpt lat="41.30555167" lon="2.01057667">
        <ele>21.0</ele>
        <time>2019-12-21T08:01:41.364Z</time>
      </trkpt>
      <trkpt lat="41.30564667" lon="2.01066">
        <ele>22.0</ele>
        <time>2019-12-21T08:01:42.349Z</time>
      </trkpt>
      <trkpt lat="41.30564667" lon="2.01066">
        <ele>22.0</ele>
        <time>2019-12-21T08:01:43.369Z</time>
      </trkpt>
      <trkpt lat="41.305745" lon="2.01074333">
        <ele>23.0</ele>
        <time>2019-12-21T08:01:44.369Z</time>
      </trkpt>
      <trkpt lat="41.30578333" lon="2.01079333">
        <ele>23.0</ele>
        <time>2019-12-21T08:01:45.333Z</time>
      </trkpt>
      <trkpt lat="41.30578333" lon="2.01079333">
        <ele>23.0</ele>
        <time>2019-12-21T08:01:46.363Z</time>
      </trkpt>
      <trkpt lat="41.30587833" lon="2.01087167">
        <ele>24.0</ele>
        <time>2019-12-21T08:01:47.370Z</time>
      </trkpt>
      <trkpt lat="41.30587833" lon="2.01087167">
        <ele>24.0</ele>
        <time>2019-12-21T08:01:48.364Z</time>
      </trkpt>
      <trkpt lat="41.30598667" lon="2.01094333">
        <ele>24.0</ele>
        <time>2019-12-21T08:01:49.349Z</time>
      </trkpt>
      <trkpt lat="41.30598667" lon="2.01094333">
        <ele>24.0</ele>
        <time>2019-12-21T08:01:50.367Z</time>
      </trkpt>
      <trkpt lat="41.306055" lon="2.011045">
        <ele>25.0</ele>
        <time>2019-12-21T08:01:51.372Z</time>
      </trkpt>
      <trkpt lat="41.306055" lon="2.011045">
        <ele>25.0</ele>
        <time>2019-12-21T08:01:52.364Z</time>
      </trkpt>
      <trkpt lat="41.30613667" lon="2.01112833">
        <ele>25.0</ele>
        <time>2019-12-21T08:01:53.369Z</time>
      </trkpt>
      <trkpt lat="41.30613667" lon="2.01112833">
        <ele>25.0</ele>
        <time>2019-12-21T08:01:54.338Z</time>
      </trkpt>
      <trkpt lat="41.30622833" lon="2.01120833">
        <ele>24.0</ele>
        <time>2019-12-21T08:01:55.371Z</time>
      </trkpt>
      <trkpt lat="41.30622833" lon="2.01120833">
        <ele>24.0</ele>
        <time>2019-12-21T08:01:56.361Z</time>
      </trkpt>
      <trkpt lat="41.306275" lon="2.01125">
        <ele>24.0</ele>
        <time>2019-12-21T08:01:57.366Z</time>
      </trkpt>
      <trkpt lat="41.30636333" lon="2.01133167">
        <ele>24.0</ele>
        <time>2019-12-21T08:01:58.362Z</time>
      </trkpt>
      <trkpt lat="41.30636333" lon="2.01133167">
        <ele>24.0</ele>
        <time>2019-12-21T08:01:59.343Z</time>
      </trkpt>
      <trkpt lat="41.30645167" lon="2.01139833">
        <ele>25.0</ele>
        <time>2019-12-21T08:02:00.369Z</time>
      </trkpt>
      <trkpt lat="41.30645167" lon="2.01139833">
        <ele>25.0</ele>
        <time>2019-12-21T08:02:01.364Z</time>
      </trkpt>
      <trkpt lat="41.30652833" lon="2.01149667">
        <ele>25.0</ele>
        <time>2019-12-21T08:02:02.369Z</time>
      </trkpt>
      <trkpt lat="41.30656833" lon="2.01153833">
        <ele>25.0</ele>
        <time>2019-12-21T08:02:03.337Z</time>
      </trkpt>
      <trkpt lat="41.30656833" lon="2.01153833">
        <ele>25.0</ele>
        <time>2019-12-21T08:02:04.364Z</time>
      </trkpt>
      <trkpt lat="41.30665667" lon="2.01162">
        <ele>26.0</ele>
        <time>2019-12-21T08:02:05.369Z</time>
      </trkpt>
      <trkpt lat="41.30665667" lon="2.01162">
        <ele>26.0</ele>
        <time>2019-12-21T08:02:06.364Z</time>
      </trkpt>
      <trkpt lat="41.306745" lon="2.01172">
        <ele>25.0</ele>
        <time>2019-12-21T08:02:07.370Z</time>
      </trkpt>
      <trkpt lat="41.306745" lon="2.01172">
        <ele>25.0</ele>
        <time>2019-12-21T08:02:08.364Z</time>
      </trkpt>
      <trkpt lat="41.30683333" lon="2.01182667">
        <ele>24.0</ele>
        <time>2019-12-21T08:02:09.345Z</time>
      </trkpt>
      <trkpt lat="41.30688" lon="2.01187667">
        <ele>24.0</ele>
        <time>2019-12-21T08:02:10.369Z</time>
      </trkpt>
      <trkpt lat="41.30688" lon="2.01187667">
        <ele>24.0</ele>
        <time>2019-12-21T08:02:11.364Z</time>
      </trkpt>
      <trkpt lat="41.30698" lon="2.01198">
        <ele>23.0</ele>
        <time>2019-12-21T08:02:12.349Z</time>
      </trkpt>
      <trkpt lat="41.30698" lon="2.01198">
        <ele>23.0</ele>
        <time>2019-12-21T08:02:13.369Z</time>
      </trkpt>
      <trkpt lat="41.30708667" lon="2.012085">
        <ele>22.0</ele>
        <time>2019-12-21T08:02:14.369Z</time>
      </trkpt>
      <trkpt lat="41.30714167" lon="2.01214">
        <ele>22.0</ele>
        <time>2019-12-21T08:02:15.371Z</time>
      </trkpt>
      <trkpt lat="41.30714167" lon="2.01214">
        <ele>22.0</ele>
        <time>2019-12-21T08:02:16.364Z</time>
      </trkpt>
      <trkpt lat="41.30725333" lon="2.01225167">
        <ele>21.0</ele>
        <time>2019-12-21T08:02:17.369Z</time>
      </trkpt>
      <trkpt lat="41.30725333" lon="2.01225167">
        <ele>21.0</ele>
        <time>2019-12-21T08:02:18.364Z</time>
      </trkpt>
      <trkpt lat="41.30736333" lon="2.01236667">
        <ele>20.0</ele>
        <time>2019-12-21T08:02:19.346Z</time>
      </trkpt>
      <trkpt lat="41.30736333" lon="2.01236667">
        <ele>20.0</ele>
        <time>2019-12-21T08:02:20.372Z</time>
      </trkpt>
      <trkpt lat="41.30747333" lon="2.012485">
        <ele>19.0</ele>
        <time>2019-12-21T08:02:21.372Z</time>
      </trkpt>
      <trkpt lat="41.30747333" lon="2.012485">
        <ele>19.0</ele>
        <time>2019-12-21T08:02:22.365Z</time>
      </trkpt>
      <trkpt lat="41.30758833" lon="2.0126">
        <ele>18.0</ele>
        <time>2019-12-21T08:02:23.368Z</time>
      </trkpt>
      <trkpt lat="41.30758833" lon="2.0126">
        <ele>18.0</ele>
        <time>2019-12-21T08:02:24.364Z</time>
      </trkpt>
      <trkpt lat="41.30769667" lon="2.01271167">
        <ele>18.0</ele>
        <time>2019-12-21T08:02:25.368Z</time>
      </trkpt>
      <trkpt lat="41.30769667" lon="2.01271167">
        <ele>18.0</ele>
        <time>2019-12-21T08:02:26.364Z</time>
      </trkpt>
      <trkpt lat="41.30781167" lon="2.01281833">
        <ele>18.0</ele>
        <time>2019-12-21T08:02:27.346Z</time>
      </trkpt>
      <trkpt lat="41.30781167" lon="2.01281833">
        <ele>18.0</ele>
        <time>2019-12-21T08:02:28.366Z</time>
      </trkpt>
      <trkpt lat="41.307915" lon="2.01294">
        <ele>18.0</ele>
        <time>2019-12-21T08:02:29.370Z</time>
      </trkpt>
      <trkpt lat="41.30796333" lon="2.01300333">
        <ele>18.0</ele>
        <time>2019-12-21T08:02:30.369Z</time>
      </trkpt>
      <trkpt lat="41.30796333" lon="2.01300333">
        <ele>18.0</ele>
        <time>2019-12-21T08:02:31.365Z</time>
      </trkpt>
      <trkpt lat="41.30807667" lon="2.01311">
        <ele>17.0</ele>
        <time>2019-12-21T08:02:32.348Z</time>
      </trkpt>
      <trkpt lat="41.308135" lon="2.01316">
        <ele>16.0</ele>
        <time>2019-12-21T08:02:33.372Z</time>
      </trkpt>
      <trkpt lat="41.308135" lon="2.01316">
        <ele>16.0</ele>
        <time>2019-12-21T08:02:34.366Z</time>
      </trkpt>
      <trkpt lat="41.30825167" lon="2.01326">
        <ele>14.0</ele>
        <time>2019-12-21T08:02:35.369Z</time>
      </trkpt>
      <trkpt lat="41.30825167" lon="2.01326">
        <ele>14.0</ele>
        <time>2019-12-21T08:02:36.364Z</time>
      </trkpt>
      <trkpt lat="41.30837" lon="2.01337667">
        <ele>14.0</ele>
        <time>2019-12-21T08:02:37.369Z</time>
      </trkpt>
      <trkpt lat="41.30837" lon="2.01337667">
        <ele>14.0</ele>
        <time>2019-12-21T08:02:38.364Z</time>
      </trkpt>
      <trkpt lat="41.30848833" lon="2.01349">
        <ele>13.0</ele>
        <time>2019-12-21T08:02:39.346Z</time>
      </trkpt>
      <trkpt lat="41.30848833" lon="2.01349">
        <ele>13.0</ele>
        <time>2019-12-21T08:02:40.364Z</time>
      </trkpt>
      <trkpt lat="41.30860333" lon="2.01360167">
        <ele>13.0</ele>
        <time>2019-12-21T08:02:41.369Z</time>
      </trkpt>
      <trkpt lat="41.30860333" lon="2.01360167">
        <ele>13.0</ele>
        <time>2019-12-21T08:02:42.359Z</time>
      </trkpt>
      <trkpt lat="41.308715" lon="2.01371167">
        <ele>13.0</ele>
        <time>2019-12-21T08:02:43.338Z</time>
      </trkpt>
      <trkpt lat="41.308715" lon="2.01371167">
        <ele>13.0</ele>
        <time>2019-12-21T08:02:44.366Z</time>
      </trkpt>
      <trkpt lat="41.308825" lon="2.01382167">
        <ele>13.0</ele>
        <time>2019-12-21T08:02:45.372Z</time>
      </trkpt>
      <trkpt lat="41.308825" lon="2.01382167">
        <ele>13.0</ele>
        <time>2019-12-21T08:02:46.364Z</time>
      </trkpt>
      <trkpt lat="41.308935" lon="2.01392833">
        <ele>13.0</ele>
        <time>2019-12-21T08:02:47.369Z</time>
      </trkpt>
      <trkpt lat="41.308935" lon="2.01392833">
        <ele>13.0</ele>
        <time>2019-12-21T08:02:48.349Z</time>
      </trkpt>
      <trkpt lat="41.30904333" lon="2.01403667">
        <ele>12.0</ele>
        <time>2019-12-21T08:02:49.372Z</time>
      </trkpt>
      <trkpt lat="41.30909667" lon="2.01409167">
        <ele>12.0</ele>
        <time>2019-12-21T08:02:50.370Z</time>
      </trkpt>
      <trkpt lat="41.30915" lon="2.01414667">
        <ele>12.0</ele>
        <time>2019-12-21T08:02:51.371Z</time>
      </trkpt>
      <trkpt lat="41.30915" lon="2.01414667">
        <ele>12.0</ele>
        <time>2019-12-21T08:02:52.335Z</time>
      </trkpt>
      <trkpt lat="41.30925667" lon="2.01426">
        <ele>12.0</ele>
        <time>2019-12-21T08:02:53.338Z</time>
      </trkpt>
      <trkpt lat="41.30925667" lon="2.01426">
        <ele>12.0</ele>
        <time>2019-12-21T08:02:54.343Z</time>
      </trkpt>
      <trkpt lat="41.309365" lon="2.01437">
        <ele>11.0</ele>
        <time>2019-12-21T08:02:55.367Z</time>
      </trkpt>
      <trkpt lat="41.30941833" lon="2.01442667">
        <ele>11.0</ele>
        <time>2019-12-21T08:02:56.370Z</time>
      </trkpt>
      <trkpt lat="41.30947167" lon="2.014485">
        <ele>11.0</ele>
        <time>2019-12-21T08:02:57.343Z</time>
      </trkpt>
      <trkpt lat="41.309525" lon="2.01454167">
        <ele>11.0</ele>
        <time>2019-12-21T08:02:58.369Z</time>
      </trkpt>
      <trkpt lat="41.309525" lon="2.01454167">
        <ele>11.0</ele>
        <time>2019-12-21T08:02:59.364Z</time>
      </trkpt>
      <trkpt lat="41.30963333" lon="2.01465833">
        <ele>11.0</ele>
        <time>2019-12-21T08:03:00.371Z</time>
      </trkpt>
      <trkpt lat="41.30963333" lon="2.01465833">
        <ele>11.0</ele>
        <time>2019-12-21T08:03:01.365Z</time>
      </trkpt>
      <trkpt lat="41.30974333" lon="2.01477">
        <ele>10.0</ele>
        <time>2019-12-21T08:03:02.371Z</time>
      </trkpt>
      <trkpt lat="41.30979833" lon="2.014825">
        <ele>10.0</ele>
        <time>2019-12-21T08:03:03.372Z</time>
      </trkpt>
      <trkpt lat="41.30979833" lon="2.014825">
        <ele>10.0</ele>
        <time>2019-12-21T08:03:04.364Z</time>
      </trkpt>
      <trkpt lat="41.30990833" lon="2.014935">
        <ele>10.0</ele>
        <time>2019-12-21T08:03:05.371Z</time>
      </trkpt>
      <trkpt lat="41.30990833" lon="2.014935">
        <ele>10.0</ele>
        <time>2019-12-21T08:03:06.365Z</time>
      </trkpt>
      <trkpt lat="41.31002333" lon="2.01504">
        <ele>10.0</ele>
        <time>2019-12-21T08:03:07.370Z</time>
      </trkpt>
      <trkpt lat="41.31002333" lon="2.01504">
        <ele>10.0</ele>
        <time>2019-12-21T08:03:08.365Z</time>
      </trkpt>
      <trkpt lat="41.31014667" lon="2.01513833">
        <ele>12.0</ele>
        <time>2019-12-21T08:03:09.348Z</time>
      </trkpt>
      <trkpt lat="41.31014667" lon="2.01513833">
        <ele>12.0</ele>
        <time>2019-12-21T08:03:10.372Z</time>
      </trkpt>
      <trkpt lat="41.310255" lon="2.01524667">
        <ele>13.0</ele>
        <time>2019-12-21T08:03:11.369Z</time>
      </trkpt>
      <trkpt lat="41.310255" lon="2.01524667">
        <ele>13.0</ele>
        <time>2019-12-21T08:03:12.364Z</time>
      </trkpt>
      <trkpt lat="41.31036" lon="2.01536833">
        <ele>12.0</ele>
        <time>2019-12-21T08:03:13.371Z</time>
      </trkpt>
      <trkpt lat="41.31036" lon="2.01536833">
        <ele>12.0</ele>
        <time>2019-12-21T08:03:14.364Z</time>
      </trkpt>
      <trkpt lat="41.31046333" lon="2.01547">
        <ele>13.0</ele>
        <time>2019-12-21T08:03:15.347Z</time>
      </trkpt>
      <trkpt lat="41.31046333" lon="2.01547">
        <ele>13.0</ele>
        <time>2019-12-21T08:03:16.365Z</time>
      </trkpt>
      <trkpt lat="41.31056667" lon="2.01557833">
        <ele>13.0</ele>
        <time>2019-12-21T08:03:17.371Z</time>
      </trkpt>
      <trkpt lat="41.31056667" lon="2.01557833">
        <ele>13.0</ele>
        <time>2019-12-21T08:03:18.364Z</time>
      </trkpt>
      <trkpt lat="41.310675" lon="2.01569167">
        <ele>13.0</ele>
        <time>2019-12-21T08:03:19.346Z</time>
      </trkpt>
      <trkpt lat="41.310675" lon="2.01569167">
        <ele>13.0</ele>
        <time>2019-12-21T08:03:20.364Z</time>
      </trkpt>
      <trkpt lat="41.31078167" lon="2.0158">
        <ele>13.0</ele>
        <time>2019-12-21T08:03:21.346Z</time>
      </trkpt>
      <trkpt lat="41.31078167" lon="2.0158">
        <ele>13.0</ele>
        <time>2019-12-21T08:03:22.337Z</time>
      </trkpt>
      <trkpt lat="41.310835" lon="2.01585167">
        <ele>12.0</ele>
        <time>2019-12-21T08:03:23.349Z</time>
      </trkpt>
      <trkpt lat="41.31093833" lon="2.01595833">
        <ele>12.0</ele>
        <time>2019-12-21T08:03:24.357Z</time>
      </trkpt>
      <trkpt lat="41.31093833" lon="2.01595833">
        <ele>12.0</ele>
        <time>2019-12-21T08:03:25.363Z</time>
      </trkpt>
      <trkpt lat="41.311045" lon="2.01606833">
        <ele>12.0</ele>
        <time>2019-12-21T08:03:26.345Z</time>
      </trkpt>
      <trkpt lat="41.3111" lon="2.01612">
        <ele>12.0</ele>
        <time>2019-12-21T08:03:27.366Z</time>
      </trkpt>
      <trkpt lat="41.3111" lon="2.01612">
        <ele>12.0</ele>
        <time>2019-12-21T08:03:28.350Z</time>
      </trkpt>
      <trkpt lat="41.31120667" lon="2.016225">
        <ele>12.0</ele>
        <time>2019-12-21T08:03:29.333Z</time>
      </trkpt>
      <trkpt lat="41.31126" lon="2.01628">
        <ele>12.0</ele>
        <time>2019-12-21T08:03:30.338Z</time>
      </trkpt>
      <trkpt lat="41.31126" lon="2.01628">
        <ele>12.0</ele>
        <time>2019-12-21T08:03:31.365Z</time>
      </trkpt>
      <trkpt lat="41.31136833" lon="2.01639">
        <ele>12.0</ele>
        <time>2019-12-21T08:03:32.370Z</time>
      </trkpt>
      <trkpt lat="41.31142333" lon="2.016445">
        <ele>12.0</ele>
        <time>2019-12-21T08:03:33.352Z</time>
      </trkpt>
      <trkpt lat="41.31142333" lon="2.016445">
        <ele>12.0</ele>
        <time>2019-12-21T08:03:34.344Z</time>
      </trkpt>
      <trkpt lat="41.31153333" lon="2.016555">
        <ele>11.0</ele>
        <time>2019-12-21T08:03:35.371Z</time>
      </trkpt>
      <trkpt lat="41.31153333" lon="2.016555">
        <ele>11.0</ele>
        <time>2019-12-21T08:03:36.364Z</time>
      </trkpt>
      <trkpt lat="41.311645" lon="2.01666333">
        <ele>12.0</ele>
        <time>2019-12-21T08:03:37.370Z</time>
      </trkpt>
      <trkpt lat="41.3117" lon="2.01672">
        <ele>12.0</ele>
        <time>2019-12-21T08:03:38.370Z</time>
      </trkpt>
      <trkpt lat="41.3117" lon="2.01672">
        <ele>12.0</ele>
        <time>2019-12-21T08:03:39.367Z</time>
      </trkpt>
      <trkpt lat="41.31180833" lon="2.01683">
        <ele>11.0</ele>
        <time>2019-12-21T08:03:40.369Z</time>
      </trkpt>
      <trkpt lat="41.31180833" lon="2.01683">
        <ele>11.0</ele>
        <time>2019-12-21T08:03:41.364Z</time>
      </trkpt>
      <trkpt lat="41.31191833" lon="2.01694">
        <ele>11.0</ele>
        <time>2019-12-21T08:03:42.346Z</time>
      </trkpt>
      <trkpt lat="41.31191833" lon="2.01694">
        <ele>11.0</ele>
        <time>2019-12-21T08:03:43.367Z</time>
      </trkpt>
      <trkpt lat="41.31203833" lon="2.01705333">
        <ele>11.0</ele>
        <time>2019-12-21T08:03:44.350Z</time>
      </trkpt>
      <trkpt lat="41.3121" lon="2.01710333">
        <ele>11.0</ele>
        <time>2019-12-21T08:03:45.372Z</time>
      </trkpt>
      <trkpt lat="41.3121" lon="2.01710333">
        <ele>11.0</ele>
        <time>2019-12-21T08:03:46.365Z</time>
      </trkpt>
      <trkpt lat="41.31221333" lon="2.01721167">
        <ele>11.0</ele>
        <time>2019-12-21T08:03:47.370Z</time>
      </trkpt>
      <trkpt lat="41.31221333" lon="2.01721167">
        <ele>11.0</ele>
        <time>2019-12-21T08:03:48.351Z</time>
      </trkpt>
      <trkpt lat="41.31233667" lon="2.01731">
        <ele>11.0</ele>
        <time>2019-12-21T08:03:49.336Z</time>
      </trkpt>
      <trkpt lat="41.31233667" lon="2.01731">
        <ele>11.0</ele>
        <time>2019-12-21T08:03:50.365Z</time>
      </trkpt>
      <trkpt lat="41.31244167" lon="2.017415">
        <ele>11.0</ele>
        <time>2019-12-21T08:03:51.348Z</time>
      </trkpt>
      <trkpt lat="41.31244167" lon="2.017415">
        <ele>11.0</ele>
        <time>2019-12-21T08:03:52.370Z</time>
      </trkpt>
      <trkpt lat="41.31255833" lon="2.01751333">
        <ele>13.0</ele>
        <time>2019-12-21T08:03:53.337Z</time>
      </trkpt>
      <trkpt lat="41.31260667" lon="2.01757">
        <ele>13.0</ele>
        <time>2019-12-21T08:03:54.371Z</time>
      </trkpt>
      <trkpt lat="41.31260667" lon="2.01757">
        <ele>13.0</ele>
        <time>2019-12-21T08:03:55.365Z</time>
      </trkpt>
      <trkpt lat="41.312705" lon="2.01768">
        <ele>13.0</ele>
        <time>2019-12-21T08:03:56.369Z</time>
      </trkpt>
      <trkpt lat="41.312705" lon="2.01768">
        <ele>13.0</ele>
        <time>2019-12-21T08:03:57.338Z</time>
      </trkpt>
      <trkpt lat="41.31281333" lon="2.01778333">
        <ele>13.0</ele>
        <time>2019-12-21T08:03:58.370Z</time>
      </trkpt>
      <trkpt lat="41.31281333" lon="2.01778333">
        <ele>13.0</ele>
        <time>2019-12-21T08:03:59.365Z</time>
      </trkpt>
      <trkpt lat="41.312915" lon="2.01789167">
        <ele>13.0</ele>
        <time>2019-12-21T08:04:00.370Z</time>
      </trkpt>
      <trkpt lat="41.312915" lon="2.01789167">
        <ele>13.0</ele>
        <time>2019-12-21T08:04:01.365Z</time>
      </trkpt>
      <trkpt lat="41.31301333" lon="2.01800167">
        <ele>13.0</ele>
        <time>2019-12-21T08:04:02.370Z</time>
      </trkpt>
      <trkpt lat="41.31301333" lon="2.01800167">
        <ele>13.0</ele>
        <time>2019-12-21T08:04:03.370Z</time>
      </trkpt>
      <trkpt lat="41.31311333" lon="2.01810667">
        <ele>13.0</ele>
        <time>2019-12-21T08:04:04.370Z</time>
      </trkpt>
      <trkpt lat="41.31316167" lon="2.01815667">
        <ele>13.0</ele>
        <time>2019-12-21T08:04:05.370Z</time>
      </trkpt>
      <trkpt lat="41.31316167" lon="2.01815667">
        <ele>13.0</ele>
        <time>2019-12-21T08:04:06.365Z</time>
      </trkpt>
      <trkpt lat="41.31324833" lon="2.01825">
        <ele>13.0</ele>
        <time>2019-12-21T08:04:07.370Z</time>
      </trkpt>
      <trkpt lat="41.31324833" lon="2.01825">
        <ele>13.0</ele>
        <time>2019-12-21T08:04:08.365Z</time>
      </trkpt>
      <trkpt lat="41.31332833" lon="2.01832667">
        <ele>14.0</ele>
        <time>2019-12-21T08:04:09.348Z</time>
      </trkpt>
      <trkpt lat="41.31336167" lon="2.01836">
        <ele>14.0</ele>
        <time>2019-12-21T08:04:10.370Z</time>
      </trkpt>
      <trkpt lat="41.31336167" lon="2.01836">
        <ele>14.0</ele>
        <time>2019-12-21T08:04:11.364Z</time>
      </trkpt>
      <trkpt lat="41.31340667" lon="2.01841333">
        <ele>14.0</ele>
        <time>2019-12-21T08:04:12.346Z</time>
      </trkpt>
      <trkpt lat="41.31340667" lon="2.01841333">
        <ele>14.0</ele>
        <time>2019-12-21T08:04:13.366Z</time>
      </trkpt>
      <trkpt lat="41.31342167" lon="2.01842333">
        <ele>15.0</ele>
        <time>2019-12-21T08:04:14.350Z</time>
      </trkpt>
      <trkpt lat="41.31342" lon="2.01842333">
        <ele>15.0</ele>
        <time>2019-12-21T08:04:15.372Z</time>
      </trkpt>
      <trkpt lat="41.31342" lon="2.01842333">
        <ele>15.0</ele>
        <time>2019-12-21T08:04:16.365Z</time>
      </trkpt>
      <trkpt lat="41.31341667" lon="2.01842333">
        <ele>15.0</ele>
        <time>2019-12-21T08:04:17.346Z</time>
      </trkpt>
      <trkpt lat="41.31341667" lon="2.01842333">
        <ele>15.0</ele>
        <time>2019-12-21T08:04:18.368Z</time>
      </trkpt>
      <trkpt lat="41.31348667" lon="2.018525">
        <ele>13.0</ele>
        <time>2019-12-21T08:04:19.370Z</time>
      </trkpt>
      <trkpt lat="41.31348667" lon="2.018525">
        <ele>13.0</ele>
        <time>2019-12-21T08:04:20.349Z</time>
      </trkpt>
      <trkpt lat="41.31356" lon="2.01859833">
        <ele>14.0</ele>
        <time>2019-12-21T08:04:21.335Z</time>
      </trkpt>
      <trkpt lat="41.31356" lon="2.01859833">
        <ele>14.0</ele>
        <time>2019-12-21T08:04:22.352Z</time>
      </trkpt>
      <trkpt lat="41.31364" lon="2.01867333">
        <ele>14.0</ele>
        <time>2019-12-21T08:04:23.353Z</time>
      </trkpt>
      <trkpt lat="41.31364" lon="2.01867333">
        <ele>14.0</ele>
        <time>2019-12-21T08:04:24.349Z</time>
      </trkpt>
      <trkpt lat="41.31372" lon="2.01875833">
        <ele>13.0</ele>
        <time>2019-12-21T08:04:25.353Z</time>
      </trkpt>
      <trkpt lat="41.31372" lon="2.01875833">
        <ele>13.0</ele>
        <time>2019-12-21T08:04:26.350Z</time>
      </trkpt>
      <trkpt lat="41.31381" lon="2.01883667">
        <ele>14.0</ele>
        <time>2019-12-21T08:04:27.355Z</time>
      </trkpt>
      <trkpt lat="41.31381" lon="2.01883667">
        <ele>14.0</ele>
        <time>2019-12-21T08:04:28.348Z</time>
      </trkpt>
      <trkpt lat="41.31389833" lon="2.01892333">
        <ele>14.0</ele>
        <time>2019-12-21T08:04:29.353Z</time>
      </trkpt>
      <trkpt lat="41.31389833" lon="2.01892333">
        <ele>14.0</ele>
        <time>2019-12-21T08:04:30.348Z</time>
      </trkpt>
      <trkpt lat="41.31399" lon="2.01900667">
        <ele>15.0</ele>
        <time>2019-12-21T08:04:31.333Z</time>
      </trkpt>
      <trkpt lat="41.31399" lon="2.01900667">
        <ele>15.0</ele>
        <time>2019-12-21T08:04:32.359Z</time>
      </trkpt>
      <trkpt lat="41.31407667" lon="2.019095">
        <ele>15.0</ele>
        <time>2019-12-21T08:04:33.369Z</time>
      </trkpt>
      <trkpt lat="41.31407667" lon="2.019095">
        <ele>15.0</ele>
        <time>2019-12-21T08:04:34.348Z</time>
      </trkpt>
      <trkpt lat="41.31416333" lon="2.01918167">
        <ele>15.0</ele>
        <time>2019-12-21T08:04:35.352Z</time>
      </trkpt>
      <trkpt lat="41.31416333" lon="2.01918167">
        <ele>15.0</ele>
        <time>2019-12-21T08:04:36.347Z</time>
      </trkpt>
      <trkpt lat="41.31425167" lon="2.01926333">
        <ele>16.0</ele>
        <time>2019-12-21T08:04:37.353Z</time>
      </trkpt>
      <trkpt lat="41.31425167" lon="2.01926333">
        <ele>16.0</ele>
        <time>2019-12-21T08:04:38.347Z</time>
      </trkpt>
      <trkpt lat="41.31433667" lon="2.01935167">
        <ele>15.0</ele>
        <time>2019-12-21T08:04:39.369Z</time>
      </trkpt>
      <trkpt lat="41.31433667" lon="2.01935167">
        <ele>15.0</ele>
        <time>2019-12-21T08:04:40.349Z</time>
      </trkpt>
      <trkpt lat="41.31442" lon="2.01944333">
        <ele>15.0</ele>
        <time>2019-12-21T08:04:41.333Z</time>
      </trkpt>
      <trkpt lat="41.31442" lon="2.01944333">
        <ele>15.0</ele>
        <time>2019-12-21T08:04:42.367Z</time>
      </trkpt>
      <trkpt lat="41.31450667" lon="2.01953">
        <ele>15.0</ele>
        <time>2019-12-21T08:04:43.354Z</time>
      </trkpt>
      <trkpt lat="41.31450667" lon="2.01953">
        <ele>15.0</ele>
        <time>2019-12-21T08:04:44.348Z</time>
      </trkpt>
      <trkpt lat="41.31459" lon="2.01961833">
        <ele>15.0</ele>
        <time>2019-12-21T08:04:45.351Z</time>
      </trkpt>
      <trkpt lat="41.31459" lon="2.01961833">
        <ele>15.0</ele>
        <time>2019-12-21T08:04:46.347Z</time>
      </trkpt>
      <trkpt lat="41.31467833" lon="2.019705">
        <ele>15.0</ele>
        <time>2019-12-21T08:04:47.369Z</time>
      </trkpt>
      <trkpt lat="41.31467833" lon="2.019705">
        <ele>15.0</ele>
        <time>2019-12-21T08:04:48.353Z</time>
      </trkpt>
      <trkpt lat="41.31476333" lon="2.01979667">
        <ele>15.0</ele>
        <time>2019-12-21T08:04:49.352Z</time>
      </trkpt>
      <trkpt lat="41.31476333" lon="2.01979667">
        <ele>15.0</ele>
        <time>2019-12-21T08:04:50.347Z</time>
      </trkpt>
      <trkpt lat="41.31484833" lon="2.01988833">
        <ele>15.0</ele>
        <time>2019-12-21T08:04:51.370Z</time>
      </trkpt>
      <trkpt lat="41.31489667" lon="2.01993167">
        <ele>15.0</ele>
        <time>2019-12-21T08:04:52.364Z</time>
      </trkpt>
      <trkpt lat="41.31489667" lon="2.01993167">
        <ele>15.0</ele>
        <time>2019-12-21T08:04:53.348Z</time>
      </trkpt>
      <trkpt lat="41.31498667" lon="2.02002">
        <ele>15.0</ele>
        <time>2019-12-21T08:04:54.369Z</time>
      </trkpt>
      <trkpt lat="41.31498667" lon="2.02002">
        <ele>15.0</ele>
        <time>2019-12-21T08:04:55.349Z</time>
      </trkpt>
      <trkpt lat="41.315075" lon="2.02010667">
        <ele>15.0</ele>
        <time>2019-12-21T08:04:56.372Z</time>
      </trkpt>
      <trkpt lat="41.31511333" lon="2.020155">
        <ele>15.0</ele>
        <time>2019-12-21T08:04:57.357Z</time>
      </trkpt>
      <trkpt lat="41.31511333" lon="2.020155">
        <ele>15.0</ele>
        <time>2019-12-21T08:04:58.349Z</time>
      </trkpt>
      <trkpt lat="41.31519333" lon="2.02025">
        <ele>15.0</ele>
        <time>2019-12-21T08:04:59.359Z</time>
      </trkpt>
      <trkpt lat="41.31519333" lon="2.02025">
        <ele>15.0</ele>
        <time>2019-12-21T08:05:00.348Z</time>
      </trkpt>
      <trkpt lat="41.31527167" lon="2.02033833">
        <ele>15.0</ele>
        <time>2019-12-21T08:05:01.356Z</time>
      </trkpt>
      <trkpt lat="41.31527167" lon="2.02033833">
        <ele>15.0</ele>
        <time>2019-12-21T08:05:02.349Z</time>
      </trkpt>
      <trkpt lat="41.31534333" lon="2.0204">
        <ele>16.0</ele>
        <time>2019-12-21T08:05:03.356Z</time>
      </trkpt>
      <trkpt lat="41.31534333" lon="2.0204">
        <ele>16.0</ele>
        <time>2019-12-21T08:05:04.349Z</time>
      </trkpt>
      <trkpt lat="41.31538833" lon="2.02044333">
        <ele>16.0</ele>
        <time>2019-12-21T08:05:05.355Z</time>
      </trkpt>
      <trkpt lat="41.31538833" lon="2.02044333">
        <ele>16.0</ele>
        <time>2019-12-21T08:05:06.348Z</time>
      </trkpt>
      <trkpt lat="41.315395" lon="2.02048333">
        <ele>17.0</ele>
        <time>2019-12-21T08:05:07.355Z</time>
      </trkpt>
      <trkpt lat="41.315395" lon="2.02048333">
        <ele>17.0</ele>
        <time>2019-12-21T08:05:08.349Z</time>
      </trkpt>
      <trkpt lat="41.31537167" lon="2.02054167">
        <ele>17.0</ele>
        <time>2019-12-21T08:05:09.356Z</time>
      </trkpt>
      <trkpt lat="41.31535667" lon="2.02057">
        <ele>18.0</ele>
        <time>2019-12-21T08:05:10.354Z</time>
      </trkpt>
      <trkpt lat="41.31535667" lon="2.02057">
        <ele>18.0</ele>
        <time>2019-12-21T08:05:11.349Z</time>
      </trkpt>
      <trkpt lat="41.31531833" lon="2.02064167">
        <ele>18.0</ele>
        <time>2019-12-21T08:05:12.355Z</time>
      </trkpt>
      <trkpt lat="41.31531833" lon="2.02064167">
        <ele>18.0</ele>
        <time>2019-12-21T08:05:13.349Z</time>
      </trkpt>
      <trkpt lat="41.31527" lon="2.02072167">
        <ele>18.0</ele>
        <time>2019-12-21T08:05:14.354Z</time>
      </trkpt>
      <trkpt lat="41.315245" lon="2.02076">
        <ele>18.0</ele>
        <time>2019-12-21T08:05:15.357Z</time>
      </trkpt>
      <trkpt lat="41.315245" lon="2.02076">
        <ele>18.0</ele>
        <time>2019-12-21T08:05:16.348Z</time>
      </trkpt>
      <trkpt lat="41.3152" lon="2.020835">
        <ele>19.0</ele>
        <time>2019-12-21T08:05:17.353Z</time>
      </trkpt>
      <trkpt lat="41.3152" lon="2.020835">
        <ele>19.0</ele>
        <time>2019-12-21T08:05:18.349Z</time>
      </trkpt>
      <trkpt lat="41.31515" lon="2.02090667">
        <ele>19.0</ele>
        <time>2019-12-21T08:05:19.356Z</time>
      </trkpt>
      <trkpt lat="41.31515" lon="2.02090667">
        <ele>19.0</ele>
        <time>2019-12-21T08:05:20.357Z</time>
      </trkpt>
      <trkpt lat="41.31509167" lon="2.020975">
        <ele>18.0</ele>
        <time>2019-12-21T08:05:21.360Z</time>
      </trkpt>
      <trkpt lat="41.31509167" lon="2.020975">
        <ele>18.0</ele>
        <time>2019-12-21T08:05:22.359Z</time>
      </trkpt>
      <trkpt lat="41.31501833" lon="2.02102833">
        <ele>18.0</ele>
        <time>2019-12-21T08:05:23.363Z</time>
      </trkpt>
      <trkpt lat="41.31501833" lon="2.02102833">
        <ele>18.0</ele>
        <time>2019-12-21T08:05:24.358Z</time>
      </trkpt>
      <trkpt lat="41.314935" lon="2.02108833">
        <ele>18.0</ele>
        <time>2019-12-21T08:05:25.356Z</time>
      </trkpt>
      <trkpt lat="41.314935" lon="2.02108833">
        <ele>18.0</ele>
        <time>2019-12-21T08:05:26.349Z</time>
      </trkpt>
      <trkpt lat="41.31485167" lon="2.02114833">
        <ele>18.0</ele>
        <time>2019-12-21T08:05:27.357Z</time>
      </trkpt>
      <trkpt lat="41.31485167" lon="2.02114833">
        <ele>18.0</ele>
        <time>2019-12-21T08:05:28.352Z</time>
      </trkpt>
      <trkpt lat="41.31477167" lon="2.02121667">
        <ele>18.0</ele>
        <time>2019-12-21T08:05:29.354Z</time>
      </trkpt>
      <trkpt lat="41.31477167" lon="2.02121667">
        <ele>18.0</ele>
        <time>2019-12-21T08:05:30.352Z</time>
      </trkpt>
      <trkpt lat="41.31469667" lon="2.02128333">
        <ele>19.0</ele>
        <time>2019-12-21T08:05:31.355Z</time>
      </trkpt>
      <trkpt lat="41.31469667" lon="2.02128333">
        <ele>19.0</ele>
        <time>2019-12-21T08:05:32.357Z</time>
      </trkpt>
      <trkpt lat="41.314615" lon="2.02134">
        <ele>19.0</ele>
        <time>2019-12-21T08:05:33.357Z</time>
      </trkpt>
      <trkpt lat="41.314615" lon="2.02134">
        <ele>19.0</ele>
        <time>2019-12-21T08:05:34.351Z</time>
      </trkpt>
      <trkpt lat="41.31452667" lon="2.02140833">
        <ele>19.0</ele>
        <time>2019-12-21T08:05:35.355Z</time>
      </trkpt>
      <trkpt lat="41.31452667" lon="2.02140833">
        <ele>19.0</ele>
        <time>2019-12-21T08:05:36.345Z</time>
      </trkpt>
      <trkpt lat="41.31444167" lon="2.021475">
        <ele>19.0</ele>
        <time>2019-12-21T08:05:37.359Z</time>
      </trkpt>
      <trkpt lat="41.31444167" lon="2.021475">
        <ele>19.0</ele>
        <time>2019-12-21T08:05:38.352Z</time>
      </trkpt>
      <trkpt lat="41.31437333" lon="2.02155833">
        <ele>20.0</ele>
        <time>2019-12-21T08:05:39.353Z</time>
      </trkpt>
      <trkpt lat="41.31437333" lon="2.02155833">
        <ele>20.0</ele>
        <time>2019-12-21T08:05:40.352Z</time>
      </trkpt>
      <trkpt lat="41.31435167" lon="2.02165667">
        <ele>21.0</ele>
        <time>2019-12-21T08:05:41.354Z</time>
      </trkpt>
      <trkpt lat="41.31435167" lon="2.02165667">
        <ele>21.0</ele>
        <time>2019-12-21T08:05:42.349Z</time>
      </trkpt>
      <trkpt lat="41.314325" lon="2.02174333">
        <ele>21.0</ele>
        <time>2019-12-21T08:05:43.355Z</time>
      </trkpt>
      <trkpt lat="41.314325" lon="2.02174333">
        <ele>21.0</ele>
        <time>2019-12-21T08:05:44.349Z</time>
      </trkpt>
      <trkpt lat="41.314305" lon="2.02180167">
        <ele>22.0</ele>
        <time>2019-12-21T08:05:45.355Z</time>
      </trkpt>
      <trkpt lat="41.314305" lon="2.02180167">
        <ele>22.0</ele>
        <time>2019-12-21T08:05:46.357Z</time>
      </trkpt>
      <trkpt lat="41.31430333" lon="2.02182">
        <ele>23.0</ele>
        <time>2019-12-21T08:05:47.355Z</time>
      </trkpt>
      <trkpt lat="41.31430333" lon="2.02182">
        <ele>23.0</ele>
        <time>2019-12-21T08:05:48.349Z</time>
      </trkpt>
      <trkpt lat="41.31430333" lon="2.02182167">
        <ele>23.0</ele>
        <time>2019-12-21T08:05:49.349Z</time>
      </trkpt>
      <trkpt lat="41.31430333" lon="2.02182167">
        <ele>23.0</ele>
        <time>2019-12-21T08:05:50.348Z</time>
      </trkpt>
      <trkpt lat="41.31430333" lon="2.02182167">
        <ele>23.0</ele>
        <time>2019-12-21T08:05:51.344Z</time>
      </trkpt>
      <trkpt lat="41.31417667" lon="2.02185">
        <ele>21.0</ele>
        <time>2019-12-21T08:05:52.339Z</time>
      </trkpt>
      <trkpt lat="41.31417667" lon="2.02185">
        <ele>21.0</ele>
        <time>2019-12-21T08:05:53.366Z</time>
      </trkpt>
      <trkpt lat="41.31414833" lon="2.021895">
        <ele>21.0</ele>
        <time>2019-12-21T08:05:54.340Z</time>
      </trkpt>
      <trkpt lat="41.31414833" lon="2.021895">
        <ele>21.0</ele>
        <time>2019-12-21T08:05:55.367Z</time>
      </trkpt>
      <trkpt lat="41.31409667" lon="2.021905">
        <ele>21.0</ele>
        <time>2019-12-21T08:05:56.371Z</time>
      </trkpt>
      <trkpt lat="41.31409667" lon="2.021905">
        <ele>21.0</ele>
        <time>2019-12-21T08:05:57.367Z</time>
      </trkpt>
      <trkpt lat="41.31405167" lon="2.0219">
        <ele>22.0</ele>
        <time>2019-12-21T08:05:58.372Z</time>
      </trkpt>
      <trkpt lat="41.31405167" lon="2.0219">
        <ele>22.0</ele>
        <time>2019-12-21T08:05:59.367Z</time>
      </trkpt>
      <trkpt lat="41.314015" lon="2.02193833">
        <ele>22.0</ele>
        <time>2019-12-21T08:06:00.350Z</time>
      </trkpt>
      <trkpt lat="41.314015" lon="2.02193833">
        <ele>22.0</ele>
        <time>2019-12-21T08:06:01.345Z</time>
      </trkpt>
      <trkpt lat="41.31401" lon="2.02196833">
        <ele>22.0</ele>
        <time>2019-12-21T08:06:02.370Z</time>
      </trkpt>
      <trkpt lat="41.31401" lon="2.02196833">
        <ele>22.0</ele>
        <time>2019-12-21T08:06:03.352Z</time>
      </trkpt>
      <trkpt lat="41.31400833" lon="2.02197167">
        <ele>22.0</ele>
        <time>2019-12-21T08:06:04.335Z</time>
      </trkpt>
      <trkpt lat="41.31400833" lon="2.02197167">
        <ele>22.0</ele>
        <time>2019-12-21T08:06:05.367Z</time>
      </trkpt>
      <trkpt lat="41.31400833" lon="2.02197167">
        <ele>22.0</ele>
        <time>2019-12-21T08:06:06.333Z</time>
      </trkpt>
      <trkpt lat="41.31391667" lon="2.02199167">
        <ele>27.0</ele>
        <time>2019-12-21T08:06:07.338Z</time>
      </trkpt>
      <trkpt lat="41.31389" lon="2.021965">
        <ele>27.0</ele>
        <time>2019-12-21T08:06:08.338Z</time>
      </trkpt>
      <trkpt lat="41.31389" lon="2.021965">
        <ele>27.0</ele>
        <time>2019-12-21T08:06:09.334Z</time>
      </trkpt>
      <trkpt lat="41.31383333" lon="2.02200167">
        <ele>28.0</ele>
        <time>2019-12-21T08:06:10.352Z</time>
      </trkpt>
      <trkpt lat="41.31381333" lon="2.02203333">
        <ele>28.0</ele>
        <time>2019-12-21T08:06:11.340Z</time>
      </trkpt>
      <trkpt lat="41.31381333" lon="2.02203333">
        <ele>28.0</ele>
        <time>2019-12-21T08:06:12.333Z</time>
      </trkpt>
      <trkpt lat="41.31375667" lon="2.02208333">
        <ele>28.0</ele>
        <time>2019-12-21T08:06:13.335Z</time>
      </trkpt>
      <trkpt lat="41.31375667" lon="2.02208333">
        <ele>28.0</ele>
        <time>2019-12-21T08:06:14.333Z</time>
      </trkpt>
      <trkpt lat="41.313705" lon="2.02212667">
        <ele>28.0</ele>
        <time>2019-12-21T08:06:15.337Z</time>
      </trkpt>
      <trkpt lat="41.313705" lon="2.02212667">
        <ele>28.0</ele>
        <time>2019-12-21T08:06:16.333Z</time>
      </trkpt>
      <trkpt lat="41.31364333" lon="2.02217">
        <ele>29.0</ele>
        <time>2019-12-21T08:06:17.337Z</time>
      </trkpt>
      <trkpt lat="41.31364333" lon="2.02217">
        <ele>29.0</ele>
        <time>2019-12-21T08:06:18.333Z</time>
      </trkpt>
      <trkpt lat="41.31359667" lon="2.02222333">
        <ele>29.0</ele>
        <time>2019-12-21T08:06:19.337Z</time>
      </trkpt>
      <trkpt lat="41.31359667" lon="2.02222333">
        <ele>29.0</ele>
        <time>2019-12-21T08:06:20.353Z</time>
      </trkpt>
      <trkpt lat="41.31359" lon="2.02227833">
        <ele>29.0</ele>
        <time>2019-12-21T08:06:21.339Z</time>
      </trkpt>
      <trkpt lat="41.31359" lon="2.02227833">
        <ele>29.0</ele>
        <time>2019-12-21T08:06:22.333Z</time>
      </trkpt>
      <trkpt lat="41.31360167" lon="2.02229833">
        <ele>29.0</ele>
        <time>2019-12-21T08:06:23.355Z</time>
      </trkpt>
      <trkpt lat="41.31360167" lon="2.02229833">
        <ele>29.0</ele>
        <time>2019-12-21T08:06:24.338Z</time>
      </trkpt>
      <trkpt lat="41.313625" lon="2.02231333">
        <ele>29.0</ele>
        <time>2019-12-21T08:06:25.338Z</time>
      </trkpt>
      <trkpt lat="41.313625" lon="2.02231333">
        <ele>29.0</ele>
        <time>2019-12-21T08:06:26.333Z</time>
      </trkpt>
      <trkpt lat="41.31364667" lon="2.022325">
        <ele>30.0</ele>
        <time>2019-12-21T08:06:27.340Z</time>
      </trkpt>
      <trkpt lat="41.31364667" lon="2.022325">
        <ele>30.0</ele>
        <time>2019-12-21T08:06:28.333Z</time>
      </trkpt>
      <trkpt lat="41.31366667" lon="2.0223">
        <ele>30.0</ele>
        <time>2019-12-21T08:06:29.340Z</time>
      </trkpt>
      <trkpt lat="41.313675" lon="2.02227667">
        <ele>30.0</ele>
        <time>2019-12-21T08:06:30.358Z</time>
      </trkpt>
      <trkpt lat="41.313675" lon="2.02227667">
        <ele>30.0</ele>
        <time>2019-12-21T08:06:31.342Z</time>
      </trkpt>
      <trkpt lat="41.313665" lon="2.02223">
        <ele>30.0</ele>
        <time>2019-12-21T08:06:32.338Z</time>
      </trkpt>
      <trkpt lat="41.313665" lon="2.02223">
        <ele>30.0</ele>
        <time>2019-12-21T08:06:33.333Z</time>
      </trkpt>
      <trkpt lat="41.31366167" lon="2.02221">
        <ele>29.0</ele>
        <time>2019-12-21T08:06:34.338Z</time>
      </trkpt>
      <trkpt lat="41.31365167" lon="2.022205">
        <ele>29.0</ele>
        <time>2019-12-21T08:06:35.341Z</time>
      </trkpt>
      <trkpt lat="41.31365167" lon="2.022205">
        <ele>29.0</ele>
        <time>2019-12-21T08:06:36.333Z</time>
      </trkpt>
      <trkpt lat="41.31365167" lon="2.02219833">
        <ele>29.0</ele>
        <time>2019-12-21T08:06:37.338Z</time>
      </trkpt>
      <trkpt lat="41.31365167" lon="2.02219833">
        <ele>29.0</ele>
        <time>2019-12-21T08:06:38.353Z</time>
      </trkpt>
      <trkpt lat="41.31366333" lon="2.02216833">
        <ele>26.0</ele>
        <time>2019-12-21T08:06:39.363Z</time>
      </trkpt>
      <trkpt lat="41.31366333" lon="2.02216833">
        <ele>26.0</ele>
        <time>2019-12-21T08:06:40.351Z</time>
      </trkpt>
      <trkpt lat="41.31360667" lon="2.02218167">
        <ele>25.0</ele>
        <time>2019-12-21T08:06:41.347Z</time>
      </trkpt>
      <trkpt lat="41.31360667" lon="2.02218167">
        <ele>25.0</ele>
        <time>2019-12-21T08:06:42.343Z</time>
      </trkpt>
      <trkpt lat="41.313555" lon="2.022205">
        <ele>25.0</ele>
        <time>2019-12-21T08:06:43.369Z</time>
      </trkpt>
      <trkpt lat="41.31354" lon="2.02223667">
        <ele>25.0</ele>
        <time>2019-12-21T08:06:44.353Z</time>
      </trkpt>
      <trkpt lat="41.31354333" lon="2.02226333">
        <ele>26.0</ele>
        <time>2019-12-21T08:06:45.351Z</time>
      </trkpt>
      <trkpt lat="41.31354333" lon="2.02226333">
        <ele>26.0</ele>
        <time>2019-12-21T08:06:46.344Z</time>
      </trkpt>
      <trkpt lat="41.31357" lon="2.02230333">
        <ele>25.0</ele>
        <time>2019-12-21T08:06:47.349Z</time>
      </trkpt>
      <trkpt lat="41.31357" lon="2.02230333">
        <ele>25.0</ele>
        <time>2019-12-21T08:06:48.345Z</time>
      </trkpt>
      <trkpt lat="41.31359667" lon="2.022325">
        <ele>25.0</ele>
        <time>2019-12-21T08:06:49.349Z</time>
      </trkpt>
      <trkpt lat="41.31359667" lon="2.022325">
        <ele>25.0</ele>
        <time>2019-12-21T08:06:50.343Z</time>
      </trkpt>
      <trkpt lat="41.31363" lon="2.02233833">
        <ele>26.0</ele>
        <time>2019-12-21T08:06:51.370Z</time>
      </trkpt>
      <trkpt lat="41.31363" lon="2.02233833">
        <ele>26.0</ele>
        <time>2019-12-21T08:06:52.349Z</time>
      </trkpt>
      <trkpt lat="41.31366167" lon="2.02233333">
        <ele>25.0</ele>
        <time>2019-12-21T08:06:53.350Z</time>
      </trkpt>
      <trkpt lat="41.31366167" lon="2.02233333">
        <ele>25.0</ele>
        <time>2019-12-21T08:06:54.361Z</time>
      </trkpt>
      <trkpt lat="41.31369167" lon="2.02229667">
        <ele>25.0</ele>
        <time>2019-12-21T08:06:55.349Z</time>
      </trkpt>
      <trkpt lat="41.31369167" lon="2.02229667">
        <ele>25.0</ele>
        <time>2019-12-21T08:06:56.349Z</time>
      </trkpt>
      <trkpt lat="41.31369667" lon="2.02226833">
        <ele>25.0</ele>
        <time>2019-12-21T08:06:57.351Z</time>
      </trkpt>
      <trkpt lat="41.31369667" lon="2.02226833">
        <ele>25.0</ele>
        <time>2019-12-21T08:06:58.344Z</time>
      </trkpt>
      <trkpt lat="41.3137" lon="2.02225833">
        <ele>25.0</ele>
        <time>2019-12-21T08:06:59.349Z</time>
      </trkpt>
      <trkpt lat="41.3137" lon="2.02225833">
        <ele>25.0</ele>
        <time>2019-12-21T08:07:00.342Z</time>
      </trkpt>
      <trkpt lat="41.31371" lon="2.02226833">
        <ele>24.0</ele>
        <time>2019-12-21T08:07:01.350Z</time>
      </trkpt>
      <trkpt lat="41.31371" lon="2.02226833">
        <ele>24.0</ele>
        <time>2019-12-21T08:07:02.344Z</time>
      </trkpt>
      <trkpt lat="41.31371667" lon="2.022245">
        <ele>24.0</ele>
        <time>2019-12-21T08:07:03.371Z</time>
      </trkpt>
      <trkpt lat="41.31371667" lon="2.022245">
        <ele>24.0</ele>
        <time>2019-12-21T08:07:04.363Z</time>
      </trkpt>
      <trkpt lat="41.31372667" lon="2.02217333">
        <ele>23.0</ele>
        <time>2019-12-21T08:07:05.349Z</time>
      </trkpt>
      <trkpt lat="41.31372667" lon="2.02217333">
        <ele>23.0</ele>
        <time>2019-12-21T08:07:06.344Z</time>
      </trkpt>
      <trkpt lat="41.31375333" lon="2.02210667">
        <ele>24.0</ele>
        <time>2019-12-21T08:07:07.349Z</time>
      </trkpt>
      <trkpt lat="41.31375333" lon="2.02210667">
        <ele>24.0</ele>
        <time>2019-12-21T08:07:08.344Z</time>
      </trkpt>
      <trkpt lat="41.31381667" lon="2.02208">
        <ele>23.0</ele>
        <time>2019-12-21T08:07:09.367Z</time>
      </trkpt>
      <trkpt lat="41.31381667" lon="2.02208">
        <ele>23.0</ele>
        <time>2019-12-21T08:07:10.348Z</time>
      </trkpt>
      <trkpt lat="41.313865" lon="2.02204667">
        <ele>23.0</ele>
        <time>2019-12-21T08:07:11.349Z</time>
      </trkpt>
      <trkpt lat="41.313865" lon="2.02204667">
        <ele>23.0</ele>
        <time>2019-12-21T08:07:12.343Z</time>
      </trkpt>
      <trkpt lat="41.31391667" lon="2.02201">
        <ele>22.0</ele>
        <time>2019-12-21T08:07:13.367Z</time>
      </trkpt>
      <trkpt lat="41.31394167" lon="2.02198833">
        <ele>21.0</ele>
        <time>2019-12-21T08:07:14.351Z</time>
      </trkpt>
      <trkpt lat="41.313965" lon="2.02196833">
        <ele>21.0</ele>
        <time>2019-12-21T08:07:15.351Z</time>
      </trkpt>
      <trkpt lat="41.313965" lon="2.02196833">
        <ele>21.0</ele>
        <time>2019-12-21T08:07:16.344Z</time>
      </trkpt>
      <trkpt lat="41.31401167" lon="2.021935">
        <ele>20.0</ele>
        <time>2019-12-21T08:07:17.350Z</time>
      </trkpt>
      <trkpt lat="41.31401167" lon="2.021935">
        <ele>20.0</ele>
        <time>2019-12-21T08:07:18.340Z</time>
      </trkpt>
      <trkpt lat="41.31407833" lon="2.02192333">
        <ele>20.0</ele>
        <time>2019-12-21T08:07:19.363Z</time>
      </trkpt>
      <trkpt lat="41.31407833" lon="2.02192333">
        <ele>20.0</ele>
        <time>2019-12-21T08:07:20.364Z</time>
      </trkpt>
      <trkpt lat="41.31412833" lon="2.02190333">
        <ele>19.0</ele>
        <time>2019-12-21T08:07:21.352Z</time>
      </trkpt>
      <trkpt lat="41.31412833" lon="2.02190333">
        <ele>19.0</ele>
        <time>2019-12-21T08:07:22.344Z</time>
      </trkpt>
      <trkpt lat="41.31413333" lon="2.02186333">
        <ele>19.0</ele>
        <time>2019-12-21T08:07:23.349Z</time>
      </trkpt>
      <trkpt lat="41.31413333" lon="2.02186333">
        <ele>19.0</ele>
        <time>2019-12-21T08:07:24.344Z</time>
      </trkpt>
      <trkpt lat="41.314095" lon="2.0219">
        <ele>19.0</ele>
        <time>2019-12-21T08:07:25.349Z</time>
      </trkpt>
      <trkpt lat="41.31407333" lon="2.02192167">
        <ele>19.0</ele>
        <time>2019-12-21T08:07:26.350Z</time>
      </trkpt>
      <trkpt lat="41.31407333" lon="2.02192167">
        <ele>19.0</ele>
        <time>2019-12-21T08:07:27.346Z</time>
      </trkpt>
      <trkpt lat="41.31402833" lon="2.02197167">
        <ele>19.0</ele>
        <time>2019-12-21T08:07:28.349Z</time>
      </trkpt>
      <trkpt lat="41.31402833" lon="2.02197167">
        <ele>19.0</ele>
        <time>2019-12-21T08:07:29.344Z</time>
      </trkpt>
      <trkpt lat="41.31397667" lon="2.02201667">
        <ele>19.0</ele>
        <time>2019-12-21T08:07:30.350Z</time>
      </trkpt>
      <trkpt lat="41.31397667" lon="2.02201667">
        <ele>19.0</ele>
        <time>2019-12-21T08:07:31.345Z</time>
      </trkpt>
      <trkpt lat="41.31392333" lon="2.02206167">
        <ele>19.0</ele>
        <time>2019-12-21T08:07:32.369Z</time>
      </trkpt>
      <trkpt lat="41.31391333" lon="2.02208833">
        <ele>19.0</ele>
        <time>2019-12-21T08:07:33.353Z</time>
      </trkpt>
      <trkpt lat="41.31391333" lon="2.02208833">
        <ele>19.0</ele>
        <time>2019-12-21T08:07:34.345Z</time>
      </trkpt>
      <trkpt lat="41.313845" lon="2.02204833">
        <ele>20.0</ele>
        <time>2019-12-21T08:07:35.351Z</time>
      </trkpt>
      <trkpt lat="41.313845" lon="2.02204833">
        <ele>20.0</ele>
        <time>2019-12-21T08:07:36.345Z</time>
      </trkpt>
      <trkpt lat="41.313795" lon="2.02208667">
        <ele>21.0</ele>
        <time>2019-12-21T08:07:37.349Z</time>
      </trkpt>
      <trkpt lat="41.313795" lon="2.02208667">
        <ele>21.0</ele>
        <time>2019-12-21T08:07:38.345Z</time>
      </trkpt>
      <trkpt lat="41.3138" lon="2.02215167">
        <ele>22.0</ele>
        <time>2019-12-21T08:07:39.367Z</time>
      </trkpt>
      <trkpt lat="41.3138" lon="2.02215167">
        <ele>22.0</ele>
        <time>2019-12-21T08:07:40.350Z</time>
      </trkpt>
      <trkpt lat="41.31383" lon="2.02219167">
        <ele>23.0</ele>
        <time>2019-12-21T08:07:41.349Z</time>
      </trkpt>
      <trkpt lat="41.31383" lon="2.02219167">
        <ele>23.0</ele>
        <time>2019-12-21T08:07:42.344Z</time>
      </trkpt>
      <trkpt lat="41.31383167" lon="2.02222667">
        <ele>24.0</ele>
        <time>2019-12-21T08:07:43.353Z</time>
      </trkpt>
      <trkpt lat="41.31383167" lon="2.02222667">
        <ele>24.0</ele>
        <time>2019-12-21T08:07:44.341Z</time>
      </trkpt>
      <trkpt lat="41.31385167" lon="2.02226333">
        <ele>24.0</ele>
        <time>2019-12-21T08:07:45.363Z</time>
      </trkpt>
      <trkpt lat="41.31385167" lon="2.02226333">
        <ele>24.0</ele>
        <time>2019-12-21T08:07:46.347Z</time>
      </trkpt>
      <trkpt lat="41.313865" lon="2.02228833">
        <ele>24.0</ele>
        <time>2019-12-21T08:07:47.349Z</time>
      </trkpt>
      <trkpt lat="41.313865" lon="2.02228833">
        <ele>24.0</ele>
        <time>2019-12-21T08:07:48.344Z</time>
      </trkpt>
      <trkpt lat="41.31387167" lon="2.02232167">
        <ele>24.0</ele>
        <time>2019-12-21T08:07:49.349Z</time>
      </trkpt>
      <trkpt lat="41.31387167" lon="2.02232167">
        <ele>24.0</ele>
        <time>2019-12-21T08:07:50.344Z</time>
      </trkpt>
      <trkpt lat="41.31388" lon="2.02235">
        <ele>25.0</ele>
        <time>2019-12-21T08:07:51.351Z</time>
      </trkpt>
      <trkpt lat="41.31388" lon="2.02235">
        <ele>25.0</ele>
        <time>2019-12-21T08:07:52.344Z</time>
      </trkpt>
      <trkpt lat="41.31389" lon="2.02237167">
        <ele>25.0</ele>
        <time>2019-12-21T08:07:53.370Z</time>
      </trkpt>
      <trkpt lat="41.313895" lon="2.022375">
        <ele>25.0</ele>
        <time>2019-12-21T08:07:54.351Z</time>
      </trkpt>
      <trkpt lat="41.313895" lon="2.022375">
        <ele>25.0</ele>
        <time>2019-12-21T08:07:55.344Z</time>
      </trkpt>
      <trkpt lat="41.31391167" lon="2.022385">
        <ele>26.0</ele>
        <time>2019-12-21T08:07:56.353Z</time>
      </trkpt>
      <trkpt lat="41.31389667" lon="2.02239">
        <ele>26.0</ele>
        <time>2019-12-21T08:07:57.352Z</time>
      </trkpt>
      <trkpt lat="41.31389667" lon="2.02239">
        <ele>26.0</ele>
        <time>2019-12-21T08:07:58.344Z</time>
      </trkpt>
      <trkpt lat="41.31387667" lon="2.022385">
        <ele>27.0</ele>
        <time>2019-12-21T08:07:59.349Z</time>
      </trkpt>
      <trkpt lat="41.31387667" lon="2.022385">
        <ele>27.0</ele>
        <time>2019-12-21T08:08:00.345Z</time>
      </trkpt>
      <trkpt lat="41.31384167" lon="2.02237667">
        <ele>27.0</ele>
        <time>2019-12-21T08:08:01.369Z</time>
      </trkpt>
      <trkpt lat="41.31384167" lon="2.02237667">
        <ele>27.0</ele>
        <time>2019-12-21T08:08:02.352Z</time>
      </trkpt>
      <trkpt lat="41.31379833" lon="2.02236333">
        <ele>27.0</ele>
        <time>2019-12-21T08:08:03.350Z</time>
      </trkpt>
      <trkpt lat="41.31379833" lon="2.02236333">
        <ele>27.0</ele>
        <time>2019-12-21T08:08:04.346Z</time>
      </trkpt>
      <trkpt lat="41.31372667" lon="2.02234667">
        <ele>27.0</ele>
        <time>2019-12-21T08:08:05.349Z</time>
      </trkpt>
      <trkpt lat="41.31372667" lon="2.02234667">
        <ele>27.0</ele>
        <time>2019-12-21T08:08:06.344Z</time>
      </trkpt>
      <trkpt lat="41.31369833" lon="2.02230167">
        <ele>27.0</ele>
        <time>2019-12-21T08:08:07.349Z</time>
      </trkpt>
      <trkpt lat="41.31368333" lon="2.02227833">
        <ele>27.0</ele>
        <time>2019-12-21T08:08:08.351Z</time>
      </trkpt>
      <trkpt lat="41.31369333" lon="2.02225833">
        <ele>27.0</ele>
        <time>2019-12-21T08:08:09.352Z</time>
      </trkpt>
      <trkpt lat="41.31369333" lon="2.02225833">
        <ele>27.0</ele>
        <time>2019-12-21T08:08:10.344Z</time>
      </trkpt>
      <trkpt lat="41.31366833" lon="2.02220667">
        <ele>27.0</ele>
        <time>2019-12-21T08:08:11.365Z</time>
      </trkpt>
      <trkpt lat="41.31366833" lon="2.02220667">
        <ele>27.0</ele>
        <time>2019-12-21T08:08:12.346Z</time>
      </trkpt>
      <trkpt lat="41.31366" lon="2.022185">
        <ele>27.0</ele>
        <time>2019-12-21T08:08:13.348Z</time>
      </trkpt>
      <trkpt lat="41.31364" lon="2.02217167">
        <ele>27.0</ele>
        <time>2019-12-21T08:08:14.350Z</time>
      </trkpt>
      <trkpt lat="41.31361667" lon="2.022175">
        <ele>27.0</ele>
        <time>2019-12-21T08:08:15.352Z</time>
      </trkpt>
      <trkpt lat="41.31361667" lon="2.022175">
        <ele>27.0</ele>
        <time>2019-12-21T08:08:16.344Z</time>
      </trkpt>
      <trkpt lat="41.31356667" lon="2.02221167">
        <ele>27.0</ele>
        <time>2019-12-21T08:08:17.347Z</time>
      </trkpt>
      <trkpt lat="41.31356667" lon="2.02221167">
        <ele>27.0</ele>
        <time>2019-12-21T08:08:18.345Z</time>
      </trkpt>
      <trkpt lat="41.31353" lon="2.02227667">
        <ele>26.0</ele>
        <time>2019-12-21T08:08:19.353Z</time>
      </trkpt>
      <trkpt lat="41.31353" lon="2.02227667">
        <ele>26.0</ele>
        <time>2019-12-21T08:08:20.345Z</time>
      </trkpt>
      <trkpt lat="41.31354333" lon="2.022325">
        <ele>26.0</ele>
        <time>2019-12-21T08:08:21.366Z</time>
      </trkpt>
      <trkpt lat="41.31354333" lon="2.022325">
        <ele>26.0</ele>
        <time>2019-12-21T08:08:22.363Z</time>
      </trkpt>
      <trkpt lat="41.31356667" lon="2.02234833">
        <ele>26.0</ele>
        <time>2019-12-21T08:08:23.350Z</time>
      </trkpt>
      <trkpt lat="41.31357333" lon="2.022355">
        <ele>26.0</ele>
        <time>2019-12-21T08:08:24.350Z</time>
      </trkpt>
      <trkpt lat="41.31357333" lon="2.022355">
        <ele>26.0</ele>
        <time>2019-12-21T08:08:25.344Z</time>
      </trkpt>
      <trkpt lat="41.31359" lon="2.02236">
        <ele>25.0</ele>
        <time>2019-12-21T08:08:26.350Z</time>
      </trkpt>
      <trkpt lat="41.3136" lon="2.02236667">
        <ele>25.0</ele>
        <time>2019-12-21T08:08:27.352Z</time>
      </trkpt>
      <trkpt lat="41.3136" lon="2.02236667">
        <ele>25.0</ele>
        <time>2019-12-21T08:08:28.345Z</time>
      </trkpt>
      <trkpt lat="41.31364" lon="2.02235833">
        <ele>26.0</ele>
        <time>2019-12-21T08:08:29.350Z</time>
      </trkpt>
      <trkpt lat="41.31364" lon="2.02235833">
        <ele>26.0</ele>
        <time>2019-12-21T08:08:30.344Z</time>
      </trkpt>
      <trkpt lat="41.31366" lon="2.02232667">
        <ele>26.0</ele>
        <time>2019-12-21T08:08:31.370Z</time>
      </trkpt>
      <trkpt lat="41.31366" lon="2.02232667">
        <ele>26.0</ele>
        <time>2019-12-21T08:08:32.353Z</time>
      </trkpt>
      <trkpt lat="41.313685" lon="2.02228833">
        <ele>26.0</ele>
        <time>2019-12-21T08:08:33.352Z</time>
      </trkpt>
      <trkpt lat="41.313685" lon="2.02228833">
        <ele>26.0</ele>
        <time>2019-12-21T08:08:34.344Z</time>
      </trkpt>
      <trkpt lat="41.31368333" lon="2.02226833">
        <ele>25.0</ele>
        <time>2019-12-21T08:08:35.350Z</time>
      </trkpt>
      <trkpt lat="41.31368333" lon="2.02226833">
        <ele>25.0</ele>
        <time>2019-12-21T08:08:36.344Z</time>
      </trkpt>
      <trkpt lat="41.31367167" lon="2.02227333">
        <ele>25.0</ele>
        <time>2019-12-21T08:08:37.349Z</time>
      </trkpt>
      <trkpt lat="41.31368333" lon="2.02227333">
        <ele>25.0</ele>
        <time>2019-12-21T08:08:38.350Z</time>
      </trkpt>
      <trkpt lat="41.31368333" lon="2.02227333">
        <ele>25.0</ele>
        <time>2019-12-21T08:08:39.346Z</time>
      </trkpt>
      <trkpt lat="41.31370167" lon="2.02225833">
        <ele>25.0</ele>
        <time>2019-12-21T08:08:40.350Z</time>
      </trkpt>
      <trkpt lat="41.31370167" lon="2.02225833">
        <ele>25.0</ele>
        <time>2019-12-21T08:08:41.340Z</time>
      </trkpt>
      <trkpt lat="41.31367833" lon="2.02221833">
        <ele>25.0</ele>
        <time>2019-12-21T08:08:42.349Z</time>
      </trkpt>
      <trkpt lat="41.31367833" lon="2.02221833">
        <ele>25.0</ele>
        <time>2019-12-21T08:08:43.345Z</time>
      </trkpt>
      <trkpt lat="41.313655" lon="2.02221667">
        <ele>25.0</ele>
        <time>2019-12-21T08:08:44.349Z</time>
      </trkpt>
      <trkpt lat="41.31363167" lon="2.022225">
        <ele>25.0</ele>
        <time>2019-12-21T08:08:45.353Z</time>
      </trkpt>
      <trkpt lat="41.31363167" lon="2.022225">
        <ele>25.0</ele>
        <time>2019-12-21T08:08:46.345Z</time>
      </trkpt>
      <trkpt lat="41.31358" lon="2.02222333">
        <ele>25.0</ele>
        <time>2019-12-21T08:08:47.349Z</time>
      </trkpt>
      <trkpt lat="41.31358" lon="2.02222333">
        <ele>25.0</ele>
        <time>2019-12-21T08:08:48.345Z</time>
      </trkpt>
      <trkpt lat="41.31355167" lon="2.02225667">
        <ele>26.0</ele>
        <time>2019-12-21T08:08:49.347Z</time>
      </trkpt>
      <trkpt lat="41.31354833" lon="2.02228667">
        <ele>26.0</ele>
        <time>2019-12-21T08:08:50.350Z</time>
      </trkpt>
      <trkpt lat="41.31354833" lon="2.02228667">
        <ele>26.0</ele>
        <time>2019-12-21T08:08:51.348Z</time>
      </trkpt>
      <trkpt lat="41.31356333" lon="2.02231667">
        <ele>26.0</ele>
        <time>2019-12-21T08:08:52.372Z</time>
      </trkpt>
      <trkpt lat="41.31356333" lon="2.02231667">
        <ele>26.0</ele>
        <time>2019-12-21T08:08:53.359Z</time>
      </trkpt>
      <trkpt lat="41.31358167" lon="2.02233333">
        <ele>26.0</ele>
        <time>2019-12-21T08:08:54.365Z</time>
      </trkpt>
      <trkpt lat="41.31358167" lon="2.02233333">
        <ele>26.0</ele>
        <time>2019-12-21T08:08:55.349Z</time>
      </trkpt>
      <trkpt lat="41.313605" lon="2.02235">
        <ele>26.0</ele>
        <time>2019-12-21T08:08:56.370Z</time>
      </trkpt>
      <trkpt lat="41.31362333" lon="2.02235167">
        <ele>26.0</ele>
        <time>2019-12-21T08:08:57.349Z</time>
      </trkpt>
      <trkpt lat="41.31362333" lon="2.02235167">
        <ele>26.0</ele>
        <time>2019-12-21T08:08:58.345Z</time>
      </trkpt>
      <trkpt lat="41.31364333" lon="2.02233">
        <ele>27.0</ele>
        <time>2019-12-21T08:08:59.350Z</time>
      </trkpt>
      <trkpt lat="41.31364333" lon="2.02233">
        <ele>27.0</ele>
        <time>2019-12-21T08:09:00.345Z</time>
      </trkpt>
      <trkpt lat="41.31366333" lon="2.022295">
        <ele>28.0</ele>
        <time>2019-12-21T08:09:01.350Z</time>
      </trkpt>
      <trkpt lat="41.31366333" lon="2.022295">
        <ele>28.0</ele>
        <time>2019-12-21T08:09:02.345Z</time>
      </trkpt>
      <trkpt lat="41.31366333" lon="2.02225167">
        <ele>27.0</ele>
        <time>2019-12-21T08:09:03.372Z</time>
      </trkpt>
      <trkpt lat="41.31366333" lon="2.02225167">
        <ele>27.0</ele>
        <time>2019-12-21T08:09:04.363Z</time>
      </trkpt>
      <trkpt lat="41.313655" lon="2.02223667">
        <ele>27.0</ele>
        <time>2019-12-21T08:09:05.349Z</time>
      </trkpt>
      <trkpt lat="41.313655" lon="2.02223667">
        <ele>27.0</ele>
        <time>2019-12-21T08:09:06.345Z</time>
      </trkpt>
      <trkpt lat="41.3137" lon="2.022165">
        <ele>25.0</ele>
        <time>2019-12-21T08:09:07.343Z</time>
      </trkpt>
      <trkpt lat="41.3137" lon="2.022165">
        <ele>25.0</ele>
        <time>2019-12-21T08:09:08.338Z</time>
      </trkpt>
      <trkpt lat="41.31371833" lon="2.02209667">
        <ele>27.0</ele>
        <time>2019-12-21T08:09:09.345Z</time>
      </trkpt>
      <trkpt lat="41.31371833" lon="2.02209667">
        <ele>27.0</ele>
        <time>2019-12-21T08:09:10.338Z</time>
      </trkpt>
      <trkpt lat="41.31376833" lon="2.02206167">
        <ele>27.0</ele>
        <time>2019-12-21T08:09:11.340Z</time>
      </trkpt>
      <trkpt lat="41.31376833" lon="2.02206167">
        <ele>27.0</ele>
        <time>2019-12-21T08:09:12.362Z</time>
      </trkpt>
      <trkpt lat="41.313815" lon="2.02206333">
        <ele>28.0</ele>
        <time>2019-12-21T08:09:13.345Z</time>
      </trkpt>
      <trkpt lat="41.313815" lon="2.02206333">
        <ele>28.0</ele>
        <time>2019-12-21T08:09:14.337Z</time>
      </trkpt>
      <trkpt lat="41.31384667" lon="2.02210333">
        <ele>29.0</ele>
        <time>2019-12-21T08:09:15.342Z</time>
      </trkpt>
      <trkpt lat="41.31384667" lon="2.02210333">
        <ele>29.0</ele>
        <time>2019-12-21T08:09:16.338Z</time>
      </trkpt>
      <trkpt lat="41.31387667" lon="2.02213333">
        <ele>29.0</ele>
        <time>2019-12-21T08:09:17.363Z</time>
      </trkpt>
      <trkpt lat="41.31387667" lon="2.02213333">
        <ele>29.0</ele>
        <time>2019-12-21T08:09:18.345Z</time>
      </trkpt>
      <trkpt lat="41.31392167" lon="2.022165">
        <ele>30.0</ele>
        <time>2019-12-21T08:09:19.343Z</time>
      </trkpt>
      <trkpt lat="41.31392167" lon="2.022165">
        <ele>30.0</ele>
        <time>2019-12-21T08:09:20.337Z</time>
      </trkpt>
      <trkpt lat="41.31395833" lon="2.02222333">
        <ele>30.0</ele>
        <time>2019-12-21T08:09:21.355Z</time>
      </trkpt>
      <trkpt lat="41.313975" lon="2.02227">
        <ele>31.0</ele>
        <time>2019-12-21T08:09:22.344Z</time>
      </trkpt>
      <trkpt lat="41.313975" lon="2.02227">
        <ele>31.0</ele>
        <time>2019-12-21T08:09:23.341Z</time>
      </trkpt>
      <trkpt lat="41.31406833" lon="2.02233167">
        <ele>32.0</ele>
        <time>2019-12-21T08:09:24.343Z</time>
      </trkpt>
      <trkpt lat="41.31406833" lon="2.02233167">
        <ele>32.0</ele>
        <time>2019-12-21T08:09:25.338Z</time>
      </trkpt>
      <trkpt lat="41.314155" lon="2.02235333">
        <ele>33.0</ele>
        <time>2019-12-21T08:09:26.341Z</time>
      </trkpt>
      <trkpt lat="41.314155" lon="2.02235333">
        <ele>33.0</ele>
        <time>2019-12-21T08:09:27.343Z</time>
      </trkpt>
      <trkpt lat="41.31424667" lon="2.02237167">
        <ele>35.0</ele>
        <time>2019-12-21T08:09:28.343Z</time>
      </trkpt>
      <trkpt lat="41.31428833" lon="2.02237833">
        <ele>36.0</ele>
        <time>2019-12-21T08:09:29.343Z</time>
      </trkpt>
      <trkpt lat="41.31428833" lon="2.02237833">
        <ele>36.0</ele>
        <time>2019-12-21T08:09:30.341Z</time>
      </trkpt>
      <trkpt lat="41.31435833" lon="2.02237833">
        <ele>37.0</ele>
        <time>2019-12-21T08:09:31.343Z</time>
      </trkpt>
      <trkpt lat="41.31435833" lon="2.02237833">
        <ele>37.0</ele>
        <time>2019-12-21T08:09:32.338Z</time>
      </trkpt>
      <trkpt lat="41.31442333" lon="2.02234833">
        <ele>38.0</ele>
        <time>2019-12-21T08:09:33.362Z</time>
      </trkpt>
      <trkpt lat="41.31442333" lon="2.02234833">
        <ele>38.0</ele>
        <time>2019-12-21T08:09:34.346Z</time>
      </trkpt>
      <trkpt lat="41.31449333" lon="2.02235167">
        <ele>38.0</ele>
        <time>2019-12-21T08:09:35.343Z</time>
      </trkpt>
      <trkpt lat="41.31449333" lon="2.02235167">
        <ele>38.0</ele>
        <time>2019-12-21T08:09:36.338Z</time>
      </trkpt>
      <trkpt lat="41.31455667" lon="2.022345">
        <ele>38.0</ele>
        <time>2019-12-21T08:09:37.363Z</time>
      </trkpt>
      <trkpt lat="41.31455667" lon="2.022345">
        <ele>38.0</ele>
        <time>2019-12-21T08:09:38.346Z</time>
      </trkpt>
      <trkpt lat="41.31462333" lon="2.02233833">
        <ele>39.0</ele>
        <time>2019-12-21T08:09:39.342Z</time>
      </trkpt>
      <trkpt lat="41.31462333" lon="2.02233833">
        <ele>39.0</ele>
        <time>2019-12-21T08:09:40.338Z</time>
      </trkpt>
      <trkpt lat="41.31467333" lon="2.02235333">
        <ele>38.0</ele>
        <time>2019-12-21T08:09:41.344Z</time>
      </trkpt>
      <trkpt lat="41.31467333" lon="2.02235333">
        <ele>38.0</ele>
        <time>2019-12-21T08:09:42.338Z</time>
      </trkpt>
      <trkpt lat="41.314675" lon="2.02236333">
        <ele>38.0</ele>
        <time>2019-12-21T08:09:43.344Z</time>
      </trkpt>
      <trkpt lat="41.314675" lon="2.02236333">
        <ele>38.0</ele>
        <time>2019-12-21T08:09:44.338Z</time>
      </trkpt>
      <trkpt lat="41.31465667" lon="2.02236833">
        <ele>37.0</ele>
        <time>2019-12-21T08:09:45.345Z</time>
      </trkpt>
      <trkpt lat="41.31465667" lon="2.02236833">
        <ele>37.0</ele>
        <time>2019-12-21T08:09:46.356Z</time>
      </trkpt>
      <trkpt lat="41.314615" lon="2.022375">
        <ele>37.0</ele>
        <time>2019-12-21T08:09:47.339Z</time>
      </trkpt>
      <trkpt lat="41.31458833" lon="2.02235833">
        <ele>37.0</ele>
        <time>2019-12-21T08:09:48.344Z</time>
      </trkpt>
      <trkpt lat="41.31458833" lon="2.02235833">
        <ele>37.0</ele>
        <time>2019-12-21T08:09:49.338Z</time>
      </trkpt>
      <trkpt lat="41.31456167" lon="2.02229">
        <ele>37.0</ele>
        <time>2019-12-21T08:09:50.343Z</time>
      </trkpt>
      <trkpt lat="41.31456167" lon="2.02229">
        <ele>37.0</ele>
        <time>2019-12-21T08:09:51.340Z</time>
      </trkpt>
      <trkpt lat="41.31456" lon="2.02221667">
        <ele>35.0</ele>
        <time>2019-12-21T08:09:52.349Z</time>
      </trkpt>
      <trkpt lat="41.314555" lon="2.022175">
        <ele>34.0</ele>
        <time>2019-12-21T08:09:53.343Z</time>
      </trkpt>
      <trkpt lat="41.31454667" lon="2.02213">
        <ele>33.0</ele>
        <time>2019-12-21T08:09:54.344Z</time>
      </trkpt>
      <trkpt lat="41.31454667" lon="2.02213">
        <ele>33.0</ele>
        <time>2019-12-21T08:09:55.335Z</time>
      </trkpt>
      <trkpt lat="41.314535" lon="2.02204167">
        <ele>32.0</ele>
        <time>2019-12-21T08:09:56.344Z</time>
      </trkpt>
      <trkpt lat="41.31453" lon="2.022">
        <ele>31.0</ele>
        <time>2019-12-21T08:09:57.347Z</time>
      </trkpt>
      <trkpt lat="41.314515" lon="2.02196667">
        <ele>31.0</ele>
        <time>2019-12-21T08:09:58.344Z</time>
      </trkpt>
      <trkpt lat="41.314515" lon="2.02196667">
        <ele>31.0</ele>
        <time>2019-12-21T08:09:59.339Z</time>
      </trkpt>
      <trkpt lat="41.31447667" lon="2.02191833">
        <ele>30.0</ele>
        <time>2019-12-21T08:10:00.344Z</time>
      </trkpt>
      <trkpt lat="41.31446167" lon="2.021895">
        <ele>30.0</ele>
        <time>2019-12-21T08:10:01.344Z</time>
      </trkpt>
      <trkpt lat="41.31444333" lon="2.02186333">
        <ele>30.0</ele>
        <time>2019-12-21T08:10:02.344Z</time>
      </trkpt>
      <trkpt lat="41.31444333" lon="2.02186333">
        <ele>30.0</ele>
        <time>2019-12-21T08:10:03.340Z</time>
      </trkpt>
      <trkpt lat="41.31440667" lon="2.02179667">
        <ele>30.0</ele>
        <time>2019-12-21T08:10:04.344Z</time>
      </trkpt>
      <trkpt lat="41.31440667" lon="2.02179667">
        <ele>30.0</ele>
        <time>2019-12-21T08:10:05.339Z</time>
      </trkpt>
      <trkpt lat="41.31435167" lon="2.02179333">
        <ele>31.0</ele>
        <time>2019-12-21T08:10:06.362Z</time>
      </trkpt>
      <trkpt lat="41.314335" lon="2.02180667">
        <ele>31.0</ele>
        <time>2019-12-21T08:10:07.345Z</time>
      </trkpt>
      <trkpt lat="41.31431833" lon="2.02181667">
        <ele>31.0</ele>
        <time>2019-12-21T08:10:08.344Z</time>
      </trkpt>
      <trkpt lat="41.31431833" lon="2.02181667">
        <ele>31.0</ele>
        <time>2019-12-21T08:10:09.341Z</time>
      </trkpt>
      <trkpt lat="41.314295" lon="2.02183167">
        <ele>31.0</ele>
        <time>2019-12-21T08:10:10.343Z</time>
      </trkpt>
      <trkpt lat="41.314295" lon="2.02183167">
        <ele>31.0</ele>
        <time>2019-12-21T08:10:11.339Z</time>
      </trkpt>
      <trkpt lat="41.314305" lon="2.02183667">
        <ele>30.0</ele>
        <time>2019-12-21T08:10:12.367Z</time>
      </trkpt>
      <trkpt lat="41.31430333" lon="2.02183167">
        <ele>30.0</ele>
        <time>2019-12-21T08:10:13.348Z</time>
      </trkpt>
      <trkpt lat="41.31430333" lon="2.02183167">
        <ele>30.0</ele>
        <time>2019-12-21T08:10:14.341Z</time>
      </trkpt>
      <trkpt lat="41.31430333" lon="2.02183">
        <ele>30.0</ele>
        <time>2019-12-21T08:10:15.343Z</time>
      </trkpt>
      <trkpt lat="41.31430333" lon="2.02183">
        <ele>30.0</ele>
        <time>2019-12-21T08:10:16.344Z</time>
      </trkpt>
      <trkpt lat="41.31433" lon="2.02179167">
        <ele>20.0</ele>
        <time>2019-12-21T08:10:17.356Z</time>
      </trkpt>
      <trkpt lat="41.314335" lon="2.02178">
        <ele>20.0</ele>
        <time>2019-12-21T08:10:18.355Z</time>
      </trkpt>
      <trkpt lat="41.314335" lon="2.02178">
        <ele>20.0</ele>
        <time>2019-12-21T08:10:19.350Z</time>
      </trkpt>
      <trkpt lat="41.31433667" lon="2.02175833">
        <ele>20.0</ele>
        <time>2019-12-21T08:10:20.356Z</time>
      </trkpt>
      <trkpt lat="41.31433667" lon="2.02175833">
        <ele>20.0</ele>
        <time>2019-12-21T08:10:21.352Z</time>
      </trkpt>
      <trkpt lat="41.31434833" lon="2.02172333">
        <ele>20.0</ele>
        <time>2019-12-21T08:10:22.355Z</time>
      </trkpt>
      <trkpt lat="41.31434833" lon="2.02172333">
        <ele>20.0</ele>
        <time>2019-12-21T08:10:23.351Z</time>
      </trkpt>
      <trkpt lat="41.31437667" lon="2.021705">
        <ele>20.0</ele>
        <time>2019-12-21T08:10:24.355Z</time>
      </trkpt>
      <trkpt lat="41.31437667" lon="2.021705">
        <ele>20.0</ele>
        <time>2019-12-21T08:10:25.351Z</time>
      </trkpt>
      <trkpt lat="41.31441" lon="2.02168833">
        <ele>20.0</ele>
        <time>2019-12-21T08:10:26.354Z</time>
      </trkpt>
      <trkpt lat="41.31441" lon="2.02168833">
        <ele>20.0</ele>
        <time>2019-12-21T08:10:27.350Z</time>
      </trkpt>
      <trkpt lat="41.31444167" lon="2.02166333">
        <ele>19.0</ele>
        <time>2019-12-21T08:10:28.334Z</time>
      </trkpt>
      <trkpt lat="41.31444167" lon="2.02166333">
        <ele>19.0</ele>
        <time>2019-12-21T08:10:29.356Z</time>
      </trkpt>
      <trkpt lat="41.31448167" lon="2.02164167">
        <ele>19.0</ele>
        <time>2019-12-21T08:10:30.355Z</time>
      </trkpt>
      <trkpt lat="41.31448167" lon="2.02164167">
        <ele>19.0</ele>
        <time>2019-12-21T08:10:31.350Z</time>
      </trkpt>
      <trkpt lat="41.31452833" lon="2.02161333">
        <ele>19.0</ele>
        <time>2019-12-21T08:10:32.355Z</time>
      </trkpt>
      <trkpt lat="41.31455" lon="2.02159833">
        <ele>19.0</ele>
        <time>2019-12-21T08:10:33.354Z</time>
      </trkpt>
      <trkpt lat="41.31455" lon="2.02159833">
        <ele>19.0</ele>
        <time>2019-12-21T08:10:34.353Z</time>
      </trkpt>
      <trkpt lat="41.31459167" lon="2.02156167">
        <ele>18.0</ele>
        <time>2019-12-21T08:10:35.357Z</time>
      </trkpt>
      <trkpt lat="41.314615" lon="2.02153667">
        <ele>18.0</ele>
        <time>2019-12-21T08:10:36.356Z</time>
      </trkpt>
      <trkpt lat="41.314615" lon="2.02153667">
        <ele>18.0</ele>
        <time>2019-12-21T08:10:37.349Z</time>
      </trkpt>
      <trkpt lat="41.31467" lon="2.02149667">
        <ele>18.0</ele>
        <time>2019-12-21T08:10:38.355Z</time>
      </trkpt>
      <trkpt lat="41.31467" lon="2.02149667">
        <ele>18.0</ele>
        <time>2019-12-21T08:10:39.353Z</time>
      </trkpt>
      <trkpt lat="41.31473" lon="2.02144833">
        <ele>18.0</ele>
        <time>2019-12-21T08:10:40.355Z</time>
      </trkpt>
      <trkpt lat="41.31475667" lon="2.02142167">
        <ele>18.0</ele>
        <time>2019-12-21T08:10:41.334Z</time>
      </trkpt>
      <trkpt lat="41.314785" lon="2.02140167">
        <ele>18.0</ele>
        <time>2019-12-21T08:10:42.357Z</time>
      </trkpt>
      <trkpt lat="41.314785" lon="2.02140167">
        <ele>18.0</ele>
        <time>2019-12-21T08:10:43.345Z</time>
      </trkpt>
      <trkpt lat="41.31481667" lon="2.02133333">
        <ele>19.0</ele>
        <time>2019-12-21T08:10:44.367Z</time>
      </trkpt>
      <trkpt lat="41.31483667" lon="2.02130333">
        <ele>19.0</ele>
        <time>2019-12-21T08:10:45.353Z</time>
      </trkpt>
      <trkpt lat="41.31483667" lon="2.02130333">
        <ele>19.0</ele>
        <time>2019-12-21T08:10:46.350Z</time>
      </trkpt>
      <trkpt lat="41.31488667" lon="2.02123833">
        <ele>18.0</ele>
        <time>2019-12-21T08:10:47.342Z</time>
      </trkpt>
      <trkpt lat="41.31488667" lon="2.02123833">
        <ele>18.0</ele>
        <time>2019-12-21T08:10:48.366Z</time>
      </trkpt>
      <trkpt lat="41.31492667" lon="2.02116833">
        <ele>18.0</ele>
        <time>2019-12-21T08:10:49.355Z</time>
      </trkpt>
      <trkpt lat="41.31492667" lon="2.02116833">
        <ele>18.0</ele>
        <time>2019-12-21T08:10:50.350Z</time>
      </trkpt>
      <trkpt lat="41.31499167" lon="2.02111667">
        <ele>18.0</ele>
        <time>2019-12-21T08:10:51.354Z</time>
      </trkpt>
      <trkpt lat="41.31499167" lon="2.02111667">
        <ele>18.0</ele>
        <time>2019-12-21T08:10:52.356Z</time>
      </trkpt>
      <trkpt lat="41.31506" lon="2.02106167">
        <ele>18.0</ele>
        <time>2019-12-21T08:10:53.356Z</time>
      </trkpt>
      <trkpt lat="41.315095" lon="2.02103167">
        <ele>18.0</ele>
        <time>2019-12-21T08:10:54.355Z</time>
      </trkpt>
      <trkpt lat="41.315095" lon="2.02103167">
        <ele>18.0</ele>
        <time>2019-12-21T08:10:55.350Z</time>
      </trkpt>
      <trkpt lat="41.31518" lon="2.020975">
        <ele>18.0</ele>
        <time>2019-12-21T08:10:56.355Z</time>
      </trkpt>
      <trkpt lat="41.31518" lon="2.020975">
        <ele>18.0</ele>
        <time>2019-12-21T08:10:57.350Z</time>
      </trkpt>
      <trkpt lat="41.31526833" lon="2.02091333">
        <ele>17.0</ele>
        <time>2019-12-21T08:10:58.338Z</time>
      </trkpt>
      <trkpt lat="41.31531" lon="2.02088167">
        <ele>17.0</ele>
        <time>2019-12-21T08:10:59.361Z</time>
      </trkpt>
      <trkpt lat="41.31531" lon="2.02088167">
        <ele>17.0</ele>
        <time>2019-12-21T08:11:00.350Z</time>
      </trkpt>
      <trkpt lat="41.31538667" lon="2.02082667">
        <ele>16.0</ele>
        <time>2019-12-21T08:11:01.356Z</time>
      </trkpt>
      <trkpt lat="41.31538667" lon="2.02082667">
        <ele>16.0</ele>
        <time>2019-12-21T08:11:02.350Z</time>
      </trkpt>
      <trkpt lat="41.315455" lon="2.02077167">
        <ele>17.0</ele>
        <time>2019-12-21T08:11:03.356Z</time>
      </trkpt>
      <trkpt lat="41.315455" lon="2.02077167">
        <ele>17.0</ele>
        <time>2019-12-21T08:11:04.350Z</time>
      </trkpt>
      <trkpt lat="41.31552333" lon="2.020725">
        <ele>17.0</ele>
        <time>2019-12-21T08:11:05.372Z</time>
      </trkpt>
      <trkpt lat="41.31552333" lon="2.020725">
        <ele>17.0</ele>
        <time>2019-12-21T08:11:06.354Z</time>
      </trkpt>
      <trkpt lat="41.31559333" lon="2.02074167">
        <ele>17.0</ele>
        <time>2019-12-21T08:11:07.357Z</time>
      </trkpt>
      <trkpt lat="41.31559333" lon="2.02074167">
        <ele>17.0</ele>
        <time>2019-12-21T08:11:08.350Z</time>
      </trkpt>
      <trkpt lat="41.31564833" lon="2.02082">
        <ele>17.0</ele>
        <time>2019-12-21T08:11:09.355Z</time>
      </trkpt>
      <trkpt lat="41.31564833" lon="2.02082">
        <ele>17.0</ele>
        <time>2019-12-21T08:11:10.350Z</time>
      </trkpt>
      <trkpt lat="41.315705" lon="2.0209">
        <ele>16.0</ele>
        <time>2019-12-21T08:11:11.372Z</time>
      </trkpt>
      <trkpt lat="41.315705" lon="2.0209">
        <ele>16.0</ele>
        <time>2019-12-21T08:11:12.353Z</time>
      </trkpt>
      <trkpt lat="41.31577333" lon="2.020975">
        <ele>15.0</ele>
        <time>2019-12-21T08:11:13.355Z</time>
      </trkpt>
      <trkpt lat="41.31577333" lon="2.020975">
        <ele>15.0</ele>
        <time>2019-12-21T08:11:14.350Z</time>
      </trkpt>
      <trkpt lat="41.31584667" lon="2.02104667">
        <ele>15.0</ele>
        <time>2019-12-21T08:11:15.355Z</time>
      </trkpt>
      <trkpt lat="41.31584667" lon="2.02104667">
        <ele>15.0</ele>
        <time>2019-12-21T08:11:16.350Z</time>
      </trkpt>
      <trkpt lat="41.31591833" lon="2.02111833">
        <ele>15.0</ele>
        <time>2019-12-21T08:11:17.345Z</time>
      </trkpt>
      <trkpt lat="41.31591833" lon="2.02111833">
        <ele>15.0</ele>
        <time>2019-12-21T08:11:18.367Z</time>
      </trkpt>
      <trkpt lat="41.31599167" lon="2.02118">
        <ele>15.0</ele>
        <time>2019-12-21T08:11:19.355Z</time>
      </trkpt>
      <trkpt lat="41.31599167" lon="2.02118">
        <ele>15.0</ele>
        <time>2019-12-21T08:11:20.350Z</time>
      </trkpt>
      <trkpt lat="41.316065" lon="2.02124667">
        <ele>15.0</ele>
        <time>2019-12-21T08:11:21.356Z</time>
      </trkpt>
      <trkpt lat="41.316065" lon="2.02124667">
        <ele>15.0</ele>
        <time>2019-12-21T08:11:22.350Z</time>
      </trkpt>
      <trkpt lat="41.31613167" lon="2.02131333">
        <ele>15.0</ele>
        <time>2019-12-21T08:11:23.333Z</time>
      </trkpt>
      <trkpt lat="41.31616833" lon="2.021345">
        <ele>15.0</ele>
        <time>2019-12-21T08:11:24.355Z</time>
      </trkpt>
      <trkpt lat="41.31616833" lon="2.021345">
        <ele>15.0</ele>
        <time>2019-12-21T08:11:25.350Z</time>
      </trkpt>
      <trkpt lat="41.31623833" lon="2.02141">
        <ele>15.0</ele>
        <time>2019-12-21T08:11:26.356Z</time>
      </trkpt>
      <trkpt lat="41.31623833" lon="2.02141">
        <ele>15.0</ele>
        <time>2019-12-21T08:11:27.350Z</time>
      </trkpt>
      <trkpt lat="41.316305" lon="2.021475">
        <ele>15.0</ele>
        <time>2019-12-21T08:11:28.341Z</time>
      </trkpt>
      <trkpt lat="41.31633833" lon="2.02150333">
        <ele>16.0</ele>
        <time>2019-12-21T08:11:29.366Z</time>
      </trkpt>
      <trkpt lat="41.31633833" lon="2.02150333">
        <ele>16.0</ele>
        <time>2019-12-21T08:11:30.350Z</time>
      </trkpt>
      <trkpt lat="41.31639667" lon="2.021555">
        <ele>16.0</ele>
        <time>2019-12-21T08:11:31.372Z</time>
      </trkpt>
      <trkpt lat="41.31639667" lon="2.021555">
        <ele>16.0</ele>
        <time>2019-12-21T08:11:32.350Z</time>
      </trkpt>
      <trkpt lat="41.31642833" lon="2.02158">
        <ele>17.0</ele>
        <time>2019-12-21T08:11:33.355Z</time>
      </trkpt>
      <trkpt lat="41.31642833" lon="2.02158">
        <ele>17.0</ele>
        <time>2019-12-21T08:11:34.349Z</time>
      </trkpt>
      <trkpt lat="41.31643" lon="2.02157667">
        <ele>17.0</ele>
        <time>2019-12-21T08:11:35.333Z</time>
      </trkpt>
      <trkpt lat="41.31643" lon="2.02157667">
        <ele>17.0</ele>
        <time>2019-12-21T08:11:36.357Z</time>
      </trkpt>
      <trkpt lat="41.31643" lon="2.02157667">
        <ele>17.0</ele>
        <time>2019-12-21T08:11:37.362Z</time>
      </trkpt>
      <trkpt lat="41.31648667" lon="2.02162">
        <ele>17.0</ele>
        <time>2019-12-21T08:11:38.348Z</time>
      </trkpt>
      <trkpt lat="41.31648667" lon="2.02162">
        <ele>17.0</ele>
        <time>2019-12-21T08:11:39.341Z</time>
      </trkpt>
      <trkpt lat="41.31654167" lon="2.02167">
        <ele>18.0</ele>
        <time>2019-12-21T08:11:40.346Z</time>
      </trkpt>
      <trkpt lat="41.31654167" lon="2.02167">
        <ele>18.0</ele>
        <time>2019-12-21T08:11:41.341Z</time>
      </trkpt>
      <trkpt lat="41.31660333" lon="2.02173">
        <ele>18.0</ele>
        <time>2019-12-21T08:11:42.346Z</time>
      </trkpt>
      <trkpt lat="41.31660333" lon="2.02173">
        <ele>18.0</ele>
        <time>2019-12-21T08:11:43.341Z</time>
      </trkpt>
      <trkpt lat="41.31667333" lon="2.02179167">
        <ele>18.0</ele>
        <time>2019-12-21T08:11:44.364Z</time>
      </trkpt>
      <trkpt lat="41.31667333" lon="2.02179167">
        <ele>18.0</ele>
        <time>2019-12-21T08:11:45.342Z</time>
      </trkpt>
      <trkpt lat="41.31674667" lon="2.02186333">
        <ele>18.0</ele>
        <time>2019-12-21T08:11:46.345Z</time>
      </trkpt>
      <trkpt lat="41.31674667" lon="2.02186333">
        <ele>18.0</ele>
        <time>2019-12-21T08:11:47.342Z</time>
      </trkpt>
      <trkpt lat="41.31682" lon="2.02193167">
        <ele>18.0</ele>
        <time>2019-12-21T08:11:48.347Z</time>
      </trkpt>
      <trkpt lat="41.31682" lon="2.02193167">
        <ele>18.0</ele>
        <time>2019-12-21T08:11:49.343Z</time>
      </trkpt>
      <trkpt lat="41.316885" lon="2.02199">
        <ele>19.0</ele>
        <time>2019-12-21T08:11:50.349Z</time>
      </trkpt>
      <trkpt lat="41.316885" lon="2.02199">
        <ele>19.0</ele>
        <time>2019-12-21T08:11:51.342Z</time>
      </trkpt>
      <trkpt lat="41.31691833" lon="2.02203333">
        <ele>20.0</ele>
        <time>2019-12-21T08:11:52.346Z</time>
      </trkpt>
      <trkpt lat="41.31692833" lon="2.02205">
        <ele>20.0</ele>
        <time>2019-12-21T08:11:53.348Z</time>
      </trkpt>
      <trkpt lat="41.31692833" lon="2.02205">
        <ele>20.0</ele>
        <time>2019-12-21T08:11:54.360Z</time>
      </trkpt>
      <trkpt lat="41.31695667" lon="2.02210167">
        <ele>21.0</ele>
        <time>2019-12-21T08:11:55.349Z</time>
      </trkpt>
      <trkpt lat="41.31697667" lon="2.02213667">
        <ele>21.0</ele>
        <time>2019-12-21T08:11:56.348Z</time>
      </trkpt>
      <trkpt lat="41.31697667" lon="2.02213667">
        <ele>21.0</ele>
        <time>2019-12-21T08:11:57.341Z</time>
      </trkpt>
      <trkpt lat="41.31703833" lon="2.02221">
        <ele>21.0</ele>
        <time>2019-12-21T08:11:58.346Z</time>
      </trkpt>
      <trkpt lat="41.31703833" lon="2.02221">
        <ele>21.0</ele>
        <time>2019-12-21T08:11:59.341Z</time>
      </trkpt>
      <trkpt lat="41.31711667" lon="2.02222333">
        <ele>22.0</ele>
        <time>2019-12-21T08:12:00.346Z</time>
      </trkpt>
      <trkpt lat="41.31711667" lon="2.02222333">
        <ele>22.0</ele>
        <time>2019-12-21T08:12:01.341Z</time>
      </trkpt>
      <trkpt lat="41.317195" lon="2.02218167">
        <ele>21.0</ele>
        <time>2019-12-21T08:12:02.364Z</time>
      </trkpt>
      <trkpt lat="41.317195" lon="2.02218167">
        <ele>21.0</ele>
        <time>2019-12-21T08:12:03.342Z</time>
      </trkpt>
      <trkpt lat="41.31726333" lon="2.02213333">
        <ele>20.0</ele>
        <time>2019-12-21T08:12:04.347Z</time>
      </trkpt>
      <trkpt lat="41.31726333" lon="2.02213333">
        <ele>20.0</ele>
        <time>2019-12-21T08:12:05.342Z</time>
      </trkpt>
      <trkpt lat="41.31732667" lon="2.02209333">
        <ele>20.0</ele>
        <time>2019-12-21T08:12:06.347Z</time>
      </trkpt>
      <trkpt lat="41.31732667" lon="2.02209333">
        <ele>20.0</ele>
        <time>2019-12-21T08:12:07.341Z</time>
      </trkpt>
      <trkpt lat="41.31740333" lon="2.02206833">
        <ele>20.0</ele>
        <time>2019-12-21T08:12:08.363Z</time>
      </trkpt>
      <trkpt lat="41.31740333" lon="2.02206833">
        <ele>20.0</ele>
        <time>2019-12-21T08:12:09.344Z</time>
      </trkpt>
      <trkpt lat="41.31748333" lon="2.02204333">
        <ele>20.0</ele>
        <time>2019-12-21T08:12:10.347Z</time>
      </trkpt>
      <trkpt lat="41.31748333" lon="2.02204333">
        <ele>20.0</ele>
        <time>2019-12-21T08:12:11.340Z</time>
      </trkpt>
      <trkpt lat="41.31756667" lon="2.02202">
        <ele>19.0</ele>
        <time>2019-12-21T08:12:12.372Z</time>
      </trkpt>
      <trkpt lat="41.31756667" lon="2.02202">
        <ele>19.0</ele>
        <time>2019-12-21T08:12:13.364Z</time>
      </trkpt>
      <trkpt lat="41.31765833" lon="2.02199667">
        <ele>19.0</ele>
        <time>2019-12-21T08:12:14.352Z</time>
      </trkpt>
      <trkpt lat="41.31765833" lon="2.02199667">
        <ele>19.0</ele>
        <time>2019-12-21T08:12:15.346Z</time>
      </trkpt>
      <trkpt lat="41.31774333" lon="2.02197167">
        <ele>19.0</ele>
        <time>2019-12-21T08:12:16.347Z</time>
      </trkpt>
      <trkpt lat="41.31774333" lon="2.02197167">
        <ele>19.0</ele>
        <time>2019-12-21T08:12:17.341Z</time>
      </trkpt>
      <trkpt lat="41.31783333" lon="2.02194333">
        <ele>18.0</ele>
        <time>2019-12-21T08:12:18.341Z</time>
      </trkpt>
      <trkpt lat="41.31787833" lon="2.02192333">
        <ele>17.0</ele>
        <time>2019-12-21T08:12:19.349Z</time>
      </trkpt>
      <trkpt lat="41.31787833" lon="2.02192333">
        <ele>17.0</ele>
        <time>2019-12-21T08:12:20.343Z</time>
      </trkpt>
      <trkpt lat="41.31794667" lon="2.02185">
        <ele>17.0</ele>
        <time>2019-12-21T08:12:21.347Z</time>
      </trkpt>
      <trkpt lat="41.31794667" lon="2.02185">
        <ele>17.0</ele>
        <time>2019-12-21T08:12:22.342Z</time>
      </trkpt>
      <trkpt lat="41.31801667" lon="2.02178833">
        <ele>16.0</ele>
        <time>2019-12-21T08:12:23.346Z</time>
      </trkpt>
      <trkpt lat="41.31801667" lon="2.02178833">
        <ele>16.0</ele>
        <time>2019-12-21T08:12:24.341Z</time>
      </trkpt>
      <trkpt lat="41.318085" lon="2.02174167">
        <ele>16.0</ele>
        <time>2019-12-21T08:12:25.346Z</time>
      </trkpt>
      <trkpt lat="41.31812333" lon="2.02172167">
        <ele>16.0</ele>
        <time>2019-12-21T08:12:26.349Z</time>
      </trkpt>
      <trkpt lat="41.31812333" lon="2.02172167">
        <ele>16.0</ele>
        <time>2019-12-21T08:12:27.341Z</time>
      </trkpt>
      <trkpt lat="41.3182" lon="2.02167667">
        <ele>16.0</ele>
        <time>2019-12-21T08:12:28.348Z</time>
      </trkpt>
      <trkpt lat="41.3182" lon="2.02167667">
        <ele>16.0</ele>
        <time>2019-12-21T08:12:29.344Z</time>
      </trkpt>
      <trkpt lat="41.31827333" lon="2.021625">
        <ele>17.0</ele>
        <time>2019-12-21T08:12:30.346Z</time>
      </trkpt>
      <trkpt lat="41.31827333" lon="2.021625">
        <ele>17.0</ele>
        <time>2019-12-21T08:12:31.347Z</time>
      </trkpt>
      <trkpt lat="41.31835" lon="2.02157333">
        <ele>16.0</ele>
        <time>2019-12-21T08:12:32.348Z</time>
      </trkpt>
      <trkpt lat="41.31835" lon="2.02157333">
        <ele>16.0</ele>
        <time>2019-12-21T08:12:33.342Z</time>
      </trkpt>
      <trkpt lat="41.318425" lon="2.02151667">
        <ele>17.0</ele>
        <time>2019-12-21T08:12:34.367Z</time>
      </trkpt>
      <trkpt lat="41.318425" lon="2.02151667">
        <ele>17.0</ele>
        <time>2019-12-21T08:12:35.349Z</time>
      </trkpt>
      <trkpt lat="41.31850167" lon="2.021455">
        <ele>17.0</ele>
        <time>2019-12-21T08:12:36.346Z</time>
      </trkpt>
      <trkpt lat="41.31850167" lon="2.021455">
        <ele>17.0</ele>
        <time>2019-12-21T08:12:37.341Z</time>
      </trkpt>
      <trkpt lat="41.31857167" lon="2.02138667">
        <ele>17.0</ele>
        <time>2019-12-21T08:12:38.364Z</time>
      </trkpt>
      <trkpt lat="41.31857167" lon="2.02138667">
        <ele>17.0</ele>
        <time>2019-12-21T08:12:39.347Z</time>
      </trkpt>
      <trkpt lat="41.31863667" lon="2.021335">
        <ele>17.0</ele>
        <time>2019-12-21T08:12:40.347Z</time>
      </trkpt>
      <trkpt lat="41.31863667" lon="2.021335">
        <ele>17.0</ele>
        <time>2019-12-21T08:12:41.341Z</time>
      </trkpt>
      <trkpt lat="41.31870833" lon="2.02126167">
        <ele>17.0</ele>
        <time>2019-12-21T08:12:42.347Z</time>
      </trkpt>
      <trkpt lat="41.31870833" lon="2.02126167">
        <ele>17.0</ele>
        <time>2019-12-21T08:12:43.341Z</time>
      </trkpt>
      <trkpt lat="41.31877667" lon="2.02119">
        <ele>18.0</ele>
        <time>2019-12-21T08:12:44.365Z</time>
      </trkpt>
      <trkpt lat="41.31877667" lon="2.02119">
        <ele>18.0</ele>
        <time>2019-12-21T08:12:45.334Z</time>
      </trkpt>
      <trkpt lat="41.31884" lon="2.02113333">
        <ele>19.0</ele>
        <time>2019-12-21T08:12:46.368Z</time>
      </trkpt>
      <trkpt lat="41.31884" lon="2.02113333">
        <ele>19.0</ele>
        <time>2019-12-21T08:12:47.351Z</time>
      </trkpt>
      <trkpt lat="41.3189" lon="2.02106667">
        <ele>19.0</ele>
        <time>2019-12-21T08:12:48.349Z</time>
      </trkpt>
      <trkpt lat="41.3189" lon="2.02106667">
        <ele>19.0</ele>
        <time>2019-12-21T08:12:49.342Z</time>
      </trkpt>
      <trkpt lat="41.318965" lon="2.02100167">
        <ele>20.0</ele>
        <time>2019-12-21T08:12:50.346Z</time>
      </trkpt>
      <trkpt lat="41.318965" lon="2.02100167">
        <ele>20.0</ele>
        <time>2019-12-21T08:12:51.344Z</time>
      </trkpt>
      <trkpt lat="41.31903" lon="2.020935">
        <ele>20.0</ele>
        <time>2019-12-21T08:12:52.364Z</time>
      </trkpt>
      <trkpt lat="41.31903" lon="2.020935">
        <ele>20.0</ele>
        <time>2019-12-21T08:12:53.342Z</time>
      </trkpt>
      <trkpt lat="41.31909167" lon="2.02086333">
        <ele>21.0</ele>
        <time>2019-12-21T08:12:54.360Z</time>
      </trkpt>
      <trkpt lat="41.31909167" lon="2.02086333">
        <ele>21.0</ele>
        <time>2019-12-21T08:12:55.344Z</time>
      </trkpt>
      <trkpt lat="41.31916167" lon="2.02078167">
        <ele>21.0</ele>
        <time>2019-12-21T08:12:56.349Z</time>
      </trkpt>
      <trkpt lat="41.31916167" lon="2.02078167">
        <ele>21.0</ele>
        <time>2019-12-21T08:12:57.341Z</time>
      </trkpt>
      <trkpt lat="41.31922833" lon="2.02069333">
        <ele>21.0</ele>
        <time>2019-12-21T08:12:58.347Z</time>
      </trkpt>
      <trkpt lat="41.31922833" lon="2.02069333">
        <ele>21.0</ele>
        <time>2019-12-21T08:12:59.333Z</time>
      </trkpt>
      <trkpt lat="41.31929833" lon="2.02060833">
        <ele>22.0</ele>
        <time>2019-12-21T08:13:00.355Z</time>
      </trkpt>
      <trkpt lat="41.31929833" lon="2.02060833">
        <ele>22.0</ele>
        <time>2019-12-21T08:13:01.341Z</time>
      </trkpt>
      <trkpt lat="41.31936167" lon="2.020515">
        <ele>22.0</ele>
        <time>2019-12-21T08:13:02.365Z</time>
      </trkpt>
      <trkpt lat="41.31936167" lon="2.020515">
        <ele>22.0</ele>
        <time>2019-12-21T08:13:03.346Z</time>
      </trkpt>
      <trkpt lat="41.31942167" lon="2.02042833">
        <ele>22.0</ele>
        <time>2019-12-21T08:13:04.347Z</time>
      </trkpt>
      <trkpt lat="41.31942167" lon="2.02042833">
        <ele>22.0</ele>
        <time>2019-12-21T08:13:05.342Z</time>
      </trkpt>
      <trkpt lat="41.31948333" lon="2.02035">
        <ele>22.0</ele>
        <time>2019-12-21T08:13:06.347Z</time>
      </trkpt>
      <trkpt lat="41.31948333" lon="2.02035">
        <ele>22.0</ele>
        <time>2019-12-21T08:13:07.341Z</time>
      </trkpt>
      <trkpt lat="41.31952833" lon="2.02027667">
        <ele>23.0</ele>
        <time>2019-12-21T08:13:08.364Z</time>
      </trkpt>
      <trkpt lat="41.31952833" lon="2.02027667">
        <ele>23.0</ele>
        <time>2019-12-21T08:13:09.346Z</time>
      </trkpt>
      <trkpt lat="41.31959833" lon="2.02020667">
        <ele>23.0</ele>
        <time>2019-12-21T08:13:10.347Z</time>
      </trkpt>
      <trkpt lat="41.31959833" lon="2.02020667">
        <ele>23.0</ele>
        <time>2019-12-21T08:13:11.341Z</time>
      </trkpt>
      <trkpt lat="41.31966" lon="2.020125">
        <ele>23.0</ele>
        <time>2019-12-21T08:13:12.347Z</time>
      </trkpt>
      <trkpt lat="41.31966" lon="2.020125">
        <ele>23.0</ele>
        <time>2019-12-21T08:13:13.349Z</time>
      </trkpt>
      <trkpt lat="41.31972333" lon="2.02004">
        <ele>22.0</ele>
        <time>2019-12-21T08:13:14.350Z</time>
      </trkpt>
      <trkpt lat="41.31972333" lon="2.02004">
        <ele>22.0</ele>
        <time>2019-12-21T08:13:15.343Z</time>
      </trkpt>
      <trkpt lat="41.31978667" lon="2.01996167">
        <ele>22.0</ele>
        <time>2019-12-21T08:13:16.359Z</time>
      </trkpt>
      <trkpt lat="41.31978667" lon="2.01996167">
        <ele>22.0</ele>
        <time>2019-12-21T08:13:17.342Z</time>
      </trkpt>
      <trkpt lat="41.31984667" lon="2.01987833">
        <ele>22.0</ele>
        <time>2019-12-21T08:13:18.348Z</time>
      </trkpt>
      <trkpt lat="41.31984667" lon="2.01987833">
        <ele>22.0</ele>
        <time>2019-12-21T08:13:19.342Z</time>
      </trkpt>
      <trkpt lat="41.31990667" lon="2.01979">
        <ele>21.0</ele>
        <time>2019-12-21T08:13:20.365Z</time>
      </trkpt>
      <trkpt lat="41.31990667" lon="2.01979">
        <ele>21.0</ele>
        <time>2019-12-21T08:13:21.347Z</time>
      </trkpt>
      <trkpt lat="41.31996833" lon="2.01970333">
        <ele>21.0</ele>
        <time>2019-12-21T08:13:22.346Z</time>
      </trkpt>
      <trkpt lat="41.31999167" lon="2.01966333">
        <ele>21.0</ele>
        <time>2019-12-21T08:13:23.349Z</time>
      </trkpt>
      <trkpt lat="41.31999167" lon="2.01966333">
        <ele>21.0</ele>
        <time>2019-12-21T08:13:24.342Z</time>
      </trkpt>
      <trkpt lat="41.32005" lon="2.01958">
        <ele>20.0</ele>
        <time>2019-12-21T08:13:25.347Z</time>
      </trkpt>
      <trkpt lat="41.32007667" lon="2.01953667">
        <ele>20.0</ele>
        <time>2019-12-21T08:13:26.349Z</time>
      </trkpt>
      <trkpt lat="41.32007667" lon="2.01953667">
        <ele>20.0</ele>
        <time>2019-12-21T08:13:27.342Z</time>
      </trkpt>
      <trkpt lat="41.32015167" lon="2.01945">
        <ele>20.0</ele>
        <time>2019-12-21T08:13:28.347Z</time>
      </trkpt>
      <trkpt lat="41.32019167" lon="2.01940333">
        <ele>20.0</ele>
        <time>2019-12-21T08:13:29.348Z</time>
      </trkpt>
      <trkpt lat="41.32019167" lon="2.01940333">
        <ele>20.0</ele>
        <time>2019-12-21T08:13:30.342Z</time>
      </trkpt>
      <trkpt lat="41.32026167" lon="2.01931333">
        <ele>21.0</ele>
        <time>2019-12-21T08:13:31.347Z</time>
      </trkpt>
      <trkpt lat="41.32029667" lon="2.01927">
        <ele>21.0</ele>
        <time>2019-12-21T08:13:32.350Z</time>
      </trkpt>
      <trkpt lat="41.32029667" lon="2.01927">
        <ele>21.0</ele>
        <time>2019-12-21T08:13:33.342Z</time>
      </trkpt>
      <trkpt lat="41.320355" lon="2.01918167">
        <ele>21.0</ele>
        <time>2019-12-21T08:13:34.348Z</time>
      </trkpt>
      <trkpt lat="41.320355" lon="2.01918167">
        <ele>21.0</ele>
        <time>2019-12-21T08:13:35.342Z</time>
      </trkpt>
      <trkpt lat="41.32040833" lon="2.019085">
        <ele>22.0</ele>
        <time>2019-12-21T08:13:36.367Z</time>
      </trkpt>
      <trkpt lat="41.32040833" lon="2.019085">
        <ele>22.0</ele>
        <time>2019-12-21T08:13:37.352Z</time>
      </trkpt>
      <trkpt lat="41.32046333" lon="2.01896667">
        <ele>23.0</ele>
        <time>2019-12-21T08:13:38.350Z</time>
      </trkpt>
      <trkpt lat="41.32046333" lon="2.01896667">
        <ele>23.0</ele>
        <time>2019-12-21T08:13:39.342Z</time>
      </trkpt>
      <trkpt lat="41.3205" lon="2.01885667">
        <ele>24.0</ele>
        <time>2019-12-21T08:13:40.347Z</time>
      </trkpt>
      <trkpt lat="41.3205" lon="2.01885667">
        <ele>24.0</ele>
        <time>2019-12-21T08:13:41.342Z</time>
      </trkpt>
      <trkpt lat="41.32055333" lon="2.018755">
        <ele>24.0</ele>
        <time>2019-12-21T08:13:42.362Z</time>
      </trkpt>
      <trkpt lat="41.32055333" lon="2.018755">
        <ele>24.0</ele>
        <time>2019-12-21T08:13:43.342Z</time>
      </trkpt>
      <trkpt lat="41.32061167" lon="2.01867167">
        <ele>24.0</ele>
        <time>2019-12-21T08:13:44.365Z</time>
      </trkpt>
      <trkpt lat="41.32061167" lon="2.01867167">
        <ele>24.0</ele>
        <time>2019-12-21T08:13:45.346Z</time>
      </trkpt>
      <trkpt lat="41.32068333" lon="2.01859">
        <ele>24.0</ele>
        <time>2019-12-21T08:13:46.339Z</time>
      </trkpt>
      <trkpt lat="41.32072333" lon="2.01855">
        <ele>24.0</ele>
        <time>2019-12-21T08:13:47.362Z</time>
      </trkpt>
      <trkpt lat="41.32072333" lon="2.01855">
        <ele>24.0</ele>
        <time>2019-12-21T08:13:48.344Z</time>
      </trkpt>
      <trkpt lat="41.32079667" lon="2.01847167">
        <ele>24.0</ele>
        <time>2019-12-21T08:13:49.347Z</time>
      </trkpt>
      <trkpt lat="41.32083167" lon="2.018435">
        <ele>24.0</ele>
        <time>2019-12-21T08:13:50.348Z</time>
      </trkpt>
      <trkpt lat="41.320865" lon="2.01839833">
        <ele>24.0</ele>
        <time>2019-12-21T08:13:51.347Z</time>
      </trkpt>
      <trkpt lat="41.320865" lon="2.01839833">
        <ele>24.0</ele>
        <time>2019-12-21T08:13:52.343Z</time>
      </trkpt>
      <trkpt lat="41.32093667" lon="2.01832667">
        <ele>23.0</ele>
        <time>2019-12-21T08:13:53.347Z</time>
      </trkpt>
      <trkpt lat="41.32093667" lon="2.01832667">
        <ele>23.0</ele>
        <time>2019-12-21T08:13:54.343Z</time>
      </trkpt>
      <trkpt lat="41.32101" lon="2.01825167">
        <ele>23.0</ele>
        <time>2019-12-21T08:13:55.348Z</time>
      </trkpt>
      <trkpt lat="41.32101" lon="2.01825167">
        <ele>23.0</ele>
        <time>2019-12-21T08:13:56.349Z</time>
      </trkpt>
      <trkpt lat="41.32108167" lon="2.018175">
        <ele>23.0</ele>
        <time>2019-12-21T08:13:57.347Z</time>
      </trkpt>
      <trkpt lat="41.32108167" lon="2.018175">
        <ele>23.0</ele>
        <time>2019-12-21T08:13:58.342Z</time>
      </trkpt>
      <trkpt lat="41.32114833" lon="2.01810167">
        <ele>23.0</ele>
        <time>2019-12-21T08:13:59.369Z</time>
      </trkpt>
      <trkpt lat="41.32118167" lon="2.018065">
        <ele>23.0</ele>
        <time>2019-12-21T08:14:00.352Z</time>
      </trkpt>
      <trkpt lat="41.32118167" lon="2.018065">
        <ele>23.0</ele>
        <time>2019-12-21T08:14:01.341Z</time>
      </trkpt>
      <trkpt lat="41.32124167" lon="2.01798667">
        <ele>23.0</ele>
        <time>2019-12-21T08:14:02.366Z</time>
      </trkpt>
      <trkpt lat="41.32124167" lon="2.01798667">
        <ele>23.0</ele>
        <time>2019-12-21T08:14:03.348Z</time>
      </trkpt>
      <trkpt lat="41.32130333" lon="2.01790833">
        <ele>23.0</ele>
        <time>2019-12-21T08:14:04.348Z</time>
      </trkpt>
      <trkpt lat="41.32130333" lon="2.01790833">
        <ele>23.0</ele>
        <time>2019-12-21T08:14:05.342Z</time>
      </trkpt>
      <trkpt lat="41.32136667" lon="2.01782833">
        <ele>23.0</ele>
        <time>2019-12-21T08:14:06.347Z</time>
      </trkpt>
      <trkpt lat="41.32136667" lon="2.01782833">
        <ele>23.0</ele>
        <time>2019-12-21T08:14:07.352Z</time>
      </trkpt>
      <trkpt lat="41.32143333" lon="2.017745">
        <ele>24.0</ele>
        <time>2019-12-21T08:14:08.350Z</time>
      </trkpt>
      <trkpt lat="41.32146667" lon="2.01770333">
        <ele>24.0</ele>
        <time>2019-12-21T08:14:09.348Z</time>
      </trkpt>
      <trkpt lat="41.32146667" lon="2.01770333">
        <ele>24.0</ele>
        <time>2019-12-21T08:14:10.342Z</time>
      </trkpt>
      <trkpt lat="41.32153167" lon="2.01761833">
        <ele>25.0</ele>
        <time>2019-12-21T08:14:11.348Z</time>
      </trkpt>
      <trkpt lat="41.32153167" lon="2.01761833">
        <ele>25.0</ele>
        <time>2019-12-21T08:14:12.344Z</time>
      </trkpt>
      <trkpt lat="41.32160833" lon="2.01753">
        <ele>25.0</ele>
        <time>2019-12-21T08:14:13.337Z</time>
      </trkpt>
      <trkpt lat="41.32164167" lon="2.01748667">
        <ele>25.0</ele>
        <time>2019-12-21T08:14:14.361Z</time>
      </trkpt>
      <trkpt lat="41.32164167" lon="2.01748667">
        <ele>25.0</ele>
        <time>2019-12-21T08:14:15.345Z</time>
      </trkpt>
      <trkpt lat="41.32170667" lon="2.017405">
        <ele>25.0</ele>
        <time>2019-12-21T08:14:16.347Z</time>
      </trkpt>
      <trkpt lat="41.32170667" lon="2.017405">
        <ele>25.0</ele>
        <time>2019-12-21T08:14:17.343Z</time>
      </trkpt>
      <trkpt lat="41.32177333" lon="2.01732">
        <ele>25.0</ele>
        <time>2019-12-21T08:14:18.351Z</time>
      </trkpt>
      <trkpt lat="41.32177333" lon="2.01732">
        <ele>25.0</ele>
        <time>2019-12-21T08:14:19.344Z</time>
      </trkpt>
      <trkpt lat="41.321835" lon="2.01724">
        <ele>26.0</ele>
        <time>2019-12-21T08:14:20.350Z</time>
      </trkpt>
      <trkpt lat="41.321835" lon="2.01724">
        <ele>26.0</ele>
        <time>2019-12-21T08:14:21.342Z</time>
      </trkpt>
      <trkpt lat="41.321895" lon="2.01716">
        <ele>26.0</ele>
        <time>2019-12-21T08:14:22.364Z</time>
      </trkpt>
      <trkpt lat="41.321895" lon="2.01716">
        <ele>26.0</ele>
        <time>2019-12-21T08:14:23.343Z</time>
      </trkpt>
      <trkpt lat="41.32195667" lon="2.017085">
        <ele>26.0</ele>
        <time>2019-12-21T08:14:24.368Z</time>
      </trkpt>
      <trkpt lat="41.32195667" lon="2.017085">
        <ele>26.0</ele>
        <time>2019-12-21T08:14:25.350Z</time>
      </trkpt>
      <trkpt lat="41.32202333" lon="2.01704">
        <ele>26.0</ele>
        <time>2019-12-21T08:14:26.344Z</time>
      </trkpt>
      <trkpt lat="41.32202333" lon="2.01704">
        <ele>26.0</ele>
        <time>2019-12-21T08:14:27.343Z</time>
      </trkpt>
      <trkpt lat="41.32210167" lon="2.01700667">
        <ele>26.0</ele>
        <time>2019-12-21T08:14:28.348Z</time>
      </trkpt>
      <trkpt lat="41.32210167" lon="2.01700667">
        <ele>26.0</ele>
        <time>2019-12-21T08:14:29.342Z</time>
      </trkpt>
      <trkpt lat="41.32218167" lon="2.01696833">
        <ele>26.0</ele>
        <time>2019-12-21T08:14:30.348Z</time>
      </trkpt>
      <trkpt lat="41.32218167" lon="2.01696833">
        <ele>26.0</ele>
        <time>2019-12-21T08:14:31.346Z</time>
      </trkpt>
      <trkpt lat="41.32225167" lon="2.01691833">
        <ele>26.0</ele>
        <time>2019-12-21T08:14:32.348Z</time>
      </trkpt>
      <trkpt lat="41.32225167" lon="2.01691833">
        <ele>26.0</ele>
        <time>2019-12-21T08:14:33.346Z</time>
      </trkpt>
      <trkpt lat="41.322315" lon="2.01686333">
        <ele>26.0</ele>
        <time>2019-12-21T08:14:34.348Z</time>
      </trkpt>
      <trkpt lat="41.322315" lon="2.01686333">
        <ele>26.0</ele>
        <time>2019-12-21T08:14:35.342Z</time>
      </trkpt>
      <trkpt lat="41.32238167" lon="2.01681167">
        <ele>26.0</ele>
        <time>2019-12-21T08:14:36.347Z</time>
      </trkpt>
      <trkpt lat="41.32241333" lon="2.01678667">
        <ele>26.0</ele>
        <time>2019-12-21T08:14:37.348Z</time>
      </trkpt>
      <trkpt lat="41.32241333" lon="2.01678667">
        <ele>26.0</ele>
        <time>2019-12-21T08:14:38.345Z</time>
      </trkpt>
      <trkpt lat="41.32246667" lon="2.01671833">
        <ele>27.0</ele>
        <time>2019-12-21T08:14:39.348Z</time>
      </trkpt>
      <trkpt lat="41.32246667" lon="2.01671833">
        <ele>27.0</ele>
        <time>2019-12-21T08:14:40.342Z</time>
      </trkpt>
      <trkpt lat="41.32252333" lon="2.01663833">
        <ele>26.0</ele>
        <time>2019-12-21T08:14:41.348Z</time>
      </trkpt>
      <trkpt lat="41.32252333" lon="2.01663833">
        <ele>26.0</ele>
        <time>2019-12-21T08:14:42.344Z</time>
      </trkpt>
      <trkpt lat="41.322585" lon="2.016565">
        <ele>27.0</ele>
        <time>2019-12-21T08:14:43.348Z</time>
      </trkpt>
      <trkpt lat="41.32262" lon="2.01653333">
        <ele>26.0</ele>
        <time>2019-12-21T08:14:44.351Z</time>
      </trkpt>
      <trkpt lat="41.32262" lon="2.01653333">
        <ele>26.0</ele>
        <time>2019-12-21T08:14:45.343Z</time>
      </trkpt>
      <trkpt lat="41.32268333" lon="2.01646333">
        <ele>27.0</ele>
        <time>2019-12-21T08:14:46.337Z</time>
      </trkpt>
      <trkpt lat="41.32268333" lon="2.01646333">
        <ele>27.0</ele>
        <time>2019-12-21T08:14:47.357Z</time>
      </trkpt>
      <trkpt lat="41.322755" lon="2.01639">
        <ele>26.0</ele>
        <time>2019-12-21T08:14:48.348Z</time>
      </trkpt>
      <trkpt lat="41.32278667" lon="2.01635333">
        <ele>26.0</ele>
        <time>2019-12-21T08:14:49.349Z</time>
      </trkpt>
      <trkpt lat="41.32282333" lon="2.01631833">
        <ele>26.0</ele>
        <time>2019-12-21T08:14:50.351Z</time>
      </trkpt>
      <trkpt lat="41.32282333" lon="2.01631833">
        <ele>26.0</ele>
        <time>2019-12-21T08:14:51.343Z</time>
      </trkpt>
      <trkpt lat="41.32289667" lon="2.01624667">
        <ele>26.0</ele>
        <time>2019-12-21T08:14:52.347Z</time>
      </trkpt>
      <trkpt lat="41.32289667" lon="2.01624667">
        <ele>26.0</ele>
        <time>2019-12-21T08:14:53.349Z</time>
      </trkpt>
      <trkpt lat="41.32296833" lon="2.01617667">
        <ele>26.0</ele>
        <time>2019-12-21T08:14:54.348Z</time>
      </trkpt>
      <trkpt lat="41.32300333" lon="2.01614">
        <ele>26.0</ele>
        <time>2019-12-21T08:14:55.349Z</time>
      </trkpt>
      <trkpt lat="41.32300333" lon="2.01614">
        <ele>26.0</ele>
        <time>2019-12-21T08:14:56.345Z</time>
      </trkpt>
      <trkpt lat="41.32306833" lon="2.01606833">
        <ele>27.0</ele>
        <time>2019-12-21T08:14:57.347Z</time>
      </trkpt>
      <trkpt lat="41.32306833" lon="2.01606833">
        <ele>27.0</ele>
        <time>2019-12-21T08:14:58.343Z</time>
      </trkpt>
      <trkpt lat="41.323135" lon="2.01600667">
        <ele>27.0</ele>
        <time>2019-12-21T08:14:59.348Z</time>
      </trkpt>
      <trkpt lat="41.323135" lon="2.01600667">
        <ele>27.0</ele>
        <time>2019-12-21T08:15:00.343Z</time>
      </trkpt>
      <trkpt lat="41.32319833" lon="2.01595">
        <ele>27.0</ele>
        <time>2019-12-21T08:15:01.348Z</time>
      </trkpt>
      <trkpt lat="41.32323167" lon="2.01592167">
        <ele>27.0</ele>
        <time>2019-12-21T08:15:02.364Z</time>
      </trkpt>
      <trkpt lat="41.32323167" lon="2.01592167">
        <ele>27.0</ele>
        <time>2019-12-21T08:15:03.343Z</time>
      </trkpt>
      <trkpt lat="41.323305" lon="2.01585833">
        <ele>27.0</ele>
        <time>2019-12-21T08:15:04.348Z</time>
      </trkpt>
      <trkpt lat="41.323305" lon="2.01585833">
        <ele>27.0</ele>
        <time>2019-12-21T08:15:05.343Z</time>
      </trkpt>
      <trkpt lat="41.32338833" lon="2.01579333">
        <ele>27.0</ele>
        <time>2019-12-21T08:15:06.348Z</time>
      </trkpt>
      <trkpt lat="41.32338833" lon="2.01579333">
        <ele>27.0</ele>
        <time>2019-12-21T08:15:07.342Z</time>
      </trkpt>
      <trkpt lat="41.32346833" lon="2.015725">
        <ele>27.0</ele>
        <time>2019-12-21T08:15:08.364Z</time>
      </trkpt>
      <trkpt lat="41.32346833" lon="2.015725">
        <ele>27.0</ele>
        <time>2019-12-21T08:15:09.346Z</time>
      </trkpt>
      <trkpt lat="41.32354667" lon="2.01566">
        <ele>27.0</ele>
        <time>2019-12-21T08:15:10.347Z</time>
      </trkpt>
      <trkpt lat="41.32354667" lon="2.01566">
        <ele>27.0</ele>
        <time>2019-12-21T08:15:11.342Z</time>
      </trkpt>
      <trkpt lat="41.323625" lon="2.01560167">
        <ele>28.0</ele>
        <time>2019-12-21T08:15:12.364Z</time>
      </trkpt>
      <trkpt lat="41.323665" lon="2.01557">
        <ele>28.0</ele>
        <time>2019-12-21T08:15:13.345Z</time>
      </trkpt>
      <trkpt lat="41.3237" lon="2.01554">
        <ele>28.0</ele>
        <time>2019-12-21T08:15:14.370Z</time>
      </trkpt>
      <trkpt lat="41.3237" lon="2.01554">
        <ele>28.0</ele>
        <time>2019-12-21T08:15:15.353Z</time>
      </trkpt>
      <trkpt lat="41.323775" lon="2.01548">
        <ele>28.0</ele>
        <time>2019-12-21T08:15:16.348Z</time>
      </trkpt>
      <trkpt lat="41.323775" lon="2.01548">
        <ele>28.0</ele>
        <time>2019-12-21T08:15:17.345Z</time>
      </trkpt>
      <trkpt lat="41.32385" lon="2.01541833">
        <ele>28.0</ele>
        <time>2019-12-21T08:15:18.348Z</time>
      </trkpt>
      <trkpt lat="41.32385" lon="2.01541833">
        <ele>28.0</ele>
        <time>2019-12-21T08:15:19.343Z</time>
      </trkpt>
      <trkpt lat="41.32391833" lon="2.015355">
        <ele>28.0</ele>
        <time>2019-12-21T08:15:20.365Z</time>
      </trkpt>
      <trkpt lat="41.32391833" lon="2.015355">
        <ele>28.0</ele>
        <time>2019-12-21T08:15:21.348Z</time>
      </trkpt>
      <trkpt lat="41.323975" lon="2.01530333">
        <ele>28.0</ele>
        <time>2019-12-21T08:15:22.348Z</time>
      </trkpt>
      <trkpt lat="41.323975" lon="2.01530333">
        <ele>28.0</ele>
        <time>2019-12-21T08:15:23.343Z</time>
      </trkpt>
      <trkpt lat="41.32404333" lon="2.01525">
        <ele>29.0</ele>
        <time>2019-12-21T08:15:24.348Z</time>
      </trkpt>
      <trkpt lat="41.32404333" lon="2.01525">
        <ele>29.0</ele>
        <time>2019-12-21T08:15:25.343Z</time>
      </trkpt>
      <trkpt lat="41.32411167" lon="2.015195">
        <ele>29.0</ele>
        <time>2019-12-21T08:15:26.365Z</time>
      </trkpt>
      <trkpt lat="41.32411167" lon="2.015195">
        <ele>29.0</ele>
        <time>2019-12-21T08:15:27.346Z</time>
      </trkpt>
      <trkpt lat="41.32418833" lon="2.01513167">
        <ele>28.0</ele>
        <time>2019-12-21T08:15:28.348Z</time>
      </trkpt>
      <trkpt lat="41.32418833" lon="2.01513167">
        <ele>28.0</ele>
        <time>2019-12-21T08:15:29.343Z</time>
      </trkpt>
      <trkpt lat="41.32427" lon="2.01506333">
        <ele>28.0</ele>
        <time>2019-12-21T08:15:30.346Z</time>
      </trkpt>
      <trkpt lat="41.32430833" lon="2.01503167">
        <ele>28.0</ele>
        <time>2019-12-21T08:15:31.349Z</time>
      </trkpt>
      <trkpt lat="41.32434667" lon="2.01500167">
        <ele>27.0</ele>
        <time>2019-12-21T08:15:32.348Z</time>
      </trkpt>
      <trkpt lat="41.32434667" lon="2.01500167">
        <ele>27.0</ele>
        <time>2019-12-21T08:15:33.343Z</time>
      </trkpt>
      <trkpt lat="41.32442333" lon="2.01494">
        <ele>27.0</ele>
        <time>2019-12-21T08:15:34.348Z</time>
      </trkpt>
      <trkpt lat="41.32442333" lon="2.01494">
        <ele>27.0</ele>
        <time>2019-12-21T08:15:35.342Z</time>
      </trkpt>
      <trkpt lat="41.32450167" lon="2.01487167">
        <ele>27.0</ele>
        <time>2019-12-21T08:15:36.348Z</time>
      </trkpt>
      <trkpt lat="41.32450167" lon="2.01487167">
        <ele>27.0</ele>
        <time>2019-12-21T08:15:37.345Z</time>
      </trkpt>
      <trkpt lat="41.32459333" lon="2.01480333">
        <ele>27.0</ele>
        <time>2019-12-21T08:15:38.351Z</time>
      </trkpt>
      <trkpt lat="41.32459333" lon="2.01480333">
        <ele>27.0</ele>
        <time>2019-12-21T08:15:39.345Z</time>
      </trkpt>
      <trkpt lat="41.324655" lon="2.01472167">
        <ele>27.0</ele>
        <time>2019-12-21T08:15:40.348Z</time>
      </trkpt>
      <trkpt lat="41.324655" lon="2.01472167">
        <ele>27.0</ele>
        <time>2019-12-21T08:15:41.342Z</time>
      </trkpt>
      <trkpt lat="41.32471833" lon="2.01463833">
        <ele>27.0</ele>
        <time>2019-12-21T08:15:42.364Z</time>
      </trkpt>
      <trkpt lat="41.32471833" lon="2.01463833">
        <ele>27.0</ele>
        <time>2019-12-21T08:15:43.343Z</time>
      </trkpt>
      <trkpt lat="41.32477667" lon="2.01457333">
        <ele>27.0</ele>
        <time>2019-12-21T08:15:44.365Z</time>
      </trkpt>
      <trkpt lat="41.32477667" lon="2.01457333">
        <ele>27.0</ele>
        <time>2019-12-21T08:15:45.348Z</time>
      </trkpt>
      <trkpt lat="41.32485667" lon="2.01454">
        <ele>28.0</ele>
        <time>2019-12-21T08:15:46.337Z</time>
      </trkpt>
      <trkpt lat="41.32485667" lon="2.01454">
        <ele>28.0</ele>
        <time>2019-12-21T08:15:47.367Z</time>
      </trkpt>
      <trkpt lat="41.32495167" lon="2.01451167">
        <ele>28.0</ele>
        <time>2019-12-21T08:15:48.351Z</time>
      </trkpt>
      <trkpt lat="41.32495167" lon="2.01451167">
        <ele>28.0</ele>
        <time>2019-12-21T08:15:49.341Z</time>
      </trkpt>
      <trkpt lat="41.32504" lon="2.01448833">
        <ele>29.0</ele>
        <time>2019-12-21T08:15:50.364Z</time>
      </trkpt>
      <trkpt lat="41.32504" lon="2.01448833">
        <ele>29.0</ele>
        <time>2019-12-21T08:15:51.347Z</time>
      </trkpt>
      <trkpt lat="41.32512333" lon="2.014455">
        <ele>29.0</ele>
        <time>2019-12-21T08:15:52.349Z</time>
      </trkpt>
      <trkpt lat="41.32512333" lon="2.014455">
        <ele>29.0</ele>
        <time>2019-12-21T08:15:53.343Z</time>
      </trkpt>
      <trkpt lat="41.3252" lon="2.014405">
        <ele>30.0</ele>
        <time>2019-12-21T08:15:54.364Z</time>
      </trkpt>
      <trkpt lat="41.32523667" lon="2.01437333">
        <ele>31.0</ele>
        <time>2019-12-21T08:15:55.349Z</time>
      </trkpt>
      <trkpt lat="41.32527333" lon="2.01434">
        <ele>31.0</ele>
        <time>2019-12-21T08:15:56.350Z</time>
      </trkpt>
      <trkpt lat="41.32527333" lon="2.01434">
        <ele>31.0</ele>
        <time>2019-12-21T08:15:57.343Z</time>
      </trkpt>
      <trkpt lat="41.32534167" lon="2.01426167">
        <ele>31.0</ele>
        <time>2019-12-21T08:15:58.350Z</time>
      </trkpt>
      <trkpt lat="41.32534167" lon="2.01426167">
        <ele>31.0</ele>
        <time>2019-12-21T08:15:59.349Z</time>
      </trkpt>
      <trkpt lat="41.32539667" lon="2.01417167">
        <ele>31.0</ele>
        <time>2019-12-21T08:16:00.349Z</time>
      </trkpt>
      <trkpt lat="41.32539667" lon="2.01417167">
        <ele>31.0</ele>
        <time>2019-12-21T08:16:01.343Z</time>
      </trkpt>
      <trkpt lat="41.32545167" lon="2.01409667">
        <ele>31.0</ele>
        <time>2019-12-21T08:16:02.347Z</time>
      </trkpt>
      <trkpt lat="41.32547833" lon="2.014075">
        <ele>32.0</ele>
        <time>2019-12-21T08:16:03.348Z</time>
      </trkpt>
      <trkpt lat="41.32547833" lon="2.014075">
        <ele>32.0</ele>
        <time>2019-12-21T08:16:04.343Z</time>
      </trkpt>
      <trkpt lat="41.325525" lon="2.01403833">
        <ele>32.0</ele>
        <time>2019-12-21T08:16:05.348Z</time>
      </trkpt>
      <trkpt lat="41.325525" lon="2.01403833">
        <ele>32.0</ele>
        <time>2019-12-21T08:16:06.343Z</time>
      </trkpt>
      <trkpt lat="41.32556667" lon="2.01400667">
        <ele>32.0</ele>
        <time>2019-12-21T08:16:07.348Z</time>
      </trkpt>
      <trkpt lat="41.32559" lon="2.01396167">
        <ele>32.0</ele>
        <time>2019-12-21T08:16:08.351Z</time>
      </trkpt>
      <trkpt lat="41.32559" lon="2.01396167">
        <ele>32.0</ele>
        <time>2019-12-21T08:16:09.346Z</time>
      </trkpt>
      <trkpt lat="41.32557167" lon="2.01387167">
        <ele>32.0</ele>
        <time>2019-12-21T08:16:10.348Z</time>
      </trkpt>
      <trkpt lat="41.32557167" lon="2.01387167">
        <ele>32.0</ele>
        <time>2019-12-21T08:16:11.343Z</time>
      </trkpt>
      <trkpt lat="41.32553667" lon="2.01378333">
        <ele>32.0</ele>
        <time>2019-12-21T08:16:12.364Z</time>
      </trkpt>
      <trkpt lat="41.32553667" lon="2.01378333">
        <ele>32.0</ele>
        <time>2019-12-21T08:16:13.354Z</time>
      </trkpt>
      <trkpt lat="41.325495" lon="2.01368833">
        <ele>32.0</ele>
        <time>2019-12-21T08:16:14.352Z</time>
      </trkpt>
      <trkpt lat="41.325495" lon="2.01368833">
        <ele>32.0</ele>
        <time>2019-12-21T08:16:15.347Z</time>
      </trkpt>
      <trkpt lat="41.32544833" lon="2.013595">
        <ele>32.0</ele>
        <time>2019-12-21T08:16:16.349Z</time>
      </trkpt>
      <trkpt lat="41.32544833" lon="2.013595">
        <ele>32.0</ele>
        <time>2019-12-21T08:16:17.344Z</time>
      </trkpt>
      <trkpt lat="41.32539833" lon="2.0135">
        <ele>32.0</ele>
        <time>2019-12-21T08:16:18.349Z</time>
      </trkpt>
      <trkpt lat="41.32539833" lon="2.0135">
        <ele>32.0</ele>
        <time>2019-12-21T08:16:19.343Z</time>
      </trkpt>
      <trkpt lat="41.32534333" lon="2.0134">
        <ele>32.0</ele>
        <time>2019-12-21T08:16:20.366Z</time>
      </trkpt>
      <trkpt lat="41.32534333" lon="2.0134">
        <ele>32.0</ele>
        <time>2019-12-21T08:16:21.348Z</time>
      </trkpt>
      <trkpt lat="41.32528667" lon="2.01329833">
        <ele>32.0</ele>
        <time>2019-12-21T08:16:22.349Z</time>
      </trkpt>
      <trkpt lat="41.32528667" lon="2.01329833">
        <ele>32.0</ele>
        <time>2019-12-21T08:16:23.344Z</time>
      </trkpt>
      <trkpt lat="41.32523167" lon="2.01319">
        <ele>32.0</ele>
        <time>2019-12-21T08:16:24.348Z</time>
      </trkpt>
      <trkpt lat="41.32523167" lon="2.01319">
        <ele>32.0</ele>
        <time>2019-12-21T08:16:25.344Z</time>
      </trkpt>
      <trkpt lat="41.32518667" lon="2.01307167">
        <ele>32.0</ele>
        <time>2019-12-21T08:16:26.351Z</time>
      </trkpt>
      <trkpt lat="41.32518667" lon="2.01307167">
        <ele>32.0</ele>
        <time>2019-12-21T08:16:27.344Z</time>
      </trkpt>
      <trkpt lat="41.32520333" lon="2.01293667">
        <ele>32.0</ele>
        <time>2019-12-21T08:16:28.349Z</time>
      </trkpt>
      <trkpt lat="41.32520333" lon="2.01293667">
        <ele>32.0</ele>
        <time>2019-12-21T08:16:29.343Z</time>
      </trkpt>
      <trkpt lat="41.32527333" lon="2.01283667">
        <ele>31.0</ele>
        <time>2019-12-21T08:16:30.348Z</time>
      </trkpt>
      <trkpt lat="41.32527333" lon="2.01283667">
        <ele>31.0</ele>
        <time>2019-12-21T08:16:31.343Z</time>
      </trkpt>
      <trkpt lat="41.32535667" lon="2.01274833">
        <ele>31.0</ele>
        <time>2019-12-21T08:16:32.348Z</time>
      </trkpt>
      <trkpt lat="41.32535667" lon="2.01274833">
        <ele>31.0</ele>
        <time>2019-12-21T08:16:33.343Z</time>
      </trkpt>
      <trkpt lat="41.32543833" lon="2.01266333">
        <ele>31.0</ele>
        <time>2019-12-21T08:16:34.367Z</time>
      </trkpt>
      <trkpt lat="41.32548" lon="2.01262167">
        <ele>31.0</ele>
        <time>2019-12-21T08:16:35.349Z</time>
      </trkpt>
      <trkpt lat="41.32548" lon="2.01262167">
        <ele>31.0</ele>
        <time>2019-12-21T08:16:36.343Z</time>
      </trkpt>
      <trkpt lat="41.325565" lon="2.012535">
        <ele>32.0</ele>
        <time>2019-12-21T08:16:37.349Z</time>
      </trkpt>
      <trkpt lat="41.32560333" lon="2.01249333">
        <ele>32.0</ele>
        <time>2019-12-21T08:16:38.366Z</time>
      </trkpt>
      <trkpt lat="41.32560333" lon="2.01249333">
        <ele>32.0</ele>
        <time>2019-12-21T08:16:39.348Z</time>
      </trkpt>
      <trkpt lat="41.32568" lon="2.01241167">
        <ele>32.0</ele>
        <time>2019-12-21T08:16:40.349Z</time>
      </trkpt>
      <trkpt lat="41.32568" lon="2.01241167">
        <ele>32.0</ele>
        <time>2019-12-21T08:16:41.343Z</time>
      </trkpt>
      <trkpt lat="41.32575833" lon="2.01232833">
        <ele>32.0</ele>
        <time>2019-12-21T08:16:42.348Z</time>
      </trkpt>
      <trkpt lat="41.32575833" lon="2.01232833">
        <ele>32.0</ele>
        <time>2019-12-21T08:16:43.343Z</time>
      </trkpt>
      <trkpt lat="41.32583333" lon="2.01224667">
        <ele>32.0</ele>
        <time>2019-12-21T08:16:44.366Z</time>
      </trkpt>
      <trkpt lat="41.32583333" lon="2.01224667">
        <ele>32.0</ele>
        <time>2019-12-21T08:16:45.347Z</time>
      </trkpt>
      <trkpt lat="41.32591333" lon="2.012165">
        <ele>32.0</ele>
        <time>2019-12-21T08:16:46.363Z</time>
      </trkpt>
      <trkpt lat="41.32591333" lon="2.012165">
        <ele>32.0</ele>
        <time>2019-12-21T08:16:47.346Z</time>
      </trkpt>
      <trkpt lat="41.32599667" lon="2.01208167">
        <ele>32.0</ele>
        <time>2019-12-21T08:16:48.357Z</time>
      </trkpt>
      <trkpt lat="41.32599667" lon="2.01208167">
        <ele>32.0</ele>
        <time>2019-12-21T08:16:49.344Z</time>
      </trkpt>
      <trkpt lat="41.326075" lon="2.01199833">
        <ele>32.0</ele>
        <time>2019-12-21T08:16:50.351Z</time>
      </trkpt>
      <trkpt lat="41.326075" lon="2.01199833">
        <ele>32.0</ele>
        <time>2019-12-21T08:16:51.344Z</time>
      </trkpt>
      <trkpt lat="41.32615667" lon="2.011915">
        <ele>32.0</ele>
        <time>2019-12-21T08:16:52.364Z</time>
      </trkpt>
      <trkpt lat="41.32615667" lon="2.011915">
        <ele>32.0</ele>
        <time>2019-12-21T08:16:53.344Z</time>
      </trkpt>
      <trkpt lat="41.32623167" lon="2.01183167">
        <ele>32.0</ele>
        <time>2019-12-21T08:16:54.349Z</time>
      </trkpt>
      <trkpt lat="41.32623167" lon="2.01183167">
        <ele>32.0</ele>
        <time>2019-12-21T08:16:55.344Z</time>
      </trkpt>
      <trkpt lat="41.32631167" lon="2.01174833">
        <ele>31.0</ele>
        <time>2019-12-21T08:16:56.352Z</time>
      </trkpt>
      <trkpt lat="41.32631167" lon="2.01174833">
        <ele>31.0</ele>
        <time>2019-12-21T08:16:57.344Z</time>
      </trkpt>
      <trkpt lat="41.32638833" lon="2.01166667">
        <ele>31.0</ele>
        <time>2019-12-21T08:16:58.368Z</time>
      </trkpt>
      <trkpt lat="41.32638833" lon="2.01166667">
        <ele>31.0</ele>
        <time>2019-12-21T08:16:59.349Z</time>
      </trkpt>
      <trkpt lat="41.32646667" lon="2.01158333">
        <ele>31.0</ele>
        <time>2019-12-21T08:17:00.349Z</time>
      </trkpt>
      <trkpt lat="41.326505" lon="2.01154167">
        <ele>31.0</ele>
        <time>2019-12-21T08:17:01.350Z</time>
      </trkpt>
      <trkpt lat="41.326505" lon="2.01154167">
        <ele>31.0</ele>
        <time>2019-12-21T08:17:02.346Z</time>
      </trkpt>
      <trkpt lat="41.32658833" lon="2.01145667">
        <ele>31.0</ele>
        <time>2019-12-21T08:17:03.349Z</time>
      </trkpt>
      <trkpt lat="41.32658833" lon="2.01145667">
        <ele>31.0</ele>
        <time>2019-12-21T08:17:04.346Z</time>
      </trkpt>
      <trkpt lat="41.32667" lon="2.01137333">
        <ele>31.0</ele>
        <time>2019-12-21T08:17:05.349Z</time>
      </trkpt>
      <trkpt lat="41.32667" lon="2.01137333">
        <ele>31.0</ele>
        <time>2019-12-21T08:17:06.343Z</time>
      </trkpt>
      <trkpt lat="41.32675" lon="2.01129">
        <ele>31.0</ele>
        <time>2019-12-21T08:17:07.349Z</time>
      </trkpt>
      <trkpt lat="41.32675" lon="2.01129">
        <ele>31.0</ele>
        <time>2019-12-21T08:17:08.342Z</time>
      </trkpt>
      <trkpt lat="41.326835" lon="2.01120333">
        <ele>31.0</ele>
        <time>2019-12-21T08:17:09.365Z</time>
      </trkpt>
      <trkpt lat="41.32687833" lon="2.01116167">
        <ele>31.0</ele>
        <time>2019-12-21T08:17:10.349Z</time>
      </trkpt>
      <trkpt lat="41.32687833" lon="2.01116167">
        <ele>31.0</ele>
        <time>2019-12-21T08:17:11.342Z</time>
      </trkpt>
      <trkpt lat="41.32696333" lon="2.01107667">
        <ele>31.0</ele>
        <time>2019-12-21T08:17:12.348Z</time>
      </trkpt>
      <trkpt lat="41.32696333" lon="2.01107667">
        <ele>31.0</ele>
        <time>2019-12-21T08:17:13.344Z</time>
      </trkpt>
      <trkpt lat="41.327045" lon="2.01099333">
        <ele>31.0</ele>
        <time>2019-12-21T08:17:14.351Z</time>
      </trkpt>
      <trkpt lat="41.327045" lon="2.01099333">
        <ele>31.0</ele>
        <time>2019-12-21T08:17:15.344Z</time>
      </trkpt>
      <trkpt lat="41.32712667" lon="2.01091">
        <ele>31.0</ele>
        <time>2019-12-21T08:17:16.349Z</time>
      </trkpt>
      <trkpt lat="41.32712667" lon="2.01091">
        <ele>31.0</ele>
        <time>2019-12-21T08:17:17.343Z</time>
      </trkpt>
      <trkpt lat="41.32720833" lon="2.01082667">
        <ele>31.0</ele>
        <time>2019-12-21T08:17:18.371Z</time>
      </trkpt>
      <trkpt lat="41.32720833" lon="2.01082667">
        <ele>31.0</ele>
        <time>2019-12-21T08:17:19.356Z</time>
      </trkpt>
      <trkpt lat="41.32728833" lon="2.01074333">
        <ele>31.0</ele>
        <time>2019-12-21T08:17:20.351Z</time>
      </trkpt>
      <trkpt lat="41.32728833" lon="2.01074333">
        <ele>31.0</ele>
        <time>2019-12-21T08:17:21.343Z</time>
      </trkpt>
      <trkpt lat="41.32737167" lon="2.01066167">
        <ele>31.0</ele>
        <time>2019-12-21T08:17:22.349Z</time>
      </trkpt>
      <trkpt lat="41.32737167" lon="2.01066167">
        <ele>31.0</ele>
        <time>2019-12-21T08:17:23.344Z</time>
      </trkpt>
      <trkpt lat="41.32744667" lon="2.01058167">
        <ele>31.0</ele>
        <time>2019-12-21T08:17:24.369Z</time>
      </trkpt>
      <trkpt lat="41.32744667" lon="2.01058167">
        <ele>31.0</ele>
        <time>2019-12-21T08:17:25.351Z</time>
      </trkpt>
      <trkpt lat="41.327525" lon="2.01050167">
        <ele>31.0</ele>
        <time>2019-12-21T08:17:26.351Z</time>
      </trkpt>
      <trkpt lat="41.327525" lon="2.01050167">
        <ele>31.0</ele>
        <time>2019-12-21T08:17:27.344Z</time>
      </trkpt>
      <trkpt lat="41.327605" lon="2.01041833">
        <ele>31.0</ele>
        <time>2019-12-21T08:17:28.349Z</time>
      </trkpt>
      <trkpt lat="41.327605" lon="2.01041833">
        <ele>31.0</ele>
        <time>2019-12-21T08:17:29.346Z</time>
      </trkpt>
      <trkpt lat="41.327685" lon="2.01034">
        <ele>32.0</ele>
        <time>2019-12-21T08:17:30.348Z</time>
      </trkpt>
      <trkpt lat="41.327685" lon="2.01034">
        <ele>32.0</ele>
        <time>2019-12-21T08:17:31.344Z</time>
      </trkpt>
      <trkpt lat="41.32776333" lon="2.01026">
        <ele>32.0</ele>
        <time>2019-12-21T08:17:32.364Z</time>
      </trkpt>
      <trkpt lat="41.32780333" lon="2.01021833">
        <ele>32.0</ele>
        <time>2019-12-21T08:17:33.349Z</time>
      </trkpt>
      <trkpt lat="41.32780333" lon="2.01021833">
        <ele>32.0</ele>
        <time>2019-12-21T08:17:34.343Z</time>
      </trkpt>
      <trkpt lat="41.32788333" lon="2.01013333">
        <ele>31.0</ele>
        <time>2019-12-21T08:17:35.349Z</time>
      </trkpt>
      <trkpt lat="41.32788333" lon="2.01013333">
        <ele>31.0</ele>
        <time>2019-12-21T08:17:36.344Z</time>
      </trkpt>
      <trkpt lat="41.32796167" lon="2.01005333">
        <ele>32.0</ele>
        <time>2019-12-21T08:17:37.349Z</time>
      </trkpt>
      <trkpt lat="41.32796167" lon="2.01005333">
        <ele>32.0</ele>
        <time>2019-12-21T08:17:38.345Z</time>
      </trkpt>
      <trkpt lat="41.32803833" lon="2.00997333">
        <ele>32.0</ele>
        <time>2019-12-21T08:17:39.349Z</time>
      </trkpt>
      <trkpt lat="41.32803833" lon="2.00997333">
        <ele>32.0</ele>
        <time>2019-12-21T08:17:40.344Z</time>
      </trkpt>
      <trkpt lat="41.32811167" lon="2.00989833">
        <ele>32.0</ele>
        <time>2019-12-21T08:17:41.349Z</time>
      </trkpt>
      <trkpt lat="41.32815" lon="2.00986">
        <ele>32.0</ele>
        <time>2019-12-21T08:17:42.349Z</time>
      </trkpt>
      <trkpt lat="41.32815" lon="2.00986">
        <ele>32.0</ele>
        <time>2019-12-21T08:17:43.343Z</time>
      </trkpt>
      <trkpt lat="41.32822667" lon="2.00977833">
        <ele>32.0</ele>
        <time>2019-12-21T08:17:44.366Z</time>
      </trkpt>
      <trkpt lat="41.32822667" lon="2.00977833">
        <ele>32.0</ele>
        <time>2019-12-21T08:17:45.347Z</time>
      </trkpt>
      <trkpt lat="41.328305" lon="2.00969667">
        <ele>31.0</ele>
        <time>2019-12-21T08:17:46.350Z</time>
      </trkpt>
      <trkpt lat="41.328305" lon="2.00969667">
        <ele>31.0</ele>
        <time>2019-12-21T08:17:47.349Z</time>
      </trkpt>
      <trkpt lat="41.32838667" lon="2.009615">
        <ele>31.0</ele>
        <time>2019-12-21T08:17:48.351Z</time>
      </trkpt>
      <trkpt lat="41.32838667" lon="2.009615">
        <ele>31.0</ele>
        <time>2019-12-21T08:17:49.344Z</time>
      </trkpt>
      <trkpt lat="41.32847167" lon="2.00953">
        <ele>31.0</ele>
        <time>2019-12-21T08:17:50.367Z</time>
      </trkpt>
      <trkpt lat="41.32851333" lon="2.00949333">
        <ele>31.0</ele>
        <time>2019-12-21T08:17:51.350Z</time>
      </trkpt>
      <trkpt lat="41.32851333" lon="2.00949333">
        <ele>31.0</ele>
        <time>2019-12-21T08:17:52.368Z</time>
      </trkpt>
      <trkpt lat="41.3286" lon="2.00942333">
        <ele>31.0</ele>
        <time>2019-12-21T08:17:53.349Z</time>
      </trkpt>
      <trkpt lat="41.3286" lon="2.00942333">
        <ele>31.0</ele>
        <time>2019-12-21T08:17:54.352Z</time>
      </trkpt>
      <trkpt lat="41.32869167" lon="2.00936">
        <ele>31.0</ele>
        <time>2019-12-21T08:17:55.347Z</time>
      </trkpt>
      <trkpt lat="41.32873667" lon="2.00933167">
        <ele>31.0</ele>
        <time>2019-12-21T08:17:56.359Z</time>
      </trkpt>
      <trkpt lat="41.32873667" lon="2.00933167">
        <ele>31.0</ele>
        <time>2019-12-21T08:17:57.344Z</time>
      </trkpt>
      <trkpt lat="41.32883" lon="2.00927667">
        <ele>32.0</ele>
        <time>2019-12-21T08:17:58.350Z</time>
      </trkpt>
      <trkpt lat="41.32888" lon="2.00925">
        <ele>32.0</ele>
        <time>2019-12-21T08:17:59.350Z</time>
      </trkpt>
      <trkpt lat="41.32888" lon="2.00925">
        <ele>32.0</ele>
        <time>2019-12-21T08:18:00.344Z</time>
      </trkpt>
      <trkpt lat="41.32897833" lon="2.00920167">
        <ele>32.0</ele>
        <time>2019-12-21T08:18:01.350Z</time>
      </trkpt>
      <trkpt lat="41.32902667" lon="2.009175">
        <ele>33.0</ele>
        <time>2019-12-21T08:18:02.351Z</time>
      </trkpt>
      <trkpt lat="41.32902667" lon="2.009175">
        <ele>33.0</ele>
        <time>2019-12-21T08:18:03.344Z</time>
      </trkpt>
      <trkpt lat="41.32911667" lon="2.009125">
        <ele>33.0</ele>
        <time>2019-12-21T08:18:04.347Z</time>
      </trkpt>
      <trkpt lat="41.32911667" lon="2.009125">
        <ele>33.0</ele>
        <time>2019-12-21T08:18:05.344Z</time>
      </trkpt>
      <trkpt lat="41.329205" lon="2.00907167">
        <ele>33.0</ele>
        <time>2019-12-21T08:18:06.349Z</time>
      </trkpt>
      <trkpt lat="41.329205" lon="2.00907167">
        <ele>33.0</ele>
        <time>2019-12-21T08:18:07.344Z</time>
      </trkpt>
      <trkpt lat="41.32929333" lon="2.009005">
        <ele>34.0</ele>
        <time>2019-12-21T08:18:08.366Z</time>
      </trkpt>
      <trkpt lat="41.32929333" lon="2.009005">
        <ele>34.0</ele>
        <time>2019-12-21T08:18:09.348Z</time>
      </trkpt>
      <trkpt lat="41.32938" lon="2.00893167">
        <ele>34.0</ele>
        <time>2019-12-21T08:18:10.345Z</time>
      </trkpt>
      <trkpt lat="41.32938" lon="2.00893167">
        <ele>34.0</ele>
        <time>2019-12-21T08:18:11.344Z</time>
      </trkpt>
      <trkpt lat="41.32947167" lon="2.00884833">
        <ele>33.0</ele>
        <time>2019-12-21T08:18:12.366Z</time>
      </trkpt>
      <trkpt lat="41.32947167" lon="2.00884833">
        <ele>33.0</ele>
        <time>2019-12-21T08:18:13.345Z</time>
      </trkpt>
      <trkpt lat="41.32955" lon="2.00876333">
        <ele>34.0</ele>
        <time>2019-12-21T08:18:14.351Z</time>
      </trkpt>
      <trkpt lat="41.32955" lon="2.00876333">
        <ele>34.0</ele>
        <time>2019-12-21T08:18:15.344Z</time>
      </trkpt>
      <trkpt lat="41.32962333" lon="2.00867333">
        <ele>34.0</ele>
        <time>2019-12-21T08:18:16.349Z</time>
      </trkpt>
      <trkpt lat="41.32962333" lon="2.00867333">
        <ele>34.0</ele>
        <time>2019-12-21T08:18:17.344Z</time>
      </trkpt>
      <trkpt lat="41.32969167" lon="2.00857833">
        <ele>34.0</ele>
        <time>2019-12-21T08:18:18.349Z</time>
      </trkpt>
      <trkpt lat="41.32969167" lon="2.00857833">
        <ele>34.0</ele>
        <time>2019-12-21T08:18:19.344Z</time>
      </trkpt>
      <trkpt lat="41.32976167" lon="2.00848167">
        <ele>35.0</ele>
        <time>2019-12-21T08:18:20.368Z</time>
      </trkpt>
      <trkpt lat="41.32976167" lon="2.00848167">
        <ele>35.0</ele>
        <time>2019-12-21T08:18:21.349Z</time>
      </trkpt>
      <trkpt lat="41.32982833" lon="2.008385">
        <ele>35.0</ele>
        <time>2019-12-21T08:18:22.349Z</time>
      </trkpt>
      <trkpt lat="41.32982833" lon="2.008385">
        <ele>35.0</ele>
        <time>2019-12-21T08:18:23.344Z</time>
      </trkpt>
      <trkpt lat="41.32989667" lon="2.00828833">
        <ele>35.0</ele>
        <time>2019-12-21T08:18:24.369Z</time>
      </trkpt>
      <trkpt lat="41.32989667" lon="2.00828833">
        <ele>35.0</ele>
        <time>2019-12-21T08:18:25.351Z</time>
      </trkpt>
      <trkpt lat="41.32996667" lon="2.00819167">
        <ele>35.0</ele>
        <time>2019-12-21T08:18:26.352Z</time>
      </trkpt>
      <trkpt lat="41.32996667" lon="2.00819167">
        <ele>35.0</ele>
        <time>2019-12-21T08:18:27.344Z</time>
      </trkpt>
      <trkpt lat="41.33003667" lon="2.00809">
        <ele>35.0</ele>
        <time>2019-12-21T08:18:28.349Z</time>
      </trkpt>
      <trkpt lat="41.33003667" lon="2.00809">
        <ele>35.0</ele>
        <time>2019-12-21T08:18:29.344Z</time>
      </trkpt>
      <trkpt lat="41.33010833" lon="2.00799333">
        <ele>35.0</ele>
        <time>2019-12-21T08:18:30.352Z</time>
      </trkpt>
      <trkpt lat="41.33010833" lon="2.00799333">
        <ele>35.0</ele>
        <time>2019-12-21T08:18:31.344Z</time>
      </trkpt>
      <trkpt lat="41.33017833" lon="2.00789667">
        <ele>35.0</ele>
        <time>2019-12-21T08:18:32.349Z</time>
      </trkpt>
      <trkpt lat="41.33017833" lon="2.00789667">
        <ele>35.0</ele>
        <time>2019-12-21T08:18:33.345Z</time>
      </trkpt>
      <trkpt lat="41.33024667" lon="2.00779833">
        <ele>35.0</ele>
        <time>2019-12-21T08:18:34.349Z</time>
      </trkpt>
      <trkpt lat="41.33024667" lon="2.00779833">
        <ele>35.0</ele>
        <time>2019-12-21T08:18:35.344Z</time>
      </trkpt>
      <trkpt lat="41.33032" lon="2.00769833">
        <ele>35.0</ele>
        <time>2019-12-21T08:18:36.349Z</time>
      </trkpt>
      <trkpt lat="41.33032" lon="2.00769833">
        <ele>35.0</ele>
        <time>2019-12-21T08:18:37.344Z</time>
      </trkpt>
      <trkpt lat="41.33039" lon="2.00760167">
        <ele>36.0</ele>
        <time>2019-12-21T08:18:38.367Z</time>
      </trkpt>
      <trkpt lat="41.33039" lon="2.00760167">
        <ele>36.0</ele>
        <time>2019-12-21T08:18:39.348Z</time>
      </trkpt>
      <trkpt lat="41.33046" lon="2.007505">
        <ele>36.0</ele>
        <time>2019-12-21T08:18:40.350Z</time>
      </trkpt>
      <trkpt lat="41.33046" lon="2.007505">
        <ele>36.0</ele>
        <time>2019-12-21T08:18:41.344Z</time>
      </trkpt>
      <trkpt lat="41.330525" lon="2.00740667">
        <ele>36.0</ele>
        <time>2019-12-21T08:18:42.349Z</time>
      </trkpt>
      <trkpt lat="41.330525" lon="2.00740667">
        <ele>36.0</ele>
        <time>2019-12-21T08:18:43.344Z</time>
      </trkpt>
      <trkpt lat="41.330585" lon="2.007305">
        <ele>36.0</ele>
        <time>2019-12-21T08:18:44.367Z</time>
      </trkpt>
      <trkpt lat="41.33061333" lon="2.00725">
        <ele>37.0</ele>
        <time>2019-12-21T08:18:45.351Z</time>
      </trkpt>
      <trkpt lat="41.33061333" lon="2.00725">
        <ele>37.0</ele>
        <time>2019-12-21T08:18:46.344Z</time>
      </trkpt>
      <trkpt lat="41.33065667" lon="2.007135">
        <ele>37.0</ele>
        <time>2019-12-21T08:18:47.360Z</time>
      </trkpt>
      <trkpt lat="41.33065667" lon="2.007135">
        <ele>37.0</ele>
        <time>2019-12-21T08:18:48.345Z</time>
      </trkpt>
      <trkpt lat="41.33068667" lon="2.00701167">
        <ele>37.0</ele>
        <time>2019-12-21T08:18:49.369Z</time>
      </trkpt>
      <trkpt lat="41.33069833" lon="2.00695">
        <ele>37.0</ele>
        <time>2019-12-21T08:18:50.352Z</time>
      </trkpt>
      <trkpt lat="41.33069833" lon="2.00695">
        <ele>37.0</ele>
        <time>2019-12-21T08:18:51.344Z</time>
      </trkpt>
      <trkpt lat="41.33072167" lon="2.00682333">
        <ele>37.0</ele>
        <time>2019-12-21T08:18:52.366Z</time>
      </trkpt>
      <trkpt lat="41.33073333" lon="2.00675833">
        <ele>37.0</ele>
        <time>2019-12-21T08:18:53.351Z</time>
      </trkpt>
      <trkpt lat="41.33073333" lon="2.00675833">
        <ele>37.0</ele>
        <time>2019-12-21T08:18:54.347Z</time>
      </trkpt>
      <trkpt lat="41.33075667" lon="2.00663167">
        <ele>38.0</ele>
        <time>2019-12-21T08:18:55.350Z</time>
      </trkpt>
      <trkpt lat="41.33076833" lon="2.00656833">
        <ele>38.0</ele>
        <time>2019-12-21T08:18:56.352Z</time>
      </trkpt>
      <trkpt lat="41.33076833" lon="2.00656833">
        <ele>38.0</ele>
        <time>2019-12-21T08:18:57.345Z</time>
      </trkpt>
      <trkpt lat="41.33079333" lon="2.00643833">
        <ele>38.0</ele>
        <time>2019-12-21T08:18:58.351Z</time>
      </trkpt>
      <trkpt lat="41.33079333" lon="2.00643833">
        <ele>38.0</ele>
        <time>2019-12-21T08:18:59.351Z</time>
      </trkpt>
      <trkpt lat="41.33081333" lon="2.00631">
        <ele>38.0</ele>
        <time>2019-12-21T08:19:00.355Z</time>
      </trkpt>
      <trkpt lat="41.33081333" lon="2.00631">
        <ele>38.0</ele>
        <time>2019-12-21T08:19:01.345Z</time>
      </trkpt>
      <trkpt lat="41.33083333" lon="2.00617833">
        <ele>39.0</ele>
        <time>2019-12-21T08:19:02.367Z</time>
      </trkpt>
      <trkpt lat="41.33083333" lon="2.00617833">
        <ele>39.0</ele>
        <time>2019-12-21T08:19:03.350Z</time>
      </trkpt>
      <trkpt lat="41.33084667" lon="2.00604667">
        <ele>39.0</ele>
        <time>2019-12-21T08:19:04.350Z</time>
      </trkpt>
      <trkpt lat="41.33084667" lon="2.00604667">
        <ele>39.0</ele>
        <time>2019-12-21T08:19:05.344Z</time>
      </trkpt>
      <trkpt lat="41.33085833" lon="2.00591833">
        <ele>40.0</ele>
        <time>2019-12-21T08:19:06.351Z</time>
      </trkpt>
      <trkpt lat="41.33085833" lon="2.00591833">
        <ele>40.0</ele>
        <time>2019-12-21T08:19:07.344Z</time>
      </trkpt>
      <trkpt lat="41.33086667" lon="2.00578667">
        <ele>40.0</ele>
        <time>2019-12-21T08:19:08.367Z</time>
      </trkpt>
      <trkpt lat="41.33086667" lon="2.00578667">
        <ele>40.0</ele>
        <time>2019-12-21T08:19:09.348Z</time>
      </trkpt>
      <trkpt lat="41.33087333" lon="2.00565333">
        <ele>41.0</ele>
        <time>2019-12-21T08:19:10.351Z</time>
      </trkpt>
      <trkpt lat="41.33087667" lon="2.00558667">
        <ele>41.0</ele>
        <time>2019-12-21T08:19:11.352Z</time>
      </trkpt>
      <trkpt lat="41.33087667" lon="2.00558667">
        <ele>41.0</ele>
        <time>2019-12-21T08:19:12.336Z</time>
      </trkpt>
      <trkpt lat="41.33088" lon="2.00545667">
        <ele>41.0</ele>
        <time>2019-12-21T08:19:13.352Z</time>
      </trkpt>
      <trkpt lat="41.330885" lon="2.00539167">
        <ele>42.0</ele>
        <time>2019-12-21T08:19:14.337Z</time>
      </trkpt>
      <trkpt lat="41.330885" lon="2.00539167">
        <ele>42.0</ele>
        <time>2019-12-21T08:19:15.371Z</time>
      </trkpt>
      <trkpt lat="41.330895" lon="2.00526167">
        <ele>42.0</ele>
        <time>2019-12-21T08:19:16.357Z</time>
      </trkpt>
      <trkpt lat="41.330895" lon="2.00526167">
        <ele>42.0</ele>
        <time>2019-12-21T08:19:17.345Z</time>
      </trkpt>
      <trkpt lat="41.33090167" lon="2.005135">
        <ele>43.0</ele>
        <time>2019-12-21T08:19:18.350Z</time>
      </trkpt>
      <trkpt lat="41.33090167" lon="2.005135">
        <ele>43.0</ele>
        <time>2019-12-21T08:19:19.346Z</time>
      </trkpt>
      <trkpt lat="41.33091333" lon="2.00500167">
        <ele>43.0</ele>
        <time>2019-12-21T08:19:20.352Z</time>
      </trkpt>
      <trkpt lat="41.33091333" lon="2.00500167">
        <ele>43.0</ele>
        <time>2019-12-21T08:19:21.345Z</time>
      </trkpt>
      <trkpt lat="41.33091667" lon="2.00487667">
        <ele>44.0</ele>
        <time>2019-12-21T08:19:22.365Z</time>
      </trkpt>
      <trkpt lat="41.33091667" lon="2.00487667">
        <ele>44.0</ele>
        <time>2019-12-21T08:19:23.345Z</time>
      </trkpt>
      <trkpt lat="41.33092" lon="2.00474">
        <ele>44.0</ele>
        <time>2019-12-21T08:19:24.352Z</time>
      </trkpt>
      <trkpt lat="41.33092" lon="2.00474">
        <ele>44.0</ele>
        <time>2019-12-21T08:19:25.345Z</time>
      </trkpt>
      <trkpt lat="41.33092333" lon="2.00461">
        <ele>44.0</ele>
        <time>2019-12-21T08:19:26.367Z</time>
      </trkpt>
      <trkpt lat="41.33092333" lon="2.00461">
        <ele>44.0</ele>
        <time>2019-12-21T08:19:27.350Z</time>
      </trkpt>
      <trkpt lat="41.33093" lon="2.00448">
        <ele>45.0</ele>
        <time>2019-12-21T08:19:28.350Z</time>
      </trkpt>
      <trkpt lat="41.33093" lon="2.00448">
        <ele>45.0</ele>
        <time>2019-12-21T08:19:29.345Z</time>
      </trkpt>
      <trkpt lat="41.330935" lon="2.00435167">
        <ele>45.0</ele>
        <time>2019-12-21T08:19:30.350Z</time>
      </trkpt>
      <trkpt lat="41.33093833" lon="2.00428667">
        <ele>45.0</ele>
        <time>2019-12-21T08:19:31.352Z</time>
      </trkpt>
      <trkpt lat="41.33093833" lon="2.00428667">
        <ele>45.0</ele>
        <time>2019-12-21T08:19:32.343Z</time>
      </trkpt>
      <trkpt lat="41.33094333" lon="2.00416">
        <ele>45.0</ele>
        <time>2019-12-21T08:19:33.367Z</time>
      </trkpt>
      <trkpt lat="41.33094333" lon="2.00409667">
        <ele>45.0</ele>
        <time>2019-12-21T08:19:34.349Z</time>
      </trkpt>
      <trkpt lat="41.33094333" lon="2.00409667">
        <ele>45.0</ele>
        <time>2019-12-21T08:19:35.344Z</time>
      </trkpt>
      <trkpt lat="41.33094833" lon="2.00397">
        <ele>45.0</ele>
        <time>2019-12-21T08:19:36.350Z</time>
      </trkpt>
      <trkpt lat="41.33094833" lon="2.00397">
        <ele>45.0</ele>
        <time>2019-12-21T08:19:37.344Z</time>
      </trkpt>
      <trkpt lat="41.33095" lon="2.00383833">
        <ele>45.0</ele>
        <time>2019-12-21T08:19:38.353Z</time>
      </trkpt>
      <trkpt lat="41.33095" lon="2.00383833">
        <ele>45.0</ele>
        <time>2019-12-21T08:19:39.344Z</time>
      </trkpt>
      <trkpt lat="41.33095167" lon="2.00371">
        <ele>46.0</ele>
        <time>2019-12-21T08:19:40.350Z</time>
      </trkpt>
      <trkpt lat="41.33095167" lon="2.00371">
        <ele>46.0</ele>
        <time>2019-12-21T08:19:41.345Z</time>
      </trkpt>
      <trkpt lat="41.33095333" lon="2.00358333">
        <ele>46.0</ele>
        <time>2019-12-21T08:19:42.352Z</time>
      </trkpt>
      <trkpt lat="41.33095333" lon="2.00358333">
        <ele>46.0</ele>
        <time>2019-12-21T08:19:43.344Z</time>
      </trkpt>
      <trkpt lat="41.33095167" lon="2.00345833">
        <ele>46.0</ele>
        <time>2019-12-21T08:19:44.368Z</time>
      </trkpt>
      <trkpt lat="41.33095167" lon="2.00345833">
        <ele>46.0</ele>
        <time>2019-12-21T08:19:45.349Z</time>
      </trkpt>
      <trkpt lat="41.33095167" lon="2.00333">
        <ele>47.0</ele>
        <time>2019-12-21T08:19:46.350Z</time>
      </trkpt>
      <trkpt lat="41.33095167" lon="2.00333">
        <ele>47.0</ele>
        <time>2019-12-21T08:19:47.351Z</time>
      </trkpt>
      <trkpt lat="41.33095667" lon="2.0032">
        <ele>47.0</ele>
        <time>2019-12-21T08:19:48.350Z</time>
      </trkpt>
      <trkpt lat="41.33095667" lon="2.0032">
        <ele>47.0</ele>
        <time>2019-12-21T08:19:49.348Z</time>
      </trkpt>
      <trkpt lat="41.33096167" lon="2.00306833">
        <ele>48.0</ele>
        <time>2019-12-21T08:19:50.365Z</time>
      </trkpt>
      <trkpt lat="41.33096167" lon="2.00306833">
        <ele>48.0</ele>
        <time>2019-12-21T08:19:51.347Z</time>
      </trkpt>
      <trkpt lat="41.33098333" lon="2.00294167">
        <ele>48.0</ele>
        <time>2019-12-21T08:19:52.359Z</time>
      </trkpt>
      <trkpt lat="41.33098333" lon="2.00294167">
        <ele>48.0</ele>
        <time>2019-12-21T08:19:53.345Z</time>
      </trkpt>
      <trkpt lat="41.33101333" lon="2.00281167">
        <ele>48.0</ele>
        <time>2019-12-21T08:19:54.351Z</time>
      </trkpt>
      <trkpt lat="41.33101333" lon="2.00281167">
        <ele>48.0</ele>
        <time>2019-12-21T08:19:55.344Z</time>
      </trkpt>
      <trkpt lat="41.331065" lon="2.00269833">
        <ele>49.0</ele>
        <time>2019-12-21T08:19:56.368Z</time>
      </trkpt>
      <trkpt lat="41.331065" lon="2.00269833">
        <ele>49.0</ele>
        <time>2019-12-21T08:19:57.349Z</time>
      </trkpt>
      <trkpt lat="41.33113667" lon="2.002605">
        <ele>49.0</ele>
        <time>2019-12-21T08:19:58.350Z</time>
      </trkpt>
      <trkpt lat="41.33113667" lon="2.002605">
        <ele>49.0</ele>
        <time>2019-12-21T08:19:59.345Z</time>
      </trkpt>
      <trkpt lat="41.33121333" lon="2.00252333">
        <ele>49.0</ele>
        <time>2019-12-21T08:20:00.362Z</time>
      </trkpt>
      <trkpt lat="41.33121333" lon="2.00252333">
        <ele>49.0</ele>
        <time>2019-12-21T08:20:01.344Z</time>
      </trkpt>
      <trkpt lat="41.33129" lon="2.00244167">
        <ele>50.0</ele>
        <time>2019-12-21T08:20:02.368Z</time>
      </trkpt>
      <trkpt lat="41.33129" lon="2.00244167">
        <ele>50.0</ele>
        <time>2019-12-21T08:20:03.350Z</time>
      </trkpt>
      <trkpt lat="41.33137" lon="2.00235833">
        <ele>51.0</ele>
        <time>2019-12-21T08:20:04.353Z</time>
      </trkpt>
      <trkpt lat="41.33137" lon="2.00235833">
        <ele>51.0</ele>
        <time>2019-12-21T08:20:05.344Z</time>
      </trkpt>
      <trkpt lat="41.33144" lon="2.00227667">
        <ele>52.0</ele>
        <time>2019-12-21T08:20:06.350Z</time>
      </trkpt>
      <trkpt lat="41.33144" lon="2.00227667">
        <ele>52.0</ele>
        <time>2019-12-21T08:20:07.345Z</time>
      </trkpt>
      <trkpt lat="41.33151667" lon="2.00221167">
        <ele>53.0</ele>
        <time>2019-12-21T08:20:08.367Z</time>
      </trkpt>
      <trkpt lat="41.33153667" lon="2.00216333">
        <ele>54.0</ele>
        <time>2019-12-21T08:20:09.352Z</time>
      </trkpt>
      <trkpt lat="41.33153667" lon="2.00216333">
        <ele>54.0</ele>
        <time>2019-12-21T08:20:10.345Z</time>
      </trkpt>
      <trkpt lat="41.33151" lon="2.00208833">
        <ele>54.0</ele>
        <time>2019-12-21T08:20:11.350Z</time>
      </trkpt>
      <trkpt lat="41.33151" lon="2.00208833">
        <ele>54.0</ele>
        <time>2019-12-21T08:20:12.365Z</time>
      </trkpt>
      <trkpt lat="41.33145" lon="2.00203167">
        <ele>55.0</ele>
        <time>2019-12-21T08:20:13.348Z</time>
      </trkpt>
      <trkpt lat="41.33142" lon="2.002">
        <ele>55.0</ele>
        <time>2019-12-21T08:20:14.371Z</time>
      </trkpt>
      <trkpt lat="41.33142" lon="2.002">
        <ele>55.0</ele>
        <time>2019-12-21T08:20:15.349Z</time>
      </trkpt>
      <trkpt lat="41.33136167" lon="2.00193667">
        <ele>56.0</ele>
        <time>2019-12-21T08:20:16.351Z</time>
      </trkpt>
      <trkpt lat="41.33136167" lon="2.00193667">
        <ele>56.0</ele>
        <time>2019-12-21T08:20:17.351Z</time>
      </trkpt>
      <trkpt lat="41.331335" lon="2.001835">
        <ele>56.0</ele>
        <time>2019-12-21T08:20:18.351Z</time>
      </trkpt>
      <trkpt lat="41.331335" lon="2.001835">
        <ele>56.0</ele>
        <time>2019-12-21T08:20:19.345Z</time>
      </trkpt>
      <trkpt lat="41.33130167" lon="2.001735">
        <ele>56.0</ele>
        <time>2019-12-21T08:20:20.352Z</time>
      </trkpt>
      <trkpt lat="41.33128" lon="2.00169167">
        <ele>56.0</ele>
        <time>2019-12-21T08:20:21.349Z</time>
      </trkpt>
      <trkpt lat="41.33128" lon="2.00169167">
        <ele>56.0</ele>
        <time>2019-12-21T08:20:22.345Z</time>
      </trkpt>
      <trkpt lat="41.331225" lon="2.00161667">
        <ele>56.0</ele>
        <time>2019-12-21T08:20:23.350Z</time>
      </trkpt>
      <trkpt lat="41.331225" lon="2.00161667">
        <ele>56.0</ele>
        <time>2019-12-21T08:20:24.345Z</time>
      </trkpt>
      <trkpt lat="41.33116667" lon="2.001545">
        <ele>56.0</ele>
        <time>2019-12-21T08:20:25.350Z</time>
      </trkpt>
      <trkpt lat="41.33113" lon="2.00151167">
        <ele>56.0</ele>
        <time>2019-12-21T08:20:26.352Z</time>
      </trkpt>
      <trkpt lat="41.33113" lon="2.00151167">
        <ele>56.0</ele>
        <time>2019-12-21T08:20:27.345Z</time>
      </trkpt>
      <trkpt lat="41.33105333" lon="2.00143333">
        <ele>56.0</ele>
        <time>2019-12-21T08:20:28.348Z</time>
      </trkpt>
      <trkpt lat="41.33105333" lon="2.00143333">
        <ele>56.0</ele>
        <time>2019-12-21T08:20:29.345Z</time>
      </trkpt>
      <trkpt lat="41.330965" lon="2.00135167">
        <ele>55.0</ele>
        <time>2019-12-21T08:20:30.370Z</time>
      </trkpt>
      <trkpt lat="41.330965" lon="2.00135167">
        <ele>55.0</ele>
        <time>2019-12-21T08:20:31.351Z</time>
      </trkpt>
      <trkpt lat="41.33086833" lon="2.00128">
        <ele>55.0</ele>
        <time>2019-12-21T08:20:32.372Z</time>
      </trkpt>
      <trkpt lat="41.33086833" lon="2.00128">
        <ele>55.0</ele>
        <time>2019-12-21T08:20:33.349Z</time>
      </trkpt>
      <trkpt lat="41.330775" lon="2.00121">
        <ele>54.0</ele>
        <time>2019-12-21T08:20:34.351Z</time>
      </trkpt>
      <trkpt lat="41.330775" lon="2.00121">
        <ele>54.0</ele>
        <time>2019-12-21T08:20:35.345Z</time>
      </trkpt>
      <trkpt lat="41.33070333" lon="2.001105">
        <ele>54.0</ele>
        <time>2019-12-21T08:20:36.350Z</time>
      </trkpt>
      <trkpt lat="41.33070333" lon="2.001105">
        <ele>54.0</ele>
        <time>2019-12-21T08:20:37.345Z</time>
      </trkpt>
      <trkpt lat="41.330665" lon="2.00098667">
        <ele>54.0</ele>
        <time>2019-12-21T08:20:38.368Z</time>
      </trkpt>
      <trkpt lat="41.330665" lon="2.00098667">
        <ele>54.0</ele>
        <time>2019-12-21T08:20:39.349Z</time>
      </trkpt>
      <trkpt lat="41.33063" lon="2.00086333">
        <ele>53.0</ele>
        <time>2019-12-21T08:20:40.342Z</time>
      </trkpt>
      <trkpt lat="41.330615" lon="2.00080333">
        <ele>53.0</ele>
        <time>2019-12-21T08:20:41.365Z</time>
      </trkpt>
      <trkpt lat="41.330615" lon="2.00080333">
        <ele>53.0</ele>
        <time>2019-12-21T08:20:42.347Z</time>
      </trkpt>
      <trkpt lat="41.33058167" lon="2.00069167">
        <ele>52.0</ele>
        <time>2019-12-21T08:20:43.351Z</time>
      </trkpt>
      <trkpt lat="41.330565" lon="2.00064333">
        <ele>52.0</ele>
        <time>2019-12-21T08:20:44.353Z</time>
      </trkpt>
      <trkpt lat="41.330565" lon="2.00064333">
        <ele>52.0</ele>
        <time>2019-12-21T08:20:45.345Z</time>
      </trkpt>
      <trkpt lat="41.330525" lon="2.00056333">
        <ele>52.0</ele>
        <time>2019-12-21T08:20:46.351Z</time>
      </trkpt>
      <trkpt lat="41.330525" lon="2.00056333">
        <ele>52.0</ele>
        <time>2019-12-21T08:20:47.345Z</time>
      </trkpt>
      <trkpt lat="41.33049333" lon="2.000485">
        <ele>52.0</ele>
        <time>2019-12-21T08:20:48.360Z</time>
      </trkpt>
      <trkpt lat="41.33049333" lon="2.000485">
        <ele>52.0</ele>
        <time>2019-12-21T08:20:49.345Z</time>
      </trkpt>
      <trkpt lat="41.33045667" lon="2.00040667">
        <ele>51.0</ele>
        <time>2019-12-21T08:20:50.372Z</time>
      </trkpt>
      <trkpt lat="41.33045667" lon="2.00040667">
        <ele>51.0</ele>
        <time>2019-12-21T08:20:51.369Z</time>
      </trkpt>
      <trkpt lat="41.33041333" lon="2.00032333">
        <ele>51.0</ele>
        <time>2019-12-21T08:20:52.371Z</time>
      </trkpt>
      <trkpt lat="41.33041333" lon="2.00032333">
        <ele>51.0</ele>
        <time>2019-12-21T08:20:53.348Z</time>
      </trkpt>
      <trkpt lat="41.33035667" lon="2.00025167">
        <ele>51.0</ele>
        <time>2019-12-21T08:20:54.347Z</time>
      </trkpt>
      <trkpt lat="41.33035667" lon="2.00025167">
        <ele>51.0</ele>
        <time>2019-12-21T08:20:55.356Z</time>
      </trkpt>
      <trkpt lat="41.33029" lon="2.00019333">
        <ele>51.0</ele>
        <time>2019-12-21T08:20:56.353Z</time>
      </trkpt>
      <trkpt lat="41.33029" lon="2.00019333">
        <ele>51.0</ele>
        <time>2019-12-21T08:20:57.346Z</time>
      </trkpt>
      <trkpt lat="41.33022833" lon="2.00014167">
        <ele>51.0</ele>
        <time>2019-12-21T08:20:58.352Z</time>
      </trkpt>
      <trkpt lat="41.33022833" lon="2.00014167">
        <ele>51.0</ele>
        <time>2019-12-21T08:20:59.346Z</time>
      </trkpt>
      <trkpt lat="41.330165" lon="2.00010333">
        <ele>51.0</ele>
        <time>2019-12-21T08:21:00.351Z</time>
      </trkpt>
      <trkpt lat="41.330165" lon="2.00010333">
        <ele>51.0</ele>
        <time>2019-12-21T08:21:01.345Z</time>
      </trkpt>
      <trkpt lat="41.3301" lon="2.00008">
        <ele>52.0</ele>
        <time>2019-12-21T08:21:02.367Z</time>
      </trkpt>
      <trkpt lat="41.3301" lon="2.00008">
        <ele>52.0</ele>
        <time>2019-12-21T08:21:03.345Z</time>
      </trkpt>
      <trkpt lat="41.330035" lon="2.00005167">
        <ele>52.0</ele>
        <time>2019-12-21T08:21:04.371Z</time>
      </trkpt>
      <trkpt lat="41.330035" lon="2.00005167">
        <ele>52.0</ele>
        <time>2019-12-21T08:21:05.353Z</time>
      </trkpt>
      <trkpt lat="41.32997" lon="2.00002">
        <ele>53.0</ele>
        <time>2019-12-21T08:21:06.355Z</time>
      </trkpt>
      <trkpt lat="41.32992667" lon="1.99999833">
        <ele>53.0</ele>
        <time>2019-12-21T08:21:07.351Z</time>
      </trkpt>
      <trkpt lat="41.32992667" lon="1.99999833">
        <ele>53.0</ele>
        <time>2019-12-21T08:21:08.347Z</time>
      </trkpt>
      <trkpt lat="41.32986" lon="1.99995833">
        <ele>53.0</ele>
        <time>2019-12-21T08:21:09.370Z</time>
      </trkpt>
      <trkpt lat="41.32986" lon="1.99995833">
        <ele>53.0</ele>
        <time>2019-12-21T08:21:10.359Z</time>
      </trkpt>
      <trkpt lat="41.329795" lon="1.99992">
        <ele>54.0</ele>
        <time>2019-12-21T08:21:11.351Z</time>
      </trkpt>
      <trkpt lat="41.329795" lon="1.99992">
        <ele>54.0</ele>
        <time>2019-12-21T08:21:12.345Z</time>
      </trkpt>
      <trkpt lat="41.32972167" lon="1.99989">
        <ele>55.0</ele>
        <time>2019-12-21T08:21:13.351Z</time>
      </trkpt>
      <trkpt lat="41.32969" lon="1.99987">
        <ele>55.0</ele>
        <time>2019-12-21T08:21:14.352Z</time>
      </trkpt>
      <trkpt lat="41.32969" lon="1.99987">
        <ele>55.0</ele>
        <time>2019-12-21T08:21:15.345Z</time>
      </trkpt>
      <trkpt lat="41.329625" lon="1.99982333">
        <ele>55.0</ele>
        <time>2019-12-21T08:21:16.351Z</time>
      </trkpt>
      <trkpt lat="41.329625" lon="1.99982333">
        <ele>55.0</ele>
        <time>2019-12-21T08:21:17.344Z</time>
      </trkpt>
      <trkpt lat="41.32958" lon="1.99975167">
        <ele>55.0</ele>
        <time>2019-12-21T08:21:18.352Z</time>
      </trkpt>
      <trkpt lat="41.32958" lon="1.99975167">
        <ele>55.0</ele>
        <time>2019-12-21T08:21:19.345Z</time>
      </trkpt>
      <trkpt lat="41.32954833" lon="1.99966333">
        <ele>55.0</ele>
        <time>2019-12-21T08:21:20.367Z</time>
      </trkpt>
      <trkpt lat="41.32954833" lon="1.99966333">
        <ele>55.0</ele>
        <time>2019-12-21T08:21:21.348Z</time>
      </trkpt>
      <trkpt lat="41.32952" lon="1.99956667">
        <ele>55.0</ele>
        <time>2019-12-21T08:21:22.348Z</time>
      </trkpt>
      <trkpt lat="41.32952" lon="1.99956667">
        <ele>55.0</ele>
        <time>2019-12-21T08:21:23.345Z</time>
      </trkpt>
      <trkpt lat="41.32949667" lon="1.99947">
        <ele>55.0</ele>
        <time>2019-12-21T08:21:24.367Z</time>
      </trkpt>
      <trkpt lat="41.32948667" lon="1.99942167">
        <ele>55.0</ele>
        <time>2019-12-21T08:21:25.351Z</time>
      </trkpt>
      <trkpt lat="41.32948667" lon="1.99942167">
        <ele>55.0</ele>
        <time>2019-12-21T08:21:26.347Z</time>
      </trkpt>
      <trkpt lat="41.32948333" lon="1.99932667">
        <ele>56.0</ele>
        <time>2019-12-21T08:21:27.351Z</time>
      </trkpt>
      <trkpt lat="41.32948333" lon="1.99932667">
        <ele>56.0</ele>
        <time>2019-12-21T08:21:28.345Z</time>
      </trkpt>
      <trkpt lat="41.329505" lon="1.99923833">
        <ele>56.0</ele>
        <time>2019-12-21T08:21:29.371Z</time>
      </trkpt>
      <trkpt lat="41.329505" lon="1.99923833">
        <ele>56.0</ele>
        <time>2019-12-21T08:21:30.353Z</time>
      </trkpt>
      <trkpt lat="41.32953833" lon="1.999165">
        <ele>57.0</ele>
        <time>2019-12-21T08:21:31.351Z</time>
      </trkpt>
      <trkpt lat="41.32955833" lon="1.99912833">
        <ele>57.0</ele>
        <time>2019-12-21T08:21:32.363Z</time>
      </trkpt>
      <trkpt lat="41.32955833" lon="1.99912833">
        <ele>57.0</ele>
        <time>2019-12-21T08:21:33.346Z</time>
      </trkpt>
      <trkpt lat="41.3296" lon="1.999055">
        <ele>57.0</ele>
        <time>2019-12-21T08:21:34.371Z</time>
      </trkpt>
      <trkpt lat="41.3296" lon="1.999055">
        <ele>57.0</ele>
        <time>2019-12-21T08:21:35.353Z</time>
      </trkpt>
      <trkpt lat="41.32963833" lon="1.99897333">
        <ele>58.0</ele>
        <time>2019-12-21T08:21:36.351Z</time>
      </trkpt>
      <trkpt lat="41.32963833" lon="1.99897333">
        <ele>58.0</ele>
        <time>2019-12-21T08:21:37.346Z</time>
      </trkpt>
      <trkpt lat="41.32966333" lon="1.99888667">
        <ele>59.0</ele>
        <time>2019-12-21T08:21:38.368Z</time>
      </trkpt>
      <trkpt lat="41.329675" lon="1.998835">
        <ele>59.0</ele>
        <time>2019-12-21T08:21:39.352Z</time>
      </trkpt>
      <trkpt lat="41.329675" lon="1.998835">
        <ele>59.0</ele>
        <time>2019-12-21T08:21:40.346Z</time>
      </trkpt>
      <trkpt lat="41.32968667" lon="1.99873667">
        <ele>60.0</ele>
        <time>2019-12-21T08:21:41.350Z</time>
      </trkpt>
      <trkpt lat="41.32968667" lon="1.99873667">
        <ele>60.0</ele>
        <time>2019-12-21T08:21:42.346Z</time>
      </trkpt>
      <trkpt lat="41.32969667" lon="1.99863333">
        <ele>61.0</ele>
        <time>2019-12-21T08:21:43.350Z</time>
      </trkpt>
      <trkpt lat="41.32969667" lon="1.998585">
        <ele>61.0</ele>
        <time>2019-12-21T08:21:44.353Z</time>
      </trkpt>
      <trkpt lat="41.32969667" lon="1.998585">
        <ele>61.0</ele>
        <time>2019-12-21T08:21:45.345Z</time>
      </trkpt>
      <trkpt lat="41.32971" lon="1.99851667">
        <ele>62.0</ele>
        <time>2019-12-21T08:21:46.351Z</time>
      </trkpt>
      <trkpt lat="41.32971" lon="1.99851667">
        <ele>62.0</ele>
        <time>2019-12-21T08:21:47.345Z</time>
      </trkpt>
      <trkpt lat="41.32973333" lon="1.99846167">
        <ele>63.0</ele>
        <time>2019-12-21T08:21:48.350Z</time>
      </trkpt>
      <trkpt lat="41.32973333" lon="1.99846167">
        <ele>63.0</ele>
        <time>2019-12-21T08:21:49.345Z</time>
      </trkpt>
      <trkpt lat="41.32976167" lon="1.99840333">
        <ele>63.0</ele>
        <time>2019-12-21T08:21:50.367Z</time>
      </trkpt>
      <trkpt lat="41.32976167" lon="1.99840333">
        <ele>63.0</ele>
        <time>2019-12-21T08:21:51.345Z</time>
      </trkpt>
      <trkpt lat="41.32981" lon="1.99835">
        <ele>63.0</ele>
        <time>2019-12-21T08:21:52.367Z</time>
      </trkpt>
      <trkpt lat="41.32981" lon="1.99835">
        <ele>63.0</ele>
        <time>2019-12-21T08:21:53.349Z</time>
      </trkpt>
      <trkpt lat="41.32986667" lon="1.99829667">
        <ele>63.0</ele>
        <time>2019-12-21T08:21:54.351Z</time>
      </trkpt>
      <trkpt lat="41.32986667" lon="1.99829667">
        <ele>63.0</ele>
        <time>2019-12-21T08:21:55.346Z</time>
      </trkpt>
      <trkpt lat="41.32992833" lon="1.998255">
        <ele>63.0</ele>
        <time>2019-12-21T08:21:56.369Z</time>
      </trkpt>
      <trkpt lat="41.32992833" lon="1.998255">
        <ele>63.0</ele>
        <time>2019-12-21T08:21:57.352Z</time>
      </trkpt>
      <trkpt lat="41.32999167" lon="1.99821">
        <ele>63.0</ele>
        <time>2019-12-21T08:21:58.347Z</time>
      </trkpt>
      <trkpt lat="41.33003" lon="1.99816833">
        <ele>62.0</ele>
        <time>2019-12-21T08:21:59.371Z</time>
      </trkpt>
      <trkpt lat="41.33003" lon="1.99816833">
        <ele>62.0</ele>
        <time>2019-12-21T08:22:00.354Z</time>
      </trkpt>
      <trkpt lat="41.33009333" lon="1.99806667">
        <ele>62.0</ele>
        <time>2019-12-21T08:22:01.352Z</time>
      </trkpt>
      <trkpt lat="41.330115" lon="1.99801667">
        <ele>62.0</ele>
        <time>2019-12-21T08:22:02.365Z</time>
      </trkpt>
      <trkpt lat="41.330115" lon="1.99801667">
        <ele>62.0</ele>
        <time>2019-12-21T08:22:03.346Z</time>
      </trkpt>
      <trkpt lat="41.33014167" lon="1.99791">
        <ele>62.0</ele>
        <time>2019-12-21T08:22:04.351Z</time>
      </trkpt>
      <trkpt lat="41.33015167" lon="1.99785333">
        <ele>62.0</ele>
        <time>2019-12-21T08:22:05.352Z</time>
      </trkpt>
      <trkpt lat="41.33015167" lon="1.99785333">
        <ele>62.0</ele>
        <time>2019-12-21T08:22:06.346Z</time>
      </trkpt>
      <trkpt lat="41.33015167" lon="1.99773833">
        <ele>62.0</ele>
        <time>2019-12-21T08:22:07.357Z</time>
      </trkpt>
      <trkpt lat="41.33014833" lon="1.99768333">
        <ele>62.0</ele>
        <time>2019-12-21T08:22:08.354Z</time>
      </trkpt>
      <trkpt lat="41.33014833" lon="1.99768333">
        <ele>62.0</ele>
        <time>2019-12-21T08:22:09.346Z</time>
      </trkpt>
      <trkpt lat="41.33014167" lon="1.997585">
        <ele>61.0</ele>
        <time>2019-12-21T08:22:10.351Z</time>
      </trkpt>
      <trkpt lat="41.33014167" lon="1.997585">
        <ele>61.0</ele>
        <time>2019-12-21T08:22:11.355Z</time>
      </trkpt>
      <trkpt lat="41.33012" lon="1.99749">
        <ele>61.0</ele>
        <time>2019-12-21T08:22:12.350Z</time>
      </trkpt>
      <trkpt lat="41.33012" lon="1.99749">
        <ele>61.0</ele>
        <time>2019-12-21T08:22:13.346Z</time>
      </trkpt>
      <trkpt lat="41.33009667" lon="1.997395">
        <ele>61.0</ele>
        <time>2019-12-21T08:22:14.369Z</time>
      </trkpt>
      <trkpt lat="41.33009667" lon="1.997395">
        <ele>61.0</ele>
        <time>2019-12-21T08:22:15.351Z</time>
      </trkpt>
      <trkpt lat="41.33007167" lon="1.997295">
        <ele>60.0</ele>
        <time>2019-12-21T08:22:16.351Z</time>
      </trkpt>
      <trkpt lat="41.33007167" lon="1.997295">
        <ele>60.0</ele>
        <time>2019-12-21T08:22:17.346Z</time>
      </trkpt>
      <trkpt lat="41.330045" lon="1.99720667">
        <ele>60.0</ele>
        <time>2019-12-21T08:22:18.352Z</time>
      </trkpt>
      <trkpt lat="41.330045" lon="1.99720667">
        <ele>60.0</ele>
        <time>2019-12-21T08:22:19.346Z</time>
      </trkpt>
      <trkpt lat="41.33002167" lon="1.99711833">
        <ele>61.0</ele>
        <time>2019-12-21T08:22:20.368Z</time>
      </trkpt>
      <trkpt lat="41.33002167" lon="1.99711833">
        <ele>61.0</ele>
        <time>2019-12-21T08:22:21.349Z</time>
      </trkpt>
      <trkpt lat="41.32998333" lon="1.99703333">
        <ele>61.0</ele>
        <time>2019-12-21T08:22:22.351Z</time>
      </trkpt>
      <trkpt lat="41.32998333" lon="1.99703333">
        <ele>61.0</ele>
        <time>2019-12-21T08:22:23.346Z</time>
      </trkpt>
      <trkpt lat="41.329945" lon="1.99695833">
        <ele>61.0</ele>
        <time>2019-12-21T08:22:24.368Z</time>
      </trkpt>
      <trkpt lat="41.329925" lon="1.99692333">
        <ele>61.0</ele>
        <time>2019-12-21T08:22:25.351Z</time>
      </trkpt>
      <trkpt lat="41.32990167" lon="1.99688833">
        <ele>61.0</ele>
        <time>2019-12-21T08:22:26.353Z</time>
      </trkpt>
      <trkpt lat="41.32990167" lon="1.99688833">
        <ele>61.0</ele>
        <time>2019-12-21T08:22:27.346Z</time>
      </trkpt>
      <trkpt lat="41.329865" lon="1.99681">
        <ele>61.0</ele>
        <time>2019-12-21T08:22:28.351Z</time>
      </trkpt>
      <trkpt lat="41.329865" lon="1.99681">
        <ele>61.0</ele>
        <time>2019-12-21T08:22:29.356Z</time>
      </trkpt>
      <trkpt lat="41.32982167" lon="1.99673667">
        <ele>61.0</ele>
        <time>2019-12-21T08:22:30.352Z</time>
      </trkpt>
      <trkpt lat="41.32982167" lon="1.99673667">
        <ele>61.0</ele>
        <time>2019-12-21T08:22:31.341Z</time>
      </trkpt>
      <trkpt lat="41.32977833" lon="1.99667167">
        <ele>61.0</ele>
        <time>2019-12-21T08:22:32.367Z</time>
      </trkpt>
      <trkpt lat="41.32977833" lon="1.99667167">
        <ele>61.0</ele>
        <time>2019-12-21T08:22:33.350Z</time>
      </trkpt>
      <trkpt lat="41.32972" lon="1.99662167">
        <ele>62.0</ele>
        <time>2019-12-21T08:22:34.352Z</time>
      </trkpt>
      <trkpt lat="41.32972" lon="1.99662167">
        <ele>62.0</ele>
        <time>2019-12-21T08:22:35.346Z</time>
      </trkpt>
      <trkpt lat="41.32968833" lon="1.99655">
        <ele>63.0</ele>
        <time>2019-12-21T08:22:36.351Z</time>
      </trkpt>
      <trkpt lat="41.32968833" lon="1.99655">
        <ele>63.0</ele>
        <time>2019-12-21T08:22:37.346Z</time>
      </trkpt>
      <trkpt lat="41.32963167" lon="1.99649333">
        <ele>64.0</ele>
        <time>2019-12-21T08:22:38.369Z</time>
      </trkpt>
      <trkpt lat="41.32963167" lon="1.99649333">
        <ele>64.0</ele>
        <time>2019-12-21T08:22:39.351Z</time>
      </trkpt>
      <trkpt lat="41.32958333" lon="1.99642833">
        <ele>64.0</ele>
        <time>2019-12-21T08:22:40.351Z</time>
      </trkpt>
      <trkpt lat="41.32958333" lon="1.99642833">
        <ele>64.0</ele>
        <time>2019-12-21T08:22:41.346Z</time>
      </trkpt>
      <trkpt lat="41.32953833" lon="1.99637167">
        <ele>65.0</ele>
        <time>2019-12-21T08:22:42.351Z</time>
      </trkpt>
      <trkpt lat="41.32953833" lon="1.99637167">
        <ele>65.0</ele>
        <time>2019-12-21T08:22:43.346Z</time>
      </trkpt>
      <trkpt lat="41.32950167" lon="1.99632">
        <ele>66.0</ele>
        <time>2019-12-21T08:22:44.369Z</time>
      </trkpt>
      <trkpt lat="41.32950167" lon="1.99632">
        <ele>66.0</ele>
        <time>2019-12-21T08:22:45.350Z</time>
      </trkpt>
      <trkpt lat="41.32947" lon="1.99627333">
        <ele>66.0</ele>
        <time>2019-12-21T08:22:46.351Z</time>
      </trkpt>
      <trkpt lat="41.32947" lon="1.99627333">
        <ele>66.0</ele>
        <time>2019-12-21T08:22:47.346Z</time>
      </trkpt>
      <trkpt lat="41.32942333" lon="1.99621667">
        <ele>67.0</ele>
        <time>2019-12-21T08:22:48.351Z</time>
      </trkpt>
      <trkpt lat="41.32942333" lon="1.99621667">
        <ele>67.0</ele>
        <time>2019-12-21T08:22:49.338Z</time>
      </trkpt>
      <trkpt lat="41.32935667" lon="1.99617167">
        <ele>68.0</ele>
        <time>2019-12-21T08:22:50.361Z</time>
      </trkpt>
      <trkpt lat="41.32935667" lon="1.99617167">
        <ele>68.0</ele>
        <time>2019-12-21T08:22:51.346Z</time>
      </trkpt>
      <trkpt lat="41.32930167" lon="1.99614">
        <ele>69.0</ele>
        <time>2019-12-21T08:22:52.351Z</time>
      </trkpt>
      <trkpt lat="41.32930167" lon="1.99614">
        <ele>69.0</ele>
        <time>2019-12-21T08:22:53.346Z</time>
      </trkpt>
      <trkpt lat="41.329245" lon="1.996105">
        <ele>70.0</ele>
        <time>2019-12-21T08:22:54.371Z</time>
      </trkpt>
      <trkpt lat="41.32922" lon="1.99608167">
        <ele>71.0</ele>
        <time>2019-12-21T08:22:55.361Z</time>
      </trkpt>
      <trkpt lat="41.32919667" lon="1.99605333">
        <ele>71.0</ele>
        <time>2019-12-21T08:22:56.354Z</time>
      </trkpt>
      <trkpt lat="41.32919667" lon="1.99605333">
        <ele>71.0</ele>
        <time>2019-12-21T08:22:57.347Z</time>
      </trkpt>
      <trkpt lat="41.32915333" lon="1.99599167">
        <ele>72.0</ele>
        <time>2019-12-21T08:22:58.353Z</time>
      </trkpt>
      <trkpt lat="41.32915333" lon="1.99599167">
        <ele>72.0</ele>
        <time>2019-12-21T08:22:59.347Z</time>
      </trkpt>
      <trkpt lat="41.32910167" lon="1.99592">
        <ele>72.0</ele>
        <time>2019-12-21T08:23:00.351Z</time>
      </trkpt>
      <trkpt lat="41.32910167" lon="1.99592">
        <ele>72.0</ele>
        <time>2019-12-21T08:23:01.347Z</time>
      </trkpt>
      <trkpt lat="41.32905" lon="1.99584667">
        <ele>72.0</ele>
        <time>2019-12-21T08:23:02.361Z</time>
      </trkpt>
      <trkpt lat="41.32905" lon="1.99584667">
        <ele>72.0</ele>
        <time>2019-12-21T08:23:03.347Z</time>
      </trkpt>
      <trkpt lat="41.32900833" lon="1.99576667">
        <ele>73.0</ele>
        <time>2019-12-21T08:23:04.352Z</time>
      </trkpt>
      <trkpt lat="41.32900833" lon="1.99576667">
        <ele>73.0</ele>
        <time>2019-12-21T08:23:05.346Z</time>
      </trkpt>
      <trkpt lat="41.32897167" lon="1.99567667">
        <ele>73.0</ele>
        <time>2019-12-21T08:23:06.351Z</time>
      </trkpt>
      <trkpt lat="41.32897167" lon="1.99567667">
        <ele>73.0</ele>
        <time>2019-12-21T08:23:07.346Z</time>
      </trkpt>
      <trkpt lat="41.32894833" lon="1.99558333">
        <ele>73.0</ele>
        <time>2019-12-21T08:23:08.369Z</time>
      </trkpt>
      <trkpt lat="41.32894833" lon="1.99558333">
        <ele>73.0</ele>
        <time>2019-12-21T08:23:09.351Z</time>
      </trkpt>
      <trkpt lat="41.32895167" lon="1.995495">
        <ele>73.0</ele>
        <time>2019-12-21T08:23:10.350Z</time>
      </trkpt>
      <trkpt lat="41.32895167" lon="1.995495">
        <ele>73.0</ele>
        <time>2019-12-21T08:23:11.347Z</time>
      </trkpt>
      <trkpt lat="41.32896167" lon="1.99537833">
        <ele>72.0</ele>
        <time>2019-12-21T08:23:12.367Z</time>
      </trkpt>
      <trkpt lat="41.32896167" lon="1.99537833">
        <ele>72.0</ele>
        <time>2019-12-21T08:23:13.346Z</time>
      </trkpt>
      <trkpt lat="41.32901167" lon="1.99526667">
        <ele>71.0</ele>
        <time>2019-12-21T08:23:14.354Z</time>
      </trkpt>
      <trkpt lat="41.32901167" lon="1.99526667">
        <ele>71.0</ele>
        <time>2019-12-21T08:23:15.346Z</time>
      </trkpt>
      <trkpt lat="41.32909833" lon="1.995175">
        <ele>71.0</ele>
        <time>2019-12-21T08:23:16.349Z</time>
      </trkpt>
      <trkpt lat="41.32909833" lon="1.995175">
        <ele>71.0</ele>
        <time>2019-12-21T08:23:17.347Z</time>
      </trkpt>
      <trkpt lat="41.32921167" lon="1.99511333">
        <ele>70.0</ele>
        <time>2019-12-21T08:23:18.351Z</time>
      </trkpt>
      <trkpt lat="41.32921167" lon="1.99511333">
        <ele>70.0</ele>
        <time>2019-12-21T08:23:19.348Z</time>
      </trkpt>
      <trkpt lat="41.32933167" lon="1.99506333">
        <ele>69.0</ele>
        <time>2019-12-21T08:23:20.353Z</time>
      </trkpt>
      <trkpt lat="41.32933167" lon="1.99506333">
        <ele>69.0</ele>
        <time>2019-12-21T08:23:21.347Z</time>
      </trkpt>
      <trkpt lat="41.32943833" lon="1.99497">
        <ele>69.0</ele>
        <time>2019-12-21T08:23:22.352Z</time>
      </trkpt>
      <trkpt lat="41.32943833" lon="1.99497">
        <ele>69.0</ele>
        <time>2019-12-21T08:23:23.346Z</time>
      </trkpt>
      <trkpt lat="41.32951667" lon="1.99486">
        <ele>69.0</ele>
        <time>2019-12-21T08:23:24.351Z</time>
      </trkpt>
      <trkpt lat="41.32951667" lon="1.99486">
        <ele>69.0</ele>
        <time>2019-12-21T08:23:25.346Z</time>
      </trkpt>
      <trkpt lat="41.32955167" lon="1.99477">
        <ele>68.0</ele>
        <time>2019-12-21T08:23:26.368Z</time>
      </trkpt>
      <trkpt lat="41.32955167" lon="1.99477">
        <ele>68.0</ele>
        <time>2019-12-21T08:23:27.347Z</time>
      </trkpt>
      <trkpt lat="41.32956167" lon="1.99469">
        <ele>68.0</ele>
        <time>2019-12-21T08:23:28.353Z</time>
      </trkpt>
      <trkpt lat="41.32956167" lon="1.99469">
        <ele>68.0</ele>
        <time>2019-12-21T08:23:29.347Z</time>
      </trkpt>
      <trkpt lat="41.32955167" lon="1.99460833">
        <ele>68.0</ele>
        <time>2019-12-21T08:23:30.352Z</time>
      </trkpt>
      <trkpt lat="41.32955167" lon="1.99460833">
        <ele>68.0</ele>
        <time>2019-12-21T08:23:31.347Z</time>
      </trkpt>
      <trkpt lat="41.329515" lon="1.99451333">
        <ele>68.0</ele>
        <time>2019-12-21T08:23:32.352Z</time>
      </trkpt>
      <trkpt lat="41.329515" lon="1.99451333">
        <ele>68.0</ele>
        <time>2019-12-21T08:23:33.346Z</time>
      </trkpt>
      <trkpt lat="41.329465" lon="1.99442667">
        <ele>69.0</ele>
        <time>2019-12-21T08:23:34.350Z</time>
      </trkpt>
      <trkpt lat="41.329465" lon="1.99442667">
        <ele>69.0</ele>
        <time>2019-12-21T08:23:35.347Z</time>
      </trkpt>
      <trkpt lat="41.32941333" lon="1.99434667">
        <ele>69.0</ele>
        <time>2019-12-21T08:23:36.352Z</time>
      </trkpt>
      <trkpt lat="41.32938333" lon="1.99430833">
        <ele>70.0</ele>
        <time>2019-12-21T08:23:37.352Z</time>
      </trkpt>
      <trkpt lat="41.32938333" lon="1.99430833">
        <ele>70.0</ele>
        <time>2019-12-21T08:23:38.348Z</time>
      </trkpt>
      <trkpt lat="41.32932" lon="1.99423667">
        <ele>70.0</ele>
        <time>2019-12-21T08:23:39.351Z</time>
      </trkpt>
      <trkpt lat="41.32932" lon="1.99423667">
        <ele>70.0</ele>
        <time>2019-12-21T08:23:40.346Z</time>
      </trkpt>
      <trkpt lat="41.32925333" lon="1.99417">
        <ele>70.0</ele>
        <time>2019-12-21T08:23:41.352Z</time>
      </trkpt>
      <trkpt lat="41.32925333" lon="1.99417">
        <ele>70.0</ele>
        <time>2019-12-21T08:23:42.367Z</time>
      </trkpt>
      <trkpt lat="41.32918333" lon="1.99411">
        <ele>70.0</ele>
        <time>2019-12-21T08:23:43.352Z</time>
      </trkpt>
      <trkpt lat="41.32914667" lon="1.99409">
        <ele>70.0</ele>
        <time>2019-12-21T08:23:44.354Z</time>
      </trkpt>
      <trkpt lat="41.32910833" lon="1.99406833">
        <ele>70.0</ele>
        <time>2019-12-21T08:23:45.352Z</time>
      </trkpt>
      <trkpt lat="41.32910833" lon="1.99406833">
        <ele>70.0</ele>
        <time>2019-12-21T08:23:46.347Z</time>
      </trkpt>
      <trkpt lat="41.329045" lon="1.99402">
        <ele>70.0</ele>
        <time>2019-12-21T08:23:47.349Z</time>
      </trkpt>
      <trkpt lat="41.329045" lon="1.99402">
        <ele>70.0</ele>
        <time>2019-12-21T08:23:48.347Z</time>
      </trkpt>
      <trkpt lat="41.32899167" lon="1.99397333">
        <ele>70.0</ele>
        <time>2019-12-21T08:23:49.364Z</time>
      </trkpt>
      <trkpt lat="41.32899167" lon="1.99397333">
        <ele>70.0</ele>
        <time>2019-12-21T08:23:50.348Z</time>
      </trkpt>
      <trkpt lat="41.32893" lon="1.99394333">
        <ele>71.0</ele>
        <time>2019-12-21T08:23:51.353Z</time>
      </trkpt>
      <trkpt lat="41.32890167" lon="1.99392167">
        <ele>70.0</ele>
        <time>2019-12-21T08:23:52.352Z</time>
      </trkpt>
      <trkpt lat="41.32890167" lon="1.99392167">
        <ele>70.0</ele>
        <time>2019-12-21T08:23:53.343Z</time>
      </trkpt>
      <trkpt lat="41.32884167" lon="1.99388667">
        <ele>71.0</ele>
        <time>2019-12-21T08:23:54.367Z</time>
      </trkpt>
      <trkpt lat="41.32881167" lon="1.99387167">
        <ele>71.0</ele>
        <time>2019-12-21T08:23:55.354Z</time>
      </trkpt>
      <trkpt lat="41.32878167" lon="1.993855">
        <ele>71.0</ele>
        <time>2019-12-21T08:23:56.353Z</time>
      </trkpt>
      <trkpt lat="41.32878167" lon="1.993855">
        <ele>71.0</ele>
        <time>2019-12-21T08:23:57.346Z</time>
      </trkpt>
      <trkpt lat="41.328725" lon="1.99381667">
        <ele>71.0</ele>
        <time>2019-12-21T08:23:58.352Z</time>
      </trkpt>
      <trkpt lat="41.328725" lon="1.99381667">
        <ele>71.0</ele>
        <time>2019-12-21T08:23:59.346Z</time>
      </trkpt>
      <trkpt lat="41.328675" lon="1.99376167">
        <ele>72.0</ele>
        <time>2019-12-21T08:24:00.352Z</time>
      </trkpt>
      <trkpt lat="41.328675" lon="1.99376167">
        <ele>72.0</ele>
        <time>2019-12-21T08:24:01.353Z</time>
      </trkpt>
      <trkpt lat="41.32864" lon="1.9937">
        <ele>72.0</ele>
        <time>2019-12-21T08:24:02.354Z</time>
      </trkpt>
      <trkpt lat="41.32864" lon="1.9937">
        <ele>72.0</ele>
        <time>2019-12-21T08:24:03.348Z</time>
      </trkpt>
      <trkpt lat="41.32861667" lon="1.99362">
        <ele>73.0</ele>
        <time>2019-12-21T08:24:04.353Z</time>
      </trkpt>
      <trkpt lat="41.32861667" lon="1.99362">
        <ele>73.0</ele>
        <time>2019-12-21T08:24:05.347Z</time>
      </trkpt>
      <trkpt lat="41.32858" lon="1.99353833">
        <ele>74.0</ele>
        <time>2019-12-21T08:24:06.353Z</time>
      </trkpt>
      <trkpt lat="41.32858" lon="1.99353833">
        <ele>74.0</ele>
        <time>2019-12-21T08:24:07.347Z</time>
      </trkpt>
      <trkpt lat="41.32854333" lon="1.99347333">
        <ele>75.0</ele>
        <time>2019-12-21T08:24:08.351Z</time>
      </trkpt>
      <trkpt lat="41.32854333" lon="1.99347333">
        <ele>75.0</ele>
        <time>2019-12-21T08:24:09.347Z</time>
      </trkpt>
      <trkpt lat="41.32850333" lon="1.99340833">
        <ele>75.0</ele>
        <time>2019-12-21T08:24:10.352Z</time>
      </trkpt>
      <trkpt lat="41.32850333" lon="1.99340833">
        <ele>75.0</ele>
        <time>2019-12-21T08:24:11.347Z</time>
      </trkpt>
      <trkpt lat="41.328475" lon="1.993345">
        <ele>76.0</ele>
        <time>2019-12-21T08:24:12.344Z</time>
      </trkpt>
      <trkpt lat="41.328475" lon="1.993345">
        <ele>76.0</ele>
        <time>2019-12-21T08:24:13.368Z</time>
      </trkpt>
      <trkpt lat="41.32846" lon="1.99323167">
        <ele>77.0</ele>
        <time>2019-12-21T08:24:14.354Z</time>
      </trkpt>
      <trkpt lat="41.32846" lon="1.99323167">
        <ele>77.0</ele>
        <time>2019-12-21T08:24:15.347Z</time>
      </trkpt>
      <trkpt lat="41.32843333" lon="1.99311833">
        <ele>78.0</ele>
        <time>2019-12-21T08:24:16.368Z</time>
      </trkpt>
      <trkpt lat="41.32843333" lon="1.99311833">
        <ele>78.0</ele>
        <time>2019-12-21T08:24:17.349Z</time>
      </trkpt>
      <trkpt lat="41.32845" lon="1.99299833">
        <ele>78.0</ele>
        <time>2019-12-21T08:24:18.352Z</time>
      </trkpt>
      <trkpt lat="41.32845" lon="1.99299833">
        <ele>78.0</ele>
        <time>2019-12-21T08:24:19.347Z</time>
      </trkpt>
      <trkpt lat="41.32846833" lon="1.99288167">
        <ele>78.0</ele>
        <time>2019-12-21T08:24:20.354Z</time>
      </trkpt>
      <trkpt lat="41.32846833" lon="1.99288167">
        <ele>78.0</ele>
        <time>2019-12-21T08:24:21.347Z</time>
      </trkpt>
      <trkpt lat="41.32850167" lon="1.99275167">
        <ele>78.0</ele>
        <time>2019-12-21T08:24:22.348Z</time>
      </trkpt>
      <trkpt lat="41.32851333" lon="1.99269667">
        <ele>78.0</ele>
        <time>2019-12-21T08:24:23.352Z</time>
      </trkpt>
      <trkpt lat="41.32851333" lon="1.99269667">
        <ele>78.0</ele>
        <time>2019-12-21T08:24:24.347Z</time>
      </trkpt>
      <trkpt lat="41.32853333" lon="1.99257833">
        <ele>79.0</ele>
        <time>2019-12-21T08:24:25.353Z</time>
      </trkpt>
      <trkpt lat="41.32853333" lon="1.99257833">
        <ele>79.0</ele>
        <time>2019-12-21T08:24:26.348Z</time>
      </trkpt>
      <trkpt lat="41.32854833" lon="1.99246">
        <ele>79.0</ele>
        <time>2019-12-21T08:24:27.352Z</time>
      </trkpt>
      <trkpt lat="41.32854833" lon="1.99246">
        <ele>79.0</ele>
        <time>2019-12-21T08:24:28.347Z</time>
      </trkpt>
      <trkpt lat="41.32854" lon="1.99236167">
        <ele>79.0</ele>
        <time>2019-12-21T08:24:29.352Z</time>
      </trkpt>
      <trkpt lat="41.32854" lon="1.99236167">
        <ele>79.0</ele>
        <time>2019-12-21T08:24:30.352Z</time>
      </trkpt>
      <trkpt lat="41.32852833" lon="1.99227">
        <ele>80.0</ele>
        <time>2019-12-21T08:24:31.352Z</time>
      </trkpt>
      <trkpt lat="41.32852833" lon="1.99227">
        <ele>80.0</ele>
        <time>2019-12-21T08:24:32.344Z</time>
      </trkpt>
      <trkpt lat="41.32851833" lon="1.99217333">
        <ele>80.0</ele>
        <time>2019-12-21T08:24:33.362Z</time>
      </trkpt>
      <trkpt lat="41.32851833" lon="1.99217333">
        <ele>80.0</ele>
        <time>2019-12-21T08:24:34.347Z</time>
      </trkpt>
      <trkpt lat="41.32852167" lon="1.99208333">
        <ele>81.0</ele>
        <time>2019-12-21T08:24:35.352Z</time>
      </trkpt>
      <trkpt lat="41.32852167" lon="1.99208333">
        <ele>81.0</ele>
        <time>2019-12-21T08:24:36.347Z</time>
      </trkpt>
      <trkpt lat="41.32852" lon="1.99200667">
        <ele>81.0</ele>
        <time>2019-12-21T08:24:37.352Z</time>
      </trkpt>
      <trkpt lat="41.328515" lon="1.99197167">
        <ele>82.0</ele>
        <time>2019-12-21T08:24:38.354Z</time>
      </trkpt>
      <trkpt lat="41.328515" lon="1.99197167">
        <ele>82.0</ele>
        <time>2019-12-21T08:24:39.347Z</time>
      </trkpt>
      <trkpt lat="41.328505" lon="1.99191167">
        <ele>82.0</ele>
        <time>2019-12-21T08:24:40.350Z</time>
      </trkpt>
      <trkpt lat="41.328505" lon="1.99191167">
        <ele>82.0</ele>
        <time>2019-12-21T08:24:41.347Z</time>
      </trkpt>
      <trkpt lat="41.32851833" lon="1.99185667">
        <ele>83.0</ele>
        <time>2019-12-21T08:24:42.340Z</time>
      </trkpt>
      <trkpt lat="41.32852167" lon="1.99182667">
        <ele>84.0</ele>
        <time>2019-12-21T08:24:43.363Z</time>
      </trkpt>
      <trkpt lat="41.328545" lon="1.99179667">
        <ele>84.0</ele>
        <time>2019-12-21T08:24:44.351Z</time>
      </trkpt>
      <trkpt lat="41.328545" lon="1.99179667">
        <ele>84.0</ele>
        <time>2019-12-21T08:24:45.347Z</time>
      </trkpt>
      <trkpt lat="41.32855667" lon="1.99173">
        <ele>85.0</ele>
        <time>2019-12-21T08:24:46.352Z</time>
      </trkpt>
      <trkpt lat="41.32855667" lon="1.99173">
        <ele>85.0</ele>
        <time>2019-12-21T08:24:47.357Z</time>
      </trkpt>
      <trkpt lat="41.32855" lon="1.99164833">
        <ele>86.0</ele>
        <time>2019-12-21T08:24:48.361Z</time>
      </trkpt>
      <trkpt lat="41.32855" lon="1.99164833">
        <ele>86.0</ele>
        <time>2019-12-21T08:24:49.347Z</time>
      </trkpt>
      <trkpt lat="41.32855667" lon="1.99158667">
        <ele>86.0</ele>
        <time>2019-12-21T08:24:50.370Z</time>
      </trkpt>
      <trkpt lat="41.32855667" lon="1.99158667">
        <ele>86.0</ele>
        <time>2019-12-21T08:24:51.351Z</time>
      </trkpt>
      <trkpt lat="41.32856667" lon="1.99152">
        <ele>87.0</ele>
        <time>2019-12-21T08:24:52.353Z</time>
      </trkpt>
      <trkpt lat="41.32856833" lon="1.99149">
        <ele>88.0</ele>
        <time>2019-12-21T08:24:53.353Z</time>
      </trkpt>
      <trkpt lat="41.32856833" lon="1.99149">
        <ele>88.0</ele>
        <time>2019-12-21T08:24:54.347Z</time>
      </trkpt>
      <trkpt lat="41.32857167" lon="1.99142">
        <ele>88.0</ele>
        <time>2019-12-21T08:24:55.352Z</time>
      </trkpt>
      <trkpt lat="41.328565" lon="1.99139167">
        <ele>89.0</ele>
        <time>2019-12-21T08:24:56.354Z</time>
      </trkpt>
      <trkpt lat="41.328565" lon="1.99139167">
        <ele>89.0</ele>
        <time>2019-12-21T08:24:57.347Z</time>
      </trkpt>
      <trkpt lat="41.32856" lon="1.99133167">
        <ele>90.0</ele>
        <time>2019-12-21T08:24:58.354Z</time>
      </trkpt>
      <trkpt lat="41.32856" lon="1.99133167">
        <ele>90.0</ele>
        <time>2019-12-21T08:24:59.348Z</time>
      </trkpt>
      <trkpt lat="41.32855833" lon="1.99126667">
        <ele>90.0</ele>
        <time>2019-12-21T08:25:00.353Z</time>
      </trkpt>
      <trkpt lat="41.32855833" lon="1.99126667">
        <ele>90.0</ele>
        <time>2019-12-21T08:25:01.347Z</time>
      </trkpt>
      <trkpt lat="41.32854833" lon="1.99120667">
        <ele>91.0</ele>
        <time>2019-12-21T08:25:02.370Z</time>
      </trkpt>
      <trkpt lat="41.32854833" lon="1.99120667">
        <ele>91.0</ele>
        <time>2019-12-21T08:25:03.347Z</time>
      </trkpt>
      <trkpt lat="41.328525" lon="1.99115333">
        <ele>92.0</ele>
        <time>2019-12-21T08:25:04.333Z</time>
      </trkpt>
      <trkpt lat="41.328525" lon="1.99115333">
        <ele>92.0</ele>
        <time>2019-12-21T08:25:05.355Z</time>
      </trkpt>
      <trkpt lat="41.32849833" lon="1.99110833">
        <ele>93.0</ele>
        <time>2019-12-21T08:25:06.352Z</time>
      </trkpt>
      <trkpt lat="41.32849833" lon="1.99110833">
        <ele>93.0</ele>
        <time>2019-12-21T08:25:07.347Z</time>
      </trkpt>
      <trkpt lat="41.32847333" lon="1.99106333">
        <ele>94.0</ele>
        <time>2019-12-21T08:25:08.370Z</time>
      </trkpt>
      <trkpt lat="41.32847333" lon="1.99106333">
        <ele>94.0</ele>
        <time>2019-12-21T08:25:09.358Z</time>
      </trkpt>
      <trkpt lat="41.32844833" lon="1.99103333">
        <ele>94.0</ele>
        <time>2019-12-21T08:25:10.353Z</time>
      </trkpt>
      <trkpt lat="41.32844833" lon="1.99103333">
        <ele>94.0</ele>
        <time>2019-12-21T08:25:11.347Z</time>
      </trkpt>
      <trkpt lat="41.32841667" lon="1.99100167">
        <ele>94.0</ele>
        <time>2019-12-21T08:25:12.352Z</time>
      </trkpt>
      <trkpt lat="41.32841667" lon="1.99100167">
        <ele>94.0</ele>
        <time>2019-12-21T08:25:13.347Z</time>
      </trkpt>
      <trkpt lat="41.328395" lon="1.990965">
        <ele>94.0</ele>
        <time>2019-12-21T08:25:14.370Z</time>
      </trkpt>
      <trkpt lat="41.328395" lon="1.990965">
        <ele>94.0</ele>
        <time>2019-12-21T08:25:15.352Z</time>
      </trkpt>
      <trkpt lat="41.32838833" lon="1.99092333">
        <ele>94.0</ele>
        <time>2019-12-21T08:25:16.353Z</time>
      </trkpt>
      <trkpt lat="41.32838833" lon="1.99092333">
        <ele>94.0</ele>
        <time>2019-12-21T08:25:17.347Z</time>
      </trkpt>
      <trkpt lat="41.32837667" lon="1.99087333">
        <ele>95.0</ele>
        <time>2019-12-21T08:25:18.353Z</time>
      </trkpt>
      <trkpt lat="41.32837667" lon="1.99087333">
        <ele>95.0</ele>
        <time>2019-12-21T08:25:19.348Z</time>
      </trkpt>
      <trkpt lat="41.328345" lon="1.99082333">
        <ele>95.0</ele>
        <time>2019-12-21T08:25:20.353Z</time>
      </trkpt>
      <trkpt lat="41.328345" lon="1.99082333">
        <ele>95.0</ele>
        <time>2019-12-21T08:25:21.348Z</time>
      </trkpt>
      <trkpt lat="41.328325" lon="1.99078167">
        <ele>96.0</ele>
        <time>2019-12-21T08:25:22.359Z</time>
      </trkpt>
      <trkpt lat="41.32831333" lon="1.990765">
        <ele>96.0</ele>
        <time>2019-12-21T08:25:23.354Z</time>
      </trkpt>
      <trkpt lat="41.32831333" lon="1.990765">
        <ele>96.0</ele>
        <time>2019-12-21T08:25:24.348Z</time>
      </trkpt>
      <trkpt lat="41.328285" lon="1.99072667">
        <ele>97.0</ele>
        <time>2019-12-21T08:25:25.353Z</time>
      </trkpt>
      <trkpt lat="41.32827" lon="1.99070667">
        <ele>97.0</ele>
        <time>2019-12-21T08:25:26.355Z</time>
      </trkpt>
      <trkpt lat="41.32827" lon="1.99070667">
        <ele>97.0</ele>
        <time>2019-12-21T08:25:27.359Z</time>
      </trkpt>
      <trkpt lat="41.32824833" lon="1.99065167">
        <ele>98.0</ele>
        <time>2019-12-21T08:25:28.352Z</time>
      </trkpt>
      <trkpt lat="41.32824833" lon="1.99065167">
        <ele>98.0</ele>
        <time>2019-12-21T08:25:29.348Z</time>
      </trkpt>
      <trkpt lat="41.32823" lon="1.990605">
        <ele>98.0</ele>
        <time>2019-12-21T08:25:30.353Z</time>
      </trkpt>
      <trkpt lat="41.32823" lon="1.990605">
        <ele>98.0</ele>
        <time>2019-12-21T08:25:31.348Z</time>
      </trkpt>
      <trkpt lat="41.32821" lon="1.99056167">
        <ele>99.0</ele>
        <time>2019-12-21T08:25:32.354Z</time>
      </trkpt>
      <trkpt lat="41.32821" lon="1.99056167">
        <ele>99.0</ele>
        <time>2019-12-21T08:25:33.348Z</time>
      </trkpt>
      <trkpt lat="41.328205" lon="1.99050833">
        <ele>100.0</ele>
        <time>2019-12-21T08:25:34.333Z</time>
      </trkpt>
      <trkpt lat="41.328205" lon="1.99050833">
        <ele>100.0</ele>
        <time>2019-12-21T08:25:35.361Z</time>
      </trkpt>
      <trkpt lat="41.328205" lon="1.99046167">
        <ele>101.0</ele>
        <time>2019-12-21T08:25:36.353Z</time>
      </trkpt>
      <trkpt lat="41.328205" lon="1.99046167">
        <ele>101.0</ele>
        <time>2019-12-21T08:25:37.348Z</time>
      </trkpt>
      <trkpt lat="41.32819" lon="1.99041167">
        <ele>102.0</ele>
        <time>2019-12-21T08:25:38.370Z</time>
      </trkpt>
      <trkpt lat="41.32819" lon="1.99041167">
        <ele>102.0</ele>
        <time>2019-12-21T08:25:39.352Z</time>
      </trkpt>
      <trkpt lat="41.32819" lon="1.990355">
        <ele>103.0</ele>
        <time>2019-12-21T08:25:40.353Z</time>
      </trkpt>
      <trkpt lat="41.32819" lon="1.990355">
        <ele>103.0</ele>
        <time>2019-12-21T08:25:41.347Z</time>
      </trkpt>
      <trkpt lat="41.32817333" lon="1.99030167">
        <ele>103.0</ele>
        <time>2019-12-21T08:25:42.356Z</time>
      </trkpt>
      <trkpt lat="41.32817333" lon="1.99030167">
        <ele>103.0</ele>
        <time>2019-12-21T08:25:43.355Z</time>
      </trkpt>
      <trkpt lat="41.328155" lon="1.99024833">
        <ele>104.0</ele>
        <time>2019-12-21T08:25:44.354Z</time>
      </trkpt>
      <trkpt lat="41.328155" lon="1.99024833">
        <ele>104.0</ele>
        <time>2019-12-21T08:25:45.344Z</time>
      </trkpt>
      <trkpt lat="41.32813333" lon="1.99017833">
        <ele>105.0</ele>
        <time>2019-12-21T08:25:46.367Z</time>
      </trkpt>
      <trkpt lat="41.32813333" lon="1.99017833">
        <ele>105.0</ele>
        <time>2019-12-21T08:25:47.350Z</time>
      </trkpt>
      <trkpt lat="41.32810167" lon="1.990145">
        <ele>105.0</ele>
        <time>2019-12-21T08:25:48.352Z</time>
      </trkpt>
      <trkpt lat="41.32810167" lon="1.990145">
        <ele>105.0</ele>
        <time>2019-12-21T08:25:49.348Z</time>
      </trkpt>
      <trkpt lat="41.328085" lon="1.99011833">
        <ele>106.0</ele>
        <time>2019-12-21T08:25:50.370Z</time>
      </trkpt>
      <trkpt lat="41.328085" lon="1.99011833">
        <ele>106.0</ele>
        <time>2019-12-21T08:25:51.352Z</time>
      </trkpt>
      <trkpt lat="41.328085" lon="1.99007167">
        <ele>106.0</ele>
        <time>2019-12-21T08:25:52.353Z</time>
      </trkpt>
      <trkpt lat="41.328085" lon="1.99007167">
        <ele>106.0</ele>
        <time>2019-12-21T08:25:53.343Z</time>
      </trkpt>
      <trkpt lat="41.32805333" lon="1.99001167">
        <ele>107.0</ele>
        <time>2019-12-21T08:25:54.369Z</time>
      </trkpt>
      <trkpt lat="41.32805333" lon="1.99001167">
        <ele>107.0</ele>
        <time>2019-12-21T08:25:55.355Z</time>
      </trkpt>
      <trkpt lat="41.32801" lon="1.98995333">
        <ele>107.0</ele>
        <time>2019-12-21T08:25:56.355Z</time>
      </trkpt>
      <trkpt lat="41.32801" lon="1.98995333">
        <ele>107.0</ele>
        <time>2019-12-21T08:25:57.348Z</time>
      </trkpt>
      <trkpt lat="41.32796667" lon="1.98990667">
        <ele>107.0</ele>
        <time>2019-12-21T08:25:58.353Z</time>
      </trkpt>
      <trkpt lat="41.32796667" lon="1.98990667">
        <ele>107.0</ele>
        <time>2019-12-21T08:25:59.348Z</time>
      </trkpt>
      <trkpt lat="41.32793" lon="1.98985333">
        <ele>107.0</ele>
        <time>2019-12-21T08:26:00.354Z</time>
      </trkpt>
      <trkpt lat="41.32793" lon="1.98985333">
        <ele>107.0</ele>
        <time>2019-12-21T08:26:01.348Z</time>
      </trkpt>
      <trkpt lat="41.32788833" lon="1.98981167">
        <ele>107.0</ele>
        <time>2019-12-21T08:26:02.354Z</time>
      </trkpt>
      <trkpt lat="41.32788833" lon="1.98981167">
        <ele>107.0</ele>
        <time>2019-12-21T08:26:03.343Z</time>
      </trkpt>
      <trkpt lat="41.327865" lon="1.98978">
        <ele>107.0</ele>
        <time>2019-12-21T08:26:04.366Z</time>
      </trkpt>
      <trkpt lat="41.327865" lon="1.98978">
        <ele>107.0</ele>
        <time>2019-12-21T08:26:05.348Z</time>
      </trkpt>
      <trkpt lat="41.32783667" lon="1.98975">
        <ele>107.0</ele>
        <time>2019-12-21T08:26:06.353Z</time>
      </trkpt>
      <trkpt lat="41.32783667" lon="1.98975">
        <ele>107.0</ele>
        <time>2019-12-21T08:26:07.348Z</time>
      </trkpt>
      <trkpt lat="41.32780167" lon="1.989725">
        <ele>106.0</ele>
        <time>2019-12-21T08:26:08.371Z</time>
      </trkpt>
      <trkpt lat="41.32780167" lon="1.989725">
        <ele>106.0</ele>
        <time>2019-12-21T08:26:09.353Z</time>
      </trkpt>
      <trkpt lat="41.32777" lon="1.98970833">
        <ele>106.0</ele>
        <time>2019-12-21T08:26:10.353Z</time>
      </trkpt>
      <trkpt lat="41.32777" lon="1.98970833">
        <ele>106.0</ele>
        <time>2019-12-21T08:26:11.348Z</time>
      </trkpt>
      <trkpt lat="41.32774333" lon="1.98969167">
        <ele>106.0</ele>
        <time>2019-12-21T08:26:12.366Z</time>
      </trkpt>
      <trkpt lat="41.32774333" lon="1.98969167">
        <ele>106.0</ele>
        <time>2019-12-21T08:26:13.346Z</time>
      </trkpt>
      <trkpt lat="41.32771333" lon="1.98967167">
        <ele>105.0</ele>
        <time>2019-12-21T08:26:14.370Z</time>
      </trkpt>
      <trkpt lat="41.32771333" lon="1.98967167">
        <ele>105.0</ele>
        <time>2019-12-21T08:26:15.351Z</time>
      </trkpt>
      <trkpt lat="41.327685" lon="1.98965333">
        <ele>104.0</ele>
        <time>2019-12-21T08:26:16.353Z</time>
      </trkpt>
      <trkpt lat="41.32768167" lon="1.98964333">
        <ele>104.0</ele>
        <time>2019-12-21T08:26:17.353Z</time>
      </trkpt>
      <trkpt lat="41.32768167" lon="1.98964333">
        <ele>104.0</ele>
        <time>2019-12-21T08:26:18.347Z</time>
      </trkpt>
      <trkpt lat="41.32766667" lon="1.98963667">
        <ele>104.0</ele>
        <time>2019-12-21T08:26:19.354Z</time>
      </trkpt>
      <trkpt lat="41.32765" lon="1.98964">
        <ele>104.0</ele>
        <time>2019-12-21T08:26:20.355Z</time>
      </trkpt>
      <trkpt lat="41.32765" lon="1.98964">
        <ele>104.0</ele>
        <time>2019-12-21T08:26:21.348Z</time>
      </trkpt>
      <trkpt lat="41.32760333" lon="1.98964">
        <ele>103.0</ele>
        <time>2019-12-21T08:26:22.355Z</time>
      </trkpt>
      <trkpt lat="41.32760333" lon="1.98964">
        <ele>103.0</ele>
        <time>2019-12-21T08:26:23.347Z</time>
      </trkpt>
      <trkpt lat="41.32756" lon="1.98963333">
        <ele>103.0</ele>
        <time>2019-12-21T08:26:24.337Z</time>
      </trkpt>
      <trkpt lat="41.32754" lon="1.98963167">
        <ele>103.0</ele>
        <time>2019-12-21T08:26:25.359Z</time>
      </trkpt>
      <trkpt lat="41.327525" lon="1.98962667">
        <ele>103.0</ele>
        <time>2019-12-21T08:26:26.354Z</time>
      </trkpt>
      <trkpt lat="41.327525" lon="1.98962667">
        <ele>103.0</ele>
        <time>2019-12-21T08:26:27.350Z</time>
      </trkpt>
      <trkpt lat="41.32748667" lon="1.98962">
        <ele>104.0</ele>
        <time>2019-12-21T08:26:28.354Z</time>
      </trkpt>
      <trkpt lat="41.32748667" lon="1.98962">
        <ele>104.0</ele>
        <time>2019-12-21T08:26:29.351Z</time>
      </trkpt>
      <trkpt lat="41.32745167" lon="1.98961167">
        <ele>104.0</ele>
        <time>2019-12-21T08:26:30.353Z</time>
      </trkpt>
      <trkpt lat="41.32745167" lon="1.98961167">
        <ele>104.0</ele>
        <time>2019-12-21T08:26:31.348Z</time>
      </trkpt>
      <trkpt lat="41.32742" lon="1.989605">
        <ele>104.0</ele>
        <time>2019-12-21T08:26:32.367Z</time>
      </trkpt>
      <trkpt lat="41.32742" lon="1.989605">
        <ele>104.0</ele>
        <time>2019-12-21T08:26:33.352Z</time>
      </trkpt>
      <trkpt lat="41.327375" lon="1.98960167">
        <ele>104.0</ele>
        <time>2019-12-21T08:26:34.354Z</time>
      </trkpt>
      <trkpt lat="41.327375" lon="1.98960167">
        <ele>104.0</ele>
        <time>2019-12-21T08:26:35.348Z</time>
      </trkpt>
      <trkpt lat="41.32732" lon="1.98960167">
        <ele>103.0</ele>
        <time>2019-12-21T08:26:36.353Z</time>
      </trkpt>
      <trkpt lat="41.32732" lon="1.98960167">
        <ele>103.0</ele>
        <time>2019-12-21T08:26:37.348Z</time>
      </trkpt>
      <trkpt lat="41.32728333" lon="1.98959167">
        <ele>104.0</ele>
        <time>2019-12-21T08:26:38.355Z</time>
      </trkpt>
      <trkpt lat="41.32728333" lon="1.98959167">
        <ele>104.0</ele>
        <time>2019-12-21T08:26:39.367Z</time>
      </trkpt>
      <trkpt lat="41.32724833" lon="1.98958667">
        <ele>104.0</ele>
        <time>2019-12-21T08:26:40.354Z</time>
      </trkpt>
      <trkpt lat="41.32724833" lon="1.98958667">
        <ele>104.0</ele>
        <time>2019-12-21T08:26:41.348Z</time>
      </trkpt>
      <trkpt lat="41.32721333" lon="1.98958167">
        <ele>104.0</ele>
        <time>2019-12-21T08:26:42.367Z</time>
      </trkpt>
      <trkpt lat="41.32721333" lon="1.98958167">
        <ele>104.0</ele>
        <time>2019-12-21T08:26:43.349Z</time>
      </trkpt>
      <trkpt lat="41.32717667" lon="1.98957833">
        <ele>105.0</ele>
        <time>2019-12-21T08:26:44.355Z</time>
      </trkpt>
      <trkpt lat="41.32717667" lon="1.98957833">
        <ele>105.0</ele>
        <time>2019-12-21T08:26:45.348Z</time>
      </trkpt>
      <trkpt lat="41.32714833" lon="1.989565">
        <ele>106.0</ele>
        <time>2019-12-21T08:26:46.354Z</time>
      </trkpt>
      <trkpt lat="41.32714833" lon="1.989565">
        <ele>106.0</ele>
        <time>2019-12-21T08:26:47.348Z</time>
      </trkpt>
      <trkpt lat="41.32711333" lon="1.98954833">
        <ele>107.0</ele>
        <time>2019-12-21T08:26:48.353Z</time>
      </trkpt>
      <trkpt lat="41.32711333" lon="1.98954833">
        <ele>107.0</ele>
        <time>2019-12-21T08:26:49.348Z</time>
      </trkpt>
      <trkpt lat="41.32706833" lon="1.98954833">
        <ele>108.0</ele>
        <time>2019-12-21T08:26:50.371Z</time>
      </trkpt>
      <trkpt lat="41.32706833" lon="1.98954833">
        <ele>108.0</ele>
        <time>2019-12-21T08:26:51.353Z</time>
      </trkpt>
      <trkpt lat="41.32702" lon="1.98953667">
        <ele>108.0</ele>
        <time>2019-12-21T08:26:52.353Z</time>
      </trkpt>
      <trkpt lat="41.32702" lon="1.98953667">
        <ele>108.0</ele>
        <time>2019-12-21T08:26:53.349Z</time>
      </trkpt>
      <trkpt lat="41.32696333" lon="1.989515">
        <ele>108.0</ele>
        <time>2019-12-21T08:26:54.368Z</time>
      </trkpt>
      <trkpt lat="41.32693667" lon="1.98951333">
        <ele>108.0</ele>
        <time>2019-12-21T08:26:55.364Z</time>
      </trkpt>
      <trkpt lat="41.32691167" lon="1.98951667">
        <ele>108.0</ele>
        <time>2019-12-21T08:26:56.355Z</time>
      </trkpt>
      <trkpt lat="41.32691167" lon="1.98951667">
        <ele>108.0</ele>
        <time>2019-12-21T08:26:57.348Z</time>
      </trkpt>
      <trkpt lat="41.32686167" lon="1.98953">
        <ele>108.0</ele>
        <time>2019-12-21T08:26:58.354Z</time>
      </trkpt>
      <trkpt lat="41.32683667" lon="1.989535">
        <ele>108.0</ele>
        <time>2019-12-21T08:26:59.354Z</time>
      </trkpt>
      <trkpt lat="41.32683667" lon="1.989535">
        <ele>108.0</ele>
        <time>2019-12-21T08:27:00.348Z</time>
      </trkpt>
      <trkpt lat="41.32679167" lon="1.989545">
        <ele>108.0</ele>
        <time>2019-12-21T08:27:01.353Z</time>
      </trkpt>
      <trkpt lat="41.32677" lon="1.98956">
        <ele>108.0</ele>
        <time>2019-12-21T08:27:02.367Z</time>
      </trkpt>
      <trkpt lat="41.32677" lon="1.98956">
        <ele>108.0</ele>
        <time>2019-12-21T08:27:03.350Z</time>
      </trkpt>
      <trkpt lat="41.326725" lon="1.98958167">
        <ele>108.0</ele>
        <time>2019-12-21T08:27:04.355Z</time>
      </trkpt>
      <trkpt lat="41.326725" lon="1.98958167">
        <ele>108.0</ele>
        <time>2019-12-21T08:27:05.348Z</time>
      </trkpt>
      <trkpt lat="41.32668333" lon="1.98960167">
        <ele>109.0</ele>
        <time>2019-12-21T08:27:06.353Z</time>
      </trkpt>
      <trkpt lat="41.32668333" lon="1.98960167">
        <ele>109.0</ele>
        <time>2019-12-21T08:27:07.348Z</time>
      </trkpt>
      <trkpt lat="41.32663833" lon="1.98962">
        <ele>109.0</ele>
        <time>2019-12-21T08:27:08.371Z</time>
      </trkpt>
      <trkpt lat="41.32663833" lon="1.98962">
        <ele>109.0</ele>
        <time>2019-12-21T08:27:09.352Z</time>
      </trkpt>
      <trkpt lat="41.32659" lon="1.98963333">
        <ele>110.0</ele>
        <time>2019-12-21T08:27:10.353Z</time>
      </trkpt>
      <trkpt lat="41.32659" lon="1.98963333">
        <ele>110.0</ele>
        <time>2019-12-21T08:27:11.349Z</time>
      </trkpt>
      <trkpt lat="41.32654333" lon="1.98964">
        <ele>110.0</ele>
        <time>2019-12-21T08:27:12.354Z</time>
      </trkpt>
      <trkpt lat="41.32654333" lon="1.98964">
        <ele>110.0</ele>
        <time>2019-12-21T08:27:13.348Z</time>
      </trkpt>
      <trkpt lat="41.326495" lon="1.98964833">
        <ele>111.0</ele>
        <time>2019-12-21T08:27:14.371Z</time>
      </trkpt>
      <trkpt lat="41.326495" lon="1.98964833">
        <ele>111.0</ele>
        <time>2019-12-21T08:27:15.352Z</time>
      </trkpt>
      <trkpt lat="41.32644667" lon="1.98965833">
        <ele>111.0</ele>
        <time>2019-12-21T08:27:16.350Z</time>
      </trkpt>
      <trkpt lat="41.32642" lon="1.989655">
        <ele>112.0</ele>
        <time>2019-12-21T08:27:17.354Z</time>
      </trkpt>
      <trkpt lat="41.32642" lon="1.989655">
        <ele>112.0</ele>
        <time>2019-12-21T08:27:18.348Z</time>
      </trkpt>
      <trkpt lat="41.32635667" lon="1.98965833">
        <ele>112.0</ele>
        <time>2019-12-21T08:27:19.370Z</time>
      </trkpt>
      <trkpt lat="41.32632" lon="1.98965833">
        <ele>112.0</ele>
        <time>2019-12-21T08:27:20.355Z</time>
      </trkpt>
      <trkpt lat="41.32632" lon="1.98965833">
        <ele>112.0</ele>
        <time>2019-12-21T08:27:21.348Z</time>
      </trkpt>
      <trkpt lat="41.32626167" lon="1.98965833">
        <ele>112.0</ele>
        <time>2019-12-21T08:27:22.366Z</time>
      </trkpt>
      <trkpt lat="41.32626167" lon="1.98965833">
        <ele>112.0</ele>
        <time>2019-12-21T08:27:23.349Z</time>
      </trkpt>
      <trkpt lat="41.32620667" lon="1.98966333">
        <ele>112.0</ele>
        <time>2019-12-21T08:27:24.370Z</time>
      </trkpt>
      <trkpt lat="41.32618" lon="1.98967">
        <ele>111.0</ele>
        <time>2019-12-21T08:27:25.356Z</time>
      </trkpt>
      <trkpt lat="41.326155" lon="1.98968">
        <ele>111.0</ele>
        <time>2019-12-21T08:27:26.355Z</time>
      </trkpt>
      <trkpt lat="41.326155" lon="1.98968">
        <ele>111.0</ele>
        <time>2019-12-21T08:27:27.349Z</time>
      </trkpt>
      <trkpt lat="41.32611" lon="1.98969333">
        <ele>112.0</ele>
        <time>2019-12-21T08:27:28.354Z</time>
      </trkpt>
      <trkpt lat="41.32611" lon="1.98969333">
        <ele>112.0</ele>
        <time>2019-12-21T08:27:29.349Z</time>
      </trkpt>
      <trkpt lat="41.32606333" lon="1.98969167">
        <ele>112.0</ele>
        <time>2019-12-21T08:27:30.354Z</time>
      </trkpt>
      <trkpt lat="41.32606333" lon="1.98969167">
        <ele>112.0</ele>
        <time>2019-12-21T08:27:31.349Z</time>
      </trkpt>
      <trkpt lat="41.32600833" lon="1.98968667">
        <ele>112.0</ele>
        <time>2019-12-21T08:27:32.351Z</time>
      </trkpt>
      <trkpt lat="41.32600833" lon="1.98968667">
        <ele>112.0</ele>
        <time>2019-12-21T08:27:33.350Z</time>
      </trkpt>
      <trkpt lat="41.325945" lon="1.98966833">
        <ele>111.0</ele>
        <time>2019-12-21T08:27:34.368Z</time>
      </trkpt>
      <trkpt lat="41.325945" lon="1.98966833">
        <ele>111.0</ele>
        <time>2019-12-21T08:27:35.351Z</time>
      </trkpt>
      <trkpt lat="41.32588333" lon="1.98964667">
        <ele>112.0</ele>
        <time>2019-12-21T08:27:36.355Z</time>
      </trkpt>
      <trkpt lat="41.32588333" lon="1.98964667">
        <ele>112.0</ele>
        <time>2019-12-21T08:27:37.349Z</time>
      </trkpt>
      <trkpt lat="41.32583167" lon="1.98960667">
        <ele>112.0</ele>
        <time>2019-12-21T08:27:38.358Z</time>
      </trkpt>
      <trkpt lat="41.32583167" lon="1.98960667">
        <ele>112.0</ele>
        <time>2019-12-21T08:27:39.349Z</time>
      </trkpt>
      <trkpt lat="41.32578" lon="1.98956667">
        <ele>112.0</ele>
        <time>2019-12-21T08:27:40.354Z</time>
      </trkpt>
      <trkpt lat="41.32578" lon="1.98956667">
        <ele>112.0</ele>
        <time>2019-12-21T08:27:41.348Z</time>
      </trkpt>
      <trkpt lat="41.325735" lon="1.98952667">
        <ele>113.0</ele>
        <time>2019-12-21T08:27:42.354Z</time>
      </trkpt>
      <trkpt lat="41.325735" lon="1.98952667">
        <ele>113.0</ele>
        <time>2019-12-21T08:27:43.348Z</time>
      </trkpt>
      <trkpt lat="41.32568667" lon="1.98948833">
        <ele>113.0</ele>
        <time>2019-12-21T08:27:44.356Z</time>
      </trkpt>
      <trkpt lat="41.32568667" lon="1.98948833">
        <ele>113.0</ele>
        <time>2019-12-21T08:27:45.348Z</time>
      </trkpt>
      <trkpt lat="41.32563167" lon="1.98945833">
        <ele>113.0</ele>
        <time>2019-12-21T08:27:46.354Z</time>
      </trkpt>
      <trkpt lat="41.32563167" lon="1.98945833">
        <ele>113.0</ele>
        <time>2019-12-21T08:27:47.348Z</time>
      </trkpt>
      <trkpt lat="41.32557167" lon="1.98944333">
        <ele>114.0</ele>
        <time>2019-12-21T08:27:48.354Z</time>
      </trkpt>
      <trkpt lat="41.32557167" lon="1.98944333">
        <ele>114.0</ele>
        <time>2019-12-21T08:27:49.355Z</time>
      </trkpt>
      <trkpt lat="41.325505" lon="1.98942667">
        <ele>113.0</ele>
        <time>2019-12-21T08:27:50.356Z</time>
      </trkpt>
      <trkpt lat="41.325505" lon="1.98942667">
        <ele>113.0</ele>
        <time>2019-12-21T08:27:51.345Z</time>
      </trkpt>
      <trkpt lat="41.32543667" lon="1.98941167">
        <ele>113.0</ele>
        <time>2019-12-21T08:27:52.354Z</time>
      </trkpt>
      <trkpt lat="41.32543667" lon="1.98941167">
        <ele>113.0</ele>
        <time>2019-12-21T08:27:53.349Z</time>
      </trkpt>
      <trkpt lat="41.32536667" lon="1.98940167">
        <ele>112.0</ele>
        <time>2019-12-21T08:27:54.356Z</time>
      </trkpt>
      <trkpt lat="41.32532833" lon="1.98939333">
        <ele>112.0</ele>
        <time>2019-12-21T08:27:55.354Z</time>
      </trkpt>
      <trkpt lat="41.32529333" lon="1.98938167">
        <ele>112.0</ele>
        <time>2019-12-21T08:27:56.357Z</time>
      </trkpt>
      <trkpt lat="41.32529333" lon="1.98938167">
        <ele>112.0</ele>
        <time>2019-12-21T08:27:57.349Z</time>
      </trkpt>
      <trkpt lat="41.32522167" lon="1.989365">
        <ele>111.0</ele>
        <time>2019-12-21T08:27:58.354Z</time>
      </trkpt>
      <trkpt lat="41.32522167" lon="1.989365">
        <ele>111.0</ele>
        <time>2019-12-21T08:27:59.349Z</time>
      </trkpt>
      <trkpt lat="41.32515" lon="1.989355">
        <ele>111.0</ele>
        <time>2019-12-21T08:28:00.354Z</time>
      </trkpt>
      <trkpt lat="41.32515" lon="1.989355">
        <ele>111.0</ele>
        <time>2019-12-21T08:28:01.348Z</time>
      </trkpt>
      <trkpt lat="41.325075" lon="1.98934833">
        <ele>110.0</ele>
        <time>2019-12-21T08:28:02.367Z</time>
      </trkpt>
      <trkpt lat="41.325075" lon="1.98934833">
        <ele>110.0</ele>
        <time>2019-12-21T08:28:03.351Z</time>
      </trkpt>
      <trkpt lat="41.32499833" lon="1.98935667">
        <ele>109.0</ele>
        <time>2019-12-21T08:28:04.345Z</time>
      </trkpt>
      <trkpt lat="41.32496" lon="1.98936333">
        <ele>109.0</ele>
        <time>2019-12-21T08:28:05.334Z</time>
      </trkpt>
      <trkpt lat="41.32496" lon="1.98936333">
        <ele>109.0</ele>
        <time>2019-12-21T08:28:06.356Z</time>
      </trkpt>
      <trkpt lat="41.32488833" lon="1.98938333">
        <ele>108.0</ele>
        <time>2019-12-21T08:28:07.353Z</time>
      </trkpt>
      <trkpt lat="41.32485333" lon="1.98939333">
        <ele>108.0</ele>
        <time>2019-12-21T08:28:08.356Z</time>
      </trkpt>
      <trkpt lat="41.32485333" lon="1.98939333">
        <ele>108.0</ele>
        <time>2019-12-21T08:28:09.349Z</time>
      </trkpt>
      <trkpt lat="41.32479" lon="1.989425">
        <ele>108.0</ele>
        <time>2019-12-21T08:28:10.354Z</time>
      </trkpt>
      <trkpt lat="41.32479" lon="1.989425">
        <ele>108.0</ele>
        <time>2019-12-21T08:28:11.348Z</time>
      </trkpt>
      <trkpt lat="41.324735" lon="1.98947167">
        <ele>108.0</ele>
        <time>2019-12-21T08:28:12.366Z</time>
      </trkpt>
      <trkpt lat="41.324735" lon="1.98947167">
        <ele>108.0</ele>
        <time>2019-12-21T08:28:13.349Z</time>
      </trkpt>
      <trkpt lat="41.32468333" lon="1.98952667">
        <ele>108.0</ele>
        <time>2019-12-21T08:28:14.333Z</time>
      </trkpt>
      <trkpt lat="41.32468333" lon="1.98952667">
        <ele>108.0</ele>
        <time>2019-12-21T08:28:15.354Z</time>
      </trkpt>
      <trkpt lat="41.324625" lon="1.98957">
        <ele>108.0</ele>
        <time>2019-12-21T08:28:16.355Z</time>
      </trkpt>
      <trkpt lat="41.324625" lon="1.98957">
        <ele>108.0</ele>
        <time>2019-12-21T08:28:17.349Z</time>
      </trkpt>
      <trkpt lat="41.32456" lon="1.98956167">
        <ele>107.0</ele>
        <time>2019-12-21T08:28:18.354Z</time>
      </trkpt>
      <trkpt lat="41.32456" lon="1.98956167">
        <ele>107.0</ele>
        <time>2019-12-21T08:28:19.350Z</time>
      </trkpt>
      <trkpt lat="41.32452667" lon="1.98949833">
        <ele>107.0</ele>
        <time>2019-12-21T08:28:20.353Z</time>
      </trkpt>
      <trkpt lat="41.32452667" lon="1.98949833">
        <ele>107.0</ele>
        <time>2019-12-21T08:28:21.349Z</time>
      </trkpt>
      <trkpt lat="41.324505" lon="1.98942667">
        <ele>107.0</ele>
        <time>2019-12-21T08:28:22.371Z</time>
      </trkpt>
      <trkpt lat="41.324505" lon="1.98942667">
        <ele>107.0</ele>
        <time>2019-12-21T08:28:23.352Z</time>
      </trkpt>
      <trkpt lat="41.32448" lon="1.98935333">
        <ele>107.0</ele>
        <time>2019-12-21T08:28:24.354Z</time>
      </trkpt>
      <trkpt lat="41.32446667" lon="1.98931667">
        <ele>107.0</ele>
        <time>2019-12-21T08:28:25.354Z</time>
      </trkpt>
      <trkpt lat="41.32445" lon="1.98928333">
        <ele>107.0</ele>
        <time>2019-12-21T08:28:26.356Z</time>
      </trkpt>
      <trkpt lat="41.32445" lon="1.98928333">
        <ele>107.0</ele>
        <time>2019-12-21T08:28:27.349Z</time>
      </trkpt>
      <trkpt lat="41.32440333" lon="1.98923167">
        <ele>107.0</ele>
        <time>2019-12-21T08:28:28.359Z</time>
      </trkpt>
      <trkpt lat="41.32440333" lon="1.98923167">
        <ele>107.0</ele>
        <time>2019-12-21T08:28:29.349Z</time>
      </trkpt>
      <trkpt lat="41.32436167" lon="1.98918">
        <ele>107.0</ele>
        <time>2019-12-21T08:28:30.355Z</time>
      </trkpt>
      <trkpt lat="41.32433833" lon="1.989155">
        <ele>107.0</ele>
        <time>2019-12-21T08:28:31.355Z</time>
      </trkpt>
      <trkpt lat="41.32433833" lon="1.989155">
        <ele>107.0</ele>
        <time>2019-12-21T08:28:32.351Z</time>
      </trkpt>
      <trkpt lat="41.324295" lon="1.98909833">
        <ele>107.0</ele>
        <time>2019-12-21T08:28:33.355Z</time>
      </trkpt>
      <trkpt lat="41.324295" lon="1.98909833">
        <ele>107.0</ele>
        <time>2019-12-21T08:28:34.349Z</time>
      </trkpt>
      <trkpt lat="41.32425667" lon="1.98904">
        <ele>108.0</ele>
        <time>2019-12-21T08:28:35.354Z</time>
      </trkpt>
      <trkpt lat="41.32425667" lon="1.98904">
        <ele>108.0</ele>
        <time>2019-12-21T08:28:36.349Z</time>
      </trkpt>
      <trkpt lat="41.32421833" lon="1.98899167">
        <ele>108.0</ele>
        <time>2019-12-21T08:28:37.354Z</time>
      </trkpt>
      <trkpt lat="41.32419833" lon="1.98896833">
        <ele>108.0</ele>
        <time>2019-12-21T08:28:38.353Z</time>
      </trkpt>
      <trkpt lat="41.32419833" lon="1.98896833">
        <ele>108.0</ele>
        <time>2019-12-21T08:28:39.350Z</time>
      </trkpt>
      <trkpt lat="41.32415167" lon="1.988925">
        <ele>109.0</ele>
        <time>2019-12-21T08:28:40.355Z</time>
      </trkpt>
      <trkpt lat="41.32415167" lon="1.988925">
        <ele>109.0</ele>
        <time>2019-12-21T08:28:41.349Z</time>
      </trkpt>
      <trkpt lat="41.324105" lon="1.98888167">
        <ele>109.0</ele>
        <time>2019-12-21T08:28:42.355Z</time>
      </trkpt>
      <trkpt lat="41.324105" lon="1.98888167">
        <ele>109.0</ele>
        <time>2019-12-21T08:28:43.349Z</time>
      </trkpt>
      <trkpt lat="41.32405" lon="1.98885667">
        <ele>109.0</ele>
        <time>2019-12-21T08:28:44.357Z</time>
      </trkpt>
      <trkpt lat="41.32405" lon="1.98885667">
        <ele>109.0</ele>
        <time>2019-12-21T08:28:45.349Z</time>
      </trkpt>
      <trkpt lat="41.323995" lon="1.98883">
        <ele>110.0</ele>
        <time>2019-12-21T08:28:46.354Z</time>
      </trkpt>
      <trkpt lat="41.323995" lon="1.98883">
        <ele>110.0</ele>
        <time>2019-12-21T08:28:47.349Z</time>
      </trkpt>
      <trkpt lat="41.32393833" lon="1.98880833">
        <ele>110.0</ele>
        <time>2019-12-21T08:28:48.354Z</time>
      </trkpt>
      <trkpt lat="41.32393833" lon="1.98880833">
        <ele>110.0</ele>
        <time>2019-12-21T08:28:49.349Z</time>
      </trkpt>
      <trkpt lat="41.32388167" lon="1.988795">
        <ele>110.0</ele>
        <time>2019-12-21T08:28:50.372Z</time>
      </trkpt>
      <trkpt lat="41.32388167" lon="1.988795">
        <ele>110.0</ele>
        <time>2019-12-21T08:28:51.355Z</time>
      </trkpt>
      <trkpt lat="41.323825" lon="1.98877">
        <ele>110.0</ele>
        <time>2019-12-21T08:28:52.352Z</time>
      </trkpt>
      <trkpt lat="41.323825" lon="1.98877">
        <ele>110.0</ele>
        <time>2019-12-21T08:28:53.349Z</time>
      </trkpt>
      <trkpt lat="41.32376833" lon="1.98875">
        <ele>111.0</ele>
        <time>2019-12-21T08:28:54.361Z</time>
      </trkpt>
      <trkpt lat="41.32376833" lon="1.98875">
        <ele>111.0</ele>
        <time>2019-12-21T08:28:55.367Z</time>
      </trkpt>
      <trkpt lat="41.32371167" lon="1.988715">
        <ele>111.0</ele>
        <time>2019-12-21T08:28:56.354Z</time>
      </trkpt>
      <trkpt lat="41.32371167" lon="1.988715">
        <ele>111.0</ele>
        <time>2019-12-21T08:28:57.350Z</time>
      </trkpt>
      <trkpt lat="41.32366167" lon="1.98866333">
        <ele>111.0</ele>
        <time>2019-12-21T08:28:58.355Z</time>
      </trkpt>
      <trkpt lat="41.32366167" lon="1.98866333">
        <ele>111.0</ele>
        <time>2019-12-21T08:28:59.350Z</time>
      </trkpt>
      <trkpt lat="41.32363" lon="1.98860833">
        <ele>112.0</ele>
        <time>2019-12-21T08:29:00.355Z</time>
      </trkpt>
      <trkpt lat="41.32363" lon="1.98860833">
        <ele>112.0</ele>
        <time>2019-12-21T08:29:01.349Z</time>
      </trkpt>
      <trkpt lat="41.32360333" lon="1.988545">
        <ele>112.0</ele>
        <time>2019-12-21T08:29:02.363Z</time>
      </trkpt>
      <trkpt lat="41.32360333" lon="1.988545">
        <ele>112.0</ele>
        <time>2019-12-21T08:29:03.350Z</time>
      </trkpt>
      <trkpt lat="41.32357333" lon="1.98847667">
        <ele>112.0</ele>
        <time>2019-12-21T08:29:04.335Z</time>
      </trkpt>
      <trkpt lat="41.32355333" lon="1.98844167">
        <ele>112.0</ele>
        <time>2019-12-21T08:29:05.357Z</time>
      </trkpt>
      <trkpt lat="41.32355333" lon="1.98844167">
        <ele>112.0</ele>
        <time>2019-12-21T08:29:06.349Z</time>
      </trkpt>
      <trkpt lat="41.32352667" lon="1.98837667">
        <ele>113.0</ele>
        <time>2019-12-21T08:29:07.354Z</time>
      </trkpt>
      <trkpt lat="41.32351167" lon="1.98834833">
        <ele>113.0</ele>
        <time>2019-12-21T08:29:08.356Z</time>
      </trkpt>
      <trkpt lat="41.32351167" lon="1.98834833">
        <ele>113.0</ele>
        <time>2019-12-21T08:29:09.350Z</time>
      </trkpt>
      <trkpt lat="41.32348833" lon="1.98829167">
        <ele>114.0</ele>
        <time>2019-12-21T08:29:10.352Z</time>
      </trkpt>
      <trkpt lat="41.32348833" lon="1.98829167">
        <ele>114.0</ele>
        <time>2019-12-21T08:29:11.350Z</time>
      </trkpt>
      <trkpt lat="41.32346833" lon="1.98822667">
        <ele>114.0</ele>
        <time>2019-12-21T08:29:12.366Z</time>
      </trkpt>
      <trkpt lat="41.32346833" lon="1.98822667">
        <ele>114.0</ele>
        <time>2019-12-21T08:29:13.350Z</time>
      </trkpt>
      <trkpt lat="41.323445" lon="1.98816833">
        <ele>115.0</ele>
        <time>2019-12-21T08:29:14.358Z</time>
      </trkpt>
      <trkpt lat="41.323445" lon="1.98816833">
        <ele>115.0</ele>
        <time>2019-12-21T08:29:15.349Z</time>
      </trkpt>
      <trkpt lat="41.32342167" lon="1.98810333">
        <ele>116.0</ele>
        <time>2019-12-21T08:29:16.356Z</time>
      </trkpt>
      <trkpt lat="41.32342167" lon="1.98810333">
        <ele>116.0</ele>
        <time>2019-12-21T08:29:17.349Z</time>
      </trkpt>
      <trkpt lat="41.32339167" lon="1.98805333">
        <ele>116.0</ele>
        <time>2019-12-21T08:29:18.355Z</time>
      </trkpt>
      <trkpt lat="41.32339167" lon="1.98805333">
        <ele>116.0</ele>
        <time>2019-12-21T08:29:19.349Z</time>
      </trkpt>
      <trkpt lat="41.32335167" lon="1.987995">
        <ele>117.0</ele>
        <time>2019-12-21T08:29:20.372Z</time>
      </trkpt>
      <trkpt lat="41.32333333" lon="1.98796333">
        <ele>117.0</ele>
        <time>2019-12-21T08:29:21.355Z</time>
      </trkpt>
      <trkpt lat="41.32333333" lon="1.98796333">
        <ele>117.0</ele>
        <time>2019-12-21T08:29:22.350Z</time>
      </trkpt>
      <trkpt lat="41.32329333" lon="1.98789333">
        <ele>117.0</ele>
        <time>2019-12-21T08:29:23.354Z</time>
      </trkpt>
      <trkpt lat="41.32329333" lon="1.98789333">
        <ele>117.0</ele>
        <time>2019-12-21T08:29:24.349Z</time>
      </trkpt>
      <trkpt lat="41.32327167" lon="1.98783667">
        <ele>118.0</ele>
        <time>2019-12-21T08:29:25.354Z</time>
      </trkpt>
      <trkpt lat="41.32326167" lon="1.98781">
        <ele>118.0</ele>
        <time>2019-12-21T08:29:26.357Z</time>
      </trkpt>
      <trkpt lat="41.32326167" lon="1.98781">
        <ele>118.0</ele>
        <time>2019-12-21T08:29:27.352Z</time>
      </trkpt>
      <trkpt lat="41.32324" lon="1.98776">
        <ele>119.0</ele>
        <time>2019-12-21T08:29:28.356Z</time>
      </trkpt>
      <trkpt lat="41.32324" lon="1.98776">
        <ele>119.0</ele>
        <time>2019-12-21T08:29:29.350Z</time>
      </trkpt>
      <trkpt lat="41.32321833" lon="1.987715">
        <ele>119.0</ele>
        <time>2019-12-21T08:29:30.356Z</time>
      </trkpt>
      <trkpt lat="41.32320667" lon="1.98769333">
        <ele>120.0</ele>
        <time>2019-12-21T08:29:31.355Z</time>
      </trkpt>
      <trkpt lat="41.32320667" lon="1.98769333">
        <ele>120.0</ele>
        <time>2019-12-21T08:29:32.349Z</time>
      </trkpt>
      <trkpt lat="41.32318" lon="1.98765167">
        <ele>120.0</ele>
        <time>2019-12-21T08:29:33.356Z</time>
      </trkpt>
      <trkpt lat="41.32318" lon="1.98765167">
        <ele>120.0</ele>
        <time>2019-12-21T08:29:34.350Z</time>
      </trkpt>
      <trkpt lat="41.32314167" lon="1.98760667">
        <ele>121.0</ele>
        <time>2019-12-21T08:29:35.335Z</time>
      </trkpt>
      <trkpt lat="41.32312333" lon="1.98758333">
        <ele>121.0</ele>
        <time>2019-12-21T08:29:36.358Z</time>
      </trkpt>
      <trkpt lat="41.32312333" lon="1.98758333">
        <ele>121.0</ele>
        <time>2019-12-21T08:29:37.350Z</time>
      </trkpt>
      <trkpt lat="41.32308833" lon="1.98753833">
        <ele>121.0</ele>
        <time>2019-12-21T08:29:38.372Z</time>
      </trkpt>
      <trkpt lat="41.32306833" lon="1.98751333">
        <ele>121.0</ele>
        <time>2019-12-21T08:29:39.355Z</time>
      </trkpt>
      <trkpt lat="41.32305" lon="1.98748667">
        <ele>121.0</ele>
        <time>2019-12-21T08:29:40.356Z</time>
      </trkpt>
      <trkpt lat="41.32305" lon="1.98748667">
        <ele>121.0</ele>
        <time>2019-12-21T08:29:41.352Z</time>
      </trkpt>
      <trkpt lat="41.32301667" lon="1.987425">
        <ele>122.0</ele>
        <time>2019-12-21T08:29:42.355Z</time>
      </trkpt>
      <trkpt lat="41.323005" lon="1.98739">
        <ele>122.0</ele>
        <time>2019-12-21T08:29:43.356Z</time>
      </trkpt>
      <trkpt lat="41.323005" lon="1.98739">
        <ele>122.0</ele>
        <time>2019-12-21T08:29:44.351Z</time>
      </trkpt>
      <trkpt lat="41.32298667" lon="1.987315">
        <ele>122.0</ele>
        <time>2019-12-21T08:29:45.347Z</time>
      </trkpt>
      <trkpt lat="41.32298167" lon="1.98728167">
        <ele>122.0</ele>
        <time>2019-12-21T08:29:46.370Z</time>
      </trkpt>
      <trkpt lat="41.32298167" lon="1.98728167">
        <ele>122.0</ele>
        <time>2019-12-21T08:29:47.352Z</time>
      </trkpt>
      <trkpt lat="41.32297" lon="1.98720667">
        <ele>122.0</ele>
        <time>2019-12-21T08:29:48.355Z</time>
      </trkpt>
      <trkpt lat="41.32297" lon="1.98720667">
        <ele>122.0</ele>
        <time>2019-12-21T08:29:49.350Z</time>
      </trkpt>
      <trkpt lat="41.32295167" lon="1.98713167">
        <ele>122.0</ele>
        <time>2019-12-21T08:29:50.372Z</time>
      </trkpt>
      <trkpt lat="41.322945" lon="1.98709333">
        <ele>123.0</ele>
        <time>2019-12-21T08:29:51.357Z</time>
      </trkpt>
      <trkpt lat="41.322945" lon="1.98709333">
        <ele>123.0</ele>
        <time>2019-12-21T08:29:52.353Z</time>
      </trkpt>
      <trkpt lat="41.32292833" lon="1.98703">
        <ele>123.0</ele>
        <time>2019-12-21T08:29:53.356Z</time>
      </trkpt>
      <trkpt lat="41.32292833" lon="1.98703">
        <ele>123.0</ele>
        <time>2019-12-21T08:29:54.371Z</time>
      </trkpt>
      <trkpt lat="41.32290667" lon="1.98697">
        <ele>123.0</ele>
        <time>2019-12-21T08:29:55.367Z</time>
      </trkpt>
      <trkpt lat="41.32289333" lon="1.98693833">
        <ele>123.0</ele>
        <time>2019-12-21T08:29:56.363Z</time>
      </trkpt>
      <trkpt lat="41.322875" lon="1.98690833">
        <ele>123.0</ele>
        <time>2019-12-21T08:29:57.337Z</time>
      </trkpt>
      <trkpt lat="41.322875" lon="1.98690833">
        <ele>123.0</ele>
        <time>2019-12-21T08:29:58.361Z</time>
      </trkpt>
      <trkpt lat="41.32283833" lon="1.98685167">
        <ele>123.0</ele>
        <time>2019-12-21T08:29:59.356Z</time>
      </trkpt>
      <trkpt lat="41.32281667" lon="1.98682667">
        <ele>123.0</ele>
        <time>2019-12-21T08:30:00.354Z</time>
      </trkpt>
      <trkpt lat="41.32281667" lon="1.98682667">
        <ele>123.0</ele>
        <time>2019-12-21T08:30:01.353Z</time>
      </trkpt>
      <trkpt lat="41.32276833" lon="1.986785">
        <ele>123.0</ele>
        <time>2019-12-21T08:30:02.364Z</time>
      </trkpt>
      <trkpt lat="41.32274667" lon="1.98676833">
        <ele>124.0</ele>
        <time>2019-12-21T08:30:03.355Z</time>
      </trkpt>
      <trkpt lat="41.32274667" lon="1.98676833">
        <ele>124.0</ele>
        <time>2019-12-21T08:30:04.351Z</time>
      </trkpt>
      <trkpt lat="41.32271" lon="1.98673333">
        <ele>124.0</ele>
        <time>2019-12-21T08:30:05.334Z</time>
      </trkpt>
      <trkpt lat="41.322685" lon="1.98671333">
        <ele>124.0</ele>
        <time>2019-12-21T08:30:06.357Z</time>
      </trkpt>
      <trkpt lat="41.322685" lon="1.98671333">
        <ele>124.0</ele>
        <time>2019-12-21T08:30:07.352Z</time>
      </trkpt>
      <trkpt lat="41.32263833" lon="1.98667333">
        <ele>125.0</ele>
        <time>2019-12-21T08:30:08.358Z</time>
      </trkpt>
      <trkpt lat="41.32261667" lon="1.98665333">
        <ele>125.0</ele>
        <time>2019-12-21T08:30:09.355Z</time>
      </trkpt>
      <trkpt lat="41.32261667" lon="1.98665333">
        <ele>125.0</ele>
        <time>2019-12-21T08:30:10.350Z</time>
      </trkpt>
      <trkpt lat="41.322575" lon="1.986615">
        <ele>126.0</ele>
        <time>2019-12-21T08:30:11.355Z</time>
      </trkpt>
      <trkpt lat="41.322575" lon="1.986615">
        <ele>126.0</ele>
        <time>2019-12-21T08:30:12.350Z</time>
      </trkpt>
      <trkpt lat="41.32253167" lon="1.98657167">
        <ele>126.0</ele>
        <time>2019-12-21T08:30:13.355Z</time>
      </trkpt>
      <trkpt lat="41.32253167" lon="1.98657167">
        <ele>126.0</ele>
        <time>2019-12-21T08:30:14.352Z</time>
      </trkpt>
      <trkpt lat="41.32250833" lon="1.98651">
        <ele>126.0</ele>
        <time>2019-12-21T08:30:15.356Z</time>
      </trkpt>
      <trkpt lat="41.32250833" lon="1.98651">
        <ele>126.0</ele>
        <time>2019-12-21T08:30:16.351Z</time>
      </trkpt>
      <trkpt lat="41.32251333" lon="1.98643333">
        <ele>127.0</ele>
        <time>2019-12-21T08:30:17.355Z</time>
      </trkpt>
      <trkpt lat="41.32251667" lon="1.98639667">
        <ele>128.0</ele>
        <time>2019-12-21T08:30:18.355Z</time>
      </trkpt>
      <trkpt lat="41.32251667" lon="1.98639667">
        <ele>128.0</ele>
        <time>2019-12-21T08:30:19.353Z</time>
      </trkpt>
      <trkpt lat="41.32252167" lon="1.98631833">
        <ele>128.0</ele>
        <time>2019-12-21T08:30:20.357Z</time>
      </trkpt>
      <trkpt lat="41.32252333" lon="1.98627667">
        <ele>128.0</ele>
        <time>2019-12-21T08:30:21.353Z</time>
      </trkpt>
      <trkpt lat="41.32252333" lon="1.98627667">
        <ele>128.0</ele>
        <time>2019-12-21T08:30:22.367Z</time>
      </trkpt>
      <trkpt lat="41.322535" lon="1.98619167">
        <ele>128.0</ele>
        <time>2019-12-21T08:30:23.353Z</time>
      </trkpt>
      <trkpt lat="41.322535" lon="1.98615833">
        <ele>128.0</ele>
        <time>2019-12-21T08:30:24.335Z</time>
      </trkpt>
      <trkpt lat="41.322535" lon="1.98615833">
        <ele>128.0</ele>
        <time>2019-12-21T08:30:25.357Z</time>
      </trkpt>
      <trkpt lat="41.32251667" lon="1.9861">
        <ele>129.0</ele>
        <time>2019-12-21T08:30:26.367Z</time>
      </trkpt>
      <trkpt lat="41.32251667" lon="1.9861">
        <ele>129.0</ele>
        <time>2019-12-21T08:30:27.353Z</time>
      </trkpt>
      <trkpt lat="41.32249" lon="1.986045">
        <ele>129.0</ele>
        <time>2019-12-21T08:30:28.356Z</time>
      </trkpt>
      <trkpt lat="41.32248167" lon="1.98601">
        <ele>129.0</ele>
        <time>2019-12-21T08:30:29.358Z</time>
      </trkpt>
      <trkpt lat="41.32248167" lon="1.98601">
        <ele>129.0</ele>
        <time>2019-12-21T08:30:30.353Z</time>
      </trkpt>
      <trkpt lat="41.32245833" lon="1.98594833">
        <ele>129.0</ele>
        <time>2019-12-21T08:30:31.354Z</time>
      </trkpt>
      <trkpt lat="41.32245833" lon="1.98594833">
        <ele>129.0</ele>
        <time>2019-12-21T08:30:32.352Z</time>
      </trkpt>
      <trkpt lat="41.32244167" lon="1.98588167">
        <ele>130.0</ele>
        <time>2019-12-21T08:30:33.356Z</time>
      </trkpt>
      <trkpt lat="41.32244167" lon="1.98588167">
        <ele>130.0</ele>
        <time>2019-12-21T08:30:34.351Z</time>
      </trkpt>
      <trkpt lat="41.32243333" lon="1.98581333">
        <ele>130.0</ele>
        <time>2019-12-21T08:30:35.355Z</time>
      </trkpt>
      <trkpt lat="41.32243333" lon="1.98581333">
        <ele>130.0</ele>
        <time>2019-12-21T08:30:36.350Z</time>
      </trkpt>
      <trkpt lat="41.32243833" lon="1.98575333">
        <ele>131.0</ele>
        <time>2019-12-21T08:30:37.355Z</time>
      </trkpt>
      <trkpt lat="41.32243833" lon="1.98575333">
        <ele>131.0</ele>
        <time>2019-12-21T08:30:38.353Z</time>
      </trkpt>
      <trkpt lat="41.32248167" lon="1.98571333">
        <ele>132.0</ele>
        <time>2019-12-21T08:30:39.356Z</time>
      </trkpt>
      <trkpt lat="41.32248167" lon="1.98571333">
        <ele>132.0</ele>
        <time>2019-12-21T08:30:40.351Z</time>
      </trkpt>
      <trkpt lat="41.322525" lon="1.98573167">
        <ele>132.0</ele>
        <time>2019-12-21T08:30:41.356Z</time>
      </trkpt>
      <trkpt lat="41.322525" lon="1.98573167">
        <ele>132.0</ele>
        <time>2019-12-21T08:30:42.353Z</time>
      </trkpt>
      <trkpt lat="41.32255667" lon="1.98577833">
        <ele>133.0</ele>
        <time>2019-12-21T08:30:43.356Z</time>
      </trkpt>
      <trkpt lat="41.32255667" lon="1.98577833">
        <ele>133.0</ele>
        <time>2019-12-21T08:30:44.352Z</time>
      </trkpt>
      <trkpt lat="41.32257667" lon="1.98582333">
        <ele>133.0</ele>
        <time>2019-12-21T08:30:45.355Z</time>
      </trkpt>
      <trkpt lat="41.32257667" lon="1.98582333">
        <ele>133.0</ele>
        <time>2019-12-21T08:30:46.351Z</time>
      </trkpt>
      <trkpt lat="41.32259833" lon="1.98585667">
        <ele>134.0</ele>
        <time>2019-12-21T08:30:47.355Z</time>
      </trkpt>
      <trkpt lat="41.32261" lon="1.98586833">
        <ele>134.0</ele>
        <time>2019-12-21T08:30:48.355Z</time>
      </trkpt>
      <trkpt lat="41.32261" lon="1.98586833">
        <ele>134.0</ele>
        <time>2019-12-21T08:30:49.350Z</time>
      </trkpt>
      <trkpt lat="41.32264" lon="1.98589">
        <ele>135.0</ele>
        <time>2019-12-21T08:30:50.372Z</time>
      </trkpt>
      <trkpt lat="41.32265833" lon="1.98589667">
        <ele>135.0</ele>
        <time>2019-12-21T08:30:51.355Z</time>
      </trkpt>
      <trkpt lat="41.32265833" lon="1.98589667">
        <ele>135.0</ele>
        <time>2019-12-21T08:30:52.351Z</time>
      </trkpt>
      <trkpt lat="41.32270333" lon="1.9859">
        <ele>135.0</ele>
        <time>2019-12-21T08:30:53.356Z</time>
      </trkpt>
      <trkpt lat="41.32272833" lon="1.98588833">
        <ele>135.0</ele>
        <time>2019-12-21T08:30:54.371Z</time>
      </trkpt>
      <trkpt lat="41.32272833" lon="1.98588833">
        <ele>135.0</ele>
        <time>2019-12-21T08:30:55.367Z</time>
      </trkpt>
      <trkpt lat="41.32276667" lon="1.985855">
        <ele>135.0</ele>
        <time>2019-12-21T08:30:56.356Z</time>
      </trkpt>
      <trkpt lat="41.32276667" lon="1.985855">
        <ele>135.0</ele>
        <time>2019-12-21T08:30:57.351Z</time>
      </trkpt>
      <trkpt lat="41.32278833" lon="1.98581167">
        <ele>135.0</ele>
        <time>2019-12-21T08:30:58.357Z</time>
      </trkpt>
      <trkpt lat="41.32279833" lon="1.98578333">
        <ele>136.0</ele>
        <time>2019-12-21T08:30:59.357Z</time>
      </trkpt>
      <trkpt lat="41.32279833" lon="1.98578333">
        <ele>136.0</ele>
        <time>2019-12-21T08:31:00.353Z</time>
      </trkpt>
      <trkpt lat="41.32280667" lon="1.98573333">
        <ele>136.0</ele>
        <time>2019-12-21T08:31:01.356Z</time>
      </trkpt>
      <trkpt lat="41.32280667" lon="1.98573333">
        <ele>136.0</ele>
        <time>2019-12-21T08:31:02.353Z</time>
      </trkpt>
      <trkpt lat="41.32279833" lon="1.98567667">
        <ele>136.0</ele>
        <time>2019-12-21T08:31:03.356Z</time>
      </trkpt>
      <trkpt lat="41.32279833" lon="1.98567667">
        <ele>136.0</ele>
        <time>2019-12-21T08:31:04.351Z</time>
      </trkpt>
      <trkpt lat="41.32279333" lon="1.98562333">
        <ele>136.0</ele>
        <time>2019-12-21T08:31:05.356Z</time>
      </trkpt>
      <trkpt lat="41.32279333" lon="1.98562333">
        <ele>136.0</ele>
        <time>2019-12-21T08:31:06.354Z</time>
      </trkpt>
      <trkpt lat="41.32278667" lon="1.98557">
        <ele>135.0</ele>
        <time>2019-12-21T08:31:07.356Z</time>
      </trkpt>
      <trkpt lat="41.32278667" lon="1.98557">
        <ele>135.0</ele>
        <time>2019-12-21T08:31:08.353Z</time>
      </trkpt>
      <trkpt lat="41.32277667" lon="1.98552167">
        <ele>136.0</ele>
        <time>2019-12-21T08:31:09.356Z</time>
      </trkpt>
      <trkpt lat="41.32277667" lon="1.98552167">
        <ele>136.0</ele>
        <time>2019-12-21T08:31:10.350Z</time>
      </trkpt>
      <trkpt lat="41.322775" lon="1.985475">
        <ele>137.0</ele>
        <time>2019-12-21T08:31:11.356Z</time>
      </trkpt>
      <trkpt lat="41.322775" lon="1.985475">
        <ele>137.0</ele>
        <time>2019-12-21T08:31:12.351Z</time>
      </trkpt>
      <trkpt lat="41.322765" lon="1.98543">
        <ele>137.0</ele>
        <time>2019-12-21T08:31:13.357Z</time>
      </trkpt>
      <trkpt lat="41.322765" lon="1.98543">
        <ele>137.0</ele>
        <time>2019-12-21T08:31:14.353Z</time>
      </trkpt>
      <trkpt lat="41.32275333" lon="1.98538333">
        <ele>138.0</ele>
        <time>2019-12-21T08:31:15.366Z</time>
      </trkpt>
      <trkpt lat="41.32275333" lon="1.98538333">
        <ele>138.0</ele>
        <time>2019-12-21T08:31:16.351Z</time>
      </trkpt>
      <trkpt lat="41.32274167" lon="1.985335">
        <ele>139.0</ele>
        <time>2019-12-21T08:31:17.358Z</time>
      </trkpt>
      <trkpt lat="41.32274167" lon="1.985335">
        <ele>139.0</ele>
        <time>2019-12-21T08:31:18.353Z</time>
      </trkpt>
      <trkpt lat="41.32273667" lon="1.985285">
        <ele>139.0</ele>
        <time>2019-12-21T08:31:19.356Z</time>
      </trkpt>
      <trkpt lat="41.32273667" lon="1.985285">
        <ele>139.0</ele>
        <time>2019-12-21T08:31:20.352Z</time>
      </trkpt>
      <trkpt lat="41.32273333" lon="1.98523167">
        <ele>140.0</ele>
        <time>2019-12-21T08:31:21.354Z</time>
      </trkpt>
      <trkpt lat="41.32273333" lon="1.98523167">
        <ele>140.0</ele>
        <time>2019-12-21T08:31:22.350Z</time>
      </trkpt>
      <trkpt lat="41.32273167" lon="1.985175">
        <ele>140.0</ele>
        <time>2019-12-21T08:31:23.355Z</time>
      </trkpt>
      <trkpt lat="41.32273667" lon="1.98515">
        <ele>140.0</ele>
        <time>2019-12-21T08:31:24.356Z</time>
      </trkpt>
      <trkpt lat="41.32273667" lon="1.98515">
        <ele>140.0</ele>
        <time>2019-12-21T08:31:25.350Z</time>
      </trkpt>
      <trkpt lat="41.32274833" lon="1.98509">
        <ele>141.0</ele>
        <time>2019-12-21T08:31:26.356Z</time>
      </trkpt>
      <trkpt lat="41.32275667" lon="1.98505833">
        <ele>141.0</ele>
        <time>2019-12-21T08:31:27.355Z</time>
      </trkpt>
      <trkpt lat="41.32275667" lon="1.98505833">
        <ele>141.0</ele>
        <time>2019-12-21T08:31:28.352Z</time>
      </trkpt>
      <trkpt lat="41.32277167" lon="1.98499833">
        <ele>141.0</ele>
        <time>2019-12-21T08:31:29.356Z</time>
      </trkpt>
      <trkpt lat="41.32277167" lon="1.98499833">
        <ele>141.0</ele>
        <time>2019-12-21T08:31:30.353Z</time>
      </trkpt>
      <trkpt lat="41.32278" lon="1.98494833">
        <ele>142.0</ele>
        <time>2019-12-21T08:31:31.354Z</time>
      </trkpt>
      <trkpt lat="41.32278" lon="1.98494833">
        <ele>142.0</ele>
        <time>2019-12-21T08:31:32.369Z</time>
      </trkpt>
      <trkpt lat="41.32278667" lon="1.98489833">
        <ele>143.0</ele>
        <time>2019-12-21T08:31:33.356Z</time>
      </trkpt>
      <trkpt lat="41.32278667" lon="1.98489833">
        <ele>143.0</ele>
        <time>2019-12-21T08:31:34.351Z</time>
      </trkpt>
      <trkpt lat="41.32279833" lon="1.98485333">
        <ele>143.0</ele>
        <time>2019-12-21T08:31:35.356Z</time>
      </trkpt>
      <trkpt lat="41.32279833" lon="1.98485333">
        <ele>143.0</ele>
        <time>2019-12-21T08:31:36.351Z</time>
      </trkpt>
      <trkpt lat="41.32281" lon="1.9848">
        <ele>144.0</ele>
        <time>2019-12-21T08:31:37.356Z</time>
      </trkpt>
      <trkpt lat="41.32281" lon="1.9848">
        <ele>144.0</ele>
        <time>2019-12-21T08:31:38.352Z</time>
      </trkpt>
      <trkpt lat="41.32282" lon="1.98474667">
        <ele>145.0</ele>
        <time>2019-12-21T08:31:39.357Z</time>
      </trkpt>
      <trkpt lat="41.32282" lon="1.98474667">
        <ele>145.0</ele>
        <time>2019-12-21T08:31:40.351Z</time>
      </trkpt>
      <trkpt lat="41.32282667" lon="1.98470167">
        <ele>147.0</ele>
        <time>2019-12-21T08:31:41.356Z</time>
      </trkpt>
      <trkpt lat="41.32283" lon="1.98468">
        <ele>147.0</ele>
        <time>2019-12-21T08:31:42.367Z</time>
      </trkpt>
      <trkpt lat="41.32283667" lon="1.98465833">
        <ele>148.0</ele>
        <time>2019-12-21T08:31:43.355Z</time>
      </trkpt>
      <trkpt lat="41.32283667" lon="1.98465833">
        <ele>148.0</ele>
        <time>2019-12-21T08:31:44.337Z</time>
      </trkpt>
      <trkpt lat="41.32284667" lon="1.984615">
        <ele>149.0</ele>
        <time>2019-12-21T08:31:45.361Z</time>
      </trkpt>
      <trkpt lat="41.32284667" lon="1.984615">
        <ele>149.0</ele>
        <time>2019-12-21T08:31:46.347Z</time>
      </trkpt>
      <trkpt lat="41.32285833" lon="1.98457333">
        <ele>150.0</ele>
        <time>2019-12-21T08:31:47.371Z</time>
      </trkpt>
      <trkpt lat="41.32285833" lon="1.98457333">
        <ele>150.0</ele>
        <time>2019-12-21T08:31:48.353Z</time>
      </trkpt>
      <trkpt lat="41.32286833" lon="1.984535">
        <ele>151.0</ele>
        <time>2019-12-21T08:31:49.357Z</time>
      </trkpt>
      <trkpt lat="41.32286833" lon="1.984535">
        <ele>151.0</ele>
        <time>2019-12-21T08:31:50.352Z</time>
      </trkpt>
      <trkpt lat="41.32288167" lon="1.98448833">
        <ele>152.0</ele>
        <time>2019-12-21T08:31:51.356Z</time>
      </trkpt>
      <trkpt lat="41.32288167" lon="1.98448833">
        <ele>152.0</ele>
        <time>2019-12-21T08:31:52.351Z</time>
      </trkpt>
      <trkpt lat="41.32289667" lon="1.98444333">
        <ele>153.0</ele>
        <time>2019-12-21T08:31:53.356Z</time>
      </trkpt>
      <trkpt lat="41.32289667" lon="1.98444333">
        <ele>153.0</ele>
        <time>2019-12-21T08:31:54.352Z</time>
      </trkpt>
      <trkpt lat="41.32291667" lon="1.98439667">
        <ele>154.0</ele>
        <time>2019-12-21T08:31:55.356Z</time>
      </trkpt>
      <trkpt lat="41.32291667" lon="1.98439667">
        <ele>154.0</ele>
        <time>2019-12-21T08:31:56.353Z</time>
      </trkpt>
      <trkpt lat="41.32293833" lon="1.98434167">
        <ele>154.0</ele>
        <time>2019-12-21T08:31:57.356Z</time>
      </trkpt>
      <trkpt lat="41.32295167" lon="1.98431">
        <ele>155.0</ele>
        <time>2019-12-21T08:31:58.355Z</time>
      </trkpt>
      <trkpt lat="41.32295167" lon="1.98431">
        <ele>155.0</ele>
        <time>2019-12-21T08:31:59.351Z</time>
      </trkpt>
      <trkpt lat="41.32297667" lon="1.98425167">
        <ele>155.0</ele>
        <time>2019-12-21T08:32:00.356Z</time>
      </trkpt>
      <trkpt lat="41.32297667" lon="1.98425167">
        <ele>155.0</ele>
        <time>2019-12-21T08:32:01.351Z</time>
      </trkpt>
      <trkpt lat="41.32300667" lon="1.98419333">
        <ele>156.0</ele>
        <time>2019-12-21T08:32:02.334Z</time>
      </trkpt>
      <trkpt lat="41.32300667" lon="1.98419333">
        <ele>156.0</ele>
        <time>2019-12-21T08:32:03.356Z</time>
      </trkpt>
      <trkpt lat="41.32303667" lon="1.98413167">
        <ele>156.0</ele>
        <time>2019-12-21T08:32:04.357Z</time>
      </trkpt>
      <trkpt lat="41.32304833" lon="1.98410167">
        <ele>156.0</ele>
        <time>2019-12-21T08:32:05.357Z</time>
      </trkpt>
      <trkpt lat="41.32304833" lon="1.98410167">
        <ele>156.0</ele>
        <time>2019-12-21T08:32:06.351Z</time>
      </trkpt>
      <trkpt lat="41.323065" lon="1.98404">
        <ele>156.0</ele>
        <time>2019-12-21T08:32:07.356Z</time>
      </trkpt>
      <trkpt lat="41.32307" lon="1.98401">
        <ele>157.0</ele>
        <time>2019-12-21T08:32:08.359Z</time>
      </trkpt>
      <trkpt lat="41.32307333" lon="1.983975">
        <ele>157.0</ele>
        <time>2019-12-21T08:32:09.356Z</time>
      </trkpt>
      <trkpt lat="41.32307333" lon="1.983975">
        <ele>157.0</ele>
        <time>2019-12-21T08:32:10.355Z</time>
      </trkpt>
      <trkpt lat="41.323075" lon="1.983915">
        <ele>158.0</ele>
        <time>2019-12-21T08:32:11.356Z</time>
      </trkpt>
      <trkpt lat="41.323075" lon="1.983915">
        <ele>158.0</ele>
        <time>2019-12-21T08:32:12.352Z</time>
      </trkpt>
      <trkpt lat="41.32307667" lon="1.98385833">
        <ele>158.0</ele>
        <time>2019-12-21T08:32:13.356Z</time>
      </trkpt>
      <trkpt lat="41.323085" lon="1.98382667">
        <ele>158.0</ele>
        <time>2019-12-21T08:32:14.338Z</time>
      </trkpt>
      <trkpt lat="41.323085" lon="1.98382667">
        <ele>158.0</ele>
        <time>2019-12-21T08:32:15.360Z</time>
      </trkpt>
      <trkpt lat="41.32310333" lon="1.98377333">
        <ele>158.0</ele>
        <time>2019-12-21T08:32:16.356Z</time>
      </trkpt>
      <trkpt lat="41.32310333" lon="1.98377333">
        <ele>158.0</ele>
        <time>2019-12-21T08:32:17.351Z</time>
      </trkpt>
      <trkpt lat="41.32313333" lon="1.98372167">
        <ele>158.0</ele>
        <time>2019-12-21T08:32:18.356Z</time>
      </trkpt>
      <trkpt lat="41.32313333" lon="1.98372167">
        <ele>158.0</ele>
        <time>2019-12-21T08:32:19.351Z</time>
      </trkpt>
      <trkpt lat="41.32317" lon="1.983665">
        <ele>158.0</ele>
        <time>2019-12-21T08:32:20.333Z</time>
      </trkpt>
      <trkpt lat="41.32317" lon="1.983665">
        <ele>158.0</ele>
        <time>2019-12-21T08:32:21.355Z</time>
      </trkpt>
      <trkpt lat="41.32320667" lon="1.98361333">
        <ele>158.0</ele>
        <time>2019-12-21T08:32:22.356Z</time>
      </trkpt>
      <trkpt lat="41.32320667" lon="1.98361333">
        <ele>158.0</ele>
        <time>2019-12-21T08:32:23.352Z</time>
      </trkpt>
      <trkpt lat="41.32324667" lon="1.98356333">
        <ele>158.0</ele>
        <time>2019-12-21T08:32:24.354Z</time>
      </trkpt>
      <trkpt lat="41.32324667" lon="1.98356333">
        <ele>158.0</ele>
        <time>2019-12-21T08:32:25.351Z</time>
      </trkpt>
      <trkpt lat="41.32328833" lon="1.98351167">
        <ele>158.0</ele>
        <time>2019-12-21T08:32:26.333Z</time>
      </trkpt>
      <trkpt lat="41.32328833" lon="1.98351167">
        <ele>158.0</ele>
        <time>2019-12-21T08:32:27.368Z</time>
      </trkpt>
      <trkpt lat="41.32333833" lon="1.98346167">
        <ele>158.0</ele>
        <time>2019-12-21T08:32:28.357Z</time>
      </trkpt>
      <trkpt lat="41.32333833" lon="1.98346167">
        <ele>158.0</ele>
        <time>2019-12-21T08:32:29.351Z</time>
      </trkpt>
      <trkpt lat="41.32338667" lon="1.983415">
        <ele>158.0</ele>
        <time>2019-12-21T08:32:30.356Z</time>
      </trkpt>
      <trkpt lat="41.32338667" lon="1.983415">
        <ele>158.0</ele>
        <time>2019-12-21T08:32:31.351Z</time>
      </trkpt>
      <trkpt lat="41.32343333" lon="1.98336833">
        <ele>158.0</ele>
        <time>2019-12-21T08:32:32.363Z</time>
      </trkpt>
      <trkpt lat="41.32343333" lon="1.98336833">
        <ele>158.0</ele>
        <time>2019-12-21T08:32:33.351Z</time>
      </trkpt>
      <trkpt lat="41.32346833" lon="1.98332833">
        <ele>158.0</ele>
        <time>2019-12-21T08:32:34.359Z</time>
      </trkpt>
      <trkpt lat="41.32346833" lon="1.98332833">
        <ele>158.0</ele>
        <time>2019-12-21T08:32:35.351Z</time>
      </trkpt>
      <trkpt lat="41.32351333" lon="1.98328667">
        <ele>159.0</ele>
        <time>2019-12-21T08:32:36.356Z</time>
      </trkpt>
      <trkpt lat="41.32351333" lon="1.98328667">
        <ele>159.0</ele>
        <time>2019-12-21T08:32:37.351Z</time>
      </trkpt>
      <trkpt lat="41.32355833" lon="1.98324333">
        <ele>159.0</ele>
        <time>2019-12-21T08:32:38.333Z</time>
      </trkpt>
      <trkpt lat="41.32358" lon="1.98322833">
        <ele>159.0</ele>
        <time>2019-12-21T08:32:39.358Z</time>
      </trkpt>
      <trkpt lat="41.32358" lon="1.98322833">
        <ele>159.0</ele>
        <time>2019-12-21T08:32:40.351Z</time>
      </trkpt>
      <trkpt lat="41.323625" lon="1.98319667">
        <ele>159.0</ele>
        <time>2019-12-21T08:32:41.356Z</time>
      </trkpt>
      <trkpt lat="41.323625" lon="1.98319667">
        <ele>159.0</ele>
        <time>2019-12-21T08:32:42.351Z</time>
      </trkpt>
      <trkpt lat="41.32366" lon="1.98316833">
        <ele>160.0</ele>
        <time>2019-12-21T08:32:43.357Z</time>
      </trkpt>
      <trkpt lat="41.32367833" lon="1.98315167">
        <ele>160.0</ele>
        <time>2019-12-21T08:32:44.360Z</time>
      </trkpt>
      <trkpt lat="41.32367833" lon="1.98315167">
        <ele>160.0</ele>
        <time>2019-12-21T08:32:45.351Z</time>
      </trkpt>
      <trkpt lat="41.32371" lon="1.98311667">
        <ele>160.0</ele>
        <time>2019-12-21T08:32:46.357Z</time>
      </trkpt>
      <trkpt lat="41.32371" lon="1.98311667">
        <ele>160.0</ele>
        <time>2019-12-21T08:32:47.351Z</time>
      </trkpt>
      <trkpt lat="41.32373667" lon="1.983075">
        <ele>159.0</ele>
        <time>2019-12-21T08:32:48.356Z</time>
      </trkpt>
      <trkpt lat="41.32373667" lon="1.983075">
        <ele>159.0</ele>
        <time>2019-12-21T08:32:49.351Z</time>
      </trkpt>
      <trkpt lat="41.32377833" lon="1.98302167">
        <ele>159.0</ele>
        <time>2019-12-21T08:32:50.334Z</time>
      </trkpt>
      <trkpt lat="41.32377833" lon="1.98302167">
        <ele>159.0</ele>
        <time>2019-12-21T08:32:51.356Z</time>
      </trkpt>
      <trkpt lat="41.32381" lon="1.98295667">
        <ele>159.0</ele>
        <time>2019-12-21T08:32:52.367Z</time>
      </trkpt>
      <trkpt lat="41.32381" lon="1.98295667">
        <ele>159.0</ele>
        <time>2019-12-21T08:32:53.351Z</time>
      </trkpt>
      <trkpt lat="41.32382" lon="1.98287333">
        <ele>159.0</ele>
        <time>2019-12-21T08:32:54.357Z</time>
      </trkpt>
      <trkpt lat="41.32382" lon="1.98287333">
        <ele>159.0</ele>
        <time>2019-12-21T08:32:55.351Z</time>
      </trkpt>
      <trkpt lat="41.32381667" lon="1.982795">
        <ele>159.0</ele>
        <time>2019-12-21T08:32:56.359Z</time>
      </trkpt>
      <trkpt lat="41.32381833" lon="1.982755">
        <ele>159.0</ele>
        <time>2019-12-21T08:32:57.358Z</time>
      </trkpt>
      <trkpt lat="41.32381833" lon="1.982755">
        <ele>159.0</ele>
        <time>2019-12-21T08:32:58.353Z</time>
      </trkpt>
      <trkpt lat="41.32383167" lon="1.98267667">
        <ele>159.0</ele>
        <time>2019-12-21T08:32:59.357Z</time>
      </trkpt>
      <trkpt lat="41.32383167" lon="1.98267667">
        <ele>159.0</ele>
        <time>2019-12-21T08:33:00.351Z</time>
      </trkpt>
      <trkpt lat="41.32383833" lon="1.98261333">
        <ele>160.0</ele>
        <time>2019-12-21T08:33:01.356Z</time>
      </trkpt>
      <trkpt lat="41.32384" lon="1.98258167">
        <ele>160.0</ele>
        <time>2019-12-21T08:33:02.356Z</time>
      </trkpt>
      <trkpt lat="41.32384" lon="1.98258167">
        <ele>160.0</ele>
        <time>2019-12-21T08:33:03.351Z</time>
      </trkpt>
      <trkpt lat="41.323845" lon="1.982525">
        <ele>160.0</ele>
        <time>2019-12-21T08:33:04.336Z</time>
      </trkpt>
      <trkpt lat="41.323845" lon="1.982525">
        <ele>160.0</ele>
        <time>2019-12-21T08:33:05.358Z</time>
      </trkpt>
      <trkpt lat="41.32384667" lon="1.98247167">
        <ele>161.0</ele>
        <time>2019-12-21T08:33:06.359Z</time>
      </trkpt>
      <trkpt lat="41.32384667" lon="1.98247167">
        <ele>161.0</ele>
        <time>2019-12-21T08:33:07.351Z</time>
      </trkpt>
      <trkpt lat="41.32383" lon="1.98242">
        <ele>161.0</ele>
        <time>2019-12-21T08:33:08.334Z</time>
      </trkpt>
      <trkpt lat="41.32383" lon="1.98242">
        <ele>161.0</ele>
        <time>2019-12-21T08:33:09.371Z</time>
      </trkpt>
      <trkpt lat="41.32381" lon="1.98236667">
        <ele>162.0</ele>
        <time>2019-12-21T08:33:10.357Z</time>
      </trkpt>
      <trkpt lat="41.32379667" lon="1.98234167">
        <ele>162.0</ele>
        <time>2019-12-21T08:33:11.357Z</time>
      </trkpt>
      <trkpt lat="41.32379667" lon="1.98234167">
        <ele>162.0</ele>
        <time>2019-12-21T08:33:12.351Z</time>
      </trkpt>
      <trkpt lat="41.32376167" lon="1.9823">
        <ele>163.0</ele>
        <time>2019-12-21T08:33:13.356Z</time>
      </trkpt>
      <trkpt lat="41.323745" lon="1.98228">
        <ele>163.0</ele>
        <time>2019-12-21T08:33:14.360Z</time>
      </trkpt>
      <trkpt lat="41.323745" lon="1.98228">
        <ele>163.0</ele>
        <time>2019-12-21T08:33:15.351Z</time>
      </trkpt>
      <trkpt lat="41.32371167" lon="1.98224833">
        <ele>163.0</ele>
        <time>2019-12-21T08:33:16.354Z</time>
      </trkpt>
      <trkpt lat="41.32371167" lon="1.98224833">
        <ele>163.0</ele>
        <time>2019-12-21T08:33:17.354Z</time>
      </trkpt>
      <trkpt lat="41.32367833" lon="1.98220333">
        <ele>163.0</ele>
        <time>2019-12-21T08:33:18.357Z</time>
      </trkpt>
      <trkpt lat="41.32367833" lon="1.98220333">
        <ele>163.0</ele>
        <time>2019-12-21T08:33:19.351Z</time>
      </trkpt>
      <trkpt lat="41.32365333" lon="1.982155">
        <ele>164.0</ele>
        <time>2019-12-21T08:33:20.334Z</time>
      </trkpt>
      <trkpt lat="41.32365333" lon="1.982155">
        <ele>164.0</ele>
        <time>2019-12-21T08:33:21.355Z</time>
      </trkpt>
      <trkpt lat="41.32363" lon="1.98210167">
        <ele>165.0</ele>
        <time>2019-12-21T08:33:22.363Z</time>
      </trkpt>
      <trkpt lat="41.32363" lon="1.98210167">
        <ele>165.0</ele>
        <time>2019-12-21T08:33:23.351Z</time>
      </trkpt>
      <trkpt lat="41.32361667" lon="1.98204">
        <ele>166.0</ele>
        <time>2019-12-21T08:33:24.356Z</time>
      </trkpt>
      <trkpt lat="41.32361667" lon="1.98204">
        <ele>166.0</ele>
        <time>2019-12-21T08:33:25.351Z</time>
      </trkpt>
      <trkpt lat="41.32361167" lon="1.98198333">
        <ele>167.0</ele>
        <time>2019-12-21T08:33:26.334Z</time>
      </trkpt>
      <trkpt lat="41.32361167" lon="1.98198333">
        <ele>167.0</ele>
        <time>2019-12-21T08:33:27.335Z</time>
      </trkpt>
      <trkpt lat="41.323615" lon="1.98193">
        <ele>168.0</ele>
        <time>2019-12-21T08:33:28.359Z</time>
      </trkpt>
      <trkpt lat="41.32361667" lon="1.98189667">
        <ele>169.0</ele>
        <time>2019-12-21T08:33:29.357Z</time>
      </trkpt>
      <trkpt lat="41.32361667" lon="1.98189667">
        <ele>169.0</ele>
        <time>2019-12-21T08:33:30.352Z</time>
      </trkpt>
      <trkpt lat="41.32362833" lon="1.98184">
        <ele>169.0</ele>
        <time>2019-12-21T08:33:31.358Z</time>
      </trkpt>
      <trkpt lat="41.323645" lon="1.98180833">
        <ele>169.0</ele>
        <time>2019-12-21T08:33:32.367Z</time>
      </trkpt>
      <trkpt lat="41.323645" lon="1.98180833">
        <ele>169.0</ele>
        <time>2019-12-21T08:33:33.352Z</time>
      </trkpt>
      <trkpt lat="41.32368" lon="1.98175333">
        <ele>170.0</ele>
        <time>2019-12-21T08:33:34.337Z</time>
      </trkpt>
      <trkpt lat="41.32368" lon="1.98175333">
        <ele>170.0</ele>
        <time>2019-12-21T08:33:35.358Z</time>
      </trkpt>
      <trkpt lat="41.323725" lon="1.98169667">
        <ele>170.0</ele>
        <time>2019-12-21T08:33:36.356Z</time>
      </trkpt>
      <trkpt lat="41.323725" lon="1.98169667">
        <ele>170.0</ele>
        <time>2019-12-21T08:33:37.352Z</time>
      </trkpt>
      <trkpt lat="41.32376333" lon="1.981635">
        <ele>170.0</ele>
        <time>2019-12-21T08:33:38.367Z</time>
      </trkpt>
      <trkpt lat="41.32376333" lon="1.981635">
        <ele>170.0</ele>
        <time>2019-12-21T08:33:39.352Z</time>
      </trkpt>
      <trkpt lat="41.32381333" lon="1.98155833">
        <ele>170.0</ele>
        <time>2019-12-21T08:33:40.358Z</time>
      </trkpt>
      <trkpt lat="41.32381333" lon="1.98155833">
        <ele>170.0</ele>
        <time>2019-12-21T08:33:41.351Z</time>
      </trkpt>
      <trkpt lat="41.32386" lon="1.98146333">
        <ele>170.0</ele>
        <time>2019-12-21T08:33:42.364Z</time>
      </trkpt>
      <trkpt lat="41.32386" lon="1.98146333">
        <ele>170.0</ele>
        <time>2019-12-21T08:33:43.354Z</time>
      </trkpt>
      <trkpt lat="41.323895" lon="1.98136667">
        <ele>170.0</ele>
        <time>2019-12-21T08:33:44.359Z</time>
      </trkpt>
      <trkpt lat="41.323895" lon="1.98136667">
        <ele>170.0</ele>
        <time>2019-12-21T08:33:45.351Z</time>
      </trkpt>
      <trkpt lat="41.32391333" lon="1.98127">
        <ele>170.0</ele>
        <time>2019-12-21T08:33:46.356Z</time>
      </trkpt>
      <trkpt lat="41.32391333" lon="1.98127">
        <ele>170.0</ele>
        <time>2019-12-21T08:33:47.351Z</time>
      </trkpt>
      <trkpt lat="41.32391667" lon="1.98118833">
        <ele>170.0</ele>
        <time>2019-12-21T08:33:48.356Z</time>
      </trkpt>
      <trkpt lat="41.32391667" lon="1.98118833">
        <ele>170.0</ele>
        <time>2019-12-21T08:33:49.352Z</time>
      </trkpt>
      <trkpt lat="41.323905" lon="1.98110333">
        <ele>170.0</ele>
        <time>2019-12-21T08:33:50.334Z</time>
      </trkpt>
      <trkpt lat="41.323905" lon="1.98110333">
        <ele>170.0</ele>
        <time>2019-12-21T08:33:51.355Z</time>
      </trkpt>
      <trkpt lat="41.32389167" lon="1.98104">
        <ele>170.0</ele>
        <time>2019-12-21T08:33:52.370Z</time>
      </trkpt>
      <trkpt lat="41.32389167" lon="1.98104">
        <ele>170.0</ele>
        <time>2019-12-21T08:33:53.352Z</time>
      </trkpt>
      <trkpt lat="41.32388167" lon="1.98096167">
        <ele>170.0</ele>
        <time>2019-12-21T08:33:54.357Z</time>
      </trkpt>
      <trkpt lat="41.32388167" lon="1.98096167">
        <ele>170.0</ele>
        <time>2019-12-21T08:33:55.352Z</time>
      </trkpt>
      <trkpt lat="41.32388" lon="1.98088667">
        <ele>170.0</ele>
        <time>2019-12-21T08:33:56.359Z</time>
      </trkpt>
      <trkpt lat="41.32388" lon="1.98088667">
        <ele>170.0</ele>
        <time>2019-12-21T08:33:57.355Z</time>
      </trkpt>
      <trkpt lat="41.32387667" lon="1.98082">
        <ele>170.0</ele>
        <time>2019-12-21T08:33:58.354Z</time>
      </trkpt>
      <trkpt lat="41.32387667" lon="1.98082">
        <ele>170.0</ele>
        <time>2019-12-21T08:33:59.339Z</time>
      </trkpt>
      <trkpt lat="41.32386167" lon="1.98074833">
        <ele>170.0</ele>
        <time>2019-12-21T08:34:00.362Z</time>
      </trkpt>
      <trkpt lat="41.32386167" lon="1.98074833">
        <ele>170.0</ele>
        <time>2019-12-21T08:34:01.351Z</time>
      </trkpt>
      <trkpt lat="41.32383" lon="1.98068833">
        <ele>170.0</ele>
        <time>2019-12-21T08:34:02.334Z</time>
      </trkpt>
      <trkpt lat="41.32383" lon="1.98068833">
        <ele>170.0</ele>
        <time>2019-12-21T08:34:03.355Z</time>
      </trkpt>
      <trkpt lat="41.32380833" lon="1.98063">
        <ele>171.0</ele>
        <time>2019-12-21T08:34:04.358Z</time>
      </trkpt>
      <trkpt lat="41.32380833" lon="1.98063">
        <ele>171.0</ele>
        <time>2019-12-21T08:34:05.351Z</time>
      </trkpt>
      <trkpt lat="41.32380333" lon="1.98056">
        <ele>171.0</ele>
        <time>2019-12-21T08:34:06.357Z</time>
      </trkpt>
      <trkpt lat="41.32381167" lon="1.98051833">
        <ele>171.0</ele>
        <time>2019-12-21T08:34:07.354Z</time>
      </trkpt>
      <trkpt lat="41.32382667" lon="1.98048167">
        <ele>170.0</ele>
        <time>2019-12-21T08:34:08.361Z</time>
      </trkpt>
      <trkpt lat="41.32382667" lon="1.98048167">
        <ele>170.0</ele>
        <time>2019-12-21T08:34:09.352Z</time>
      </trkpt>
      <trkpt lat="41.32385833" lon="1.98041667">
        <ele>170.0</ele>
        <time>2019-12-21T08:34:10.358Z</time>
      </trkpt>
      <trkpt lat="41.32388" lon="1.98038833">
        <ele>169.0</ele>
        <time>2019-12-21T08:34:11.357Z</time>
      </trkpt>
      <trkpt lat="41.32388" lon="1.98038833">
        <ele>169.0</ele>
        <time>2019-12-21T08:34:12.352Z</time>
      </trkpt>
      <trkpt lat="41.32392667" lon="1.98033833">
        <ele>169.0</ele>
        <time>2019-12-21T08:34:13.356Z</time>
      </trkpt>
      <trkpt lat="41.32395" lon="1.98031667">
        <ele>169.0</ele>
        <time>2019-12-21T08:34:14.361Z</time>
      </trkpt>
      <trkpt lat="41.32395" lon="1.98031667">
        <ele>169.0</ele>
        <time>2019-12-21T08:34:15.352Z</time>
      </trkpt>
      <trkpt lat="41.32399167" lon="1.98027">
        <ele>169.0</ele>
        <time>2019-12-21T08:34:16.358Z</time>
      </trkpt>
      <trkpt lat="41.32399167" lon="1.98027">
        <ele>169.0</ele>
        <time>2019-12-21T08:34:17.352Z</time>
      </trkpt>
      <trkpt lat="41.324035" lon="1.98021667">
        <ele>169.0</ele>
        <time>2019-12-21T08:34:18.357Z</time>
      </trkpt>
      <trkpt lat="41.324035" lon="1.98021667">
        <ele>169.0</ele>
        <time>2019-12-21T08:34:19.352Z</time>
      </trkpt>
      <trkpt lat="41.32407333" lon="1.98016">
        <ele>170.0</ele>
        <time>2019-12-21T08:34:20.335Z</time>
      </trkpt>
      <trkpt lat="41.32407333" lon="1.98016">
        <ele>170.0</ele>
        <time>2019-12-21T08:34:21.356Z</time>
      </trkpt>
      <trkpt lat="41.32411333" lon="1.98010833">
        <ele>171.0</ele>
        <time>2019-12-21T08:34:22.363Z</time>
      </trkpt>
      <trkpt lat="41.32411333" lon="1.98010833">
        <ele>171.0</ele>
        <time>2019-12-21T08:34:23.351Z</time>
      </trkpt>
      <trkpt lat="41.32415" lon="1.98006">
        <ele>172.0</ele>
        <time>2019-12-21T08:34:24.337Z</time>
      </trkpt>
      <trkpt lat="41.32417" lon="1.980035">
        <ele>172.0</ele>
        <time>2019-12-21T08:34:25.361Z</time>
      </trkpt>
      <trkpt lat="41.32418833" lon="1.98001">
        <ele>172.0</ele>
        <time>2019-12-21T08:34:26.371Z</time>
      </trkpt>
      <trkpt lat="41.32418833" lon="1.98001">
        <ele>172.0</ele>
        <time>2019-12-21T08:34:27.355Z</time>
      </trkpt>
      <trkpt lat="41.32422333" lon="1.97997">
        <ele>173.0</ele>
        <time>2019-12-21T08:34:28.360Z</time>
      </trkpt>
      <trkpt lat="41.32422333" lon="1.97997">
        <ele>173.0</ele>
        <time>2019-12-21T08:34:29.353Z</time>
      </trkpt>
      <trkpt lat="41.324255" lon="1.979925">
        <ele>174.0</ele>
        <time>2019-12-21T08:34:30.358Z</time>
      </trkpt>
      <trkpt lat="41.324255" lon="1.979925">
        <ele>174.0</ele>
        <time>2019-12-21T08:34:31.352Z</time>
      </trkpt>
      <trkpt lat="41.32429333" lon="1.97987333">
        <ele>174.0</ele>
        <time>2019-12-21T08:34:32.367Z</time>
      </trkpt>
      <trkpt lat="41.32429333" lon="1.97987333">
        <ele>174.0</ele>
        <time>2019-12-21T08:34:33.353Z</time>
      </trkpt>
      <trkpt lat="41.32431667" lon="1.97982167">
        <ele>174.0</ele>
        <time>2019-12-21T08:34:34.360Z</time>
      </trkpt>
      <trkpt lat="41.32431667" lon="1.97982167">
        <ele>174.0</ele>
        <time>2019-12-21T08:34:35.352Z</time>
      </trkpt>
      <trkpt lat="41.32434333" lon="1.97974833">
        <ele>173.0</ele>
        <time>2019-12-21T08:34:36.357Z</time>
      </trkpt>
      <trkpt lat="41.32434333" lon="1.97974833">
        <ele>173.0</ele>
        <time>2019-12-21T08:34:37.352Z</time>
      </trkpt>
      <trkpt lat="41.32436667" lon="1.97966833">
        <ele>174.0</ele>
        <time>2019-12-21T08:34:38.358Z</time>
      </trkpt>
      <trkpt lat="41.32436667" lon="1.97966833">
        <ele>174.0</ele>
        <time>2019-12-21T08:34:39.352Z</time>
      </trkpt>
      <trkpt lat="41.32437667" lon="1.97959667">
        <ele>174.0</ele>
        <time>2019-12-21T08:34:40.361Z</time>
      </trkpt>
      <trkpt lat="41.32437667" lon="1.97959667">
        <ele>174.0</ele>
        <time>2019-12-21T08:34:41.352Z</time>
      </trkpt>
      <trkpt lat="41.32437833" lon="1.97952833">
        <ele>174.0</ele>
        <time>2019-12-21T08:34:42.365Z</time>
      </trkpt>
      <trkpt lat="41.32437833" lon="1.97952833">
        <ele>174.0</ele>
        <time>2019-12-21T08:34:43.352Z</time>
      </trkpt>
      <trkpt lat="41.32437833" lon="1.979475">
        <ele>174.0</ele>
        <time>2019-12-21T08:34:44.361Z</time>
      </trkpt>
      <trkpt lat="41.32437833" lon="1.979475">
        <ele>174.0</ele>
        <time>2019-12-21T08:34:45.352Z</time>
      </trkpt>
      <trkpt lat="41.324375" lon="1.97942667">
        <ele>175.0</ele>
        <time>2019-12-21T08:34:46.357Z</time>
      </trkpt>
      <trkpt lat="41.324375" lon="1.97942667">
        <ele>175.0</ele>
        <time>2019-12-21T08:34:47.354Z</time>
      </trkpt>
      <trkpt lat="41.32438333" lon="1.979375">
        <ele>175.0</ele>
        <time>2019-12-21T08:34:48.357Z</time>
      </trkpt>
      <trkpt lat="41.32438333" lon="1.979375">
        <ele>175.0</ele>
        <time>2019-12-21T08:34:49.352Z</time>
      </trkpt>
      <trkpt lat="41.32439333" lon="1.97932167">
        <ele>175.0</ele>
        <time>2019-12-21T08:34:50.334Z</time>
      </trkpt>
      <trkpt lat="41.32439333" lon="1.97932167">
        <ele>175.0</ele>
        <time>2019-12-21T08:34:51.356Z</time>
      </trkpt>
      <trkpt lat="41.32440167" lon="1.97927167">
        <ele>175.0</ele>
        <time>2019-12-21T08:34:52.362Z</time>
      </trkpt>
      <trkpt lat="41.32440167" lon="1.97927167">
        <ele>175.0</ele>
        <time>2019-12-21T08:34:53.352Z</time>
      </trkpt>
      <trkpt lat="41.32442333" lon="1.97923">
        <ele>175.0</ele>
        <time>2019-12-21T08:34:54.337Z</time>
      </trkpt>
      <trkpt lat="41.32442333" lon="1.97923">
        <ele>175.0</ele>
        <time>2019-12-21T08:34:55.333Z</time>
      </trkpt>
      <trkpt lat="41.32444333" lon="1.97918">
        <ele>175.0</ele>
        <time>2019-12-21T08:34:56.361Z</time>
      </trkpt>
      <trkpt lat="41.32444333" lon="1.97918">
        <ele>175.0</ele>
        <time>2019-12-21T08:34:57.352Z</time>
      </trkpt>
      <trkpt lat="41.324465" lon="1.97914167">
        <ele>175.0</ele>
        <time>2019-12-21T08:34:58.370Z</time>
      </trkpt>
      <trkpt lat="41.324465" lon="1.97914167">
        <ele>175.0</ele>
        <time>2019-12-21T08:34:59.354Z</time>
      </trkpt>
      <trkpt lat="41.32449167" lon="1.9791">
        <ele>176.0</ele>
        <time>2019-12-21T08:35:00.358Z</time>
      </trkpt>
      <trkpt lat="41.32449167" lon="1.9791">
        <ele>176.0</ele>
        <time>2019-12-21T08:35:01.353Z</time>
      </trkpt>
      <trkpt lat="41.32452" lon="1.97904833">
        <ele>176.0</ele>
        <time>2019-12-21T08:35:02.335Z</time>
      </trkpt>
      <trkpt lat="41.32452" lon="1.97904833">
        <ele>176.0</ele>
        <time>2019-12-21T08:35:03.353Z</time>
      </trkpt>
      <trkpt lat="41.324545" lon="1.97900667">
        <ele>176.0</ele>
        <time>2019-12-21T08:35:04.357Z</time>
      </trkpt>
      <trkpt lat="41.324545" lon="1.97900667">
        <ele>176.0</ele>
        <time>2019-12-21T08:35:05.352Z</time>
      </trkpt>
      <trkpt lat="41.32456333" lon="1.97896">
        <ele>177.0</ele>
        <time>2019-12-21T08:35:06.360Z</time>
      </trkpt>
      <trkpt lat="41.32456333" lon="1.97896">
        <ele>177.0</ele>
        <time>2019-12-21T08:35:07.352Z</time>
      </trkpt>
      <trkpt lat="41.32458333" lon="1.97891833">
        <ele>177.0</ele>
        <time>2019-12-21T08:35:08.361Z</time>
      </trkpt>
      <trkpt lat="41.32458333" lon="1.97891833">
        <ele>177.0</ele>
        <time>2019-12-21T08:35:09.352Z</time>
      </trkpt>
      <trkpt lat="41.3246" lon="1.97888">
        <ele>177.0</ele>
        <time>2019-12-21T08:35:10.358Z</time>
      </trkpt>
      <trkpt lat="41.3246" lon="1.97888">
        <ele>177.0</ele>
        <time>2019-12-21T08:35:11.352Z</time>
      </trkpt>
      <trkpt lat="41.32461833" lon="1.97883333">
        <ele>178.0</ele>
        <time>2019-12-21T08:35:12.367Z</time>
      </trkpt>
      <trkpt lat="41.32461833" lon="1.97883333">
        <ele>178.0</ele>
        <time>2019-12-21T08:35:13.352Z</time>
      </trkpt>
      <trkpt lat="41.32463333" lon="1.978785">
        <ele>178.0</ele>
        <time>2019-12-21T08:35:14.340Z</time>
      </trkpt>
      <trkpt lat="41.32463333" lon="1.978785">
        <ele>178.0</ele>
        <time>2019-12-21T08:35:15.371Z</time>
      </trkpt>
      <trkpt lat="41.32464833" lon="1.978725">
        <ele>179.0</ele>
        <time>2019-12-21T08:35:16.355Z</time>
      </trkpt>
      <trkpt lat="41.32464833" lon="1.978725">
        <ele>179.0</ele>
        <time>2019-12-21T08:35:17.352Z</time>
      </trkpt>
      <trkpt lat="41.32466167" lon="1.97866333">
        <ele>180.0</ele>
        <time>2019-12-21T08:35:18.338Z</time>
      </trkpt>
      <trkpt lat="41.32466167" lon="1.97866333">
        <ele>180.0</ele>
        <time>2019-12-21T08:35:19.360Z</time>
      </trkpt>
      <trkpt lat="41.32467333" lon="1.97860167">
        <ele>181.0</ele>
        <time>2019-12-21T08:35:20.357Z</time>
      </trkpt>
      <trkpt lat="41.32467333" lon="1.97860167">
        <ele>181.0</ele>
        <time>2019-12-21T08:35:21.352Z</time>
      </trkpt>
      <trkpt lat="41.324685" lon="1.97853667">
        <ele>181.0</ele>
        <time>2019-12-21T08:35:22.354Z</time>
      </trkpt>
      <trkpt lat="41.324685" lon="1.97853667">
        <ele>181.0</ele>
        <time>2019-12-21T08:35:23.352Z</time>
      </trkpt>
      <trkpt lat="41.32468667" lon="1.97846167">
        <ele>182.0</ele>
        <time>2019-12-21T08:35:24.357Z</time>
      </trkpt>
      <trkpt lat="41.32468667" lon="1.97846167">
        <ele>182.0</ele>
        <time>2019-12-21T08:35:25.352Z</time>
      </trkpt>
      <trkpt lat="41.32468167" lon="1.97837667">
        <ele>182.0</ele>
        <time>2019-12-21T08:35:26.361Z</time>
      </trkpt>
      <trkpt lat="41.32468167" lon="1.97837667">
        <ele>182.0</ele>
        <time>2019-12-21T08:35:27.353Z</time>
      </trkpt>
      <trkpt lat="41.32467667" lon="1.97828667">
        <ele>182.0</ele>
        <time>2019-12-21T08:35:28.355Z</time>
      </trkpt>
      <trkpt lat="41.32467833" lon="1.97824">
        <ele>182.0</ele>
        <time>2019-12-21T08:35:29.358Z</time>
      </trkpt>
      <trkpt lat="41.32467833" lon="1.97824">
        <ele>182.0</ele>
        <time>2019-12-21T08:35:30.353Z</time>
      </trkpt>
      <trkpt lat="41.32467833" lon="1.978145">
        <ele>183.0</ele>
        <time>2019-12-21T08:35:31.355Z</time>
      </trkpt>
      <trkpt lat="41.32468333" lon="1.9781">
        <ele>183.0</ele>
        <time>2019-12-21T08:35:32.364Z</time>
      </trkpt>
      <trkpt lat="41.32468333" lon="1.9781">
        <ele>183.0</ele>
        <time>2019-12-21T08:35:33.353Z</time>
      </trkpt>
      <trkpt lat="41.324695" lon="1.97800667">
        <ele>183.0</ele>
        <time>2019-12-21T08:35:34.357Z</time>
      </trkpt>
      <trkpt lat="41.324695" lon="1.97800667">
        <ele>183.0</ele>
        <time>2019-12-21T08:35:35.352Z</time>
      </trkpt>
      <trkpt lat="41.32470333" lon="1.97791">
        <ele>183.0</ele>
        <time>2019-12-21T08:35:36.357Z</time>
      </trkpt>
      <trkpt lat="41.32471333" lon="1.97786333">
        <ele>183.0</ele>
        <time>2019-12-21T08:35:37.360Z</time>
      </trkpt>
      <trkpt lat="41.32471333" lon="1.97786333">
        <ele>183.0</ele>
        <time>2019-12-21T08:35:38.352Z</time>
      </trkpt>
      <trkpt lat="41.32473833" lon="1.97777">
        <ele>183.0</ele>
        <time>2019-12-21T08:35:39.360Z</time>
      </trkpt>
      <trkpt lat="41.32474667" lon="1.97772167">
        <ele>184.0</ele>
        <time>2019-12-21T08:35:40.358Z</time>
      </trkpt>
      <trkpt lat="41.32474667" lon="1.97772167">
        <ele>184.0</ele>
        <time>2019-12-21T08:35:41.352Z</time>
      </trkpt>
      <trkpt lat="41.32477333" lon="1.97762167">
        <ele>183.0</ele>
        <time>2019-12-21T08:35:42.367Z</time>
      </trkpt>
      <trkpt lat="41.32477333" lon="1.97762167">
        <ele>183.0</ele>
        <time>2019-12-21T08:35:43.353Z</time>
      </trkpt>
      <trkpt lat="41.3248" lon="1.97752833">
        <ele>183.0</ele>
        <time>2019-12-21T08:35:44.337Z</time>
      </trkpt>
      <trkpt lat="41.3248" lon="1.97752833">
        <ele>183.0</ele>
        <time>2019-12-21T08:35:45.360Z</time>
      </trkpt>
      <trkpt lat="41.32482333" lon="1.977445">
        <ele>184.0</ele>
        <time>2019-12-21T08:35:46.360Z</time>
      </trkpt>
      <trkpt lat="41.32482333" lon="1.977445">
        <ele>184.0</ele>
        <time>2019-12-21T08:35:47.351Z</time>
      </trkpt>
      <trkpt lat="41.32484667" lon="1.97736667">
        <ele>184.0</ele>
        <time>2019-12-21T08:35:48.369Z</time>
      </trkpt>
      <trkpt lat="41.324855" lon="1.97733">
        <ele>184.0</ele>
        <time>2019-12-21T08:35:49.360Z</time>
      </trkpt>
      <trkpt lat="41.32486" lon="1.977295">
        <ele>185.0</ele>
        <time>2019-12-21T08:35:50.361Z</time>
      </trkpt>
      <trkpt lat="41.32486" lon="1.977295">
        <ele>185.0</ele>
        <time>2019-12-21T08:35:51.352Z</time>
      </trkpt>
      <trkpt lat="41.32486667" lon="1.97723667">
        <ele>185.0</ele>
        <time>2019-12-21T08:35:52.367Z</time>
      </trkpt>
      <trkpt lat="41.32486667" lon="1.97723667">
        <ele>185.0</ele>
        <time>2019-12-21T08:35:53.356Z</time>
      </trkpt>
      <trkpt lat="41.32487333" lon="1.97718833">
        <ele>186.0</ele>
        <time>2019-12-21T08:35:54.356Z</time>
      </trkpt>
      <trkpt lat="41.32487167" lon="1.97716333">
        <ele>187.0</ele>
        <time>2019-12-21T08:35:55.360Z</time>
      </trkpt>
      <trkpt lat="41.32487167" lon="1.97716333">
        <ele>187.0</ele>
        <time>2019-12-21T08:35:56.356Z</time>
      </trkpt>
      <trkpt lat="41.32486833" lon="1.97711167">
        <ele>188.0</ele>
        <time>2019-12-21T08:35:57.358Z</time>
      </trkpt>
      <trkpt lat="41.32486833" lon="1.977085">
        <ele>188.0</ele>
        <time>2019-12-21T08:35:58.358Z</time>
      </trkpt>
      <trkpt lat="41.32486833" lon="1.977085">
        <ele>188.0</ele>
        <time>2019-12-21T08:35:59.353Z</time>
      </trkpt>
      <trkpt lat="41.32486167" lon="1.97704">
        <ele>189.0</ele>
        <time>2019-12-21T08:36:00.358Z</time>
      </trkpt>
      <trkpt lat="41.32486167" lon="1.97704">
        <ele>189.0</ele>
        <time>2019-12-21T08:36:01.353Z</time>
      </trkpt>
      <trkpt lat="41.32485667" lon="1.97699333">
        <ele>189.0</ele>
        <time>2019-12-21T08:36:02.335Z</time>
      </trkpt>
      <trkpt lat="41.32485667" lon="1.97699333">
        <ele>189.0</ele>
        <time>2019-12-21T08:36:03.357Z</time>
      </trkpt>
      <trkpt lat="41.32485" lon="1.97695167">
        <ele>190.0</ele>
        <time>2019-12-21T08:36:04.359Z</time>
      </trkpt>
      <trkpt lat="41.32485" lon="1.97695167">
        <ele>190.0</ele>
        <time>2019-12-21T08:36:05.352Z</time>
      </trkpt>
      <trkpt lat="41.32483167" lon="1.97691333">
        <ele>190.0</ele>
        <time>2019-12-21T08:36:06.358Z</time>
      </trkpt>
      <trkpt lat="41.32483167" lon="1.97691333">
        <ele>190.0</ele>
        <time>2019-12-21T08:36:07.353Z</time>
      </trkpt>
      <trkpt lat="41.32481833" lon="1.97687333">
        <ele>190.0</ele>
        <time>2019-12-21T08:36:08.335Z</time>
      </trkpt>
      <trkpt lat="41.32481833" lon="1.97687333">
        <ele>190.0</ele>
        <time>2019-12-21T08:36:09.357Z</time>
      </trkpt>
      <trkpt lat="41.32480333" lon="1.97682667">
        <ele>191.0</ele>
        <time>2019-12-21T08:36:10.358Z</time>
      </trkpt>
      <trkpt lat="41.32480333" lon="1.97682667">
        <ele>191.0</ele>
        <time>2019-12-21T08:36:11.353Z</time>
      </trkpt>
      <trkpt lat="41.32479" lon="1.97678167">
        <ele>191.0</ele>
        <time>2019-12-21T08:36:12.367Z</time>
      </trkpt>
      <trkpt lat="41.32479" lon="1.97678167">
        <ele>191.0</ele>
        <time>2019-12-21T08:36:13.352Z</time>
      </trkpt>
      <trkpt lat="41.32477" lon="1.97673833">
        <ele>191.0</ele>
        <time>2019-12-21T08:36:14.335Z</time>
      </trkpt>
      <trkpt lat="41.32477" lon="1.97673833">
        <ele>191.0</ele>
        <time>2019-12-21T08:36:15.356Z</time>
      </trkpt>
      <trkpt lat="41.32474833" lon="1.976685">
        <ele>191.0</ele>
        <time>2019-12-21T08:36:16.359Z</time>
      </trkpt>
      <trkpt lat="41.32474833" lon="1.976685">
        <ele>191.0</ele>
        <time>2019-12-21T08:36:17.353Z</time>
      </trkpt>
      <trkpt lat="41.32472167" lon="1.97662667">
        <ele>191.0</ele>
        <time>2019-12-21T08:36:18.359Z</time>
      </trkpt>
      <trkpt lat="41.32472167" lon="1.97662667">
        <ele>191.0</ele>
        <time>2019-12-21T08:36:19.353Z</time>
      </trkpt>
      <trkpt lat="41.32469167" lon="1.97657833">
        <ele>191.0</ele>
        <time>2019-12-21T08:36:20.360Z</time>
      </trkpt>
      <trkpt lat="41.32469167" lon="1.97657833">
        <ele>191.0</ele>
        <time>2019-12-21T08:36:21.352Z</time>
      </trkpt>
      <trkpt lat="41.32466667" lon="1.97653">
        <ele>191.0</ele>
        <time>2019-12-21T08:36:22.367Z</time>
      </trkpt>
      <trkpt lat="41.32466667" lon="1.97653">
        <ele>191.0</ele>
        <time>2019-12-21T08:36:23.352Z</time>
      </trkpt>
      <trkpt lat="41.32464" lon="1.97648333">
        <ele>192.0</ele>
        <time>2019-12-21T08:36:24.358Z</time>
      </trkpt>
      <trkpt lat="41.32464" lon="1.97648333">
        <ele>192.0</ele>
        <time>2019-12-21T08:36:25.352Z</time>
      </trkpt>
      <trkpt lat="41.32461167" lon="1.97643167">
        <ele>192.0</ele>
        <time>2019-12-21T08:36:26.337Z</time>
      </trkpt>
      <trkpt lat="41.32459833" lon="1.97640667">
        <ele>192.0</ele>
        <time>2019-12-21T08:36:27.360Z</time>
      </trkpt>
      <trkpt lat="41.32459833" lon="1.97640667">
        <ele>192.0</ele>
        <time>2019-12-21T08:36:28.353Z</time>
      </trkpt>
      <trkpt lat="41.32456833" lon="1.97635833">
        <ele>193.0</ele>
        <time>2019-12-21T08:36:29.358Z</time>
      </trkpt>
      <trkpt lat="41.32456833" lon="1.97635833">
        <ele>193.0</ele>
        <time>2019-12-21T08:36:30.353Z</time>
      </trkpt>
      <trkpt lat="41.32454333" lon="1.97630667">
        <ele>193.0</ele>
        <time>2019-12-21T08:36:31.358Z</time>
      </trkpt>
      <trkpt lat="41.32453333" lon="1.97627833">
        <ele>193.0</ele>
        <time>2019-12-21T08:36:32.364Z</time>
      </trkpt>
      <trkpt lat="41.32453333" lon="1.97627833">
        <ele>193.0</ele>
        <time>2019-12-21T08:36:33.353Z</time>
      </trkpt>
      <trkpt lat="41.32451" lon="1.97621833">
        <ele>193.0</ele>
        <time>2019-12-21T08:36:34.338Z</time>
      </trkpt>
      <trkpt lat="41.32451" lon="1.97621833">
        <ele>193.0</ele>
        <time>2019-12-21T08:36:35.362Z</time>
      </trkpt>
      <trkpt lat="41.32449167" lon="1.97615667">
        <ele>193.0</ele>
        <time>2019-12-21T08:36:36.358Z</time>
      </trkpt>
      <trkpt lat="41.32448333" lon="1.97612667">
        <ele>193.0</ele>
        <time>2019-12-21T08:36:37.358Z</time>
      </trkpt>
      <trkpt lat="41.32447" lon="1.97609667">
        <ele>193.0</ele>
        <time>2019-12-21T08:36:38.361Z</time>
      </trkpt>
      <trkpt lat="41.32447" lon="1.97609667">
        <ele>193.0</ele>
        <time>2019-12-21T08:36:39.338Z</time>
      </trkpt>
      <trkpt lat="41.32444167" lon="1.976035">
        <ele>194.0</ele>
        <time>2019-12-21T08:36:40.360Z</time>
      </trkpt>
      <trkpt lat="41.32444167" lon="1.976035">
        <ele>194.0</ele>
        <time>2019-12-21T08:36:41.353Z</time>
      </trkpt>
      <trkpt lat="41.32441333" lon="1.97596667">
        <ele>194.0</ele>
        <time>2019-12-21T08:36:42.367Z</time>
      </trkpt>
      <trkpt lat="41.32441333" lon="1.97596667">
        <ele>194.0</ele>
        <time>2019-12-21T08:36:43.353Z</time>
      </trkpt>
      <trkpt lat="41.32438833" lon="1.97590667">
        <ele>194.0</ele>
        <time>2019-12-21T08:36:44.335Z</time>
      </trkpt>
      <trkpt lat="41.32438833" lon="1.97590667">
        <ele>194.0</ele>
        <time>2019-12-21T08:36:45.357Z</time>
      </trkpt>
      <trkpt lat="41.32436667" lon="1.97584167">
        <ele>194.0</ele>
        <time>2019-12-21T08:36:46.358Z</time>
      </trkpt>
      <trkpt lat="41.32436667" lon="1.97584167">
        <ele>194.0</ele>
        <time>2019-12-21T08:36:47.353Z</time>
      </trkpt>
      <trkpt lat="41.32435" lon="1.97577333">
        <ele>195.0</ele>
        <time>2019-12-21T08:36:48.356Z</time>
      </trkpt>
      <trkpt lat="41.32435" lon="1.97577333">
        <ele>195.0</ele>
        <time>2019-12-21T08:36:49.372Z</time>
      </trkpt>
      <trkpt lat="41.32433333" lon="1.97570833">
        <ele>196.0</ele>
        <time>2019-12-21T08:36:50.359Z</time>
      </trkpt>
      <trkpt lat="41.32433333" lon="1.97570833">
        <ele>196.0</ele>
        <time>2019-12-21T08:36:51.354Z</time>
      </trkpt>
      <trkpt lat="41.32431833" lon="1.975645">
        <ele>196.0</ele>
        <time>2019-12-21T08:36:52.369Z</time>
      </trkpt>
      <trkpt lat="41.32431833" lon="1.975645">
        <ele>196.0</ele>
        <time>2019-12-21T08:36:53.353Z</time>
      </trkpt>
      <trkpt lat="41.32430667" lon="1.97558">
        <ele>197.0</ele>
        <time>2019-12-21T08:36:54.357Z</time>
      </trkpt>
      <trkpt lat="41.3243" lon="1.97554833">
        <ele>197.0</ele>
        <time>2019-12-21T08:36:55.359Z</time>
      </trkpt>
      <trkpt lat="41.32429667" lon="1.975515">
        <ele>198.0</ele>
        <time>2019-12-21T08:36:56.362Z</time>
      </trkpt>
      <trkpt lat="41.32429667" lon="1.975515">
        <ele>198.0</ele>
        <time>2019-12-21T08:36:57.355Z</time>
      </trkpt>
      <trkpt lat="41.32428333" lon="1.97545167">
        <ele>199.0</ele>
        <time>2019-12-21T08:36:58.359Z</time>
      </trkpt>
      <trkpt lat="41.32428333" lon="1.97545167">
        <ele>199.0</ele>
        <time>2019-12-21T08:36:59.353Z</time>
      </trkpt>
      <trkpt lat="41.32427333" lon="1.97538667">
        <ele>200.0</ele>
        <time>2019-12-21T08:37:00.361Z</time>
      </trkpt>
      <trkpt lat="41.32427333" lon="1.97538667">
        <ele>200.0</ele>
        <time>2019-12-21T08:37:01.353Z</time>
      </trkpt>
      <trkpt lat="41.32426333" lon="1.975325">
        <ele>201.0</ele>
        <time>2019-12-21T08:37:02.337Z</time>
      </trkpt>
      <trkpt lat="41.32426333" lon="1.975325">
        <ele>201.0</ele>
        <time>2019-12-21T08:37:03.361Z</time>
      </trkpt>
      <trkpt lat="41.32425833" lon="1.97527">
        <ele>202.0</ele>
        <time>2019-12-21T08:37:04.360Z</time>
      </trkpt>
      <trkpt lat="41.32425833" lon="1.97527">
        <ele>202.0</ele>
        <time>2019-12-21T08:37:05.353Z</time>
      </trkpt>
      <trkpt lat="41.32425167" lon="1.97522167">
        <ele>202.0</ele>
        <time>2019-12-21T08:37:06.358Z</time>
      </trkpt>
      <trkpt lat="41.32425167" lon="1.97522167">
        <ele>202.0</ele>
        <time>2019-12-21T08:37:07.353Z</time>
      </trkpt>
      <trkpt lat="41.32425167" lon="1.975165">
        <ele>203.0</ele>
        <time>2019-12-21T08:37:08.336Z</time>
      </trkpt>
      <trkpt lat="41.32425167" lon="1.975165">
        <ele>203.0</ele>
        <time>2019-12-21T08:37:09.358Z</time>
      </trkpt>
      <trkpt lat="41.32424833" lon="1.97510333">
        <ele>203.0</ele>
        <time>2019-12-21T08:37:10.355Z</time>
      </trkpt>
      <trkpt lat="41.32424833" lon="1.97510333">
        <ele>203.0</ele>
        <time>2019-12-21T08:37:11.354Z</time>
      </trkpt>
      <trkpt lat="41.32425167" lon="1.97505">
        <ele>204.0</ele>
        <time>2019-12-21T08:37:12.362Z</time>
      </trkpt>
      <trkpt lat="41.32425167" lon="1.97505">
        <ele>204.0</ele>
        <time>2019-12-21T08:37:13.353Z</time>
      </trkpt>
      <trkpt lat="41.32424833" lon="1.97499333">
        <ele>205.0</ele>
        <time>2019-12-21T08:37:14.336Z</time>
      </trkpt>
      <trkpt lat="41.32424833" lon="1.97499333">
        <ele>205.0</ele>
        <time>2019-12-21T08:37:15.357Z</time>
      </trkpt>
      <trkpt lat="41.32424833" lon="1.97494">
        <ele>205.0</ele>
        <time>2019-12-21T08:37:16.358Z</time>
      </trkpt>
      <trkpt lat="41.32424833" lon="1.97494">
        <ele>205.0</ele>
        <time>2019-12-21T08:37:17.353Z</time>
      </trkpt>
      <trkpt lat="41.32425833" lon="1.974885">
        <ele>206.0</ele>
        <time>2019-12-21T08:37:18.358Z</time>
      </trkpt>
      <trkpt lat="41.32425833" lon="1.974885">
        <ele>206.0</ele>
        <time>2019-12-21T08:37:19.348Z</time>
      </trkpt>
      <trkpt lat="41.32427167" lon="1.97483667">
        <ele>206.0</ele>
        <time>2019-12-21T08:37:20.371Z</time>
      </trkpt>
      <trkpt lat="41.32427167" lon="1.97483667">
        <ele>206.0</ele>
        <time>2019-12-21T08:37:21.353Z</time>
      </trkpt>
      <trkpt lat="41.32429" lon="1.97478667">
        <ele>206.0</ele>
        <time>2019-12-21T08:37:22.367Z</time>
      </trkpt>
      <trkpt lat="41.32429" lon="1.97478667">
        <ele>206.0</ele>
        <time>2019-12-21T08:37:23.353Z</time>
      </trkpt>
      <trkpt lat="41.32429833" lon="1.974735">
        <ele>207.0</ele>
        <time>2019-12-21T08:37:24.358Z</time>
      </trkpt>
      <trkpt lat="41.32429833" lon="1.974735">
        <ele>207.0</ele>
        <time>2019-12-21T08:37:25.353Z</time>
      </trkpt>
      <trkpt lat="41.324295" lon="1.97469">
        <ele>207.0</ele>
        <time>2019-12-21T08:37:26.361Z</time>
      </trkpt>
      <trkpt lat="41.32429333" lon="1.97466833">
        <ele>207.0</ele>
        <time>2019-12-21T08:37:27.359Z</time>
      </trkpt>
      <trkpt lat="41.32429333" lon="1.97466833">
        <ele>207.0</ele>
        <time>2019-12-21T08:37:28.353Z</time>
      </trkpt>
      <trkpt lat="41.324295" lon="1.97461833">
        <ele>208.0</ele>
        <time>2019-12-21T08:37:29.337Z</time>
      </trkpt>
      <trkpt lat="41.32429167" lon="1.97458833">
        <ele>208.0</ele>
        <time>2019-12-21T08:37:30.361Z</time>
      </trkpt>
      <trkpt lat="41.32429167" lon="1.97458833">
        <ele>208.0</ele>
        <time>2019-12-21T08:37:31.354Z</time>
      </trkpt>
      <trkpt lat="41.32429333" lon="1.97453333">
        <ele>208.0</ele>
        <time>2019-12-21T08:37:32.367Z</time>
      </trkpt>
      <trkpt lat="41.32429333" lon="1.97453333">
        <ele>208.0</ele>
        <time>2019-12-21T08:37:33.353Z</time>
      </trkpt>
      <trkpt lat="41.32430333" lon="1.97448333">
        <ele>208.0</ele>
        <time>2019-12-21T08:37:34.339Z</time>
      </trkpt>
      <trkpt lat="41.32430333" lon="1.97448333">
        <ele>208.0</ele>
        <time>2019-12-21T08:37:35.361Z</time>
      </trkpt>
      <trkpt lat="41.32430833" lon="1.97443167">
        <ele>208.0</ele>
        <time>2019-12-21T08:37:36.359Z</time>
      </trkpt>
      <trkpt lat="41.32430833" lon="1.97443167">
        <ele>208.0</ele>
        <time>2019-12-21T08:37:37.353Z</time>
      </trkpt>
      <trkpt lat="41.32431167" lon="1.97437">
        <ele>208.0</ele>
        <time>2019-12-21T08:37:38.361Z</time>
      </trkpt>
      <trkpt lat="41.32431167" lon="1.97437">
        <ele>208.0</ele>
        <time>2019-12-21T08:37:39.355Z</time>
      </trkpt>
      <trkpt lat="41.32432333" lon="1.974315">
        <ele>208.0</ele>
        <time>2019-12-21T08:37:40.359Z</time>
      </trkpt>
      <trkpt lat="41.32432333" lon="1.974315">
        <ele>208.0</ele>
        <time>2019-12-21T08:37:41.354Z</time>
      </trkpt>
      <trkpt lat="41.324335" lon="1.97426167">
        <ele>208.0</ele>
        <time>2019-12-21T08:37:42.364Z</time>
      </trkpt>
      <trkpt lat="41.324335" lon="1.97426167">
        <ele>208.0</ele>
        <time>2019-12-21T08:37:43.353Z</time>
      </trkpt>
      <trkpt lat="41.32434333" lon="1.97420667">
        <ele>208.0</ele>
        <time>2019-12-21T08:37:44.336Z</time>
      </trkpt>
      <trkpt lat="41.32434333" lon="1.97420667">
        <ele>208.0</ele>
        <time>2019-12-21T08:37:45.357Z</time>
      </trkpt>
      <trkpt lat="41.32434333" lon="1.97415833">
        <ele>208.0</ele>
        <time>2019-12-21T08:37:46.359Z</time>
      </trkpt>
      <trkpt lat="41.32434333" lon="1.97415833">
        <ele>208.0</ele>
        <time>2019-12-21T08:37:47.354Z</time>
      </trkpt>
      <trkpt lat="41.324355" lon="1.974105">
        <ele>208.0</ele>
        <time>2019-12-21T08:37:48.359Z</time>
      </trkpt>
      <trkpt lat="41.324355" lon="1.974105">
        <ele>208.0</ele>
        <time>2019-12-21T08:37:49.353Z</time>
      </trkpt>
      <trkpt lat="41.32436333" lon="1.97404833">
        <ele>208.0</ele>
        <time>2019-12-21T08:37:50.336Z</time>
      </trkpt>
      <trkpt lat="41.32436333" lon="1.97404833">
        <ele>208.0</ele>
        <time>2019-12-21T08:37:51.357Z</time>
      </trkpt>
      <trkpt lat="41.324365" lon="1.97399333">
        <ele>208.0</ele>
        <time>2019-12-21T08:37:52.367Z</time>
      </trkpt>
      <trkpt lat="41.32436833" lon="1.97396167">
        <ele>208.0</ele>
        <time>2019-12-21T08:37:53.361Z</time>
      </trkpt>
      <trkpt lat="41.32436833" lon="1.97396167">
        <ele>208.0</ele>
        <time>2019-12-21T08:37:54.333Z</time>
      </trkpt>
      <trkpt lat="41.32436667" lon="1.973905">
        <ele>208.0</ele>
        <time>2019-12-21T08:37:55.370Z</time>
      </trkpt>
      <trkpt lat="41.324365" lon="1.97388167">
        <ele>208.0</ele>
        <time>2019-12-21T08:37:56.365Z</time>
      </trkpt>
      <trkpt lat="41.324365" lon="1.97388167">
        <ele>208.0</ele>
        <time>2019-12-21T08:37:57.354Z</time>
      </trkpt>
      <trkpt lat="41.32437667" lon="1.97383167">
        <ele>209.0</ele>
        <time>2019-12-21T08:37:58.356Z</time>
      </trkpt>
      <trkpt lat="41.32437667" lon="1.97383167">
        <ele>209.0</ele>
        <time>2019-12-21T08:37:59.339Z</time>
      </trkpt>
      <trkpt lat="41.32438167" lon="1.97378">
        <ele>209.0</ele>
        <time>2019-12-21T08:38:00.368Z</time>
      </trkpt>
      <trkpt lat="41.32438167" lon="1.97378">
        <ele>209.0</ele>
        <time>2019-12-21T08:38:01.354Z</time>
      </trkpt>
      <trkpt lat="41.32439667" lon="1.97372167">
        <ele>209.0</ele>
        <time>2019-12-21T08:38:02.336Z</time>
      </trkpt>
      <trkpt lat="41.32439667" lon="1.97372167">
        <ele>209.0</ele>
        <time>2019-12-21T08:38:03.358Z</time>
      </trkpt>
      <trkpt lat="41.32441" lon="1.973665">
        <ele>210.0</ele>
        <time>2019-12-21T08:38:04.359Z</time>
      </trkpt>
      <trkpt lat="41.32441" lon="1.973665">
        <ele>210.0</ele>
        <time>2019-12-21T08:38:05.353Z</time>
      </trkpt>
      <trkpt lat="41.324415" lon="1.97361167">
        <ele>210.0</ele>
        <time>2019-12-21T08:38:06.359Z</time>
      </trkpt>
      <trkpt lat="41.324415" lon="1.97359">
        <ele>211.0</ele>
        <time>2019-12-21T08:38:07.357Z</time>
      </trkpt>
      <trkpt lat="41.32441667" lon="1.973565">
        <ele>211.0</ele>
        <time>2019-12-21T08:38:08.361Z</time>
      </trkpt>
      <trkpt lat="41.32441667" lon="1.973565">
        <ele>211.0</ele>
        <time>2019-12-21T08:38:09.354Z</time>
      </trkpt>
      <trkpt lat="41.324425" lon="1.973515">
        <ele>212.0</ele>
        <time>2019-12-21T08:38:10.359Z</time>
      </trkpt>
      <trkpt lat="41.32442833" lon="1.97349167">
        <ele>212.0</ele>
        <time>2019-12-21T08:38:11.359Z</time>
      </trkpt>
      <trkpt lat="41.32442833" lon="1.97349167">
        <ele>212.0</ele>
        <time>2019-12-21T08:38:12.353Z</time>
      </trkpt>
      <trkpt lat="41.32443667" lon="1.97343833">
        <ele>213.0</ele>
        <time>2019-12-21T08:38:13.359Z</time>
      </trkpt>
      <trkpt lat="41.32444167" lon="1.97341167">
        <ele>214.0</ele>
        <time>2019-12-21T08:38:14.362Z</time>
      </trkpt>
      <trkpt lat="41.32444167" lon="1.97341167">
        <ele>214.0</ele>
        <time>2019-12-21T08:38:15.353Z</time>
      </trkpt>
      <trkpt lat="41.324455" lon="1.97335167">
        <ele>214.0</ele>
        <time>2019-12-21T08:38:16.357Z</time>
      </trkpt>
      <trkpt lat="41.324455" lon="1.97335167">
        <ele>214.0</ele>
        <time>2019-12-21T08:38:17.354Z</time>
      </trkpt>
      <trkpt lat="41.324455" lon="1.973295">
        <ele>215.0</ele>
        <time>2019-12-21T08:38:18.360Z</time>
      </trkpt>
      <trkpt lat="41.324455" lon="1.973295">
        <ele>215.0</ele>
        <time>2019-12-21T08:38:19.354Z</time>
      </trkpt>
      <trkpt lat="41.32446" lon="1.97323167">
        <ele>215.0</ele>
        <time>2019-12-21T08:38:20.336Z</time>
      </trkpt>
      <trkpt lat="41.32446" lon="1.97323167">
        <ele>215.0</ele>
        <time>2019-12-21T08:38:21.357Z</time>
      </trkpt>
      <trkpt lat="41.324465" lon="1.97317167">
        <ele>216.0</ele>
        <time>2019-12-21T08:38:22.367Z</time>
      </trkpt>
      <trkpt lat="41.324465" lon="1.97317167">
        <ele>216.0</ele>
        <time>2019-12-21T08:38:23.353Z</time>
      </trkpt>
      <trkpt lat="41.32446333" lon="1.97311333">
        <ele>216.0</ele>
        <time>2019-12-21T08:38:24.339Z</time>
      </trkpt>
      <trkpt lat="41.32446167" lon="1.97308333">
        <ele>216.0</ele>
        <time>2019-12-21T08:38:25.362Z</time>
      </trkpt>
      <trkpt lat="41.32446167" lon="1.97308333">
        <ele>216.0</ele>
        <time>2019-12-21T08:38:26.347Z</time>
      </trkpt>
      <trkpt lat="41.32445667" lon="1.97301833">
        <ele>217.0</ele>
        <time>2019-12-21T08:38:27.335Z</time>
      </trkpt>
      <trkpt lat="41.32445667" lon="1.97301833">
        <ele>217.0</ele>
        <time>2019-12-21T08:38:28.358Z</time>
      </trkpt>
      <trkpt lat="41.32444833" lon="1.97295667">
        <ele>217.0</ele>
        <time>2019-12-21T08:38:29.362Z</time>
      </trkpt>
      <trkpt lat="41.32444833" lon="1.97295667">
        <ele>217.0</ele>
        <time>2019-12-21T08:38:30.354Z</time>
      </trkpt>
      <trkpt lat="41.32444" lon="1.97289833">
        <ele>218.0</ele>
        <time>2019-12-21T08:38:31.359Z</time>
      </trkpt>
      <trkpt lat="41.324435" lon="1.97286667">
        <ele>218.0</ele>
        <time>2019-12-21T08:38:32.367Z</time>
      </trkpt>
      <trkpt lat="41.324435" lon="1.97286667">
        <ele>218.0</ele>
        <time>2019-12-21T08:38:33.354Z</time>
      </trkpt>
      <trkpt lat="41.324435" lon="1.972805">
        <ele>219.0</ele>
        <time>2019-12-21T08:38:34.358Z</time>
      </trkpt>
      <trkpt lat="41.324435" lon="1.972805">
        <ele>219.0</ele>
        <time>2019-12-21T08:38:35.354Z</time>
      </trkpt>
      <trkpt lat="41.32443" lon="1.97274333">
        <ele>219.0</ele>
        <time>2019-12-21T08:38:36.356Z</time>
      </trkpt>
      <trkpt lat="41.32443" lon="1.97274333">
        <ele>219.0</ele>
        <time>2019-12-21T08:38:37.353Z</time>
      </trkpt>
      <trkpt lat="41.32441333" lon="1.97267833">
        <ele>220.0</ele>
        <time>2019-12-21T08:38:38.337Z</time>
      </trkpt>
      <trkpt lat="41.32441333" lon="1.97267833">
        <ele>220.0</ele>
        <time>2019-12-21T08:38:39.360Z</time>
      </trkpt>
      <trkpt lat="41.32439167" lon="1.97261167">
        <ele>220.0</ele>
        <time>2019-12-21T08:38:40.359Z</time>
      </trkpt>
      <trkpt lat="41.324385" lon="1.97258167">
        <ele>220.0</ele>
        <time>2019-12-21T08:38:41.358Z</time>
      </trkpt>
      <trkpt lat="41.324385" lon="1.97258167">
        <ele>220.0</ele>
        <time>2019-12-21T08:38:42.353Z</time>
      </trkpt>
      <trkpt lat="41.32437833" lon="1.97252">
        <ele>221.0</ele>
        <time>2019-12-21T08:38:43.361Z</time>
      </trkpt>
      <trkpt lat="41.324375" lon="1.97249">
        <ele>221.0</ele>
        <time>2019-12-21T08:38:44.361Z</time>
      </trkpt>
      <trkpt lat="41.324375" lon="1.97245833">
        <ele>221.0</ele>
        <time>2019-12-21T08:38:45.360Z</time>
      </trkpt>
      <trkpt lat="41.324375" lon="1.97245833">
        <ele>221.0</ele>
        <time>2019-12-21T08:38:46.355Z</time>
      </trkpt>
      <trkpt lat="41.32437667" lon="1.97239167">
        <ele>221.0</ele>
        <time>2019-12-21T08:38:47.358Z</time>
      </trkpt>
      <trkpt lat="41.32437667" lon="1.97239167">
        <ele>221.0</ele>
        <time>2019-12-21T08:38:48.353Z</time>
      </trkpt>
      <trkpt lat="41.32436833" lon="1.972335">
        <ele>222.0</ele>
        <time>2019-12-21T08:38:49.335Z</time>
      </trkpt>
      <trkpt lat="41.324365" lon="1.97230667">
        <ele>222.0</ele>
        <time>2019-12-21T08:38:50.360Z</time>
      </trkpt>
      <trkpt lat="41.324365" lon="1.97230667">
        <ele>222.0</ele>
        <time>2019-12-21T08:38:51.353Z</time>
      </trkpt>
      <trkpt lat="41.32435833" lon="1.972245">
        <ele>222.0</ele>
        <time>2019-12-21T08:38:52.365Z</time>
      </trkpt>
      <trkpt lat="41.32435833" lon="1.972245">
        <ele>222.0</ele>
        <time>2019-12-21T08:38:53.353Z</time>
      </trkpt>
      <trkpt lat="41.32436667" lon="1.97218">
        <ele>222.0</ele>
        <time>2019-12-21T08:38:54.333Z</time>
      </trkpt>
      <trkpt lat="41.32436667" lon="1.97218">
        <ele>222.0</ele>
        <time>2019-12-21T08:38:55.357Z</time>
      </trkpt>
      <trkpt lat="41.32437833" lon="1.97211167">
        <ele>223.0</ele>
        <time>2019-12-21T08:38:56.362Z</time>
      </trkpt>
      <trkpt lat="41.32437833" lon="1.97211167">
        <ele>223.0</ele>
        <time>2019-12-21T08:38:57.350Z</time>
      </trkpt>
      <trkpt lat="41.32439" lon="1.972035">
        <ele>223.0</ele>
        <time>2019-12-21T08:38:58.338Z</time>
      </trkpt>
      <trkpt lat="41.32439667" lon="1.97199833">
        <ele>222.0</ele>
        <time>2019-12-21T08:38:59.362Z</time>
      </trkpt>
      <trkpt lat="41.32439667" lon="1.97199833">
        <ele>222.0</ele>
        <time>2019-12-21T08:39:00.356Z</time>
      </trkpt>
      <trkpt lat="41.32441667" lon="1.97193">
        <ele>223.0</ele>
        <time>2019-12-21T08:39:01.358Z</time>
      </trkpt>
      <trkpt lat="41.32443" lon="1.97189333">
        <ele>223.0</ele>
        <time>2019-12-21T08:39:02.367Z</time>
      </trkpt>
      <trkpt lat="41.32443" lon="1.97189333">
        <ele>223.0</ele>
        <time>2019-12-21T08:39:03.354Z</time>
      </trkpt>
      <trkpt lat="41.32446333" lon="1.971835">
        <ele>223.0</ele>
        <time>2019-12-21T08:39:04.357Z</time>
      </trkpt>
      <trkpt lat="41.32446333" lon="1.971835">
        <ele>223.0</ele>
        <time>2019-12-21T08:39:05.353Z</time>
      </trkpt>
      <trkpt lat="41.32450333" lon="1.97179167">
        <ele>223.0</ele>
        <time>2019-12-21T08:39:06.358Z</time>
      </trkpt>
      <trkpt lat="41.32450333" lon="1.97179167">
        <ele>223.0</ele>
        <time>2019-12-21T08:39:07.354Z</time>
      </trkpt>
      <trkpt lat="41.32454333" lon="1.97174667">
        <ele>223.0</ele>
        <time>2019-12-21T08:39:08.336Z</time>
      </trkpt>
      <trkpt lat="41.32454333" lon="1.97174667">
        <ele>223.0</ele>
        <time>2019-12-21T08:39:09.358Z</time>
      </trkpt>
      <trkpt lat="41.32458333" lon="1.97170333">
        <ele>223.0</ele>
        <time>2019-12-21T08:39:10.358Z</time>
      </trkpt>
      <trkpt lat="41.32460167" lon="1.97168167">
        <ele>223.0</ele>
        <time>2019-12-21T08:39:11.358Z</time>
      </trkpt>
      <trkpt lat="41.32460167" lon="1.97168167">
        <ele>223.0</ele>
        <time>2019-12-21T08:39:12.354Z</time>
      </trkpt>
      <trkpt lat="41.324615" lon="1.971625">
        <ele>223.0</ele>
        <time>2019-12-21T08:39:13.361Z</time>
      </trkpt>
      <trkpt lat="41.32461667" lon="1.97159833">
        <ele>223.0</ele>
        <time>2019-12-21T08:39:14.361Z</time>
      </trkpt>
      <trkpt lat="41.32461667" lon="1.97159833">
        <ele>223.0</ele>
        <time>2019-12-21T08:39:15.354Z</time>
      </trkpt>
      <trkpt lat="41.32461" lon="1.97154">
        <ele>224.0</ele>
        <time>2019-12-21T08:39:16.360Z</time>
      </trkpt>
      <trkpt lat="41.32461" lon="1.97154">
        <ele>224.0</ele>
        <time>2019-12-21T08:39:17.353Z</time>
      </trkpt>
      <trkpt lat="41.324595" lon="1.97147333">
        <ele>224.0</ele>
        <time>2019-12-21T08:39:18.356Z</time>
      </trkpt>
      <trkpt lat="41.324595" lon="1.97147333">
        <ele>224.0</ele>
        <time>2019-12-21T08:39:19.338Z</time>
      </trkpt>
      <trkpt lat="41.32456833" lon="1.97140833">
        <ele>224.0</ele>
        <time>2019-12-21T08:39:20.360Z</time>
      </trkpt>
      <trkpt lat="41.32456833" lon="1.97140833">
        <ele>224.0</ele>
        <time>2019-12-21T08:39:21.354Z</time>
      </trkpt>
      <trkpt lat="41.32454667" lon="1.97134333">
        <ele>225.0</ele>
        <time>2019-12-21T08:39:22.367Z</time>
      </trkpt>
      <trkpt lat="41.32454667" lon="1.97134333">
        <ele>225.0</ele>
        <time>2019-12-21T08:39:23.353Z</time>
      </trkpt>
      <trkpt lat="41.32452333" lon="1.97127">
        <ele>225.0</ele>
        <time>2019-12-21T08:39:24.360Z</time>
      </trkpt>
      <trkpt lat="41.32452333" lon="1.97127">
        <ele>225.0</ele>
        <time>2019-12-21T08:39:25.353Z</time>
      </trkpt>
      <trkpt lat="41.3245" lon="1.97119667">
        <ele>225.0</ele>
        <time>2019-12-21T08:39:26.343Z</time>
      </trkpt>
      <trkpt lat="41.3245" lon="1.97119667">
        <ele>225.0</ele>
        <time>2019-12-21T08:39:27.338Z</time>
      </trkpt>
      <trkpt lat="41.32448833" lon="1.97111833">
        <ele>225.0</ele>
        <time>2019-12-21T08:39:28.361Z</time>
      </trkpt>
      <trkpt lat="41.32448833" lon="1.97111833">
        <ele>225.0</ele>
        <time>2019-12-21T08:39:29.353Z</time>
      </trkpt>
      <trkpt lat="41.32449333" lon="1.97104">
        <ele>225.0</ele>
        <time>2019-12-21T08:39:30.339Z</time>
      </trkpt>
      <trkpt lat="41.32449667" lon="1.97100167">
        <ele>225.0</ele>
        <time>2019-12-21T08:39:31.363Z</time>
      </trkpt>
      <trkpt lat="41.32449667" lon="1.97100167">
        <ele>225.0</ele>
        <time>2019-12-21T08:39:32.356Z</time>
      </trkpt>
      <trkpt lat="41.32452833" lon="1.970935">
        <ele>226.0</ele>
        <time>2019-12-21T08:39:33.360Z</time>
      </trkpt>
      <trkpt lat="41.32455" lon="1.97090333">
        <ele>226.0</ele>
        <time>2019-12-21T08:39:34.360Z</time>
      </trkpt>
      <trkpt lat="41.32455" lon="1.97090333">
        <ele>226.0</ele>
        <time>2019-12-21T08:39:35.353Z</time>
      </trkpt>
      <trkpt lat="41.32459833" lon="1.97085">
        <ele>226.0</ele>
        <time>2019-12-21T08:39:36.360Z</time>
      </trkpt>
      <trkpt lat="41.32462167" lon="1.97082667">
        <ele>226.0</ele>
        <time>2019-12-21T08:39:37.360Z</time>
      </trkpt>
      <trkpt lat="41.32462167" lon="1.97082667">
        <ele>226.0</ele>
        <time>2019-12-21T08:39:38.356Z</time>
      </trkpt>
      <trkpt lat="41.32466333" lon="1.97077833">
        <ele>226.0</ele>
        <time>2019-12-21T08:39:39.360Z</time>
      </trkpt>
      <trkpt lat="41.324685" lon="1.97075167">
        <ele>226.0</ele>
        <time>2019-12-21T08:39:40.360Z</time>
      </trkpt>
      <trkpt lat="41.324685" lon="1.97075167">
        <ele>226.0</ele>
        <time>2019-12-21T08:39:41.353Z</time>
      </trkpt>
      <trkpt lat="41.324715" lon="1.97069333">
        <ele>227.0</ele>
        <time>2019-12-21T08:39:42.367Z</time>
      </trkpt>
      <trkpt lat="41.324725" lon="1.97066">
        <ele>227.0</ele>
        <time>2019-12-21T08:39:43.360Z</time>
      </trkpt>
      <trkpt lat="41.32473" lon="1.97062">
        <ele>227.0</ele>
        <time>2019-12-21T08:39:44.361Z</time>
      </trkpt>
      <trkpt lat="41.32473" lon="1.97062">
        <ele>227.0</ele>
        <time>2019-12-21T08:39:45.353Z</time>
      </trkpt>
      <trkpt lat="41.32474667" lon="1.97054667">
        <ele>227.0</ele>
        <time>2019-12-21T08:39:46.360Z</time>
      </trkpt>
      <trkpt lat="41.32474667" lon="1.97054667">
        <ele>227.0</ele>
        <time>2019-12-21T08:39:47.353Z</time>
      </trkpt>
      <trkpt lat="41.324755" lon="1.970475">
        <ele>227.0</ele>
        <time>2019-12-21T08:39:48.360Z</time>
      </trkpt>
      <trkpt lat="41.324755" lon="1.970475">
        <ele>227.0</ele>
        <time>2019-12-21T08:39:49.358Z</time>
      </trkpt>
      <trkpt lat="41.32475667" lon="1.97039667">
        <ele>228.0</ele>
        <time>2019-12-21T08:39:50.361Z</time>
      </trkpt>
      <trkpt lat="41.32475667" lon="1.97039667">
        <ele>228.0</ele>
        <time>2019-12-21T08:39:51.354Z</time>
      </trkpt>
      <trkpt lat="41.32476" lon="1.97032333">
        <ele>228.0</ele>
        <time>2019-12-21T08:39:52.367Z</time>
      </trkpt>
      <trkpt lat="41.32476" lon="1.97032333">
        <ele>228.0</ele>
        <time>2019-12-21T08:39:53.355Z</time>
      </trkpt>
      <trkpt lat="41.32476833" lon="1.97024833">
        <ele>228.0</ele>
        <time>2019-12-21T08:39:54.365Z</time>
      </trkpt>
      <trkpt lat="41.32476833" lon="1.97024833">
        <ele>228.0</ele>
        <time>2019-12-21T08:39:55.338Z</time>
      </trkpt>
      <trkpt lat="41.324775" lon="1.97017167">
        <ele>228.0</ele>
        <time>2019-12-21T08:39:56.361Z</time>
      </trkpt>
      <trkpt lat="41.324775" lon="1.97017167">
        <ele>228.0</ele>
        <time>2019-12-21T08:39:57.354Z</time>
      </trkpt>
      <trkpt lat="41.32479" lon="1.97009667">
        <ele>228.0</ele>
        <time>2019-12-21T08:39:58.360Z</time>
      </trkpt>
      <trkpt lat="41.32479" lon="1.97009667">
        <ele>228.0</ele>
        <time>2019-12-21T08:39:59.354Z</time>
      </trkpt>
      <trkpt lat="41.32480833" lon="1.97002667">
        <ele>229.0</ele>
        <time>2019-12-21T08:40:00.368Z</time>
      </trkpt>
      <trkpt lat="41.32480833" lon="1.97002667">
        <ele>229.0</ele>
        <time>2019-12-21T08:40:01.354Z</time>
      </trkpt>
      <trkpt lat="41.324845" lon="1.969965">
        <ele>229.0</ele>
        <time>2019-12-21T08:40:02.365Z</time>
      </trkpt>
      <trkpt lat="41.324845" lon="1.969965">
        <ele>229.0</ele>
        <time>2019-12-21T08:40:03.353Z</time>
      </trkpt>
      <trkpt lat="41.32488167" lon="1.969905">
        <ele>229.0</ele>
        <time>2019-12-21T08:40:04.360Z</time>
      </trkpt>
      <trkpt lat="41.32488167" lon="1.969905">
        <ele>229.0</ele>
        <time>2019-12-21T08:40:05.354Z</time>
      </trkpt>
      <trkpt lat="41.32492167" lon="1.96985333">
        <ele>229.0</ele>
        <time>2019-12-21T08:40:06.360Z</time>
      </trkpt>
      <trkpt lat="41.32492167" lon="1.96985333">
        <ele>229.0</ele>
        <time>2019-12-21T08:40:07.354Z</time>
      </trkpt>
      <trkpt lat="41.32496667" lon="1.96980833">
        <ele>229.0</ele>
        <time>2019-12-21T08:40:08.362Z</time>
      </trkpt>
      <trkpt lat="41.32499" lon="1.96979">
        <ele>230.0</ele>
        <time>2019-12-21T08:40:09.360Z</time>
      </trkpt>
      <trkpt lat="41.32499" lon="1.96979">
        <ele>230.0</ele>
        <time>2019-12-21T08:40:10.354Z</time>
      </trkpt>
      <trkpt lat="41.325035" lon="1.96975">
        <ele>230.0</ele>
        <time>2019-12-21T08:40:11.360Z</time>
      </trkpt>
      <trkpt lat="41.325035" lon="1.96975">
        <ele>230.0</ele>
        <time>2019-12-21T08:40:12.354Z</time>
      </trkpt>
      <trkpt lat="41.32508" lon="1.96970333">
        <ele>230.0</ele>
        <time>2019-12-21T08:40:13.360Z</time>
      </trkpt>
      <trkpt lat="41.32510167" lon="1.969675">
        <ele>230.0</ele>
        <time>2019-12-21T08:40:14.342Z</time>
      </trkpt>
      <trkpt lat="41.32510167" lon="1.969675">
        <ele>230.0</ele>
        <time>2019-12-21T08:40:15.365Z</time>
      </trkpt>
      <trkpt lat="41.32513667" lon="1.96961833">
        <ele>230.0</ele>
        <time>2019-12-21T08:40:16.359Z</time>
      </trkpt>
      <trkpt lat="41.32513667" lon="1.96961833">
        <ele>230.0</ele>
        <time>2019-12-21T08:40:17.354Z</time>
      </trkpt>
      <trkpt lat="41.32517167" lon="1.96955667">
        <ele>230.0</ele>
        <time>2019-12-21T08:40:18.361Z</time>
      </trkpt>
      <trkpt lat="41.32517167" lon="1.96955667">
        <ele>230.0</ele>
        <time>2019-12-21T08:40:19.354Z</time>
      </trkpt>
      <trkpt lat="41.3252" lon="1.96948833">
        <ele>231.0</ele>
        <time>2019-12-21T08:40:20.338Z</time>
      </trkpt>
      <trkpt lat="41.3252" lon="1.96948833">
        <ele>231.0</ele>
        <time>2019-12-21T08:40:21.356Z</time>
      </trkpt>
      <trkpt lat="41.32522667" lon="1.96942">
        <ele>231.0</ele>
        <time>2019-12-21T08:40:22.367Z</time>
      </trkpt>
      <trkpt lat="41.32522667" lon="1.96942">
        <ele>231.0</ele>
        <time>2019-12-21T08:40:23.354Z</time>
      </trkpt>
      <trkpt lat="41.32524833" lon="1.96934333">
        <ele>231.0</ele>
        <time>2019-12-21T08:40:24.359Z</time>
      </trkpt>
      <trkpt lat="41.32524833" lon="1.96934333">
        <ele>231.0</ele>
        <time>2019-12-21T08:40:25.354Z</time>
      </trkpt>
      <trkpt lat="41.32525667" lon="1.96926667">
        <ele>231.0</ele>
        <time>2019-12-21T08:40:26.336Z</time>
      </trkpt>
      <trkpt lat="41.32526167" lon="1.96922833">
        <ele>231.0</ele>
        <time>2019-12-21T08:40:27.334Z</time>
      </trkpt>
      <trkpt lat="41.32526167" lon="1.96922833">
        <ele>231.0</ele>
        <time>2019-12-21T08:40:28.357Z</time>
      </trkpt>
      <trkpt lat="41.32526333" lon="1.96915">
        <ele>232.0</ele>
        <time>2019-12-21T08:40:29.359Z</time>
      </trkpt>
      <trkpt lat="41.32526333" lon="1.96915">
        <ele>232.0</ele>
        <time>2019-12-21T08:40:30.354Z</time>
      </trkpt>
      <trkpt lat="41.32526167" lon="1.96907667">
        <ele>232.0</ele>
        <time>2019-12-21T08:40:31.338Z</time>
      </trkpt>
      <trkpt lat="41.32524833" lon="1.96904">
        <ele>232.0</ele>
        <time>2019-12-21T08:40:32.369Z</time>
      </trkpt>
      <trkpt lat="41.32524833" lon="1.96904">
        <ele>232.0</ele>
        <time>2019-12-21T08:40:33.355Z</time>
      </trkpt>
      <trkpt lat="41.32521833" lon="1.968975">
        <ele>232.0</ele>
        <time>2019-12-21T08:40:34.359Z</time>
      </trkpt>
      <trkpt lat="41.32521833" lon="1.968975">
        <ele>232.0</ele>
        <time>2019-12-21T08:40:35.355Z</time>
      </trkpt>
      <trkpt lat="41.32517333" lon="1.96892">
        <ele>232.0</ele>
        <time>2019-12-21T08:40:36.359Z</time>
      </trkpt>
      <trkpt lat="41.32517333" lon="1.96892">
        <ele>232.0</ele>
        <time>2019-12-21T08:40:37.354Z</time>
      </trkpt>
      <trkpt lat="41.32511667" lon="1.96887833">
        <ele>232.0</ele>
        <time>2019-12-21T08:40:38.336Z</time>
      </trkpt>
      <trkpt lat="41.32511667" lon="1.96887833">
        <ele>232.0</ele>
        <time>2019-12-21T08:40:39.359Z</time>
      </trkpt>
      <trkpt lat="41.32505667" lon="1.96884667">
        <ele>232.0</ele>
        <time>2019-12-21T08:40:40.359Z</time>
      </trkpt>
      <trkpt lat="41.32505667" lon="1.96884667">
        <ele>232.0</ele>
        <time>2019-12-21T08:40:41.356Z</time>
      </trkpt>
      <trkpt lat="41.324995" lon="1.96881833">
        <ele>233.0</ele>
        <time>2019-12-21T08:40:42.336Z</time>
      </trkpt>
      <trkpt lat="41.324995" lon="1.96881833">
        <ele>233.0</ele>
        <time>2019-12-21T08:40:43.354Z</time>
      </trkpt>
      <trkpt lat="41.32492833" lon="1.968795">
        <ele>233.0</ele>
        <time>2019-12-21T08:40:44.336Z</time>
      </trkpt>
      <trkpt lat="41.32492833" lon="1.968795">
        <ele>233.0</ele>
        <time>2019-12-21T08:40:45.358Z</time>
      </trkpt>
      <trkpt lat="41.32486833" lon="1.96877667">
        <ele>233.0</ele>
        <time>2019-12-21T08:40:46.359Z</time>
      </trkpt>
      <trkpt lat="41.32486833" lon="1.96877667">
        <ele>233.0</ele>
        <time>2019-12-21T08:40:47.354Z</time>
      </trkpt>
      <trkpt lat="41.32481167" lon="1.968755">
        <ele>234.0</ele>
        <time>2019-12-21T08:40:48.359Z</time>
      </trkpt>
      <trkpt lat="41.32481167" lon="1.968755">
        <ele>234.0</ele>
        <time>2019-12-21T08:40:49.353Z</time>
      </trkpt>
      <trkpt lat="41.32476167" lon="1.96873833">
        <ele>234.0</ele>
        <time>2019-12-21T08:40:50.335Z</time>
      </trkpt>
      <trkpt lat="41.32476167" lon="1.96873833">
        <ele>234.0</ele>
        <time>2019-12-21T08:40:51.358Z</time>
      </trkpt>
      <trkpt lat="41.324705" lon="1.96872167">
        <ele>234.0</ele>
        <time>2019-12-21T08:40:52.367Z</time>
      </trkpt>
      <trkpt lat="41.324705" lon="1.96872167">
        <ele>234.0</ele>
        <time>2019-12-21T08:40:53.354Z</time>
      </trkpt>
      <trkpt lat="41.32464167" lon="1.96870167">
        <ele>235.0</ele>
        <time>2019-12-21T08:40:54.358Z</time>
      </trkpt>
      <trkpt lat="41.32460167" lon="1.96869167">
        <ele>235.0</ele>
        <time>2019-12-21T08:40:55.362Z</time>
      </trkpt>
      <trkpt lat="41.32460167" lon="1.96869167">
        <ele>235.0</ele>
        <time>2019-12-21T08:40:56.357Z</time>
      </trkpt>
      <trkpt lat="41.324535" lon="1.96866">
        <ele>235.0</ele>
        <time>2019-12-21T08:40:57.359Z</time>
      </trkpt>
      <trkpt lat="41.32450333" lon="1.96864">
        <ele>235.0</ele>
        <time>2019-12-21T08:40:58.360Z</time>
      </trkpt>
      <trkpt lat="41.32450333" lon="1.96864">
        <ele>235.0</ele>
        <time>2019-12-21T08:40:59.354Z</time>
      </trkpt>
      <trkpt lat="41.32446" lon="1.96858">
        <ele>236.0</ele>
        <time>2019-12-21T08:41:00.359Z</time>
      </trkpt>
      <trkpt lat="41.32446" lon="1.96858">
        <ele>236.0</ele>
        <time>2019-12-21T08:41:01.350Z</time>
      </trkpt>
      <trkpt lat="41.324425" lon="1.968505">
        <ele>236.0</ele>
        <time>2019-12-21T08:41:02.342Z</time>
      </trkpt>
      <trkpt lat="41.324425" lon="1.968505">
        <ele>236.0</ele>
        <time>2019-12-21T08:41:03.358Z</time>
      </trkpt>
      <trkpt lat="41.32439833" lon="1.968435">
        <ele>236.0</ele>
        <time>2019-12-21T08:41:04.371Z</time>
      </trkpt>
      <trkpt lat="41.32439833" lon="1.968435">
        <ele>236.0</ele>
        <time>2019-12-21T08:41:05.355Z</time>
      </trkpt>
      <trkpt lat="41.32437" lon="1.96836">
        <ele>236.0</ele>
        <time>2019-12-21T08:41:06.359Z</time>
      </trkpt>
      <trkpt lat="41.32435167" lon="1.968325">
        <ele>237.0</ele>
        <time>2019-12-21T08:41:07.361Z</time>
      </trkpt>
      <trkpt lat="41.32435167" lon="1.968325">
        <ele>237.0</ele>
        <time>2019-12-21T08:41:08.357Z</time>
      </trkpt>
      <trkpt lat="41.32431833" lon="1.96825667">
        <ele>237.0</ele>
        <time>2019-12-21T08:41:09.340Z</time>
      </trkpt>
      <trkpt lat="41.3243" lon="1.96822167">
        <ele>237.0</ele>
        <time>2019-12-21T08:41:10.364Z</time>
      </trkpt>
      <trkpt lat="41.3243" lon="1.96822167">
        <ele>237.0</ele>
        <time>2019-12-21T08:41:11.350Z</time>
      </trkpt>
      <trkpt lat="41.324265" lon="1.96815">
        <ele>237.0</ele>
        <time>2019-12-21T08:41:12.333Z</time>
      </trkpt>
      <trkpt lat="41.324265" lon="1.96815">
        <ele>237.0</ele>
        <time>2019-12-21T08:41:13.355Z</time>
      </trkpt>
      <trkpt lat="41.324225" lon="1.96807667">
        <ele>237.0</ele>
        <time>2019-12-21T08:41:14.338Z</time>
      </trkpt>
      <trkpt lat="41.324225" lon="1.96807667">
        <ele>237.0</ele>
        <time>2019-12-21T08:41:15.359Z</time>
      </trkpt>
      <trkpt lat="41.32419333" lon="1.96799667">
        <ele>237.0</ele>
        <time>2019-12-21T08:41:16.361Z</time>
      </trkpt>
      <trkpt lat="41.32419333" lon="1.96799667">
        <ele>237.0</ele>
        <time>2019-12-21T08:41:17.357Z</time>
      </trkpt>
      <trkpt lat="41.32417" lon="1.96791167">
        <ele>237.0</ele>
        <time>2019-12-21T08:41:18.361Z</time>
      </trkpt>
      <trkpt lat="41.32416333" lon="1.96786667">
        <ele>237.0</ele>
        <time>2019-12-21T08:41:19.360Z</time>
      </trkpt>
      <trkpt lat="41.32416833" lon="1.967815">
        <ele>237.0</ele>
        <time>2019-12-21T08:41:20.363Z</time>
      </trkpt>
      <trkpt lat="41.32416833" lon="1.967815">
        <ele>237.0</ele>
        <time>2019-12-21T08:41:21.357Z</time>
      </trkpt>
      <trkpt lat="41.32418833" lon="1.967715">
        <ele>237.0</ele>
        <time>2019-12-21T08:41:22.367Z</time>
      </trkpt>
      <trkpt lat="41.32418833" lon="1.967715">
        <ele>237.0</ele>
        <time>2019-12-21T08:41:23.354Z</time>
      </trkpt>
      <trkpt lat="41.324225" lon="1.96761667">
        <ele>236.0</ele>
        <time>2019-12-21T08:41:24.360Z</time>
      </trkpt>
      <trkpt lat="41.324225" lon="1.96761667">
        <ele>236.0</ele>
        <time>2019-12-21T08:41:25.354Z</time>
      </trkpt>
      <trkpt lat="41.32427" lon="1.96751667">
        <ele>236.0</ele>
        <time>2019-12-21T08:41:26.368Z</time>
      </trkpt>
      <trkpt lat="41.32427" lon="1.96751667">
        <ele>236.0</ele>
        <time>2019-12-21T08:41:27.355Z</time>
      </trkpt>
      <trkpt lat="41.32431167" lon="1.96743">
        <ele>236.0</ele>
        <time>2019-12-21T08:41:28.360Z</time>
      </trkpt>
      <trkpt lat="41.32431167" lon="1.96743">
        <ele>236.0</ele>
        <time>2019-12-21T08:41:29.354Z</time>
      </trkpt>
      <trkpt lat="41.32433833" lon="1.96734167">
        <ele>235.0</ele>
        <time>2019-12-21T08:41:30.361Z</time>
      </trkpt>
      <trkpt lat="41.32433833" lon="1.96734167">
        <ele>235.0</ele>
        <time>2019-12-21T08:41:31.359Z</time>
      </trkpt>
      <trkpt lat="41.32433167" lon="1.96725333">
        <ele>235.0</ele>
        <time>2019-12-21T08:41:32.367Z</time>
      </trkpt>
      <trkpt lat="41.32433167" lon="1.96725333">
        <ele>235.0</ele>
        <time>2019-12-21T08:41:33.355Z</time>
      </trkpt>
      <trkpt lat="41.32427833" lon="1.96719833">
        <ele>235.0</ele>
        <time>2019-12-21T08:41:34.340Z</time>
      </trkpt>
      <trkpt lat="41.32427833" lon="1.96719833">
        <ele>235.0</ele>
        <time>2019-12-21T08:41:35.363Z</time>
      </trkpt>
      <trkpt lat="41.32420833" lon="1.967185">
        <ele>235.0</ele>
        <time>2019-12-21T08:41:36.359Z</time>
      </trkpt>
      <trkpt lat="41.32420833" lon="1.967185">
        <ele>235.0</ele>
        <time>2019-12-21T08:41:37.355Z</time>
      </trkpt>
      <trkpt lat="41.32414" lon="1.96717667">
        <ele>235.0</ele>
        <time>2019-12-21T08:41:38.337Z</time>
      </trkpt>
      <trkpt lat="41.32414" lon="1.96717667">
        <ele>235.0</ele>
        <time>2019-12-21T08:41:39.360Z</time>
      </trkpt>
      <trkpt lat="41.324065" lon="1.967165">
        <ele>234.0</ele>
        <time>2019-12-21T08:41:40.360Z</time>
      </trkpt>
      <trkpt lat="41.32402667" lon="1.96714833">
        <ele>234.0</ele>
        <time>2019-12-21T08:41:41.361Z</time>
      </trkpt>
      <trkpt lat="41.32402667" lon="1.96714833">
        <ele>234.0</ele>
        <time>2019-12-21T08:41:42.355Z</time>
      </trkpt>
      <trkpt lat="41.323965" lon="1.967085">
        <ele>234.0</ele>
        <time>2019-12-21T08:41:43.360Z</time>
      </trkpt>
      <trkpt lat="41.32394167" lon="1.96704167">
        <ele>234.0</ele>
        <time>2019-12-21T08:41:44.362Z</time>
      </trkpt>
      <trkpt lat="41.32394167" lon="1.96704167">
        <ele>234.0</ele>
        <time>2019-12-21T08:41:45.355Z</time>
      </trkpt>
      <trkpt lat="41.32390167" lon="1.96695333">
        <ele>234.0</ele>
        <time>2019-12-21T08:41:46.361Z</time>
      </trkpt>
      <trkpt lat="41.32390167" lon="1.96695333">
        <ele>234.0</ele>
        <time>2019-12-21T08:41:47.355Z</time>
      </trkpt>
      <trkpt lat="41.32386167" lon="1.96686833">
        <ele>234.0</ele>
        <time>2019-12-21T08:41:48.360Z</time>
      </trkpt>
      <trkpt lat="41.32386167" lon="1.96686833">
        <ele>234.0</ele>
        <time>2019-12-21T08:41:49.355Z</time>
      </trkpt>
      <trkpt lat="41.32381" lon="1.96678333">
        <ele>233.0</ele>
        <time>2019-12-21T08:41:50.338Z</time>
      </trkpt>
      <trkpt lat="41.32381" lon="1.96678333">
        <ele>233.0</ele>
        <time>2019-12-21T08:41:51.359Z</time>
      </trkpt>
      <trkpt lat="41.32375" lon="1.96669667">
        <ele>233.0</ele>
        <time>2019-12-21T08:41:52.367Z</time>
      </trkpt>
      <trkpt lat="41.32375" lon="1.96669667">
        <ele>233.0</ele>
        <time>2019-12-21T08:41:53.355Z</time>
      </trkpt>
      <trkpt lat="41.32369667" lon="1.96660667">
        <ele>233.0</ele>
        <time>2019-12-21T08:41:54.337Z</time>
      </trkpt>
      <trkpt lat="41.32367167" lon="1.96655833">
        <ele>234.0</ele>
        <time>2019-12-21T08:41:55.339Z</time>
      </trkpt>
      <trkpt lat="41.32367167" lon="1.96655833">
        <ele>234.0</ele>
        <time>2019-12-21T08:41:56.363Z</time>
      </trkpt>
      <trkpt lat="41.32362833" lon="1.96646">
        <ele>234.0</ele>
        <time>2019-12-21T08:41:57.361Z</time>
      </trkpt>
      <trkpt lat="41.32362833" lon="1.96646">
        <ele>234.0</ele>
        <time>2019-12-21T08:41:58.355Z</time>
      </trkpt>
      <trkpt lat="41.32358" lon="1.966365">
        <ele>234.0</ele>
        <time>2019-12-21T08:41:59.340Z</time>
      </trkpt>
      <trkpt lat="41.32355833" lon="1.96631833">
        <ele>234.0</ele>
        <time>2019-12-21T08:42:00.368Z</time>
      </trkpt>
      <trkpt lat="41.32355833" lon="1.96631833">
        <ele>234.0</ele>
        <time>2019-12-21T08:42:01.355Z</time>
      </trkpt>
      <trkpt lat="41.32351167" lon="1.96622">
        <ele>234.0</ele>
        <time>2019-12-21T08:42:02.338Z</time>
      </trkpt>
      <trkpt lat="41.32351167" lon="1.96622">
        <ele>234.0</ele>
        <time>2019-12-21T08:42:03.361Z</time>
      </trkpt>
      <trkpt lat="41.323465" lon="1.96612667">
        <ele>234.0</ele>
        <time>2019-12-21T08:42:04.361Z</time>
      </trkpt>
      <trkpt lat="41.323465" lon="1.96612667">
        <ele>234.0</ele>
        <time>2019-12-21T08:42:05.354Z</time>
      </trkpt>
      <trkpt lat="41.32341667" lon="1.966035">
        <ele>234.0</ele>
        <time>2019-12-21T08:42:06.361Z</time>
      </trkpt>
      <trkpt lat="41.32341667" lon="1.966035">
        <ele>234.0</ele>
        <time>2019-12-21T08:42:07.352Z</time>
      </trkpt>
      <trkpt lat="41.32338" lon="1.96595">
        <ele>234.0</ele>
        <time>2019-12-21T08:42:08.335Z</time>
      </trkpt>
      <trkpt lat="41.32338" lon="1.96595">
        <ele>234.0</ele>
        <time>2019-12-21T08:42:09.357Z</time>
      </trkpt>
      <trkpt lat="41.32336833" lon="1.96587667">
        <ele>235.0</ele>
        <time>2019-12-21T08:42:10.361Z</time>
      </trkpt>
      <trkpt lat="41.32336833" lon="1.96587667">
        <ele>235.0</ele>
        <time>2019-12-21T08:42:11.355Z</time>
      </trkpt>
      <trkpt lat="41.32337167" lon="1.96580333">
        <ele>235.0</ele>
        <time>2019-12-21T08:42:12.367Z</time>
      </trkpt>
      <trkpt lat="41.32337167" lon="1.96580333">
        <ele>235.0</ele>
        <time>2019-12-21T08:42:13.362Z</time>
      </trkpt>
      <trkpt lat="41.32336333" lon="1.96574">
        <ele>236.0</ele>
        <time>2019-12-21T08:42:14.363Z</time>
      </trkpt>
      <trkpt lat="41.32336333" lon="1.96574">
        <ele>236.0</ele>
        <time>2019-12-21T08:42:15.355Z</time>
      </trkpt>
      <trkpt lat="41.32335" lon="1.96567833">
        <ele>236.0</ele>
        <time>2019-12-21T08:42:16.361Z</time>
      </trkpt>
      <trkpt lat="41.32335" lon="1.96567833">
        <ele>236.0</ele>
        <time>2019-12-21T08:42:17.355Z</time>
      </trkpt>
      <trkpt lat="41.32333" lon="1.96561">
        <ele>238.0</ele>
        <time>2019-12-21T08:42:18.361Z</time>
      </trkpt>
      <trkpt lat="41.32333" lon="1.96561">
        <ele>238.0</ele>
        <time>2019-12-21T08:42:19.355Z</time>
      </trkpt>
      <trkpt lat="41.323305" lon="1.96555833">
        <ele>238.0</ele>
        <time>2019-12-21T08:42:20.339Z</time>
      </trkpt>
      <trkpt lat="41.323305" lon="1.96555833">
        <ele>238.0</ele>
        <time>2019-12-21T08:42:21.362Z</time>
      </trkpt>
      <trkpt lat="41.32328833" lon="1.96550333">
        <ele>238.0</ele>
        <time>2019-12-21T08:42:22.367Z</time>
      </trkpt>
      <trkpt lat="41.32328833" lon="1.96550333">
        <ele>238.0</ele>
        <time>2019-12-21T08:42:23.355Z</time>
      </trkpt>
      <trkpt lat="41.32327167" lon="1.96544833">
        <ele>238.0</ele>
        <time>2019-12-21T08:42:24.340Z</time>
      </trkpt>
      <trkpt lat="41.32327167" lon="1.96544833">
        <ele>238.0</ele>
        <time>2019-12-21T08:42:25.363Z</time>
      </trkpt>
      <trkpt lat="41.32324333" lon="1.96539667">
        <ele>239.0</ele>
        <time>2019-12-21T08:42:26.363Z</time>
      </trkpt>
      <trkpt lat="41.32324333" lon="1.96539667">
        <ele>239.0</ele>
        <time>2019-12-21T08:42:27.365Z</time>
      </trkpt>
      <trkpt lat="41.32322167" lon="1.965345">
        <ele>240.0</ele>
        <time>2019-12-21T08:42:28.361Z</time>
      </trkpt>
      <trkpt lat="41.32322167" lon="1.965345">
        <ele>240.0</ele>
        <time>2019-12-21T08:42:29.368Z</time>
      </trkpt>
      <trkpt lat="41.32319167" lon="1.965285">
        <ele>240.0</ele>
        <time>2019-12-21T08:42:30.361Z</time>
      </trkpt>
      <trkpt lat="41.32319167" lon="1.965285">
        <ele>240.0</ele>
        <time>2019-12-21T08:42:31.356Z</time>
      </trkpt>
      <trkpt lat="41.32316333" lon="1.96522667">
        <ele>241.0</ele>
        <time>2019-12-21T08:42:32.370Z</time>
      </trkpt>
      <trkpt lat="41.32316333" lon="1.96522667">
        <ele>241.0</ele>
        <time>2019-12-21T08:42:33.356Z</time>
      </trkpt>
      <trkpt lat="41.32313" lon="1.96516">
        <ele>242.0</ele>
        <time>2019-12-21T08:42:34.361Z</time>
      </trkpt>
      <trkpt lat="41.32313" lon="1.96516">
        <ele>242.0</ele>
        <time>2019-12-21T08:42:35.355Z</time>
      </trkpt>
      <trkpt lat="41.32310167" lon="1.9651">
        <ele>243.0</ele>
        <time>2019-12-21T08:42:36.361Z</time>
      </trkpt>
      <trkpt lat="41.32308667" lon="1.96507167">
        <ele>243.0</ele>
        <time>2019-12-21T08:42:37.361Z</time>
      </trkpt>
      <trkpt lat="41.32308667" lon="1.96507167">
        <ele>243.0</ele>
        <time>2019-12-21T08:42:38.359Z</time>
      </trkpt>
      <trkpt lat="41.32306667" lon="1.96502">
        <ele>243.0</ele>
        <time>2019-12-21T08:42:39.361Z</time>
      </trkpt>
      <trkpt lat="41.32305333" lon="1.96499">
        <ele>243.0</ele>
        <time>2019-12-21T08:42:40.361Z</time>
      </trkpt>
      <trkpt lat="41.32305333" lon="1.96499">
        <ele>243.0</ele>
        <time>2019-12-21T08:42:41.355Z</time>
      </trkpt>
      <trkpt lat="41.32303" lon="1.964935">
        <ele>244.0</ele>
        <time>2019-12-21T08:42:42.339Z</time>
      </trkpt>
      <trkpt lat="41.32303" lon="1.964935">
        <ele>244.0</ele>
        <time>2019-12-21T08:42:43.356Z</time>
      </trkpt>
      <trkpt lat="41.32300333" lon="1.96487833">
        <ele>245.0</ele>
        <time>2019-12-21T08:42:44.339Z</time>
      </trkpt>
      <trkpt lat="41.32300333" lon="1.96487833">
        <ele>245.0</ele>
        <time>2019-12-21T08:42:45.361Z</time>
      </trkpt>
      <trkpt lat="41.322975" lon="1.964825">
        <ele>245.0</ele>
        <time>2019-12-21T08:42:46.362Z</time>
      </trkpt>
      <trkpt lat="41.322975" lon="1.964825">
        <ele>245.0</ele>
        <time>2019-12-21T08:42:47.355Z</time>
      </trkpt>
      <trkpt lat="41.32295" lon="1.964775">
        <ele>246.0</ele>
        <time>2019-12-21T08:42:48.361Z</time>
      </trkpt>
      <trkpt lat="41.32295" lon="1.964775">
        <ele>246.0</ele>
        <time>2019-12-21T08:42:49.358Z</time>
      </trkpt>
      <trkpt lat="41.32292833" lon="1.96472667">
        <ele>246.0</ele>
        <time>2019-12-21T08:42:50.364Z</time>
      </trkpt>
      <trkpt lat="41.32292833" lon="1.96472667">
        <ele>246.0</ele>
        <time>2019-12-21T08:42:51.355Z</time>
      </trkpt>
      <trkpt lat="41.32290167" lon="1.96468">
        <ele>247.0</ele>
        <time>2019-12-21T08:42:52.341Z</time>
      </trkpt>
      <trkpt lat="41.32290167" lon="1.96468">
        <ele>247.0</ele>
        <time>2019-12-21T08:42:53.363Z</time>
      </trkpt>
      <trkpt lat="41.322875" lon="1.96463333">
        <ele>247.0</ele>
        <time>2019-12-21T08:42:54.368Z</time>
      </trkpt>
      <trkpt lat="41.322875" lon="1.96463333">
        <ele>247.0</ele>
        <time>2019-12-21T08:42:55.333Z</time>
      </trkpt>
      <trkpt lat="41.32284" lon="1.96459">
        <ele>248.0</ele>
        <time>2019-12-21T08:42:56.363Z</time>
      </trkpt>
      <trkpt lat="41.32284" lon="1.96459">
        <ele>248.0</ele>
        <time>2019-12-21T08:42:57.355Z</time>
      </trkpt>
      <trkpt lat="41.32280167" lon="1.96454667">
        <ele>248.0</ele>
        <time>2019-12-21T08:42:58.361Z</time>
      </trkpt>
      <trkpt lat="41.32280167" lon="1.96454667">
        <ele>248.0</ele>
        <time>2019-12-21T08:42:59.356Z</time>
      </trkpt>
      <trkpt lat="41.32276" lon="1.96450167">
        <ele>248.0</ele>
        <time>2019-12-21T08:43:00.361Z</time>
      </trkpt>
      <trkpt lat="41.32276" lon="1.96450167">
        <ele>248.0</ele>
        <time>2019-12-21T08:43:01.356Z</time>
      </trkpt>
      <trkpt lat="41.32271667" lon="1.96445833">
        <ele>248.0</ele>
        <time>2019-12-21T08:43:02.339Z</time>
      </trkpt>
      <trkpt lat="41.32271667" lon="1.96445833">
        <ele>248.0</ele>
        <time>2019-12-21T08:43:03.361Z</time>
      </trkpt>
      <trkpt lat="41.32267667" lon="1.964415">
        <ele>249.0</ele>
        <time>2019-12-21T08:43:04.362Z</time>
      </trkpt>
      <trkpt lat="41.32267667" lon="1.964415">
        <ele>249.0</ele>
        <time>2019-12-21T08:43:05.355Z</time>
      </trkpt>
      <trkpt lat="41.32264167" lon="1.96436167">
        <ele>249.0</ele>
        <time>2019-12-21T08:43:06.362Z</time>
      </trkpt>
      <trkpt lat="41.32264167" lon="1.96436167">
        <ele>249.0</ele>
        <time>2019-12-21T08:43:07.355Z</time>
      </trkpt>
      <trkpt lat="41.32261" lon="1.96430667">
        <ele>249.0</ele>
        <time>2019-12-21T08:43:08.338Z</time>
      </trkpt>
      <trkpt lat="41.322595" lon="1.96427667">
        <ele>249.0</ele>
        <time>2019-12-21T08:43:09.362Z</time>
      </trkpt>
      <trkpt lat="41.322595" lon="1.96427667">
        <ele>249.0</ele>
        <time>2019-12-21T08:43:10.356Z</time>
      </trkpt>
      <trkpt lat="41.32256667" lon="1.964215">
        <ele>249.0</ele>
        <time>2019-12-21T08:43:11.361Z</time>
      </trkpt>
      <trkpt lat="41.32256667" lon="1.964215">
        <ele>249.0</ele>
        <time>2019-12-21T08:43:12.365Z</time>
      </trkpt>
      <trkpt lat="41.32253833" lon="1.964145">
        <ele>249.0</ele>
        <time>2019-12-21T08:43:13.361Z</time>
      </trkpt>
      <trkpt lat="41.32252667" lon="1.96410667">
        <ele>249.0</ele>
        <time>2019-12-21T08:43:14.367Z</time>
      </trkpt>
      <trkpt lat="41.32252667" lon="1.96410667">
        <ele>249.0</ele>
        <time>2019-12-21T08:43:15.356Z</time>
      </trkpt>
      <trkpt lat="41.32250667" lon="1.96402">
        <ele>249.0</ele>
        <time>2019-12-21T08:43:16.362Z</time>
      </trkpt>
      <trkpt lat="41.32250667" lon="1.96402">
        <ele>249.0</ele>
        <time>2019-12-21T08:43:17.355Z</time>
      </trkpt>
      <trkpt lat="41.32248" lon="1.96394333">
        <ele>249.0</ele>
        <time>2019-12-21T08:43:18.361Z</time>
      </trkpt>
      <trkpt lat="41.32246167" lon="1.963905">
        <ele>250.0</ele>
        <time>2019-12-21T08:43:19.363Z</time>
      </trkpt>
      <trkpt lat="41.32245" lon="1.96386333">
        <ele>250.0</ele>
        <time>2019-12-21T08:43:20.363Z</time>
      </trkpt>
      <trkpt lat="41.322445" lon="1.96381833">
        <ele>251.0</ele>
        <time>2019-12-21T08:43:21.362Z</time>
      </trkpt>
      <trkpt lat="41.322445" lon="1.96381833">
        <ele>251.0</ele>
        <time>2019-12-21T08:43:22.356Z</time>
      </trkpt>
      <trkpt lat="41.32245333" lon="1.96373667">
        <ele>251.0</ele>
        <time>2019-12-21T08:43:23.361Z</time>
      </trkpt>
      <trkpt lat="41.32245333" lon="1.96373667">
        <ele>251.0</ele>
        <time>2019-12-21T08:43:24.356Z</time>
      </trkpt>
      <trkpt lat="41.32246333" lon="1.96366667">
        <ele>252.0</ele>
        <time>2019-12-21T08:43:25.361Z</time>
      </trkpt>
      <trkpt lat="41.32247" lon="1.96362833">
        <ele>252.0</ele>
        <time>2019-12-21T08:43:26.335Z</time>
      </trkpt>
      <trkpt lat="41.32247" lon="1.96362833">
        <ele>252.0</ele>
        <time>2019-12-21T08:43:27.358Z</time>
      </trkpt>
      <trkpt lat="41.322485" lon="1.96354667">
        <ele>253.0</ele>
        <time>2019-12-21T08:43:28.361Z</time>
      </trkpt>
      <trkpt lat="41.322485" lon="1.96354667">
        <ele>253.0</ele>
        <time>2019-12-21T08:43:29.356Z</time>
      </trkpt>
      <trkpt lat="41.322485" lon="1.96347167">
        <ele>254.0</ele>
        <time>2019-12-21T08:43:30.361Z</time>
      </trkpt>
      <trkpt lat="41.322485" lon="1.96347167">
        <ele>254.0</ele>
        <time>2019-12-21T08:43:31.356Z</time>
      </trkpt>
      <trkpt lat="41.32247833" lon="1.96340167">
        <ele>255.0</ele>
        <time>2019-12-21T08:43:32.340Z</time>
      </trkpt>
      <trkpt lat="41.32247833" lon="1.96340167">
        <ele>255.0</ele>
        <time>2019-12-21T08:43:33.357Z</time>
      </trkpt>
      <trkpt lat="41.32247833" lon="1.96334333">
        <ele>257.0</ele>
        <time>2019-12-21T08:43:34.360Z</time>
      </trkpt>
      <trkpt lat="41.32247833" lon="1.96334333">
        <ele>257.0</ele>
        <time>2019-12-21T08:43:35.356Z</time>
      </trkpt>
      <trkpt lat="41.32247667" lon="1.96326833">
        <ele>257.0</ele>
        <time>2019-12-21T08:43:36.361Z</time>
      </trkpt>
      <trkpt lat="41.32247667" lon="1.96326833">
        <ele>257.0</ele>
        <time>2019-12-21T08:43:37.356Z</time>
      </trkpt>
      <trkpt lat="41.32250833" lon="1.96319667">
        <ele>258.0</ele>
        <time>2019-12-21T08:43:38.363Z</time>
      </trkpt>
      <trkpt lat="41.32250833" lon="1.96319667">
        <ele>258.0</ele>
        <time>2019-12-21T08:43:39.356Z</time>
      </trkpt>
      <trkpt lat="41.32254833" lon="1.963115">
        <ele>258.0</ele>
        <time>2019-12-21T08:43:40.361Z</time>
      </trkpt>
      <trkpt lat="41.32254833" lon="1.963115">
        <ele>258.0</ele>
        <time>2019-12-21T08:43:41.356Z</time>
      </trkpt>
      <trkpt lat="41.322575" lon="1.96304167">
        <ele>259.0</ele>
        <time>2019-12-21T08:43:42.367Z</time>
      </trkpt>
      <trkpt lat="41.322575" lon="1.96304167">
        <ele>259.0</ele>
        <time>2019-12-21T08:43:43.356Z</time>
      </trkpt>
      <trkpt lat="41.32259" lon="1.96297167">
        <ele>260.0</ele>
        <time>2019-12-21T08:43:44.343Z</time>
      </trkpt>
      <trkpt lat="41.32259" lon="1.96297167">
        <ele>260.0</ele>
        <time>2019-12-21T08:43:45.372Z</time>
      </trkpt>
      <trkpt lat="41.3226" lon="1.96289833">
        <ele>261.0</ele>
        <time>2019-12-21T08:43:46.361Z</time>
      </trkpt>
      <trkpt lat="41.3226" lon="1.96289833">
        <ele>261.0</ele>
        <time>2019-12-21T08:43:47.356Z</time>
      </trkpt>
      <trkpt lat="41.32260667" lon="1.962825">
        <ele>262.0</ele>
        <time>2019-12-21T08:43:48.361Z</time>
      </trkpt>
      <trkpt lat="41.32260667" lon="1.962825">
        <ele>262.0</ele>
        <time>2019-12-21T08:43:49.360Z</time>
      </trkpt>
      <trkpt lat="41.32260167" lon="1.96274167">
        <ele>263.0</ele>
        <time>2019-12-21T08:43:50.364Z</time>
      </trkpt>
      <trkpt lat="41.32259667" lon="1.962705">
        <ele>264.0</ele>
        <time>2019-12-21T08:43:51.362Z</time>
      </trkpt>
      <trkpt lat="41.32259667" lon="1.962705">
        <ele>264.0</ele>
        <time>2019-12-21T08:43:52.370Z</time>
      </trkpt>
      <trkpt lat="41.322595" lon="1.96263">
        <ele>265.0</ele>
        <time>2019-12-21T08:43:53.361Z</time>
      </trkpt>
      <trkpt lat="41.322595" lon="1.96263">
        <ele>265.0</ele>
        <time>2019-12-21T08:43:54.366Z</time>
      </trkpt>
      <trkpt lat="41.322585" lon="1.96256333">
        <ele>266.0</ele>
        <time>2019-12-21T08:43:55.369Z</time>
      </trkpt>
      <trkpt lat="41.32259167" lon="1.96253167">
        <ele>266.0</ele>
        <time>2019-12-21T08:43:56.364Z</time>
      </trkpt>
      <trkpt lat="41.32259167" lon="1.96253167">
        <ele>266.0</ele>
        <time>2019-12-21T08:43:57.356Z</time>
      </trkpt>
      <trkpt lat="41.322615" lon="1.96246667">
        <ele>267.0</ele>
        <time>2019-12-21T08:43:58.362Z</time>
      </trkpt>
      <trkpt lat="41.322625" lon="1.962405">
        <ele>267.0</ele>
        <time>2019-12-21T08:43:59.360Z</time>
      </trkpt>
      <trkpt lat="41.322625" lon="1.962405">
        <ele>267.0</ele>
        <time>2019-12-21T08:44:00.357Z</time>
      </trkpt>
      <trkpt lat="41.32266" lon="1.96229667">
        <ele>268.0</ele>
        <time>2019-12-21T08:44:01.363Z</time>
      </trkpt>
      <trkpt lat="41.32266" lon="1.96225167">
        <ele>269.0</ele>
        <time>2019-12-21T08:44:02.364Z</time>
      </trkpt>
      <trkpt lat="41.32266" lon="1.96225167">
        <ele>269.0</ele>
        <time>2019-12-21T08:44:03.357Z</time>
      </trkpt>
      <trkpt lat="41.32267333" lon="1.96217333">
        <ele>270.0</ele>
        <time>2019-12-21T08:44:04.362Z</time>
      </trkpt>
      <trkpt lat="41.32267333" lon="1.96217333">
        <ele>270.0</ele>
        <time>2019-12-21T08:44:05.356Z</time>
      </trkpt>
      <trkpt lat="41.322695" lon="1.96208667">
        <ele>271.0</ele>
        <time>2019-12-21T08:44:06.361Z</time>
      </trkpt>
      <trkpt lat="41.322695" lon="1.96208667">
        <ele>271.0</ele>
        <time>2019-12-21T08:44:07.356Z</time>
      </trkpt>
      <trkpt lat="41.32271333" lon="1.96200333">
        <ele>272.0</ele>
        <time>2019-12-21T08:44:08.340Z</time>
      </trkpt>
      <trkpt lat="41.32271333" lon="1.96200333">
        <ele>272.0</ele>
        <time>2019-12-21T08:44:09.364Z</time>
      </trkpt>
      <trkpt lat="41.32271667" lon="1.96190833">
        <ele>273.0</ele>
        <time>2019-12-21T08:44:10.363Z</time>
      </trkpt>
      <trkpt lat="41.32271667" lon="1.96190833">
        <ele>273.0</ele>
        <time>2019-12-21T08:44:11.356Z</time>
      </trkpt>
      <trkpt lat="41.32271667" lon="1.96180667">
        <ele>275.0</ele>
        <time>2019-12-21T08:44:12.363Z</time>
      </trkpt>
      <trkpt lat="41.32271667" lon="1.96180667">
        <ele>275.0</ele>
        <time>2019-12-21T08:44:13.356Z</time>
      </trkpt>
      <trkpt lat="41.32270333" lon="1.96171833">
        <ele>276.0</ele>
        <time>2019-12-21T08:44:14.343Z</time>
      </trkpt>
      <trkpt lat="41.32270333" lon="1.96171833">
        <ele>276.0</ele>
        <time>2019-12-21T08:44:15.338Z</time>
      </trkpt>
      <trkpt lat="41.32268167" lon="1.96165167">
        <ele>277.0</ele>
        <time>2019-12-21T08:44:16.361Z</time>
      </trkpt>
      <trkpt lat="41.32268167" lon="1.96161667">
        <ele>278.0</ele>
        <time>2019-12-21T08:44:17.368Z</time>
      </trkpt>
      <trkpt lat="41.32268167" lon="1.96161667">
        <ele>278.0</ele>
        <time>2019-12-21T08:44:18.356Z</time>
      </trkpt>
      <trkpt lat="41.322675" lon="1.961545">
        <ele>279.0</ele>
        <time>2019-12-21T08:44:19.362Z</time>
      </trkpt>
      <trkpt lat="41.32266667" lon="1.96151167">
        <ele>279.0</ele>
        <time>2019-12-21T08:44:20.363Z</time>
      </trkpt>
      <trkpt lat="41.32266667" lon="1.96151167">
        <ele>279.0</ele>
        <time>2019-12-21T08:44:21.356Z</time>
      </trkpt>
      <trkpt lat="41.32265" lon="1.96145833">
        <ele>280.0</ele>
        <time>2019-12-21T08:44:22.368Z</time>
      </trkpt>
      <trkpt lat="41.32265" lon="1.96145833">
        <ele>280.0</ele>
        <time>2019-12-21T08:44:23.370Z</time>
      </trkpt>
      <trkpt lat="41.32264333" lon="1.96142167">
        <ele>280.0</ele>
        <time>2019-12-21T08:44:24.361Z</time>
      </trkpt>
      <trkpt lat="41.322645" lon="1.96141167">
        <ele>280.0</ele>
        <time>2019-12-21T08:44:25.362Z</time>
      </trkpt>
      <trkpt lat="41.322645" lon="1.96141167">
        <ele>280.0</ele>
        <time>2019-12-21T08:44:26.335Z</time>
      </trkpt>
      <trkpt lat="41.32265833" lon="1.96139167">
        <ele>279.0</ele>
        <time>2019-12-21T08:44:27.361Z</time>
      </trkpt>
      <trkpt lat="41.32265833" lon="1.96139167">
        <ele>279.0</ele>
        <time>2019-12-21T08:44:28.357Z</time>
      </trkpt>
      <trkpt lat="41.32266167" lon="1.961385">
        <ele>278.0</ele>
        <time>2019-12-21T08:44:29.362Z</time>
      </trkpt>
      <trkpt lat="41.32266167" lon="1.961385">
        <ele>278.0</ele>
        <time>2019-12-21T08:44:30.345Z</time>
      </trkpt>
      <trkpt lat="41.32264667" lon="1.961265">
        <ele>271.0</ele>
        <time>2019-12-21T08:44:31.371Z</time>
      </trkpt>
      <trkpt lat="41.32263833" lon="1.96124833">
        <ele>271.0</ele>
        <time>2019-12-21T08:44:32.372Z</time>
      </trkpt>
      <trkpt lat="41.32263833" lon="1.96124833">
        <ele>271.0</ele>
        <time>2019-12-21T08:44:33.368Z</time>
      </trkpt>
      <trkpt lat="41.322625" lon="1.96120333">
        <ele>270.0</ele>
        <time>2019-12-21T08:44:34.371Z</time>
      </trkpt>
      <trkpt lat="41.322625" lon="1.96120333">
        <ele>270.0</ele>
        <time>2019-12-21T08:44:35.366Z</time>
      </trkpt>
      <trkpt lat="41.32261167" lon="1.961165">
        <ele>270.0</ele>
        <time>2019-12-21T08:44:36.348Z</time>
      </trkpt>
      <trkpt lat="41.32260167" lon="1.96114167">
        <ele>270.0</ele>
        <time>2019-12-21T08:44:37.371Z</time>
      </trkpt>
      <trkpt lat="41.32260167" lon="1.96114167">
        <ele>270.0</ele>
        <time>2019-12-21T08:44:38.366Z</time>
      </trkpt>
      <trkpt lat="41.322575" lon="1.96110333">
        <ele>270.0</ele>
        <time>2019-12-21T08:44:39.354Z</time>
      </trkpt>
      <trkpt lat="41.322575" lon="1.96110333">
        <ele>270.0</ele>
        <time>2019-12-21T08:44:40.372Z</time>
      </trkpt>
      <trkpt lat="41.32255833" lon="1.96106667">
        <ele>270.0</ele>
        <time>2019-12-21T08:44:41.371Z</time>
      </trkpt>
      <trkpt lat="41.32255833" lon="1.96106667">
        <ele>270.0</ele>
        <time>2019-12-21T08:44:42.366Z</time>
      </trkpt>
      <trkpt lat="41.32255167" lon="1.961035">
        <ele>269.0</ele>
        <time>2019-12-21T08:44:43.347Z</time>
      </trkpt>
      <trkpt lat="41.32255167" lon="1.961035">
        <ele>269.0</ele>
        <time>2019-12-21T08:44:44.336Z</time>
      </trkpt>
      <trkpt lat="41.32253333" lon="1.96099833">
        <ele>269.0</ele>
        <time>2019-12-21T08:44:45.334Z</time>
      </trkpt>
      <trkpt lat="41.32253333" lon="1.96099833">
        <ele>269.0</ele>
        <time>2019-12-21T08:44:46.369Z</time>
      </trkpt>
      <trkpt lat="41.32251" lon="1.96096167">
        <ele>269.0</ele>
        <time>2019-12-21T08:44:47.350Z</time>
      </trkpt>
      <trkpt lat="41.32251" lon="1.96096167">
        <ele>269.0</ele>
        <time>2019-12-21T08:44:48.333Z</time>
      </trkpt>
      <trkpt lat="41.32250333" lon="1.960925">
        <ele>269.0</ele>
        <time>2019-12-21T08:44:49.371Z</time>
      </trkpt>
      <trkpt lat="41.32250333" lon="1.960925">
        <ele>269.0</ele>
        <time>2019-12-21T08:44:50.349Z</time>
      </trkpt>
      <trkpt lat="41.32249667" lon="1.96088833">
        <ele>269.0</ele>
        <time>2019-12-21T08:44:51.333Z</time>
      </trkpt>
      <trkpt lat="41.32249667" lon="1.96088833">
        <ele>269.0</ele>
        <time>2019-12-21T08:44:52.358Z</time>
      </trkpt>
      <trkpt lat="41.32247167" lon="1.960845">
        <ele>269.0</ele>
        <time>2019-12-21T08:44:53.340Z</time>
      </trkpt>
      <trkpt lat="41.32247167" lon="1.960845">
        <ele>269.0</ele>
        <time>2019-12-21T08:44:54.367Z</time>
      </trkpt>
      <trkpt lat="41.32243667" lon="1.96077667">
        <ele>269.0</ele>
        <time>2019-12-21T08:44:55.339Z</time>
      </trkpt>
      <trkpt lat="41.32243667" lon="1.96077667">
        <ele>269.0</ele>
        <time>2019-12-21T08:44:56.367Z</time>
      </trkpt>
      <trkpt lat="41.32237833" lon="1.96069">
        <ele>269.0</ele>
        <time>2019-12-21T08:44:57.345Z</time>
      </trkpt>
      <trkpt lat="41.32237833" lon="1.96069">
        <ele>269.0</ele>
        <time>2019-12-21T08:44:58.369Z</time>
      </trkpt>
      <trkpt lat="41.32230667" lon="1.96060167">
        <ele>269.0</ele>
        <time>2019-12-21T08:44:59.371Z</time>
      </trkpt>
      <trkpt lat="41.32230667" lon="1.96060167">
        <ele>269.0</ele>
        <time>2019-12-21T08:45:00.367Z</time>
      </trkpt>
      <trkpt lat="41.32224833" lon="1.96051167">
        <ele>269.0</ele>
        <time>2019-12-21T08:45:01.372Z</time>
      </trkpt>
      <trkpt lat="41.32224833" lon="1.96051167">
        <ele>269.0</ele>
        <time>2019-12-21T08:45:02.366Z</time>
      </trkpt>
      <trkpt lat="41.32217333" lon="1.96043333">
        <ele>268.0</ele>
        <time>2019-12-21T08:45:03.353Z</time>
      </trkpt>
      <trkpt lat="41.32213167" lon="1.96040667">
        <ele>268.0</ele>
        <time>2019-12-21T08:45:04.372Z</time>
      </trkpt>
      <trkpt lat="41.32213167" lon="1.96040667">
        <ele>268.0</ele>
        <time>2019-12-21T08:45:05.366Z</time>
      </trkpt>
      <trkpt lat="41.322065" lon="1.96033167">
        <ele>268.0</ele>
        <time>2019-12-21T08:45:06.352Z</time>
      </trkpt>
      <trkpt lat="41.322065" lon="1.96033167">
        <ele>268.0</ele>
        <time>2019-12-21T08:45:07.345Z</time>
      </trkpt>
      <trkpt lat="41.32201833" lon="1.96024167">
        <ele>269.0</ele>
        <time>2019-12-21T08:45:08.369Z</time>
      </trkpt>
      <trkpt lat="41.32200167" lon="1.96020333">
        <ele>269.0</ele>
        <time>2019-12-21T08:45:09.333Z</time>
      </trkpt>
      <trkpt lat="41.32200167" lon="1.96020333">
        <ele>269.0</ele>
        <time>2019-12-21T08:45:10.366Z</time>
      </trkpt>
      <trkpt lat="41.32199" lon="1.96012167">
        <ele>269.0</ele>
        <time>2019-12-21T08:45:11.372Z</time>
      </trkpt>
      <trkpt lat="41.32199" lon="1.96012167">
        <ele>269.0</ele>
        <time>2019-12-21T08:45:12.366Z</time>
      </trkpt>
      <trkpt lat="41.32201833" lon="1.96004">
        <ele>269.0</ele>
        <time>2019-12-21T08:45:13.347Z</time>
      </trkpt>
      <trkpt lat="41.32201833" lon="1.96004">
        <ele>269.0</ele>
        <time>2019-12-21T08:45:14.368Z</time>
      </trkpt>
      <trkpt lat="41.32205167" lon="1.95993667">
        <ele>270.0</ele>
        <time>2019-12-21T08:45:15.334Z</time>
      </trkpt>
      <trkpt lat="41.32205167" lon="1.95993667">
        <ele>270.0</ele>
        <time>2019-12-21T08:45:16.367Z</time>
      </trkpt>
      <trkpt lat="41.32205833" lon="1.95984667">
        <ele>271.0</ele>
        <time>2019-12-21T08:45:17.333Z</time>
      </trkpt>
      <trkpt lat="41.32205833" lon="1.95984667">
        <ele>271.0</ele>
        <time>2019-12-21T08:45:18.367Z</time>
      </trkpt>
      <trkpt lat="41.32202833" lon="1.959775">
        <ele>272.0</ele>
        <time>2019-12-21T08:45:19.348Z</time>
      </trkpt>
      <trkpt lat="41.32200167" lon="1.95974167">
        <ele>272.0</ele>
        <time>2019-12-21T08:45:20.371Z</time>
      </trkpt>
      <trkpt lat="41.321975" lon="1.95970833">
        <ele>272.0</ele>
        <time>2019-12-21T08:45:21.333Z</time>
      </trkpt>
      <trkpt lat="41.321975" lon="1.95970833">
        <ele>272.0</ele>
        <time>2019-12-21T08:45:22.366Z</time>
      </trkpt>
      <trkpt lat="41.321925" lon="1.959655">
        <ele>272.0</ele>
        <time>2019-12-21T08:45:23.372Z</time>
      </trkpt>
      <trkpt lat="41.321925" lon="1.959655">
        <ele>272.0</ele>
        <time>2019-12-21T08:45:24.366Z</time>
      </trkpt>
      <trkpt lat="41.32188167" lon="1.95959833">
        <ele>273.0</ele>
        <time>2019-12-21T08:45:25.352Z</time>
      </trkpt>
      <trkpt lat="41.32188167" lon="1.95959833">
        <ele>273.0</ele>
        <time>2019-12-21T08:45:26.371Z</time>
      </trkpt>
      <trkpt lat="41.32184" lon="1.95953167">
        <ele>273.0</ele>
        <time>2019-12-21T08:45:27.354Z</time>
      </trkpt>
      <trkpt lat="41.32184" lon="1.95953167">
        <ele>273.0</ele>
        <time>2019-12-21T08:45:28.337Z</time>
      </trkpt>
      <trkpt lat="41.32179833" lon="1.95946833">
        <ele>273.0</ele>
        <time>2019-12-21T08:45:29.372Z</time>
      </trkpt>
      <trkpt lat="41.32179833" lon="1.95946833">
        <ele>273.0</ele>
        <time>2019-12-21T08:45:30.369Z</time>
      </trkpt>
      <trkpt lat="41.321755" lon="1.95939167">
        <ele>273.0</ele>
        <time>2019-12-21T08:45:31.371Z</time>
      </trkpt>
      <trkpt lat="41.32173667" lon="1.95936167">
        <ele>273.0</ele>
        <time>2019-12-21T08:45:32.372Z</time>
      </trkpt>
      <trkpt lat="41.32173667" lon="1.95936167">
        <ele>273.0</ele>
        <time>2019-12-21T08:45:33.368Z</time>
      </trkpt>
      <trkpt lat="41.32169333" lon="1.9593">
        <ele>274.0</ele>
        <time>2019-12-21T08:45:34.372Z</time>
      </trkpt>
      <trkpt lat="41.32169333" lon="1.9593">
        <ele>274.0</ele>
        <time>2019-12-21T08:45:35.367Z</time>
      </trkpt>
      <trkpt lat="41.32165667" lon="1.95925667">
        <ele>274.0</ele>
        <time>2019-12-21T08:45:36.351Z</time>
      </trkpt>
      <trkpt lat="41.32165667" lon="1.95925667">
        <ele>274.0</ele>
        <time>2019-12-21T08:45:37.369Z</time>
      </trkpt>
      <trkpt lat="41.32162167" lon="1.95922167">
        <ele>274.0</ele>
        <time>2019-12-21T08:45:38.372Z</time>
      </trkpt>
      <trkpt lat="41.32160167" lon="1.95920667">
        <ele>274.0</ele>
        <time>2019-12-21T08:45:39.334Z</time>
      </trkpt>
      <trkpt lat="41.32160167" lon="1.95920667">
        <ele>274.0</ele>
        <time>2019-12-21T08:45:40.366Z</time>
      </trkpt>
      <trkpt lat="41.32156167" lon="1.95917167">
        <ele>274.0</ele>
        <time>2019-12-21T08:45:41.348Z</time>
      </trkpt>
      <trkpt lat="41.32156167" lon="1.95917167">
        <ele>274.0</ele>
        <time>2019-12-21T08:45:42.368Z</time>
      </trkpt>
      <trkpt lat="41.321505" lon="1.95913833">
        <ele>275.0</ele>
        <time>2019-12-21T08:45:43.372Z</time>
      </trkpt>
      <trkpt lat="41.321505" lon="1.95913833">
        <ele>275.0</ele>
        <time>2019-12-21T08:45:44.366Z</time>
      </trkpt>
      <trkpt lat="41.32144667" lon="1.959095">
        <ele>275.0</ele>
        <time>2019-12-21T08:45:45.348Z</time>
      </trkpt>
      <trkpt lat="41.32144667" lon="1.959095">
        <ele>275.0</ele>
        <time>2019-12-21T08:45:46.371Z</time>
      </trkpt>
      <trkpt lat="41.32139" lon="1.95904833">
        <ele>275.0</ele>
        <time>2019-12-21T08:45:47.369Z</time>
      </trkpt>
      <trkpt lat="41.32139" lon="1.95904833">
        <ele>275.0</ele>
        <time>2019-12-21T08:45:48.367Z</time>
      </trkpt>
      <trkpt lat="41.32134333" lon="1.959">
        <ele>276.0</ele>
        <time>2019-12-21T08:45:49.372Z</time>
      </trkpt>
      <trkpt lat="41.32134333" lon="1.959">
        <ele>276.0</ele>
        <time>2019-12-21T08:45:50.367Z</time>
      </trkpt>
      <trkpt lat="41.321295" lon="1.95896">
        <ele>277.0</ele>
        <time>2019-12-21T08:45:51.348Z</time>
      </trkpt>
      <trkpt lat="41.321295" lon="1.95896">
        <ele>277.0</ele>
        <time>2019-12-21T08:45:52.367Z</time>
      </trkpt>
      <trkpt lat="41.32124833" lon="1.95892167">
        <ele>277.0</ele>
        <time>2019-12-21T08:45:53.372Z</time>
      </trkpt>
      <trkpt lat="41.32124833" lon="1.95892167">
        <ele>277.0</ele>
        <time>2019-12-21T08:45:54.367Z</time>
      </trkpt>
      <trkpt lat="41.32120833" lon="1.958885">
        <ele>277.0</ele>
        <time>2019-12-21T08:45:55.333Z</time>
      </trkpt>
      <trkpt lat="41.32120833" lon="1.958885">
        <ele>277.0</ele>
        <time>2019-12-21T08:45:56.367Z</time>
      </trkpt>
      <trkpt lat="41.32116667" lon="1.95884667">
        <ele>277.0</ele>
        <time>2019-12-21T08:45:57.350Z</time>
      </trkpt>
      <trkpt lat="41.32114667" lon="1.958825">
        <ele>278.0</ele>
        <time>2019-12-21T08:45:58.335Z</time>
      </trkpt>
      <trkpt lat="41.321125" lon="1.95880333">
        <ele>278.0</ele>
        <time>2019-12-21T08:45:59.334Z</time>
      </trkpt>
      <trkpt lat="41.321125" lon="1.95880333">
        <ele>278.0</ele>
        <time>2019-12-21T08:46:00.367Z</time>
      </trkpt>
      <trkpt lat="41.32108167" lon="1.958755">
        <ele>278.0</ele>
        <time>2019-12-21T08:46:01.372Z</time>
      </trkpt>
      <trkpt lat="41.32108167" lon="1.958755">
        <ele>278.0</ele>
        <time>2019-12-21T08:46:02.367Z</time>
      </trkpt>
      <trkpt lat="41.321045" lon="1.95870333">
        <ele>278.0</ele>
        <time>2019-12-21T08:46:03.349Z</time>
      </trkpt>
      <trkpt lat="41.321045" lon="1.95870333">
        <ele>278.0</ele>
        <time>2019-12-21T08:46:04.367Z</time>
      </trkpt>
      <trkpt lat="41.32099667" lon="1.95864333">
        <ele>279.0</ele>
        <time>2019-12-21T08:46:05.337Z</time>
      </trkpt>
      <trkpt lat="41.32099667" lon="1.95864333">
        <ele>279.0</ele>
        <time>2019-12-21T08:46:06.367Z</time>
      </trkpt>
      <trkpt lat="41.320955" lon="1.95861667">
        <ele>279.0</ele>
        <time>2019-12-21T08:46:07.352Z</time>
      </trkpt>
      <trkpt lat="41.320955" lon="1.95861667">
        <ele>279.0</ele>
        <time>2019-12-21T08:46:08.335Z</time>
      </trkpt>
      <trkpt lat="41.32093" lon="1.95859833">
        <ele>279.0</ele>
        <time>2019-12-21T08:46:09.334Z</time>
      </trkpt>
      <trkpt lat="41.32093" lon="1.95859833">
        <ele>279.0</ele>
        <time>2019-12-21T08:46:10.367Z</time>
      </trkpt>
      <trkpt lat="41.32089833" lon="1.95857167">
        <ele>278.0</ele>
        <time>2019-12-21T08:46:11.373Z</time>
      </trkpt>
      <trkpt lat="41.32089833" lon="1.95857167">
        <ele>278.0</ele>
        <time>2019-12-21T08:46:12.367Z</time>
      </trkpt>
      <trkpt lat="41.32085833" lon="1.95853333">
        <ele>277.0</ele>
        <time>2019-12-21T08:46:13.373Z</time>
      </trkpt>
      <trkpt lat="41.32085833" lon="1.95853333">
        <ele>277.0</ele>
        <time>2019-12-21T08:46:14.367Z</time>
      </trkpt>
      <trkpt lat="41.32080833" lon="1.95848">
        <ele>277.0</ele>
        <time>2019-12-21T08:46:15.335Z</time>
      </trkpt>
      <trkpt lat="41.32080833" lon="1.95848">
        <ele>277.0</ele>
        <time>2019-12-21T08:46:16.367Z</time>
      </trkpt>
      <trkpt lat="41.32077" lon="1.95838">
        <ele>275.0</ele>
        <time>2019-12-21T08:46:17.351Z</time>
      </trkpt>
      <trkpt lat="41.32074333" lon="1.95832">
        <ele>275.0</ele>
        <time>2019-12-21T08:46:18.349Z</time>
      </trkpt>
      <trkpt lat="41.32074333" lon="1.95832">
        <ele>275.0</ele>
        <time>2019-12-21T08:46:19.367Z</time>
      </trkpt>
      <trkpt lat="41.320695" lon="1.95819167">
        <ele>274.0</ele>
        <time>2019-12-21T08:46:20.370Z</time>
      </trkpt>
      <trkpt lat="41.32068167" lon="1.95812667">
        <ele>274.0</ele>
        <time>2019-12-21T08:46:21.372Z</time>
      </trkpt>
      <trkpt lat="41.32068167" lon="1.95812667">
        <ele>274.0</ele>
        <time>2019-12-21T08:46:22.367Z</time>
      </trkpt>
      <trkpt lat="41.32063333" lon="1.95803">
        <ele>274.0</ele>
        <time>2019-12-21T08:46:23.372Z</time>
      </trkpt>
      <trkpt lat="41.32061" lon="1.95798833">
        <ele>274.0</ele>
        <time>2019-12-21T08:46:24.373Z</time>
      </trkpt>
      <trkpt lat="41.32061" lon="1.95798833">
        <ele>274.0</ele>
        <time>2019-12-21T08:46:25.367Z</time>
      </trkpt>
      <trkpt lat="41.32057333" lon="1.95789667">
        <ele>273.0</ele>
        <time>2019-12-21T08:46:26.372Z</time>
      </trkpt>
      <trkpt lat="41.32057333" lon="1.95789667">
        <ele>273.0</ele>
        <time>2019-12-21T08:46:27.366Z</time>
      </trkpt>
      <trkpt lat="41.32053333" lon="1.95781333">
        <ele>273.0</ele>
        <time>2019-12-21T08:46:28.348Z</time>
      </trkpt>
      <trkpt lat="41.32051667" lon="1.95777333">
        <ele>273.0</ele>
        <time>2019-12-21T08:46:29.333Z</time>
      </trkpt>
      <trkpt lat="41.32051667" lon="1.95777333">
        <ele>273.0</ele>
        <time>2019-12-21T08:46:30.368Z</time>
      </trkpt>
      <trkpt lat="41.32047833" lon="1.95767667">
        <ele>273.0</ele>
        <time>2019-12-21T08:46:31.372Z</time>
      </trkpt>
      <trkpt lat="41.32045667" lon="1.95762167">
        <ele>274.0</ele>
        <time>2019-12-21T08:46:32.372Z</time>
      </trkpt>
      <trkpt lat="41.32044167" lon="1.95756">
        <ele>274.0</ele>
        <time>2019-12-21T08:46:33.372Z</time>
      </trkpt>
      <trkpt lat="41.32044167" lon="1.95756">
        <ele>274.0</ele>
        <time>2019-12-21T08:46:34.367Z</time>
      </trkpt>
      <trkpt lat="41.320405" lon="1.95745167">
        <ele>273.0</ele>
        <time>2019-12-21T08:46:35.372Z</time>
      </trkpt>
      <trkpt lat="41.320405" lon="1.95745167">
        <ele>273.0</ele>
        <time>2019-12-21T08:46:36.367Z</time>
      </trkpt>
      <trkpt lat="41.320375" lon="1.95735167">
        <ele>273.0</ele>
        <time>2019-12-21T08:46:37.349Z</time>
      </trkpt>
      <trkpt lat="41.32036" lon="1.95730667">
        <ele>274.0</ele>
        <time>2019-12-21T08:46:38.372Z</time>
      </trkpt>
      <trkpt lat="41.32034333" lon="1.95726833">
        <ele>273.0</ele>
        <time>2019-12-21T08:46:39.335Z</time>
      </trkpt>
      <trkpt lat="41.32034333" lon="1.95726833">
        <ele>273.0</ele>
        <time>2019-12-21T08:46:40.368Z</time>
      </trkpt>
      <trkpt lat="41.32029167" lon="1.95723667">
        <ele>273.0</ele>
        <time>2019-12-21T08:46:41.371Z</time>
      </trkpt>
      <trkpt lat="41.32029167" lon="1.95723667">
        <ele>273.0</ele>
        <time>2019-12-21T08:46:42.348Z</time>
      </trkpt>
      <trkpt lat="41.32020667" lon="1.957225">
        <ele>273.0</ele>
        <time>2019-12-21T08:46:43.372Z</time>
      </trkpt>
      <trkpt lat="41.32020667" lon="1.957225">
        <ele>273.0</ele>
        <time>2019-12-21T08:46:44.367Z</time>
      </trkpt>
      <trkpt lat="41.320095" lon="1.95713167">
        <ele>273.0</ele>
        <time>2019-12-21T08:46:45.349Z</time>
      </trkpt>
      <trkpt lat="41.320095" lon="1.95713167">
        <ele>273.0</ele>
        <time>2019-12-21T08:46:46.369Z</time>
      </trkpt>
      <trkpt lat="41.31997333" lon="1.95702833">
        <ele>272.0</ele>
        <time>2019-12-21T08:46:47.353Z</time>
      </trkpt>
      <trkpt lat="41.31997333" lon="1.95702833">
        <ele>272.0</ele>
        <time>2019-12-21T08:46:48.370Z</time>
      </trkpt>
      <trkpt lat="41.31987333" lon="1.95694833">
        <ele>272.0</ele>
        <time>2019-12-21T08:46:49.372Z</time>
      </trkpt>
      <trkpt lat="41.31987333" lon="1.95694833">
        <ele>272.0</ele>
        <time>2019-12-21T08:46:50.335Z</time>
      </trkpt>
      <trkpt lat="41.31980333" lon="1.95689667">
        <ele>272.0</ele>
        <time>2019-12-21T08:46:51.372Z</time>
      </trkpt>
      <trkpt lat="41.31980333" lon="1.95689667">
        <ele>272.0</ele>
        <time>2019-12-21T08:46:52.368Z</time>
      </trkpt>
      <trkpt lat="41.31976" lon="1.956865">
        <ele>271.0</ele>
        <time>2019-12-21T08:46:53.372Z</time>
      </trkpt>
      <trkpt lat="41.319745" lon="1.95685333">
        <ele>271.0</ele>
        <time>2019-12-21T08:46:54.339Z</time>
      </trkpt>
      <trkpt lat="41.319745" lon="1.95685333">
        <ele>271.0</ele>
        <time>2019-12-21T08:46:55.344Z</time>
      </trkpt>
      <trkpt lat="41.31972" lon="1.95682667">
        <ele>271.0</ele>
        <time>2019-12-21T08:46:56.372Z</time>
      </trkpt>
      <trkpt lat="41.319705" lon="1.95681333">
        <ele>271.0</ele>
        <time>2019-12-21T08:46:57.334Z</time>
      </trkpt>
      <trkpt lat="41.319705" lon="1.95681333">
        <ele>271.0</ele>
        <time>2019-12-21T08:46:58.368Z</time>
      </trkpt>
      <trkpt lat="41.31968333" lon="1.95678333">
        <ele>271.0</ele>
        <time>2019-12-21T08:46:59.372Z</time>
      </trkpt>
      <trkpt lat="41.31968333" lon="1.95678333">
        <ele>271.0</ele>
        <time>2019-12-21T08:47:00.368Z</time>
      </trkpt>
      <trkpt lat="41.319665" lon="1.95675">
        <ele>271.0</ele>
        <time>2019-12-21T08:47:01.372Z</time>
      </trkpt>
      <trkpt lat="41.319665" lon="1.95675">
        <ele>271.0</ele>
        <time>2019-12-21T08:47:02.367Z</time>
      </trkpt>
      <trkpt lat="41.31965333" lon="1.95671333">
        <ele>271.0</ele>
        <time>2019-12-21T08:47:03.349Z</time>
      </trkpt>
      <trkpt lat="41.31965333" lon="1.95671333">
        <ele>271.0</ele>
        <time>2019-12-21T08:47:04.367Z</time>
      </trkpt>
      <trkpt lat="41.31964167" lon="1.956675">
        <ele>271.0</ele>
        <time>2019-12-21T08:47:05.354Z</time>
      </trkpt>
      <trkpt lat="41.31964167" lon="1.956675">
        <ele>271.0</ele>
        <time>2019-12-21T08:47:06.371Z</time>
      </trkpt>
      <trkpt lat="41.319635" lon="1.95663333">
        <ele>271.0</ele>
        <time>2019-12-21T08:47:07.353Z</time>
      </trkpt>
      <trkpt lat="41.319635" lon="1.95663333">
        <ele>271.0</ele>
        <time>2019-12-21T08:47:08.336Z</time>
      </trkpt>
      <trkpt lat="41.31963667" lon="1.95658333">
        <ele>272.0</ele>
        <time>2019-12-21T08:47:09.335Z</time>
      </trkpt>
      <trkpt lat="41.31963667" lon="1.95658333">
        <ele>272.0</ele>
        <time>2019-12-21T08:47:10.368Z</time>
      </trkpt>
      <trkpt lat="41.31963167" lon="1.95653333">
        <ele>272.0</ele>
        <time>2019-12-21T08:47:11.333Z</time>
      </trkpt>
      <trkpt lat="41.31963167" lon="1.95651333">
        <ele>273.0</ele>
        <time>2019-12-21T08:47:12.333Z</time>
      </trkpt>
      <trkpt lat="41.31963167" lon="1.95651333">
        <ele>273.0</ele>
        <time>2019-12-21T08:47:13.368Z</time>
      </trkpt>
      <trkpt lat="41.319635" lon="1.95646833">
        <ele>273.0</ele>
        <time>2019-12-21T08:47:14.373Z</time>
      </trkpt>
      <trkpt lat="41.31962667" lon="1.95644667">
        <ele>274.0</ele>
        <time>2019-12-21T08:47:15.372Z</time>
      </trkpt>
      <trkpt lat="41.31962667" lon="1.95644667">
        <ele>274.0</ele>
        <time>2019-12-21T08:47:16.367Z</time>
      </trkpt>
      <trkpt lat="41.31961667" lon="1.956405">
        <ele>275.0</ele>
        <time>2019-12-21T08:47:17.353Z</time>
      </trkpt>
      <trkpt lat="41.31961667" lon="1.956405">
        <ele>275.0</ele>
        <time>2019-12-21T08:47:18.340Z</time>
      </trkpt>
      <trkpt lat="41.31960833" lon="1.95636">
        <ele>275.0</ele>
        <time>2019-12-21T08:47:19.372Z</time>
      </trkpt>
      <trkpt lat="41.31960833" lon="1.95636">
        <ele>275.0</ele>
        <time>2019-12-21T08:47:20.368Z</time>
      </trkpt>
      <trkpt lat="41.31961333" lon="1.95631667">
        <ele>276.0</ele>
        <time>2019-12-21T08:47:21.349Z</time>
      </trkpt>
      <trkpt lat="41.31961333" lon="1.95631667">
        <ele>276.0</ele>
        <time>2019-12-21T08:47:22.367Z</time>
      </trkpt>
      <trkpt lat="41.31961333" lon="1.956275">
        <ele>277.0</ele>
        <time>2019-12-21T08:47:23.333Z</time>
      </trkpt>
      <trkpt lat="41.31961333" lon="1.956275">
        <ele>277.0</ele>
        <time>2019-12-21T08:47:24.367Z</time>
      </trkpt>
      <trkpt lat="41.31960833" lon="1.95623167">
        <ele>277.0</ele>
        <time>2019-12-21T08:47:25.349Z</time>
      </trkpt>
      <trkpt lat="41.31960833" lon="1.95623167">
        <ele>277.0</ele>
        <time>2019-12-21T08:47:26.340Z</time>
      </trkpt>
      <trkpt lat="41.319605" lon="1.95619">
        <ele>278.0</ele>
        <time>2019-12-21T08:47:27.335Z</time>
      </trkpt>
      <trkpt lat="41.319605" lon="1.95619">
        <ele>278.0</ele>
        <time>2019-12-21T08:47:28.355Z</time>
      </trkpt>
      <trkpt lat="41.319595" lon="1.95613167">
        <ele>279.0</ele>
        <time>2019-12-21T08:47:29.341Z</time>
      </trkpt>
      <trkpt lat="41.319595" lon="1.95613167">
        <ele>279.0</ele>
        <time>2019-12-21T08:47:30.367Z</time>
      </trkpt>
      <trkpt lat="41.31957" lon="1.95607833">
        <ele>279.0</ele>
        <time>2019-12-21T08:47:31.372Z</time>
      </trkpt>
      <trkpt lat="41.31957" lon="1.95607833">
        <ele>279.0</ele>
        <time>2019-12-21T08:47:32.367Z</time>
      </trkpt>
      <trkpt lat="41.319545" lon="1.95602">
        <ele>280.0</ele>
        <time>2019-12-21T08:47:33.349Z</time>
      </trkpt>
      <trkpt lat="41.319545" lon="1.95602">
        <ele>280.0</ele>
        <time>2019-12-21T08:47:34.371Z</time>
      </trkpt>
      <trkpt lat="41.319515" lon="1.95596667">
        <ele>280.0</ele>
        <time>2019-12-21T08:47:35.348Z</time>
      </trkpt>
      <trkpt lat="41.319515" lon="1.95596667">
        <ele>280.0</ele>
        <time>2019-12-21T08:47:36.342Z</time>
      </trkpt>
      <trkpt lat="41.31948167" lon="1.95592">
        <ele>281.0</ele>
        <time>2019-12-21T08:47:37.373Z</time>
      </trkpt>
      <trkpt lat="41.31948167" lon="1.95592">
        <ele>281.0</ele>
        <time>2019-12-21T08:47:38.368Z</time>
      </trkpt>
      <trkpt lat="41.31944667" lon="1.95586">
        <ele>281.0</ele>
        <time>2019-12-21T08:47:39.349Z</time>
      </trkpt>
      <trkpt lat="41.31944667" lon="1.95586">
        <ele>281.0</ele>
        <time>2019-12-21T08:47:40.370Z</time>
      </trkpt>
      <trkpt lat="41.31940167" lon="1.95580667">
        <ele>281.0</ele>
        <time>2019-12-21T08:47:41.333Z</time>
      </trkpt>
      <trkpt lat="41.31940167" lon="1.95580667">
        <ele>281.0</ele>
        <time>2019-12-21T08:47:42.367Z</time>
      </trkpt>
      <trkpt lat="41.31935833" lon="1.95575667">
        <ele>281.0</ele>
        <time>2019-12-21T08:47:43.372Z</time>
      </trkpt>
      <trkpt lat="41.31935833" lon="1.95575667">
        <ele>281.0</ele>
        <time>2019-12-21T08:47:44.367Z</time>
      </trkpt>
      <trkpt lat="41.31931833" lon="1.95571">
        <ele>282.0</ele>
        <time>2019-12-21T08:47:45.348Z</time>
      </trkpt>
      <trkpt lat="41.31931833" lon="1.95571">
        <ele>282.0</ele>
        <time>2019-12-21T08:47:46.368Z</time>
      </trkpt>
      <trkpt lat="41.31927833" lon="1.95565833">
        <ele>282.0</ele>
        <time>2019-12-21T08:47:47.353Z</time>
      </trkpt>
      <trkpt lat="41.31927833" lon="1.95565833">
        <ele>282.0</ele>
        <time>2019-12-21T08:47:48.337Z</time>
      </trkpt>
      <trkpt lat="41.319235" lon="1.95558333">
        <ele>283.0</ele>
        <time>2019-12-21T08:47:49.333Z</time>
      </trkpt>
      <trkpt lat="41.319235" lon="1.95558333">
        <ele>283.0</ele>
        <time>2019-12-21T08:47:50.368Z</time>
      </trkpt>
      <trkpt lat="41.31920333" lon="1.9555">
        <ele>283.0</ele>
        <time>2019-12-21T08:47:51.349Z</time>
      </trkpt>
      <trkpt lat="41.31920333" lon="1.9555">
        <ele>283.0</ele>
        <time>2019-12-21T08:47:52.368Z</time>
      </trkpt>
      <trkpt lat="41.319195" lon="1.95540333">
        <ele>284.0</ele>
        <time>2019-12-21T08:47:53.343Z</time>
      </trkpt>
      <trkpt lat="41.319195" lon="1.95540333">
        <ele>284.0</ele>
        <time>2019-12-21T08:47:54.349Z</time>
      </trkpt>
      <trkpt lat="41.31920333" lon="1.95530333">
        <ele>284.0</ele>
        <time>2019-12-21T08:47:55.347Z</time>
      </trkpt>
      <trkpt lat="41.31920333" lon="1.95530333">
        <ele>284.0</ele>
        <time>2019-12-21T08:47:56.368Z</time>
      </trkpt>
      <trkpt lat="41.31922333" lon="1.9552">
        <ele>284.0</ele>
        <time>2019-12-21T08:47:57.350Z</time>
      </trkpt>
      <trkpt lat="41.31922333" lon="1.9552">
        <ele>284.0</ele>
        <time>2019-12-21T08:47:58.334Z</time>
      </trkpt>
      <trkpt lat="41.31925833" lon="1.95511167">
        <ele>284.0</ele>
        <time>2019-12-21T08:47:59.333Z</time>
      </trkpt>
      <trkpt lat="41.31925833" lon="1.95511167">
        <ele>284.0</ele>
        <time>2019-12-21T08:48:00.368Z</time>
      </trkpt>
      <trkpt lat="41.31929333" lon="1.95502833">
        <ele>285.0</ele>
        <time>2019-12-21T08:48:01.372Z</time>
      </trkpt>
      <trkpt lat="41.31929333" lon="1.95502833">
        <ele>285.0</ele>
        <time>2019-12-21T08:48:02.368Z</time>
      </trkpt>
      <trkpt lat="41.31933333" lon="1.95494667">
        <ele>285.0</ele>
        <time>2019-12-21T08:48:03.335Z</time>
      </trkpt>
      <trkpt lat="41.31933333" lon="1.95494667">
        <ele>285.0</ele>
        <time>2019-12-21T08:48:04.368Z</time>
      </trkpt>
      <trkpt lat="41.31936833" lon="1.95485833">
        <ele>285.0</ele>
        <time>2019-12-21T08:48:05.333Z</time>
      </trkpt>
      <trkpt lat="41.31936833" lon="1.95485833">
        <ele>285.0</ele>
        <time>2019-12-21T08:48:06.368Z</time>
      </trkpt>
      <trkpt lat="41.31937667" lon="1.954755">
        <ele>285.0</ele>
        <time>2019-12-21T08:48:07.353Z</time>
      </trkpt>
      <trkpt lat="41.31937667" lon="1.954755">
        <ele>285.0</ele>
        <time>2019-12-21T08:48:08.336Z</time>
      </trkpt>
      <trkpt lat="41.31932833" lon="1.95463">
        <ele>285.0</ele>
        <time>2019-12-21T08:48:09.372Z</time>
      </trkpt>
      <trkpt lat="41.31932833" lon="1.95463">
        <ele>285.0</ele>
        <time>2019-12-21T08:48:10.368Z</time>
      </trkpt>
      <trkpt lat="41.319285" lon="1.95452">
        <ele>285.0</ele>
        <time>2019-12-21T08:48:11.349Z</time>
      </trkpt>
      <trkpt lat="41.319275" lon="1.95447">
        <ele>286.0</ele>
        <time>2019-12-21T08:48:12.334Z</time>
      </trkpt>
      <trkpt lat="41.319275" lon="1.95447">
        <ele>286.0</ele>
        <time>2019-12-21T08:48:13.368Z</time>
      </trkpt>
      <trkpt lat="41.31926333" lon="1.954375">
        <ele>286.0</ele>
        <time>2019-12-21T08:48:14.333Z</time>
      </trkpt>
      <trkpt lat="41.31926333" lon="1.95432833">
        <ele>286.0</ele>
        <time>2019-12-21T08:48:15.334Z</time>
      </trkpt>
      <trkpt lat="41.31926333" lon="1.95432833">
        <ele>286.0</ele>
        <time>2019-12-21T08:48:16.368Z</time>
      </trkpt>
      <trkpt lat="41.31927" lon="1.95423167">
        <ele>286.0</ele>
        <time>2019-12-21T08:48:17.353Z</time>
      </trkpt>
      <trkpt lat="41.31927" lon="1.95423167">
        <ele>286.0</ele>
        <time>2019-12-21T08:48:18.337Z</time>
      </trkpt>
      <trkpt lat="41.319275" lon="1.954135">
        <ele>286.0</ele>
        <time>2019-12-21T08:48:19.334Z</time>
      </trkpt>
      <trkpt lat="41.319275" lon="1.954135">
        <ele>286.0</ele>
        <time>2019-12-21T08:48:20.368Z</time>
      </trkpt>
      <trkpt lat="41.31926833" lon="1.95404333">
        <ele>287.0</ele>
        <time>2019-12-21T08:48:21.349Z</time>
      </trkpt>
      <trkpt lat="41.31926833" lon="1.95404333">
        <ele>287.0</ele>
        <time>2019-12-21T08:48:22.367Z</time>
      </trkpt>
      <trkpt lat="41.31928333" lon="1.95396167">
        <ele>287.0</ele>
        <time>2019-12-21T08:48:23.349Z</time>
      </trkpt>
      <trkpt lat="41.31928333" lon="1.95396167">
        <ele>287.0</ele>
        <time>2019-12-21T08:48:24.367Z</time>
      </trkpt>
      <trkpt lat="41.31930333" lon="1.95388167">
        <ele>288.0</ele>
        <time>2019-12-21T08:48:25.348Z</time>
      </trkpt>
      <trkpt lat="41.31930333" lon="1.95388167">
        <ele>288.0</ele>
        <time>2019-12-21T08:48:26.372Z</time>
      </trkpt>
      <trkpt lat="41.31932667" lon="1.95380667">
        <ele>288.0</ele>
        <time>2019-12-21T08:48:27.336Z</time>
      </trkpt>
      <trkpt lat="41.31932667" lon="1.95380667">
        <ele>288.0</ele>
        <time>2019-12-21T08:48:28.369Z</time>
      </trkpt>
      <trkpt lat="41.31934333" lon="1.95373333">
        <ele>288.0</ele>
        <time>2019-12-21T08:48:29.334Z</time>
      </trkpt>
      <trkpt lat="41.31934333" lon="1.95373333">
        <ele>288.0</ele>
        <time>2019-12-21T08:48:30.368Z</time>
      </trkpt>
      <trkpt lat="41.31936167" lon="1.95364833">
        <ele>289.0</ele>
        <time>2019-12-21T08:48:31.333Z</time>
      </trkpt>
      <trkpt lat="41.31937167" lon="1.95360833">
        <ele>289.0</ele>
        <time>2019-12-21T08:48:32.333Z</time>
      </trkpt>
      <trkpt lat="41.31937167" lon="1.95360833">
        <ele>289.0</ele>
        <time>2019-12-21T08:48:33.370Z</time>
      </trkpt>
      <trkpt lat="41.31939" lon="1.95353167">
        <ele>289.0</ele>
        <time>2019-12-21T08:48:34.372Z</time>
      </trkpt>
      <trkpt lat="41.31939" lon="1.95353167">
        <ele>289.0</ele>
        <time>2019-12-21T08:48:35.349Z</time>
      </trkpt>
      <trkpt lat="41.31940833" lon="1.95344833">
        <ele>290.0</ele>
        <time>2019-12-21T08:48:36.373Z</time>
      </trkpt>
      <trkpt lat="41.31940833" lon="1.95344833">
        <ele>290.0</ele>
        <time>2019-12-21T08:48:37.368Z</time>
      </trkpt>
      <trkpt lat="41.31942333" lon="1.95336833">
        <ele>290.0</ele>
        <time>2019-12-21T08:48:38.350Z</time>
      </trkpt>
      <trkpt lat="41.319425" lon="1.95331833">
        <ele>290.0</ele>
        <time>2019-12-21T08:48:39.334Z</time>
      </trkpt>
      <trkpt lat="41.319425" lon="1.95331833">
        <ele>290.0</ele>
        <time>2019-12-21T08:48:40.368Z</time>
      </trkpt>
      <trkpt lat="41.319445" lon="1.95323667">
        <ele>290.0</ele>
        <time>2019-12-21T08:48:41.333Z</time>
      </trkpt>
      <trkpt lat="41.319445" lon="1.95323667">
        <ele>290.0</ele>
        <time>2019-12-21T08:48:42.353Z</time>
      </trkpt>
      <trkpt lat="41.319475" lon="1.95318">
        <ele>291.0</ele>
        <time>2019-12-21T08:48:43.334Z</time>
      </trkpt>
      <trkpt lat="41.319475" lon="1.95318">
        <ele>291.0</ele>
        <time>2019-12-21T08:48:44.368Z</time>
      </trkpt>
      <trkpt lat="41.31951167" lon="1.95313167">
        <ele>291.0</ele>
        <time>2019-12-21T08:48:45.350Z</time>
      </trkpt>
      <trkpt lat="41.31951167" lon="1.95313167">
        <ele>291.0</ele>
        <time>2019-12-21T08:48:46.370Z</time>
      </trkpt>
      <trkpt lat="41.31954667" lon="1.95309833">
        <ele>291.0</ele>
        <time>2019-12-21T08:48:47.354Z</time>
      </trkpt>
      <trkpt lat="41.31954667" lon="1.95309833">
        <ele>291.0</ele>
        <time>2019-12-21T08:48:48.337Z</time>
      </trkpt>
      <trkpt lat="41.31961333" lon="1.95309">
        <ele>292.0</ele>
        <time>2019-12-21T08:48:49.333Z</time>
      </trkpt>
      <trkpt lat="41.31961333" lon="1.95309">
        <ele>292.0</ele>
        <time>2019-12-21T08:48:50.368Z</time>
      </trkpt>
      <trkpt lat="41.319675" lon="1.95308667">
        <ele>292.0</ele>
        <time>2019-12-21T08:48:51.350Z</time>
      </trkpt>
      <trkpt lat="41.319675" lon="1.95308667">
        <ele>292.0</ele>
        <time>2019-12-21T08:48:52.370Z</time>
      </trkpt>
      <trkpt lat="41.31973833" lon="1.95309833">
        <ele>292.0</ele>
        <time>2019-12-21T08:48:53.333Z</time>
      </trkpt>
      <trkpt lat="41.31973833" lon="1.95309833">
        <ele>292.0</ele>
        <time>2019-12-21T08:48:54.336Z</time>
      </trkpt>
      <trkpt lat="41.31979667" lon="1.95311833">
        <ele>292.0</ele>
        <time>2019-12-21T08:48:55.334Z</time>
      </trkpt>
      <trkpt lat="41.31979667" lon="1.95311833">
        <ele>292.0</ele>
        <time>2019-12-21T08:48:56.368Z</time>
      </trkpt>
      <trkpt lat="41.31984333" lon="1.95315167">
        <ele>292.0</ele>
        <time>2019-12-21T08:48:57.350Z</time>
      </trkpt>
      <trkpt lat="41.31984333" lon="1.95315167">
        <ele>292.0</ele>
        <time>2019-12-21T08:48:58.334Z</time>
      </trkpt>
      <trkpt lat="41.31989833" lon="1.95319">
        <ele>293.0</ele>
        <time>2019-12-21T08:48:59.354Z</time>
      </trkpt>
      <trkpt lat="41.31989833" lon="1.95319">
        <ele>293.0</ele>
        <time>2019-12-21T08:49:00.337Z</time>
      </trkpt>
      <trkpt lat="41.319945" lon="1.95324333">
        <ele>293.0</ele>
        <time>2019-12-21T08:49:01.333Z</time>
      </trkpt>
      <trkpt lat="41.319945" lon="1.95324333">
        <ele>293.0</ele>
        <time>2019-12-21T08:49:02.369Z</time>
      </trkpt>
      <trkpt lat="41.31998167" lon="1.95329333">
        <ele>293.0</ele>
        <time>2019-12-21T08:49:03.351Z</time>
      </trkpt>
      <trkpt lat="41.31998167" lon="1.95329333">
        <ele>293.0</ele>
        <time>2019-12-21T08:49:04.372Z</time>
      </trkpt>
      <trkpt lat="41.320015" lon="1.95334667">
        <ele>293.0</ele>
        <time>2019-12-21T08:49:05.333Z</time>
      </trkpt>
      <trkpt lat="41.320015" lon="1.95334667">
        <ele>293.0</ele>
        <time>2019-12-21T08:49:06.368Z</time>
      </trkpt>
      <trkpt lat="41.32005167" lon="1.953395">
        <ele>294.0</ele>
        <time>2019-12-21T08:49:07.353Z</time>
      </trkpt>
      <trkpt lat="41.32005167" lon="1.953395">
        <ele>294.0</ele>
        <time>2019-12-21T08:49:08.337Z</time>
      </trkpt>
      <trkpt lat="41.32008833" lon="1.95344333">
        <ele>295.0</ele>
        <time>2019-12-21T08:49:09.335Z</time>
      </trkpt>
      <trkpt lat="41.32008833" lon="1.95344333">
        <ele>295.0</ele>
        <time>2019-12-21T08:49:10.369Z</time>
      </trkpt>
      <trkpt lat="41.320125" lon="1.95347167">
        <ele>295.0</ele>
        <time>2019-12-21T08:49:11.333Z</time>
      </trkpt>
      <trkpt lat="41.320125" lon="1.95347167">
        <ele>295.0</ele>
        <time>2019-12-21T08:49:12.369Z</time>
      </trkpt>
      <trkpt lat="41.32017833" lon="1.95350333">
        <ele>296.0</ele>
        <time>2019-12-21T08:49:13.350Z</time>
      </trkpt>
      <trkpt lat="41.32017833" lon="1.95350333">
        <ele>296.0</ele>
        <time>2019-12-21T08:49:14.333Z</time>
      </trkpt>
      <trkpt lat="41.32022833" lon="1.95352333">
        <ele>296.0</ele>
        <time>2019-12-21T08:49:15.335Z</time>
      </trkpt>
      <trkpt lat="41.32022833" lon="1.95352333">
        <ele>296.0</ele>
        <time>2019-12-21T08:49:16.367Z</time>
      </trkpt>
      <trkpt lat="41.32028167" lon="1.95353167">
        <ele>296.0</ele>
        <time>2019-12-21T08:49:17.353Z</time>
      </trkpt>
      <trkpt lat="41.32028167" lon="1.95353167">
        <ele>296.0</ele>
        <time>2019-12-21T08:49:18.371Z</time>
      </trkpt>
      <trkpt lat="41.32033333" lon="1.95354667">
        <ele>297.0</ele>
        <time>2019-12-21T08:49:19.353Z</time>
      </trkpt>
      <trkpt lat="41.32033333" lon="1.95354667">
        <ele>297.0</ele>
        <time>2019-12-21T08:49:20.336Z</time>
      </trkpt>
      <trkpt lat="41.32038333" lon="1.953555">
        <ele>297.0</ele>
        <time>2019-12-21T08:49:21.335Z</time>
      </trkpt>
      <trkpt lat="41.32038333" lon="1.953555">
        <ele>297.0</ele>
        <time>2019-12-21T08:49:22.371Z</time>
      </trkpt>
      <trkpt lat="41.32043167" lon="1.95355667">
        <ele>298.0</ele>
        <time>2019-12-21T08:49:23.354Z</time>
      </trkpt>
      <trkpt lat="41.32045833" lon="1.95355833">
        <ele>299.0</ele>
        <time>2019-12-21T08:49:24.337Z</time>
      </trkpt>
      <trkpt lat="41.32045833" lon="1.95355833">
        <ele>299.0</ele>
        <time>2019-12-21T08:49:25.367Z</time>
      </trkpt>
      <trkpt lat="41.320515" lon="1.95356333">
        <ele>299.0</ele>
        <time>2019-12-21T08:49:26.349Z</time>
      </trkpt>
      <trkpt lat="41.320545" lon="1.953565">
        <ele>299.0</ele>
        <time>2019-12-21T08:49:27.351Z</time>
      </trkpt>
      <trkpt lat="41.320545" lon="1.953565">
        <ele>299.0</ele>
        <time>2019-12-21T08:49:28.371Z</time>
      </trkpt>
      <trkpt lat="41.3206" lon="1.95357">
        <ele>300.0</ele>
        <time>2019-12-21T08:49:29.354Z</time>
      </trkpt>
      <trkpt lat="41.3206" lon="1.95357">
        <ele>300.0</ele>
        <time>2019-12-21T08:49:30.338Z</time>
      </trkpt>
      <trkpt lat="41.320655" lon="1.95357167">
        <ele>300.0</ele>
        <time>2019-12-21T08:49:31.333Z</time>
      </trkpt>
      <trkpt lat="41.32068667" lon="1.95357167">
        <ele>300.0</ele>
        <time>2019-12-21T08:49:32.334Z</time>
      </trkpt>
      <trkpt lat="41.320715" lon="1.95356667">
        <ele>300.0</ele>
        <time>2019-12-21T08:49:33.333Z</time>
      </trkpt>
      <trkpt lat="41.320715" lon="1.95356667">
        <ele>300.0</ele>
        <time>2019-12-21T08:49:34.369Z</time>
      </trkpt>
      <trkpt lat="41.32076667" lon="1.953555">
        <ele>301.0</ele>
        <time>2019-12-21T08:49:35.333Z</time>
      </trkpt>
      <trkpt lat="41.32076667" lon="1.953555">
        <ele>301.0</ele>
        <time>2019-12-21T08:49:36.354Z</time>
      </trkpt>
      <trkpt lat="41.32084667" lon="1.95352833">
        <ele>299.0</ele>
        <time>2019-12-21T08:49:37.337Z</time>
      </trkpt>
      <trkpt lat="41.32088167" lon="1.953515">
        <ele>298.0</ele>
        <time>2019-12-21T08:49:38.334Z</time>
      </trkpt>
      <trkpt lat="41.32088167" lon="1.953515">
        <ele>298.0</ele>
        <time>2019-12-21T08:49:39.351Z</time>
      </trkpt>
      <trkpt lat="41.320945" lon="1.953485">
        <ele>298.0</ele>
        <time>2019-12-21T08:49:40.335Z</time>
      </trkpt>
      <trkpt lat="41.320945" lon="1.953485">
        <ele>298.0</ele>
        <time>2019-12-21T08:49:41.369Z</time>
      </trkpt>
      <trkpt lat="41.32101167" lon="1.95344167">
        <ele>299.0</ele>
        <time>2019-12-21T08:49:42.353Z</time>
      </trkpt>
      <trkpt lat="41.32101167" lon="1.95344167">
        <ele>299.0</ele>
        <time>2019-12-21T08:49:43.337Z</time>
      </trkpt>
      <trkpt lat="41.32106" lon="1.95338">
        <ele>299.0</ele>
        <time>2019-12-21T08:49:44.333Z</time>
      </trkpt>
      <trkpt lat="41.32108" lon="1.953345">
        <ele>299.0</ele>
        <time>2019-12-21T08:49:45.336Z</time>
      </trkpt>
      <trkpt lat="41.32108" lon="1.953345">
        <ele>299.0</ele>
        <time>2019-12-21T08:49:46.368Z</time>
      </trkpt>
      <trkpt lat="41.32112167" lon="1.95328333">
        <ele>300.0</ele>
        <time>2019-12-21T08:49:47.350Z</time>
      </trkpt>
      <trkpt lat="41.32112167" lon="1.95328333">
        <ele>300.0</ele>
        <time>2019-12-21T08:49:48.335Z</time>
      </trkpt>
      <trkpt lat="41.32115333" lon="1.95322167">
        <ele>301.0</ele>
        <time>2019-12-21T08:49:49.371Z</time>
      </trkpt>
      <trkpt lat="41.32116167" lon="1.95319">
        <ele>301.0</ele>
        <time>2019-12-21T08:49:50.334Z</time>
      </trkpt>
      <trkpt lat="41.32117" lon="1.95315833">
        <ele>301.0</ele>
        <time>2019-12-21T08:49:51.335Z</time>
      </trkpt>
      <trkpt lat="41.32117" lon="1.95315833">
        <ele>301.0</ele>
        <time>2019-12-21T08:49:52.369Z</time>
      </trkpt>
      <trkpt lat="41.32119" lon="1.95309667">
        <ele>302.0</ele>
        <time>2019-12-21T08:49:53.333Z</time>
      </trkpt>
      <trkpt lat="41.32119" lon="1.95309667">
        <ele>302.0</ele>
        <time>2019-12-21T08:49:54.339Z</time>
      </trkpt>
      <trkpt lat="41.32121833" lon="1.95302">
        <ele>302.0</ele>
        <time>2019-12-21T08:49:55.340Z</time>
      </trkpt>
      <trkpt lat="41.32121833" lon="1.95302">
        <ele>302.0</ele>
        <time>2019-12-21T08:49:56.371Z</time>
      </trkpt>
      <trkpt lat="41.32124833" lon="1.95294167">
        <ele>302.0</ele>
        <time>2019-12-21T08:49:57.335Z</time>
      </trkpt>
      <trkpt lat="41.32124833" lon="1.95294167">
        <ele>302.0</ele>
        <time>2019-12-21T08:49:58.369Z</time>
      </trkpt>
      <trkpt lat="41.32127833" lon="1.95287333">
        <ele>302.0</ele>
        <time>2019-12-21T08:49:59.354Z</time>
      </trkpt>
      <trkpt lat="41.32127833" lon="1.95287333">
        <ele>302.0</ele>
        <time>2019-12-21T08:50:00.340Z</time>
      </trkpt>
      <trkpt lat="41.32131167" lon="1.95281">
        <ele>303.0</ele>
        <time>2019-12-21T08:50:01.333Z</time>
      </trkpt>
      <trkpt lat="41.32131167" lon="1.95281">
        <ele>303.0</ele>
        <time>2019-12-21T08:50:02.354Z</time>
      </trkpt>
      <trkpt lat="41.32134667" lon="1.95275333">
        <ele>303.0</ele>
        <time>2019-12-21T08:50:03.337Z</time>
      </trkpt>
      <trkpt lat="41.32134667" lon="1.95275333">
        <ele>303.0</ele>
        <time>2019-12-21T08:50:04.369Z</time>
      </trkpt>
      <trkpt lat="41.32138667" lon="1.952705">
        <ele>304.0</ele>
        <time>2019-12-21T08:50:05.333Z</time>
      </trkpt>
      <trkpt lat="41.32138667" lon="1.952705">
        <ele>304.0</ele>
        <time>2019-12-21T08:50:06.354Z</time>
      </trkpt>
      <trkpt lat="41.32143167" lon="1.952665">
        <ele>304.0</ele>
        <time>2019-12-21T08:50:07.336Z</time>
      </trkpt>
      <trkpt lat="41.32145333" lon="1.95264833">
        <ele>304.0</ele>
        <time>2019-12-21T08:50:08.335Z</time>
      </trkpt>
      <trkpt lat="41.32145333" lon="1.95264833">
        <ele>304.0</ele>
        <time>2019-12-21T08:50:09.367Z</time>
      </trkpt>
      <trkpt lat="41.32149667" lon="1.95261667">
        <ele>305.0</ele>
        <time>2019-12-21T08:50:10.355Z</time>
      </trkpt>
      <trkpt lat="41.32149667" lon="1.95261667">
        <ele>305.0</ele>
        <time>2019-12-21T08:50:11.371Z</time>
      </trkpt>
      <trkpt lat="41.32154" lon="1.95258333">
        <ele>305.0</ele>
        <time>2019-12-21T08:50:12.353Z</time>
      </trkpt>
      <trkpt lat="41.32154" lon="1.95258333">
        <ele>305.0</ele>
        <time>2019-12-21T08:50:13.336Z</time>
      </trkpt>
      <trkpt lat="41.32158667" lon="1.95255167">
        <ele>306.0</ele>
        <time>2019-12-21T08:50:14.333Z</time>
      </trkpt>
      <trkpt lat="41.32161167" lon="1.952535">
        <ele>306.0</ele>
        <time>2019-12-21T08:50:15.333Z</time>
      </trkpt>
      <trkpt lat="41.32161167" lon="1.952535">
        <ele>306.0</ele>
        <time>2019-12-21T08:50:16.368Z</time>
      </trkpt>
      <trkpt lat="41.32165833" lon="1.952495">
        <ele>307.0</ele>
        <time>2019-12-21T08:50:17.350Z</time>
      </trkpt>
      <trkpt lat="41.32165833" lon="1.952495">
        <ele>307.0</ele>
        <time>2019-12-21T08:50:18.334Z</time>
      </trkpt>
      <trkpt lat="41.32170167" lon="1.95245167">
        <ele>308.0</ele>
        <time>2019-12-21T08:50:19.339Z</time>
      </trkpt>
      <trkpt lat="41.32172167" lon="1.95242833">
        <ele>308.0</ele>
        <time>2019-12-21T08:50:20.333Z</time>
      </trkpt>
      <trkpt lat="41.32174167" lon="1.95240333">
        <ele>308.0</ele>
        <time>2019-12-21T08:50:21.350Z</time>
      </trkpt>
      <trkpt lat="41.32174167" lon="1.95240333">
        <ele>308.0</ele>
        <time>2019-12-21T08:50:22.369Z</time>
      </trkpt>
      <trkpt lat="41.32177333" lon="1.95235">
        <ele>309.0</ele>
        <time>2019-12-21T08:50:23.350Z</time>
      </trkpt>
      <trkpt lat="41.32177333" lon="1.95235">
        <ele>309.0</ele>
        <time>2019-12-21T08:50:24.369Z</time>
      </trkpt>
      <trkpt lat="41.32180167" lon="1.952295">
        <ele>309.0</ele>
        <time>2019-12-21T08:50:25.333Z</time>
      </trkpt>
      <trkpt lat="41.32180167" lon="1.952295">
        <ele>309.0</ele>
        <time>2019-12-21T08:50:26.367Z</time>
      </trkpt>
      <trkpt lat="41.32182333" lon="1.95223833">
        <ele>310.0</ele>
        <time>2019-12-21T08:50:27.350Z</time>
      </trkpt>
      <trkpt lat="41.32182333" lon="1.95223833">
        <ele>310.0</ele>
        <time>2019-12-21T08:50:28.372Z</time>
      </trkpt>
      <trkpt lat="41.32184333" lon="1.95218">
        <ele>310.0</ele>
        <time>2019-12-21T08:50:29.337Z</time>
      </trkpt>
      <trkpt lat="41.32185167" lon="1.95215">
        <ele>311.0</ele>
        <time>2019-12-21T08:50:30.334Z</time>
      </trkpt>
      <trkpt lat="41.32185167" lon="1.95215">
        <ele>311.0</ele>
        <time>2019-12-21T08:50:31.369Z</time>
      </trkpt>
      <trkpt lat="41.32186333" lon="1.95208167">
        <ele>311.0</ele>
        <time>2019-12-21T08:50:32.354Z</time>
      </trkpt>
      <trkpt lat="41.32186333" lon="1.95208167">
        <ele>311.0</ele>
        <time>2019-12-21T08:50:33.338Z</time>
      </trkpt>
      <trkpt lat="41.32186333" lon="1.95201833">
        <ele>311.0</ele>
        <time>2019-12-21T08:50:34.333Z</time>
      </trkpt>
      <trkpt lat="41.32186167" lon="1.951985">
        <ele>311.0</ele>
        <time>2019-12-21T08:50:35.334Z</time>
      </trkpt>
      <trkpt lat="41.32186167" lon="1.951985">
        <ele>311.0</ele>
        <time>2019-12-21T08:50:36.354Z</time>
      </trkpt>
      <trkpt lat="41.32185667" lon="1.95192833">
        <ele>312.0</ele>
        <time>2019-12-21T08:50:37.337Z</time>
      </trkpt>
      <trkpt lat="41.32185333" lon="1.95189333">
        <ele>312.0</ele>
        <time>2019-12-21T08:50:38.333Z</time>
      </trkpt>
      <trkpt lat="41.32184333" lon="1.95186">
        <ele>312.0</ele>
        <time>2019-12-21T08:50:39.336Z</time>
      </trkpt>
      <trkpt lat="41.32184333" lon="1.95186">
        <ele>312.0</ele>
        <time>2019-12-21T08:50:40.369Z</time>
      </trkpt>
      <trkpt lat="41.321805" lon="1.95178333">
        <ele>313.0</ele>
        <time>2019-12-21T08:50:41.334Z</time>
      </trkpt>
      <trkpt lat="41.321805" lon="1.95178333">
        <ele>313.0</ele>
        <time>2019-12-21T08:50:42.369Z</time>
      </trkpt>
      <trkpt lat="41.32179333" lon="1.95170833">
        <ele>313.0</ele>
        <time>2019-12-21T08:50:43.333Z</time>
      </trkpt>
      <trkpt lat="41.32179333" lon="1.95170833">
        <ele>313.0</ele>
        <time>2019-12-21T08:50:44.369Z</time>
      </trkpt>
      <trkpt lat="41.32179667" lon="1.95164167">
        <ele>313.0</ele>
        <time>2019-12-21T08:50:45.350Z</time>
      </trkpt>
      <trkpt lat="41.32179667" lon="1.95164167">
        <ele>313.0</ele>
        <time>2019-12-21T08:50:46.348Z</time>
      </trkpt>
      <trkpt lat="41.321805" lon="1.95157833">
        <ele>314.0</ele>
        <time>2019-12-21T08:50:47.334Z</time>
      </trkpt>
      <trkpt lat="41.321805" lon="1.95157833">
        <ele>314.0</ele>
        <time>2019-12-21T08:50:48.369Z</time>
      </trkpt>
      <trkpt lat="41.32181167" lon="1.95150667">
        <ele>314.0</ele>
        <time>2019-12-21T08:50:49.335Z</time>
      </trkpt>
      <trkpt lat="41.32181167" lon="1.95150667">
        <ele>314.0</ele>
        <time>2019-12-21T08:50:50.340Z</time>
      </trkpt>
      <trkpt lat="41.32183167" lon="1.95144167">
        <ele>315.0</ele>
        <time>2019-12-21T08:50:51.338Z</time>
      </trkpt>
      <trkpt lat="41.32183167" lon="1.95144167">
        <ele>315.0</ele>
        <time>2019-12-21T08:50:52.369Z</time>
      </trkpt>
      <trkpt lat="41.321855" lon="1.951385">
        <ele>316.0</ele>
        <time>2019-12-21T08:50:53.350Z</time>
      </trkpt>
      <trkpt lat="41.321855" lon="1.951385">
        <ele>316.0</ele>
        <time>2019-12-21T08:50:54.339Z</time>
      </trkpt>
      <trkpt lat="41.32188833" lon="1.95133333">
        <ele>317.0</ele>
        <time>2019-12-21T08:50:55.341Z</time>
      </trkpt>
      <trkpt lat="41.32188833" lon="1.95133333">
        <ele>317.0</ele>
        <time>2019-12-21T08:50:56.369Z</time>
      </trkpt>
      <trkpt lat="41.32192167" lon="1.95127833">
        <ele>317.0</ele>
        <time>2019-12-21T08:50:57.356Z</time>
      </trkpt>
      <trkpt lat="41.32192167" lon="1.95127833">
        <ele>317.0</ele>
        <time>2019-12-21T08:50:58.333Z</time>
      </trkpt>
      <trkpt lat="41.32196333" lon="1.95123">
        <ele>318.0</ele>
        <time>2019-12-21T08:50:59.334Z</time>
      </trkpt>
      <trkpt lat="41.32196333" lon="1.95123">
        <ele>318.0</ele>
        <time>2019-12-21T08:51:00.369Z</time>
      </trkpt>
      <trkpt lat="41.32200667" lon="1.95118667">
        <ele>319.0</ele>
        <time>2019-12-21T08:51:01.334Z</time>
      </trkpt>
      <trkpt lat="41.32203" lon="1.95116667">
        <ele>319.0</ele>
        <time>2019-12-21T08:51:02.354Z</time>
      </trkpt>
      <trkpt lat="41.32203" lon="1.95116667">
        <ele>319.0</ele>
        <time>2019-12-21T08:51:03.337Z</time>
      </trkpt>
      <trkpt lat="41.32209333" lon="1.95112333">
        <ele>320.0</ele>
        <time>2019-12-21T08:51:04.334Z</time>
      </trkpt>
      <trkpt lat="41.322125" lon="1.951105">
        <ele>320.0</ele>
        <time>2019-12-21T08:51:05.335Z</time>
      </trkpt>
      <trkpt lat="41.322125" lon="1.951105">
        <ele>320.0</ele>
        <time>2019-12-21T08:51:06.354Z</time>
      </trkpt>
      <trkpt lat="41.32219667" lon="1.95107833">
        <ele>321.0</ele>
        <time>2019-12-21T08:51:07.338Z</time>
      </trkpt>
      <trkpt lat="41.32219667" lon="1.95107833">
        <ele>321.0</ele>
        <time>2019-12-21T08:51:08.369Z</time>
      </trkpt>
      <trkpt lat="41.32227333" lon="1.95106333">
        <ele>322.0</ele>
        <time>2019-12-21T08:51:09.351Z</time>
      </trkpt>
      <trkpt lat="41.32227333" lon="1.95106333">
        <ele>322.0</ele>
        <time>2019-12-21T08:51:10.333Z</time>
      </trkpt>
      <trkpt lat="41.32235333" lon="1.95105333">
        <ele>323.0</ele>
        <time>2019-12-21T08:51:11.335Z</time>
      </trkpt>
      <trkpt lat="41.322395" lon="1.95104667">
        <ele>323.0</ele>
        <time>2019-12-21T08:51:12.333Z</time>
      </trkpt>
      <trkpt lat="41.322395" lon="1.95104667">
        <ele>323.0</ele>
        <time>2019-12-21T08:51:13.350Z</time>
      </trkpt>
      <trkpt lat="41.32248667" lon="1.95103167">
        <ele>324.0</ele>
        <time>2019-12-21T08:51:14.334Z</time>
      </trkpt>
      <trkpt lat="41.32252667" lon="1.95102333">
        <ele>325.0</ele>
        <time>2019-12-21T08:51:15.335Z</time>
      </trkpt>
      <trkpt lat="41.32252667" lon="1.95102333">
        <ele>325.0</ele>
        <time>2019-12-21T08:51:16.355Z</time>
      </trkpt>
      <trkpt lat="41.32260833" lon="1.951005">
        <ele>326.0</ele>
        <time>2019-12-21T08:51:17.338Z</time>
      </trkpt>
      <trkpt lat="41.32260833" lon="1.951005">
        <ele>326.0</ele>
        <time>2019-12-21T08:51:18.369Z</time>
      </trkpt>
      <trkpt lat="41.32269167" lon="1.95098">
        <ele>327.0</ele>
        <time>2019-12-21T08:51:19.350Z</time>
      </trkpt>
      <trkpt lat="41.32269167" lon="1.95098">
        <ele>327.0</ele>
        <time>2019-12-21T08:51:20.369Z</time>
      </trkpt>
      <trkpt lat="41.32277333" lon="1.95095">
        <ele>328.0</ele>
        <time>2019-12-21T08:51:21.359Z</time>
      </trkpt>
      <trkpt lat="41.32281333" lon="1.95093667">
        <ele>329.0</ele>
        <time>2019-12-21T08:51:22.336Z</time>
      </trkpt>
      <trkpt lat="41.32284333" lon="1.95092167">
        <ele>329.0</ele>
        <time>2019-12-21T08:51:23.335Z</time>
      </trkpt>
      <trkpt lat="41.32284333" lon="1.95092167">
        <ele>329.0</ele>
        <time>2019-12-21T08:51:24.369Z</time>
      </trkpt>
      <trkpt lat="41.322895" lon="1.95089833">
        <ele>329.0</ele>
        <time>2019-12-21T08:51:25.350Z</time>
      </trkpt>
      <trkpt lat="41.322895" lon="1.95089833">
        <ele>329.0</ele>
        <time>2019-12-21T08:51:26.347Z</time>
      </trkpt>
      <trkpt lat="41.32296833" lon="1.950865">
        <ele>329.0</ele>
        <time>2019-12-21T08:51:27.336Z</time>
      </trkpt>
      <trkpt lat="41.32296833" lon="1.950865">
        <ele>329.0</ele>
        <time>2019-12-21T08:51:28.370Z</time>
      </trkpt>
      <trkpt lat="41.32304167" lon="1.95083167">
        <ele>330.0</ele>
        <time>2019-12-21T08:51:29.337Z</time>
      </trkpt>
      <trkpt lat="41.32304167" lon="1.95083167">
        <ele>330.0</ele>
        <time>2019-12-21T08:51:30.369Z</time>
      </trkpt>
      <trkpt lat="41.323115" lon="1.95079">
        <ele>331.0</ele>
        <time>2019-12-21T08:51:31.334Z</time>
      </trkpt>
      <trkpt lat="41.323115" lon="1.95079">
        <ele>331.0</ele>
        <time>2019-12-21T08:51:32.369Z</time>
      </trkpt>
      <trkpt lat="41.32319167" lon="1.950745">
        <ele>332.0</ele>
        <time>2019-12-21T08:51:33.352Z</time>
      </trkpt>
      <trkpt lat="41.32322833" lon="1.95072167">
        <ele>332.0</ele>
        <time>2019-12-21T08:51:34.335Z</time>
      </trkpt>
      <trkpt lat="41.323265" lon="1.95069833">
        <ele>333.0</ele>
        <time>2019-12-21T08:51:35.335Z</time>
      </trkpt>
      <trkpt lat="41.323265" lon="1.95069833">
        <ele>333.0</ele>
        <time>2019-12-21T08:51:36.370Z</time>
      </trkpt>
      <trkpt lat="41.32334167" lon="1.95065667">
        <ele>333.0</ele>
        <time>2019-12-21T08:51:37.334Z</time>
      </trkpt>
      <trkpt lat="41.32337833" lon="1.95063667">
        <ele>334.0</ele>
        <time>2019-12-21T08:51:38.334Z</time>
      </trkpt>
      <trkpt lat="41.32337833" lon="1.95063667">
        <ele>334.0</ele>
        <time>2019-12-21T08:51:39.351Z</time>
      </trkpt>
      <trkpt lat="41.323445" lon="1.950595">
        <ele>335.0</ele>
        <time>2019-12-21T08:51:40.334Z</time>
      </trkpt>
      <trkpt lat="41.32347333" lon="1.95058">
        <ele>336.0</ele>
        <time>2019-12-21T08:51:41.336Z</time>
      </trkpt>
      <trkpt lat="41.32347333" lon="1.95058">
        <ele>336.0</ele>
        <time>2019-12-21T08:51:42.370Z</time>
      </trkpt>
      <trkpt lat="41.32353167" lon="1.95054833">
        <ele>336.0</ele>
        <time>2019-12-21T08:51:43.334Z</time>
      </trkpt>
      <trkpt lat="41.32357333" lon="1.95053333">
        <ele>335.0</ele>
        <time>2019-12-21T08:51:44.334Z</time>
      </trkpt>
      <trkpt lat="41.32357333" lon="1.95053333">
        <ele>335.0</ele>
        <time>2019-12-21T08:51:45.351Z</time>
      </trkpt>
      <trkpt lat="41.32363833" lon="1.950515">
        <ele>335.0</ele>
        <time>2019-12-21T08:51:46.342Z</time>
      </trkpt>
      <trkpt lat="41.32367" lon="1.95050667">
        <ele>336.0</ele>
        <time>2019-12-21T08:51:47.336Z</time>
      </trkpt>
      <trkpt lat="41.32367" lon="1.95050667">
        <ele>336.0</ele>
        <time>2019-12-21T08:51:48.372Z</time>
      </trkpt>
      <trkpt lat="41.32373667" lon="1.95048833">
        <ele>336.0</ele>
        <time>2019-12-21T08:51:49.372Z</time>
      </trkpt>
      <trkpt lat="41.32373667" lon="1.95048833">
        <ele>336.0</ele>
        <time>2019-12-21T08:51:50.348Z</time>
      </trkpt>
      <trkpt lat="41.32380833" lon="1.95047833">
        <ele>337.0</ele>
        <time>2019-12-21T08:51:51.336Z</time>
      </trkpt>
      <trkpt lat="41.32384167" lon="1.950475">
        <ele>337.0</ele>
        <time>2019-12-21T08:51:52.335Z</time>
      </trkpt>
      <trkpt lat="41.323875" lon="1.95047333">
        <ele>337.0</ele>
        <time>2019-12-21T08:51:53.335Z</time>
      </trkpt>
      <trkpt lat="41.323875" lon="1.95047333">
        <ele>337.0</ele>
        <time>2019-12-21T08:51:54.370Z</time>
      </trkpt>
      <trkpt lat="41.32393833" lon="1.95046333">
        <ele>338.0</ele>
        <time>2019-12-21T08:51:55.335Z</time>
      </trkpt>
      <trkpt lat="41.32393833" lon="1.95046333">
        <ele>338.0</ele>
        <time>2019-12-21T08:51:56.334Z</time>
      </trkpt>
      <trkpt lat="41.32400333" lon="1.95045167">
        <ele>338.0</ele>
        <time>2019-12-21T08:51:57.357Z</time>
      </trkpt>
      <trkpt lat="41.32400333" lon="1.95045167">
        <ele>338.0</ele>
        <time>2019-12-21T08:51:58.341Z</time>
      </trkpt>
      <trkpt lat="41.32406667" lon="1.950455">
        <ele>339.0</ele>
        <time>2019-12-21T08:51:59.336Z</time>
      </trkpt>
      <trkpt lat="41.32406667" lon="1.950455">
        <ele>339.0</ele>
        <time>2019-12-21T08:52:00.370Z</time>
      </trkpt>
      <trkpt lat="41.32413167" lon="1.950455">
        <ele>339.0</ele>
        <time>2019-12-21T08:52:01.335Z</time>
      </trkpt>
      <trkpt lat="41.32413167" lon="1.950455">
        <ele>339.0</ele>
        <time>2019-12-21T08:52:02.373Z</time>
      </trkpt>
      <trkpt lat="41.3242" lon="1.950455">
        <ele>340.0</ele>
        <time>2019-12-21T08:52:03.336Z</time>
      </trkpt>
      <trkpt lat="41.32423333" lon="1.95045333">
        <ele>340.0</ele>
        <time>2019-12-21T08:52:04.334Z</time>
      </trkpt>
      <trkpt lat="41.32427" lon="1.95045333">
        <ele>340.0</ele>
        <time>2019-12-21T08:52:05.335Z</time>
      </trkpt>
      <trkpt lat="41.32427" lon="1.95045333">
        <ele>340.0</ele>
        <time>2019-12-21T08:52:06.365Z</time>
      </trkpt>
      <trkpt lat="41.324335" lon="1.95046667">
        <ele>341.0</ele>
        <time>2019-12-21T08:52:07.347Z</time>
      </trkpt>
      <trkpt lat="41.32436833" lon="1.950475">
        <ele>341.0</ele>
        <time>2019-12-21T08:52:08.335Z</time>
      </trkpt>
      <trkpt lat="41.32436833" lon="1.950475">
        <ele>341.0</ele>
        <time>2019-12-21T08:52:09.352Z</time>
      </trkpt>
      <trkpt lat="41.32443667" lon="1.95049333">
        <ele>342.0</ele>
        <time>2019-12-21T08:52:10.335Z</time>
      </trkpt>
      <trkpt lat="41.32447" lon="1.95050167">
        <ele>342.0</ele>
        <time>2019-12-21T08:52:11.336Z</time>
      </trkpt>
      <trkpt lat="41.32447" lon="1.95050167">
        <ele>342.0</ele>
        <time>2019-12-21T08:52:12.372Z</time>
      </trkpt>
      <trkpt lat="41.32453833" lon="1.95050833">
        <ele>342.0</ele>
        <time>2019-12-21T08:52:13.335Z</time>
      </trkpt>
      <trkpt lat="41.32457333" lon="1.95050667">
        <ele>343.0</ele>
        <time>2019-12-21T08:52:14.334Z</time>
      </trkpt>
      <trkpt lat="41.32457333" lon="1.95050667">
        <ele>343.0</ele>
        <time>2019-12-21T08:52:15.371Z</time>
      </trkpt>
      <trkpt lat="41.32464333" lon="1.95049">
        <ele>343.0</ele>
        <time>2019-12-21T08:52:16.335Z</time>
      </trkpt>
      <trkpt lat="41.32467833" lon="1.95047667">
        <ele>343.0</ele>
        <time>2019-12-21T08:52:17.347Z</time>
      </trkpt>
      <trkpt lat="41.32467833" lon="1.95047667">
        <ele>343.0</ele>
        <time>2019-12-21T08:52:18.370Z</time>
      </trkpt>
      <trkpt lat="41.32474333" lon="1.95043667">
        <ele>343.0</ele>
        <time>2019-12-21T08:52:19.358Z</time>
      </trkpt>
      <trkpt lat="41.32474333" lon="1.95043667">
        <ele>343.0</ele>
        <time>2019-12-21T08:52:20.335Z</time>
      </trkpt>
      <trkpt lat="41.32480167" lon="1.95039">
        <ele>344.0</ele>
        <time>2019-12-21T08:52:21.336Z</time>
      </trkpt>
      <trkpt lat="41.32483167" lon="1.95037">
        <ele>344.0</ele>
        <time>2019-12-21T08:52:22.337Z</time>
      </trkpt>
      <trkpt lat="41.32483167" lon="1.95037">
        <ele>344.0</ele>
        <time>2019-12-21T08:52:23.370Z</time>
      </trkpt>
      <trkpt lat="41.32489" lon="1.95032167">
        <ele>344.0</ele>
        <time>2019-12-21T08:52:24.351Z</time>
      </trkpt>
      <trkpt lat="41.32489" lon="1.95032167">
        <ele>344.0</ele>
        <time>2019-12-21T08:52:25.334Z</time>
      </trkpt>
      <trkpt lat="41.32494667" lon="1.95027333">
        <ele>344.0</ele>
        <time>2019-12-21T08:52:26.334Z</time>
      </trkpt>
      <trkpt lat="41.32497667" lon="1.95025167">
        <ele>344.0</ele>
        <time>2019-12-21T08:52:27.339Z</time>
      </trkpt>
      <trkpt lat="41.32497667" lon="1.95025167">
        <ele>344.0</ele>
        <time>2019-12-21T08:52:28.370Z</time>
      </trkpt>
      <trkpt lat="41.32503" lon="1.9502">
        <ele>344.0</ele>
        <time>2019-12-21T08:52:29.335Z</time>
      </trkpt>
      <trkpt lat="41.32505667" lon="1.95017333">
        <ele>345.0</ele>
        <time>2019-12-21T08:52:30.334Z</time>
      </trkpt>
      <trkpt lat="41.32505667" lon="1.95017333">
        <ele>345.0</ele>
        <time>2019-12-21T08:52:31.370Z</time>
      </trkpt>
      <trkpt lat="41.325115" lon="1.95011667">
        <ele>344.0</ele>
        <time>2019-12-21T08:52:32.335Z</time>
      </trkpt>
      <trkpt lat="41.32514333" lon="1.95009">
        <ele>344.0</ele>
        <time>2019-12-21T08:52:33.337Z</time>
      </trkpt>
      <trkpt lat="41.32514333" lon="1.95009">
        <ele>344.0</ele>
        <time>2019-12-21T08:52:34.370Z</time>
      </trkpt>
      <trkpt lat="41.325195" lon="1.95003833">
        <ele>344.0</ele>
        <time>2019-12-21T08:52:35.335Z</time>
      </trkpt>
      <trkpt lat="41.325195" lon="1.95003833">
        <ele>344.0</ele>
        <time>2019-12-21T08:52:36.370Z</time>
      </trkpt>
      <trkpt lat="41.32524833" lon="1.94998667">
        <ele>345.0</ele>
        <time>2019-12-21T08:52:37.356Z</time>
      </trkpt>
      <trkpt lat="41.32524833" lon="1.94998667">
        <ele>345.0</ele>
        <time>2019-12-21T08:52:38.333Z</time>
      </trkpt>
      <trkpt lat="41.325305" lon="1.949935">
        <ele>345.0</ele>
        <time>2019-12-21T08:52:39.337Z</time>
      </trkpt>
      <trkpt lat="41.325335" lon="1.94991333">
        <ele>345.0</ele>
        <time>2019-12-21T08:52:40.333Z</time>
      </trkpt>
      <trkpt lat="41.325335" lon="1.94991333">
        <ele>345.0</ele>
        <time>2019-12-21T08:52:41.370Z</time>
      </trkpt>
      <trkpt lat="41.32539333" lon="1.94986667">
        <ele>346.0</ele>
        <time>2019-12-21T08:52:42.355Z</time>
      </trkpt>
      <trkpt lat="41.32539333" lon="1.94986667">
        <ele>346.0</ele>
        <time>2019-12-21T08:52:43.338Z</time>
      </trkpt>
      <trkpt lat="41.32545333" lon="1.949825">
        <ele>346.0</ele>
        <time>2019-12-21T08:52:44.335Z</time>
      </trkpt>
      <trkpt lat="41.325485" lon="1.949805">
        <ele>346.0</ele>
        <time>2019-12-21T08:52:45.336Z</time>
      </trkpt>
      <trkpt lat="41.325485" lon="1.949805">
        <ele>346.0</ele>
        <time>2019-12-21T08:52:46.370Z</time>
      </trkpt>
      <trkpt lat="41.32554833" lon="1.94978167">
        <ele>346.0</ele>
        <time>2019-12-21T08:52:47.351Z</time>
      </trkpt>
      <trkpt lat="41.32554833" lon="1.94978167">
        <ele>346.0</ele>
        <time>2019-12-21T08:52:48.335Z</time>
      </trkpt>
      <trkpt lat="41.32561833" lon="1.94976667">
        <ele>347.0</ele>
        <time>2019-12-21T08:52:49.334Z</time>
      </trkpt>
      <trkpt lat="41.32561833" lon="1.94976667">
        <ele>347.0</ele>
        <time>2019-12-21T08:52:50.351Z</time>
      </trkpt>
      <trkpt lat="41.325685" lon="1.94975667">
        <ele>347.0</ele>
        <time>2019-12-21T08:52:51.337Z</time>
      </trkpt>
      <trkpt lat="41.325685" lon="1.94975667">
        <ele>347.0</ele>
        <time>2019-12-21T08:52:52.354Z</time>
      </trkpt>
      <trkpt lat="41.32575333" lon="1.949755">
        <ele>348.0</ele>
        <time>2019-12-21T08:52:53.336Z</time>
      </trkpt>
      <trkpt lat="41.32575333" lon="1.949755">
        <ele>348.0</ele>
        <time>2019-12-21T08:52:54.339Z</time>
      </trkpt>
      <trkpt lat="41.32581833" lon="1.949745">
        <ele>349.0</ele>
        <time>2019-12-21T08:52:55.340Z</time>
      </trkpt>
      <trkpt lat="41.32581833" lon="1.949745">
        <ele>349.0</ele>
        <time>2019-12-21T08:52:56.371Z</time>
      </trkpt>
      <trkpt lat="41.32588" lon="1.94974">
        <ele>350.0</ele>
        <time>2019-12-21T08:52:57.337Z</time>
      </trkpt>
      <trkpt lat="41.32588" lon="1.94974">
        <ele>350.0</ele>
        <time>2019-12-21T08:52:58.371Z</time>
      </trkpt>
      <trkpt lat="41.325935" lon="1.94970667">
        <ele>351.0</ele>
        <time>2019-12-21T08:52:59.335Z</time>
      </trkpt>
      <trkpt lat="41.325935" lon="1.94970667">
        <ele>351.0</ele>
        <time>2019-12-21T08:53:00.370Z</time>
      </trkpt>
      <trkpt lat="41.32599" lon="1.94964667">
        <ele>351.0</ele>
        <time>2019-12-21T08:53:01.355Z</time>
      </trkpt>
      <trkpt lat="41.32599" lon="1.94964667">
        <ele>351.0</ele>
        <time>2019-12-21T08:53:02.340Z</time>
      </trkpt>
      <trkpt lat="41.32602167" lon="1.94954333">
        <ele>352.0</ele>
        <time>2019-12-21T08:53:03.337Z</time>
      </trkpt>
      <trkpt lat="41.32602167" lon="1.94954333">
        <ele>352.0</ele>
        <time>2019-12-21T08:53:04.370Z</time>
      </trkpt>
      <trkpt lat="41.32601" lon="1.94942667">
        <ele>352.0</ele>
        <time>2019-12-21T08:53:05.335Z</time>
      </trkpt>
      <trkpt lat="41.32601" lon="1.94942667">
        <ele>352.0</ele>
        <time>2019-12-21T08:53:06.370Z</time>
      </trkpt>
      <trkpt lat="41.32595167" lon="1.94933833">
        <ele>353.0</ele>
        <time>2019-12-21T08:53:07.355Z</time>
      </trkpt>
      <trkpt lat="41.32595167" lon="1.94933833">
        <ele>353.0</ele>
        <time>2019-12-21T08:53:08.339Z</time>
      </trkpt>
      <trkpt lat="41.32587" lon="1.94930333">
        <ele>354.0</ele>
        <time>2019-12-21T08:53:09.334Z</time>
      </trkpt>
      <trkpt lat="41.32587" lon="1.94930333">
        <ele>354.0</ele>
        <time>2019-12-21T08:53:10.370Z</time>
      </trkpt>
      <trkpt lat="41.325785" lon="1.94930833">
        <ele>355.0</ele>
        <time>2019-12-21T08:53:11.356Z</time>
      </trkpt>
      <trkpt lat="41.325785" lon="1.94930833">
        <ele>355.0</ele>
        <time>2019-12-21T08:53:12.352Z</time>
      </trkpt>
      <trkpt lat="41.32570333" lon="1.94933833">
        <ele>356.0</ele>
        <time>2019-12-21T08:53:13.335Z</time>
      </trkpt>
      <trkpt lat="41.32570333" lon="1.94933833">
        <ele>356.0</ele>
        <time>2019-12-21T08:53:14.370Z</time>
      </trkpt>
      <trkpt lat="41.32562833" lon="1.949375">
        <ele>357.0</ele>
        <time>2019-12-21T08:53:15.336Z</time>
      </trkpt>
      <trkpt lat="41.32559" lon="1.94939167">
        <ele>357.0</ele>
        <time>2019-12-21T08:53:16.335Z</time>
      </trkpt>
      <trkpt lat="41.32559" lon="1.94939167">
        <ele>357.0</ele>
        <time>2019-12-21T08:53:17.333Z</time>
      </trkpt>
      <trkpt lat="41.325525" lon="1.94942667">
        <ele>357.0</ele>
        <time>2019-12-21T08:53:18.334Z</time>
      </trkpt>
      <trkpt lat="41.325525" lon="1.94942667">
        <ele>357.0</ele>
        <time>2019-12-21T08:53:19.351Z</time>
      </trkpt>
      <trkpt lat="41.32545167" lon="1.94945667">
        <ele>358.0</ele>
        <time>2019-12-21T08:53:20.337Z</time>
      </trkpt>
      <trkpt lat="41.32545167" lon="1.94945667">
        <ele>358.0</ele>
        <time>2019-12-21T08:53:21.334Z</time>
      </trkpt>
      <trkpt lat="41.32537833" lon="1.94949667">
        <ele>359.0</ele>
        <time>2019-12-21T08:53:22.347Z</time>
      </trkpt>
      <trkpt lat="41.32534" lon="1.949515">
        <ele>359.0</ele>
        <time>2019-12-21T08:53:23.342Z</time>
      </trkpt>
      <trkpt lat="41.32534" lon="1.949515">
        <ele>359.0</ele>
        <time>2019-12-21T08:53:24.371Z</time>
      </trkpt>
      <trkpt lat="41.32526" lon="1.94955167">
        <ele>360.0</ele>
        <time>2019-12-21T08:53:25.336Z</time>
      </trkpt>
      <trkpt lat="41.32526" lon="1.94955167">
        <ele>360.0</ele>
        <time>2019-12-21T08:53:26.335Z</time>
      </trkpt>
      <trkpt lat="41.32519" lon="1.94958667">
        <ele>361.0</ele>
        <time>2019-12-21T08:53:27.353Z</time>
      </trkpt>
      <trkpt lat="41.32519" lon="1.94958667">
        <ele>361.0</ele>
        <time>2019-12-21T08:53:28.337Z</time>
      </trkpt>
      <trkpt lat="41.32511667" lon="1.94960667">
        <ele>361.0</ele>
        <time>2019-12-21T08:53:29.336Z</time>
      </trkpt>
      <trkpt lat="41.32507833" lon="1.94961667">
        <ele>362.0</ele>
        <time>2019-12-21T08:53:30.335Z</time>
      </trkpt>
      <trkpt lat="41.32507833" lon="1.94961667">
        <ele>362.0</ele>
        <time>2019-12-21T08:53:31.373Z</time>
      </trkpt>
      <trkpt lat="41.325005" lon="1.94964667">
        <ele>362.0</ele>
        <time>2019-12-21T08:53:32.356Z</time>
      </trkpt>
      <trkpt lat="41.325005" lon="1.94964667">
        <ele>362.0</ele>
        <time>2019-12-21T08:53:33.340Z</time>
      </trkpt>
      <trkpt lat="41.32493" lon="1.94967833">
        <ele>363.0</ele>
        <time>2019-12-21T08:53:34.336Z</time>
      </trkpt>
      <trkpt lat="41.324895" lon="1.94969333">
        <ele>363.0</ele>
        <time>2019-12-21T08:53:35.338Z</time>
      </trkpt>
      <trkpt lat="41.324895" lon="1.94969333">
        <ele>363.0</ele>
        <time>2019-12-21T08:53:36.333Z</time>
      </trkpt>
      <trkpt lat="41.32482167" lon="1.94971833">
        <ele>364.0</ele>
        <time>2019-12-21T08:53:37.356Z</time>
      </trkpt>
      <trkpt lat="41.32479167" lon="1.94972667">
        <ele>364.0</ele>
        <time>2019-12-21T08:53:38.343Z</time>
      </trkpt>
      <trkpt lat="41.32479167" lon="1.94972667">
        <ele>364.0</ele>
        <time>2019-12-21T08:53:39.372Z</time>
      </trkpt>
      <trkpt lat="41.32472" lon="1.94974667">
        <ele>365.0</ele>
        <time>2019-12-21T08:53:40.335Z</time>
      </trkpt>
      <trkpt lat="41.32472" lon="1.94974667">
        <ele>365.0</ele>
        <time>2019-12-21T08:53:41.333Z</time>
      </trkpt>
      <trkpt lat="41.324645" lon="1.949755">
        <ele>366.0</ele>
        <time>2019-12-21T08:53:42.356Z</time>
      </trkpt>
      <trkpt lat="41.324645" lon="1.949755">
        <ele>366.0</ele>
        <time>2019-12-21T08:53:43.333Z</time>
      </trkpt>
      <trkpt lat="41.32457333" lon="1.94975333">
        <ele>367.0</ele>
        <time>2019-12-21T08:53:44.335Z</time>
      </trkpt>
      <trkpt lat="41.32453833" lon="1.94974667">
        <ele>367.0</ele>
        <time>2019-12-21T08:53:45.337Z</time>
      </trkpt>
      <trkpt lat="41.32453833" lon="1.94974667">
        <ele>367.0</ele>
        <time>2019-12-21T08:53:46.371Z</time>
      </trkpt>
      <trkpt lat="41.32446833" lon="1.94972167">
        <ele>368.0</ele>
        <time>2019-12-21T08:53:47.356Z</time>
      </trkpt>
      <trkpt lat="41.32446833" lon="1.94972167">
        <ele>368.0</ele>
        <time>2019-12-21T08:53:48.339Z</time>
      </trkpt>
      <trkpt lat="41.32440167" lon="1.94969333">
        <ele>368.0</ele>
        <time>2019-12-21T08:53:49.335Z</time>
      </trkpt>
      <trkpt lat="41.32437833" lon="1.949675">
        <ele>368.0</ele>
        <time>2019-12-21T08:53:50.335Z</time>
      </trkpt>
      <trkpt lat="41.324355" lon="1.94966167">
        <ele>369.0</ele>
        <time>2019-12-21T08:53:51.358Z</time>
      </trkpt>
      <trkpt lat="41.324355" lon="1.94966167">
        <ele>369.0</ele>
        <time>2019-12-21T08:53:52.341Z</time>
      </trkpt>
      <trkpt lat="41.324305" lon="1.949635">
        <ele>369.0</ele>
        <time>2019-12-21T08:53:53.335Z</time>
      </trkpt>
      <trkpt lat="41.324305" lon="1.949635">
        <ele>369.0</ele>
        <time>2019-12-21T08:53:54.354Z</time>
      </trkpt>
      <trkpt lat="41.32425833" lon="1.94961167">
        <ele>369.0</ele>
        <time>2019-12-21T08:53:55.336Z</time>
      </trkpt>
      <trkpt lat="41.32423833" lon="1.94959833">
        <ele>370.0</ele>
        <time>2019-12-21T08:53:56.336Z</time>
      </trkpt>
      <trkpt lat="41.32423833" lon="1.94959833">
        <ele>370.0</ele>
        <time>2019-12-21T08:53:57.373Z</time>
      </trkpt>
      <trkpt lat="41.32419333" lon="1.94957667">
        <ele>370.0</ele>
        <time>2019-12-21T08:53:58.336Z</time>
      </trkpt>
      <trkpt lat="41.32419333" lon="1.94957667">
        <ele>370.0</ele>
        <time>2019-12-21T08:53:59.371Z</time>
      </trkpt>
      <trkpt lat="41.32414667" lon="1.94955667">
        <ele>371.0</ele>
        <time>2019-12-21T08:54:00.335Z</time>
      </trkpt>
      <trkpt lat="41.32414667" lon="1.94955667">
        <ele>371.0</ele>
        <time>2019-12-21T08:54:01.366Z</time>
      </trkpt>
      <trkpt lat="41.32409667" lon="1.94954167">
        <ele>371.0</ele>
        <time>2019-12-21T08:54:02.348Z</time>
      </trkpt>
      <trkpt lat="41.32407" lon="1.94953833">
        <ele>371.0</ele>
        <time>2019-12-21T08:54:03.337Z</time>
      </trkpt>
      <trkpt lat="41.32407" lon="1.94953833">
        <ele>371.0</ele>
        <time>2019-12-21T08:54:04.371Z</time>
      </trkpt>
      <trkpt lat="41.32401833" lon="1.94952167">
        <ele>372.0</ele>
        <time>2019-12-21T08:54:05.337Z</time>
      </trkpt>
      <trkpt lat="41.32401833" lon="1.94952167">
        <ele>372.0</ele>
        <time>2019-12-21T08:54:06.370Z</time>
      </trkpt>
      <trkpt lat="41.32395833" lon="1.94951833">
        <ele>372.0</ele>
        <time>2019-12-21T08:54:07.352Z</time>
      </trkpt>
      <trkpt lat="41.32392833" lon="1.949525">
        <ele>373.0</ele>
        <time>2019-12-21T08:54:08.337Z</time>
      </trkpt>
      <trkpt lat="41.32389667" lon="1.94953">
        <ele>373.0</ele>
        <time>2019-12-21T08:54:09.337Z</time>
      </trkpt>
      <trkpt lat="41.32389667" lon="1.94953">
        <ele>373.0</ele>
        <time>2019-12-21T08:54:10.370Z</time>
      </trkpt>
      <trkpt lat="41.32383667" lon="1.949535">
        <ele>374.0</ele>
        <time>2019-12-21T08:54:11.352Z</time>
      </trkpt>
      <trkpt lat="41.323805" lon="1.94953833">
        <ele>374.0</ele>
        <time>2019-12-21T08:54:12.338Z</time>
      </trkpt>
      <trkpt lat="41.32377333" lon="1.94954333">
        <ele>374.0</ele>
        <time>2019-12-21T08:54:13.335Z</time>
      </trkpt>
      <trkpt lat="41.32377333" lon="1.94954333">
        <ele>374.0</ele>
        <time>2019-12-21T08:54:14.371Z</time>
      </trkpt>
      <trkpt lat="41.32371333" lon="1.949565">
        <ele>375.0</ele>
        <time>2019-12-21T08:54:15.337Z</time>
      </trkpt>
      <trkpt lat="41.32371333" lon="1.949565">
        <ele>375.0</ele>
        <time>2019-12-21T08:54:16.370Z</time>
      </trkpt>
      <trkpt lat="41.32365333" lon="1.94957333">
        <ele>376.0</ele>
        <time>2019-12-21T08:54:17.352Z</time>
      </trkpt>
      <trkpt lat="41.32365333" lon="1.94957333">
        <ele>376.0</ele>
        <time>2019-12-21T08:54:18.341Z</time>
      </trkpt>
      <trkpt lat="41.32359" lon="1.94957333">
        <ele>376.0</ele>
        <time>2019-12-21T08:54:19.335Z</time>
      </trkpt>
      <trkpt lat="41.32359" lon="1.94957333">
        <ele>376.0</ele>
        <time>2019-12-21T08:54:20.371Z</time>
      </trkpt>
      <trkpt lat="41.32353333" lon="1.94958167">
        <ele>378.0</ele>
        <time>2019-12-21T08:54:21.349Z</time>
      </trkpt>
      <trkpt lat="41.32353333" lon="1.94958167">
        <ele>378.0</ele>
        <time>2019-12-21T08:54:22.370Z</time>
      </trkpt>
      <trkpt lat="41.32347" lon="1.94959167">
        <ele>378.0</ele>
        <time>2019-12-21T08:54:23.336Z</time>
      </trkpt>
      <trkpt lat="41.32344167" lon="1.9496">
        <ele>378.0</ele>
        <time>2019-12-21T08:54:24.359Z</time>
      </trkpt>
      <trkpt lat="41.32344167" lon="1.9496">
        <ele>378.0</ele>
        <time>2019-12-21T08:54:25.335Z</time>
      </trkpt>
      <trkpt lat="41.32338667" lon="1.94961333">
        <ele>379.0</ele>
        <time>2019-12-21T08:54:26.360Z</time>
      </trkpt>
      <trkpt lat="41.32335667" lon="1.94961667">
        <ele>379.0</ele>
        <time>2019-12-21T08:54:27.339Z</time>
      </trkpt>
      <trkpt lat="41.32335667" lon="1.94961667">
        <ele>379.0</ele>
        <time>2019-12-21T08:54:28.371Z</time>
      </trkpt>
      <trkpt lat="41.32329667" lon="1.94962833">
        <ele>380.0</ele>
        <time>2019-12-21T08:54:29.340Z</time>
      </trkpt>
      <trkpt lat="41.32329667" lon="1.94962833">
        <ele>380.0</ele>
        <time>2019-12-21T08:54:30.371Z</time>
      </trkpt>
      <trkpt lat="41.32323167" lon="1.94964">
        <ele>381.0</ele>
        <time>2019-12-21T08:54:31.343Z</time>
      </trkpt>
      <trkpt lat="41.32323167" lon="1.94964">
        <ele>381.0</ele>
        <time>2019-12-21T08:54:32.343Z</time>
      </trkpt>
      <trkpt lat="41.32317" lon="1.94965167">
        <ele>382.0</ele>
        <time>2019-12-21T08:54:33.338Z</time>
      </trkpt>
      <trkpt lat="41.32317" lon="1.94965167">
        <ele>382.0</ele>
        <time>2019-12-21T08:54:34.370Z</time>
      </trkpt>
      <trkpt lat="41.32310833" lon="1.94966667">
        <ele>382.0</ele>
        <time>2019-12-21T08:54:35.352Z</time>
      </trkpt>
      <trkpt lat="41.32310833" lon="1.94966667">
        <ele>382.0</ele>
        <time>2019-12-21T08:54:36.353Z</time>
      </trkpt>
      <trkpt lat="41.32304333" lon="1.949675">
        <ele>383.0</ele>
        <time>2019-12-21T08:54:37.338Z</time>
      </trkpt>
      <trkpt lat="41.32301333" lon="1.94968167">
        <ele>384.0</ele>
        <time>2019-12-21T08:54:38.334Z</time>
      </trkpt>
      <trkpt lat="41.32298" lon="1.94969167">
        <ele>384.0</ele>
        <time>2019-12-21T08:54:39.337Z</time>
      </trkpt>
      <trkpt lat="41.32298" lon="1.94969167">
        <ele>384.0</ele>
        <time>2019-12-21T08:54:40.370Z</time>
      </trkpt>
      <trkpt lat="41.32292" lon="1.94971">
        <ele>385.0</ele>
        <time>2019-12-21T08:54:41.335Z</time>
      </trkpt>
      <trkpt lat="41.32292" lon="1.94971">
        <ele>385.0</ele>
        <time>2019-12-21T08:54:42.372Z</time>
      </trkpt>
      <trkpt lat="41.32286167" lon="1.94974333">
        <ele>385.0</ele>
        <time>2019-12-21T08:54:43.333Z</time>
      </trkpt>
      <trkpt lat="41.32286167" lon="1.94974333">
        <ele>385.0</ele>
        <time>2019-12-21T08:54:44.370Z</time>
      </trkpt>
      <trkpt lat="41.32279833" lon="1.94977333">
        <ele>386.0</ele>
        <time>2019-12-21T08:54:45.352Z</time>
      </trkpt>
      <trkpt lat="41.32279833" lon="1.94977333">
        <ele>386.0</ele>
        <time>2019-12-21T08:54:46.344Z</time>
      </trkpt>
      <trkpt lat="41.32274" lon="1.94980333">
        <ele>386.0</ele>
        <time>2019-12-21T08:54:47.338Z</time>
      </trkpt>
      <trkpt lat="41.32274" lon="1.94980333">
        <ele>386.0</ele>
        <time>2019-12-21T08:54:48.371Z</time>
      </trkpt>
      <trkpt lat="41.32268" lon="1.949835">
        <ele>387.0</ele>
        <time>2019-12-21T08:54:49.352Z</time>
      </trkpt>
      <trkpt lat="41.32268" lon="1.949835">
        <ele>387.0</ele>
        <time>2019-12-21T08:54:50.335Z</time>
      </trkpt>
      <trkpt lat="41.32262667" lon="1.94989833">
        <ele>387.0</ele>
        <time>2019-12-21T08:54:51.335Z</time>
      </trkpt>
      <trkpt lat="41.32262667" lon="1.94989833">
        <ele>387.0</ele>
        <time>2019-12-21T08:54:52.333Z</time>
      </trkpt>
      <trkpt lat="41.32256333" lon="1.94989833">
        <ele>387.0</ele>
        <time>2019-12-21T08:54:53.336Z</time>
      </trkpt>
      <trkpt lat="41.32256333" lon="1.94989833">
        <ele>387.0</ele>
        <time>2019-12-21T08:54:54.355Z</time>
      </trkpt>
      <trkpt lat="41.32250833" lon="1.94986833">
        <ele>387.0</ele>
        <time>2019-12-21T08:54:55.346Z</time>
      </trkpt>
      <trkpt lat="41.32248667" lon="1.94983667">
        <ele>387.0</ele>
        <time>2019-12-21T08:54:56.337Z</time>
      </trkpt>
      <trkpt lat="41.32248667" lon="1.94983667">
        <ele>387.0</ele>
        <time>2019-12-21T08:54:57.335Z</time>
      </trkpt>
      <trkpt lat="41.32250667" lon="1.94976667">
        <ele>387.0</ele>
        <time>2019-12-21T08:54:58.336Z</time>
      </trkpt>
      <trkpt lat="41.32250667" lon="1.94976667">
        <ele>387.0</ele>
        <time>2019-12-21T08:54:59.371Z</time>
      </trkpt>
      <trkpt lat="41.32256333" lon="1.94973">
        <ele>387.0</ele>
        <time>2019-12-21T08:55:00.336Z</time>
      </trkpt>
      <trkpt lat="41.32256333" lon="1.94973">
        <ele>387.0</ele>
        <time>2019-12-21T08:55:01.353Z</time>
      </trkpt>
      <trkpt lat="41.322625" lon="1.94970167">
        <ele>387.0</ele>
        <time>2019-12-21T08:55:02.337Z</time>
      </trkpt>
      <trkpt lat="41.32266167" lon="1.94968667">
        <ele>387.0</ele>
        <time>2019-12-21T08:55:03.337Z</time>
      </trkpt>
      <trkpt lat="41.32266167" lon="1.94968667">
        <ele>387.0</ele>
        <time>2019-12-21T08:55:04.371Z</time>
      </trkpt>
      <trkpt lat="41.32274" lon="1.949655">
        <ele>388.0</ele>
        <time>2019-12-21T08:55:05.353Z</time>
      </trkpt>
      <trkpt lat="41.32274" lon="1.949655">
        <ele>388.0</ele>
        <time>2019-12-21T08:55:06.344Z</time>
      </trkpt>
      <trkpt lat="41.322825" lon="1.949625">
        <ele>388.0</ele>
        <time>2019-12-21T08:55:07.337Z</time>
      </trkpt>
      <trkpt lat="41.322825" lon="1.949625">
        <ele>388.0</ele>
        <time>2019-12-21T08:55:08.371Z</time>
      </trkpt>
      <trkpt lat="41.32291" lon="1.949585">
        <ele>388.0</ele>
        <time>2019-12-21T08:55:09.353Z</time>
      </trkpt>
      <trkpt lat="41.32295167" lon="1.94956833">
        <ele>389.0</ele>
        <time>2019-12-21T08:55:10.336Z</time>
      </trkpt>
      <trkpt lat="41.32295167" lon="1.94956833">
        <ele>389.0</ele>
        <time>2019-12-21T08:55:11.371Z</time>
      </trkpt>
      <trkpt lat="41.32303333" lon="1.94953333">
        <ele>389.0</ele>
        <time>2019-12-21T08:55:12.359Z</time>
      </trkpt>
      <trkpt lat="41.32303333" lon="1.94953333">
        <ele>389.0</ele>
        <time>2019-12-21T08:55:13.335Z</time>
      </trkpt>
      <trkpt lat="41.32311667" lon="1.94949833">
        <ele>389.0</ele>
        <time>2019-12-21T08:55:14.336Z</time>
      </trkpt>
      <trkpt lat="41.323155" lon="1.94948">
        <ele>389.0</ele>
        <time>2019-12-21T08:55:15.337Z</time>
      </trkpt>
      <trkpt lat="41.323155" lon="1.94948">
        <ele>389.0</ele>
        <time>2019-12-21T08:55:16.371Z</time>
      </trkpt>
      <trkpt lat="41.32323667" lon="1.94944">
        <ele>390.0</ele>
        <time>2019-12-21T08:55:17.352Z</time>
      </trkpt>
      <trkpt lat="41.32323667" lon="1.94944">
        <ele>390.0</ele>
        <time>2019-12-21T08:55:18.335Z</time>
      </trkpt>
      <trkpt lat="41.32331333" lon="1.94939667">
        <ele>390.0</ele>
        <time>2019-12-21T08:55:19.335Z</time>
      </trkpt>
      <trkpt lat="41.32331333" lon="1.94939667">
        <ele>390.0</ele>
        <time>2019-12-21T08:55:20.371Z</time>
      </trkpt>
      <trkpt lat="41.323395" lon="1.949355">
        <ele>390.0</ele>
        <time>2019-12-21T08:55:21.353Z</time>
      </trkpt>
      <trkpt lat="41.323395" lon="1.949355">
        <ele>390.0</ele>
        <time>2019-12-21T08:55:22.336Z</time>
      </trkpt>
      <trkpt lat="41.32348" lon="1.94933">
        <ele>391.0</ele>
        <time>2019-12-21T08:55:23.336Z</time>
      </trkpt>
      <trkpt lat="41.32348" lon="1.94933">
        <ele>391.0</ele>
        <time>2019-12-21T08:55:24.371Z</time>
      </trkpt>
      <trkpt lat="41.32356833" lon="1.94929333">
        <ele>391.0</ele>
        <time>2019-12-21T08:55:25.341Z</time>
      </trkpt>
      <trkpt lat="41.32360833" lon="1.949275">
        <ele>391.0</ele>
        <time>2019-12-21T08:55:26.344Z</time>
      </trkpt>
      <trkpt lat="41.32360833" lon="1.949275">
        <ele>391.0</ele>
        <time>2019-12-21T08:55:27.336Z</time>
      </trkpt>
      <trkpt lat="41.32369" lon="1.949245">
        <ele>391.0</ele>
        <time>2019-12-21T08:55:28.336Z</time>
      </trkpt>
      <trkpt lat="41.32373167" lon="1.94923167">
        <ele>392.0</ele>
        <time>2019-12-21T08:55:29.336Z</time>
      </trkpt>
      <trkpt lat="41.32373167" lon="1.94923167">
        <ele>392.0</ele>
        <time>2019-12-21T08:55:30.337Z</time>
      </trkpt>
      <trkpt lat="41.32381667" lon="1.949205">
        <ele>392.0</ele>
        <time>2019-12-21T08:55:31.337Z</time>
      </trkpt>
      <trkpt lat="41.32381667" lon="1.949205">
        <ele>392.0</ele>
        <time>2019-12-21T08:55:32.334Z</time>
      </trkpt>
      <trkpt lat="41.32390667" lon="1.94918167">
        <ele>392.0</ele>
        <time>2019-12-21T08:55:33.338Z</time>
      </trkpt>
      <trkpt lat="41.32390667" lon="1.94918167">
        <ele>392.0</ele>
        <time>2019-12-21T08:55:34.371Z</time>
      </trkpt>
      <trkpt lat="41.32400333" lon="1.94917167">
        <ele>392.0</ele>
        <time>2019-12-21T08:55:35.353Z</time>
      </trkpt>
      <trkpt lat="41.32400333" lon="1.94917167">
        <ele>392.0</ele>
        <time>2019-12-21T08:55:36.347Z</time>
      </trkpt>
      <trkpt lat="41.32409667" lon="1.94917167">
        <ele>393.0</ele>
        <time>2019-12-21T08:55:37.336Z</time>
      </trkpt>
      <trkpt lat="41.32409667" lon="1.94917167">
        <ele>393.0</ele>
        <time>2019-12-21T08:55:38.371Z</time>
      </trkpt>
      <trkpt lat="41.32418667" lon="1.94918">
        <ele>394.0</ele>
        <time>2019-12-21T08:55:39.353Z</time>
      </trkpt>
      <trkpt lat="41.32418667" lon="1.94918">
        <ele>394.0</ele>
        <time>2019-12-21T08:55:40.336Z</time>
      </trkpt>
      <trkpt lat="41.32427333" lon="1.94919">
        <ele>395.0</ele>
        <time>2019-12-21T08:55:41.336Z</time>
      </trkpt>
      <trkpt lat="41.32427333" lon="1.94919">
        <ele>395.0</ele>
        <time>2019-12-21T08:55:42.367Z</time>
      </trkpt>
      <trkpt lat="41.32436" lon="1.94920167">
        <ele>396.0</ele>
        <time>2019-12-21T08:55:43.349Z</time>
      </trkpt>
      <trkpt lat="41.32436" lon="1.94920167">
        <ele>396.0</ele>
        <time>2019-12-21T08:55:44.333Z</time>
      </trkpt>
      <trkpt lat="41.32444667" lon="1.94921">
        <ele>396.0</ele>
        <time>2019-12-21T08:55:45.339Z</time>
      </trkpt>
      <trkpt lat="41.32444667" lon="1.94921">
        <ele>396.0</ele>
        <time>2019-12-21T08:55:46.371Z</time>
      </trkpt>
      <trkpt lat="41.32453333" lon="1.949205">
        <ele>397.0</ele>
        <time>2019-12-21T08:55:47.356Z</time>
      </trkpt>
      <trkpt lat="41.32453333" lon="1.949205">
        <ele>397.0</ele>
        <time>2019-12-21T08:55:48.347Z</time>
      </trkpt>
      <trkpt lat="41.32461167" lon="1.94919">
        <ele>398.0</ele>
        <time>2019-12-21T08:55:49.336Z</time>
      </trkpt>
      <trkpt lat="41.32461167" lon="1.94919">
        <ele>398.0</ele>
        <time>2019-12-21T08:55:50.371Z</time>
      </trkpt>
      <trkpt lat="41.32468333" lon="1.94916667">
        <ele>399.0</ele>
        <time>2019-12-21T08:55:51.353Z</time>
      </trkpt>
      <trkpt lat="41.32468333" lon="1.94916667">
        <ele>399.0</ele>
        <time>2019-12-21T08:55:52.337Z</time>
      </trkpt>
      <trkpt lat="41.32473" lon="1.94911167">
        <ele>399.0</ele>
        <time>2019-12-21T08:55:53.336Z</time>
      </trkpt>
      <trkpt lat="41.32473" lon="1.94911167">
        <ele>399.0</ele>
        <time>2019-12-21T08:55:54.371Z</time>
      </trkpt>
      <trkpt lat="41.32478667" lon="1.94907333">
        <ele>399.0</ele>
        <time>2019-12-21T08:55:55.337Z</time>
      </trkpt>
      <trkpt lat="41.32478667" lon="1.94907333">
        <ele>399.0</ele>
        <time>2019-12-21T08:55:56.372Z</time>
      </trkpt>
      <trkpt lat="41.32484167" lon="1.94903">
        <ele>399.0</ele>
        <time>2019-12-21T08:55:57.354Z</time>
      </trkpt>
      <trkpt lat="41.32484167" lon="1.94903">
        <ele>399.0</ele>
        <time>2019-12-21T08:55:58.334Z</time>
      </trkpt>
      <trkpt lat="41.32490333" lon="1.948975">
        <ele>397.0</ele>
        <time>2019-12-21T08:55:59.337Z</time>
      </trkpt>
      <trkpt lat="41.32490333" lon="1.948975">
        <ele>397.0</ele>
        <time>2019-12-21T08:56:00.371Z</time>
      </trkpt>
      <trkpt lat="41.32496333" lon="1.94892333">
        <ele>397.0</ele>
        <time>2019-12-21T08:56:01.336Z</time>
      </trkpt>
      <trkpt lat="41.32496333" lon="1.94892333">
        <ele>397.0</ele>
        <time>2019-12-21T08:56:02.371Z</time>
      </trkpt>
      <trkpt lat="41.32502833" lon="1.948875">
        <ele>396.0</ele>
        <time>2019-12-21T08:56:03.338Z</time>
      </trkpt>
      <trkpt lat="41.32502833" lon="1.948875">
        <ele>396.0</ele>
        <time>2019-12-21T08:56:04.371Z</time>
      </trkpt>
      <trkpt lat="41.32507667" lon="1.948825">
        <ele>396.0</ele>
        <time>2019-12-21T08:56:05.337Z</time>
      </trkpt>
      <trkpt lat="41.32510167" lon="1.948795">
        <ele>395.0</ele>
        <time>2019-12-21T08:56:06.338Z</time>
      </trkpt>
      <trkpt lat="41.32510167" lon="1.948795">
        <ele>395.0</ele>
        <time>2019-12-21T08:56:07.371Z</time>
      </trkpt>
      <trkpt lat="41.32515" lon="1.94873833">
        <ele>395.0</ele>
        <time>2019-12-21T08:56:08.336Z</time>
      </trkpt>
      <trkpt lat="41.325175" lon="1.94871167">
        <ele>395.0</ele>
        <time>2019-12-21T08:56:09.339Z</time>
      </trkpt>
      <trkpt lat="41.32519833" lon="1.94868833">
        <ele>395.0</ele>
        <time>2019-12-21T08:56:10.360Z</time>
      </trkpt>
      <trkpt lat="41.32519833" lon="1.94868833">
        <ele>395.0</ele>
        <time>2019-12-21T08:56:11.346Z</time>
      </trkpt>
      <trkpt lat="41.32524167" lon="1.948635">
        <ele>395.0</ele>
        <time>2019-12-21T08:56:12.352Z</time>
      </trkpt>
      <trkpt lat="41.32524167" lon="1.948635">
        <ele>395.0</ele>
        <time>2019-12-21T08:56:13.358Z</time>
      </trkpt>
      <trkpt lat="41.32528" lon="1.94858">
        <ele>395.0</ele>
        <time>2019-12-21T08:56:14.336Z</time>
      </trkpt>
      <trkpt lat="41.32530167" lon="1.94855333">
        <ele>395.0</ele>
        <time>2019-12-21T08:56:15.338Z</time>
      </trkpt>
      <trkpt lat="41.32530167" lon="1.94855333">
        <ele>395.0</ele>
        <time>2019-12-21T08:56:16.372Z</time>
      </trkpt>
      <trkpt lat="41.32533667" lon="1.94848667">
        <ele>395.0</ele>
        <time>2019-12-21T08:56:17.357Z</time>
      </trkpt>
      <trkpt lat="41.32533667" lon="1.94848667">
        <ele>395.0</ele>
        <time>2019-12-21T08:56:18.336Z</time>
      </trkpt>
      <trkpt lat="41.32537167" lon="1.94841833">
        <ele>395.0</ele>
        <time>2019-12-21T08:56:19.336Z</time>
      </trkpt>
      <trkpt lat="41.32537167" lon="1.94841833">
        <ele>395.0</ele>
        <time>2019-12-21T08:56:20.371Z</time>
      </trkpt>
      <trkpt lat="41.32540667" lon="1.94834667">
        <ele>395.0</ele>
        <time>2019-12-21T08:56:21.353Z</time>
      </trkpt>
      <trkpt lat="41.32540667" lon="1.94834667">
        <ele>395.0</ele>
        <time>2019-12-21T08:56:22.341Z</time>
      </trkpt>
      <trkpt lat="41.32544" lon="1.94826833">
        <ele>396.0</ele>
        <time>2019-12-21T08:56:23.336Z</time>
      </trkpt>
      <trkpt lat="41.32544" lon="1.94826833">
        <ele>396.0</ele>
        <time>2019-12-21T08:56:24.371Z</time>
      </trkpt>
      <trkpt lat="41.325475" lon="1.948195">
        <ele>396.0</ele>
        <time>2019-12-21T08:56:25.352Z</time>
      </trkpt>
      <trkpt lat="41.325475" lon="1.948195">
        <ele>396.0</ele>
        <time>2019-12-21T08:56:26.342Z</time>
      </trkpt>
      <trkpt lat="41.32551" lon="1.94812167">
        <ele>396.0</ele>
        <time>2019-12-21T08:56:27.351Z</time>
      </trkpt>
      <trkpt lat="41.32551" lon="1.94812167">
        <ele>396.0</ele>
        <time>2019-12-21T08:56:28.335Z</time>
      </trkpt>
      <trkpt lat="41.32555667" lon="1.94806">
        <ele>396.0</ele>
        <time>2019-12-21T08:56:29.338Z</time>
      </trkpt>
      <trkpt lat="41.32555667" lon="1.94806">
        <ele>396.0</ele>
        <time>2019-12-21T08:56:30.372Z</time>
      </trkpt>
      <trkpt lat="41.32559667" lon="1.947995">
        <ele>396.0</ele>
        <time>2019-12-21T08:56:31.337Z</time>
      </trkpt>
      <trkpt lat="41.32559667" lon="1.947995">
        <ele>396.0</ele>
        <time>2019-12-21T08:56:32.372Z</time>
      </trkpt>
      <trkpt lat="41.325635" lon="1.94792833">
        <ele>397.0</ele>
        <time>2019-12-21T08:56:33.339Z</time>
      </trkpt>
      <trkpt lat="41.325635" lon="1.94792833">
        <ele>397.0</ele>
        <time>2019-12-21T08:56:34.333Z</time>
      </trkpt>
      <trkpt lat="41.325675" lon="1.94786667">
        <ele>397.0</ele>
        <time>2019-12-21T08:56:35.337Z</time>
      </trkpt>
      <trkpt lat="41.325675" lon="1.94786667">
        <ele>397.0</ele>
        <time>2019-12-21T08:56:36.372Z</time>
      </trkpt>
      <trkpt lat="41.325725" lon="1.94780333">
        <ele>397.0</ele>
        <time>2019-12-21T08:56:37.357Z</time>
      </trkpt>
      <trkpt lat="41.325725" lon="1.94780333">
        <ele>397.0</ele>
        <time>2019-12-21T08:56:38.342Z</time>
      </trkpt>
      <trkpt lat="41.32577" lon="1.94774167">
        <ele>397.0</ele>
        <time>2019-12-21T08:56:39.339Z</time>
      </trkpt>
      <trkpt lat="41.32577" lon="1.94774167">
        <ele>397.0</ele>
        <time>2019-12-21T08:56:40.372Z</time>
      </trkpt>
      <trkpt lat="41.32582" lon="1.94768167">
        <ele>398.0</ele>
        <time>2019-12-21T08:56:41.337Z</time>
      </trkpt>
      <trkpt lat="41.32582" lon="1.94768167">
        <ele>398.0</ele>
        <time>2019-12-21T08:56:42.334Z</time>
      </trkpt>
      <trkpt lat="41.32587167" lon="1.94762333">
        <ele>398.0</ele>
        <time>2019-12-21T08:56:43.357Z</time>
      </trkpt>
      <trkpt lat="41.32587167" lon="1.94762333">
        <ele>398.0</ele>
        <time>2019-12-21T08:56:44.342Z</time>
      </trkpt>
      <trkpt lat="41.32592333" lon="1.94756333">
        <ele>398.0</ele>
        <time>2019-12-21T08:56:45.339Z</time>
      </trkpt>
      <trkpt lat="41.32592333" lon="1.94756333">
        <ele>398.0</ele>
        <time>2019-12-21T08:56:46.372Z</time>
      </trkpt>
      <trkpt lat="41.32597333" lon="1.94751167">
        <ele>399.0</ele>
        <time>2019-12-21T08:56:47.357Z</time>
      </trkpt>
      <trkpt lat="41.32599333" lon="1.947485">
        <ele>399.0</ele>
        <time>2019-12-21T08:56:48.344Z</time>
      </trkpt>
      <trkpt lat="41.32599333" lon="1.947485">
        <ele>399.0</ele>
        <time>2019-12-21T08:56:49.372Z</time>
      </trkpt>
      <trkpt lat="41.32602833" lon="1.947425">
        <ele>399.0</ele>
        <time>2019-12-21T08:56:50.353Z</time>
      </trkpt>
      <trkpt lat="41.326055" lon="1.94740167">
        <ele>399.0</ele>
        <time>2019-12-21T08:56:51.338Z</time>
      </trkpt>
      <trkpt lat="41.326055" lon="1.94740167">
        <ele>399.0</ele>
        <time>2019-12-21T08:56:52.371Z</time>
      </trkpt>
      <trkpt lat="41.32610167" lon="1.94736">
        <ele>400.0</ele>
        <time>2019-12-21T08:56:53.357Z</time>
      </trkpt>
      <trkpt lat="41.32610167" lon="1.94736">
        <ele>400.0</ele>
        <time>2019-12-21T08:56:54.339Z</time>
      </trkpt>
      <trkpt lat="41.326125" lon="1.94731667">
        <ele>400.0</ele>
        <time>2019-12-21T08:56:55.337Z</time>
      </trkpt>
      <trkpt lat="41.326125" lon="1.94731667">
        <ele>400.0</ele>
        <time>2019-12-21T08:56:56.372Z</time>
      </trkpt>
      <trkpt lat="41.32617833" lon="1.947285">
        <ele>400.0</ele>
        <time>2019-12-21T08:56:57.354Z</time>
      </trkpt>
      <trkpt lat="41.32617833" lon="1.947285">
        <ele>400.0</ele>
        <time>2019-12-21T08:56:58.338Z</time>
      </trkpt>
      <trkpt lat="41.32623333" lon="1.94725">
        <ele>400.0</ele>
        <time>2019-12-21T08:56:59.337Z</time>
      </trkpt>
      <trkpt lat="41.32623333" lon="1.94725">
        <ele>400.0</ele>
        <time>2019-12-21T08:57:00.372Z</time>
      </trkpt>
      <trkpt lat="41.32629333" lon="1.94722667">
        <ele>400.0</ele>
        <time>2019-12-21T08:57:01.337Z</time>
      </trkpt>
      <trkpt lat="41.32632167" lon="1.947215">
        <ele>400.0</ele>
        <time>2019-12-21T08:57:02.338Z</time>
      </trkpt>
      <trkpt lat="41.32632167" lon="1.947215">
        <ele>400.0</ele>
        <time>2019-12-21T08:57:03.334Z</time>
      </trkpt>
      <trkpt lat="41.32637833" lon="1.94719">
        <ele>400.0</ele>
        <time>2019-12-21T08:57:04.336Z</time>
      </trkpt>
      <trkpt lat="41.32637833" lon="1.94719">
        <ele>400.0</ele>
        <time>2019-12-21T08:57:05.372Z</time>
      </trkpt>
      <trkpt lat="41.32643833" lon="1.94716167">
        <ele>400.0</ele>
        <time>2019-12-21T08:57:06.337Z</time>
      </trkpt>
      <trkpt lat="41.32643833" lon="1.94716167">
        <ele>400.0</ele>
        <time>2019-12-21T08:57:07.334Z</time>
      </trkpt>
      <trkpt lat="41.326495" lon="1.94713333">
        <ele>400.0</ele>
        <time>2019-12-21T08:57:08.336Z</time>
      </trkpt>
      <trkpt lat="41.32652167" lon="1.94711">
        <ele>400.0</ele>
        <time>2019-12-21T08:57:09.339Z</time>
      </trkpt>
      <trkpt lat="41.32652167" lon="1.94711">
        <ele>400.0</ele>
        <time>2019-12-21T08:57:10.373Z</time>
      </trkpt>
      <trkpt lat="41.32657" lon="1.94705833">
        <ele>400.0</ele>
        <time>2019-12-21T08:57:11.338Z</time>
      </trkpt>
      <trkpt lat="41.32657" lon="1.94705833">
        <ele>400.0</ele>
        <time>2019-12-21T08:57:12.334Z</time>
      </trkpt>
      <trkpt lat="41.32661833" lon="1.94700333">
        <ele>400.0</ele>
        <time>2019-12-21T08:57:13.357Z</time>
      </trkpt>
      <trkpt lat="41.32661833" lon="1.94700333">
        <ele>400.0</ele>
        <time>2019-12-21T08:57:14.342Z</time>
      </trkpt>
      <trkpt lat="41.32666667" lon="1.94693333">
        <ele>401.0</ele>
        <time>2019-12-21T08:57:15.339Z</time>
      </trkpt>
      <trkpt lat="41.32666667" lon="1.94693333">
        <ele>401.0</ele>
        <time>2019-12-21T08:57:16.365Z</time>
      </trkpt>
      <trkpt lat="41.32671833" lon="1.94686167">
        <ele>401.0</ele>
        <time>2019-12-21T08:57:17.347Z</time>
      </trkpt>
      <trkpt lat="41.32671833" lon="1.94686167">
        <ele>401.0</ele>
        <time>2019-12-21T08:57:18.372Z</time>
      </trkpt>
      <trkpt lat="41.32677333" lon="1.94679167">
        <ele>401.0</ele>
        <time>2019-12-21T08:57:19.353Z</time>
      </trkpt>
      <trkpt lat="41.32677333" lon="1.94679167">
        <ele>401.0</ele>
        <time>2019-12-21T08:57:20.336Z</time>
      </trkpt>
      <trkpt lat="41.326835" lon="1.94675">
        <ele>402.0</ele>
        <time>2019-12-21T08:57:21.339Z</time>
      </trkpt>
      <trkpt lat="41.32686833" lon="1.94674167">
        <ele>402.0</ele>
        <time>2019-12-21T08:57:22.338Z</time>
      </trkpt>
      <trkpt lat="41.32686833" lon="1.94674167">
        <ele>402.0</ele>
        <time>2019-12-21T08:57:23.371Z</time>
      </trkpt>
      <trkpt lat="41.32693833" lon="1.946725">
        <ele>403.0</ele>
        <time>2019-12-21T08:57:24.352Z</time>
      </trkpt>
      <trkpt lat="41.32693833" lon="1.946725">
        <ele>403.0</ele>
        <time>2019-12-21T08:57:25.335Z</time>
      </trkpt>
      <trkpt lat="41.32700167" lon="1.94668333">
        <ele>403.0</ele>
        <time>2019-12-21T08:57:26.353Z</time>
      </trkpt>
      <trkpt lat="41.32703" lon="1.94665667">
        <ele>403.0</ele>
        <time>2019-12-21T08:57:27.341Z</time>
      </trkpt>
      <trkpt lat="41.32703" lon="1.94665667">
        <ele>403.0</ele>
        <time>2019-12-21T08:57:28.372Z</time>
      </trkpt>
      <trkpt lat="41.32707833" lon="1.94658667">
        <ele>403.0</ele>
        <time>2019-12-21T08:57:29.337Z</time>
      </trkpt>
      <trkpt lat="41.32707833" lon="1.94658667">
        <ele>403.0</ele>
        <time>2019-12-21T08:57:30.372Z</time>
      </trkpt>
      <trkpt lat="41.32709833" lon="1.94649833">
        <ele>403.0</ele>
        <time>2019-12-21T08:57:31.337Z</time>
      </trkpt>
      <trkpt lat="41.32709833" lon="1.94649833">
        <ele>403.0</ele>
        <time>2019-12-21T08:57:32.334Z</time>
      </trkpt>
      <trkpt lat="41.32708333" lon="1.94639167">
        <ele>403.0</ele>
        <time>2019-12-21T08:57:33.339Z</time>
      </trkpt>
      <trkpt lat="41.32708333" lon="1.94639167">
        <ele>403.0</ele>
        <time>2019-12-21T08:57:34.333Z</time>
      </trkpt>
      <trkpt lat="41.32704333" lon="1.94629333">
        <ele>403.0</ele>
        <time>2019-12-21T08:57:35.338Z</time>
      </trkpt>
      <trkpt lat="41.327005" lon="1.94625333">
        <ele>403.0</ele>
        <time>2019-12-21T08:57:36.338Z</time>
      </trkpt>
      <trkpt lat="41.327005" lon="1.94625333">
        <ele>403.0</ele>
        <time>2019-12-21T08:57:37.336Z</time>
      </trkpt>
      <trkpt lat="41.32691667" lon="1.94620833">
        <ele>403.0</ele>
        <time>2019-12-21T08:57:38.337Z</time>
      </trkpt>
      <trkpt lat="41.32686833" lon="1.94620333">
        <ele>403.0</ele>
        <time>2019-12-21T08:57:39.341Z</time>
      </trkpt>
      <trkpt lat="41.32686833" lon="1.94620333">
        <ele>403.0</ele>
        <time>2019-12-21T08:57:40.333Z</time>
      </trkpt>
      <trkpt lat="41.32677833" lon="1.946225">
        <ele>403.0</ele>
        <time>2019-12-21T08:57:41.335Z</time>
      </trkpt>
      <trkpt lat="41.32677833" lon="1.946225">
        <ele>403.0</ele>
        <time>2019-12-21T08:57:42.333Z</time>
      </trkpt>
      <trkpt lat="41.32671333" lon="1.946305">
        <ele>402.0</ele>
        <time>2019-12-21T08:57:43.356Z</time>
      </trkpt>
      <trkpt lat="41.326695" lon="1.946355">
        <ele>402.0</ele>
        <time>2019-12-21T08:57:44.341Z</time>
      </trkpt>
      <trkpt lat="41.32669" lon="1.946405">
        <ele>402.0</ele>
        <time>2019-12-21T08:57:45.337Z</time>
      </trkpt>
      <trkpt lat="41.32669" lon="1.946405">
        <ele>402.0</ele>
        <time>2019-12-21T08:57:46.372Z</time>
      </trkpt>
      <trkpt lat="41.326705" lon="1.94650167">
        <ele>402.0</ele>
        <time>2019-12-21T08:57:47.337Z</time>
      </trkpt>
      <trkpt lat="41.326705" lon="1.94650167">
        <ele>402.0</ele>
        <time>2019-12-21T08:57:48.372Z</time>
      </trkpt>
      <trkpt lat="41.32673" lon="1.94658">
        <ele>402.0</ele>
        <time>2019-12-21T08:57:49.354Z</time>
      </trkpt>
      <trkpt lat="41.32674333" lon="1.94661167">
        <ele>401.0</ele>
        <time>2019-12-21T08:57:50.338Z</time>
      </trkpt>
      <trkpt lat="41.32675333" lon="1.94664">
        <ele>401.0</ele>
        <time>2019-12-21T08:57:51.339Z</time>
      </trkpt>
      <trkpt lat="41.32675333" lon="1.94664">
        <ele>401.0</ele>
        <time>2019-12-21T08:57:52.372Z</time>
      </trkpt>
      <trkpt lat="41.32676833" lon="1.946685">
        <ele>401.0</ele>
        <time>2019-12-21T08:57:53.356Z</time>
      </trkpt>
      <trkpt lat="41.32677167" lon="1.94669667">
        <ele>401.0</ele>
        <time>2019-12-21T08:57:54.339Z</time>
      </trkpt>
      <trkpt lat="41.32677167" lon="1.94669667">
        <ele>401.0</ele>
        <time>2019-12-21T08:57:55.353Z</time>
      </trkpt>
      <trkpt lat="41.32677167" lon="1.946695">
        <ele>401.0</ele>
        <time>2019-12-21T08:57:56.346Z</time>
      </trkpt>
      <trkpt lat="41.32677167" lon="1.946695">
        <ele>401.0</ele>
        <time>2019-12-21T08:57:57.372Z</time>
      </trkpt>
      <trkpt lat="41.326835" lon="1.94674667">
        <ele>398.0</ele>
        <time>2019-12-21T08:57:58.354Z</time>
      </trkpt>
      <trkpt lat="41.326835" lon="1.94674667">
        <ele>398.0</ele>
        <time>2019-12-21T08:57:59.340Z</time>
      </trkpt>
      <trkpt lat="41.32689167" lon="1.94675">
        <ele>397.0</ele>
        <time>2019-12-21T08:58:00.352Z</time>
      </trkpt>
      <trkpt lat="41.32689167" lon="1.94675">
        <ele>397.0</ele>
        <time>2019-12-21T08:58:01.340Z</time>
      </trkpt>
      <trkpt lat="41.326945" lon="1.94673667">
        <ele>398.0</ele>
        <time>2019-12-21T08:58:02.363Z</time>
      </trkpt>
      <trkpt lat="41.326945" lon="1.94673667">
        <ele>398.0</ele>
        <time>2019-12-21T08:58:03.348Z</time>
      </trkpt>
      <trkpt lat="41.32699833" lon="1.946725">
        <ele>398.0</ele>
        <time>2019-12-21T08:58:04.345Z</time>
      </trkpt>
      <trkpt lat="41.32699833" lon="1.946725">
        <ele>398.0</ele>
        <time>2019-12-21T08:58:05.340Z</time>
      </trkpt>
      <trkpt lat="41.32705167" lon="1.94669167">
        <ele>398.0</ele>
        <time>2019-12-21T08:58:06.345Z</time>
      </trkpt>
      <trkpt lat="41.32705167" lon="1.94669167">
        <ele>398.0</ele>
        <time>2019-12-21T08:58:07.341Z</time>
      </trkpt>
      <trkpt lat="41.327075" lon="1.94666667">
        <ele>398.0</ele>
        <time>2019-12-21T08:58:08.364Z</time>
      </trkpt>
      <trkpt lat="41.327075" lon="1.94666667">
        <ele>398.0</ele>
        <time>2019-12-21T08:58:09.345Z</time>
      </trkpt>
      <trkpt lat="41.327075" lon="1.94667167">
        <ele>398.0</ele>
        <time>2019-12-21T08:58:10.348Z</time>
      </trkpt>
      <trkpt lat="41.327075" lon="1.94667167">
        <ele>398.0</ele>
        <time>2019-12-21T08:58:11.341Z</time>
      </trkpt>
      <trkpt lat="41.327075" lon="1.94667167">
        <ele>398.0</ele>
        <time>2019-12-21T08:58:12.355Z</time>
      </trkpt>
      <trkpt lat="41.32713167" lon="1.94665667">
        <ele>394.0</ele>
        <time>2019-12-21T08:58:13.347Z</time>
      </trkpt>
      <trkpt lat="41.32713167" lon="1.94665667">
        <ele>394.0</ele>
        <time>2019-12-21T08:58:14.340Z</time>
      </trkpt>
      <trkpt lat="41.32717333" lon="1.94665333">
        <ele>394.0</ele>
        <time>2019-12-21T08:58:15.362Z</time>
      </trkpt>
      <trkpt lat="41.32717333" lon="1.94665333">
        <ele>394.0</ele>
        <time>2019-12-21T08:58:16.345Z</time>
      </trkpt>
      <trkpt lat="41.32723167" lon="1.94667167">
        <ele>394.0</ele>
        <time>2019-12-21T08:58:17.338Z</time>
      </trkpt>
      <trkpt lat="41.32726" lon="1.94668167">
        <ele>394.0</ele>
        <time>2019-12-21T08:58:18.365Z</time>
      </trkpt>
      <trkpt lat="41.32726" lon="1.94668167">
        <ele>394.0</ele>
        <time>2019-12-21T08:58:19.348Z</time>
      </trkpt>
      <trkpt lat="41.32731667" lon="1.9467">
        <ele>395.0</ele>
        <time>2019-12-21T08:58:20.347Z</time>
      </trkpt>
      <trkpt lat="41.32734667" lon="1.946705">
        <ele>396.0</ele>
        <time>2019-12-21T08:58:21.349Z</time>
      </trkpt>
      <trkpt lat="41.32734667" lon="1.946705">
        <ele>396.0</ele>
        <time>2019-12-21T08:58:22.341Z</time>
      </trkpt>
      <trkpt lat="41.32740833" lon="1.946715">
        <ele>397.0</ele>
        <time>2019-12-21T08:58:23.348Z</time>
      </trkpt>
      <trkpt lat="41.32744167" lon="1.946725">
        <ele>396.0</ele>
        <time>2019-12-21T08:58:24.346Z</time>
      </trkpt>
      <trkpt lat="41.32744167" lon="1.946725">
        <ele>396.0</ele>
        <time>2019-12-21T08:58:25.341Z</time>
      </trkpt>
      <trkpt lat="41.32750333" lon="1.94673333">
        <ele>397.0</ele>
        <time>2019-12-21T08:58:26.345Z</time>
      </trkpt>
      <trkpt lat="41.32750333" lon="1.94673333">
        <ele>397.0</ele>
        <time>2019-12-21T08:58:27.341Z</time>
      </trkpt>
      <trkpt lat="41.32757333" lon="1.94674333">
        <ele>398.0</ele>
        <time>2019-12-21T08:58:28.346Z</time>
      </trkpt>
      <trkpt lat="41.32760667" lon="1.94674667">
        <ele>398.0</ele>
        <time>2019-12-21T08:58:29.343Z</time>
      </trkpt>
      <trkpt lat="41.32760667" lon="1.94674667">
        <ele>398.0</ele>
        <time>2019-12-21T08:58:30.341Z</time>
      </trkpt>
      <trkpt lat="41.32767833" lon="1.94676167">
        <ele>398.0</ele>
        <time>2019-12-21T08:58:31.345Z</time>
      </trkpt>
      <trkpt lat="41.32767833" lon="1.94676167">
        <ele>398.0</ele>
        <time>2019-12-21T08:58:32.340Z</time>
      </trkpt>
      <trkpt lat="41.32775167" lon="1.94677667">
        <ele>398.0</ele>
        <time>2019-12-21T08:58:33.362Z</time>
      </trkpt>
      <trkpt lat="41.32775167" lon="1.94677667">
        <ele>398.0</ele>
        <time>2019-12-21T08:58:34.347Z</time>
      </trkpt>
      <trkpt lat="41.327825" lon="1.94678333">
        <ele>398.0</ele>
        <time>2019-12-21T08:58:35.347Z</time>
      </trkpt>
      <trkpt lat="41.327825" lon="1.94678333">
        <ele>398.0</ele>
        <time>2019-12-21T08:58:36.341Z</time>
      </trkpt>
      <trkpt lat="41.32789333" lon="1.94677667">
        <ele>399.0</ele>
        <time>2019-12-21T08:58:37.366Z</time>
      </trkpt>
      <trkpt lat="41.32792833" lon="1.94677167">
        <ele>399.0</ele>
        <time>2019-12-21T08:58:38.355Z</time>
      </trkpt>
      <trkpt lat="41.32796333" lon="1.946765">
        <ele>399.0</ele>
        <time>2019-12-21T08:58:39.349Z</time>
      </trkpt>
      <trkpt lat="41.32796333" lon="1.946765">
        <ele>399.0</ele>
        <time>2019-12-21T08:58:40.341Z</time>
      </trkpt>
      <trkpt lat="41.32803333" lon="1.94676833">
        <ele>400.0</ele>
        <time>2019-12-21T08:58:41.347Z</time>
      </trkpt>
      <trkpt lat="41.32803333" lon="1.94676833">
        <ele>400.0</ele>
        <time>2019-12-21T08:58:42.340Z</time>
      </trkpt>
      <trkpt lat="41.328105" lon="1.94676">
        <ele>400.0</ele>
        <time>2019-12-21T08:58:43.345Z</time>
      </trkpt>
      <trkpt lat="41.328105" lon="1.94676">
        <ele>400.0</ele>
        <time>2019-12-21T08:58:44.343Z</time>
      </trkpt>
      <trkpt lat="41.32817167" lon="1.94674333">
        <ele>402.0</ele>
        <time>2019-12-21T08:58:45.348Z</time>
      </trkpt>
      <trkpt lat="41.32817167" lon="1.94674333">
        <ele>402.0</ele>
        <time>2019-12-21T08:58:46.340Z</time>
      </trkpt>
      <trkpt lat="41.32824833" lon="1.946725">
        <ele>403.0</ele>
        <time>2019-12-21T08:58:47.362Z</time>
      </trkpt>
      <trkpt lat="41.32824833" lon="1.946725">
        <ele>403.0</ele>
        <time>2019-12-21T08:58:48.341Z</time>
      </trkpt>
      <trkpt lat="41.32831" lon="1.94669833">
        <ele>405.0</ele>
        <time>2019-12-21T08:58:49.366Z</time>
      </trkpt>
      <trkpt lat="41.32834167" lon="1.94668667">
        <ele>406.0</ele>
        <time>2019-12-21T08:58:50.349Z</time>
      </trkpt>
      <trkpt lat="41.32834167" lon="1.94668667">
        <ele>406.0</ele>
        <time>2019-12-21T08:58:51.343Z</time>
      </trkpt>
      <trkpt lat="41.32840833" lon="1.946665">
        <ele>407.0</ele>
        <time>2019-12-21T08:58:52.347Z</time>
      </trkpt>
      <trkpt lat="41.32840833" lon="1.946665">
        <ele>407.0</ele>
        <time>2019-12-21T08:58:53.341Z</time>
      </trkpt>
      <trkpt lat="41.328475" lon="1.946655">
        <ele>408.0</ele>
        <time>2019-12-21T08:58:54.355Z</time>
      </trkpt>
      <trkpt lat="41.328475" lon="1.946655">
        <ele>408.0</ele>
        <time>2019-12-21T08:58:55.341Z</time>
      </trkpt>
      <trkpt lat="41.32854167" lon="1.94663667">
        <ele>409.0</ele>
        <time>2019-12-21T08:58:56.347Z</time>
      </trkpt>
      <trkpt lat="41.32857667" lon="1.946625">
        <ele>410.0</ele>
        <time>2019-12-21T08:58:57.349Z</time>
      </trkpt>
      <trkpt lat="41.32857667" lon="1.946625">
        <ele>410.0</ele>
        <time>2019-12-21T08:58:58.352Z</time>
      </trkpt>
      <trkpt lat="41.32865" lon="1.946605">
        <ele>410.0</ele>
        <time>2019-12-21T08:58:59.343Z</time>
      </trkpt>
      <trkpt lat="41.32865" lon="1.946605">
        <ele>410.0</ele>
        <time>2019-12-21T08:59:00.340Z</time>
      </trkpt>
      <trkpt lat="41.32872" lon="1.946585">
        <ele>410.0</ele>
        <time>2019-12-21T08:59:01.362Z</time>
      </trkpt>
      <trkpt lat="41.32872" lon="1.946585">
        <ele>410.0</ele>
        <time>2019-12-21T08:59:02.345Z</time>
      </trkpt>
      <trkpt lat="41.32878833" lon="1.946565">
        <ele>411.0</ele>
        <time>2019-12-21T08:59:03.348Z</time>
      </trkpt>
      <trkpt lat="41.32878833" lon="1.946565">
        <ele>411.0</ele>
        <time>2019-12-21T08:59:04.341Z</time>
      </trkpt>
      <trkpt lat="41.32885167" lon="1.94653667">
        <ele>413.0</ele>
        <time>2019-12-21T08:59:05.347Z</time>
      </trkpt>
      <trkpt lat="41.32885167" lon="1.94653667">
        <ele>413.0</ele>
        <time>2019-12-21T08:59:06.341Z</time>
      </trkpt>
      <trkpt lat="41.328915" lon="1.94651167">
        <ele>413.0</ele>
        <time>2019-12-21T08:59:07.362Z</time>
      </trkpt>
      <trkpt lat="41.328915" lon="1.94651167">
        <ele>413.0</ele>
        <time>2019-12-21T08:59:08.349Z</time>
      </trkpt>
      <trkpt lat="41.32899333" lon="1.94647667">
        <ele>413.0</ele>
        <time>2019-12-21T08:59:09.349Z</time>
      </trkpt>
      <trkpt lat="41.32899333" lon="1.94647667">
        <ele>413.0</ele>
        <time>2019-12-21T08:59:10.341Z</time>
      </trkpt>
      <trkpt lat="41.32907" lon="1.94643333">
        <ele>412.0</ele>
        <time>2019-12-21T08:59:11.347Z</time>
      </trkpt>
      <trkpt lat="41.32907" lon="1.94643333">
        <ele>412.0</ele>
        <time>2019-12-21T08:59:12.341Z</time>
      </trkpt>
      <trkpt lat="41.32915333" lon="1.946385">
        <ele>412.0</ele>
        <time>2019-12-21T08:59:13.362Z</time>
      </trkpt>
      <trkpt lat="41.329195" lon="1.94636167">
        <ele>411.0</ele>
        <time>2019-12-21T08:59:14.348Z</time>
      </trkpt>
      <trkpt lat="41.32924167" lon="1.94633">
        <ele>411.0</ele>
        <time>2019-12-21T08:59:15.349Z</time>
      </trkpt>
      <trkpt lat="41.32924167" lon="1.94633">
        <ele>411.0</ele>
        <time>2019-12-21T08:59:16.341Z</time>
      </trkpt>
      <trkpt lat="41.32932333" lon="1.94627333">
        <ele>411.0</ele>
        <time>2019-12-21T08:59:17.347Z</time>
      </trkpt>
      <trkpt lat="41.329365" lon="1.94625167">
        <ele>411.0</ele>
        <time>2019-12-21T08:59:18.347Z</time>
      </trkpt>
      <trkpt lat="41.329365" lon="1.94625167">
        <ele>411.0</ele>
        <time>2019-12-21T08:59:19.340Z</time>
      </trkpt>
      <trkpt lat="41.329445" lon="1.94624667">
        <ele>409.0</ele>
        <time>2019-12-21T08:59:20.362Z</time>
      </trkpt>
      <trkpt lat="41.329465" lon="1.94627167">
        <ele>409.0</ele>
        <time>2019-12-21T08:59:21.348Z</time>
      </trkpt>
      <trkpt lat="41.329465" lon="1.94627167">
        <ele>409.0</ele>
        <time>2019-12-21T08:59:22.341Z</time>
      </trkpt>
      <trkpt lat="41.32948167" lon="1.94632833">
        <ele>409.0</ele>
        <time>2019-12-21T08:59:23.362Z</time>
      </trkpt>
      <trkpt lat="41.32948167" lon="1.94632833">
        <ele>409.0</ele>
        <time>2019-12-21T08:59:24.345Z</time>
      </trkpt>
      <trkpt lat="41.32950167" lon="1.94639333">
        <ele>409.0</ele>
        <time>2019-12-21T08:59:25.356Z</time>
      </trkpt>
      <trkpt lat="41.32950167" lon="1.94639333">
        <ele>409.0</ele>
        <time>2019-12-21T08:59:26.341Z</time>
      </trkpt>
      <trkpt lat="41.32951833" lon="1.94646667">
        <ele>409.0</ele>
        <time>2019-12-21T08:59:27.364Z</time>
      </trkpt>
      <trkpt lat="41.32951833" lon="1.94646667">
        <ele>409.0</ele>
        <time>2019-12-21T08:59:28.348Z</time>
      </trkpt>
      <trkpt lat="41.32953833" lon="1.94653667">
        <ele>409.0</ele>
        <time>2019-12-21T08:59:29.345Z</time>
      </trkpt>
      <trkpt lat="41.32953833" lon="1.94653667">
        <ele>409.0</ele>
        <time>2019-12-21T08:59:30.362Z</time>
      </trkpt>
      <trkpt lat="41.329555" lon="1.94659833">
        <ele>409.0</ele>
        <time>2019-12-21T08:59:31.347Z</time>
      </trkpt>
      <trkpt lat="41.32956333" lon="1.946615">
        <ele>409.0</ele>
        <time>2019-12-21T08:59:32.346Z</time>
      </trkpt>
      <trkpt lat="41.32956333" lon="1.946615">
        <ele>409.0</ele>
        <time>2019-12-21T08:59:33.343Z</time>
      </trkpt>
      <trkpt lat="41.32958167" lon="1.946665">
        <ele>409.0</ele>
        <time>2019-12-21T08:59:34.367Z</time>
      </trkpt>
      <trkpt lat="41.32958167" lon="1.946665">
        <ele>409.0</ele>
        <time>2019-12-21T08:59:35.350Z</time>
      </trkpt>
      <trkpt lat="41.32960667" lon="1.94669667">
        <ele>410.0</ele>
        <time>2019-12-21T08:59:36.347Z</time>
      </trkpt>
      <trkpt lat="41.32960667" lon="1.94669667">
        <ele>410.0</ele>
        <time>2019-12-21T08:59:37.341Z</time>
      </trkpt>
      <trkpt lat="41.32961333" lon="1.94671167">
        <ele>411.0</ele>
        <time>2019-12-21T08:59:38.365Z</time>
      </trkpt>
      <trkpt lat="41.32961333" lon="1.946715">
        <ele>411.0</ele>
        <time>2019-12-21T08:59:39.350Z</time>
      </trkpt>
      <trkpt lat="41.32961333" lon="1.946715">
        <ele>411.0</ele>
        <time>2019-12-21T08:59:40.341Z</time>
      </trkpt>
      <trkpt lat="41.329705" lon="1.94679167">
        <ele>412.0</ele>
        <time>2019-12-21T08:59:41.338Z</time>
      </trkpt>
      <trkpt lat="41.32973167" lon="1.94679167">
        <ele>412.0</ele>
        <time>2019-12-21T08:59:42.340Z</time>
      </trkpt>
      <trkpt lat="41.32973167" lon="1.94679167">
        <ele>412.0</ele>
        <time>2019-12-21T08:59:43.373Z</time>
      </trkpt>
      <trkpt lat="41.32978" lon="1.94676833">
        <ele>412.0</ele>
        <time>2019-12-21T08:59:44.338Z</time>
      </trkpt>
      <trkpt lat="41.32978" lon="1.94676833">
        <ele>412.0</ele>
        <time>2019-12-21T08:59:45.372Z</time>
      </trkpt>
      <trkpt lat="41.32982667" lon="1.94673167">
        <ele>411.0</ele>
        <time>2019-12-21T08:59:46.353Z</time>
      </trkpt>
      <trkpt lat="41.32982667" lon="1.94673167">
        <ele>411.0</ele>
        <time>2019-12-21T08:59:47.337Z</time>
      </trkpt>
      <trkpt lat="41.329865" lon="1.9467">
        <ele>411.0</ele>
        <time>2019-12-21T08:59:48.339Z</time>
      </trkpt>
      <trkpt lat="41.329865" lon="1.9467">
        <ele>411.0</ele>
        <time>2019-12-21T08:59:49.367Z</time>
      </trkpt>
      <trkpt lat="41.32991667" lon="1.94666">
        <ele>411.0</ele>
        <time>2019-12-21T08:59:50.349Z</time>
      </trkpt>
      <trkpt lat="41.32991667" lon="1.94666">
        <ele>411.0</ele>
        <time>2019-12-21T08:59:51.372Z</time>
      </trkpt>
      <trkpt lat="41.32999" lon="1.94661167">
        <ele>411.0</ele>
        <time>2019-12-21T08:59:52.353Z</time>
      </trkpt>
      <trkpt lat="41.32999" lon="1.94661167">
        <ele>411.0</ele>
        <time>2019-12-21T08:59:53.336Z</time>
      </trkpt>
      <trkpt lat="41.33007333" lon="1.946555">
        <ele>411.0</ele>
        <time>2019-12-21T08:59:54.340Z</time>
      </trkpt>
      <trkpt lat="41.33007333" lon="1.946555">
        <ele>411.0</ele>
        <time>2019-12-21T08:59:55.356Z</time>
      </trkpt>
      <trkpt lat="41.330175" lon="1.94649">
        <ele>411.0</ele>
        <time>2019-12-21T08:59:56.338Z</time>
      </trkpt>
      <trkpt lat="41.33022333" lon="1.94647">
        <ele>411.0</ele>
        <time>2019-12-21T08:59:57.338Z</time>
      </trkpt>
      <trkpt lat="41.33022333" lon="1.94647">
        <ele>411.0</ele>
        <time>2019-12-21T08:59:58.372Z</time>
      </trkpt>
      <trkpt lat="41.330285" lon="1.94645333">
        <ele>411.0</ele>
        <time>2019-12-21T08:59:59.356Z</time>
      </trkpt>
      <trkpt lat="41.330295" lon="1.94646167">
        <ele>412.0</ele>
        <time>2019-12-21T09:00:00.341Z</time>
      </trkpt>
      <trkpt lat="41.330295" lon="1.94646167">
        <ele>412.0</ele>
        <time>2019-12-21T09:00:01.341Z</time>
      </trkpt>
      <trkpt lat="41.33032" lon="1.94646833">
        <ele>413.0</ele>
        <time>2019-12-21T09:00:02.337Z</time>
      </trkpt>
      <trkpt lat="41.33032" lon="1.94646833">
        <ele>413.0</ele>
        <time>2019-12-21T09:00:03.372Z</time>
      </trkpt>
      <trkpt lat="41.33034833" lon="1.94647667">
        <ele>413.0</ele>
        <time>2019-12-21T09:00:04.338Z</time>
      </trkpt>
      <trkpt lat="41.33034833" lon="1.94647667">
        <ele>413.0</ele>
        <time>2019-12-21T09:00:05.372Z</time>
      </trkpt>
      <trkpt lat="41.33036667" lon="1.94648333">
        <ele>413.0</ele>
        <time>2019-12-21T09:00:06.354Z</time>
      </trkpt>
      <trkpt lat="41.33036667" lon="1.94648333">
        <ele>413.0</ele>
        <time>2019-12-21T09:00:07.338Z</time>
      </trkpt>
      <trkpt lat="41.33037833" lon="1.94649167">
        <ele>413.0</ele>
        <time>2019-12-21T09:00:08.338Z</time>
      </trkpt>
      <trkpt lat="41.33037833" lon="1.94649167">
        <ele>413.0</ele>
        <time>2019-12-21T09:00:09.368Z</time>
      </trkpt>
      <trkpt lat="41.33038833" lon="1.94648833">
        <ele>413.0</ele>
        <time>2019-12-21T09:00:10.350Z</time>
      </trkpt>
      <trkpt lat="41.33038833" lon="1.94648833">
        <ele>413.0</ele>
        <time>2019-12-21T09:00:11.372Z</time>
      </trkpt>
      <trkpt lat="41.33039333" lon="1.94649">
        <ele>412.0</ele>
        <time>2019-12-21T09:00:12.354Z</time>
      </trkpt>
      <trkpt lat="41.33039333" lon="1.94649">
        <ele>412.0</ele>
        <time>2019-12-21T09:00:13.336Z</time>
      </trkpt>
      <trkpt lat="41.33039333" lon="1.94649">
        <ele>412.0</ele>
        <time>2019-12-21T09:00:14.369Z</time>
      </trkpt>
      <trkpt lat="41.33048167" lon="1.94651333">
        <ele>399.0</ele>
        <time>2019-12-21T09:00:15.365Z</time>
      </trkpt>
      <trkpt lat="41.33048167" lon="1.94651333">
        <ele>399.0</ele>
        <time>2019-12-21T09:00:16.357Z</time>
      </trkpt>
      <trkpt lat="41.33043667" lon="1.94648">
        <ele>400.0</ele>
        <time>2019-12-21T09:00:17.344Z</time>
      </trkpt>
      <trkpt lat="41.33043667" lon="1.94648">
        <ele>400.0</ele>
        <time>2019-12-21T09:00:18.360Z</time>
      </trkpt>
      <trkpt lat="41.33039167" lon="1.94643833">
        <ele>400.0</ele>
        <time>2019-12-21T09:00:19.345Z</time>
      </trkpt>
      <trkpt lat="41.33039167" lon="1.94643833">
        <ele>400.0</ele>
        <time>2019-12-21T09:00:20.346Z</time>
      </trkpt>
      <trkpt lat="41.33033833" lon="1.94644">
        <ele>400.0</ele>
        <time>2019-12-21T09:00:21.347Z</time>
      </trkpt>
      <trkpt lat="41.33033833" lon="1.94644">
        <ele>400.0</ele>
        <time>2019-12-21T09:00:22.339Z</time>
      </trkpt>
      <trkpt lat="41.33026833" lon="1.94647833">
        <ele>400.0</ele>
        <time>2019-12-21T09:00:23.346Z</time>
      </trkpt>
      <trkpt lat="41.33026833" lon="1.94647833">
        <ele>400.0</ele>
        <time>2019-12-21T09:00:24.340Z</time>
      </trkpt>
      <trkpt lat="41.33019667" lon="1.946525">
        <ele>399.0</ele>
        <time>2019-12-21T09:00:25.346Z</time>
      </trkpt>
      <trkpt lat="41.33019667" lon="1.946525">
        <ele>399.0</ele>
        <time>2019-12-21T09:00:26.339Z</time>
      </trkpt>
      <trkpt lat="41.33014" lon="1.94656333">
        <ele>399.0</ele>
        <time>2019-12-21T09:00:27.361Z</time>
      </trkpt>
      <trkpt lat="41.33014" lon="1.94656333">
        <ele>399.0</ele>
        <time>2019-12-21T09:00:28.348Z</time>
      </trkpt>
      <trkpt lat="41.3301" lon="1.94660333">
        <ele>400.0</ele>
        <time>2019-12-21T09:00:29.345Z</time>
      </trkpt>
      <trkpt lat="41.33007667" lon="1.94662167">
        <ele>400.0</ele>
        <time>2019-12-21T09:00:30.345Z</time>
      </trkpt>
      <trkpt lat="41.33007667" lon="1.94662167">
        <ele>400.0</ele>
        <time>2019-12-21T09:00:31.340Z</time>
      </trkpt>
      <trkpt lat="41.33002833" lon="1.94664833">
        <ele>400.0</ele>
        <time>2019-12-21T09:00:32.361Z</time>
      </trkpt>
      <trkpt lat="41.33000667" lon="1.94666167">
        <ele>400.0</ele>
        <time>2019-12-21T09:00:33.347Z</time>
      </trkpt>
      <trkpt lat="41.33000667" lon="1.94666167">
        <ele>400.0</ele>
        <time>2019-12-21T09:00:34.340Z</time>
      </trkpt>
      <trkpt lat="41.329975" lon="1.946685">
        <ele>400.0</ele>
        <time>2019-12-21T09:00:35.345Z</time>
      </trkpt>
      <trkpt lat="41.329975" lon="1.946685">
        <ele>400.0</ele>
        <time>2019-12-21T09:00:36.339Z</time>
      </trkpt>
      <trkpt lat="41.32994333" lon="1.9467">
        <ele>401.0</ele>
        <time>2019-12-21T09:00:37.361Z</time>
      </trkpt>
      <trkpt lat="41.32994333" lon="1.9467">
        <ele>401.0</ele>
        <time>2019-12-21T09:00:38.349Z</time>
      </trkpt>
      <trkpt lat="41.32991333" lon="1.946725">
        <ele>401.0</ele>
        <time>2019-12-21T09:00:39.344Z</time>
      </trkpt>
      <trkpt lat="41.32991333" lon="1.946725">
        <ele>401.0</ele>
        <time>2019-12-21T09:00:40.366Z</time>
      </trkpt>
      <trkpt lat="41.32987667" lon="1.94676333">
        <ele>401.0</ele>
        <time>2019-12-21T09:00:41.349Z</time>
      </trkpt>
      <trkpt lat="41.32987667" lon="1.94676333">
        <ele>401.0</ele>
        <time>2019-12-21T09:00:42.339Z</time>
      </trkpt>
      <trkpt lat="41.32983667" lon="1.94680333">
        <ele>401.0</ele>
        <time>2019-12-21T09:00:43.361Z</time>
      </trkpt>
      <trkpt lat="41.32983667" lon="1.94680333">
        <ele>401.0</ele>
        <time>2019-12-21T09:00:44.345Z</time>
      </trkpt>
      <trkpt lat="41.3298" lon="1.946835">
        <ele>401.0</ele>
        <time>2019-12-21T09:00:45.346Z</time>
      </trkpt>
      <trkpt lat="41.3298" lon="1.946835">
        <ele>401.0</ele>
        <time>2019-12-21T09:00:46.338Z</time>
      </trkpt>
      <trkpt lat="41.32976167" lon="1.94685833">
        <ele>401.0</ele>
        <time>2019-12-21T09:00:47.360Z</time>
      </trkpt>
      <trkpt lat="41.32975167" lon="1.94685833">
        <ele>401.0</ele>
        <time>2019-12-21T09:00:48.346Z</time>
      </trkpt>
      <trkpt lat="41.32975167" lon="1.94685833">
        <ele>401.0</ele>
        <time>2019-12-21T09:00:49.339Z</time>
      </trkpt>
      <trkpt lat="41.32974167" lon="1.94684667">
        <ele>401.0</ele>
        <time>2019-12-21T09:00:50.361Z</time>
      </trkpt>
      <trkpt lat="41.32973833" lon="1.94683167">
        <ele>401.0</ele>
        <time>2019-12-21T09:00:51.341Z</time>
      </trkpt>
      <trkpt lat="41.32973833" lon="1.94683167">
        <ele>401.0</ele>
        <time>2019-12-21T09:00:52.359Z</time>
      </trkpt>
      <trkpt lat="41.32971833" lon="1.946815">
        <ele>401.0</ele>
        <time>2019-12-21T09:00:53.344Z</time>
      </trkpt>
      <trkpt lat="41.32971833" lon="1.946815">
        <ele>401.0</ele>
        <time>2019-12-21T09:00:54.344Z</time>
      </trkpt>
      <trkpt lat="41.32972333" lon="1.94680833">
        <ele>401.0</ele>
        <time>2019-12-21T09:00:55.345Z</time>
      </trkpt>
      <trkpt lat="41.32966667" lon="1.94663">
        <ele>403.0</ele>
        <time>2019-12-21T09:00:56.337Z</time>
      </trkpt>
      <trkpt lat="41.32966667" lon="1.94663">
        <ele>403.0</ele>
        <time>2019-12-21T09:00:57.353Z</time>
      </trkpt>
      <trkpt lat="41.32961833" lon="1.946535">
        <ele>404.0</ele>
        <time>2019-12-21T09:00:58.336Z</time>
      </trkpt>
      <trkpt lat="41.32961833" lon="1.946535">
        <ele>404.0</ele>
        <time>2019-12-21T09:00:59.372Z</time>
      </trkpt>
      <trkpt lat="41.32957333" lon="1.94643667">
        <ele>404.0</ele>
        <time>2019-12-21T09:01:00.354Z</time>
      </trkpt>
      <trkpt lat="41.32957333" lon="1.94643667">
        <ele>404.0</ele>
        <time>2019-12-21T09:01:01.337Z</time>
      </trkpt>
      <trkpt lat="41.329535" lon="1.946335">
        <ele>404.0</ele>
        <time>2019-12-21T09:01:02.337Z</time>
      </trkpt>
      <trkpt lat="41.329535" lon="1.946335">
        <ele>404.0</ele>
        <time>2019-12-21T09:01:03.372Z</time>
      </trkpt>
      <trkpt lat="41.32948167" lon="1.94626833">
        <ele>405.0</ele>
        <time>2019-12-21T09:01:04.337Z</time>
      </trkpt>
      <trkpt lat="41.32948167" lon="1.94626833">
        <ele>405.0</ele>
        <time>2019-12-21T09:01:05.333Z</time>
      </trkpt>
      <trkpt lat="41.32941" lon="1.94628167">
        <ele>405.0</ele>
        <time>2019-12-21T09:01:06.337Z</time>
      </trkpt>
      <trkpt lat="41.32941" lon="1.94628167">
        <ele>405.0</ele>
        <time>2019-12-21T09:01:07.371Z</time>
      </trkpt>
      <trkpt lat="41.329335" lon="1.94632167">
        <ele>405.0</ele>
        <time>2019-12-21T09:01:08.345Z</time>
      </trkpt>
      <trkpt lat="41.329335" lon="1.94632167">
        <ele>405.0</ele>
        <time>2019-12-21T09:01:09.333Z</time>
      </trkpt>
      <trkpt lat="41.32925833" lon="1.94636">
        <ele>405.0</ele>
        <time>2019-12-21T09:01:10.337Z</time>
      </trkpt>
      <trkpt lat="41.32925833" lon="1.94636">
        <ele>405.0</ele>
        <time>2019-12-21T09:01:11.372Z</time>
      </trkpt>
      <trkpt lat="41.32918167" lon="1.94640333">
        <ele>406.0</ele>
        <time>2019-12-21T09:01:12.355Z</time>
      </trkpt>
      <trkpt lat="41.32918167" lon="1.94640333">
        <ele>406.0</ele>
        <time>2019-12-21T09:01:13.335Z</time>
      </trkpt>
      <trkpt lat="41.329105" lon="1.94644">
        <ele>406.0</ele>
        <time>2019-12-21T09:01:14.337Z</time>
      </trkpt>
      <trkpt lat="41.32907167" lon="1.94646">
        <ele>406.0</ele>
        <time>2019-12-21T09:01:15.338Z</time>
      </trkpt>
      <trkpt lat="41.32907167" lon="1.94646">
        <ele>406.0</ele>
        <time>2019-12-21T09:01:16.372Z</time>
      </trkpt>
      <trkpt lat="41.329" lon="1.94649667">
        <ele>406.0</ele>
        <time>2019-12-21T09:01:17.337Z</time>
      </trkpt>
      <trkpt lat="41.32896333" lon="1.94651333">
        <ele>406.0</ele>
        <time>2019-12-21T09:01:18.339Z</time>
      </trkpt>
      <trkpt lat="41.32896333" lon="1.94651333">
        <ele>406.0</ele>
        <time>2019-12-21T09:01:19.372Z</time>
      </trkpt>
      <trkpt lat="41.328875" lon="1.94654333">
        <ele>405.0</ele>
        <time>2019-12-21T09:01:20.358Z</time>
      </trkpt>
      <trkpt lat="41.328875" lon="1.94654333">
        <ele>405.0</ele>
        <time>2019-12-21T09:01:21.353Z</time>
      </trkpt>
      <trkpt lat="41.32878333" lon="1.94657833">
        <ele>405.0</ele>
        <time>2019-12-21T09:01:22.339Z</time>
      </trkpt>
      <trkpt lat="41.32878333" lon="1.94657833">
        <ele>405.0</ele>
        <time>2019-12-21T09:01:23.333Z</time>
      </trkpt>
      <trkpt lat="41.328685" lon="1.94661">
        <ele>404.0</ele>
        <time>2019-12-21T09:01:24.355Z</time>
      </trkpt>
      <trkpt lat="41.328685" lon="1.94661">
        <ele>404.0</ele>
        <time>2019-12-21T09:01:25.336Z</time>
      </trkpt>
      <trkpt lat="41.32858667" lon="1.94663833">
        <ele>404.0</ele>
        <time>2019-12-21T09:01:26.338Z</time>
      </trkpt>
      <trkpt lat="41.32858667" lon="1.94663833">
        <ele>404.0</ele>
        <time>2019-12-21T09:01:27.333Z</time>
      </trkpt>
      <trkpt lat="41.32847667" lon="1.946665">
        <ele>404.0</ele>
        <time>2019-12-21T09:01:28.337Z</time>
      </trkpt>
      <trkpt lat="41.32847667" lon="1.946665">
        <ele>404.0</ele>
        <time>2019-12-21T09:01:29.372Z</time>
      </trkpt>
      <trkpt lat="41.32836833" lon="1.94668667">
        <ele>404.0</ele>
        <time>2019-12-21T09:01:30.359Z</time>
      </trkpt>
      <trkpt lat="41.32836833" lon="1.94668667">
        <ele>404.0</ele>
        <time>2019-12-21T09:01:31.355Z</time>
      </trkpt>
      <trkpt lat="41.32825667" lon="1.94670333">
        <ele>404.0</ele>
        <time>2019-12-21T09:01:32.337Z</time>
      </trkpt>
      <trkpt lat="41.32825667" lon="1.94670333">
        <ele>404.0</ele>
        <time>2019-12-21T09:01:33.333Z</time>
      </trkpt>
      <trkpt lat="41.32814833" lon="1.94672667">
        <ele>404.0</ele>
        <time>2019-12-21T09:01:34.337Z</time>
      </trkpt>
      <trkpt lat="41.32809333" lon="1.94673833">
        <ele>405.0</ele>
        <time>2019-12-21T09:01:35.338Z</time>
      </trkpt>
      <trkpt lat="41.32809333" lon="1.94673833">
        <ele>405.0</ele>
        <time>2019-12-21T09:01:36.335Z</time>
      </trkpt>
      <trkpt lat="41.32798" lon="1.946745">
        <ele>404.0</ele>
        <time>2019-12-21T09:01:37.337Z</time>
      </trkpt>
      <trkpt lat="41.32798" lon="1.946745">
        <ele>404.0</ele>
        <time>2019-12-21T09:01:38.333Z</time>
      </trkpt>
      <trkpt lat="41.32786667" lon="1.94675333">
        <ele>404.0</ele>
        <time>2019-12-21T09:01:39.357Z</time>
      </trkpt>
      <trkpt lat="41.32786667" lon="1.94675333">
        <ele>404.0</ele>
        <time>2019-12-21T09:01:40.342Z</time>
      </trkpt>
      <trkpt lat="41.32775167" lon="1.94675167">
        <ele>403.0</ele>
        <time>2019-12-21T09:01:41.337Z</time>
      </trkpt>
      <trkpt lat="41.327695" lon="1.946745">
        <ele>402.0</ele>
        <time>2019-12-21T09:01:42.340Z</time>
      </trkpt>
      <trkpt lat="41.327695" lon="1.946745">
        <ele>402.0</ele>
        <time>2019-12-21T09:01:43.372Z</time>
      </trkpt>
      <trkpt lat="41.32757333" lon="1.94672167">
        <ele>402.0</ele>
        <time>2019-12-21T09:01:44.337Z</time>
      </trkpt>
      <trkpt lat="41.32757333" lon="1.94672167">
        <ele>402.0</ele>
        <time>2019-12-21T09:01:45.372Z</time>
      </trkpt>
      <trkpt lat="41.32744" lon="1.94667">
        <ele>403.0</ele>
        <time>2019-12-21T09:01:46.337Z</time>
      </trkpt>
      <trkpt lat="41.32744" lon="1.94667">
        <ele>403.0</ele>
        <time>2019-12-21T09:01:47.372Z</time>
      </trkpt>
      <trkpt lat="41.32731833" lon="1.94663">
        <ele>403.0</ele>
        <time>2019-12-21T09:01:48.355Z</time>
      </trkpt>
      <trkpt lat="41.32731833" lon="1.94663">
        <ele>403.0</ele>
        <time>2019-12-21T09:01:49.340Z</time>
      </trkpt>
      <trkpt lat="41.32720667" lon="1.94659333">
        <ele>403.0</ele>
        <time>2019-12-21T09:01:50.337Z</time>
      </trkpt>
      <trkpt lat="41.32720667" lon="1.94659333">
        <ele>403.0</ele>
        <time>2019-12-21T09:01:51.372Z</time>
      </trkpt>
      <trkpt lat="41.32713167" lon="1.94652">
        <ele>402.0</ele>
        <time>2019-12-21T09:01:52.337Z</time>
      </trkpt>
      <trkpt lat="41.32713167" lon="1.94652">
        <ele>402.0</ele>
        <time>2019-12-21T09:01:53.372Z</time>
      </trkpt>
      <trkpt lat="41.32710833" lon="1.9464">
        <ele>402.0</ele>
        <time>2019-12-21T09:01:54.348Z</time>
      </trkpt>
      <trkpt lat="41.32710833" lon="1.9464">
        <ele>402.0</ele>
        <time>2019-12-21T09:01:55.333Z</time>
      </trkpt>
      <trkpt lat="41.32708833" lon="1.94626667">
        <ele>402.0</ele>
        <time>2019-12-21T09:01:56.338Z</time>
      </trkpt>
      <trkpt lat="41.32708833" lon="1.94626667">
        <ele>402.0</ele>
        <time>2019-12-21T09:01:57.372Z</time>
      </trkpt>
      <trkpt lat="41.32709167" lon="1.946135">
        <ele>401.0</ele>
        <time>2019-12-21T09:01:58.337Z</time>
      </trkpt>
      <trkpt lat="41.32709167" lon="1.946135">
        <ele>401.0</ele>
        <time>2019-12-21T09:01:59.372Z</time>
      </trkpt>
      <trkpt lat="41.32712667" lon="1.94601333">
        <ele>401.0</ele>
        <time>2019-12-21T09:02:00.340Z</time>
      </trkpt>
      <trkpt lat="41.32712667" lon="1.94601333">
        <ele>401.0</ele>
        <time>2019-12-21T09:02:01.372Z</time>
      </trkpt>
      <trkpt lat="41.32716667" lon="1.94589667">
        <ele>401.0</ele>
        <time>2019-12-21T09:02:02.338Z</time>
      </trkpt>
      <trkpt lat="41.32716667" lon="1.94589667">
        <ele>401.0</ele>
        <time>2019-12-21T09:02:03.372Z</time>
      </trkpt>
      <trkpt lat="41.32720833" lon="1.94577833">
        <ele>401.0</ele>
        <time>2019-12-21T09:02:04.337Z</time>
      </trkpt>
      <trkpt lat="41.32720833" lon="1.94577833">
        <ele>401.0</ele>
        <time>2019-12-21T09:02:05.333Z</time>
      </trkpt>
      <trkpt lat="41.32725333" lon="1.94565167">
        <ele>401.0</ele>
        <time>2019-12-21T09:02:06.354Z</time>
      </trkpt>
      <trkpt lat="41.32725333" lon="1.94565167">
        <ele>401.0</ele>
        <time>2019-12-21T09:02:07.333Z</time>
      </trkpt>
      <trkpt lat="41.32730333" lon="1.94552333">
        <ele>400.0</ele>
        <time>2019-12-21T09:02:08.337Z</time>
      </trkpt>
      <trkpt lat="41.32730333" lon="1.94552333">
        <ele>400.0</ele>
        <time>2019-12-21T09:02:09.372Z</time>
      </trkpt>
      <trkpt lat="41.32735333" lon="1.94539">
        <ele>400.0</ele>
        <time>2019-12-21T09:02:10.357Z</time>
      </trkpt>
      <trkpt lat="41.32737667" lon="1.94532167">
        <ele>400.0</ele>
        <time>2019-12-21T09:02:11.337Z</time>
      </trkpt>
      <trkpt lat="41.32740167" lon="1.94525333">
        <ele>400.0</ele>
        <time>2019-12-21T09:02:12.339Z</time>
      </trkpt>
      <trkpt lat="41.32740167" lon="1.94525333">
        <ele>400.0</ele>
        <time>2019-12-21T09:02:13.370Z</time>
      </trkpt>
      <trkpt lat="41.32745" lon="1.94511667">
        <ele>400.0</ele>
        <time>2019-12-21T09:02:14.372Z</time>
      </trkpt>
      <trkpt lat="41.32745" lon="1.94511667">
        <ele>400.0</ele>
        <time>2019-12-21T09:02:15.349Z</time>
      </trkpt>
      <trkpt lat="41.32749667" lon="1.94497667">
        <ele>399.0</ele>
        <time>2019-12-21T09:02:16.338Z</time>
      </trkpt>
      <trkpt lat="41.32749667" lon="1.94497667">
        <ele>399.0</ele>
        <time>2019-12-21T09:02:17.372Z</time>
      </trkpt>
      <trkpt lat="41.327535" lon="1.94483167">
        <ele>398.0</ele>
        <time>2019-12-21T09:02:18.354Z</time>
      </trkpt>
      <trkpt lat="41.327535" lon="1.94483167">
        <ele>398.0</ele>
        <time>2019-12-21T09:02:19.349Z</time>
      </trkpt>
      <trkpt lat="41.32754" lon="1.94467667">
        <ele>397.0</ele>
        <time>2019-12-21T09:02:20.336Z</time>
      </trkpt>
      <trkpt lat="41.32754" lon="1.94467667">
        <ele>397.0</ele>
        <time>2019-12-21T09:02:21.333Z</time>
      </trkpt>
      <trkpt lat="41.327545" lon="1.94451333">
        <ele>396.0</ele>
        <time>2019-12-21T09:02:22.358Z</time>
      </trkpt>
      <trkpt lat="41.327545" lon="1.94451333">
        <ele>396.0</ele>
        <time>2019-12-21T09:02:23.339Z</time>
      </trkpt>
      <trkpt lat="41.32757167" lon="1.94434833">
        <ele>396.0</ele>
        <time>2019-12-21T09:02:24.340Z</time>
      </trkpt>
      <trkpt lat="41.32757167" lon="1.94434833">
        <ele>396.0</ele>
        <time>2019-12-21T09:02:25.333Z</time>
      </trkpt>
      <trkpt lat="41.32759833" lon="1.94417833">
        <ele>395.0</ele>
        <time>2019-12-21T09:02:26.338Z</time>
      </trkpt>
      <trkpt lat="41.32759833" lon="1.94417833">
        <ele>395.0</ele>
        <time>2019-12-21T09:02:27.372Z</time>
      </trkpt>
      <trkpt lat="41.32763" lon="1.94401333">
        <ele>394.0</ele>
        <time>2019-12-21T09:02:28.346Z</time>
      </trkpt>
      <trkpt lat="41.32763" lon="1.94401333">
        <ele>394.0</ele>
        <time>2019-12-21T09:02:29.373Z</time>
      </trkpt>
      <trkpt lat="41.32766167" lon="1.943855">
        <ele>394.0</ele>
        <time>2019-12-21T09:02:30.355Z</time>
      </trkpt>
      <trkpt lat="41.32766167" lon="1.943855">
        <ele>394.0</ele>
        <time>2019-12-21T09:02:31.338Z</time>
      </trkpt>
      <trkpt lat="41.32768667" lon="1.943705">
        <ele>393.0</ele>
        <time>2019-12-21T09:02:32.338Z</time>
      </trkpt>
      <trkpt lat="41.32768667" lon="1.943705">
        <ele>393.0</ele>
        <time>2019-12-21T09:02:33.333Z</time>
      </trkpt>
      <trkpt lat="41.327705" lon="1.94356667">
        <ele>393.0</ele>
        <time>2019-12-21T09:02:34.338Z</time>
      </trkpt>
      <trkpt lat="41.327705" lon="1.94356667">
        <ele>393.0</ele>
        <time>2019-12-21T09:02:35.333Z</time>
      </trkpt>
      <trkpt lat="41.32767833" lon="1.943485">
        <ele>392.0</ele>
        <time>2019-12-21T09:02:36.355Z</time>
      </trkpt>
      <trkpt lat="41.32767833" lon="1.943485">
        <ele>392.0</ele>
        <time>2019-12-21T09:02:37.373Z</time>
      </trkpt>
      <trkpt lat="41.32760167" lon="1.94345333">
        <ele>392.0</ele>
        <time>2019-12-21T09:02:38.338Z</time>
      </trkpt>
      <trkpt lat="41.32760167" lon="1.94345333">
        <ele>392.0</ele>
        <time>2019-12-21T09:02:39.372Z</time>
      </trkpt>
      <trkpt lat="41.32751833" lon="1.94343167">
        <ele>392.0</ele>
        <time>2019-12-21T09:02:40.358Z</time>
      </trkpt>
      <trkpt lat="41.32751833" lon="1.94343167">
        <ele>392.0</ele>
        <time>2019-12-21T09:02:41.341Z</time>
      </trkpt>
      <trkpt lat="41.32744" lon="1.9434">
        <ele>392.0</ele>
        <time>2019-12-21T09:02:42.339Z</time>
      </trkpt>
      <trkpt lat="41.32744" lon="1.9434">
        <ele>392.0</ele>
        <time>2019-12-21T09:02:43.333Z</time>
      </trkpt>
      <trkpt lat="41.32736667" lon="1.94336">
        <ele>392.0</ele>
        <time>2019-12-21T09:02:44.338Z</time>
      </trkpt>
      <trkpt lat="41.32736667" lon="1.94336">
        <ele>392.0</ele>
        <time>2019-12-21T09:02:45.370Z</time>
      </trkpt>
      <trkpt lat="41.32730167" lon="1.943315">
        <ele>392.0</ele>
        <time>2019-12-21T09:02:46.353Z</time>
      </trkpt>
      <trkpt lat="41.32730167" lon="1.943315">
        <ele>392.0</ele>
        <time>2019-12-21T09:02:47.335Z</time>
      </trkpt>
      <trkpt lat="41.327245" lon="1.94327667">
        <ele>392.0</ele>
        <time>2019-12-21T09:02:48.340Z</time>
      </trkpt>
      <trkpt lat="41.327245" lon="1.94327667">
        <ele>392.0</ele>
        <time>2019-12-21T09:02:49.373Z</time>
      </trkpt>
      <trkpt lat="41.32718833" lon="1.94324333">
        <ele>392.0</ele>
        <time>2019-12-21T09:02:50.357Z</time>
      </trkpt>
      <trkpt lat="41.32718833" lon="1.94324333">
        <ele>392.0</ele>
        <time>2019-12-21T09:02:51.341Z</time>
      </trkpt>
      <trkpt lat="41.32714667" lon="1.94318833">
        <ele>392.0</ele>
        <time>2019-12-21T09:02:52.338Z</time>
      </trkpt>
      <trkpt lat="41.32712833" lon="1.94316167">
        <ele>392.0</ele>
        <time>2019-12-21T09:02:53.338Z</time>
      </trkpt>
      <trkpt lat="41.32710833" lon="1.94313667">
        <ele>392.0</ele>
        <time>2019-12-21T09:02:54.340Z</time>
      </trkpt>
      <trkpt lat="41.32710833" lon="1.94313667">
        <ele>392.0</ele>
        <time>2019-12-21T09:02:55.334Z</time>
      </trkpt>
      <trkpt lat="41.32708" lon="1.94307333">
        <ele>392.0</ele>
        <time>2019-12-21T09:02:56.338Z</time>
      </trkpt>
      <trkpt lat="41.32708" lon="1.94307333">
        <ele>392.0</ele>
        <time>2019-12-21T09:02:57.333Z</time>
      </trkpt>
      <trkpt lat="41.32704667" lon="1.94300667">
        <ele>392.0</ele>
        <time>2019-12-21T09:02:58.338Z</time>
      </trkpt>
      <trkpt lat="41.32704667" lon="1.94300667">
        <ele>392.0</ele>
        <time>2019-12-21T09:02:59.333Z</time>
      </trkpt>
      <trkpt lat="41.32701333" lon="1.94294167">
        <ele>392.0</ele>
        <time>2019-12-21T09:03:00.355Z</time>
      </trkpt>
      <trkpt lat="41.32701333" lon="1.94294167">
        <ele>392.0</ele>
        <time>2019-12-21T09:03:01.333Z</time>
      </trkpt>
      <trkpt lat="41.32697833" lon="1.94287333">
        <ele>393.0</ele>
        <time>2019-12-21T09:03:02.349Z</time>
      </trkpt>
      <trkpt lat="41.32696167" lon="1.94283833">
        <ele>393.0</ele>
        <time>2019-12-21T09:03:03.336Z</time>
      </trkpt>
      <trkpt lat="41.32696167" lon="1.94283833">
        <ele>393.0</ele>
        <time>2019-12-21T09:03:04.333Z</time>
      </trkpt>
      <trkpt lat="41.32693167" lon="1.94276833">
        <ele>393.0</ele>
        <time>2019-12-21T09:03:05.358Z</time>
      </trkpt>
      <trkpt lat="41.32691667" lon="1.94273">
        <ele>394.0</ele>
        <time>2019-12-21T09:03:06.342Z</time>
      </trkpt>
      <trkpt lat="41.32691667" lon="1.94273">
        <ele>394.0</ele>
        <time>2019-12-21T09:03:07.336Z</time>
      </trkpt>
      <trkpt lat="41.32685833" lon="1.94265333">
        <ele>394.0</ele>
        <time>2019-12-21T09:03:08.338Z</time>
      </trkpt>
      <trkpt lat="41.32685833" lon="1.94265333">
        <ele>394.0</ele>
        <time>2019-12-21T09:03:09.333Z</time>
      </trkpt>
      <trkpt lat="41.32679333" lon="1.94258">
        <ele>394.0</ele>
        <time>2019-12-21T09:03:10.358Z</time>
      </trkpt>
      <trkpt lat="41.32675333" lon="1.942545">
        <ele>394.0</ele>
        <time>2019-12-21T09:03:11.342Z</time>
      </trkpt>
      <trkpt lat="41.32675333" lon="1.942545">
        <ele>394.0</ele>
        <time>2019-12-21T09:03:12.370Z</time>
      </trkpt>
      <trkpt lat="41.32667833" lon="1.94246833">
        <ele>394.0</ele>
        <time>2019-12-21T09:03:13.358Z</time>
      </trkpt>
      <trkpt lat="41.32667833" lon="1.94246833">
        <ele>394.0</ele>
        <time>2019-12-21T09:03:14.335Z</time>
      </trkpt>
      <trkpt lat="41.32661333" lon="1.94238667">
        <ele>394.0</ele>
        <time>2019-12-21T09:03:15.358Z</time>
      </trkpt>
      <trkpt lat="41.32659167" lon="1.94234">
        <ele>394.0</ele>
        <time>2019-12-21T09:03:16.343Z</time>
      </trkpt>
      <trkpt lat="41.32659167" lon="1.94234">
        <ele>394.0</ele>
        <time>2019-12-21T09:03:17.371Z</time>
      </trkpt>
      <trkpt lat="41.32656333" lon="1.94222167">
        <ele>394.0</ele>
        <time>2019-12-21T09:03:18.340Z</time>
      </trkpt>
      <trkpt lat="41.32656333" lon="1.94222167">
        <ele>394.0</ele>
        <time>2019-12-21T09:03:19.333Z</time>
      </trkpt>
      <trkpt lat="41.32658167" lon="1.94210667">
        <ele>394.0</ele>
        <time>2019-12-21T09:03:20.338Z</time>
      </trkpt>
      <trkpt lat="41.32658167" lon="1.94210667">
        <ele>394.0</ele>
        <time>2019-12-21T09:03:21.333Z</time>
      </trkpt>
      <trkpt lat="41.32658667" lon="1.94200167">
        <ele>393.0</ele>
        <time>2019-12-21T09:03:22.357Z</time>
      </trkpt>
      <trkpt lat="41.32659167" lon="1.94194667">
        <ele>393.0</ele>
        <time>2019-12-21T09:03:23.345Z</time>
      </trkpt>
      <trkpt lat="41.32660667" lon="1.9419">
        <ele>392.0</ele>
        <time>2019-12-21T09:03:24.337Z</time>
      </trkpt>
      <trkpt lat="41.32660667" lon="1.9419">
        <ele>392.0</ele>
        <time>2019-12-21T09:03:25.357Z</time>
      </trkpt>
      <trkpt lat="41.32662667" lon="1.94181667">
        <ele>392.0</ele>
        <time>2019-12-21T09:03:26.340Z</time>
      </trkpt>
      <trkpt lat="41.32662833" lon="1.94177833">
        <ele>391.0</ele>
        <time>2019-12-21T09:03:27.339Z</time>
      </trkpt>
      <trkpt lat="41.32662833" lon="1.94177833">
        <ele>391.0</ele>
        <time>2019-12-21T09:03:28.334Z</time>
      </trkpt>
      <trkpt lat="41.32661333" lon="1.941685">
        <ele>391.0</ele>
        <time>2019-12-21T09:03:29.338Z</time>
      </trkpt>
      <trkpt lat="41.32661667" lon="1.94164667">
        <ele>391.0</ele>
        <time>2019-12-21T09:03:30.340Z</time>
      </trkpt>
      <trkpt lat="41.32661667" lon="1.94164667">
        <ele>391.0</ele>
        <time>2019-12-21T09:03:31.333Z</time>
      </trkpt>
      <trkpt lat="41.326625" lon="1.94157333">
        <ele>391.0</ele>
        <time>2019-12-21T09:03:32.361Z</time>
      </trkpt>
      <trkpt lat="41.326625" lon="1.94157333">
        <ele>391.0</ele>
        <time>2019-12-21T09:03:33.339Z</time>
      </trkpt>
      <trkpt lat="41.32662833" lon="1.94148333">
        <ele>391.0</ele>
        <time>2019-12-21T09:03:34.338Z</time>
      </trkpt>
      <trkpt lat="41.32662833" lon="1.94148333">
        <ele>391.0</ele>
        <time>2019-12-21T09:03:35.373Z</time>
      </trkpt>
      <trkpt lat="41.326625" lon="1.94139833">
        <ele>391.0</ele>
        <time>2019-12-21T09:03:36.355Z</time>
      </trkpt>
      <trkpt lat="41.326625" lon="1.94139833">
        <ele>391.0</ele>
        <time>2019-12-21T09:03:37.333Z</time>
      </trkpt>
      <trkpt lat="41.32663" lon="1.94134833">
        <ele>391.0</ele>
        <time>2019-12-21T09:03:38.338Z</time>
      </trkpt>
      <trkpt lat="41.32663" lon="1.94134833">
        <ele>391.0</ele>
        <time>2019-12-21T09:03:39.333Z</time>
      </trkpt>
      <trkpt lat="41.32662833" lon="1.94132333">
        <ele>391.0</ele>
        <time>2019-12-21T09:03:40.358Z</time>
      </trkpt>
      <trkpt lat="41.32662833" lon="1.94132333">
        <ele>391.0</ele>
        <time>2019-12-21T09:03:41.343Z</time>
      </trkpt>
      <trkpt lat="41.32662667" lon="1.94129667">
        <ele>392.0</ele>
        <time>2019-12-21T09:03:42.340Z</time>
      </trkpt>
      <trkpt lat="41.32662667" lon="1.94129667">
        <ele>392.0</ele>
        <time>2019-12-21T09:03:43.333Z</time>
      </trkpt>
      <trkpt lat="41.326615" lon="1.941255">
        <ele>392.0</ele>
        <time>2019-12-21T09:03:44.338Z</time>
      </trkpt>
      <trkpt lat="41.32661667" lon="1.94122667">
        <ele>392.0</ele>
        <time>2019-12-21T09:03:45.340Z</time>
      </trkpt>
      <trkpt lat="41.32661667" lon="1.94122667">
        <ele>392.0</ele>
        <time>2019-12-21T09:03:46.333Z</time>
      </trkpt>
      <trkpt lat="41.32662333" lon="1.94118">
        <ele>393.0</ele>
        <time>2019-12-21T09:03:47.338Z</time>
      </trkpt>
      <trkpt lat="41.32662167" lon="1.941165">
        <ele>393.0</ele>
        <time>2019-12-21T09:03:48.340Z</time>
      </trkpt>
      <trkpt lat="41.32662167" lon="1.941165">
        <ele>393.0</ele>
        <time>2019-12-21T09:03:49.371Z</time>
      </trkpt>
      <trkpt lat="41.326625" lon="1.94113167">
        <ele>393.0</ele>
        <time>2019-12-21T09:03:50.338Z</time>
      </trkpt>
      <trkpt lat="41.326625" lon="1.94113167">
        <ele>393.0</ele>
        <time>2019-12-21T09:03:51.333Z</time>
      </trkpt>
      <trkpt lat="41.32662" lon="1.94108167">
        <ele>393.0</ele>
        <time>2019-12-21T09:03:52.338Z</time>
      </trkpt>
      <trkpt lat="41.32661167" lon="1.94106167">
        <ele>393.0</ele>
        <time>2019-12-21T09:03:53.339Z</time>
      </trkpt>
      <trkpt lat="41.326605" lon="1.941045">
        <ele>394.0</ele>
        <time>2019-12-21T09:03:54.341Z</time>
      </trkpt>
      <trkpt lat="41.326605" lon="1.941045">
        <ele>394.0</ele>
        <time>2019-12-21T09:03:55.337Z</time>
      </trkpt>
      <trkpt lat="41.32660333" lon="1.94099167">
        <ele>394.0</ele>
        <time>2019-12-21T09:03:56.338Z</time>
      </trkpt>
      <trkpt lat="41.32660333" lon="1.94099167">
        <ele>394.0</ele>
        <time>2019-12-21T09:03:57.333Z</time>
      </trkpt>
      <trkpt lat="41.32659833" lon="1.94096">
        <ele>394.0</ele>
        <time>2019-12-21T09:03:58.336Z</time>
      </trkpt>
      <trkpt lat="41.32659833" lon="1.94096">
        <ele>394.0</ele>
        <time>2019-12-21T09:03:59.336Z</time>
      </trkpt>
      <trkpt lat="41.32660667" lon="1.94091667">
        <ele>394.0</ele>
        <time>2019-12-21T09:04:00.360Z</time>
      </trkpt>
      <trkpt lat="41.32660667" lon="1.94091667">
        <ele>394.0</ele>
        <time>2019-12-21T09:04:01.353Z</time>
      </trkpt>
      <trkpt lat="41.32661" lon="1.94086">
        <ele>393.0</ele>
        <time>2019-12-21T09:04:02.339Z</time>
      </trkpt>
      <trkpt lat="41.32661" lon="1.94086">
        <ele>393.0</ele>
        <time>2019-12-21T09:04:03.333Z</time>
      </trkpt>
      <trkpt lat="41.32661333" lon="1.94076833">
        <ele>393.0</ele>
        <time>2019-12-21T09:04:04.356Z</time>
      </trkpt>
      <trkpt lat="41.32661333" lon="1.94076833">
        <ele>393.0</ele>
        <time>2019-12-21T09:04:05.340Z</time>
      </trkpt>
      <trkpt lat="41.32661667" lon="1.94068167">
        <ele>392.0</ele>
        <time>2019-12-21T09:04:06.340Z</time>
      </trkpt>
      <trkpt lat="41.32661667" lon="1.94068167">
        <ele>392.0</ele>
        <time>2019-12-21T09:04:07.333Z</time>
      </trkpt>
      <trkpt lat="41.32663833" lon="1.94059833">
        <ele>392.0</ele>
        <time>2019-12-21T09:04:08.355Z</time>
      </trkpt>
      <trkpt lat="41.32663833" lon="1.94059833">
        <ele>392.0</ele>
        <time>2019-12-21T09:04:09.345Z</time>
      </trkpt>
      <trkpt lat="41.326665" lon="1.94052167">
        <ele>391.0</ele>
        <time>2019-12-21T09:04:10.338Z</time>
      </trkpt>
      <trkpt lat="41.326665" lon="1.94052167">
        <ele>391.0</ele>
        <time>2019-12-21T09:04:11.333Z</time>
      </trkpt>
      <trkpt lat="41.32669667" lon="1.94045">
        <ele>391.0</ele>
        <time>2019-12-21T09:04:12.355Z</time>
      </trkpt>
      <trkpt lat="41.32669667" lon="1.94045">
        <ele>391.0</ele>
        <time>2019-12-21T09:04:13.333Z</time>
      </trkpt>
      <trkpt lat="41.32674667" lon="1.94038667">
        <ele>391.0</ele>
        <time>2019-12-21T09:04:14.338Z</time>
      </trkpt>
      <trkpt lat="41.32674667" lon="1.94038667">
        <ele>391.0</ele>
        <time>2019-12-21T09:04:15.333Z</time>
      </trkpt>
      <trkpt lat="41.32680167" lon="1.94030667">
        <ele>390.0</ele>
        <time>2019-12-21T09:04:16.335Z</time>
      </trkpt>
      <trkpt lat="41.32680167" lon="1.94030667">
        <ele>390.0</ele>
        <time>2019-12-21T09:04:17.333Z</time>
      </trkpt>
      <trkpt lat="41.32686167" lon="1.94022667">
        <ele>389.0</ele>
        <time>2019-12-21T09:04:18.340Z</time>
      </trkpt>
      <trkpt lat="41.32686167" lon="1.94022667">
        <ele>389.0</ele>
        <time>2019-12-21T09:04:19.333Z</time>
      </trkpt>
      <trkpt lat="41.32693333" lon="1.94013333">
        <ele>389.0</ele>
        <time>2019-12-21T09:04:20.371Z</time>
      </trkpt>
      <trkpt lat="41.32693333" lon="1.94013333">
        <ele>389.0</ele>
        <time>2019-12-21T09:04:21.371Z</time>
      </trkpt>
      <trkpt lat="41.326985" lon="1.940025">
        <ele>388.0</ele>
        <time>2019-12-21T09:04:22.353Z</time>
      </trkpt>
      <trkpt lat="41.326985" lon="1.940025">
        <ele>388.0</ele>
        <time>2019-12-21T09:04:23.337Z</time>
      </trkpt>
      <trkpt lat="41.32703833" lon="1.939925">
        <ele>388.0</ele>
        <time>2019-12-21T09:04:24.341Z</time>
      </trkpt>
      <trkpt lat="41.32703833" lon="1.939925">
        <ele>388.0</ele>
        <time>2019-12-21T09:04:25.334Z</time>
      </trkpt>
      <trkpt lat="41.32707167" lon="1.93983">
        <ele>387.0</ele>
        <time>2019-12-21T09:04:26.338Z</time>
      </trkpt>
      <trkpt lat="41.32707167" lon="1.93983">
        <ele>387.0</ele>
        <time>2019-12-21T09:04:27.352Z</time>
      </trkpt>
      <trkpt lat="41.32709" lon="1.93973667">
        <ele>387.0</ele>
        <time>2019-12-21T09:04:28.338Z</time>
      </trkpt>
      <trkpt lat="41.32709" lon="1.93973667">
        <ele>387.0</ele>
        <time>2019-12-21T09:04:29.333Z</time>
      </trkpt>
      <trkpt lat="41.32711" lon="1.93965167">
        <ele>386.0</ele>
        <time>2019-12-21T09:04:30.356Z</time>
      </trkpt>
      <trkpt lat="41.32711" lon="1.93965167">
        <ele>386.0</ele>
        <time>2019-12-21T09:04:31.340Z</time>
      </trkpt>
      <trkpt lat="41.32712" lon="1.93959667">
        <ele>386.0</ele>
        <time>2019-12-21T09:04:32.339Z</time>
      </trkpt>
      <trkpt lat="41.32712" lon="1.93959667">
        <ele>386.0</ele>
        <time>2019-12-21T09:04:33.333Z</time>
      </trkpt>
      <trkpt lat="41.32710333" lon="1.939565">
        <ele>386.0</ele>
        <time>2019-12-21T09:04:34.338Z</time>
      </trkpt>
      <trkpt lat="41.32710333" lon="1.939565">
        <ele>386.0</ele>
        <time>2019-12-21T09:04:35.333Z</time>
      </trkpt>
      <trkpt lat="41.32711" lon="1.93953167">
        <ele>386.0</ele>
        <time>2019-12-21T09:04:36.355Z</time>
      </trkpt>
      <trkpt lat="41.32711" lon="1.93953167">
        <ele>386.0</ele>
        <time>2019-12-21T09:04:37.337Z</time>
      </trkpt>
      <trkpt lat="41.32711" lon="1.93948667">
        <ele>386.0</ele>
        <time>2019-12-21T09:04:38.338Z</time>
      </trkpt>
      <trkpt lat="41.32711" lon="1.93948667">
        <ele>386.0</ele>
        <time>2019-12-21T09:04:39.334Z</time>
      </trkpt>
      <trkpt lat="41.32711833" lon="1.93943167">
        <ele>386.0</ele>
        <time>2019-12-21T09:04:40.339Z</time>
      </trkpt>
      <trkpt lat="41.32711833" lon="1.93943167">
        <ele>386.0</ele>
        <time>2019-12-21T09:04:41.333Z</time>
      </trkpt>
      <trkpt lat="41.32713333" lon="1.93938667">
        <ele>386.0</ele>
        <time>2019-12-21T09:04:42.355Z</time>
      </trkpt>
      <trkpt lat="41.32713333" lon="1.93938667">
        <ele>386.0</ele>
        <time>2019-12-21T09:04:43.339Z</time>
      </trkpt>
      <trkpt lat="41.32715833" lon="1.93935333">
        <ele>387.0</ele>
        <time>2019-12-21T09:04:44.338Z</time>
      </trkpt>
      <trkpt lat="41.32715833" lon="1.93935333">
        <ele>387.0</ele>
        <time>2019-12-21T09:04:45.334Z</time>
      </trkpt>
      <trkpt lat="41.327185" lon="1.93932833">
        <ele>387.0</ele>
        <time>2019-12-21T09:04:46.355Z</time>
      </trkpt>
      <trkpt lat="41.327185" lon="1.93932833">
        <ele>387.0</ele>
        <time>2019-12-21T09:04:47.340Z</time>
      </trkpt>
      <trkpt lat="41.327225" lon="1.93931">
        <ele>387.0</ele>
        <time>2019-12-21T09:04:48.340Z</time>
      </trkpt>
      <trkpt lat="41.327225" lon="1.93931">
        <ele>387.0</ele>
        <time>2019-12-21T09:04:49.361Z</time>
      </trkpt>
      <trkpt lat="41.32726333" lon="1.93928833">
        <ele>387.0</ele>
        <time>2019-12-21T09:04:50.346Z</time>
      </trkpt>
      <trkpt lat="41.32726333" lon="1.93928833">
        <ele>387.0</ele>
        <time>2019-12-21T09:04:51.334Z</time>
      </trkpt>
      <trkpt lat="41.32727833" lon="1.93925">
        <ele>388.0</ele>
        <time>2019-12-21T09:04:52.338Z</time>
      </trkpt>
      <trkpt lat="41.32727833" lon="1.93925">
        <ele>388.0</ele>
        <time>2019-12-21T09:04:53.371Z</time>
      </trkpt>
      <trkpt lat="41.32727333" lon="1.939225">
        <ele>388.0</ele>
        <time>2019-12-21T09:04:54.354Z</time>
      </trkpt>
      <trkpt lat="41.32727333" lon="1.939225">
        <ele>388.0</ele>
        <time>2019-12-21T09:04:55.353Z</time>
      </trkpt>
      <trkpt lat="41.32727167" lon="1.939225">
        <ele>387.0</ele>
        <time>2019-12-21T09:04:56.338Z</time>
      </trkpt>
      <trkpt lat="41.32727167" lon="1.939225">
        <ele>387.0</ele>
        <time>2019-12-21T09:04:57.359Z</time>
      </trkpt>
      <trkpt lat="41.32727167" lon="1.939225">
        <ele>387.0</ele>
        <time>2019-12-21T09:04:58.350Z</time>
      </trkpt>
      <trkpt lat="41.32732833" lon="1.93920167">
        <ele>386.0</ele>
        <time>2019-12-21T09:04:59.356Z</time>
      </trkpt>
      <trkpt lat="41.32732833" lon="1.93920167">
        <ele>386.0</ele>
        <time>2019-12-21T09:05:00.348Z</time>
      </trkpt>
      <trkpt lat="41.327355" lon="1.93922">
        <ele>386.0</ele>
        <time>2019-12-21T09:05:01.353Z</time>
      </trkpt>
      <trkpt lat="41.327355" lon="1.93922">
        <ele>386.0</ele>
        <time>2019-12-21T09:05:02.348Z</time>
      </trkpt>
      <trkpt lat="41.32737667" lon="1.93922667">
        <ele>387.0</ele>
        <time>2019-12-21T09:05:03.353Z</time>
      </trkpt>
      <trkpt lat="41.32737667" lon="1.93922667">
        <ele>387.0</ele>
        <time>2019-12-21T09:05:04.348Z</time>
      </trkpt>
      <trkpt lat="41.32740333" lon="1.93922167">
        <ele>387.0</ele>
        <time>2019-12-21T09:05:05.371Z</time>
      </trkpt>
      <trkpt lat="41.32740333" lon="1.93922167">
        <ele>387.0</ele>
        <time>2019-12-21T09:05:06.353Z</time>
      </trkpt>
      <trkpt lat="41.32743" lon="1.93917667">
        <ele>387.0</ele>
        <time>2019-12-21T09:05:07.353Z</time>
      </trkpt>
      <trkpt lat="41.32743" lon="1.93917667">
        <ele>387.0</ele>
        <time>2019-12-21T09:05:08.348Z</time>
      </trkpt>
      <trkpt lat="41.32746333" lon="1.93913167">
        <ele>387.0</ele>
        <time>2019-12-21T09:05:09.353Z</time>
      </trkpt>
      <trkpt lat="41.32746333" lon="1.93913167">
        <ele>387.0</ele>
        <time>2019-12-21T09:05:10.351Z</time>
      </trkpt>
      <trkpt lat="41.32747333" lon="1.93908167">
        <ele>386.0</ele>
        <time>2019-12-21T09:05:11.356Z</time>
      </trkpt>
      <trkpt lat="41.32747333" lon="1.93908167">
        <ele>386.0</ele>
        <time>2019-12-21T09:05:12.353Z</time>
      </trkpt>
      <trkpt lat="41.327485" lon="1.93903333">
        <ele>386.0</ele>
        <time>2019-12-21T09:05:13.354Z</time>
      </trkpt>
      <trkpt lat="41.327485" lon="1.93903333">
        <ele>386.0</ele>
        <time>2019-12-21T09:05:14.348Z</time>
      </trkpt>
      <trkpt lat="41.32748667" lon="1.93900167">
        <ele>387.0</ele>
        <time>2019-12-21T09:05:15.369Z</time>
      </trkpt>
      <trkpt lat="41.32748667" lon="1.93900167">
        <ele>387.0</ele>
        <time>2019-12-21T09:05:16.351Z</time>
      </trkpt>
      <trkpt lat="41.32748833" lon="1.93897">
        <ele>387.0</ele>
        <time>2019-12-21T09:05:17.355Z</time>
      </trkpt>
      <trkpt lat="41.32748833" lon="1.93897">
        <ele>387.0</ele>
        <time>2019-12-21T09:05:18.346Z</time>
      </trkpt>
      <trkpt lat="41.32750667" lon="1.93890833">
        <ele>387.0</ele>
        <time>2019-12-21T09:05:19.367Z</time>
      </trkpt>
      <trkpt lat="41.32750667" lon="1.93890833">
        <ele>387.0</ele>
        <time>2019-12-21T09:05:20.351Z</time>
      </trkpt>
      <trkpt lat="41.32752" lon="1.93883667">
        <ele>387.0</ele>
        <time>2019-12-21T09:05:21.369Z</time>
      </trkpt>
      <trkpt lat="41.32752" lon="1.93883667">
        <ele>387.0</ele>
        <time>2019-12-21T09:05:22.367Z</time>
      </trkpt>
      <trkpt lat="41.32752" lon="1.93873667">
        <ele>387.0</ele>
        <time>2019-12-21T09:05:23.356Z</time>
      </trkpt>
      <trkpt lat="41.32752" lon="1.93873667">
        <ele>387.0</ele>
        <time>2019-12-21T09:05:24.348Z</time>
      </trkpt>
      <trkpt lat="41.327525" lon="1.93865167">
        <ele>387.0</ele>
        <time>2019-12-21T09:05:25.354Z</time>
      </trkpt>
      <trkpt lat="41.327525" lon="1.93865167">
        <ele>387.0</ele>
        <time>2019-12-21T09:05:26.352Z</time>
      </trkpt>
      <trkpt lat="41.327525" lon="1.93858167">
        <ele>387.0</ele>
        <time>2019-12-21T09:05:27.355Z</time>
      </trkpt>
      <trkpt lat="41.327525" lon="1.93858167">
        <ele>387.0</ele>
        <time>2019-12-21T09:05:28.350Z</time>
      </trkpt>
      <trkpt lat="41.32753167" lon="1.93851167">
        <ele>387.0</ele>
        <time>2019-12-21T09:05:29.356Z</time>
      </trkpt>
      <trkpt lat="41.32753167" lon="1.93851167">
        <ele>387.0</ele>
        <time>2019-12-21T09:05:30.350Z</time>
      </trkpt>
      <trkpt lat="41.32753" lon="1.93843">
        <ele>387.0</ele>
        <time>2019-12-21T09:05:31.354Z</time>
      </trkpt>
      <trkpt lat="41.32753" lon="1.93843">
        <ele>387.0</ele>
        <time>2019-12-21T09:05:32.350Z</time>
      </trkpt>
      <trkpt lat="41.32754667" lon="1.93834833">
        <ele>388.0</ele>
        <time>2019-12-21T09:05:33.354Z</time>
      </trkpt>
      <trkpt lat="41.32754667" lon="1.93834833">
        <ele>388.0</ele>
        <time>2019-12-21T09:05:34.350Z</time>
      </trkpt>
      <trkpt lat="41.32754667" lon="1.938275">
        <ele>388.0</ele>
        <time>2019-12-21T09:05:35.372Z</time>
      </trkpt>
      <trkpt lat="41.32754667" lon="1.938275">
        <ele>388.0</ele>
        <time>2019-12-21T09:05:36.353Z</time>
      </trkpt>
      <trkpt lat="41.32754333" lon="1.938215">
        <ele>389.0</ele>
        <time>2019-12-21T09:05:37.354Z</time>
      </trkpt>
      <trkpt lat="41.32754333" lon="1.938215">
        <ele>389.0</ele>
        <time>2019-12-21T09:05:38.348Z</time>
      </trkpt>
      <trkpt lat="41.32753333" lon="1.93813167">
        <ele>389.0</ele>
        <time>2019-12-21T09:05:39.370Z</time>
      </trkpt>
      <trkpt lat="41.32753333" lon="1.93813167">
        <ele>389.0</ele>
        <time>2019-12-21T09:05:40.352Z</time>
      </trkpt>
      <trkpt lat="41.32749833" lon="1.93805333">
        <ele>390.0</ele>
        <time>2019-12-21T09:05:41.356Z</time>
      </trkpt>
      <trkpt lat="41.32749833" lon="1.93805333">
        <ele>390.0</ele>
        <time>2019-12-21T09:05:42.351Z</time>
      </trkpt>
      <trkpt lat="41.327435" lon="1.93796333">
        <ele>390.0</ele>
        <time>2019-12-21T09:05:43.354Z</time>
      </trkpt>
      <trkpt lat="41.327435" lon="1.93796333">
        <ele>390.0</ele>
        <time>2019-12-21T09:05:44.350Z</time>
      </trkpt>
      <trkpt lat="41.3274" lon="1.93788167">
        <ele>391.0</ele>
        <time>2019-12-21T09:05:45.354Z</time>
      </trkpt>
      <trkpt lat="41.3274" lon="1.93788167">
        <ele>391.0</ele>
        <time>2019-12-21T09:05:46.348Z</time>
      </trkpt>
      <trkpt lat="41.32738667" lon="1.93781167">
        <ele>391.0</ele>
        <time>2019-12-21T09:05:47.372Z</time>
      </trkpt>
      <trkpt lat="41.32738667" lon="1.93781167">
        <ele>391.0</ele>
        <time>2019-12-21T09:05:48.353Z</time>
      </trkpt>
      <trkpt lat="41.32736833" lon="1.93775333">
        <ele>392.0</ele>
        <time>2019-12-21T09:05:49.354Z</time>
      </trkpt>
      <trkpt lat="41.32736833" lon="1.93775333">
        <ele>392.0</ele>
        <time>2019-12-21T09:05:50.346Z</time>
      </trkpt>
      <trkpt lat="41.32734167" lon="1.93768333">
        <ele>392.0</ele>
        <time>2019-12-21T09:05:51.370Z</time>
      </trkpt>
      <trkpt lat="41.32734167" lon="1.93768333">
        <ele>392.0</ele>
        <time>2019-12-21T09:05:52.350Z</time>
      </trkpt>
      <trkpt lat="41.32732667" lon="1.93761667">
        <ele>393.0</ele>
        <time>2019-12-21T09:05:53.372Z</time>
      </trkpt>
      <trkpt lat="41.32732667" lon="1.93761667">
        <ele>393.0</ele>
        <time>2019-12-21T09:05:54.372Z</time>
      </trkpt>
      <trkpt lat="41.327325" lon="1.93757">
        <ele>393.0</ele>
        <time>2019-12-21T09:05:55.365Z</time>
      </trkpt>
      <trkpt lat="41.327315" lon="1.93754667">
        <ele>393.0</ele>
        <time>2019-12-21T09:05:56.371Z</time>
      </trkpt>
      <trkpt lat="41.327315" lon="1.93754667">
        <ele>393.0</ele>
        <time>2019-12-21T09:05:57.345Z</time>
      </trkpt>
      <trkpt lat="41.32731333" lon="1.9375">
        <ele>393.0</ele>
        <time>2019-12-21T09:05:58.367Z</time>
      </trkpt>
      <trkpt lat="41.32732333" lon="1.93747">
        <ele>392.0</ele>
        <time>2019-12-21T09:05:59.358Z</time>
      </trkpt>
      <trkpt lat="41.32732333" lon="1.93747">
        <ele>392.0</ele>
        <time>2019-12-21T09:06:00.360Z</time>
      </trkpt>
      <trkpt lat="41.32733333" lon="1.93740667">
        <ele>392.0</ele>
        <time>2019-12-21T09:06:01.354Z</time>
      </trkpt>
      <trkpt lat="41.32733333" lon="1.93740667">
        <ele>392.0</ele>
        <time>2019-12-21T09:06:02.350Z</time>
      </trkpt>
      <trkpt lat="41.32734833" lon="1.93735">
        <ele>392.0</ele>
        <time>2019-12-21T09:06:03.354Z</time>
      </trkpt>
      <trkpt lat="41.32734833" lon="1.93735">
        <ele>392.0</ele>
        <time>2019-12-21T09:06:04.350Z</time>
      </trkpt>
      <trkpt lat="41.32736" lon="1.93729833">
        <ele>391.0</ele>
        <time>2019-12-21T09:06:05.372Z</time>
      </trkpt>
      <trkpt lat="41.32736" lon="1.93729833">
        <ele>391.0</ele>
        <time>2019-12-21T09:06:06.355Z</time>
      </trkpt>
      <trkpt lat="41.32738833" lon="1.93723167">
        <ele>390.0</ele>
        <time>2019-12-21T09:06:07.353Z</time>
      </trkpt>
      <trkpt lat="41.32738833" lon="1.93723167">
        <ele>390.0</ele>
        <time>2019-12-21T09:06:08.350Z</time>
      </trkpt>
      <trkpt lat="41.32741" lon="1.93713167">
        <ele>390.0</ele>
        <time>2019-12-21T09:06:09.351Z</time>
      </trkpt>
      <trkpt lat="41.32741" lon="1.93713167">
        <ele>390.0</ele>
        <time>2019-12-21T09:06:10.365Z</time>
      </trkpt>
      <trkpt lat="41.32743667" lon="1.93701333">
        <ele>389.0</ele>
        <time>2019-12-21T09:06:11.356Z</time>
      </trkpt>
      <trkpt lat="41.32743667" lon="1.93701333">
        <ele>389.0</ele>
        <time>2019-12-21T09:06:12.350Z</time>
      </trkpt>
      <trkpt lat="41.32747833" lon="1.93687667">
        <ele>388.0</ele>
        <time>2019-12-21T09:06:13.334Z</time>
      </trkpt>
      <trkpt lat="41.32747833" lon="1.93687667">
        <ele>388.0</ele>
        <time>2019-12-21T09:06:14.356Z</time>
      </trkpt>
      <trkpt lat="41.32751833" lon="1.93671833">
        <ele>386.0</ele>
        <time>2019-12-21T09:06:15.355Z</time>
      </trkpt>
      <trkpt lat="41.32751833" lon="1.93671833">
        <ele>386.0</ele>
        <time>2019-12-21T09:06:16.350Z</time>
      </trkpt>
      <trkpt lat="41.32755667" lon="1.936555">
        <ele>386.0</ele>
        <time>2019-12-21T09:06:17.372Z</time>
      </trkpt>
      <trkpt lat="41.32755667" lon="1.936555">
        <ele>386.0</ele>
        <time>2019-12-21T09:06:18.370Z</time>
      </trkpt>
      <trkpt lat="41.32760167" lon="1.93639">
        <ele>384.0</ele>
        <time>2019-12-21T09:06:19.356Z</time>
      </trkpt>
      <trkpt lat="41.32760167" lon="1.93639">
        <ele>384.0</ele>
        <time>2019-12-21T09:06:20.350Z</time>
      </trkpt>
      <trkpt lat="41.32764833" lon="1.93622833">
        <ele>383.0</ele>
        <time>2019-12-21T09:06:21.364Z</time>
      </trkpt>
      <trkpt lat="41.32764833" lon="1.93622833">
        <ele>383.0</ele>
        <time>2019-12-21T09:06:22.347Z</time>
      </trkpt>
      <trkpt lat="41.32769333" lon="1.93606333">
        <ele>382.0</ele>
        <time>2019-12-21T09:06:23.369Z</time>
      </trkpt>
      <trkpt lat="41.32769333" lon="1.93606333">
        <ele>382.0</ele>
        <time>2019-12-21T09:06:24.350Z</time>
      </trkpt>
      <trkpt lat="41.32773167" lon="1.93591833">
        <ele>382.0</ele>
        <time>2019-12-21T09:06:25.354Z</time>
      </trkpt>
      <trkpt lat="41.32773167" lon="1.93591833">
        <ele>382.0</ele>
        <time>2019-12-21T09:06:26.350Z</time>
      </trkpt>
      <trkpt lat="41.32777" lon="1.93578">
        <ele>380.0</ele>
        <time>2019-12-21T09:06:27.347Z</time>
      </trkpt>
      <trkpt lat="41.32777" lon="1.93578">
        <ele>380.0</ele>
        <time>2019-12-21T09:06:28.342Z</time>
      </trkpt>
      <trkpt lat="41.32780333" lon="1.93564">
        <ele>380.0</ele>
        <time>2019-12-21T09:06:29.365Z</time>
      </trkpt>
      <trkpt lat="41.32782" lon="1.93557">
        <ele>379.0</ele>
        <time>2019-12-21T09:06:30.354Z</time>
      </trkpt>
      <trkpt lat="41.32782" lon="1.93557">
        <ele>379.0</ele>
        <time>2019-12-21T09:06:31.354Z</time>
      </trkpt>
      <trkpt lat="41.32785667" lon="1.93544167">
        <ele>378.0</ele>
        <time>2019-12-21T09:06:32.355Z</time>
      </trkpt>
      <trkpt lat="41.32785667" lon="1.93544167">
        <ele>378.0</ele>
        <time>2019-12-21T09:06:33.350Z</time>
      </trkpt>
      <trkpt lat="41.32789667" lon="1.93530833">
        <ele>377.0</ele>
        <time>2019-12-21T09:06:34.353Z</time>
      </trkpt>
      <trkpt lat="41.32790333" lon="1.93523667">
        <ele>376.0</ele>
        <time>2019-12-21T09:06:35.356Z</time>
      </trkpt>
      <trkpt lat="41.32790333" lon="1.93523667">
        <ele>376.0</ele>
        <time>2019-12-21T09:06:36.350Z</time>
      </trkpt>
      <trkpt lat="41.32788667" lon="1.93509833">
        <ele>376.0</ele>
        <time>2019-12-21T09:06:37.366Z</time>
      </trkpt>
      <trkpt lat="41.32788667" lon="1.93509833">
        <ele>376.0</ele>
        <time>2019-12-21T09:06:38.349Z</time>
      </trkpt>
      <trkpt lat="41.32785833" lon="1.93492333">
        <ele>375.0</ele>
        <time>2019-12-21T09:06:39.353Z</time>
      </trkpt>
      <trkpt lat="41.32785833" lon="1.93492333">
        <ele>375.0</ele>
        <time>2019-12-21T09:06:40.350Z</time>
      </trkpt>
      <trkpt lat="41.32782833" lon="1.93477167">
        <ele>374.0</ele>
        <time>2019-12-21T09:06:41.353Z</time>
      </trkpt>
      <trkpt lat="41.32782833" lon="1.93477167">
        <ele>374.0</ele>
        <time>2019-12-21T09:06:42.350Z</time>
      </trkpt>
      <trkpt lat="41.32779167" lon="1.93462833">
        <ele>373.0</ele>
        <time>2019-12-21T09:06:43.334Z</time>
      </trkpt>
      <trkpt lat="41.32779167" lon="1.93462833">
        <ele>373.0</ele>
        <time>2019-12-21T09:06:44.356Z</time>
      </trkpt>
      <trkpt lat="41.32777" lon="1.9345">
        <ele>373.0</ele>
        <time>2019-12-21T09:06:45.353Z</time>
      </trkpt>
      <trkpt lat="41.32777" lon="1.9345">
        <ele>373.0</ele>
        <time>2019-12-21T09:06:46.350Z</time>
      </trkpt>
      <trkpt lat="41.32774" lon="1.93438167">
        <ele>372.0</ele>
        <time>2019-12-21T09:06:47.356Z</time>
      </trkpt>
      <trkpt lat="41.32774" lon="1.93438167">
        <ele>372.0</ele>
        <time>2019-12-21T09:06:48.350Z</time>
      </trkpt>
      <trkpt lat="41.327715" lon="1.93427333">
        <ele>372.0</ele>
        <time>2019-12-21T09:06:49.354Z</time>
      </trkpt>
      <trkpt lat="41.327715" lon="1.93427333">
        <ele>372.0</ele>
        <time>2019-12-21T09:06:50.352Z</time>
      </trkpt>
      <trkpt lat="41.3277" lon="1.93417333">
        <ele>371.0</ele>
        <time>2019-12-21T09:06:51.354Z</time>
      </trkpt>
      <trkpt lat="41.3277" lon="1.93417333">
        <ele>371.0</ele>
        <time>2019-12-21T09:06:52.350Z</time>
      </trkpt>
      <trkpt lat="41.32769833" lon="1.93406833">
        <ele>371.0</ele>
        <time>2019-12-21T09:06:53.371Z</time>
      </trkpt>
      <trkpt lat="41.32769833" lon="1.93406833">
        <ele>371.0</ele>
        <time>2019-12-21T09:06:54.366Z</time>
      </trkpt>
      <trkpt lat="41.32770167" lon="1.93397333">
        <ele>370.0</ele>
        <time>2019-12-21T09:06:55.357Z</time>
      </trkpt>
      <trkpt lat="41.32770167" lon="1.93397333">
        <ele>370.0</ele>
        <time>2019-12-21T09:06:56.349Z</time>
      </trkpt>
      <trkpt lat="41.3277" lon="1.933865">
        <ele>370.0</ele>
        <time>2019-12-21T09:06:57.333Z</time>
      </trkpt>
      <trkpt lat="41.3277" lon="1.933865">
        <ele>370.0</ele>
        <time>2019-12-21T09:06:58.356Z</time>
      </trkpt>
      <trkpt lat="41.327715" lon="1.93373833">
        <ele>370.0</ele>
        <time>2019-12-21T09:06:59.354Z</time>
      </trkpt>
      <trkpt lat="41.327715" lon="1.93373833">
        <ele>370.0</ele>
        <time>2019-12-21T09:07:00.358Z</time>
      </trkpt>
      <trkpt lat="41.32771833" lon="1.93364333">
        <ele>369.0</ele>
        <time>2019-12-21T09:07:01.354Z</time>
      </trkpt>
      <trkpt lat="41.32771833" lon="1.93364333">
        <ele>369.0</ele>
        <time>2019-12-21T09:07:02.350Z</time>
      </trkpt>
      <trkpt lat="41.32770667" lon="1.933555">
        <ele>369.0</ele>
        <time>2019-12-21T09:07:03.353Z</time>
      </trkpt>
      <trkpt lat="41.32770667" lon="1.933555">
        <ele>369.0</ele>
        <time>2019-12-21T09:07:04.349Z</time>
      </trkpt>
      <trkpt lat="41.327705" lon="1.93347333">
        <ele>369.0</ele>
        <time>2019-12-21T09:07:05.371Z</time>
      </trkpt>
      <trkpt lat="41.327705" lon="1.93347333">
        <ele>369.0</ele>
        <time>2019-12-21T09:07:06.353Z</time>
      </trkpt>
      <trkpt lat="41.32771" lon="1.93339333">
        <ele>369.0</ele>
        <time>2019-12-21T09:07:07.351Z</time>
      </trkpt>
      <trkpt lat="41.32771833" lon="1.93334833">
        <ele>369.0</ele>
        <time>2019-12-21T09:07:08.334Z</time>
      </trkpt>
      <trkpt lat="41.32771833" lon="1.93334833">
        <ele>369.0</ele>
        <time>2019-12-21T09:07:09.356Z</time>
      </trkpt>
      <trkpt lat="41.32773833" lon="1.933265">
        <ele>369.0</ele>
        <time>2019-12-21T09:07:10.367Z</time>
      </trkpt>
      <trkpt lat="41.32774" lon="1.93322333">
        <ele>369.0</ele>
        <time>2019-12-21T09:07:11.371Z</time>
      </trkpt>
      <trkpt lat="41.32774" lon="1.93322333">
        <ele>369.0</ele>
        <time>2019-12-21T09:07:12.352Z</time>
      </trkpt>
      <trkpt lat="41.32773833" lon="1.93314">
        <ele>369.0</ele>
        <time>2019-12-21T09:07:13.353Z</time>
      </trkpt>
      <trkpt lat="41.32773833" lon="1.93314">
        <ele>369.0</ele>
        <time>2019-12-21T09:07:14.349Z</time>
      </trkpt>
      <trkpt lat="41.32775" lon="1.93305833">
        <ele>369.0</ele>
        <time>2019-12-21T09:07:15.354Z</time>
      </trkpt>
      <trkpt lat="41.32775" lon="1.93305833">
        <ele>369.0</ele>
        <time>2019-12-21T09:07:16.349Z</time>
      </trkpt>
      <trkpt lat="41.32774833" lon="1.93295833">
        <ele>370.0</ele>
        <time>2019-12-21T09:07:17.335Z</time>
      </trkpt>
      <trkpt lat="41.32774833" lon="1.93295833">
        <ele>370.0</ele>
        <time>2019-12-21T09:07:18.367Z</time>
      </trkpt>
      <trkpt lat="41.32775167" lon="1.93286">
        <ele>370.0</ele>
        <time>2019-12-21T09:07:19.351Z</time>
      </trkpt>
      <trkpt lat="41.32775667" lon="1.93280833">
        <ele>370.0</ele>
        <time>2019-12-21T09:07:20.351Z</time>
      </trkpt>
      <trkpt lat="41.32775667" lon="1.93280833">
        <ele>370.0</ele>
        <time>2019-12-21T09:07:21.356Z</time>
      </trkpt>
      <trkpt lat="41.32777167" lon="1.93268667">
        <ele>370.0</ele>
        <time>2019-12-21T09:07:22.354Z</time>
      </trkpt>
      <trkpt lat="41.32777167" lon="1.93268667">
        <ele>370.0</ele>
        <time>2019-12-21T09:07:23.351Z</time>
      </trkpt>
      <trkpt lat="41.32776" lon="1.93253333">
        <ele>370.0</ele>
        <time>2019-12-21T09:07:24.354Z</time>
      </trkpt>
      <trkpt lat="41.32776" lon="1.93253333">
        <ele>370.0</ele>
        <time>2019-12-21T09:07:25.349Z</time>
      </trkpt>
      <trkpt lat="41.32775667" lon="1.932405">
        <ele>371.0</ele>
        <time>2019-12-21T09:07:26.351Z</time>
      </trkpt>
      <trkpt lat="41.32776333" lon="1.93235">
        <ele>371.0</ele>
        <time>2019-12-21T09:07:27.355Z</time>
      </trkpt>
      <trkpt lat="41.32776333" lon="1.93235">
        <ele>371.0</ele>
        <time>2019-12-21T09:07:28.349Z</time>
      </trkpt>
      <trkpt lat="41.32776833" lon="1.93222">
        <ele>371.0</ele>
        <time>2019-12-21T09:07:29.371Z</time>
      </trkpt>
      <trkpt lat="41.32776833" lon="1.93222">
        <ele>371.0</ele>
        <time>2019-12-21T09:07:30.353Z</time>
      </trkpt>
      <trkpt lat="41.32778167" lon="1.93209">
        <ele>371.0</ele>
        <time>2019-12-21T09:07:31.357Z</time>
      </trkpt>
      <trkpt lat="41.32778667" lon="1.93202667">
        <ele>370.0</ele>
        <time>2019-12-21T09:07:32.354Z</time>
      </trkpt>
      <trkpt lat="41.32778667" lon="1.93202667">
        <ele>370.0</ele>
        <time>2019-12-21T09:07:33.350Z</time>
      </trkpt>
      <trkpt lat="41.32779333" lon="1.931905">
        <ele>371.0</ele>
        <time>2019-12-21T09:07:34.352Z</time>
      </trkpt>
      <trkpt lat="41.32779333" lon="1.931905">
        <ele>371.0</ele>
        <time>2019-12-21T09:07:35.351Z</time>
      </trkpt>
      <trkpt lat="41.32779333" lon="1.931785">
        <ele>371.0</ele>
        <time>2019-12-21T09:07:36.353Z</time>
      </trkpt>
      <trkpt lat="41.32779333" lon="1.931785">
        <ele>371.0</ele>
        <time>2019-12-21T09:07:37.350Z</time>
      </trkpt>
      <trkpt lat="41.32778" lon="1.93165333">
        <ele>370.0</ele>
        <time>2019-12-21T09:07:38.362Z</time>
      </trkpt>
      <trkpt lat="41.32778" lon="1.93165333">
        <ele>370.0</ele>
        <time>2019-12-21T09:07:39.350Z</time>
      </trkpt>
      <trkpt lat="41.32776167" lon="1.93151">
        <ele>370.0</ele>
        <time>2019-12-21T09:07:40.354Z</time>
      </trkpt>
      <trkpt lat="41.32776667" lon="1.93143833">
        <ele>370.0</ele>
        <time>2019-12-21T09:07:41.354Z</time>
      </trkpt>
      <trkpt lat="41.32777833" lon="1.93137333">
        <ele>370.0</ele>
        <time>2019-12-21T09:07:42.352Z</time>
      </trkpt>
      <trkpt lat="41.32777833" lon="1.93137333">
        <ele>370.0</ele>
        <time>2019-12-21T09:07:43.352Z</time>
      </trkpt>
      <trkpt lat="41.32780333" lon="1.93126167">
        <ele>370.0</ele>
        <time>2019-12-21T09:07:44.355Z</time>
      </trkpt>
      <trkpt lat="41.32780333" lon="1.93126167">
        <ele>370.0</ele>
        <time>2019-12-21T09:07:45.349Z</time>
      </trkpt>
      <trkpt lat="41.32781333" lon="1.93114833">
        <ele>370.0</ele>
        <time>2019-12-21T09:07:46.371Z</time>
      </trkpt>
      <trkpt lat="41.32781333" lon="1.93114833">
        <ele>370.0</ele>
        <time>2019-12-21T09:07:47.353Z</time>
      </trkpt>
      <trkpt lat="41.32782" lon="1.93103667">
        <ele>369.0</ele>
        <time>2019-12-21T09:07:48.354Z</time>
      </trkpt>
      <trkpt lat="41.32782" lon="1.93097167">
        <ele>369.0</ele>
        <time>2019-12-21T09:07:49.354Z</time>
      </trkpt>
      <trkpt lat="41.32782" lon="1.93097167">
        <ele>369.0</ele>
        <time>2019-12-21T09:07:50.349Z</time>
      </trkpt>
      <trkpt lat="41.327825" lon="1.93084333">
        <ele>369.0</ele>
        <time>2019-12-21T09:07:51.354Z</time>
      </trkpt>
      <trkpt lat="41.327825" lon="1.93084333">
        <ele>369.0</ele>
        <time>2019-12-21T09:07:52.349Z</time>
      </trkpt>
      <trkpt lat="41.32782333" lon="1.93071167">
        <ele>369.0</ele>
        <time>2019-12-21T09:07:53.372Z</time>
      </trkpt>
      <trkpt lat="41.32782333" lon="1.93071167">
        <ele>369.0</ele>
        <time>2019-12-21T09:07:54.356Z</time>
      </trkpt>
      <trkpt lat="41.32782833" lon="1.93056667">
        <ele>368.0</ele>
        <time>2019-12-21T09:07:55.355Z</time>
      </trkpt>
      <trkpt lat="41.32782833" lon="1.93056667">
        <ele>368.0</ele>
        <time>2019-12-21T09:07:56.349Z</time>
      </trkpt>
      <trkpt lat="41.32783833" lon="1.93042833">
        <ele>368.0</ele>
        <time>2019-12-21T09:07:57.354Z</time>
      </trkpt>
      <trkpt lat="41.32783833" lon="1.93042833">
        <ele>368.0</ele>
        <time>2019-12-21T09:07:58.347Z</time>
      </trkpt>
      <trkpt lat="41.32785" lon="1.93029667">
        <ele>368.0</ele>
        <time>2019-12-21T09:07:59.369Z</time>
      </trkpt>
      <trkpt lat="41.32785" lon="1.93029667">
        <ele>368.0</ele>
        <time>2019-12-21T09:08:00.351Z</time>
      </trkpt>
      <trkpt lat="41.32785833" lon="1.930165">
        <ele>368.0</ele>
        <time>2019-12-21T09:08:01.355Z</time>
      </trkpt>
      <trkpt lat="41.32786167" lon="1.93010333">
        <ele>368.0</ele>
        <time>2019-12-21T09:08:02.354Z</time>
      </trkpt>
      <trkpt lat="41.32786167" lon="1.93010333">
        <ele>368.0</ele>
        <time>2019-12-21T09:08:03.353Z</time>
      </trkpt>
      <trkpt lat="41.32787167" lon="1.92997667">
        <ele>368.0</ele>
        <time>2019-12-21T09:08:04.354Z</time>
      </trkpt>
      <trkpt lat="41.32787167" lon="1.92997667">
        <ele>368.0</ele>
        <time>2019-12-21T09:08:05.352Z</time>
      </trkpt>
      <trkpt lat="41.32787667" lon="1.92985">
        <ele>368.0</ele>
        <time>2019-12-21T09:08:06.354Z</time>
      </trkpt>
      <trkpt lat="41.32787833" lon="1.92978667">
        <ele>367.0</ele>
        <time>2019-12-21T09:08:07.355Z</time>
      </trkpt>
      <trkpt lat="41.32787833" lon="1.92978667">
        <ele>367.0</ele>
        <time>2019-12-21T09:08:08.352Z</time>
      </trkpt>
      <trkpt lat="41.327885" lon="1.92965667">
        <ele>367.0</ele>
        <time>2019-12-21T09:08:09.353Z</time>
      </trkpt>
      <trkpt lat="41.32788833" lon="1.92959167">
        <ele>367.0</ele>
        <time>2019-12-21T09:08:10.363Z</time>
      </trkpt>
      <trkpt lat="41.32788833" lon="1.92959167">
        <ele>367.0</ele>
        <time>2019-12-21T09:08:11.356Z</time>
      </trkpt>
      <trkpt lat="41.32789167" lon="1.92945333">
        <ele>367.0</ele>
        <time>2019-12-21T09:08:12.350Z</time>
      </trkpt>
      <trkpt lat="41.32789167" lon="1.92945333">
        <ele>367.0</ele>
        <time>2019-12-21T09:08:13.350Z</time>
      </trkpt>
      <trkpt lat="41.327905" lon="1.92931333">
        <ele>367.0</ele>
        <time>2019-12-21T09:08:14.356Z</time>
      </trkpt>
      <trkpt lat="41.32791167" lon="1.92925">
        <ele>367.0</ele>
        <time>2019-12-21T09:08:15.354Z</time>
      </trkpt>
      <trkpt lat="41.32791167" lon="1.92925">
        <ele>367.0</ele>
        <time>2019-12-21T09:08:16.349Z</time>
      </trkpt>
      <trkpt lat="41.32791833" lon="1.92912333">
        <ele>367.0</ele>
        <time>2019-12-21T09:08:17.372Z</time>
      </trkpt>
      <trkpt lat="41.32791833" lon="1.92912333">
        <ele>367.0</ele>
        <time>2019-12-21T09:08:18.354Z</time>
      </trkpt>
      <trkpt lat="41.32792667" lon="1.929">
        <ele>367.0</ele>
        <time>2019-12-21T09:08:19.354Z</time>
      </trkpt>
      <trkpt lat="41.32793167" lon="1.92893833">
        <ele>367.0</ele>
        <time>2019-12-21T09:08:20.354Z</time>
      </trkpt>
      <trkpt lat="41.32793167" lon="1.92893833">
        <ele>367.0</ele>
        <time>2019-12-21T09:08:21.356Z</time>
      </trkpt>
      <trkpt lat="41.32794333" lon="1.92881833">
        <ele>366.0</ele>
        <time>2019-12-21T09:08:22.357Z</time>
      </trkpt>
      <trkpt lat="41.32794333" lon="1.92881833">
        <ele>366.0</ele>
        <time>2019-12-21T09:08:23.354Z</time>
      </trkpt>
      <trkpt lat="41.32796" lon="1.92869333">
        <ele>366.0</ele>
        <time>2019-12-21T09:08:24.354Z</time>
      </trkpt>
      <trkpt lat="41.32795333" lon="1.92862833">
        <ele>366.0</ele>
        <time>2019-12-21T09:08:25.354Z</time>
      </trkpt>
      <trkpt lat="41.32795333" lon="1.92862833">
        <ele>366.0</ele>
        <time>2019-12-21T09:08:26.349Z</time>
      </trkpt>
      <trkpt lat="41.32797" lon="1.92851">
        <ele>366.0</ele>
        <time>2019-12-21T09:08:27.355Z</time>
      </trkpt>
      <trkpt lat="41.327975" lon="1.92844167">
        <ele>366.0</ele>
        <time>2019-12-21T09:08:28.334Z</time>
      </trkpt>
      <trkpt lat="41.327975" lon="1.92844167">
        <ele>366.0</ele>
        <time>2019-12-21T09:08:29.356Z</time>
      </trkpt>
      <trkpt lat="41.32798" lon="1.92831833">
        <ele>366.0</ele>
        <time>2019-12-21T09:08:30.351Z</time>
      </trkpt>
      <trkpt lat="41.32798167" lon="1.92825667">
        <ele>366.0</ele>
        <time>2019-12-21T09:08:31.355Z</time>
      </trkpt>
      <trkpt lat="41.32798167" lon="1.928195">
        <ele>366.0</ele>
        <time>2019-12-21T09:08:32.355Z</time>
      </trkpt>
      <trkpt lat="41.32798167" lon="1.928195">
        <ele>366.0</ele>
        <time>2019-12-21T09:08:33.350Z</time>
      </trkpt>
      <trkpt lat="41.32799167" lon="1.92806833">
        <ele>366.0</ele>
        <time>2019-12-21T09:08:34.354Z</time>
      </trkpt>
      <trkpt lat="41.32799167" lon="1.92806833">
        <ele>366.0</ele>
        <time>2019-12-21T09:08:35.352Z</time>
      </trkpt>
      <trkpt lat="41.32799667" lon="1.92791833">
        <ele>365.0</ele>
        <time>2019-12-21T09:08:36.355Z</time>
      </trkpt>
      <trkpt lat="41.32799667" lon="1.92791833">
        <ele>365.0</ele>
        <time>2019-12-21T09:08:37.351Z</time>
      </trkpt>
      <trkpt lat="41.32802333" lon="1.927775">
        <ele>365.0</ele>
        <time>2019-12-21T09:08:38.367Z</time>
      </trkpt>
      <trkpt lat="41.32802333" lon="1.927775">
        <ele>365.0</ele>
        <time>2019-12-21T09:08:39.349Z</time>
      </trkpt>
      <trkpt lat="41.32804833" lon="1.92766167">
        <ele>365.0</ele>
        <time>2019-12-21T09:08:40.371Z</time>
      </trkpt>
      <trkpt lat="41.32806" lon="1.92761333">
        <ele>366.0</ele>
        <time>2019-12-21T09:08:41.357Z</time>
      </trkpt>
      <trkpt lat="41.32806" lon="1.92761333">
        <ele>366.0</ele>
        <time>2019-12-21T09:08:42.349Z</time>
      </trkpt>
      <trkpt lat="41.32807833" lon="1.92750667">
        <ele>365.0</ele>
        <time>2019-12-21T09:08:43.371Z</time>
      </trkpt>
      <trkpt lat="41.32807833" lon="1.92750667">
        <ele>365.0</ele>
        <time>2019-12-21T09:08:44.353Z</time>
      </trkpt>
      <trkpt lat="41.328095" lon="1.927405">
        <ele>366.0</ele>
        <time>2019-12-21T09:08:45.356Z</time>
      </trkpt>
      <trkpt lat="41.328095" lon="1.927405">
        <ele>366.0</ele>
        <time>2019-12-21T09:08:46.357Z</time>
      </trkpt>
      <trkpt lat="41.32811667" lon="1.927295">
        <ele>366.0</ele>
        <time>2019-12-21T09:08:47.357Z</time>
      </trkpt>
      <trkpt lat="41.32811667" lon="1.927295">
        <ele>366.0</ele>
        <time>2019-12-21T09:08:48.360Z</time>
      </trkpt>
      <trkpt lat="41.328145" lon="1.92718667">
        <ele>366.0</ele>
        <time>2019-12-21T09:08:49.356Z</time>
      </trkpt>
      <trkpt lat="41.32815333" lon="1.92712833">
        <ele>366.0</ele>
        <time>2019-12-21T09:08:50.356Z</time>
      </trkpt>
      <trkpt lat="41.32815333" lon="1.92712833">
        <ele>366.0</ele>
        <time>2019-12-21T09:08:51.356Z</time>
      </trkpt>
      <trkpt lat="41.32815833" lon="1.927015">
        <ele>366.0</ele>
        <time>2019-12-21T09:08:52.355Z</time>
      </trkpt>
      <trkpt lat="41.32815833" lon="1.927015">
        <ele>366.0</ele>
        <time>2019-12-21T09:08:53.352Z</time>
      </trkpt>
      <trkpt lat="41.32814" lon="1.92691167">
        <ele>366.0</ele>
        <time>2019-12-21T09:08:54.367Z</time>
      </trkpt>
      <trkpt lat="41.32814" lon="1.92691167">
        <ele>366.0</ele>
        <time>2019-12-21T09:08:55.348Z</time>
      </trkpt>
      <trkpt lat="41.32810833" lon="1.9268">
        <ele>366.0</ele>
        <time>2019-12-21T09:08:56.371Z</time>
      </trkpt>
      <trkpt lat="41.32810833" lon="1.9268">
        <ele>366.0</ele>
        <time>2019-12-21T09:08:57.353Z</time>
      </trkpt>
      <trkpt lat="41.32807667" lon="1.92670667">
        <ele>366.0</ele>
        <time>2019-12-21T09:08:58.352Z</time>
      </trkpt>
      <trkpt lat="41.32806" lon="1.92665667">
        <ele>366.0</ele>
        <time>2019-12-21T09:08:59.357Z</time>
      </trkpt>
      <trkpt lat="41.32806" lon="1.92665667">
        <ele>366.0</ele>
        <time>2019-12-21T09:09:00.351Z</time>
      </trkpt>
      <trkpt lat="41.32802167" lon="1.92657167">
        <ele>366.0</ele>
        <time>2019-12-21T09:09:01.355Z</time>
      </trkpt>
      <trkpt lat="41.32802167" lon="1.92657167">
        <ele>366.0</ele>
        <time>2019-12-21T09:09:02.348Z</time>
      </trkpt>
      <trkpt lat="41.328" lon="1.92649167">
        <ele>366.0</ele>
        <time>2019-12-21T09:09:03.333Z</time>
      </trkpt>
      <trkpt lat="41.328" lon="1.92649167">
        <ele>366.0</ele>
        <time>2019-12-21T09:09:04.356Z</time>
      </trkpt>
      <trkpt lat="41.32796667" lon="1.92642167">
        <ele>365.0</ele>
        <time>2019-12-21T09:09:05.357Z</time>
      </trkpt>
      <trkpt lat="41.32796667" lon="1.92642167">
        <ele>365.0</ele>
        <time>2019-12-21T09:09:06.351Z</time>
      </trkpt>
      <trkpt lat="41.32790833" lon="1.926375">
        <ele>365.0</ele>
        <time>2019-12-21T09:09:07.357Z</time>
      </trkpt>
      <trkpt lat="41.32790833" lon="1.926375">
        <ele>365.0</ele>
        <time>2019-12-21T09:09:08.353Z</time>
      </trkpt>
      <trkpt lat="41.32784333" lon="1.92634833">
        <ele>364.0</ele>
        <time>2019-12-21T09:09:09.357Z</time>
      </trkpt>
      <trkpt lat="41.32784333" lon="1.92634833">
        <ele>364.0</ele>
        <time>2019-12-21T09:09:10.364Z</time>
      </trkpt>
      <trkpt lat="41.32777" lon="1.92632167">
        <ele>364.0</ele>
        <time>2019-12-21T09:09:11.358Z</time>
      </trkpt>
      <trkpt lat="41.32777" lon="1.92632167">
        <ele>364.0</ele>
        <time>2019-12-21T09:09:12.351Z</time>
      </trkpt>
      <trkpt lat="41.32769833" lon="1.92629333">
        <ele>364.0</ele>
        <time>2019-12-21T09:09:13.356Z</time>
      </trkpt>
      <trkpt lat="41.32766333" lon="1.92628333">
        <ele>364.0</ele>
        <time>2019-12-21T09:09:14.357Z</time>
      </trkpt>
      <trkpt lat="41.32766333" lon="1.92628333">
        <ele>364.0</ele>
        <time>2019-12-21T09:09:15.352Z</time>
      </trkpt>
      <trkpt lat="41.32760333" lon="1.92626167">
        <ele>364.0</ele>
        <time>2019-12-21T09:09:16.355Z</time>
      </trkpt>
      <trkpt lat="41.32757667" lon="1.92625">
        <ele>364.0</ele>
        <time>2019-12-21T09:09:17.358Z</time>
      </trkpt>
      <trkpt lat="41.32757667" lon="1.92625">
        <ele>364.0</ele>
        <time>2019-12-21T09:09:18.352Z</time>
      </trkpt>
      <trkpt lat="41.32752667" lon="1.926215">
        <ele>364.0</ele>
        <time>2019-12-21T09:09:19.355Z</time>
      </trkpt>
      <trkpt lat="41.32750333" lon="1.9262">
        <ele>364.0</ele>
        <time>2019-12-21T09:09:20.355Z</time>
      </trkpt>
      <trkpt lat="41.32750333" lon="1.9262">
        <ele>364.0</ele>
        <time>2019-12-21T09:09:21.356Z</time>
      </trkpt>
      <trkpt lat="41.32745833" lon="1.926175">
        <ele>364.0</ele>
        <time>2019-12-21T09:09:22.354Z</time>
      </trkpt>
      <trkpt lat="41.32745833" lon="1.926175">
        <ele>364.0</ele>
        <time>2019-12-21T09:09:23.337Z</time>
      </trkpt>
      <trkpt lat="41.32740667" lon="1.92616333">
        <ele>365.0</ele>
        <time>2019-12-21T09:09:24.359Z</time>
      </trkpt>
      <trkpt lat="41.32740667" lon="1.92616333">
        <ele>365.0</ele>
        <time>2019-12-21T09:09:25.346Z</time>
      </trkpt>
      <trkpt lat="41.32735167" lon="1.92613833">
        <ele>365.0</ele>
        <time>2019-12-21T09:09:26.368Z</time>
      </trkpt>
      <trkpt lat="41.32735167" lon="1.92613833">
        <ele>365.0</ele>
        <time>2019-12-21T09:09:27.352Z</time>
      </trkpt>
      <trkpt lat="41.32727833" lon="1.926115">
        <ele>366.0</ele>
        <time>2019-12-21T09:09:28.354Z</time>
      </trkpt>
      <trkpt lat="41.32727833" lon="1.926115">
        <ele>366.0</ele>
        <time>2019-12-21T09:09:29.353Z</time>
      </trkpt>
      <trkpt lat="41.32721" lon="1.92607">
        <ele>366.0</ele>
        <time>2019-12-21T09:09:30.356Z</time>
      </trkpt>
      <trkpt lat="41.32721" lon="1.92607">
        <ele>366.0</ele>
        <time>2019-12-21T09:09:31.356Z</time>
      </trkpt>
      <trkpt lat="41.32715167" lon="1.92600667">
        <ele>367.0</ele>
        <time>2019-12-21T09:09:32.354Z</time>
      </trkpt>
      <trkpt lat="41.32712833" lon="1.92597">
        <ele>367.0</ele>
        <time>2019-12-21T09:09:33.363Z</time>
      </trkpt>
      <trkpt lat="41.32712833" lon="1.92597">
        <ele>367.0</ele>
        <time>2019-12-21T09:09:34.348Z</time>
      </trkpt>
      <trkpt lat="41.32709833" lon="1.92589333">
        <ele>367.0</ele>
        <time>2019-12-21T09:09:35.370Z</time>
      </trkpt>
      <trkpt lat="41.327085" lon="1.92585">
        <ele>368.0</ele>
        <time>2019-12-21T09:09:36.356Z</time>
      </trkpt>
      <trkpt lat="41.327085" lon="1.92585">
        <ele>368.0</ele>
        <time>2019-12-21T09:09:37.351Z</time>
      </trkpt>
      <trkpt lat="41.32705667" lon="1.92575833">
        <ele>368.0</ele>
        <time>2019-12-21T09:09:38.356Z</time>
      </trkpt>
      <trkpt lat="41.32704333" lon="1.92571">
        <ele>368.0</ele>
        <time>2019-12-21T09:09:39.355Z</time>
      </trkpt>
      <trkpt lat="41.32704333" lon="1.92571">
        <ele>368.0</ele>
        <time>2019-12-21T09:09:40.353Z</time>
      </trkpt>
      <trkpt lat="41.32701" lon="1.92561">
        <ele>369.0</ele>
        <time>2019-12-21T09:09:41.357Z</time>
      </trkpt>
      <trkpt lat="41.32701" lon="1.92561">
        <ele>369.0</ele>
        <time>2019-12-21T09:09:42.352Z</time>
      </trkpt>
      <trkpt lat="41.32699167" lon="1.92550667">
        <ele>370.0</ele>
        <time>2019-12-21T09:09:43.357Z</time>
      </trkpt>
      <trkpt lat="41.32698167" lon="1.92545167">
        <ele>370.0</ele>
        <time>2019-12-21T09:09:44.356Z</time>
      </trkpt>
      <trkpt lat="41.32697167" lon="1.925395">
        <ele>370.0</ele>
        <time>2019-12-21T09:09:45.356Z</time>
      </trkpt>
      <trkpt lat="41.32697167" lon="1.925395">
        <ele>370.0</ele>
        <time>2019-12-21T09:09:46.350Z</time>
      </trkpt>
      <trkpt lat="41.326955" lon="1.92528">
        <ele>370.0</ele>
        <time>2019-12-21T09:09:47.372Z</time>
      </trkpt>
      <trkpt lat="41.326945" lon="1.92522333">
        <ele>370.0</ele>
        <time>2019-12-21T09:09:48.356Z</time>
      </trkpt>
      <trkpt lat="41.326945" lon="1.92522333">
        <ele>370.0</ele>
        <time>2019-12-21T09:09:49.350Z</time>
      </trkpt>
      <trkpt lat="41.32693" lon="1.92510667">
        <ele>371.0</ele>
        <time>2019-12-21T09:09:50.355Z</time>
      </trkpt>
      <trkpt lat="41.32693" lon="1.92510667">
        <ele>371.0</ele>
        <time>2019-12-21T09:09:51.356Z</time>
      </trkpt>
      <trkpt lat="41.326915" lon="1.92498167">
        <ele>371.0</ele>
        <time>2019-12-21T09:09:52.356Z</time>
      </trkpt>
      <trkpt lat="41.326915" lon="1.92498167">
        <ele>371.0</ele>
        <time>2019-12-21T09:09:53.338Z</time>
      </trkpt>
      <trkpt lat="41.32689167" lon="1.92485667">
        <ele>371.0</ele>
        <time>2019-12-21T09:09:54.355Z</time>
      </trkpt>
      <trkpt lat="41.32687833" lon="1.92479167">
        <ele>371.0</ele>
        <time>2019-12-21T09:09:55.350Z</time>
      </trkpt>
      <trkpt lat="41.32687" lon="1.92472667">
        <ele>371.0</ele>
        <time>2019-12-21T09:09:56.356Z</time>
      </trkpt>
      <trkpt lat="41.32687" lon="1.92472667">
        <ele>371.0</ele>
        <time>2019-12-21T09:09:57.351Z</time>
      </trkpt>
      <trkpt lat="41.32683833" lon="1.924585">
        <ele>370.0</ele>
        <time>2019-12-21T09:09:58.356Z</time>
      </trkpt>
      <trkpt lat="41.32682833" lon="1.92451167">
        <ele>370.0</ele>
        <time>2019-12-21T09:09:59.357Z</time>
      </trkpt>
      <trkpt lat="41.32682833" lon="1.92451167">
        <ele>370.0</ele>
        <time>2019-12-21T09:10:00.350Z</time>
      </trkpt>
      <trkpt lat="41.32680833" lon="1.92436833">
        <ele>369.0</ele>
        <time>2019-12-21T09:10:01.356Z</time>
      </trkpt>
      <trkpt lat="41.32679833" lon="1.92429167">
        <ele>369.0</ele>
        <time>2019-12-21T09:10:02.356Z</time>
      </trkpt>
      <trkpt lat="41.32678833" lon="1.92422">
        <ele>369.0</ele>
        <time>2019-12-21T09:10:03.356Z</time>
      </trkpt>
      <trkpt lat="41.32678833" lon="1.92422">
        <ele>369.0</ele>
        <time>2019-12-21T09:10:04.350Z</time>
      </trkpt>
      <trkpt lat="41.32677" lon="1.92407667">
        <ele>368.0</ele>
        <time>2019-12-21T09:10:05.372Z</time>
      </trkpt>
      <trkpt lat="41.32677" lon="1.92407667">
        <ele>368.0</ele>
        <time>2019-12-21T09:10:06.354Z</time>
      </trkpt>
      <trkpt lat="41.32675" lon="1.92393667">
        <ele>367.0</ele>
        <time>2019-12-21T09:10:07.356Z</time>
      </trkpt>
      <trkpt lat="41.32675" lon="1.92393667">
        <ele>367.0</ele>
        <time>2019-12-21T09:10:08.350Z</time>
      </trkpt>
      <trkpt lat="41.32673" lon="1.92380833">
        <ele>367.0</ele>
        <time>2019-12-21T09:10:09.355Z</time>
      </trkpt>
      <trkpt lat="41.32672" lon="1.923745">
        <ele>366.0</ele>
        <time>2019-12-21T09:10:10.367Z</time>
      </trkpt>
      <trkpt lat="41.32672" lon="1.923745">
        <ele>366.0</ele>
        <time>2019-12-21T09:10:11.356Z</time>
      </trkpt>
      <trkpt lat="41.326685" lon="1.92363167">
        <ele>366.0</ele>
        <time>2019-12-21T09:10:12.356Z</time>
      </trkpt>
      <trkpt lat="41.32668833" lon="1.92356833">
        <ele>366.0</ele>
        <time>2019-12-21T09:10:13.356Z</time>
      </trkpt>
      <trkpt lat="41.32668833" lon="1.92356833">
        <ele>366.0</ele>
        <time>2019-12-21T09:10:14.350Z</time>
      </trkpt>
      <trkpt lat="41.32674333" lon="1.92349167">
        <ele>364.0</ele>
        <time>2019-12-21T09:10:15.355Z</time>
      </trkpt>
      <trkpt lat="41.32674333" lon="1.92349167">
        <ele>364.0</ele>
        <time>2019-12-21T09:10:16.350Z</time>
      </trkpt>
      <trkpt lat="41.32683167" lon="1.92351833">
        <ele>363.0</ele>
        <time>2019-12-21T09:10:17.372Z</time>
      </trkpt>
      <trkpt lat="41.32683167" lon="1.92351833">
        <ele>363.0</ele>
        <time>2019-12-21T09:10:18.354Z</time>
      </trkpt>
      <trkpt lat="41.32691333" lon="1.923595">
        <ele>362.0</ele>
        <time>2019-12-21T09:10:19.356Z</time>
      </trkpt>
      <trkpt lat="41.32691333" lon="1.923595">
        <ele>362.0</ele>
        <time>2019-12-21T09:10:20.350Z</time>
      </trkpt>
      <trkpt lat="41.32699833" lon="1.92360833">
        <ele>362.0</ele>
        <time>2019-12-21T09:10:21.334Z</time>
      </trkpt>
      <trkpt lat="41.32699833" lon="1.92360833">
        <ele>362.0</ele>
        <time>2019-12-21T09:10:22.356Z</time>
      </trkpt>
      <trkpt lat="41.32706833" lon="1.92353">
        <ele>363.0</ele>
        <time>2019-12-21T09:10:23.357Z</time>
      </trkpt>
      <trkpt lat="41.32706833" lon="1.92353">
        <ele>363.0</ele>
        <time>2019-12-21T09:10:24.351Z</time>
      </trkpt>
      <trkpt lat="41.32713833" lon="1.92344667">
        <ele>362.0</ele>
        <time>2019-12-21T09:10:25.354Z</time>
      </trkpt>
      <trkpt lat="41.32717" lon="1.92340833">
        <ele>362.0</ele>
        <time>2019-12-21T09:10:26.352Z</time>
      </trkpt>
      <trkpt lat="41.32717" lon="1.92340833">
        <ele>362.0</ele>
        <time>2019-12-21T09:10:27.350Z</time>
      </trkpt>
      <trkpt lat="41.327235" lon="1.92334167">
        <ele>362.0</ele>
        <time>2019-12-21T09:10:28.358Z</time>
      </trkpt>
      <trkpt lat="41.32726667" lon="1.92331167">
        <ele>362.0</ele>
        <time>2019-12-21T09:10:29.339Z</time>
      </trkpt>
      <trkpt lat="41.32726667" lon="1.92331167">
        <ele>362.0</ele>
        <time>2019-12-21T09:10:30.337Z</time>
      </trkpt>
      <trkpt lat="41.327335" lon="1.92325167">
        <ele>362.0</ele>
        <time>2019-12-21T09:10:31.360Z</time>
      </trkpt>
      <trkpt lat="41.327335" lon="1.92325167">
        <ele>362.0</ele>
        <time>2019-12-21T09:10:32.351Z</time>
      </trkpt>
      <trkpt lat="41.32739" lon="1.92320167">
        <ele>362.0</ele>
        <time>2019-12-21T09:10:33.354Z</time>
      </trkpt>
      <trkpt lat="41.32739" lon="1.92320167">
        <ele>362.0</ele>
        <time>2019-12-21T09:10:34.356Z</time>
      </trkpt>
      <trkpt lat="41.32745167" lon="1.923155">
        <ele>362.0</ele>
        <time>2019-12-21T09:10:35.358Z</time>
      </trkpt>
      <trkpt lat="41.32745167" lon="1.923155">
        <ele>362.0</ele>
        <time>2019-12-21T09:10:36.351Z</time>
      </trkpt>
      <trkpt lat="41.32752167" lon="1.92309667">
        <ele>361.0</ele>
        <time>2019-12-21T09:10:37.335Z</time>
      </trkpt>
      <trkpt lat="41.32752167" lon="1.92309667">
        <ele>361.0</ele>
        <time>2019-12-21T09:10:38.357Z</time>
      </trkpt>
      <trkpt lat="41.327605" lon="1.92302167">
        <ele>361.0</ele>
        <time>2019-12-21T09:10:39.356Z</time>
      </trkpt>
      <trkpt lat="41.327605" lon="1.92302167">
        <ele>361.0</ele>
        <time>2019-12-21T09:10:40.350Z</time>
      </trkpt>
      <trkpt lat="41.32769167" lon="1.92294">
        <ele>361.0</ele>
        <time>2019-12-21T09:10:41.372Z</time>
      </trkpt>
      <trkpt lat="41.32769167" lon="1.92294">
        <ele>361.0</ele>
        <time>2019-12-21T09:10:42.355Z</time>
      </trkpt>
      <trkpt lat="41.32777667" lon="1.92285833">
        <ele>360.0</ele>
        <time>2019-12-21T09:10:43.356Z</time>
      </trkpt>
      <trkpt lat="41.32777667" lon="1.92285833">
        <ele>360.0</ele>
        <time>2019-12-21T09:10:44.350Z</time>
      </trkpt>
      <trkpt lat="41.32786167" lon="1.92278167">
        <ele>360.0</ele>
        <time>2019-12-21T09:10:45.356Z</time>
      </trkpt>
      <trkpt lat="41.32786167" lon="1.92278167">
        <ele>360.0</ele>
        <time>2019-12-21T09:10:46.350Z</time>
      </trkpt>
      <trkpt lat="41.32795" lon="1.9227">
        <ele>360.0</ele>
        <time>2019-12-21T09:10:47.371Z</time>
      </trkpt>
      <trkpt lat="41.327995" lon="1.92266">
        <ele>360.0</ele>
        <time>2019-12-21T09:10:48.356Z</time>
      </trkpt>
      <trkpt lat="41.327995" lon="1.92266">
        <ele>360.0</ele>
        <time>2019-12-21T09:10:49.353Z</time>
      </trkpt>
      <trkpt lat="41.32808167" lon="1.922575">
        <ele>360.0</ele>
        <time>2019-12-21T09:10:50.356Z</time>
      </trkpt>
      <trkpt lat="41.32808167" lon="1.922575">
        <ele>360.0</ele>
        <time>2019-12-21T09:10:51.356Z</time>
      </trkpt>
      <trkpt lat="41.32817" lon="1.92249">
        <ele>359.0</ele>
        <time>2019-12-21T09:10:52.356Z</time>
      </trkpt>
      <trkpt lat="41.32821167" lon="1.92244833">
        <ele>359.0</ele>
        <time>2019-12-21T09:10:53.358Z</time>
      </trkpt>
      <trkpt lat="41.32821167" lon="1.92244833">
        <ele>359.0</ele>
        <time>2019-12-21T09:10:54.357Z</time>
      </trkpt>
      <trkpt lat="41.32829833" lon="1.92236833">
        <ele>359.0</ele>
        <time>2019-12-21T09:10:55.350Z</time>
      </trkpt>
      <trkpt lat="41.32834167" lon="1.92232833">
        <ele>359.0</ele>
        <time>2019-12-21T09:10:56.372Z</time>
      </trkpt>
      <trkpt lat="41.32834167" lon="1.92232833">
        <ele>359.0</ele>
        <time>2019-12-21T09:10:57.354Z</time>
      </trkpt>
      <trkpt lat="41.328435" lon="1.922255">
        <ele>358.0</ele>
        <time>2019-12-21T09:10:58.353Z</time>
      </trkpt>
      <trkpt lat="41.328435" lon="1.922255">
        <ele>358.0</ele>
        <time>2019-12-21T09:10:59.336Z</time>
      </trkpt>
      <trkpt lat="41.32852667" lon="1.92218333">
        <ele>358.0</ele>
        <time>2019-12-21T09:11:00.360Z</time>
      </trkpt>
      <trkpt lat="41.32856833" lon="1.92214667">
        <ele>358.0</ele>
        <time>2019-12-21T09:11:01.357Z</time>
      </trkpt>
      <trkpt lat="41.32856833" lon="1.92214667">
        <ele>358.0</ele>
        <time>2019-12-21T09:11:02.351Z</time>
      </trkpt>
      <trkpt lat="41.328655" lon="1.92208">
        <ele>358.0</ele>
        <time>2019-12-21T09:11:03.356Z</time>
      </trkpt>
      <trkpt lat="41.328655" lon="1.92208">
        <ele>358.0</ele>
        <time>2019-12-21T09:11:04.351Z</time>
      </trkpt>
      <trkpt lat="41.32873167" lon="1.922005">
        <ele>358.0</ele>
        <time>2019-12-21T09:11:05.333Z</time>
      </trkpt>
      <trkpt lat="41.32876" lon="1.92196167">
        <ele>358.0</ele>
        <time>2019-12-21T09:11:06.357Z</time>
      </trkpt>
      <trkpt lat="41.32876" lon="1.92196167">
        <ele>358.0</ele>
        <time>2019-12-21T09:11:07.351Z</time>
      </trkpt>
      <trkpt lat="41.32879" lon="1.921865">
        <ele>359.0</ele>
        <time>2019-12-21T09:11:08.356Z</time>
      </trkpt>
      <trkpt lat="41.32879" lon="1.921865">
        <ele>359.0</ele>
        <time>2019-12-21T09:11:09.351Z</time>
      </trkpt>
      <trkpt lat="41.32879167" lon="1.92176333">
        <ele>359.0</ele>
        <time>2019-12-21T09:11:10.374Z</time>
      </trkpt>
      <trkpt lat="41.32878833" lon="1.92170833">
        <ele>360.0</ele>
        <time>2019-12-21T09:11:11.358Z</time>
      </trkpt>
      <trkpt lat="41.32878833" lon="1.92170833">
        <ele>360.0</ele>
        <time>2019-12-21T09:11:12.351Z</time>
      </trkpt>
      <trkpt lat="41.328785" lon="1.92158167">
        <ele>360.0</ele>
        <time>2019-12-21T09:11:13.340Z</time>
      </trkpt>
      <trkpt lat="41.328785" lon="1.92158167">
        <ele>360.0</ele>
        <time>2019-12-21T09:11:14.362Z</time>
      </trkpt>
      <trkpt lat="41.328785" lon="1.92145">
        <ele>360.0</ele>
        <time>2019-12-21T09:11:15.356Z</time>
      </trkpt>
      <trkpt lat="41.328785" lon="1.92145">
        <ele>360.0</ele>
        <time>2019-12-21T09:11:16.351Z</time>
      </trkpt>
      <trkpt lat="41.32878333" lon="1.92132167">
        <ele>359.0</ele>
        <time>2019-12-21T09:11:17.333Z</time>
      </trkpt>
      <trkpt lat="41.32878333" lon="1.92132167">
        <ele>359.0</ele>
        <time>2019-12-21T09:11:18.356Z</time>
      </trkpt>
      <trkpt lat="41.328785" lon="1.921195">
        <ele>359.0</ele>
        <time>2019-12-21T09:11:19.356Z</time>
      </trkpt>
      <trkpt lat="41.328785" lon="1.921195">
        <ele>359.0</ele>
        <time>2019-12-21T09:11:20.350Z</time>
      </trkpt>
      <trkpt lat="41.328785" lon="1.92107">
        <ele>359.0</ele>
        <time>2019-12-21T09:11:21.333Z</time>
      </trkpt>
      <trkpt lat="41.328785" lon="1.921005">
        <ele>359.0</ele>
        <time>2019-12-21T09:11:22.356Z</time>
      </trkpt>
      <trkpt lat="41.328785" lon="1.921005">
        <ele>359.0</ele>
        <time>2019-12-21T09:11:23.353Z</time>
      </trkpt>
      <trkpt lat="41.328785" lon="1.920885">
        <ele>359.0</ele>
        <time>2019-12-21T09:11:24.364Z</time>
      </trkpt>
      <trkpt lat="41.328785" lon="1.920885">
        <ele>359.0</ele>
        <time>2019-12-21T09:11:25.351Z</time>
      </trkpt>
      <trkpt lat="41.32878333" lon="1.92076667">
        <ele>358.0</ele>
        <time>2019-12-21T09:11:26.356Z</time>
      </trkpt>
      <trkpt lat="41.32878333" lon="1.92076667">
        <ele>358.0</ele>
        <time>2019-12-21T09:11:27.352Z</time>
      </trkpt>
      <trkpt lat="41.328765" lon="1.92065833">
        <ele>358.0</ele>
        <time>2019-12-21T09:11:28.357Z</time>
      </trkpt>
      <trkpt lat="41.32875" lon="1.92060667">
        <ele>358.0</ele>
        <time>2019-12-21T09:11:29.359Z</time>
      </trkpt>
      <trkpt lat="41.32875" lon="1.92060667">
        <ele>358.0</ele>
        <time>2019-12-21T09:11:30.352Z</time>
      </trkpt>
      <trkpt lat="41.32871" lon="1.92051">
        <ele>358.0</ele>
        <time>2019-12-21T09:11:31.357Z</time>
      </trkpt>
      <trkpt lat="41.32871" lon="1.92051">
        <ele>358.0</ele>
        <time>2019-12-21T09:11:32.366Z</time>
      </trkpt>
      <trkpt lat="41.32865667" lon="1.92042667">
        <ele>359.0</ele>
        <time>2019-12-21T09:11:33.357Z</time>
      </trkpt>
      <trkpt lat="41.32865667" lon="1.92042667">
        <ele>359.0</ele>
        <time>2019-12-21T09:11:34.351Z</time>
      </trkpt>
      <trkpt lat="41.3286" lon="1.92035333">
        <ele>359.0</ele>
        <time>2019-12-21T09:11:35.334Z</time>
      </trkpt>
      <trkpt lat="41.3286" lon="1.92035333">
        <ele>359.0</ele>
        <time>2019-12-21T09:11:36.356Z</time>
      </trkpt>
      <trkpt lat="41.32855833" lon="1.920285">
        <ele>359.0</ele>
        <time>2019-12-21T09:11:37.356Z</time>
      </trkpt>
      <trkpt lat="41.32855833" lon="1.920285">
        <ele>359.0</ele>
        <time>2019-12-21T09:11:38.352Z</time>
      </trkpt>
      <trkpt lat="41.32853667" lon="1.92021167">
        <ele>359.0</ele>
        <time>2019-12-21T09:11:39.357Z</time>
      </trkpt>
      <trkpt lat="41.32853667" lon="1.92021167">
        <ele>359.0</ele>
        <time>2019-12-21T09:11:40.352Z</time>
      </trkpt>
      <trkpt lat="41.32856667" lon="1.92012667">
        <ele>359.0</ele>
        <time>2019-12-21T09:11:41.335Z</time>
      </trkpt>
      <trkpt lat="41.32856667" lon="1.92012667">
        <ele>359.0</ele>
        <time>2019-12-21T09:11:42.357Z</time>
      </trkpt>
      <trkpt lat="41.328615" lon="1.92004333">
        <ele>358.0</ele>
        <time>2019-12-21T09:11:43.356Z</time>
      </trkpt>
      <trkpt lat="41.328615" lon="1.92004333">
        <ele>358.0</ele>
        <time>2019-12-21T09:11:44.351Z</time>
      </trkpt>
      <trkpt lat="41.32864" lon="1.91993167">
        <ele>358.0</ele>
        <time>2019-12-21T09:11:45.333Z</time>
      </trkpt>
      <trkpt lat="41.32864" lon="1.91993167">
        <ele>358.0</ele>
        <time>2019-12-21T09:11:46.354Z</time>
      </trkpt>
      <trkpt lat="41.328685" lon="1.919785">
        <ele>358.0</ele>
        <time>2019-12-21T09:11:47.359Z</time>
      </trkpt>
      <trkpt lat="41.32872333" lon="1.91972667">
        <ele>358.0</ele>
        <time>2019-12-21T09:11:48.357Z</time>
      </trkpt>
      <trkpt lat="41.32872333" lon="1.91972667">
        <ele>358.0</ele>
        <time>2019-12-21T09:11:49.357Z</time>
      </trkpt>
      <trkpt lat="41.32878667" lon="1.91961">
        <ele>358.0</ele>
        <time>2019-12-21T09:11:50.356Z</time>
      </trkpt>
      <trkpt lat="41.32878667" lon="1.91961">
        <ele>358.0</ele>
        <time>2019-12-21T09:11:51.356Z</time>
      </trkpt>
      <trkpt lat="41.32880333" lon="1.919505">
        <ele>358.0</ele>
        <time>2019-12-21T09:11:52.356Z</time>
      </trkpt>
      <trkpt lat="41.328805" lon="1.91946333">
        <ele>358.0</ele>
        <time>2019-12-21T09:11:53.358Z</time>
      </trkpt>
      <trkpt lat="41.328805" lon="1.91946333">
        <ele>358.0</ele>
        <time>2019-12-21T09:11:54.354Z</time>
      </trkpt>
      <trkpt lat="41.32879333" lon="1.91939833">
        <ele>359.0</ele>
        <time>2019-12-21T09:11:55.365Z</time>
      </trkpt>
      <trkpt lat="41.32879333" lon="1.91939833">
        <ele>359.0</ele>
        <time>2019-12-21T09:11:56.351Z</time>
      </trkpt>
      <trkpt lat="41.32876833" lon="1.919325">
        <ele>359.0</ele>
        <time>2019-12-21T09:11:57.357Z</time>
      </trkpt>
      <trkpt lat="41.32876833" lon="1.919325">
        <ele>359.0</ele>
        <time>2019-12-21T09:11:58.351Z</time>
      </trkpt>
      <trkpt lat="41.32875" lon="1.91926167">
        <ele>359.0</ele>
        <time>2019-12-21T09:11:59.334Z</time>
      </trkpt>
      <trkpt lat="41.32875" lon="1.91926167">
        <ele>359.0</ele>
        <time>2019-12-21T09:12:00.356Z</time>
      </trkpt>
      <trkpt lat="41.32874" lon="1.9192">
        <ele>360.0</ele>
        <time>2019-12-21T09:12:01.357Z</time>
      </trkpt>
      <trkpt lat="41.328735" lon="1.91916667">
        <ele>360.0</ele>
        <time>2019-12-21T09:12:02.357Z</time>
      </trkpt>
      <trkpt lat="41.328735" lon="1.91916667">
        <ele>360.0</ele>
        <time>2019-12-21T09:12:03.354Z</time>
      </trkpt>
      <trkpt lat="41.328725" lon="1.91909167">
        <ele>360.0</ele>
        <time>2019-12-21T09:12:04.356Z</time>
      </trkpt>
      <trkpt lat="41.32872" lon="1.91905167">
        <ele>360.0</ele>
        <time>2019-12-21T09:12:05.359Z</time>
      </trkpt>
      <trkpt lat="41.32872" lon="1.91905167">
        <ele>360.0</ele>
        <time>2019-12-21T09:12:06.352Z</time>
      </trkpt>
      <trkpt lat="41.32871333" lon="1.918965">
        <ele>360.0</ele>
        <time>2019-12-21T09:12:07.356Z</time>
      </trkpt>
      <trkpt lat="41.32871333" lon="1.918965">
        <ele>360.0</ele>
        <time>2019-12-21T09:12:08.351Z</time>
      </trkpt>
      <trkpt lat="41.32870833" lon="1.91887333">
        <ele>360.0</ele>
        <time>2019-12-21T09:12:09.357Z</time>
      </trkpt>
      <trkpt lat="41.32870833" lon="1.91887333">
        <ele>360.0</ele>
        <time>2019-12-21T09:12:10.363Z</time>
      </trkpt>
      <trkpt lat="41.3287" lon="1.91876833">
        <ele>360.0</ele>
        <time>2019-12-21T09:12:11.361Z</time>
      </trkpt>
      <trkpt lat="41.3287" lon="1.91876833">
        <ele>360.0</ele>
        <time>2019-12-21T09:12:12.352Z</time>
      </trkpt>
      <trkpt lat="41.32869167" lon="1.91867">
        <ele>360.0</ele>
        <time>2019-12-21T09:12:13.358Z</time>
      </trkpt>
      <trkpt lat="41.32869167" lon="1.91867">
        <ele>360.0</ele>
        <time>2019-12-21T09:12:14.352Z</time>
      </trkpt>
      <trkpt lat="41.32868667" lon="1.91857333">
        <ele>360.0</ele>
        <time>2019-12-21T09:12:15.356Z</time>
      </trkpt>
      <trkpt lat="41.32868667" lon="1.91857333">
        <ele>360.0</ele>
        <time>2019-12-21T09:12:16.350Z</time>
      </trkpt>
      <trkpt lat="41.32868167" lon="1.91847">
        <ele>361.0</ele>
        <time>2019-12-21T09:12:17.372Z</time>
      </trkpt>
      <trkpt lat="41.32868167" lon="1.91847">
        <ele>361.0</ele>
        <time>2019-12-21T09:12:18.354Z</time>
      </trkpt>
      <trkpt lat="41.32867167" lon="1.91837">
        <ele>361.0</ele>
        <time>2019-12-21T09:12:19.357Z</time>
      </trkpt>
      <trkpt lat="41.32867167" lon="1.91837">
        <ele>361.0</ele>
        <time>2019-12-21T09:12:20.352Z</time>
      </trkpt>
      <trkpt lat="41.328665" lon="1.91826333">
        <ele>361.0</ele>
        <time>2019-12-21T09:12:21.357Z</time>
      </trkpt>
      <trkpt lat="41.328665" lon="1.91826333">
        <ele>361.0</ele>
        <time>2019-12-21T09:12:22.352Z</time>
      </trkpt>
      <trkpt lat="41.32865333" lon="1.91815667">
        <ele>361.0</ele>
        <time>2019-12-21T09:12:23.358Z</time>
      </trkpt>
      <trkpt lat="41.32865333" lon="1.91815667">
        <ele>361.0</ele>
        <time>2019-12-21T09:12:24.351Z</time>
      </trkpt>
      <trkpt lat="41.328645" lon="1.91805667">
        <ele>361.0</ele>
        <time>2019-12-21T09:12:25.357Z</time>
      </trkpt>
      <trkpt lat="41.328645" lon="1.91805667">
        <ele>361.0</ele>
        <time>2019-12-21T09:12:26.351Z</time>
      </trkpt>
      <trkpt lat="41.32863167" lon="1.91796167">
        <ele>361.0</ele>
        <time>2019-12-21T09:12:27.372Z</time>
      </trkpt>
      <trkpt lat="41.32863167" lon="1.91796167">
        <ele>361.0</ele>
        <time>2019-12-21T09:12:28.372Z</time>
      </trkpt>
      <trkpt lat="41.32862167" lon="1.917875">
        <ele>361.0</ele>
        <time>2019-12-21T09:12:29.359Z</time>
      </trkpt>
      <trkpt lat="41.32861667" lon="1.91783167">
        <ele>361.0</ele>
        <time>2019-12-21T09:12:30.333Z</time>
      </trkpt>
      <trkpt lat="41.32861667" lon="1.91783167">
        <ele>361.0</ele>
        <time>2019-12-21T09:12:31.356Z</time>
      </trkpt>
      <trkpt lat="41.32861" lon="1.91774667">
        <ele>361.0</ele>
        <time>2019-12-21T09:12:32.357Z</time>
      </trkpt>
      <trkpt lat="41.32861" lon="1.91774667">
        <ele>361.0</ele>
        <time>2019-12-21T09:12:33.355Z</time>
      </trkpt>
      <trkpt lat="41.3286" lon="1.91767">
        <ele>362.0</ele>
        <time>2019-12-21T09:12:34.357Z</time>
      </trkpt>
      <trkpt lat="41.32859667" lon="1.91763167">
        <ele>362.0</ele>
        <time>2019-12-21T09:12:35.359Z</time>
      </trkpt>
      <trkpt lat="41.32859667" lon="1.91763167">
        <ele>362.0</ele>
        <time>2019-12-21T09:12:36.352Z</time>
      </trkpt>
      <trkpt lat="41.32858667" lon="1.91755">
        <ele>363.0</ele>
        <time>2019-12-21T09:12:37.347Z</time>
      </trkpt>
      <trkpt lat="41.32858667" lon="1.91755">
        <ele>363.0</ele>
        <time>2019-12-21T09:12:38.369Z</time>
      </trkpt>
      <trkpt lat="41.32857333" lon="1.91747">
        <ele>364.0</ele>
        <time>2019-12-21T09:12:39.357Z</time>
      </trkpt>
      <trkpt lat="41.32857333" lon="1.91747">
        <ele>364.0</ele>
        <time>2019-12-21T09:12:40.354Z</time>
      </trkpt>
      <trkpt lat="41.32855833" lon="1.91738333">
        <ele>364.0</ele>
        <time>2019-12-21T09:12:41.359Z</time>
      </trkpt>
      <trkpt lat="41.32855833" lon="1.91738333">
        <ele>364.0</ele>
        <time>2019-12-21T09:12:42.354Z</time>
      </trkpt>
      <trkpt lat="41.32854667" lon="1.91730167">
        <ele>364.0</ele>
        <time>2019-12-21T09:12:43.358Z</time>
      </trkpt>
      <trkpt lat="41.32854667" lon="1.91730167">
        <ele>364.0</ele>
        <time>2019-12-21T09:12:44.352Z</time>
      </trkpt>
      <trkpt lat="41.32853833" lon="1.91721167">
        <ele>364.0</ele>
        <time>2019-12-21T09:12:45.357Z</time>
      </trkpt>
      <trkpt lat="41.32853833" lon="1.91721167">
        <ele>364.0</ele>
        <time>2019-12-21T09:12:46.350Z</time>
      </trkpt>
      <trkpt lat="41.32853833" lon="1.91711167">
        <ele>364.0</ele>
        <time>2019-12-21T09:12:47.372Z</time>
      </trkpt>
      <trkpt lat="41.32853833" lon="1.91711167">
        <ele>364.0</ele>
        <time>2019-12-21T09:12:48.354Z</time>
      </trkpt>
      <trkpt lat="41.32855333" lon="1.91701667">
        <ele>364.0</ele>
        <time>2019-12-21T09:12:49.354Z</time>
      </trkpt>
      <trkpt lat="41.32855333" lon="1.91701667">
        <ele>364.0</ele>
        <time>2019-12-21T09:12:50.347Z</time>
      </trkpt>
      <trkpt lat="41.32857833" lon="1.91691833">
        <ele>364.0</ele>
        <time>2019-12-21T09:12:51.369Z</time>
      </trkpt>
      <trkpt lat="41.32857833" lon="1.91691833">
        <ele>364.0</ele>
        <time>2019-12-21T09:12:52.352Z</time>
      </trkpt>
      <trkpt lat="41.328595" lon="1.91683667">
        <ele>364.0</ele>
        <time>2019-12-21T09:12:53.335Z</time>
      </trkpt>
      <trkpt lat="41.328595" lon="1.91683667">
        <ele>364.0</ele>
        <time>2019-12-21T09:12:54.349Z</time>
      </trkpt>
      <trkpt lat="41.32859667" lon="1.91676167">
        <ele>365.0</ele>
        <time>2019-12-21T09:12:55.349Z</time>
      </trkpt>
      <trkpt lat="41.32859333" lon="1.91672667">
        <ele>365.0</ele>
        <time>2019-12-21T09:12:56.371Z</time>
      </trkpt>
      <trkpt lat="41.32859333" lon="1.91672667">
        <ele>365.0</ele>
        <time>2019-12-21T09:12:57.357Z</time>
      </trkpt>
      <trkpt lat="41.32858667" lon="1.91665">
        <ele>365.0</ele>
        <time>2019-12-21T09:12:58.358Z</time>
      </trkpt>
      <trkpt lat="41.32858" lon="1.91660833">
        <ele>365.0</ele>
        <time>2019-12-21T09:12:59.361Z</time>
      </trkpt>
      <trkpt lat="41.32858" lon="1.91660833">
        <ele>365.0</ele>
        <time>2019-12-21T09:13:00.342Z</time>
      </trkpt>
      <trkpt lat="41.32856167" lon="1.91652667">
        <ele>366.0</ele>
        <time>2019-12-21T09:13:01.365Z</time>
      </trkpt>
      <trkpt lat="41.32856167" lon="1.91652667">
        <ele>366.0</ele>
        <time>2019-12-21T09:13:02.352Z</time>
      </trkpt>
      <trkpt lat="41.32855" lon="1.91644167">
        <ele>366.0</ele>
        <time>2019-12-21T09:13:03.363Z</time>
      </trkpt>
      <trkpt lat="41.32855" lon="1.91644167">
        <ele>366.0</ele>
        <time>2019-12-21T09:13:04.352Z</time>
      </trkpt>
      <trkpt lat="41.32854" lon="1.91636167">
        <ele>366.0</ele>
        <time>2019-12-21T09:13:05.333Z</time>
      </trkpt>
      <trkpt lat="41.32854" lon="1.91636167">
        <ele>366.0</ele>
        <time>2019-12-21T09:13:06.356Z</time>
      </trkpt>
      <trkpt lat="41.32853" lon="1.916285">
        <ele>367.0</ele>
        <time>2019-12-21T09:13:07.358Z</time>
      </trkpt>
      <trkpt lat="41.32853" lon="1.916285">
        <ele>367.0</ele>
        <time>2019-12-21T09:13:08.352Z</time>
      </trkpt>
      <trkpt lat="41.32852167" lon="1.91620667">
        <ele>367.0</ele>
        <time>2019-12-21T09:13:09.333Z</time>
      </trkpt>
      <trkpt lat="41.32852167" lon="1.91620667">
        <ele>367.0</ele>
        <time>2019-12-21T09:13:10.365Z</time>
      </trkpt>
      <trkpt lat="41.328515" lon="1.91613167">
        <ele>367.0</ele>
        <time>2019-12-21T09:13:11.369Z</time>
      </trkpt>
      <trkpt lat="41.328515" lon="1.91613167">
        <ele>367.0</ele>
        <time>2019-12-21T09:13:12.352Z</time>
      </trkpt>
      <trkpt lat="41.328505" lon="1.91605833">
        <ele>367.0</ele>
        <time>2019-12-21T09:13:13.358Z</time>
      </trkpt>
      <trkpt lat="41.328505" lon="1.91605833">
        <ele>367.0</ele>
        <time>2019-12-21T09:13:14.351Z</time>
      </trkpt>
      <trkpt lat="41.32849833" lon="1.91597833">
        <ele>367.0</ele>
        <time>2019-12-21T09:13:15.333Z</time>
      </trkpt>
      <trkpt lat="41.32849833" lon="1.91597833">
        <ele>367.0</ele>
        <time>2019-12-21T09:13:16.355Z</time>
      </trkpt>
      <trkpt lat="41.32849167" lon="1.9159">
        <ele>367.0</ele>
        <time>2019-12-21T09:13:17.360Z</time>
      </trkpt>
      <trkpt lat="41.32849167" lon="1.9159">
        <ele>367.0</ele>
        <time>2019-12-21T09:13:18.351Z</time>
      </trkpt>
      <trkpt lat="41.32847667" lon="1.91582167">
        <ele>367.0</ele>
        <time>2019-12-21T09:13:19.333Z</time>
      </trkpt>
      <trkpt lat="41.32847667" lon="1.91582167">
        <ele>367.0</ele>
        <time>2019-12-21T09:13:20.356Z</time>
      </trkpt>
      <trkpt lat="41.32846333" lon="1.91574833">
        <ele>368.0</ele>
        <time>2019-12-21T09:13:21.357Z</time>
      </trkpt>
      <trkpt lat="41.32846333" lon="1.91574833">
        <ele>368.0</ele>
        <time>2019-12-21T09:13:22.351Z</time>
      </trkpt>
      <trkpt lat="41.32845" lon="1.91568167">
        <ele>368.0</ele>
        <time>2019-12-21T09:13:23.334Z</time>
      </trkpt>
      <trkpt lat="41.32845" lon="1.91568167">
        <ele>368.0</ele>
        <time>2019-12-21T09:13:24.356Z</time>
      </trkpt>
      <trkpt lat="41.32842167" lon="1.91561167">
        <ele>367.0</ele>
        <time>2019-12-21T09:13:25.336Z</time>
      </trkpt>
      <trkpt lat="41.32842167" lon="1.91561167">
        <ele>367.0</ele>
        <time>2019-12-21T09:13:26.359Z</time>
      </trkpt>
      <trkpt lat="41.32839" lon="1.915555">
        <ele>367.0</ele>
        <time>2019-12-21T09:13:27.357Z</time>
      </trkpt>
      <trkpt lat="41.32839" lon="1.915555">
        <ele>367.0</ele>
        <time>2019-12-21T09:13:28.362Z</time>
      </trkpt>
      <trkpt lat="41.328345" lon="1.9155">
        <ele>367.0</ele>
        <time>2019-12-21T09:13:29.360Z</time>
      </trkpt>
      <trkpt lat="41.328345" lon="1.9155">
        <ele>367.0</ele>
        <time>2019-12-21T09:13:30.352Z</time>
      </trkpt>
      <trkpt lat="41.3283" lon="1.91544833">
        <ele>367.0</ele>
        <time>2019-12-21T09:13:31.358Z</time>
      </trkpt>
      <trkpt lat="41.3283" lon="1.91544833">
        <ele>367.0</ele>
        <time>2019-12-21T09:13:32.353Z</time>
      </trkpt>
      <trkpt lat="41.328255" lon="1.91539667">
        <ele>368.0</ele>
        <time>2019-12-21T09:13:33.358Z</time>
      </trkpt>
      <trkpt lat="41.328255" lon="1.91539667">
        <ele>368.0</ele>
        <time>2019-12-21T09:13:34.352Z</time>
      </trkpt>
      <trkpt lat="41.328205" lon="1.91534333">
        <ele>368.0</ele>
        <time>2019-12-21T09:13:35.334Z</time>
      </trkpt>
      <trkpt lat="41.328205" lon="1.91534333">
        <ele>368.0</ele>
        <time>2019-12-21T09:13:36.356Z</time>
      </trkpt>
      <trkpt lat="41.32815333" lon="1.915295">
        <ele>369.0</ele>
        <time>2019-12-21T09:13:37.358Z</time>
      </trkpt>
      <trkpt lat="41.32815333" lon="1.915295">
        <ele>369.0</ele>
        <time>2019-12-21T09:13:38.352Z</time>
      </trkpt>
      <trkpt lat="41.32810833" lon="1.91523833">
        <ele>370.0</ele>
        <time>2019-12-21T09:13:39.357Z</time>
      </trkpt>
      <trkpt lat="41.32810833" lon="1.91523833">
        <ele>370.0</ele>
        <time>2019-12-21T09:13:40.353Z</time>
      </trkpt>
      <trkpt lat="41.32806167" lon="1.91518333">
        <ele>370.0</ele>
        <time>2019-12-21T09:13:41.335Z</time>
      </trkpt>
      <trkpt lat="41.32806167" lon="1.91518333">
        <ele>370.0</ele>
        <time>2019-12-21T09:13:42.357Z</time>
      </trkpt>
      <trkpt lat="41.328015" lon="1.91513833">
        <ele>370.0</ele>
        <time>2019-12-21T09:13:43.363Z</time>
      </trkpt>
      <trkpt lat="41.32799667" lon="1.91511">
        <ele>370.0</ele>
        <time>2019-12-21T09:13:44.357Z</time>
      </trkpt>
      <trkpt lat="41.32799667" lon="1.91511">
        <ele>370.0</ele>
        <time>2019-12-21T09:13:45.352Z</time>
      </trkpt>
      <trkpt lat="41.32796" lon="1.91505833">
        <ele>370.0</ele>
        <time>2019-12-21T09:13:46.358Z</time>
      </trkpt>
      <trkpt lat="41.32794" lon="1.91503333">
        <ele>370.0</ele>
        <time>2019-12-21T09:13:47.362Z</time>
      </trkpt>
      <trkpt lat="41.32794" lon="1.91503333">
        <ele>370.0</ele>
        <time>2019-12-21T09:13:48.358Z</time>
      </trkpt>
      <trkpt lat="41.327905" lon="1.91498833">
        <ele>371.0</ele>
        <time>2019-12-21T09:13:49.359Z</time>
      </trkpt>
      <trkpt lat="41.32789167" lon="1.91496833">
        <ele>371.0</ele>
        <time>2019-12-21T09:13:50.355Z</time>
      </trkpt>
      <trkpt lat="41.32789167" lon="1.91496833">
        <ele>371.0</ele>
        <time>2019-12-21T09:13:51.356Z</time>
      </trkpt>
      <trkpt lat="41.327855" lon="1.91492">
        <ele>371.0</ele>
        <time>2019-12-21T09:13:52.358Z</time>
      </trkpt>
      <trkpt lat="41.32783" lon="1.91489167">
        <ele>371.0</ele>
        <time>2019-12-21T09:13:53.339Z</time>
      </trkpt>
      <trkpt lat="41.32783" lon="1.91489167">
        <ele>371.0</ele>
        <time>2019-12-21T09:13:54.349Z</time>
      </trkpt>
      <trkpt lat="41.32778" lon="1.91484">
        <ele>371.0</ele>
        <time>2019-12-21T09:13:55.356Z</time>
      </trkpt>
      <trkpt lat="41.32776167" lon="1.91481167">
        <ele>371.0</ele>
        <time>2019-12-21T09:13:56.357Z</time>
      </trkpt>
      <trkpt lat="41.32776167" lon="1.91481167">
        <ele>371.0</ele>
        <time>2019-12-21T09:13:57.352Z</time>
      </trkpt>
      <trkpt lat="41.32772667" lon="1.91475333">
        <ele>371.0</ele>
        <time>2019-12-21T09:13:58.358Z</time>
      </trkpt>
      <trkpt lat="41.32770167" lon="1.914725">
        <ele>371.0</ele>
        <time>2019-12-21T09:13:59.361Z</time>
      </trkpt>
      <trkpt lat="41.32770167" lon="1.914725">
        <ele>371.0</ele>
        <time>2019-12-21T09:14:00.353Z</time>
      </trkpt>
      <trkpt lat="41.32765333" lon="1.91465333">
        <ele>370.0</ele>
        <time>2019-12-21T09:14:01.358Z</time>
      </trkpt>
      <trkpt lat="41.32765333" lon="1.91465333">
        <ele>370.0</ele>
        <time>2019-12-21T09:14:02.353Z</time>
      </trkpt>
      <trkpt lat="41.327605" lon="1.91458">
        <ele>370.0</ele>
        <time>2019-12-21T09:14:03.357Z</time>
      </trkpt>
      <trkpt lat="41.327605" lon="1.91458">
        <ele>370.0</ele>
        <time>2019-12-21T09:14:04.352Z</time>
      </trkpt>
      <trkpt lat="41.327555" lon="1.91450833">
        <ele>370.0</ele>
        <time>2019-12-21T09:14:05.333Z</time>
      </trkpt>
      <trkpt lat="41.32753" lon="1.91447167">
        <ele>370.0</ele>
        <time>2019-12-21T09:14:06.349Z</time>
      </trkpt>
      <trkpt lat="41.32753" lon="1.91447167">
        <ele>370.0</ele>
        <time>2019-12-21T09:14:07.371Z</time>
      </trkpt>
      <trkpt lat="41.32747833" lon="1.91440333">
        <ele>370.0</ele>
        <time>2019-12-21T09:14:08.358Z</time>
      </trkpt>
      <trkpt lat="41.32747833" lon="1.91440333">
        <ele>370.0</ele>
        <time>2019-12-21T09:14:09.353Z</time>
      </trkpt>
      <trkpt lat="41.32742333" lon="1.91433833">
        <ele>370.0</ele>
        <time>2019-12-21T09:14:10.368Z</time>
      </trkpt>
      <trkpt lat="41.327395" lon="1.91430833">
        <ele>370.0</ele>
        <time>2019-12-21T09:14:11.373Z</time>
      </trkpt>
      <trkpt lat="41.327395" lon="1.91430833">
        <ele>370.0</ele>
        <time>2019-12-21T09:14:12.354Z</time>
      </trkpt>
      <trkpt lat="41.32734" lon="1.91424333">
        <ele>370.0</ele>
        <time>2019-12-21T09:14:13.358Z</time>
      </trkpt>
      <trkpt lat="41.32734" lon="1.91424333">
        <ele>370.0</ele>
        <time>2019-12-21T09:14:14.352Z</time>
      </trkpt>
      <trkpt lat="41.32728" lon="1.91417667">
        <ele>370.0</ele>
        <time>2019-12-21T09:14:15.358Z</time>
      </trkpt>
      <trkpt lat="41.32728" lon="1.91417667">
        <ele>370.0</ele>
        <time>2019-12-21T09:14:16.352Z</time>
      </trkpt>
      <trkpt lat="41.32722167" lon="1.91411">
        <ele>369.0</ele>
        <time>2019-12-21T09:14:17.334Z</time>
      </trkpt>
      <trkpt lat="41.32722167" lon="1.91411">
        <ele>369.0</ele>
        <time>2019-12-21T09:14:18.356Z</time>
      </trkpt>
      <trkpt lat="41.32716167" lon="1.91404333">
        <ele>369.0</ele>
        <time>2019-12-21T09:14:19.355Z</time>
      </trkpt>
      <trkpt lat="41.32716167" lon="1.91404333">
        <ele>369.0</ele>
        <time>2019-12-21T09:14:20.353Z</time>
      </trkpt>
      <trkpt lat="41.32709667" lon="1.913985">
        <ele>369.0</ele>
        <time>2019-12-21T09:14:21.358Z</time>
      </trkpt>
      <trkpt lat="41.32709667" lon="1.913985">
        <ele>369.0</ele>
        <time>2019-12-21T09:14:22.351Z</time>
      </trkpt>
      <trkpt lat="41.32703167" lon="1.91392833">
        <ele>369.0</ele>
        <time>2019-12-21T09:14:23.333Z</time>
      </trkpt>
      <trkpt lat="41.32703167" lon="1.91392833">
        <ele>369.0</ele>
        <time>2019-12-21T09:14:24.356Z</time>
      </trkpt>
      <trkpt lat="41.32696833" lon="1.91387333">
        <ele>369.0</ele>
        <time>2019-12-21T09:14:25.358Z</time>
      </trkpt>
      <trkpt lat="41.32696833" lon="1.91387333">
        <ele>369.0</ele>
        <time>2019-12-21T09:14:26.353Z</time>
      </trkpt>
      <trkpt lat="41.32691667" lon="1.913805">
        <ele>369.0</ele>
        <time>2019-12-21T09:14:27.357Z</time>
      </trkpt>
      <trkpt lat="41.32688833" lon="1.913775">
        <ele>369.0</ele>
        <time>2019-12-21T09:14:28.359Z</time>
      </trkpt>
      <trkpt lat="41.32688833" lon="1.913775">
        <ele>369.0</ele>
        <time>2019-12-21T09:14:29.354Z</time>
      </trkpt>
      <trkpt lat="41.326835" lon="1.91371">
        <ele>369.0</ele>
        <time>2019-12-21T09:14:30.357Z</time>
      </trkpt>
      <trkpt lat="41.326835" lon="1.91371">
        <ele>369.0</ele>
        <time>2019-12-21T09:14:31.356Z</time>
      </trkpt>
      <trkpt lat="41.32677333" lon="1.91364667">
        <ele>369.0</ele>
        <time>2019-12-21T09:14:32.357Z</time>
      </trkpt>
      <trkpt lat="41.32677333" lon="1.91364667">
        <ele>369.0</ele>
        <time>2019-12-21T09:14:33.352Z</time>
      </trkpt>
      <trkpt lat="41.32670667" lon="1.91357667">
        <ele>369.0</ele>
        <time>2019-12-21T09:14:34.334Z</time>
      </trkpt>
      <trkpt lat="41.32667333" lon="1.91354667">
        <ele>369.0</ele>
        <time>2019-12-21T09:14:35.360Z</time>
      </trkpt>
      <trkpt lat="41.32664167" lon="1.91351667">
        <ele>369.0</ele>
        <time>2019-12-21T09:14:36.358Z</time>
      </trkpt>
      <trkpt lat="41.32664167" lon="1.91351667">
        <ele>369.0</ele>
        <time>2019-12-21T09:14:37.353Z</time>
      </trkpt>
      <trkpt lat="41.32657333" lon="1.91346167">
        <ele>369.0</ele>
        <time>2019-12-21T09:14:38.358Z</time>
      </trkpt>
      <trkpt lat="41.32657333" lon="1.91346167">
        <ele>369.0</ele>
        <time>2019-12-21T09:14:39.353Z</time>
      </trkpt>
      <trkpt lat="41.32650333" lon="1.91342">
        <ele>370.0</ele>
        <time>2019-12-21T09:14:40.357Z</time>
      </trkpt>
      <trkpt lat="41.32650333" lon="1.91342">
        <ele>370.0</ele>
        <time>2019-12-21T09:14:41.356Z</time>
      </trkpt>
      <trkpt lat="41.32643667" lon="1.91338">
        <ele>370.0</ele>
        <time>2019-12-21T09:14:42.358Z</time>
      </trkpt>
      <trkpt lat="41.32643667" lon="1.91338">
        <ele>370.0</ele>
        <time>2019-12-21T09:14:43.356Z</time>
      </trkpt>
      <trkpt lat="41.326365" lon="1.91334">
        <ele>371.0</ele>
        <time>2019-12-21T09:14:44.367Z</time>
      </trkpt>
      <trkpt lat="41.32633" lon="1.91331833">
        <ele>372.0</ele>
        <time>2019-12-21T09:14:45.360Z</time>
      </trkpt>
      <trkpt lat="41.32633" lon="1.91331833">
        <ele>372.0</ele>
        <time>2019-12-21T09:14:46.353Z</time>
      </trkpt>
      <trkpt lat="41.32627333" lon="1.91327333">
        <ele>372.0</ele>
        <time>2019-12-21T09:14:47.336Z</time>
      </trkpt>
      <trkpt lat="41.32627333" lon="1.91327333">
        <ele>372.0</ele>
        <time>2019-12-21T09:14:48.358Z</time>
      </trkpt>
      <trkpt lat="41.32621667" lon="1.91322833">
        <ele>373.0</ele>
        <time>2019-12-21T09:14:49.358Z</time>
      </trkpt>
      <trkpt lat="41.32621667" lon="1.91322833">
        <ele>373.0</ele>
        <time>2019-12-21T09:14:50.353Z</time>
      </trkpt>
      <trkpt lat="41.32617333" lon="1.913165">
        <ele>374.0</ele>
        <time>2019-12-21T09:14:51.337Z</time>
      </trkpt>
      <trkpt lat="41.32615333" lon="1.91313333">
        <ele>374.0</ele>
        <time>2019-12-21T09:14:52.359Z</time>
      </trkpt>
      <trkpt lat="41.32613833" lon="1.91309833">
        <ele>374.0</ele>
        <time>2019-12-21T09:14:53.343Z</time>
      </trkpt>
      <trkpt lat="41.32613833" lon="1.91309833">
        <ele>374.0</ele>
        <time>2019-12-21T09:14:54.347Z</time>
      </trkpt>
      <trkpt lat="41.32611333" lon="1.91302833">
        <ele>375.0</ele>
        <time>2019-12-21T09:14:55.365Z</time>
      </trkpt>
      <trkpt lat="41.32610167" lon="1.91298833">
        <ele>376.0</ele>
        <time>2019-12-21T09:14:56.359Z</time>
      </trkpt>
      <trkpt lat="41.32610167" lon="1.91298833">
        <ele>376.0</ele>
        <time>2019-12-21T09:14:57.353Z</time>
      </trkpt>
      <trkpt lat="41.326075" lon="1.91290667">
        <ele>376.0</ele>
        <time>2019-12-21T09:14:58.358Z</time>
      </trkpt>
      <trkpt lat="41.32605167" lon="1.91286833">
        <ele>377.0</ele>
        <time>2019-12-21T09:14:59.361Z</time>
      </trkpt>
      <trkpt lat="41.32605167" lon="1.91286833">
        <ele>377.0</ele>
        <time>2019-12-21T09:15:00.353Z</time>
      </trkpt>
      <trkpt lat="41.32601667" lon="1.91278667">
        <ele>378.0</ele>
        <time>2019-12-21T09:15:01.358Z</time>
      </trkpt>
      <trkpt lat="41.32601667" lon="1.91278667">
        <ele>378.0</ele>
        <time>2019-12-21T09:15:02.354Z</time>
      </trkpt>
      <trkpt lat="41.325995" lon="1.91271167">
        <ele>379.0</ele>
        <time>2019-12-21T09:15:03.358Z</time>
      </trkpt>
      <trkpt lat="41.325995" lon="1.91271167">
        <ele>379.0</ele>
        <time>2019-12-21T09:15:04.353Z</time>
      </trkpt>
      <trkpt lat="41.32597167" lon="1.91263833">
        <ele>379.0</ele>
        <time>2019-12-21T09:15:05.335Z</time>
      </trkpt>
      <trkpt lat="41.32597167" lon="1.91263833">
        <ele>379.0</ele>
        <time>2019-12-21T09:15:06.357Z</time>
      </trkpt>
      <trkpt lat="41.325945" lon="1.912575">
        <ele>379.0</ele>
        <time>2019-12-21T09:15:07.358Z</time>
      </trkpt>
      <trkpt lat="41.325945" lon="1.912575">
        <ele>379.0</ele>
        <time>2019-12-21T09:15:08.353Z</time>
      </trkpt>
      <trkpt lat="41.325915" lon="1.912515">
        <ele>380.0</ele>
        <time>2019-12-21T09:15:09.355Z</time>
      </trkpt>
      <trkpt lat="41.325915" lon="1.912515">
        <ele>380.0</ele>
        <time>2019-12-21T09:15:10.371Z</time>
      </trkpt>
      <trkpt lat="41.32588" lon="1.91246333">
        <ele>380.0</ele>
        <time>2019-12-21T09:15:11.336Z</time>
      </trkpt>
      <trkpt lat="41.32588" lon="1.91246333">
        <ele>380.0</ele>
        <time>2019-12-21T09:15:12.358Z</time>
      </trkpt>
      <trkpt lat="41.325835" lon="1.91242833">
        <ele>380.0</ele>
        <time>2019-12-21T09:15:13.360Z</time>
      </trkpt>
      <trkpt lat="41.325835" lon="1.91242833">
        <ele>380.0</ele>
        <time>2019-12-21T09:15:14.354Z</time>
      </trkpt>
      <trkpt lat="41.32579333" lon="1.912395">
        <ele>381.0</ele>
        <time>2019-12-21T09:15:15.334Z</time>
      </trkpt>
      <trkpt lat="41.32579333" lon="1.912395">
        <ele>381.0</ele>
        <time>2019-12-21T09:15:16.356Z</time>
      </trkpt>
      <trkpt lat="41.32575" lon="1.91235667">
        <ele>380.0</ele>
        <time>2019-12-21T09:15:17.360Z</time>
      </trkpt>
      <trkpt lat="41.32575" lon="1.91235667">
        <ele>380.0</ele>
        <time>2019-12-21T09:15:18.356Z</time>
      </trkpt>
      <trkpt lat="41.3257" lon="1.91232">
        <ele>379.0</ele>
        <time>2019-12-21T09:15:19.358Z</time>
      </trkpt>
      <trkpt lat="41.3257" lon="1.91232">
        <ele>379.0</ele>
        <time>2019-12-21T09:15:20.353Z</time>
      </trkpt>
      <trkpt lat="41.325645" lon="1.91228833">
        <ele>379.0</ele>
        <time>2019-12-21T09:15:21.358Z</time>
      </trkpt>
      <trkpt lat="41.325645" lon="1.91228833">
        <ele>379.0</ele>
        <time>2019-12-21T09:15:22.353Z</time>
      </trkpt>
      <trkpt lat="41.32558833" lon="1.91226167">
        <ele>379.0</ele>
        <time>2019-12-21T09:15:23.336Z</time>
      </trkpt>
      <trkpt lat="41.32555833" lon="1.91225167">
        <ele>378.0</ele>
        <time>2019-12-21T09:15:24.358Z</time>
      </trkpt>
      <trkpt lat="41.32555833" lon="1.91225167">
        <ele>378.0</ele>
        <time>2019-12-21T09:15:25.370Z</time>
      </trkpt>
      <trkpt lat="41.32549333" lon="1.91223">
        <ele>378.0</ele>
        <time>2019-12-21T09:15:26.356Z</time>
      </trkpt>
      <trkpt lat="41.32546333" lon="1.91222">
        <ele>378.0</ele>
        <time>2019-12-21T09:15:27.358Z</time>
      </trkpt>
      <trkpt lat="41.32546333" lon="1.91222">
        <ele>378.0</ele>
        <time>2019-12-21T09:15:28.353Z</time>
      </trkpt>
      <trkpt lat="41.325405" lon="1.91219333">
        <ele>378.0</ele>
        <time>2019-12-21T09:15:29.336Z</time>
      </trkpt>
      <trkpt lat="41.325405" lon="1.91219333">
        <ele>378.0</ele>
        <time>2019-12-21T09:15:30.358Z</time>
      </trkpt>
      <trkpt lat="41.32535667" lon="1.91213833">
        <ele>378.0</ele>
        <time>2019-12-21T09:15:31.358Z</time>
      </trkpt>
      <trkpt lat="41.32535667" lon="1.91213833">
        <ele>378.0</ele>
        <time>2019-12-21T09:15:32.353Z</time>
      </trkpt>
      <trkpt lat="41.32533833" lon="1.91206333">
        <ele>378.0</ele>
        <time>2019-12-21T09:15:33.358Z</time>
      </trkpt>
      <trkpt lat="41.32533167" lon="1.91203167">
        <ele>379.0</ele>
        <time>2019-12-21T09:15:34.356Z</time>
      </trkpt>
      <trkpt lat="41.32533" lon="1.91200167">
        <ele>379.0</ele>
        <time>2019-12-21T09:15:35.359Z</time>
      </trkpt>
      <trkpt lat="41.32533" lon="1.91200167">
        <ele>379.0</ele>
        <time>2019-12-21T09:15:36.353Z</time>
      </trkpt>
      <trkpt lat="41.32532833" lon="1.91193833">
        <ele>379.0</ele>
        <time>2019-12-21T09:15:37.358Z</time>
      </trkpt>
      <trkpt lat="41.32532667" lon="1.91191">
        <ele>379.0</ele>
        <time>2019-12-21T09:15:38.361Z</time>
      </trkpt>
      <trkpt lat="41.32532667" lon="1.91191">
        <ele>379.0</ele>
        <time>2019-12-21T09:15:39.353Z</time>
      </trkpt>
      <trkpt lat="41.32531833" lon="1.91185167">
        <ele>379.0</ele>
        <time>2019-12-21T09:15:40.358Z</time>
      </trkpt>
      <trkpt lat="41.32531667" lon="1.91182167">
        <ele>379.0</ele>
        <time>2019-12-21T09:15:41.364Z</time>
      </trkpt>
      <trkpt lat="41.32531667" lon="1.91182167">
        <ele>379.0</ele>
        <time>2019-12-21T09:15:42.353Z</time>
      </trkpt>
      <trkpt lat="41.32531167" lon="1.91176667">
        <ele>380.0</ele>
        <time>2019-12-21T09:15:43.368Z</time>
      </trkpt>
      <trkpt lat="41.32531167" lon="1.91176667">
        <ele>380.0</ele>
        <time>2019-12-21T09:15:44.353Z</time>
      </trkpt>
      <trkpt lat="41.32530167" lon="1.91171167">
        <ele>379.0</ele>
        <time>2019-12-21T09:15:45.359Z</time>
      </trkpt>
      <trkpt lat="41.32529333" lon="1.91168167">
        <ele>380.0</ele>
        <time>2019-12-21T09:15:46.359Z</time>
      </trkpt>
      <trkpt lat="41.32529333" lon="1.91168167">
        <ele>380.0</ele>
        <time>2019-12-21T09:15:47.356Z</time>
      </trkpt>
      <trkpt lat="41.32527833" lon="1.911625">
        <ele>380.0</ele>
        <time>2019-12-21T09:15:48.359Z</time>
      </trkpt>
      <trkpt lat="41.32527833" lon="1.911625">
        <ele>380.0</ele>
        <time>2019-12-21T09:15:49.353Z</time>
      </trkpt>
      <trkpt lat="41.32526167" lon="1.91156833">
        <ele>380.0</ele>
        <time>2019-12-21T09:15:50.358Z</time>
      </trkpt>
      <trkpt lat="41.32526167" lon="1.91156833">
        <ele>380.0</ele>
        <time>2019-12-21T09:15:51.358Z</time>
      </trkpt>
      <trkpt lat="41.32524" lon="1.91151167">
        <ele>380.0</ele>
        <time>2019-12-21T09:15:52.358Z</time>
      </trkpt>
      <trkpt lat="41.32522833" lon="1.91148833">
        <ele>381.0</ele>
        <time>2019-12-21T09:15:53.361Z</time>
      </trkpt>
      <trkpt lat="41.32522833" lon="1.91148833">
        <ele>381.0</ele>
        <time>2019-12-21T09:15:54.350Z</time>
      </trkpt>
      <trkpt lat="41.32520333" lon="1.91144333">
        <ele>381.0</ele>
        <time>2019-12-21T09:15:55.337Z</time>
      </trkpt>
      <trkpt lat="41.32518833" lon="1.911425">
        <ele>382.0</ele>
        <time>2019-12-21T09:15:56.343Z</time>
      </trkpt>
      <trkpt lat="41.32518833" lon="1.911425">
        <ele>382.0</ele>
        <time>2019-12-21T09:15:57.351Z</time>
      </trkpt>
      <trkpt lat="41.325155" lon="1.91137833">
        <ele>382.0</ele>
        <time>2019-12-21T09:15:58.356Z</time>
      </trkpt>
      <trkpt lat="41.32514167" lon="1.911355">
        <ele>382.0</ele>
        <time>2019-12-21T09:15:59.362Z</time>
      </trkpt>
      <trkpt lat="41.32512833" lon="1.91132833">
        <ele>382.0</ele>
        <time>2019-12-21T09:16:00.359Z</time>
      </trkpt>
      <trkpt lat="41.32512833" lon="1.91132833">
        <ele>382.0</ele>
        <time>2019-12-21T09:16:01.353Z</time>
      </trkpt>
      <trkpt lat="41.32509833" lon="1.91127333">
        <ele>382.0</ele>
        <time>2019-12-21T09:16:02.371Z</time>
      </trkpt>
      <trkpt lat="41.32509833" lon="1.91127333">
        <ele>382.0</ele>
        <time>2019-12-21T09:16:03.367Z</time>
      </trkpt>
      <trkpt lat="41.32507" lon="1.91121167">
        <ele>382.0</ele>
        <time>2019-12-21T09:16:04.359Z</time>
      </trkpt>
      <trkpt lat="41.325055" lon="1.91118167">
        <ele>382.0</ele>
        <time>2019-12-21T09:16:05.360Z</time>
      </trkpt>
      <trkpt lat="41.325055" lon="1.91118167">
        <ele>382.0</ele>
        <time>2019-12-21T09:16:06.353Z</time>
      </trkpt>
      <trkpt lat="41.32503167" lon="1.91112167">
        <ele>382.0</ele>
        <time>2019-12-21T09:16:07.335Z</time>
      </trkpt>
      <trkpt lat="41.32503167" lon="1.91112167">
        <ele>382.0</ele>
        <time>2019-12-21T09:16:08.358Z</time>
      </trkpt>
      <trkpt lat="41.32501167" lon="1.91106833">
        <ele>383.0</ele>
        <time>2019-12-21T09:16:09.359Z</time>
      </trkpt>
      <trkpt lat="41.32501167" lon="1.91106833">
        <ele>383.0</ele>
        <time>2019-12-21T09:16:10.363Z</time>
      </trkpt>
      <trkpt lat="41.324985" lon="1.91102667">
        <ele>383.0</ele>
        <time>2019-12-21T09:16:11.361Z</time>
      </trkpt>
      <trkpt lat="41.324985" lon="1.91102667">
        <ele>383.0</ele>
        <time>2019-12-21T09:16:12.353Z</time>
      </trkpt>
      <trkpt lat="41.324965" lon="1.91097667">
        <ele>384.0</ele>
        <time>2019-12-21T09:16:13.359Z</time>
      </trkpt>
      <trkpt lat="41.324965" lon="1.91097667">
        <ele>384.0</ele>
        <time>2019-12-21T09:16:14.357Z</time>
      </trkpt>
      <trkpt lat="41.32495833" lon="1.91093167">
        <ele>385.0</ele>
        <time>2019-12-21T09:16:15.358Z</time>
      </trkpt>
      <trkpt lat="41.32495833" lon="1.91093167">
        <ele>385.0</ele>
        <time>2019-12-21T09:16:16.353Z</time>
      </trkpt>
      <trkpt lat="41.32494667" lon="1.91087833">
        <ele>385.0</ele>
        <time>2019-12-21T09:16:17.335Z</time>
      </trkpt>
      <trkpt lat="41.32494667" lon="1.91087833">
        <ele>385.0</ele>
        <time>2019-12-21T09:16:18.357Z</time>
      </trkpt>
      <trkpt lat="41.32492667" lon="1.91083333">
        <ele>385.0</ele>
        <time>2019-12-21T09:16:19.360Z</time>
      </trkpt>
      <trkpt lat="41.32492667" lon="1.91083333">
        <ele>385.0</ele>
        <time>2019-12-21T09:16:20.353Z</time>
      </trkpt>
      <trkpt lat="41.32488833" lon="1.91081833">
        <ele>385.0</ele>
        <time>2019-12-21T09:16:21.356Z</time>
      </trkpt>
      <trkpt lat="41.32488833" lon="1.91081833">
        <ele>385.0</ele>
        <time>2019-12-21T09:16:22.339Z</time>
      </trkpt>
      <trkpt lat="41.324845" lon="1.91081167">
        <ele>386.0</ele>
        <time>2019-12-21T09:16:23.363Z</time>
      </trkpt>
      <trkpt lat="41.324845" lon="1.91081167">
        <ele>386.0</ele>
        <time>2019-12-21T09:16:24.354Z</time>
      </trkpt>
      <trkpt lat="41.32480167" lon="1.91080333">
        <ele>386.0</ele>
        <time>2019-12-21T09:16:25.359Z</time>
      </trkpt>
      <trkpt lat="41.32480167" lon="1.91080333">
        <ele>386.0</ele>
        <time>2019-12-21T09:16:26.353Z</time>
      </trkpt>
      <trkpt lat="41.32475167" lon="1.91079167">
        <ele>385.0</ele>
        <time>2019-12-21T09:16:27.359Z</time>
      </trkpt>
      <trkpt lat="41.32475167" lon="1.91079167">
        <ele>385.0</ele>
        <time>2019-12-21T09:16:28.353Z</time>
      </trkpt>
      <trkpt lat="41.32469833" lon="1.91078">
        <ele>385.0</ele>
        <time>2019-12-21T09:16:29.335Z</time>
      </trkpt>
      <trkpt lat="41.32469833" lon="1.91078">
        <ele>385.0</ele>
        <time>2019-12-21T09:16:30.357Z</time>
      </trkpt>
      <trkpt lat="41.32464" lon="1.910765">
        <ele>385.0</ele>
        <time>2019-12-21T09:16:31.358Z</time>
      </trkpt>
      <trkpt lat="41.32464" lon="1.910765">
        <ele>385.0</ele>
        <time>2019-12-21T09:16:32.350Z</time>
      </trkpt>
      <trkpt lat="41.32457833" lon="1.91074667">
        <ele>385.0</ele>
        <time>2019-12-21T09:16:33.372Z</time>
      </trkpt>
      <trkpt lat="41.32454667" lon="1.91073833">
        <ele>384.0</ele>
        <time>2019-12-21T09:16:34.361Z</time>
      </trkpt>
      <trkpt lat="41.32454667" lon="1.91073833">
        <ele>384.0</ele>
        <time>2019-12-21T09:16:35.356Z</time>
      </trkpt>
      <trkpt lat="41.32448333" lon="1.91072">
        <ele>384.0</ele>
        <time>2019-12-21T09:16:36.358Z</time>
      </trkpt>
      <trkpt lat="41.32448333" lon="1.91072">
        <ele>384.0</ele>
        <time>2019-12-21T09:16:37.353Z</time>
      </trkpt>
      <trkpt lat="41.32441833" lon="1.91069667">
        <ele>384.0</ele>
        <time>2019-12-21T09:16:38.359Z</time>
      </trkpt>
      <trkpt lat="41.32441833" lon="1.91069667">
        <ele>384.0</ele>
        <time>2019-12-21T09:16:39.353Z</time>
      </trkpt>
      <trkpt lat="41.324365" lon="1.91068167">
        <ele>384.0</ele>
        <time>2019-12-21T09:16:40.335Z</time>
      </trkpt>
      <trkpt lat="41.32435" lon="1.91068">
        <ele>383.0</ele>
        <time>2019-12-21T09:16:41.361Z</time>
      </trkpt>
      <trkpt lat="41.32435" lon="1.91068">
        <ele>383.0</ele>
        <time>2019-12-21T09:16:42.358Z</time>
      </trkpt>
      <trkpt lat="41.32434833" lon="1.91067833">
        <ele>383.0</ele>
        <time>2019-12-21T09:16:43.359Z</time>
      </trkpt>
      <trkpt lat="41.32434833" lon="1.91067833">
        <ele>383.0</ele>
        <time>2019-12-21T09:16:44.353Z</time>
      </trkpt>
      <trkpt lat="41.32435" lon="1.91068">
        <ele>383.0</ele>
        <time>2019-12-21T09:16:45.364Z</time>
      </trkpt>
      <trkpt lat="41.324345" lon="1.91069833">
        <ele>379.0</ele>
        <time>2019-12-21T09:16:46.363Z</time>
      </trkpt>
      <trkpt lat="41.324345" lon="1.91069833">
        <ele>379.0</ele>
        <time>2019-12-21T09:16:47.356Z</time>
      </trkpt>
      <trkpt lat="41.32430667" lon="1.91069833">
        <ele>379.0</ele>
        <time>2019-12-21T09:16:48.338Z</time>
      </trkpt>
      <trkpt lat="41.32430667" lon="1.91069833">
        <ele>379.0</ele>
        <time>2019-12-21T09:16:49.362Z</time>
      </trkpt>
      <trkpt lat="41.32426167" lon="1.910695">
        <ele>379.0</ele>
        <time>2019-12-21T09:16:50.366Z</time>
      </trkpt>
      <trkpt lat="41.32426167" lon="1.910695">
        <ele>379.0</ele>
        <time>2019-12-21T09:16:51.359Z</time>
      </trkpt>
      <trkpt lat="41.32422" lon="1.91069333">
        <ele>379.0</ele>
        <time>2019-12-21T09:16:52.364Z</time>
      </trkpt>
      <trkpt lat="41.32422" lon="1.91069333">
        <ele>379.0</ele>
        <time>2019-12-21T09:16:53.359Z</time>
      </trkpt>
      <trkpt lat="41.32417833" lon="1.91069">
        <ele>379.0</ele>
        <time>2019-12-21T09:16:54.366Z</time>
      </trkpt>
      <trkpt lat="41.32417833" lon="1.91069">
        <ele>379.0</ele>
        <time>2019-12-21T09:16:55.367Z</time>
      </trkpt>
      <trkpt lat="41.32416667" lon="1.91069333">
        <ele>379.0</ele>
        <time>2019-12-21T09:16:56.367Z</time>
      </trkpt>
      <trkpt lat="41.32416667" lon="1.91069333">
        <ele>379.0</ele>
        <time>2019-12-21T09:16:57.359Z</time>
      </trkpt>
      <trkpt lat="41.32413667" lon="1.9107">
        <ele>379.0</ele>
        <time>2019-12-21T09:16:58.335Z</time>
      </trkpt>
      <trkpt lat="41.32413667" lon="1.9107">
        <ele>379.0</ele>
        <time>2019-12-21T09:16:59.359Z</time>
      </trkpt>
      <trkpt lat="41.32409" lon="1.91069">
        <ele>379.0</ele>
        <time>2019-12-21T09:17:00.364Z</time>
      </trkpt>
      <trkpt lat="41.32409" lon="1.91069">
        <ele>379.0</ele>
        <time>2019-12-21T09:17:01.359Z</time>
      </trkpt>
      <trkpt lat="41.32403" lon="1.91068333">
        <ele>379.0</ele>
        <time>2019-12-21T09:17:02.342Z</time>
      </trkpt>
      <trkpt lat="41.32403" lon="1.91068333">
        <ele>379.0</ele>
        <time>2019-12-21T09:17:03.364Z</time>
      </trkpt>
      <trkpt lat="41.32396833" lon="1.91068167">
        <ele>379.0</ele>
        <time>2019-12-21T09:17:04.368Z</time>
      </trkpt>
      <trkpt lat="41.32396833" lon="1.91068167">
        <ele>379.0</ele>
        <time>2019-12-21T09:17:05.359Z</time>
      </trkpt>
      <trkpt lat="41.32391" lon="1.91065667">
        <ele>379.0</ele>
        <time>2019-12-21T09:17:06.362Z</time>
      </trkpt>
      <trkpt lat="41.32391" lon="1.91065667">
        <ele>379.0</ele>
        <time>2019-12-21T09:17:07.365Z</time>
      </trkpt>
      <trkpt lat="41.32385333" lon="1.91063167">
        <ele>380.0</ele>
        <time>2019-12-21T09:17:08.342Z</time>
      </trkpt>
      <trkpt lat="41.32385333" lon="1.91063167">
        <ele>380.0</ele>
        <time>2019-12-21T09:17:09.362Z</time>
      </trkpt>
      <trkpt lat="41.32380167" lon="1.91059333">
        <ele>380.0</ele>
        <time>2019-12-21T09:17:10.359Z</time>
      </trkpt>
      <trkpt lat="41.32380167" lon="1.91059333">
        <ele>380.0</ele>
        <time>2019-12-21T09:17:11.357Z</time>
      </trkpt>
      <trkpt lat="41.323755" lon="1.91056">
        <ele>381.0</ele>
        <time>2019-12-21T09:17:12.339Z</time>
      </trkpt>
      <trkpt lat="41.323755" lon="1.91056">
        <ele>381.0</ele>
        <time>2019-12-21T09:17:13.362Z</time>
      </trkpt>
      <trkpt lat="41.32371667" lon="1.91053667">
        <ele>381.0</ele>
        <time>2019-12-21T09:17:14.363Z</time>
      </trkpt>
      <trkpt lat="41.32371667" lon="1.91053667">
        <ele>381.0</ele>
        <time>2019-12-21T09:17:15.356Z</time>
      </trkpt>
      <trkpt lat="41.32366333" lon="1.91052333">
        <ele>381.0</ele>
        <time>2019-12-21T09:17:16.359Z</time>
      </trkpt>
      <trkpt lat="41.32366333" lon="1.91052333">
        <ele>381.0</ele>
        <time>2019-12-21T09:17:17.359Z</time>
      </trkpt>
      <trkpt lat="41.32360167" lon="1.91050667">
        <ele>382.0</ele>
        <time>2019-12-21T09:17:18.363Z</time>
      </trkpt>
      <trkpt lat="41.32360167" lon="1.91050667">
        <ele>382.0</ele>
        <time>2019-12-21T09:17:19.354Z</time>
      </trkpt>
      <trkpt lat="41.32355" lon="1.910485">
        <ele>383.0</ele>
        <time>2019-12-21T09:17:20.337Z</time>
      </trkpt>
      <trkpt lat="41.32355" lon="1.910485">
        <ele>383.0</ele>
        <time>2019-12-21T09:17:21.361Z</time>
      </trkpt>
      <trkpt lat="41.32347667" lon="1.91047167">
        <ele>383.0</ele>
        <time>2019-12-21T09:17:22.364Z</time>
      </trkpt>
      <trkpt lat="41.32347667" lon="1.91047167">
        <ele>383.0</ele>
        <time>2019-12-21T09:17:23.356Z</time>
      </trkpt>
      <trkpt lat="41.32339833" lon="1.91045667">
        <ele>384.0</ele>
        <time>2019-12-21T09:17:24.338Z</time>
      </trkpt>
      <trkpt lat="41.32336333" lon="1.91044667">
        <ele>384.0</ele>
        <time>2019-12-21T09:17:25.365Z</time>
      </trkpt>
      <trkpt lat="41.32336333" lon="1.91044667">
        <ele>384.0</ele>
        <time>2019-12-21T09:17:26.361Z</time>
      </trkpt>
      <trkpt lat="41.323275" lon="1.91043833">
        <ele>385.0</ele>
        <time>2019-12-21T09:17:27.363Z</time>
      </trkpt>
      <trkpt lat="41.323275" lon="1.91043833">
        <ele>385.0</ele>
        <time>2019-12-21T09:17:28.359Z</time>
      </trkpt>
      <trkpt lat="41.323185" lon="1.91044333">
        <ele>385.0</ele>
        <time>2019-12-21T09:17:29.337Z</time>
      </trkpt>
      <trkpt lat="41.323185" lon="1.91044333">
        <ele>385.0</ele>
        <time>2019-12-21T09:17:30.361Z</time>
      </trkpt>
      <trkpt lat="41.32311667" lon="1.910455">
        <ele>387.0</ele>
        <time>2019-12-21T09:17:31.363Z</time>
      </trkpt>
      <trkpt lat="41.32308333" lon="1.910455">
        <ele>387.0</ele>
        <time>2019-12-21T09:17:32.363Z</time>
      </trkpt>
      <trkpt lat="41.32308333" lon="1.910455">
        <ele>387.0</ele>
        <time>2019-12-21T09:17:33.354Z</time>
      </trkpt>
      <trkpt lat="41.32301" lon="1.91046667">
        <ele>387.0</ele>
        <time>2019-12-21T09:17:34.337Z</time>
      </trkpt>
      <trkpt lat="41.32301" lon="1.91046667">
        <ele>387.0</ele>
        <time>2019-12-21T09:17:35.359Z</time>
      </trkpt>
      <trkpt lat="41.32293333" lon="1.910485">
        <ele>387.0</ele>
        <time>2019-12-21T09:17:36.364Z</time>
      </trkpt>
      <trkpt lat="41.32293333" lon="1.910485">
        <ele>387.0</ele>
        <time>2019-12-21T09:17:37.353Z</time>
      </trkpt>
      <trkpt lat="41.32285167" lon="1.91050167">
        <ele>388.0</ele>
        <time>2019-12-21T09:17:38.335Z</time>
      </trkpt>
      <trkpt lat="41.32285167" lon="1.91050167">
        <ele>388.0</ele>
        <time>2019-12-21T09:17:39.359Z</time>
      </trkpt>
      <trkpt lat="41.32277" lon="1.91051667">
        <ele>388.0</ele>
        <time>2019-12-21T09:17:40.364Z</time>
      </trkpt>
      <trkpt lat="41.32277" lon="1.91051667">
        <ele>388.0</ele>
        <time>2019-12-21T09:17:41.359Z</time>
      </trkpt>
      <trkpt lat="41.32268667" lon="1.91053667">
        <ele>388.0</ele>
        <time>2019-12-21T09:17:42.338Z</time>
      </trkpt>
      <trkpt lat="41.32268667" lon="1.91053667">
        <ele>388.0</ele>
        <time>2019-12-21T09:17:43.361Z</time>
      </trkpt>
      <trkpt lat="41.32259833" lon="1.91054667">
        <ele>388.0</ele>
        <time>2019-12-21T09:17:44.365Z</time>
      </trkpt>
      <trkpt lat="41.32259833" lon="1.91054667">
        <ele>388.0</ele>
        <time>2019-12-21T09:17:45.358Z</time>
      </trkpt>
      <trkpt lat="41.322515" lon="1.91054667">
        <ele>388.0</ele>
        <time>2019-12-21T09:17:46.340Z</time>
      </trkpt>
      <trkpt lat="41.322515" lon="1.91054667">
        <ele>388.0</ele>
        <time>2019-12-21T09:17:47.362Z</time>
      </trkpt>
      <trkpt lat="41.32243833" lon="1.91055167">
        <ele>388.0</ele>
        <time>2019-12-21T09:17:48.366Z</time>
      </trkpt>
      <trkpt lat="41.32243833" lon="1.91055167">
        <ele>388.0</ele>
        <time>2019-12-21T09:17:49.358Z</time>
      </trkpt>
      <trkpt lat="41.322365" lon="1.910575">
        <ele>387.0</ele>
        <time>2019-12-21T09:17:50.340Z</time>
      </trkpt>
      <trkpt lat="41.322365" lon="1.910575">
        <ele>387.0</ele>
        <time>2019-12-21T09:17:51.340Z</time>
      </trkpt>
      <trkpt lat="41.32229833" lon="1.91061833">
        <ele>387.0</ele>
        <time>2019-12-21T09:17:52.365Z</time>
      </trkpt>
      <trkpt lat="41.32229833" lon="1.91061833">
        <ele>387.0</ele>
        <time>2019-12-21T09:17:53.359Z</time>
      </trkpt>
      <trkpt lat="41.32223333" lon="1.91066">
        <ele>386.0</ele>
        <time>2019-12-21T09:17:54.340Z</time>
      </trkpt>
      <trkpt lat="41.32220333" lon="1.91066833">
        <ele>386.0</ele>
        <time>2019-12-21T09:17:55.358Z</time>
      </trkpt>
      <trkpt lat="41.32217167" lon="1.91067167">
        <ele>386.0</ele>
        <time>2019-12-21T09:17:56.364Z</time>
      </trkpt>
      <trkpt lat="41.32217167" lon="1.91067167">
        <ele>386.0</ele>
        <time>2019-12-21T09:17:57.369Z</time>
      </trkpt>
      <trkpt lat="41.32211" lon="1.91068">
        <ele>386.0</ele>
        <time>2019-12-21T09:17:58.359Z</time>
      </trkpt>
      <trkpt lat="41.32207833" lon="1.910685">
        <ele>386.0</ele>
        <time>2019-12-21T09:17:59.338Z</time>
      </trkpt>
      <trkpt lat="41.32207833" lon="1.910685">
        <ele>386.0</ele>
        <time>2019-12-21T09:18:00.364Z</time>
      </trkpt>
      <trkpt lat="41.32201333" lon="1.91070333">
        <ele>385.0</ele>
        <time>2019-12-21T09:18:01.364Z</time>
      </trkpt>
      <trkpt lat="41.32198" lon="1.91071667">
        <ele>385.0</ele>
        <time>2019-12-21T09:18:02.364Z</time>
      </trkpt>
      <trkpt lat="41.32198" lon="1.91071667">
        <ele>385.0</ele>
        <time>2019-12-21T09:18:03.359Z</time>
      </trkpt>
      <trkpt lat="41.32190833" lon="1.91075">
        <ele>385.0</ele>
        <time>2019-12-21T09:18:04.365Z</time>
      </trkpt>
      <trkpt lat="41.32190833" lon="1.91075">
        <ele>385.0</ele>
        <time>2019-12-21T09:18:05.359Z</time>
      </trkpt>
      <trkpt lat="41.32183833" lon="1.91079">
        <ele>385.0</ele>
        <time>2019-12-21T09:18:06.360Z</time>
      </trkpt>
      <trkpt lat="41.32180667" lon="1.91081167">
        <ele>385.0</ele>
        <time>2019-12-21T09:18:07.372Z</time>
      </trkpt>
      <trkpt lat="41.32178" lon="1.91083167">
        <ele>385.0</ele>
        <time>2019-12-21T09:18:08.367Z</time>
      </trkpt>
      <trkpt lat="41.32178" lon="1.91083167">
        <ele>385.0</ele>
        <time>2019-12-21T09:18:09.359Z</time>
      </trkpt>
      <trkpt lat="41.32172333" lon="1.91087667">
        <ele>385.0</ele>
        <time>2019-12-21T09:18:10.337Z</time>
      </trkpt>
      <trkpt lat="41.32172333" lon="1.91087667">
        <ele>385.0</ele>
        <time>2019-12-21T09:18:11.359Z</time>
      </trkpt>
      <trkpt lat="41.32166" lon="1.91092167">
        <ele>385.0</ele>
        <time>2019-12-21T09:18:12.344Z</time>
      </trkpt>
      <trkpt lat="41.321625" lon="1.91094167">
        <ele>385.0</ele>
        <time>2019-12-21T09:18:13.366Z</time>
      </trkpt>
      <trkpt lat="41.321625" lon="1.91094167">
        <ele>385.0</ele>
        <time>2019-12-21T09:18:14.357Z</time>
      </trkpt>
      <trkpt lat="41.32156" lon="1.910985">
        <ele>385.0</ele>
        <time>2019-12-21T09:18:15.339Z</time>
      </trkpt>
      <trkpt lat="41.32153333" lon="1.91100833">
        <ele>385.0</ele>
        <time>2019-12-21T09:18:16.365Z</time>
      </trkpt>
      <trkpt lat="41.32153333" lon="1.91100833">
        <ele>385.0</ele>
        <time>2019-12-21T09:18:17.359Z</time>
      </trkpt>
      <trkpt lat="41.32148667" lon="1.91105833">
        <ele>385.0</ele>
        <time>2019-12-21T09:18:18.364Z</time>
      </trkpt>
      <trkpt lat="41.32148667" lon="1.91105833">
        <ele>385.0</ele>
        <time>2019-12-21T09:18:19.356Z</time>
      </trkpt>
      <trkpt lat="41.32145333" lon="1.91112333">
        <ele>385.0</ele>
        <time>2019-12-21T09:18:20.338Z</time>
      </trkpt>
      <trkpt lat="41.32145333" lon="1.91112333">
        <ele>385.0</ele>
        <time>2019-12-21T09:18:21.361Z</time>
      </trkpt>
      <trkpt lat="41.32142" lon="1.91122667">
        <ele>385.0</ele>
        <time>2019-12-21T09:18:22.343Z</time>
      </trkpt>
      <trkpt lat="41.321405" lon="1.91126667">
        <ele>385.0</ele>
        <time>2019-12-21T09:18:23.365Z</time>
      </trkpt>
      <trkpt lat="41.321405" lon="1.91126667">
        <ele>385.0</ele>
        <time>2019-12-21T09:18:24.359Z</time>
      </trkpt>
      <trkpt lat="41.32136" lon="1.911335">
        <ele>385.0</ele>
        <time>2019-12-21T09:18:25.335Z</time>
      </trkpt>
      <trkpt lat="41.32132833" lon="1.91135333">
        <ele>385.0</ele>
        <time>2019-12-21T09:18:26.367Z</time>
      </trkpt>
      <trkpt lat="41.32132833" lon="1.91135333">
        <ele>385.0</ele>
        <time>2019-12-21T09:18:27.357Z</time>
      </trkpt>
      <trkpt lat="41.32126" lon="1.911355">
        <ele>386.0</ele>
        <time>2019-12-21T09:18:28.341Z</time>
      </trkpt>
      <trkpt lat="41.32126" lon="1.911355">
        <ele>386.0</ele>
        <time>2019-12-21T09:18:29.362Z</time>
      </trkpt>
      <trkpt lat="41.32118667" lon="1.91134167">
        <ele>386.0</ele>
        <time>2019-12-21T09:18:30.366Z</time>
      </trkpt>
      <trkpt lat="41.32118667" lon="1.91134167">
        <ele>386.0</ele>
        <time>2019-12-21T09:18:31.359Z</time>
      </trkpt>
      <trkpt lat="41.32111167" lon="1.91130833">
        <ele>386.0</ele>
        <time>2019-12-21T09:18:32.342Z</time>
      </trkpt>
      <trkpt lat="41.32111167" lon="1.91130833">
        <ele>386.0</ele>
        <time>2019-12-21T09:18:33.364Z</time>
      </trkpt>
      <trkpt lat="41.32104333" lon="1.91127">
        <ele>387.0</ele>
        <time>2019-12-21T09:18:34.359Z</time>
      </trkpt>
      <trkpt lat="41.32101167" lon="1.91125333">
        <ele>387.0</ele>
        <time>2019-12-21T09:18:35.341Z</time>
      </trkpt>
      <trkpt lat="41.32097833" lon="1.91123167">
        <ele>388.0</ele>
        <time>2019-12-21T09:18:36.365Z</time>
      </trkpt>
      <trkpt lat="41.32097833" lon="1.91123167">
        <ele>388.0</ele>
        <time>2019-12-21T09:18:37.359Z</time>
      </trkpt>
      <trkpt lat="41.32090333" lon="1.91120167">
        <ele>389.0</ele>
        <time>2019-12-21T09:18:38.342Z</time>
      </trkpt>
      <trkpt lat="41.32090333" lon="1.91120167">
        <ele>389.0</ele>
        <time>2019-12-21T09:18:39.370Z</time>
      </trkpt>
      <trkpt lat="41.32083667" lon="1.91120167">
        <ele>390.0</ele>
        <time>2019-12-21T09:18:40.365Z</time>
      </trkpt>
      <trkpt lat="41.32083667" lon="1.91120167">
        <ele>390.0</ele>
        <time>2019-12-21T09:18:41.359Z</time>
      </trkpt>
      <trkpt lat="41.320775" lon="1.91119667">
        <ele>390.0</ele>
        <time>2019-12-21T09:18:42.365Z</time>
      </trkpt>
      <trkpt lat="41.320775" lon="1.91119667">
        <ele>390.0</ele>
        <time>2019-12-21T09:18:43.354Z</time>
      </trkpt>
      <trkpt lat="41.32070333" lon="1.91117667">
        <ele>391.0</ele>
        <time>2019-12-21T09:18:44.337Z</time>
      </trkpt>
      <trkpt lat="41.32066833" lon="1.91116167">
        <ele>391.0</ele>
        <time>2019-12-21T09:18:45.365Z</time>
      </trkpt>
      <trkpt lat="41.32066833" lon="1.91116167">
        <ele>391.0</ele>
        <time>2019-12-21T09:18:46.359Z</time>
      </trkpt>
      <trkpt lat="41.320605" lon="1.91111833">
        <ele>391.0</ele>
        <time>2019-12-21T09:18:47.363Z</time>
      </trkpt>
      <trkpt lat="41.320605" lon="1.91111833">
        <ele>391.0</ele>
        <time>2019-12-21T09:18:48.359Z</time>
      </trkpt>
      <trkpt lat="41.32053167" lon="1.91105167">
        <ele>391.0</ele>
        <time>2019-12-21T09:18:49.337Z</time>
      </trkpt>
      <trkpt lat="41.320495" lon="1.91102167">
        <ele>392.0</ele>
        <time>2019-12-21T09:18:50.368Z</time>
      </trkpt>
      <trkpt lat="41.320495" lon="1.91102167">
        <ele>392.0</ele>
        <time>2019-12-21T09:18:51.351Z</time>
      </trkpt>
      <trkpt lat="41.32042" lon="1.91097167">
        <ele>392.0</ele>
        <time>2019-12-21T09:18:52.333Z</time>
      </trkpt>
      <trkpt lat="41.32038167" lon="1.91095">
        <ele>392.0</ele>
        <time>2019-12-21T09:18:53.364Z</time>
      </trkpt>
      <trkpt lat="41.32038167" lon="1.91095">
        <ele>392.0</ele>
        <time>2019-12-21T09:18:54.370Z</time>
      </trkpt>
      <trkpt lat="41.32030833" lon="1.910925">
        <ele>393.0</ele>
        <time>2019-12-21T09:18:55.371Z</time>
      </trkpt>
      <trkpt lat="41.32027333" lon="1.91091167">
        <ele>393.0</ele>
        <time>2019-12-21T09:18:56.367Z</time>
      </trkpt>
      <trkpt lat="41.32027333" lon="1.91091167">
        <ele>393.0</ele>
        <time>2019-12-21T09:18:57.359Z</time>
      </trkpt>
      <trkpt lat="41.32019333" lon="1.91088833">
        <ele>393.0</ele>
        <time>2019-12-21T09:18:58.363Z</time>
      </trkpt>
      <trkpt lat="41.32015" lon="1.91087167">
        <ele>393.0</ele>
        <time>2019-12-21T09:18:59.366Z</time>
      </trkpt>
      <trkpt lat="41.32015" lon="1.91087167">
        <ele>393.0</ele>
        <time>2019-12-21T09:19:00.359Z</time>
      </trkpt>
      <trkpt lat="41.32006833" lon="1.91083167">
        <ele>394.0</ele>
        <time>2019-12-21T09:19:01.363Z</time>
      </trkpt>
      <trkpt lat="41.32006833" lon="1.91083167">
        <ele>394.0</ele>
        <time>2019-12-21T09:19:02.361Z</time>
      </trkpt>
      <trkpt lat="41.31997833" lon="1.91078667">
        <ele>394.0</ele>
        <time>2019-12-21T09:19:03.337Z</time>
      </trkpt>
      <trkpt lat="41.31997833" lon="1.91078667">
        <ele>394.0</ele>
        <time>2019-12-21T09:19:04.359Z</time>
      </trkpt>
      <trkpt lat="41.319895" lon="1.91075167">
        <ele>394.0</ele>
        <time>2019-12-21T09:19:05.364Z</time>
      </trkpt>
      <trkpt lat="41.319895" lon="1.91075167">
        <ele>394.0</ele>
        <time>2019-12-21T09:19:06.355Z</time>
      </trkpt>
      <trkpt lat="41.31981667" lon="1.91073167">
        <ele>395.0</ele>
        <time>2019-12-21T09:19:07.339Z</time>
      </trkpt>
      <trkpt lat="41.319785" lon="1.91072167">
        <ele>395.0</ele>
        <time>2019-12-21T09:19:08.333Z</time>
      </trkpt>
      <trkpt lat="41.319785" lon="1.91072167">
        <ele>395.0</ele>
        <time>2019-12-21T09:19:09.360Z</time>
      </trkpt>
      <trkpt lat="41.31972333" lon="1.91071">
        <ele>395.0</ele>
        <time>2019-12-21T09:19:10.341Z</time>
      </trkpt>
      <trkpt lat="41.31972333" lon="1.91071">
        <ele>395.0</ele>
        <time>2019-12-21T09:19:11.364Z</time>
      </trkpt>
      <trkpt lat="41.319665" lon="1.91069167">
        <ele>395.0</ele>
        <time>2019-12-21T09:19:12.365Z</time>
      </trkpt>
      <trkpt lat="41.319665" lon="1.91069167">
        <ele>395.0</ele>
        <time>2019-12-21T09:19:13.370Z</time>
      </trkpt>
      <trkpt lat="41.31961" lon="1.91068167">
        <ele>395.0</ele>
        <time>2019-12-21T09:19:14.368Z</time>
      </trkpt>
      <trkpt lat="41.31961" lon="1.91068167">
        <ele>395.0</ele>
        <time>2019-12-21T09:19:15.359Z</time>
      </trkpt>
      <trkpt lat="41.31955833" lon="1.91067167">
        <ele>396.0</ele>
        <time>2019-12-21T09:19:16.341Z</time>
      </trkpt>
      <trkpt lat="41.31955833" lon="1.91067167">
        <ele>396.0</ele>
        <time>2019-12-21T09:19:17.363Z</time>
      </trkpt>
      <trkpt lat="41.319495" lon="1.91066">
        <ele>396.0</ele>
        <time>2019-12-21T09:19:18.364Z</time>
      </trkpt>
      <trkpt lat="41.319495" lon="1.91066">
        <ele>396.0</ele>
        <time>2019-12-21T09:19:19.361Z</time>
      </trkpt>
      <trkpt lat="41.31943833" lon="1.91066167">
        <ele>396.0</ele>
        <time>2019-12-21T09:19:20.364Z</time>
      </trkpt>
      <trkpt lat="41.31943833" lon="1.91066167">
        <ele>396.0</ele>
        <time>2019-12-21T09:19:21.355Z</time>
      </trkpt>
      <trkpt lat="41.31938667" lon="1.91069">
        <ele>397.0</ele>
        <time>2019-12-21T09:19:22.337Z</time>
      </trkpt>
      <trkpt lat="41.31938667" lon="1.91069">
        <ele>397.0</ele>
        <time>2019-12-21T09:19:23.359Z</time>
      </trkpt>
      <trkpt lat="41.319325" lon="1.91072667">
        <ele>397.0</ele>
        <time>2019-12-21T09:19:24.363Z</time>
      </trkpt>
      <trkpt lat="41.319325" lon="1.91072667">
        <ele>397.0</ele>
        <time>2019-12-21T09:19:25.360Z</time>
      </trkpt>
      <trkpt lat="41.31925333" lon="1.91078833">
        <ele>397.0</ele>
        <time>2019-12-21T09:19:26.342Z</time>
      </trkpt>
      <trkpt lat="41.31925333" lon="1.91078833">
        <ele>397.0</ele>
        <time>2019-12-21T09:19:27.364Z</time>
      </trkpt>
      <trkpt lat="41.31918167" lon="1.91084333">
        <ele>398.0</ele>
        <time>2019-12-21T09:19:28.363Z</time>
      </trkpt>
      <trkpt lat="41.31918167" lon="1.91084333">
        <ele>398.0</ele>
        <time>2019-12-21T09:19:29.360Z</time>
      </trkpt>
      <trkpt lat="41.31913333" lon="1.910905">
        <ele>398.0</ele>
        <time>2019-12-21T09:19:30.338Z</time>
      </trkpt>
      <trkpt lat="41.31913333" lon="1.910905">
        <ele>398.0</ele>
        <time>2019-12-21T09:19:31.363Z</time>
      </trkpt>
      <trkpt lat="41.31910167" lon="1.91097167">
        <ele>398.0</ele>
        <time>2019-12-21T09:19:32.366Z</time>
      </trkpt>
      <trkpt lat="41.31910167" lon="1.91097167">
        <ele>398.0</ele>
        <time>2019-12-21T09:19:33.355Z</time>
      </trkpt>
      <trkpt lat="41.31907833" lon="1.91103167">
        <ele>398.0</ele>
        <time>2019-12-21T09:19:34.337Z</time>
      </trkpt>
      <trkpt lat="41.31907833" lon="1.91103167">
        <ele>398.0</ele>
        <time>2019-12-21T09:19:35.360Z</time>
      </trkpt>
      <trkpt lat="41.31903833" lon="1.91108167">
        <ele>399.0</ele>
        <time>2019-12-21T09:19:36.360Z</time>
      </trkpt>
      <trkpt lat="41.31901667" lon="1.91111">
        <ele>399.0</ele>
        <time>2019-12-21T09:19:37.363Z</time>
      </trkpt>
      <trkpt lat="41.31898833" lon="1.91115167">
        <ele>399.0</ele>
        <time>2019-12-21T09:19:38.367Z</time>
      </trkpt>
      <trkpt lat="41.31898833" lon="1.91115167">
        <ele>399.0</ele>
        <time>2019-12-21T09:19:39.360Z</time>
      </trkpt>
      <trkpt lat="41.318915" lon="1.91123">
        <ele>399.0</ele>
        <time>2019-12-21T09:19:40.360Z</time>
      </trkpt>
      <trkpt lat="41.31888833" lon="1.91125333">
        <ele>399.0</ele>
        <time>2019-12-21T09:19:41.366Z</time>
      </trkpt>
      <trkpt lat="41.31888833" lon="1.91125333">
        <ele>399.0</ele>
        <time>2019-12-21T09:19:42.363Z</time>
      </trkpt>
      <trkpt lat="41.31882333" lon="1.911285">
        <ele>400.0</ele>
        <time>2019-12-21T09:19:43.339Z</time>
      </trkpt>
      <trkpt lat="41.31878833" lon="1.91129333">
        <ele>400.0</ele>
        <time>2019-12-21T09:19:44.367Z</time>
      </trkpt>
      <trkpt lat="41.31878833" lon="1.91129333">
        <ele>400.0</ele>
        <time>2019-12-21T09:19:45.360Z</time>
      </trkpt>
      <trkpt lat="41.31873" lon="1.91128833">
        <ele>401.0</ele>
        <time>2019-12-21T09:19:46.341Z</time>
      </trkpt>
      <trkpt lat="41.31873" lon="1.91128833">
        <ele>401.0</ele>
        <time>2019-12-21T09:19:47.363Z</time>
      </trkpt>
      <trkpt lat="41.31867167" lon="1.91128167">
        <ele>402.0</ele>
        <time>2019-12-21T09:19:48.368Z</time>
      </trkpt>
      <trkpt lat="41.31863833" lon="1.91127">
        <ele>402.0</ele>
        <time>2019-12-21T09:19:49.363Z</time>
      </trkpt>
      <trkpt lat="41.31860667" lon="1.91126167">
        <ele>402.0</ele>
        <time>2019-12-21T09:19:50.367Z</time>
      </trkpt>
      <trkpt lat="41.31860667" lon="1.91126167">
        <ele>402.0</ele>
        <time>2019-12-21T09:19:51.355Z</time>
      </trkpt>
      <trkpt lat="41.31854667" lon="1.91125">
        <ele>402.0</ele>
        <time>2019-12-21T09:19:52.337Z</time>
      </trkpt>
      <trkpt lat="41.31854667" lon="1.91125">
        <ele>402.0</ele>
        <time>2019-12-21T09:19:53.365Z</time>
      </trkpt>
      <trkpt lat="41.318465" lon="1.911235">
        <ele>402.0</ele>
        <time>2019-12-21T09:19:54.336Z</time>
      </trkpt>
      <trkpt lat="41.318465" lon="1.911235">
        <ele>402.0</ele>
        <time>2019-12-21T09:19:55.334Z</time>
      </trkpt>
      <trkpt lat="41.31839" lon="1.911235">
        <ele>402.0</ele>
        <time>2019-12-21T09:19:56.340Z</time>
      </trkpt>
      <trkpt lat="41.31839" lon="1.911235">
        <ele>402.0</ele>
        <time>2019-12-21T09:19:57.345Z</time>
      </trkpt>
      <trkpt lat="41.31832833" lon="1.91125333">
        <ele>403.0</ele>
        <time>2019-12-21T09:19:58.368Z</time>
      </trkpt>
      <trkpt lat="41.31832833" lon="1.91125333">
        <ele>403.0</ele>
        <time>2019-12-21T09:19:59.361Z</time>
      </trkpt>
      <trkpt lat="41.31828" lon="1.91129167">
        <ele>403.0</ele>
        <time>2019-12-21T09:20:00.363Z</time>
      </trkpt>
      <trkpt lat="41.31828" lon="1.91129167">
        <ele>403.0</ele>
        <time>2019-12-21T09:20:01.355Z</time>
      </trkpt>
      <trkpt lat="41.31823833" lon="1.91134">
        <ele>403.0</ele>
        <time>2019-12-21T09:20:02.337Z</time>
      </trkpt>
      <trkpt lat="41.31823833" lon="1.91134">
        <ele>403.0</ele>
        <time>2019-12-21T09:20:03.360Z</time>
      </trkpt>
      <trkpt lat="41.31820167" lon="1.911385">
        <ele>404.0</ele>
        <time>2019-12-21T09:20:04.363Z</time>
      </trkpt>
      <trkpt lat="41.31820167" lon="1.911385">
        <ele>404.0</ele>
        <time>2019-12-21T09:20:05.360Z</time>
      </trkpt>
      <trkpt lat="41.31817167" lon="1.91144167">
        <ele>404.0</ele>
        <time>2019-12-21T09:20:06.363Z</time>
      </trkpt>
      <trkpt lat="41.31817167" lon="1.91144167">
        <ele>404.0</ele>
        <time>2019-12-21T09:20:07.368Z</time>
      </trkpt>
      <trkpt lat="41.31813" lon="1.9115">
        <ele>404.0</ele>
        <time>2019-12-21T09:20:08.368Z</time>
      </trkpt>
      <trkpt lat="41.31813" lon="1.9115">
        <ele>404.0</ele>
        <time>2019-12-21T09:20:09.360Z</time>
      </trkpt>
      <trkpt lat="41.31808833" lon="1.911545">
        <ele>404.0</ele>
        <time>2019-12-21T09:20:10.345Z</time>
      </trkpt>
      <trkpt lat="41.31808833" lon="1.911545">
        <ele>404.0</ele>
        <time>2019-12-21T09:20:11.338Z</time>
      </trkpt>
      <trkpt lat="41.31805" lon="1.911585">
        <ele>403.0</ele>
        <time>2019-12-21T09:20:12.343Z</time>
      </trkpt>
      <trkpt lat="41.31805" lon="1.911585">
        <ele>403.0</ele>
        <time>2019-12-21T09:20:13.365Z</time>
      </trkpt>
      <trkpt lat="41.31800667" lon="1.91162333">
        <ele>403.0</ele>
        <time>2019-12-21T09:20:14.368Z</time>
      </trkpt>
      <trkpt lat="41.31800667" lon="1.91162333">
        <ele>403.0</ele>
        <time>2019-12-21T09:20:15.363Z</time>
      </trkpt>
      <trkpt lat="41.31796667" lon="1.91166333">
        <ele>403.0</ele>
        <time>2019-12-21T09:20:16.363Z</time>
      </trkpt>
      <trkpt lat="41.31796667" lon="1.91166333">
        <ele>403.0</ele>
        <time>2019-12-21T09:20:17.372Z</time>
      </trkpt>
      <trkpt lat="41.31792667" lon="1.91171167">
        <ele>403.0</ele>
        <time>2019-12-21T09:20:18.367Z</time>
      </trkpt>
      <trkpt lat="41.31792667" lon="1.91171167">
        <ele>403.0</ele>
        <time>2019-12-21T09:20:19.364Z</time>
      </trkpt>
      <trkpt lat="41.31790167" lon="1.91176667">
        <ele>403.0</ele>
        <time>2019-12-21T09:20:20.367Z</time>
      </trkpt>
      <trkpt lat="41.31790167" lon="1.91176667">
        <ele>403.0</ele>
        <time>2019-12-21T09:20:21.355Z</time>
      </trkpt>
      <trkpt lat="41.31787833" lon="1.911825">
        <ele>403.0</ele>
        <time>2019-12-21T09:20:22.337Z</time>
      </trkpt>
      <trkpt lat="41.31786667" lon="1.91185167">
        <ele>403.0</ele>
        <time>2019-12-21T09:20:23.354Z</time>
      </trkpt>
      <trkpt lat="41.31786667" lon="1.91185167">
        <ele>403.0</ele>
        <time>2019-12-21T09:20:24.335Z</time>
      </trkpt>
      <trkpt lat="41.317855" lon="1.91189">
        <ele>403.0</ele>
        <time>2019-12-21T09:20:25.363Z</time>
      </trkpt>
      <trkpt lat="41.31784667" lon="1.91191333">
        <ele>403.0</ele>
        <time>2019-12-21T09:20:26.365Z</time>
      </trkpt>
      <trkpt lat="41.31784667" lon="1.91191333">
        <ele>403.0</ele>
        <time>2019-12-21T09:20:27.359Z</time>
      </trkpt>
      <trkpt lat="41.31782333" lon="1.91192333">
        <ele>403.0</ele>
        <time>2019-12-21T09:20:28.360Z</time>
      </trkpt>
      <trkpt lat="41.31782333" lon="1.91192333">
        <ele>403.0</ele>
        <time>2019-12-21T09:20:29.339Z</time>
      </trkpt>
      <trkpt lat="41.31780333" lon="1.91191833">
        <ele>403.0</ele>
        <time>2019-12-21T09:20:30.366Z</time>
      </trkpt>
      <trkpt lat="41.31780167" lon="1.91191">
        <ele>403.0</ele>
        <time>2019-12-21T09:20:31.366Z</time>
      </trkpt>
      <trkpt lat="41.31779833" lon="1.91190167">
        <ele>403.0</ele>
        <time>2019-12-21T09:20:32.368Z</time>
      </trkpt>
      <trkpt lat="41.31779833" lon="1.91190167">
        <ele>403.0</ele>
        <time>2019-12-21T09:20:33.363Z</time>
      </trkpt>
      <trkpt lat="41.31779833" lon="1.91190167">
        <ele>403.0</ele>
        <time>2019-12-21T09:20:34.353Z</time>
      </trkpt>
      <trkpt lat="41.31779333" lon="1.91184667">
        <ele>392.0</ele>
        <time>2019-12-21T09:20:35.358Z</time>
      </trkpt>
      <trkpt lat="41.31779333" lon="1.91184667">
        <ele>392.0</ele>
        <time>2019-12-21T09:20:36.353Z</time>
      </trkpt>
      <trkpt lat="41.31777333" lon="1.911825">
        <ele>392.0</ele>
        <time>2019-12-21T09:20:37.358Z</time>
      </trkpt>
      <trkpt lat="41.31777333" lon="1.911825">
        <ele>392.0</ele>
        <time>2019-12-21T09:20:38.353Z</time>
      </trkpt>
      <trkpt lat="41.31776167" lon="1.91181167">
        <ele>392.0</ele>
        <time>2019-12-21T09:20:39.361Z</time>
      </trkpt>
      <trkpt lat="41.31776167" lon="1.91181167">
        <ele>392.0</ele>
        <time>2019-12-21T09:20:40.353Z</time>
      </trkpt>
      <trkpt lat="41.31774333" lon="1.91179167">
        <ele>393.0</ele>
        <time>2019-12-21T09:20:41.358Z</time>
      </trkpt>
      <trkpt lat="41.31774333" lon="1.91179167">
        <ele>393.0</ele>
        <time>2019-12-21T09:20:42.353Z</time>
      </trkpt>
      <trkpt lat="41.31772167" lon="1.911775">
        <ele>393.0</ele>
        <time>2019-12-21T09:20:43.358Z</time>
      </trkpt>
      <trkpt lat="41.31772167" lon="1.911775">
        <ele>393.0</ele>
        <time>2019-12-21T09:20:44.353Z</time>
      </trkpt>
      <trkpt lat="41.317685" lon="1.91176167">
        <ele>393.0</ele>
        <time>2019-12-21T09:20:45.334Z</time>
      </trkpt>
      <trkpt lat="41.317685" lon="1.91176167">
        <ele>393.0</ele>
        <time>2019-12-21T09:20:46.357Z</time>
      </trkpt>
      <trkpt lat="41.31765" lon="1.91175167">
        <ele>393.0</ele>
        <time>2019-12-21T09:20:47.358Z</time>
      </trkpt>
      <trkpt lat="41.31765" lon="1.91175167">
        <ele>393.0</ele>
        <time>2019-12-21T09:20:48.353Z</time>
      </trkpt>
      <trkpt lat="41.31760833" lon="1.91174667">
        <ele>393.0</ele>
        <time>2019-12-21T09:20:49.357Z</time>
      </trkpt>
      <trkpt lat="41.31760833" lon="1.91174667">
        <ele>393.0</ele>
        <time>2019-12-21T09:20:50.353Z</time>
      </trkpt>
      <trkpt lat="41.31757667" lon="1.91173333">
        <ele>394.0</ele>
        <time>2019-12-21T09:20:51.360Z</time>
      </trkpt>
      <trkpt lat="41.31757667" lon="1.91173333">
        <ele>394.0</ele>
        <time>2019-12-21T09:20:52.353Z</time>
      </trkpt>
      <trkpt lat="41.31754333" lon="1.91172">
        <ele>394.0</ele>
        <time>2019-12-21T09:20:53.337Z</time>
      </trkpt>
      <trkpt lat="41.31752667" lon="1.91171">
        <ele>394.0</ele>
        <time>2019-12-21T09:20:54.356Z</time>
      </trkpt>
      <trkpt lat="41.31752667" lon="1.91171">
        <ele>394.0</ele>
        <time>2019-12-21T09:20:55.365Z</time>
      </trkpt>
      <trkpt lat="41.31749833" lon="1.91169167">
        <ele>395.0</ele>
        <time>2019-12-21T09:20:56.365Z</time>
      </trkpt>
      <trkpt lat="41.31748167" lon="1.91167833">
        <ele>395.0</ele>
        <time>2019-12-21T09:20:57.360Z</time>
      </trkpt>
      <trkpt lat="41.31748167" lon="1.91167833">
        <ele>395.0</ele>
        <time>2019-12-21T09:20:58.353Z</time>
      </trkpt>
      <trkpt lat="41.31744667" lon="1.911655">
        <ele>395.0</ele>
        <time>2019-12-21T09:20:59.359Z</time>
      </trkpt>
      <trkpt lat="41.31744667" lon="1.911655">
        <ele>395.0</ele>
        <time>2019-12-21T09:21:00.353Z</time>
      </trkpt>
      <trkpt lat="41.31742" lon="1.911635">
        <ele>395.0</ele>
        <time>2019-12-21T09:21:01.359Z</time>
      </trkpt>
      <trkpt lat="41.31742" lon="1.911635">
        <ele>395.0</ele>
        <time>2019-12-21T09:21:02.353Z</time>
      </trkpt>
      <trkpt lat="41.31739" lon="1.91161333">
        <ele>396.0</ele>
        <time>2019-12-21T09:21:03.336Z</time>
      </trkpt>
      <trkpt lat="41.31739" lon="1.91161333">
        <ele>396.0</ele>
        <time>2019-12-21T09:21:04.358Z</time>
      </trkpt>
      <trkpt lat="41.31735167" lon="1.91159333">
        <ele>397.0</ele>
        <time>2019-12-21T09:21:05.357Z</time>
      </trkpt>
      <trkpt lat="41.31735167" lon="1.91159333">
        <ele>397.0</ele>
        <time>2019-12-21T09:21:06.353Z</time>
      </trkpt>
      <trkpt lat="41.317315" lon="1.91157167">
        <ele>397.0</ele>
        <time>2019-12-21T09:21:07.357Z</time>
      </trkpt>
      <trkpt lat="41.317315" lon="1.91157167">
        <ele>397.0</ele>
        <time>2019-12-21T09:21:08.353Z</time>
      </trkpt>
      <trkpt lat="41.317285" lon="1.91154333">
        <ele>397.0</ele>
        <time>2019-12-21T09:21:09.335Z</time>
      </trkpt>
      <trkpt lat="41.317285" lon="1.91154333">
        <ele>397.0</ele>
        <time>2019-12-21T09:21:10.358Z</time>
      </trkpt>
      <trkpt lat="41.31724667" lon="1.91152333">
        <ele>398.0</ele>
        <time>2019-12-21T09:21:11.359Z</time>
      </trkpt>
      <trkpt lat="41.317225" lon="1.911515">
        <ele>399.0</ele>
        <time>2019-12-21T09:21:12.358Z</time>
      </trkpt>
      <trkpt lat="41.317225" lon="1.911515">
        <ele>399.0</ele>
        <time>2019-12-21T09:21:13.355Z</time>
      </trkpt>
      <trkpt lat="41.31719333" lon="1.91150667">
        <ele>400.0</ele>
        <time>2019-12-21T09:21:14.358Z</time>
      </trkpt>
      <trkpt lat="41.317175" lon="1.91150333">
        <ele>400.0</ele>
        <time>2019-12-21T09:21:15.361Z</time>
      </trkpt>
      <trkpt lat="41.317175" lon="1.91150333">
        <ele>400.0</ele>
        <time>2019-12-21T09:21:16.354Z</time>
      </trkpt>
      <trkpt lat="41.31714167" lon="1.91147667">
        <ele>401.0</ele>
        <time>2019-12-21T09:21:17.360Z</time>
      </trkpt>
      <trkpt lat="41.31714167" lon="1.91147667">
        <ele>401.0</ele>
        <time>2019-12-21T09:21:18.355Z</time>
      </trkpt>
      <trkpt lat="41.31710667" lon="1.91144167">
        <ele>402.0</ele>
        <time>2019-12-21T09:21:19.358Z</time>
      </trkpt>
      <trkpt lat="41.31710667" lon="1.91144167">
        <ele>402.0</ele>
        <time>2019-12-21T09:21:20.352Z</time>
      </trkpt>
      <trkpt lat="41.31707167" lon="1.91141167">
        <ele>402.0</ele>
        <time>2019-12-21T09:21:21.334Z</time>
      </trkpt>
      <trkpt lat="41.31707167" lon="1.91141167">
        <ele>402.0</ele>
        <time>2019-12-21T09:21:22.356Z</time>
      </trkpt>
      <trkpt lat="41.317045" lon="1.91138667">
        <ele>403.0</ele>
        <time>2019-12-21T09:21:23.338Z</time>
      </trkpt>
      <trkpt lat="41.317045" lon="1.91138667">
        <ele>403.0</ele>
        <time>2019-12-21T09:21:24.360Z</time>
      </trkpt>
      <trkpt lat="41.317015" lon="1.91135833">
        <ele>403.0</ele>
        <time>2019-12-21T09:21:25.358Z</time>
      </trkpt>
      <trkpt lat="41.317015" lon="1.91135833">
        <ele>403.0</ele>
        <time>2019-12-21T09:21:26.353Z</time>
      </trkpt>
      <trkpt lat="41.316985" lon="1.91132667">
        <ele>404.0</ele>
        <time>2019-12-21T09:21:27.335Z</time>
      </trkpt>
      <trkpt lat="41.316985" lon="1.91132667">
        <ele>404.0</ele>
        <time>2019-12-21T09:21:28.369Z</time>
      </trkpt>
      <trkpt lat="41.31694667" lon="1.91129167">
        <ele>405.0</ele>
        <time>2019-12-21T09:21:29.358Z</time>
      </trkpt>
      <trkpt lat="41.31694667" lon="1.91129167">
        <ele>405.0</ele>
        <time>2019-12-21T09:21:30.349Z</time>
      </trkpt>
      <trkpt lat="41.31691333" lon="1.91126833">
        <ele>406.0</ele>
        <time>2019-12-21T09:21:31.371Z</time>
      </trkpt>
      <trkpt lat="41.31691333" lon="1.91126833">
        <ele>406.0</ele>
        <time>2019-12-21T09:21:32.359Z</time>
      </trkpt>
      <trkpt lat="41.31688333" lon="1.91125">
        <ele>407.0</ele>
        <time>2019-12-21T09:21:33.361Z</time>
      </trkpt>
      <trkpt lat="41.31688333" lon="1.91125">
        <ele>407.0</ele>
        <time>2019-12-21T09:21:34.353Z</time>
      </trkpt>
      <trkpt lat="41.31684833" lon="1.911225">
        <ele>408.0</ele>
        <time>2019-12-21T09:21:35.359Z</time>
      </trkpt>
      <trkpt lat="41.31684833" lon="1.911225">
        <ele>408.0</ele>
        <time>2019-12-21T09:21:36.353Z</time>
      </trkpt>
      <trkpt lat="41.31681" lon="1.911185">
        <ele>408.0</ele>
        <time>2019-12-21T09:21:37.358Z</time>
      </trkpt>
      <trkpt lat="41.31681" lon="1.911185">
        <ele>408.0</ele>
        <time>2019-12-21T09:21:38.352Z</time>
      </trkpt>
      <trkpt lat="41.31677" lon="1.91113833">
        <ele>409.0</ele>
        <time>2019-12-21T09:21:39.334Z</time>
      </trkpt>
      <trkpt lat="41.31677" lon="1.91113833">
        <ele>409.0</ele>
        <time>2019-12-21T09:21:40.356Z</time>
      </trkpt>
      <trkpt lat="41.316725" lon="1.91109333">
        <ele>409.0</ele>
        <time>2019-12-21T09:21:41.358Z</time>
      </trkpt>
      <trkpt lat="41.316725" lon="1.91109333">
        <ele>409.0</ele>
        <time>2019-12-21T09:21:42.353Z</time>
      </trkpt>
      <trkpt lat="41.316685" lon="1.91105">
        <ele>409.0</ele>
        <time>2019-12-21T09:21:43.338Z</time>
      </trkpt>
      <trkpt lat="41.316685" lon="1.91105">
        <ele>409.0</ele>
        <time>2019-12-21T09:21:44.360Z</time>
      </trkpt>
      <trkpt lat="41.31664667" lon="1.910995">
        <ele>410.0</ele>
        <time>2019-12-21T09:21:45.360Z</time>
      </trkpt>
      <trkpt lat="41.31664667" lon="1.910995">
        <ele>410.0</ele>
        <time>2019-12-21T09:21:46.354Z</time>
      </trkpt>
      <trkpt lat="41.31660833" lon="1.910935">
        <ele>410.0</ele>
        <time>2019-12-21T09:21:47.358Z</time>
      </trkpt>
      <trkpt lat="41.31659" lon="1.91089667">
        <ele>410.0</ele>
        <time>2019-12-21T09:21:48.357Z</time>
      </trkpt>
      <trkpt lat="41.31659" lon="1.91089667">
        <ele>410.0</ele>
        <time>2019-12-21T09:21:49.353Z</time>
      </trkpt>
      <trkpt lat="41.31655667" lon="1.91080833">
        <ele>410.0</ele>
        <time>2019-12-21T09:21:50.364Z</time>
      </trkpt>
      <trkpt lat="41.316545" lon="1.91076167">
        <ele>411.0</ele>
        <time>2019-12-21T09:21:51.361Z</time>
      </trkpt>
      <trkpt lat="41.316545" lon="1.91076167">
        <ele>411.0</ele>
        <time>2019-12-21T09:21:52.353Z</time>
      </trkpt>
      <trkpt lat="41.316525" lon="1.91066667">
        <ele>411.0</ele>
        <time>2019-12-21T09:21:53.338Z</time>
      </trkpt>
      <trkpt lat="41.316525" lon="1.91066667">
        <ele>411.0</ele>
        <time>2019-12-21T09:21:54.353Z</time>
      </trkpt>
      <trkpt lat="41.31650833" lon="1.91057167">
        <ele>411.0</ele>
        <time>2019-12-21T09:21:55.367Z</time>
      </trkpt>
      <trkpt lat="41.31650833" lon="1.91057167">
        <ele>411.0</ele>
        <time>2019-12-21T09:21:56.354Z</time>
      </trkpt>
      <trkpt lat="41.31651167" lon="1.91049">
        <ele>412.0</ele>
        <time>2019-12-21T09:21:57.336Z</time>
      </trkpt>
      <trkpt lat="41.31651333" lon="1.91045833">
        <ele>412.0</ele>
        <time>2019-12-21T09:21:58.360Z</time>
      </trkpt>
      <trkpt lat="41.31651333" lon="1.91045833">
        <ele>412.0</ele>
        <time>2019-12-21T09:21:59.354Z</time>
      </trkpt>
      <trkpt lat="41.31652833" lon="1.910395">
        <ele>412.0</ele>
        <time>2019-12-21T09:22:00.359Z</time>
      </trkpt>
      <trkpt lat="41.31652833" lon="1.910395">
        <ele>412.0</ele>
        <time>2019-12-21T09:22:01.353Z</time>
      </trkpt>
      <trkpt lat="41.31653333" lon="1.91033667">
        <ele>412.0</ele>
        <time>2019-12-21T09:22:02.359Z</time>
      </trkpt>
      <trkpt lat="41.31653667" lon="1.91030667">
        <ele>413.0</ele>
        <time>2019-12-21T09:22:03.360Z</time>
      </trkpt>
      <trkpt lat="41.31653667" lon="1.91030667">
        <ele>413.0</ele>
        <time>2019-12-21T09:22:04.353Z</time>
      </trkpt>
      <trkpt lat="41.31654333" lon="1.910255">
        <ele>413.0</ele>
        <time>2019-12-21T09:22:05.358Z</time>
      </trkpt>
      <trkpt lat="41.31654333" lon="1.910255">
        <ele>413.0</ele>
        <time>2019-12-21T09:22:06.354Z</time>
      </trkpt>
      <trkpt lat="41.31654833" lon="1.91019667">
        <ele>414.0</ele>
        <time>2019-12-21T09:22:07.356Z</time>
      </trkpt>
      <trkpt lat="41.31654833" lon="1.91019667">
        <ele>414.0</ele>
        <time>2019-12-21T09:22:08.355Z</time>
      </trkpt>
      <trkpt lat="41.31654667" lon="1.91012833">
        <ele>414.0</ele>
        <time>2019-12-21T09:22:09.361Z</time>
      </trkpt>
      <trkpt lat="41.31654667" lon="1.91012833">
        <ele>414.0</ele>
        <time>2019-12-21T09:22:10.352Z</time>
      </trkpt>
      <trkpt lat="41.31655167" lon="1.91007">
        <ele>415.0</ele>
        <time>2019-12-21T09:22:11.371Z</time>
      </trkpt>
      <trkpt lat="41.31655167" lon="1.91007">
        <ele>415.0</ele>
        <time>2019-12-21T09:22:12.357Z</time>
      </trkpt>
      <trkpt lat="41.316565" lon="1.910015">
        <ele>415.0</ele>
        <time>2019-12-21T09:22:13.339Z</time>
      </trkpt>
      <trkpt lat="41.316565" lon="1.910015">
        <ele>415.0</ele>
        <time>2019-12-21T09:22:14.361Z</time>
      </trkpt>
      <trkpt lat="41.31658167" lon="1.90996333">
        <ele>416.0</ele>
        <time>2019-12-21T09:22:15.363Z</time>
      </trkpt>
      <trkpt lat="41.316585" lon="1.909935">
        <ele>416.0</ele>
        <time>2019-12-21T09:22:16.358Z</time>
      </trkpt>
      <trkpt lat="41.316585" lon="1.909935">
        <ele>416.0</ele>
        <time>2019-12-21T09:22:17.353Z</time>
      </trkpt>
      <trkpt lat="41.31659667" lon="1.90987833">
        <ele>417.0</ele>
        <time>2019-12-21T09:22:18.341Z</time>
      </trkpt>
      <trkpt lat="41.31660667" lon="1.90985">
        <ele>417.0</ele>
        <time>2019-12-21T09:22:19.363Z</time>
      </trkpt>
      <trkpt lat="41.31660667" lon="1.90985">
        <ele>417.0</ele>
        <time>2019-12-21T09:22:20.355Z</time>
      </trkpt>
      <trkpt lat="41.31662167" lon="1.90979833">
        <ele>418.0</ele>
        <time>2019-12-21T09:22:21.371Z</time>
      </trkpt>
      <trkpt lat="41.31662167" lon="1.90979833">
        <ele>418.0</ele>
        <time>2019-12-21T09:22:22.355Z</time>
      </trkpt>
      <trkpt lat="41.31663167" lon="1.90974667">
        <ele>418.0</ele>
        <time>2019-12-21T09:22:23.359Z</time>
      </trkpt>
      <trkpt lat="41.31663167" lon="1.90974667">
        <ele>418.0</ele>
        <time>2019-12-21T09:22:24.353Z</time>
      </trkpt>
      <trkpt lat="41.31664333" lon="1.90969167">
        <ele>419.0</ele>
        <time>2019-12-21T09:22:25.334Z</time>
      </trkpt>
      <trkpt lat="41.31664333" lon="1.90969167">
        <ele>419.0</ele>
        <time>2019-12-21T09:22:26.356Z</time>
      </trkpt>
      <trkpt lat="41.31665667" lon="1.90964333">
        <ele>419.0</ele>
        <time>2019-12-21T09:22:27.361Z</time>
      </trkpt>
      <trkpt lat="41.31665667" lon="1.90964333">
        <ele>419.0</ele>
        <time>2019-12-21T09:22:28.362Z</time>
      </trkpt>
      <trkpt lat="41.31666667" lon="1.90959167">
        <ele>419.0</ele>
        <time>2019-12-21T09:22:29.359Z</time>
      </trkpt>
      <trkpt lat="41.31666667" lon="1.90959167">
        <ele>419.0</ele>
        <time>2019-12-21T09:22:30.354Z</time>
      </trkpt>
      <trkpt lat="41.31667333" lon="1.90954667">
        <ele>420.0</ele>
        <time>2019-12-21T09:22:31.359Z</time>
      </trkpt>
      <trkpt lat="41.31667333" lon="1.90954667">
        <ele>420.0</ele>
        <time>2019-12-21T09:22:32.354Z</time>
      </trkpt>
      <trkpt lat="41.31668333" lon="1.909495">
        <ele>420.0</ele>
        <time>2019-12-21T09:22:33.361Z</time>
      </trkpt>
      <trkpt lat="41.31668833" lon="1.90947">
        <ele>421.0</ele>
        <time>2019-12-21T09:22:34.358Z</time>
      </trkpt>
      <trkpt lat="41.31668833" lon="1.90947">
        <ele>421.0</ele>
        <time>2019-12-21T09:22:35.354Z</time>
      </trkpt>
      <trkpt lat="41.31670333" lon="1.90942">
        <ele>422.0</ele>
        <time>2019-12-21T09:22:36.360Z</time>
      </trkpt>
      <trkpt lat="41.31670333" lon="1.90942">
        <ele>422.0</ele>
        <time>2019-12-21T09:22:37.354Z</time>
      </trkpt>
      <trkpt lat="41.31671833" lon="1.90936667">
        <ele>422.0</ele>
        <time>2019-12-21T09:22:38.338Z</time>
      </trkpt>
      <trkpt lat="41.31673" lon="1.90933333">
        <ele>422.0</ele>
        <time>2019-12-21T09:22:39.362Z</time>
      </trkpt>
      <trkpt lat="41.31673" lon="1.90933333">
        <ele>422.0</ele>
        <time>2019-12-21T09:22:40.354Z</time>
      </trkpt>
      <trkpt lat="41.31674833" lon="1.90927833">
        <ele>422.0</ele>
        <time>2019-12-21T09:22:41.338Z</time>
      </trkpt>
      <trkpt lat="41.316755" lon="1.90925333">
        <ele>422.0</ele>
        <time>2019-12-21T09:22:42.362Z</time>
      </trkpt>
      <trkpt lat="41.316755" lon="1.90925333">
        <ele>422.0</ele>
        <time>2019-12-21T09:22:43.356Z</time>
      </trkpt>
      <trkpt lat="41.31676667" lon="1.90919667">
        <ele>422.0</ele>
        <time>2019-12-21T09:22:44.359Z</time>
      </trkpt>
      <trkpt lat="41.31677333" lon="1.90917167">
        <ele>423.0</ele>
        <time>2019-12-21T09:22:45.361Z</time>
      </trkpt>
      <trkpt lat="41.31677333" lon="1.90917167">
        <ele>423.0</ele>
        <time>2019-12-21T09:22:46.354Z</time>
      </trkpt>
      <trkpt lat="41.316785" lon="1.909135">
        <ele>423.0</ele>
        <time>2019-12-21T09:22:47.359Z</time>
      </trkpt>
      <trkpt lat="41.316785" lon="1.909135">
        <ele>423.0</ele>
        <time>2019-12-21T09:22:48.356Z</time>
      </trkpt>
      <trkpt lat="41.31679" lon="1.90910833">
        <ele>423.0</ele>
        <time>2019-12-21T09:22:49.359Z</time>
      </trkpt>
      <trkpt lat="41.31679" lon="1.90910833">
        <ele>423.0</ele>
        <time>2019-12-21T09:22:50.354Z</time>
      </trkpt>
      <trkpt lat="41.31680333" lon="1.90906833">
        <ele>423.0</ele>
        <time>2019-12-21T09:22:51.362Z</time>
      </trkpt>
      <trkpt lat="41.31680333" lon="1.90906833">
        <ele>423.0</ele>
        <time>2019-12-21T09:22:52.356Z</time>
      </trkpt>
      <trkpt lat="41.31681" lon="1.90902">
        <ele>424.0</ele>
        <time>2019-12-21T09:22:53.360Z</time>
      </trkpt>
      <trkpt lat="41.31681333" lon="1.90899667">
        <ele>424.0</ele>
        <time>2019-12-21T09:22:54.360Z</time>
      </trkpt>
      <trkpt lat="41.31681333" lon="1.90899667">
        <ele>424.0</ele>
        <time>2019-12-21T09:22:55.362Z</time>
      </trkpt>
      <trkpt lat="41.31682" lon="1.90895">
        <ele>424.0</ele>
        <time>2019-12-21T09:22:56.359Z</time>
      </trkpt>
      <trkpt lat="41.31682333" lon="1.90892667">
        <ele>424.0</ele>
        <time>2019-12-21T09:22:57.362Z</time>
      </trkpt>
      <trkpt lat="41.31682333" lon="1.90892667">
        <ele>424.0</ele>
        <time>2019-12-21T09:22:58.354Z</time>
      </trkpt>
      <trkpt lat="41.31682833" lon="1.90887833">
        <ele>424.0</ele>
        <time>2019-12-21T09:22:59.356Z</time>
      </trkpt>
      <trkpt lat="41.31682833" lon="1.90887833">
        <ele>424.0</ele>
        <time>2019-12-21T09:23:00.354Z</time>
      </trkpt>
      <trkpt lat="41.31682833" lon="1.90882833">
        <ele>424.0</ele>
        <time>2019-12-21T09:23:01.338Z</time>
      </trkpt>
      <trkpt lat="41.316825" lon="1.90879833">
        <ele>424.0</ele>
        <time>2019-12-21T09:23:02.362Z</time>
      </trkpt>
      <trkpt lat="41.316825" lon="1.90877333">
        <ele>424.0</ele>
        <time>2019-12-21T09:23:03.358Z</time>
      </trkpt>
      <trkpt lat="41.316825" lon="1.90877333">
        <ele>424.0</ele>
        <time>2019-12-21T09:23:04.354Z</time>
      </trkpt>
      <trkpt lat="41.31681833" lon="1.90872667">
        <ele>424.0</ele>
        <time>2019-12-21T09:23:05.360Z</time>
      </trkpt>
      <trkpt lat="41.31681833" lon="1.90872667">
        <ele>424.0</ele>
        <time>2019-12-21T09:23:06.354Z</time>
      </trkpt>
      <trkpt lat="41.316815" lon="1.90866667">
        <ele>424.0</ele>
        <time>2019-12-21T09:23:07.360Z</time>
      </trkpt>
      <trkpt lat="41.316815" lon="1.90866667">
        <ele>424.0</ele>
        <time>2019-12-21T09:23:08.356Z</time>
      </trkpt>
      <trkpt lat="41.31681167" lon="1.90860167">
        <ele>424.0</ele>
        <time>2019-12-21T09:23:09.361Z</time>
      </trkpt>
      <trkpt lat="41.31681167" lon="1.90860167">
        <ele>424.0</ele>
        <time>2019-12-21T09:23:10.354Z</time>
      </trkpt>
      <trkpt lat="41.31681167" lon="1.90853667">
        <ele>424.0</ele>
        <time>2019-12-21T09:23:11.339Z</time>
      </trkpt>
      <trkpt lat="41.31681167" lon="1.90853667">
        <ele>424.0</ele>
        <time>2019-12-21T09:23:12.362Z</time>
      </trkpt>
      <trkpt lat="41.31680333" lon="1.90846333">
        <ele>424.0</ele>
        <time>2019-12-21T09:23:13.360Z</time>
      </trkpt>
      <trkpt lat="41.3168" lon="1.908415">
        <ele>424.0</ele>
        <time>2019-12-21T09:23:14.355Z</time>
      </trkpt>
      <trkpt lat="41.3168" lon="1.908415">
        <ele>424.0</ele>
        <time>2019-12-21T09:23:15.356Z</time>
      </trkpt>
      <trkpt lat="41.31679167" lon="1.90831833">
        <ele>424.0</ele>
        <time>2019-12-21T09:23:16.369Z</time>
      </trkpt>
      <trkpt lat="41.31679167" lon="1.90831833">
        <ele>424.0</ele>
        <time>2019-12-21T09:23:17.354Z</time>
      </trkpt>
      <trkpt lat="41.31678" lon="1.90820667">
        <ele>425.0</ele>
        <time>2019-12-21T09:23:18.360Z</time>
      </trkpt>
      <trkpt lat="41.31678" lon="1.90820667">
        <ele>425.0</ele>
        <time>2019-12-21T09:23:19.355Z</time>
      </trkpt>
      <trkpt lat="41.31676333" lon="1.90808667">
        <ele>425.0</ele>
        <time>2019-12-21T09:23:20.361Z</time>
      </trkpt>
      <trkpt lat="41.31676333" lon="1.90808667">
        <ele>425.0</ele>
        <time>2019-12-21T09:23:21.359Z</time>
      </trkpt>
      <trkpt lat="41.316745" lon="1.907955">
        <ele>426.0</ele>
        <time>2019-12-21T09:23:22.360Z</time>
      </trkpt>
      <trkpt lat="41.316745" lon="1.907955">
        <ele>426.0</ele>
        <time>2019-12-21T09:23:23.354Z</time>
      </trkpt>
      <trkpt lat="41.31672667" lon="1.90781667">
        <ele>426.0</ele>
        <time>2019-12-21T09:23:24.360Z</time>
      </trkpt>
      <trkpt lat="41.31672667" lon="1.90781667">
        <ele>426.0</ele>
        <time>2019-12-21T09:23:25.354Z</time>
      </trkpt>
      <trkpt lat="41.31671333" lon="1.90765667">
        <ele>426.0</ele>
        <time>2019-12-21T09:23:26.360Z</time>
      </trkpt>
      <trkpt lat="41.31670333" lon="1.907565">
        <ele>426.0</ele>
        <time>2019-12-21T09:23:27.358Z</time>
      </trkpt>
      <trkpt lat="41.31670333" lon="1.907565">
        <ele>426.0</ele>
        <time>2019-12-21T09:23:28.354Z</time>
      </trkpt>
      <trkpt lat="41.316685" lon="1.90735667">
        <ele>425.0</ele>
        <time>2019-12-21T09:23:29.360Z</time>
      </trkpt>
      <trkpt lat="41.316685" lon="1.90735667">
        <ele>425.0</ele>
        <time>2019-12-21T09:23:30.354Z</time>
      </trkpt>
      <trkpt lat="41.31667333" lon="1.90712667">
        <ele>425.0</ele>
        <time>2019-12-21T09:23:31.337Z</time>
      </trkpt>
      <trkpt lat="41.31666833" lon="1.90700667">
        <ele>425.0</ele>
        <time>2019-12-21T09:23:32.360Z</time>
      </trkpt>
      <trkpt lat="41.31666667" lon="1.90688">
        <ele>424.0</ele>
        <time>2019-12-21T09:23:33.363Z</time>
      </trkpt>
      <trkpt lat="41.31666667" lon="1.90688">
        <ele>424.0</ele>
        <time>2019-12-21T09:23:34.354Z</time>
      </trkpt>
      <trkpt lat="41.31665" lon="1.90662333">
        <ele>424.0</ele>
        <time>2019-12-21T09:23:35.360Z</time>
      </trkpt>
      <trkpt lat="41.31665" lon="1.90662333">
        <ele>424.0</ele>
        <time>2019-12-21T09:23:36.354Z</time>
      </trkpt>
      <trkpt lat="41.31660667" lon="1.90636167">
        <ele>423.0</ele>
        <time>2019-12-21T09:23:37.360Z</time>
      </trkpt>
      <trkpt lat="41.31657333" lon="1.906235">
        <ele>422.0</ele>
        <time>2019-12-21T09:23:38.358Z</time>
      </trkpt>
      <trkpt lat="41.31657333" lon="1.906235">
        <ele>422.0</ele>
        <time>2019-12-21T09:23:39.356Z</time>
      </trkpt>
      <trkpt lat="41.31651" lon="1.906015">
        <ele>422.0</ele>
        <time>2019-12-21T09:23:40.359Z</time>
      </trkpt>
      <trkpt lat="41.31651" lon="1.906015">
        <ele>422.0</ele>
        <time>2019-12-21T09:23:41.359Z</time>
      </trkpt>
      <trkpt lat="41.31646333" lon="1.90581833">
        <ele>422.0</ele>
        <time>2019-12-21T09:23:42.360Z</time>
      </trkpt>
      <trkpt lat="41.31646333" lon="1.90581833">
        <ele>422.0</ele>
        <time>2019-12-21T09:23:43.360Z</time>
      </trkpt>
      <trkpt lat="41.316435" lon="1.90562">
        <ele>422.0</ele>
        <time>2019-12-21T09:23:44.359Z</time>
      </trkpt>
      <trkpt lat="41.31643" lon="1.90552833">
        <ele>422.0</ele>
        <time>2019-12-21T09:23:45.362Z</time>
      </trkpt>
      <trkpt lat="41.31643" lon="1.90552833">
        <ele>422.0</ele>
        <time>2019-12-21T09:23:46.352Z</time>
      </trkpt>
      <trkpt lat="41.31642167" lon="1.90534667">
        <ele>421.0</ele>
        <time>2019-12-21T09:23:47.334Z</time>
      </trkpt>
      <trkpt lat="41.31642167" lon="1.90534667">
        <ele>421.0</ele>
        <time>2019-12-21T09:23:48.371Z</time>
      </trkpt>
      <trkpt lat="41.31640167" lon="1.90511">
        <ele>420.0</ele>
        <time>2019-12-21T09:23:49.359Z</time>
      </trkpt>
      <trkpt lat="41.31640167" lon="1.90511">
        <ele>420.0</ele>
        <time>2019-12-21T09:23:50.355Z</time>
      </trkpt>
      <trkpt lat="41.31634667" lon="1.90484333">
        <ele>418.0</ele>
        <time>2019-12-21T09:23:51.363Z</time>
      </trkpt>
      <trkpt lat="41.31634667" lon="1.90484333">
        <ele>418.0</ele>
        <time>2019-12-21T09:23:52.360Z</time>
      </trkpt>
      <trkpt lat="41.31625167" lon="1.904625">
        <ele>416.0</ele>
        <time>2019-12-21T09:23:53.361Z</time>
      </trkpt>
      <trkpt lat="41.31620167" lon="1.904535">
        <ele>416.0</ele>
        <time>2019-12-21T09:23:54.359Z</time>
      </trkpt>
      <trkpt lat="41.31620167" lon="1.904535">
        <ele>416.0</ele>
        <time>2019-12-21T09:23:55.355Z</time>
      </trkpt>
      <trkpt lat="41.31612167" lon="1.90439667">
        <ele>414.0</ele>
        <time>2019-12-21T09:23:56.360Z</time>
      </trkpt>
      <trkpt lat="41.31609667" lon="1.90433333">
        <ele>413.0</ele>
        <time>2019-12-21T09:23:57.363Z</time>
      </trkpt>
      <trkpt lat="41.31609667" lon="1.90433333">
        <ele>413.0</ele>
        <time>2019-12-21T09:23:58.354Z</time>
      </trkpt>
      <trkpt lat="41.31605833" lon="1.90421">
        <ele>412.0</ele>
        <time>2019-12-21T09:23:59.357Z</time>
      </trkpt>
      <trkpt lat="41.31605833" lon="1.90421">
        <ele>412.0</ele>
        <time>2019-12-21T09:24:00.354Z</time>
      </trkpt>
      <trkpt lat="41.31602667" lon="1.90407833">
        <ele>411.0</ele>
        <time>2019-12-21T09:24:01.360Z</time>
      </trkpt>
      <trkpt lat="41.31602667" lon="1.90407833">
        <ele>411.0</ele>
        <time>2019-12-21T09:24:02.355Z</time>
      </trkpt>
      <trkpt lat="41.31599833" lon="1.90394333">
        <ele>410.0</ele>
        <time>2019-12-21T09:24:03.337Z</time>
      </trkpt>
      <trkpt lat="41.31599833" lon="1.90394333">
        <ele>410.0</ele>
        <time>2019-12-21T09:24:04.360Z</time>
      </trkpt>
      <trkpt lat="41.315985" lon="1.90379333">
        <ele>408.0</ele>
        <time>2019-12-21T09:24:05.360Z</time>
      </trkpt>
      <trkpt lat="41.315985" lon="1.90379333">
        <ele>408.0</ele>
        <time>2019-12-21T09:24:06.354Z</time>
      </trkpt>
      <trkpt lat="41.315975" lon="1.90363667">
        <ele>407.0</ele>
        <time>2019-12-21T09:24:07.360Z</time>
      </trkpt>
      <trkpt lat="41.315975" lon="1.90363667">
        <ele>407.0</ele>
        <time>2019-12-21T09:24:08.366Z</time>
      </trkpt>
      <trkpt lat="41.31596167" lon="1.903475">
        <ele>406.0</ele>
        <time>2019-12-21T09:24:09.363Z</time>
      </trkpt>
      <trkpt lat="41.31596167" lon="1.903475">
        <ele>406.0</ele>
        <time>2019-12-21T09:24:10.355Z</time>
      </trkpt>
      <trkpt lat="41.31594" lon="1.903315">
        <ele>405.0</ele>
        <time>2019-12-21T09:24:11.360Z</time>
      </trkpt>
      <trkpt lat="41.31594" lon="1.903315">
        <ele>405.0</ele>
        <time>2019-12-21T09:24:12.355Z</time>
      </trkpt>
      <trkpt lat="41.31591333" lon="1.90315">
        <ele>405.0</ele>
        <time>2019-12-21T09:24:13.360Z</time>
      </trkpt>
      <trkpt lat="41.31591333" lon="1.90315">
        <ele>405.0</ele>
        <time>2019-12-21T09:24:14.354Z</time>
      </trkpt>
      <trkpt lat="41.315885" lon="1.90298">
        <ele>403.0</ele>
        <time>2019-12-21T09:24:15.336Z</time>
      </trkpt>
      <trkpt lat="41.315885" lon="1.90298">
        <ele>403.0</ele>
        <time>2019-12-21T09:24:16.359Z</time>
      </trkpt>
      <trkpt lat="41.31585833" lon="1.9028">
        <ele>403.0</ele>
        <time>2019-12-21T09:24:17.360Z</time>
      </trkpt>
      <trkpt lat="41.315845" lon="1.902705">
        <ele>402.0</ele>
        <time>2019-12-21T09:24:18.342Z</time>
      </trkpt>
      <trkpt lat="41.315845" lon="1.902705">
        <ele>402.0</ele>
        <time>2019-12-21T09:24:19.364Z</time>
      </trkpt>
      <trkpt lat="41.31581833" lon="1.90250833">
        <ele>401.0</ele>
        <time>2019-12-21T09:24:20.360Z</time>
      </trkpt>
      <trkpt lat="41.315805" lon="1.902415">
        <ele>401.0</ele>
        <time>2019-12-21T09:24:21.361Z</time>
      </trkpt>
      <trkpt lat="41.315805" lon="1.902415">
        <ele>401.0</ele>
        <time>2019-12-21T09:24:22.360Z</time>
      </trkpt>
      <trkpt lat="41.31577667" lon="1.90223">
        <ele>400.0</ele>
        <time>2019-12-21T09:24:23.365Z</time>
      </trkpt>
      <trkpt lat="41.31577667" lon="1.90223">
        <ele>400.0</ele>
        <time>2019-12-21T09:24:24.337Z</time>
      </trkpt>
      <trkpt lat="41.31573333" lon="1.902045">
        <ele>399.0</ele>
        <time>2019-12-21T09:24:25.362Z</time>
      </trkpt>
      <trkpt lat="41.31573333" lon="1.902045">
        <ele>399.0</ele>
        <time>2019-12-21T09:24:26.355Z</time>
      </trkpt>
      <trkpt lat="41.31565167" lon="1.901865">
        <ele>398.0</ele>
        <time>2019-12-21T09:24:27.337Z</time>
      </trkpt>
      <trkpt lat="41.31565167" lon="1.901865">
        <ele>398.0</ele>
        <time>2019-12-21T09:24:28.360Z</time>
      </trkpt>
      <trkpt lat="41.31552" lon="1.90170667">
        <ele>396.0</ele>
        <time>2019-12-21T09:24:29.360Z</time>
      </trkpt>
      <trkpt lat="41.31552" lon="1.90170667">
        <ele>396.0</ele>
        <time>2019-12-21T09:24:30.355Z</time>
      </trkpt>
      <trkpt lat="41.315375" lon="1.901575">
        <ele>395.0</ele>
        <time>2019-12-21T09:24:31.359Z</time>
      </trkpt>
      <trkpt lat="41.315375" lon="1.901575">
        <ele>395.0</ele>
        <time>2019-12-21T09:24:32.355Z</time>
      </trkpt>
      <trkpt lat="41.315235" lon="1.90145667">
        <ele>394.0</ele>
        <time>2019-12-21T09:24:33.337Z</time>
      </trkpt>
      <trkpt lat="41.315235" lon="1.90145667">
        <ele>394.0</ele>
        <time>2019-12-21T09:24:34.360Z</time>
      </trkpt>
      <trkpt lat="41.31509667" lon="1.90135833">
        <ele>393.0</ele>
        <time>2019-12-21T09:24:35.360Z</time>
      </trkpt>
      <trkpt lat="41.31509667" lon="1.90135833">
        <ele>393.0</ele>
        <time>2019-12-21T09:24:36.354Z</time>
      </trkpt>
      <trkpt lat="41.31495833" lon="1.90127333">
        <ele>392.0</ele>
        <time>2019-12-21T09:24:37.360Z</time>
      </trkpt>
      <trkpt lat="41.31495833" lon="1.90127333">
        <ele>392.0</ele>
        <time>2019-12-21T09:24:38.355Z</time>
      </trkpt>
      <trkpt lat="41.31481333" lon="1.90122">
        <ele>391.0</ele>
        <time>2019-12-21T09:24:39.337Z</time>
      </trkpt>
      <trkpt lat="41.31481333" lon="1.90122">
        <ele>391.0</ele>
        <time>2019-12-21T09:24:40.359Z</time>
      </trkpt>
      <trkpt lat="41.31466" lon="1.90119167">
        <ele>390.0</ele>
        <time>2019-12-21T09:24:41.360Z</time>
      </trkpt>
      <trkpt lat="41.31466" lon="1.90119167">
        <ele>390.0</ele>
        <time>2019-12-21T09:24:42.354Z</time>
      </trkpt>
      <trkpt lat="41.31449333" lon="1.90117833">
        <ele>388.0</ele>
        <time>2019-12-21T09:24:43.360Z</time>
      </trkpt>
      <trkpt lat="41.31449333" lon="1.90117833">
        <ele>388.0</ele>
        <time>2019-12-21T09:24:44.355Z</time>
      </trkpt>
      <trkpt lat="41.31431667" lon="1.90116">
        <ele>387.0</ele>
        <time>2019-12-21T09:24:45.336Z</time>
      </trkpt>
      <trkpt lat="41.31431667" lon="1.90116">
        <ele>387.0</ele>
        <time>2019-12-21T09:24:46.358Z</time>
      </trkpt>
      <trkpt lat="41.314125" lon="1.90114667">
        <ele>385.0</ele>
        <time>2019-12-21T09:24:47.357Z</time>
      </trkpt>
      <trkpt lat="41.314125" lon="1.90114667">
        <ele>385.0</ele>
        <time>2019-12-21T09:24:48.341Z</time>
      </trkpt>
      <trkpt lat="41.313925" lon="1.90113333">
        <ele>384.0</ele>
        <time>2019-12-21T09:24:49.365Z</time>
      </trkpt>
      <trkpt lat="41.31382167" lon="1.90112167">
        <ele>383.0</ele>
        <time>2019-12-21T09:24:50.358Z</time>
      </trkpt>
      <trkpt lat="41.31372167" lon="1.90110667">
        <ele>382.0</ele>
        <time>2019-12-21T09:24:51.362Z</time>
      </trkpt>
      <trkpt lat="41.31362333" lon="1.90109333">
        <ele>381.0</ele>
        <time>2019-12-21T09:24:52.358Z</time>
      </trkpt>
      <trkpt lat="41.31362333" lon="1.90109333">
        <ele>381.0</ele>
        <time>2019-12-21T09:24:53.340Z</time>
      </trkpt>
      <trkpt lat="41.31343667" lon="1.90106667">
        <ele>380.0</ele>
        <time>2019-12-21T09:24:54.333Z</time>
      </trkpt>
      <trkpt lat="41.31343667" lon="1.90106667">
        <ele>380.0</ele>
        <time>2019-12-21T09:24:55.355Z</time>
      </trkpt>
      <trkpt lat="41.31325667" lon="1.90103333">
        <ele>379.0</ele>
        <time>2019-12-21T09:24:56.361Z</time>
      </trkpt>
      <trkpt lat="41.31317" lon="1.901025">
        <ele>378.0</ele>
        <time>2019-12-21T09:24:57.361Z</time>
      </trkpt>
      <trkpt lat="41.31317" lon="1.901025">
        <ele>378.0</ele>
        <time>2019-12-21T09:24:58.359Z</time>
      </trkpt>
      <trkpt lat="41.31300667" lon="1.90101333">
        <ele>377.0</ele>
        <time>2019-12-21T09:24:59.361Z</time>
      </trkpt>
      <trkpt lat="41.31300667" lon="1.90101333">
        <ele>377.0</ele>
        <time>2019-12-21T09:25:00.355Z</time>
      </trkpt>
      <trkpt lat="41.31285167" lon="1.90100667">
        <ele>376.0</ele>
        <time>2019-12-21T09:25:01.362Z</time>
      </trkpt>
      <trkpt lat="41.31285167" lon="1.90100667">
        <ele>376.0</ele>
        <time>2019-12-21T09:25:02.357Z</time>
      </trkpt>
      <trkpt lat="41.31270833" lon="1.901">
        <ele>376.0</ele>
        <time>2019-12-21T09:25:03.362Z</time>
      </trkpt>
      <trkpt lat="41.31270833" lon="1.901">
        <ele>376.0</ele>
        <time>2019-12-21T09:25:04.355Z</time>
      </trkpt>
      <trkpt lat="41.31258333" lon="1.90094833">
        <ele>375.0</ele>
        <time>2019-12-21T09:25:05.360Z</time>
      </trkpt>
      <trkpt lat="41.31258333" lon="1.90094833">
        <ele>375.0</ele>
        <time>2019-12-21T09:25:06.355Z</time>
      </trkpt>
      <trkpt lat="41.31246333" lon="1.900855">
        <ele>374.0</ele>
        <time>2019-12-21T09:25:07.360Z</time>
      </trkpt>
      <trkpt lat="41.31246333" lon="1.900855">
        <ele>374.0</ele>
        <time>2019-12-21T09:25:08.355Z</time>
      </trkpt>
      <trkpt lat="41.31233667" lon="1.90073833">
        <ele>373.0</ele>
        <time>2019-12-21T09:25:09.336Z</time>
      </trkpt>
      <trkpt lat="41.31233667" lon="1.90073833">
        <ele>373.0</ele>
        <time>2019-12-21T09:25:10.359Z</time>
      </trkpt>
      <trkpt lat="41.312215" lon="1.900605">
        <ele>373.0</ele>
        <time>2019-12-21T09:25:11.360Z</time>
      </trkpt>
      <trkpt lat="41.312215" lon="1.900605">
        <ele>373.0</ele>
        <time>2019-12-21T09:25:12.357Z</time>
      </trkpt>
      <trkpt lat="41.31210667" lon="1.90046">
        <ele>373.0</ele>
        <time>2019-12-21T09:25:13.339Z</time>
      </trkpt>
      <trkpt lat="41.31206167" lon="1.90037667">
        <ele>372.0</ele>
        <time>2019-12-21T09:25:14.362Z</time>
      </trkpt>
      <trkpt lat="41.31206167" lon="1.90037667">
        <ele>372.0</ele>
        <time>2019-12-21T09:25:15.357Z</time>
      </trkpt>
      <trkpt lat="41.31199167" lon="1.90019">
        <ele>372.0</ele>
        <time>2019-12-21T09:25:16.360Z</time>
      </trkpt>
      <trkpt lat="41.31196167" lon="1.90008833">
        <ele>371.0</ele>
        <time>2019-12-21T09:25:17.361Z</time>
      </trkpt>
      <trkpt lat="41.31196167" lon="1.90008833">
        <ele>371.0</ele>
        <time>2019-12-21T09:25:18.355Z</time>
      </trkpt>
      <trkpt lat="41.31191833" lon="1.89987">
        <ele>370.0</ele>
        <time>2019-12-21T09:25:19.358Z</time>
      </trkpt>
      <trkpt lat="41.31191833" lon="1.89987">
        <ele>370.0</ele>
        <time>2019-12-21T09:25:20.355Z</time>
      </trkpt>
      <trkpt lat="41.31189833" lon="1.899655">
        <ele>369.0</ele>
        <time>2019-12-21T09:25:21.342Z</time>
      </trkpt>
      <trkpt lat="41.31189833" lon="1.899655">
        <ele>369.0</ele>
        <time>2019-12-21T09:25:22.365Z</time>
      </trkpt>
      <trkpt lat="41.3119" lon="1.89944333">
        <ele>368.0</ele>
        <time>2019-12-21T09:25:23.361Z</time>
      </trkpt>
      <trkpt lat="41.3119" lon="1.89944333">
        <ele>368.0</ele>
        <time>2019-12-21T09:25:24.355Z</time>
      </trkpt>
      <trkpt lat="41.31191333" lon="1.89923333">
        <ele>367.0</ele>
        <time>2019-12-21T09:25:25.360Z</time>
      </trkpt>
      <trkpt lat="41.31191333" lon="1.89923333">
        <ele>367.0</ele>
        <time>2019-12-21T09:25:26.357Z</time>
      </trkpt>
      <trkpt lat="41.31193667" lon="1.89902333">
        <ele>366.0</ele>
        <time>2019-12-21T09:25:27.369Z</time>
      </trkpt>
      <trkpt lat="41.31193667" lon="1.89902333">
        <ele>366.0</ele>
        <time>2019-12-21T09:25:28.366Z</time>
      </trkpt>
      <trkpt lat="41.31196333" lon="1.89881167">
        <ele>365.0</ele>
        <time>2019-12-21T09:25:29.361Z</time>
      </trkpt>
      <trkpt lat="41.31196333" lon="1.89881167">
        <ele>365.0</ele>
        <time>2019-12-21T09:25:30.355Z</time>
      </trkpt>
      <trkpt lat="41.31198667" lon="1.89859333">
        <ele>364.0</ele>
        <time>2019-12-21T09:25:31.361Z</time>
      </trkpt>
      <trkpt lat="41.31198667" lon="1.89859333">
        <ele>364.0</ele>
        <time>2019-12-21T09:25:32.357Z</time>
      </trkpt>
      <trkpt lat="41.31199" lon="1.89837333">
        <ele>363.0</ele>
        <time>2019-12-21T09:25:33.363Z</time>
      </trkpt>
      <trkpt lat="41.31199" lon="1.89837333">
        <ele>363.0</ele>
        <time>2019-12-21T09:25:34.356Z</time>
      </trkpt>
      <trkpt lat="41.31196333" lon="1.89814">
        <ele>361.0</ele>
        <time>2019-12-21T09:25:35.361Z</time>
      </trkpt>
      <trkpt lat="41.31196333" lon="1.89814">
        <ele>361.0</ele>
        <time>2019-12-21T09:25:36.356Z</time>
      </trkpt>
      <trkpt lat="41.31191167" lon="1.89789667">
        <ele>360.0</ele>
        <time>2019-12-21T09:25:37.362Z</time>
      </trkpt>
      <trkpt lat="41.31191167" lon="1.89789667">
        <ele>360.0</ele>
        <time>2019-12-21T09:25:38.358Z</time>
      </trkpt>
      <trkpt lat="41.31183833" lon="1.89767833">
        <ele>359.0</ele>
        <time>2019-12-21T09:25:39.364Z</time>
      </trkpt>
      <trkpt lat="41.31183833" lon="1.89767833">
        <ele>359.0</ele>
        <time>2019-12-21T09:25:40.356Z</time>
      </trkpt>
      <trkpt lat="41.31176667" lon="1.897475">
        <ele>357.0</ele>
        <time>2019-12-21T09:25:41.362Z</time>
      </trkpt>
      <trkpt lat="41.31176667" lon="1.897475">
        <ele>357.0</ele>
        <time>2019-12-21T09:25:42.355Z</time>
      </trkpt>
      <trkpt lat="41.31169667" lon="1.89728667">
        <ele>356.0</ele>
        <time>2019-12-21T09:25:43.340Z</time>
      </trkpt>
      <trkpt lat="41.31169667" lon="1.89728667">
        <ele>356.0</ele>
        <time>2019-12-21T09:25:44.362Z</time>
      </trkpt>
      <trkpt lat="41.31163167" lon="1.89709167">
        <ele>356.0</ele>
        <time>2019-12-21T09:25:45.364Z</time>
      </trkpt>
      <trkpt lat="41.31163167" lon="1.89709167">
        <ele>356.0</ele>
        <time>2019-12-21T09:25:46.355Z</time>
      </trkpt>
      <trkpt lat="41.31155333" lon="1.89689333">
        <ele>355.0</ele>
        <time>2019-12-21T09:25:47.361Z</time>
      </trkpt>
      <trkpt lat="41.31155333" lon="1.89689333">
        <ele>355.0</ele>
        <time>2019-12-21T09:25:48.358Z</time>
      </trkpt>
      <trkpt lat="41.31145667" lon="1.89672">
        <ele>354.0</ele>
        <time>2019-12-21T09:25:49.361Z</time>
      </trkpt>
      <trkpt lat="41.31140667" lon="1.89664">
        <ele>354.0</ele>
        <time>2019-12-21T09:25:50.361Z</time>
      </trkpt>
      <trkpt lat="41.31140667" lon="1.89664">
        <ele>354.0</ele>
        <time>2019-12-21T09:25:51.356Z</time>
      </trkpt>
      <trkpt lat="41.31130167" lon="1.896495">
        <ele>355.0</ele>
        <time>2019-12-21T09:25:52.362Z</time>
      </trkpt>
      <trkpt lat="41.31130167" lon="1.896495">
        <ele>355.0</ele>
        <time>2019-12-21T09:25:53.358Z</time>
      </trkpt>
      <trkpt lat="41.31121" lon="1.89636">
        <ele>355.0</ele>
        <time>2019-12-21T09:25:54.358Z</time>
      </trkpt>
      <trkpt lat="41.31116333" lon="1.896295">
        <ele>355.0</ele>
        <time>2019-12-21T09:25:55.361Z</time>
      </trkpt>
      <trkpt lat="41.31116333" lon="1.896295">
        <ele>355.0</ele>
        <time>2019-12-21T09:25:56.355Z</time>
      </trkpt>
      <trkpt lat="41.31107167" lon="1.89618333">
        <ele>355.0</ele>
        <time>2019-12-21T09:25:57.338Z</time>
      </trkpt>
      <trkpt lat="41.31107167" lon="1.89618333">
        <ele>355.0</ele>
        <time>2019-12-21T09:25:58.361Z</time>
      </trkpt>
      <trkpt lat="41.31098333" lon="1.89609">
        <ele>356.0</ele>
        <time>2019-12-21T09:25:59.362Z</time>
      </trkpt>
      <trkpt lat="41.31094167" lon="1.89604667">
        <ele>356.0</ele>
        <time>2019-12-21T09:26:00.362Z</time>
      </trkpt>
      <trkpt lat="41.31094167" lon="1.89604667">
        <ele>356.0</ele>
        <time>2019-12-21T09:26:01.356Z</time>
      </trkpt>
      <trkpt lat="41.310855" lon="1.89595833">
        <ele>356.0</ele>
        <time>2019-12-21T09:26:02.341Z</time>
      </trkpt>
      <trkpt lat="41.31081" lon="1.89591333">
        <ele>356.0</ele>
        <time>2019-12-21T09:26:03.364Z</time>
      </trkpt>
      <trkpt lat="41.31081" lon="1.89591333">
        <ele>356.0</ele>
        <time>2019-12-21T09:26:04.356Z</time>
      </trkpt>
      <trkpt lat="41.31070833" lon="1.89581333">
        <ele>356.0</ele>
        <time>2019-12-21T09:26:05.358Z</time>
      </trkpt>
      <trkpt lat="41.31070833" lon="1.89581333">
        <ele>356.0</ele>
        <time>2019-12-21T09:26:06.355Z</time>
      </trkpt>
      <trkpt lat="41.31059" lon="1.89570167">
        <ele>355.0</ele>
        <time>2019-12-21T09:26:07.361Z</time>
      </trkpt>
      <trkpt lat="41.31059" lon="1.89570167">
        <ele>355.0</ele>
        <time>2019-12-21T09:26:08.355Z</time>
      </trkpt>
      <trkpt lat="41.31044667" lon="1.895575">
        <ele>354.0</ele>
        <time>2019-12-21T09:26:09.337Z</time>
      </trkpt>
      <trkpt lat="41.31044667" lon="1.895575">
        <ele>354.0</ele>
        <time>2019-12-21T09:26:10.360Z</time>
      </trkpt>
      <trkpt lat="41.31028167" lon="1.89542167">
        <ele>352.0</ele>
        <time>2019-12-21T09:26:11.361Z</time>
      </trkpt>
      <trkpt lat="41.31028167" lon="1.89542167">
        <ele>352.0</ele>
        <time>2019-12-21T09:26:12.356Z</time>
      </trkpt>
      <trkpt lat="41.31010333" lon="1.89524333">
        <ele>351.0</ele>
        <time>2019-12-21T09:26:13.361Z</time>
      </trkpt>
      <trkpt lat="41.310015" lon="1.895155">
        <ele>351.0</ele>
        <time>2019-12-21T09:26:14.357Z</time>
      </trkpt>
      <trkpt lat="41.30992833" lon="1.89507333">
        <ele>350.0</ele>
        <time>2019-12-21T09:26:15.363Z</time>
      </trkpt>
      <trkpt lat="41.30992833" lon="1.89507333">
        <ele>350.0</ele>
        <time>2019-12-21T09:26:16.356Z</time>
      </trkpt>
      <trkpt lat="41.30976667" lon="1.89493">
        <ele>349.0</ele>
        <time>2019-12-21T09:26:17.361Z</time>
      </trkpt>
      <trkpt lat="41.30976667" lon="1.89493">
        <ele>349.0</ele>
        <time>2019-12-21T09:26:18.357Z</time>
      </trkpt>
      <trkpt lat="41.309625" lon="1.89479667">
        <ele>349.0</ele>
        <time>2019-12-21T09:26:19.361Z</time>
      </trkpt>
      <trkpt lat="41.309625" lon="1.89479667">
        <ele>349.0</ele>
        <time>2019-12-21T09:26:20.355Z</time>
      </trkpt>
      <trkpt lat="41.30950333" lon="1.894685">
        <ele>349.0</ele>
        <time>2019-12-21T09:26:21.362Z</time>
      </trkpt>
      <trkpt lat="41.30950333" lon="1.894685">
        <ele>349.0</ele>
        <time>2019-12-21T09:26:22.356Z</time>
      </trkpt>
      <trkpt lat="41.30939833" lon="1.89458667">
        <ele>348.0</ele>
        <time>2019-12-21T09:26:23.340Z</time>
      </trkpt>
      <trkpt lat="41.30939833" lon="1.89458667">
        <ele>348.0</ele>
        <time>2019-12-21T09:26:24.363Z</time>
      </trkpt>
      <trkpt lat="41.30931167" lon="1.89451">
        <ele>349.0</ele>
        <time>2019-12-21T09:26:25.368Z</time>
      </trkpt>
      <trkpt lat="41.30931167" lon="1.89451">
        <ele>349.0</ele>
        <time>2019-12-21T09:26:26.353Z</time>
      </trkpt>
      <trkpt lat="41.30921667" lon="1.89442333">
        <ele>349.0</ele>
        <time>2019-12-21T09:26:27.335Z</time>
      </trkpt>
      <trkpt lat="41.30921667" lon="1.89442333">
        <ele>349.0</ele>
        <time>2019-12-21T09:26:28.359Z</time>
      </trkpt>
      <trkpt lat="41.30912333" lon="1.89434167">
        <ele>349.0</ele>
        <time>2019-12-21T09:26:29.361Z</time>
      </trkpt>
      <trkpt lat="41.30912333" lon="1.89434167">
        <ele>349.0</ele>
        <time>2019-12-21T09:26:30.356Z</time>
      </trkpt>
      <trkpt lat="41.309015" lon="1.89425">
        <ele>349.0</ele>
        <time>2019-12-21T09:26:31.362Z</time>
      </trkpt>
      <trkpt lat="41.309015" lon="1.89425">
        <ele>349.0</ele>
        <time>2019-12-21T09:26:32.355Z</time>
      </trkpt>
      <trkpt lat="41.30888667" lon="1.89415167">
        <ele>349.0</ele>
        <time>2019-12-21T09:26:33.338Z</time>
      </trkpt>
      <trkpt lat="41.30888667" lon="1.89415167">
        <ele>349.0</ele>
        <time>2019-12-21T09:26:34.363Z</time>
      </trkpt>
      <trkpt lat="41.30875" lon="1.89407333">
        <ele>348.0</ele>
        <time>2019-12-21T09:26:35.363Z</time>
      </trkpt>
      <trkpt lat="41.30875" lon="1.89407333">
        <ele>348.0</ele>
        <time>2019-12-21T09:26:36.356Z</time>
      </trkpt>
      <trkpt lat="41.30860333" lon="1.89402">
        <ele>348.0</ele>
        <time>2019-12-21T09:26:37.361Z</time>
      </trkpt>
      <trkpt lat="41.30860333" lon="1.89402">
        <ele>348.0</ele>
        <time>2019-12-21T09:26:38.358Z</time>
      </trkpt>
      <trkpt lat="41.30847333" lon="1.89399167">
        <ele>348.0</ele>
        <time>2019-12-21T09:26:39.364Z</time>
      </trkpt>
      <trkpt lat="41.30847333" lon="1.89399167">
        <ele>348.0</ele>
        <time>2019-12-21T09:26:40.356Z</time>
      </trkpt>
      <trkpt lat="41.30836333" lon="1.89395667">
        <ele>348.0</ele>
        <time>2019-12-21T09:26:41.363Z</time>
      </trkpt>
      <trkpt lat="41.30836333" lon="1.89395667">
        <ele>348.0</ele>
        <time>2019-12-21T09:26:42.355Z</time>
      </trkpt>
      <trkpt lat="41.30826333" lon="1.89391833">
        <ele>348.0</ele>
        <time>2019-12-21T09:26:43.340Z</time>
      </trkpt>
      <trkpt lat="41.30821167" lon="1.89389833">
        <ele>348.0</ele>
        <time>2019-12-21T09:26:44.363Z</time>
      </trkpt>
      <trkpt lat="41.30816667" lon="1.893875">
        <ele>348.0</ele>
        <time>2019-12-21T09:26:45.360Z</time>
      </trkpt>
      <trkpt lat="41.30816667" lon="1.893875">
        <ele>348.0</ele>
        <time>2019-12-21T09:26:46.355Z</time>
      </trkpt>
      <trkpt lat="41.30806833" lon="1.893825">
        <ele>347.0</ele>
        <time>2019-12-21T09:26:47.361Z</time>
      </trkpt>
      <trkpt lat="41.30806833" lon="1.893825">
        <ele>347.0</ele>
        <time>2019-12-21T09:26:48.357Z</time>
      </trkpt>
      <trkpt lat="41.30795167" lon="1.893765">
        <ele>345.0</ele>
        <time>2019-12-21T09:26:49.362Z</time>
      </trkpt>
      <trkpt lat="41.30795167" lon="1.893765">
        <ele>345.0</ele>
        <time>2019-12-21T09:26:50.355Z</time>
      </trkpt>
      <trkpt lat="41.30781167" lon="1.89368833">
        <ele>344.0</ele>
        <time>2019-12-21T09:26:51.337Z</time>
      </trkpt>
      <trkpt lat="41.30781167" lon="1.89368833">
        <ele>344.0</ele>
        <time>2019-12-21T09:26:52.359Z</time>
      </trkpt>
      <trkpt lat="41.30765833" lon="1.89359">
        <ele>342.0</ele>
        <time>2019-12-21T09:26:53.342Z</time>
      </trkpt>
      <trkpt lat="41.30765833" lon="1.89359">
        <ele>342.0</ele>
        <time>2019-12-21T09:26:54.358Z</time>
      </trkpt>
      <trkpt lat="41.30750333" lon="1.89349833">
        <ele>341.0</ele>
        <time>2019-12-21T09:26:55.370Z</time>
      </trkpt>
      <trkpt lat="41.30750333" lon="1.89349833">
        <ele>341.0</ele>
        <time>2019-12-21T09:26:56.356Z</time>
      </trkpt>
      <trkpt lat="41.30734667" lon="1.89343333">
        <ele>340.0</ele>
        <time>2019-12-21T09:26:57.364Z</time>
      </trkpt>
      <trkpt lat="41.30734667" lon="1.89343333">
        <ele>340.0</ele>
        <time>2019-12-21T09:26:58.353Z</time>
      </trkpt>
      <trkpt lat="41.307205" lon="1.89338667">
        <ele>339.0</ele>
        <time>2019-12-21T09:26:59.335Z</time>
      </trkpt>
      <trkpt lat="41.307205" lon="1.89338667">
        <ele>339.0</ele>
        <time>2019-12-21T09:27:00.360Z</time>
      </trkpt>
      <trkpt lat="41.30707167" lon="1.89334167">
        <ele>339.0</ele>
        <time>2019-12-21T09:27:01.362Z</time>
      </trkpt>
      <trkpt lat="41.30707167" lon="1.89334167">
        <ele>339.0</ele>
        <time>2019-12-21T09:27:02.356Z</time>
      </trkpt>
      <trkpt lat="41.30693833" lon="1.893295">
        <ele>338.0</ele>
        <time>2019-12-21T09:27:03.342Z</time>
      </trkpt>
      <trkpt lat="41.30693833" lon="1.893295">
        <ele>338.0</ele>
        <time>2019-12-21T09:27:04.365Z</time>
      </trkpt>
      <trkpt lat="41.30681333" lon="1.89323667">
        <ele>337.0</ele>
        <time>2019-12-21T09:27:05.361Z</time>
      </trkpt>
      <trkpt lat="41.30681333" lon="1.89323667">
        <ele>337.0</ele>
        <time>2019-12-21T09:27:06.356Z</time>
      </trkpt>
      <trkpt lat="41.30669" lon="1.89318833">
        <ele>336.0</ele>
        <time>2019-12-21T09:27:07.361Z</time>
      </trkpt>
      <trkpt lat="41.30669" lon="1.89318833">
        <ele>336.0</ele>
        <time>2019-12-21T09:27:08.357Z</time>
      </trkpt>
      <trkpt lat="41.30657833" lon="1.89315">
        <ele>336.0</ele>
        <time>2019-12-21T09:27:09.364Z</time>
      </trkpt>
      <trkpt lat="41.30657833" lon="1.89315">
        <ele>336.0</ele>
        <time>2019-12-21T09:27:10.356Z</time>
      </trkpt>
      <trkpt lat="41.3065" lon="1.89311667">
        <ele>337.0</ele>
        <time>2019-12-21T09:27:11.361Z</time>
      </trkpt>
      <trkpt lat="41.3065" lon="1.89311667">
        <ele>337.0</ele>
        <time>2019-12-21T09:27:12.356Z</time>
      </trkpt>
      <trkpt lat="41.30643333" lon="1.89309">
        <ele>337.0</ele>
        <time>2019-12-21T09:27:13.339Z</time>
      </trkpt>
      <trkpt lat="41.30643333" lon="1.89309">
        <ele>337.0</ele>
        <time>2019-12-21T09:27:14.362Z</time>
      </trkpt>
      <trkpt lat="41.30634667" lon="1.893085">
        <ele>338.0</ele>
        <time>2019-12-21T09:27:15.364Z</time>
      </trkpt>
      <trkpt lat="41.30634667" lon="1.893085">
        <ele>338.0</ele>
        <time>2019-12-21T09:27:16.356Z</time>
      </trkpt>
      <trkpt lat="41.30626167" lon="1.89308167">
        <ele>339.0</ele>
        <time>2019-12-21T09:27:17.363Z</time>
      </trkpt>
      <trkpt lat="41.30626167" lon="1.89308167">
        <ele>339.0</ele>
        <time>2019-12-21T09:27:18.358Z</time>
      </trkpt>
      <trkpt lat="41.30619167" lon="1.89306333">
        <ele>341.0</ele>
        <time>2019-12-21T09:27:19.361Z</time>
      </trkpt>
      <trkpt lat="41.30619167" lon="1.89306333">
        <ele>341.0</ele>
        <time>2019-12-21T09:27:20.355Z</time>
      </trkpt>
      <trkpt lat="41.30610833" lon="1.893035">
        <ele>341.0</ele>
        <time>2019-12-21T09:27:21.336Z</time>
      </trkpt>
      <trkpt lat="41.30610833" lon="1.893035">
        <ele>341.0</ele>
        <time>2019-12-21T09:27:22.359Z</time>
      </trkpt>
      <trkpt lat="41.30599333" lon="1.89299">
        <ele>341.0</ele>
        <time>2019-12-21T09:27:23.365Z</time>
      </trkpt>
      <trkpt lat="41.30592667" lon="1.89296333">
        <ele>340.0</ele>
        <time>2019-12-21T09:27:24.361Z</time>
      </trkpt>
      <trkpt lat="41.30592667" lon="1.89296333">
        <ele>340.0</ele>
        <time>2019-12-21T09:27:25.356Z</time>
      </trkpt>
      <trkpt lat="41.30577" lon="1.89288167">
        <ele>338.0</ele>
        <time>2019-12-21T09:27:26.361Z</time>
      </trkpt>
      <trkpt lat="41.30568833" lon="1.89284">
        <ele>337.0</ele>
        <time>2019-12-21T09:27:27.364Z</time>
      </trkpt>
      <trkpt lat="41.30568833" lon="1.89284">
        <ele>337.0</ele>
        <time>2019-12-21T09:27:28.358Z</time>
      </trkpt>
      <trkpt lat="41.30552" lon="1.892765">
        <ele>336.0</ele>
        <time>2019-12-21T09:27:29.362Z</time>
      </trkpt>
      <trkpt lat="41.30552" lon="1.892765">
        <ele>336.0</ele>
        <time>2019-12-21T09:27:30.353Z</time>
      </trkpt>
      <trkpt lat="41.30535833" lon="1.89268667">
        <ele>335.0</ele>
        <time>2019-12-21T09:27:31.346Z</time>
      </trkpt>
      <trkpt lat="41.30535833" lon="1.89268667">
        <ele>335.0</ele>
        <time>2019-12-21T09:27:32.368Z</time>
      </trkpt>
      <trkpt lat="41.30520667" lon="1.89259167">
        <ele>335.0</ele>
        <time>2019-12-21T09:27:33.362Z</time>
      </trkpt>
      <trkpt lat="41.30520667" lon="1.89259167">
        <ele>335.0</ele>
        <time>2019-12-21T09:27:34.357Z</time>
      </trkpt>
      <trkpt lat="41.305075" lon="1.89247">
        <ele>334.0</ele>
        <time>2019-12-21T09:27:35.362Z</time>
      </trkpt>
      <trkpt lat="41.305075" lon="1.89247">
        <ele>334.0</ele>
        <time>2019-12-21T09:27:36.359Z</time>
      </trkpt>
      <trkpt lat="41.30495333" lon="1.89232333">
        <ele>333.0</ele>
        <time>2019-12-21T09:27:37.363Z</time>
      </trkpt>
      <trkpt lat="41.30495333" lon="1.89232333">
        <ele>333.0</ele>
        <time>2019-12-21T09:27:38.358Z</time>
      </trkpt>
      <trkpt lat="41.30482833" lon="1.89218">
        <ele>333.0</ele>
        <time>2019-12-21T09:27:39.365Z</time>
      </trkpt>
      <trkpt lat="41.30482833" lon="1.89218">
        <ele>333.0</ele>
        <time>2019-12-21T09:27:40.356Z</time>
      </trkpt>
      <trkpt lat="41.30470833" lon="1.89203">
        <ele>333.0</ele>
        <time>2019-12-21T09:27:41.363Z</time>
      </trkpt>
      <trkpt lat="41.30470833" lon="1.89203">
        <ele>333.0</ele>
        <time>2019-12-21T09:27:42.356Z</time>
      </trkpt>
      <trkpt lat="41.304595" lon="1.891855">
        <ele>332.0</ele>
        <time>2019-12-21T09:27:43.341Z</time>
      </trkpt>
      <trkpt lat="41.30454333" lon="1.89176333">
        <ele>332.0</ele>
        <time>2019-12-21T09:27:44.364Z</time>
      </trkpt>
      <trkpt lat="41.30454333" lon="1.89176333">
        <ele>332.0</ele>
        <time>2019-12-21T09:27:45.359Z</time>
      </trkpt>
      <trkpt lat="41.30444333" lon="1.891565">
        <ele>331.0</ele>
        <time>2019-12-21T09:27:46.363Z</time>
      </trkpt>
      <trkpt lat="41.30444333" lon="1.891565">
        <ele>331.0</ele>
        <time>2019-12-21T09:27:47.356Z</time>
      </trkpt>
      <trkpt lat="41.30434167" lon="1.891345">
        <ele>329.0</ele>
        <time>2019-12-21T09:27:48.361Z</time>
      </trkpt>
      <trkpt lat="41.30434167" lon="1.891345">
        <ele>329.0</ele>
        <time>2019-12-21T09:27:49.358Z</time>
      </trkpt>
      <trkpt lat="41.30424833" lon="1.89111167">
        <ele>328.0</ele>
        <time>2019-12-21T09:27:50.363Z</time>
      </trkpt>
      <trkpt lat="41.30420667" lon="1.89099833">
        <ele>328.0</ele>
        <time>2019-12-21T09:27:51.361Z</time>
      </trkpt>
      <trkpt lat="41.30420667" lon="1.89099833">
        <ele>328.0</ele>
        <time>2019-12-21T09:27:52.356Z</time>
      </trkpt>
      <trkpt lat="41.30414" lon="1.890775">
        <ele>328.0</ele>
        <time>2019-12-21T09:27:53.362Z</time>
      </trkpt>
      <trkpt lat="41.30414" lon="1.890775">
        <ele>328.0</ele>
        <time>2019-12-21T09:27:54.356Z</time>
      </trkpt>
      <trkpt lat="41.304095" lon="1.89054333">
        <ele>327.0</ele>
        <time>2019-12-21T09:27:55.363Z</time>
      </trkpt>
      <trkpt lat="41.304095" lon="1.89054333">
        <ele>327.0</ele>
        <time>2019-12-21T09:27:56.357Z</time>
      </trkpt>
      <trkpt lat="41.30406333" lon="1.89030333">
        <ele>326.0</ele>
        <time>2019-12-21T09:27:57.362Z</time>
      </trkpt>
      <trkpt lat="41.30406333" lon="1.89030333">
        <ele>326.0</ele>
        <time>2019-12-21T09:27:58.356Z</time>
      </trkpt>
      <trkpt lat="41.30402167" lon="1.89007667">
        <ele>326.0</ele>
        <time>2019-12-21T09:27:59.363Z</time>
      </trkpt>
      <trkpt lat="41.30402167" lon="1.89007667">
        <ele>326.0</ele>
        <time>2019-12-21T09:28:00.356Z</time>
      </trkpt>
      <trkpt lat="41.30393667" lon="1.88989167">
        <ele>327.0</ele>
        <time>2019-12-21T09:28:01.363Z</time>
      </trkpt>
      <trkpt lat="41.30393667" lon="1.88989167">
        <ele>327.0</ele>
        <time>2019-12-21T09:28:02.354Z</time>
      </trkpt>
      <trkpt lat="41.30383333" lon="1.88977">
        <ele>328.0</ele>
        <time>2019-12-21T09:28:03.337Z</time>
      </trkpt>
      <trkpt lat="41.30378167" lon="1.88972333">
        <ele>329.0</ele>
        <time>2019-12-21T09:28:04.371Z</time>
      </trkpt>
      <trkpt lat="41.30378167" lon="1.88972333">
        <ele>329.0</ele>
        <time>2019-12-21T09:28:05.356Z</time>
      </trkpt>
      <trkpt lat="41.303675" lon="1.88965">
        <ele>330.0</ele>
        <time>2019-12-21T09:28:06.361Z</time>
      </trkpt>
      <trkpt lat="41.303675" lon="1.88965">
        <ele>330.0</ele>
        <time>2019-12-21T09:28:07.356Z</time>
      </trkpt>
      <trkpt lat="41.30356667" lon="1.88960667">
        <ele>330.0</ele>
        <time>2019-12-21T09:28:08.340Z</time>
      </trkpt>
      <trkpt lat="41.30351333" lon="1.88959">
        <ele>331.0</ele>
        <time>2019-12-21T09:28:09.364Z</time>
      </trkpt>
      <trkpt lat="41.30351333" lon="1.88959">
        <ele>331.0</ele>
        <time>2019-12-21T09:28:10.357Z</time>
      </trkpt>
      <trkpt lat="41.30340667" lon="1.88956">
        <ele>331.0</ele>
        <time>2019-12-21T09:28:11.363Z</time>
      </trkpt>
      <trkpt lat="41.30340667" lon="1.88956">
        <ele>331.0</ele>
        <time>2019-12-21T09:28:12.356Z</time>
      </trkpt>
      <trkpt lat="41.30330667" lon="1.889525">
        <ele>331.0</ele>
        <time>2019-12-21T09:28:13.362Z</time>
      </trkpt>
      <trkpt lat="41.30330667" lon="1.889525">
        <ele>331.0</ele>
        <time>2019-12-21T09:28:14.356Z</time>
      </trkpt>
      <trkpt lat="41.30320167" lon="1.889485">
        <ele>331.0</ele>
        <time>2019-12-21T09:28:15.338Z</time>
      </trkpt>
      <trkpt lat="41.30320167" lon="1.889485">
        <ele>331.0</ele>
        <time>2019-12-21T09:28:16.360Z</time>
      </trkpt>
      <trkpt lat="41.303105" lon="1.88940333">
        <ele>330.0</ele>
        <time>2019-12-21T09:28:17.361Z</time>
      </trkpt>
      <trkpt lat="41.303105" lon="1.88940333">
        <ele>330.0</ele>
        <time>2019-12-21T09:28:18.356Z</time>
      </trkpt>
      <trkpt lat="41.30302167" lon="1.88927">
        <ele>330.0</ele>
        <time>2019-12-21T09:28:19.360Z</time>
      </trkpt>
      <trkpt lat="41.30302167" lon="1.88927">
        <ele>330.0</ele>
        <time>2019-12-21T09:28:20.356Z</time>
      </trkpt>
      <trkpt lat="41.30296667" lon="1.88909">
        <ele>329.0</ele>
        <time>2019-12-21T09:28:21.361Z</time>
      </trkpt>
      <trkpt lat="41.30296667" lon="1.88909">
        <ele>329.0</ele>
        <time>2019-12-21T09:28:22.356Z</time>
      </trkpt>
      <trkpt lat="41.30294667" lon="1.888875">
        <ele>328.0</ele>
        <time>2019-12-21T09:28:23.363Z</time>
      </trkpt>
      <trkpt lat="41.30294667" lon="1.888875">
        <ele>328.0</ele>
        <time>2019-12-21T09:28:24.360Z</time>
      </trkpt>
      <trkpt lat="41.30297167" lon="1.88864333">
        <ele>327.0</ele>
        <time>2019-12-21T09:28:25.363Z</time>
      </trkpt>
      <trkpt lat="41.30297167" lon="1.88864333">
        <ele>327.0</ele>
        <time>2019-12-21T09:28:26.357Z</time>
      </trkpt>
      <trkpt lat="41.30302667" lon="1.88841833">
        <ele>326.0</ele>
        <time>2019-12-21T09:28:27.338Z</time>
      </trkpt>
      <trkpt lat="41.30302667" lon="1.88841833">
        <ele>326.0</ele>
        <time>2019-12-21T09:28:28.361Z</time>
      </trkpt>
      <trkpt lat="41.30309" lon="1.88819833">
        <ele>325.0</ele>
        <time>2019-12-21T09:28:29.361Z</time>
      </trkpt>
      <trkpt lat="41.30309" lon="1.88819833">
        <ele>325.0</ele>
        <time>2019-12-21T09:28:30.356Z</time>
      </trkpt>
      <trkpt lat="41.303155" lon="1.88797167">
        <ele>323.0</ele>
        <time>2019-12-21T09:28:31.363Z</time>
      </trkpt>
      <trkpt lat="41.303155" lon="1.88797167">
        <ele>323.0</ele>
        <time>2019-12-21T09:28:32.356Z</time>
      </trkpt>
      <trkpt lat="41.303215" lon="1.88773667">
        <ele>322.0</ele>
        <time>2019-12-21T09:28:33.338Z</time>
      </trkpt>
      <trkpt lat="41.303215" lon="1.88773667">
        <ele>322.0</ele>
        <time>2019-12-21T09:28:34.361Z</time>
      </trkpt>
      <trkpt lat="41.30329667" lon="1.8875">
        <ele>320.0</ele>
        <time>2019-12-21T09:28:35.363Z</time>
      </trkpt>
      <trkpt lat="41.30329667" lon="1.8875">
        <ele>320.0</ele>
        <time>2019-12-21T09:28:36.357Z</time>
      </trkpt>
      <trkpt lat="41.30340833" lon="1.88729167">
        <ele>319.0</ele>
        <time>2019-12-21T09:28:37.334Z</time>
      </trkpt>
      <trkpt lat="41.30340833" lon="1.88729167">
        <ele>319.0</ele>
        <time>2019-12-21T09:28:38.360Z</time>
      </trkpt>
      <trkpt lat="41.30354167" lon="1.88711">
        <ele>318.0</ele>
        <time>2019-12-21T09:28:39.361Z</time>
      </trkpt>
      <trkpt lat="41.30354167" lon="1.88711">
        <ele>318.0</ele>
        <time>2019-12-21T09:28:40.357Z</time>
      </trkpt>
      <trkpt lat="41.30368333" lon="1.88694">
        <ele>317.0</ele>
        <time>2019-12-21T09:28:41.359Z</time>
      </trkpt>
      <trkpt lat="41.30368333" lon="1.88694">
        <ele>317.0</ele>
        <time>2019-12-21T09:28:42.359Z</time>
      </trkpt>
      <trkpt lat="41.303835" lon="1.88676333">
        <ele>316.0</ele>
        <time>2019-12-21T09:28:43.363Z</time>
      </trkpt>
      <trkpt lat="41.303835" lon="1.88676333">
        <ele>316.0</ele>
        <time>2019-12-21T09:28:44.356Z</time>
      </trkpt>
      <trkpt lat="41.30398667" lon="1.886585">
        <ele>314.0</ele>
        <time>2019-12-21T09:28:45.337Z</time>
      </trkpt>
      <trkpt lat="41.30398667" lon="1.886585">
        <ele>314.0</ele>
        <time>2019-12-21T09:28:46.360Z</time>
      </trkpt>
      <trkpt lat="41.30413833" lon="1.88640333">
        <ele>313.0</ele>
        <time>2019-12-21T09:28:47.363Z</time>
      </trkpt>
      <trkpt lat="41.30413833" lon="1.88640333">
        <ele>313.0</ele>
        <time>2019-12-21T09:28:48.356Z</time>
      </trkpt>
      <trkpt lat="41.30427833" lon="1.88622667">
        <ele>312.0</ele>
        <time>2019-12-21T09:28:49.363Z</time>
      </trkpt>
      <trkpt lat="41.30427833" lon="1.88622667">
        <ele>312.0</ele>
        <time>2019-12-21T09:28:50.355Z</time>
      </trkpt>
      <trkpt lat="41.30441167" lon="1.88605">
        <ele>312.0</ele>
        <time>2019-12-21T09:28:51.338Z</time>
      </trkpt>
      <trkpt lat="41.30441167" lon="1.88605">
        <ele>312.0</ele>
        <time>2019-12-21T09:28:52.360Z</time>
      </trkpt>
      <trkpt lat="41.30452167" lon="1.88587333">
        <ele>312.0</ele>
        <time>2019-12-21T09:28:53.362Z</time>
      </trkpt>
      <trkpt lat="41.30452167" lon="1.88587333">
        <ele>312.0</ele>
        <time>2019-12-21T09:28:54.339Z</time>
      </trkpt>
      <trkpt lat="41.30458333" lon="1.885695">
        <ele>312.0</ele>
        <time>2019-12-21T09:28:55.363Z</time>
      </trkpt>
      <trkpt lat="41.30458833" lon="1.885615">
        <ele>312.0</ele>
        <time>2019-12-21T09:28:56.363Z</time>
      </trkpt>
      <trkpt lat="41.30458833" lon="1.885615">
        <ele>312.0</ele>
        <time>2019-12-21T09:28:57.358Z</time>
      </trkpt>
      <trkpt lat="41.304585" lon="1.88545667">
        <ele>312.0</ele>
        <time>2019-12-21T09:28:58.341Z</time>
      </trkpt>
      <trkpt lat="41.30458333" lon="1.88537833">
        <ele>312.0</ele>
        <time>2019-12-21T09:28:59.364Z</time>
      </trkpt>
      <trkpt lat="41.30458333" lon="1.88537833">
        <ele>312.0</ele>
        <time>2019-12-21T09:29:00.356Z</time>
      </trkpt>
      <trkpt lat="41.30458" lon="1.885215">
        <ele>311.0</ele>
        <time>2019-12-21T09:29:01.358Z</time>
      </trkpt>
      <trkpt lat="41.30458667" lon="1.885125">
        <ele>310.0</ele>
        <time>2019-12-21T09:29:02.361Z</time>
      </trkpt>
      <trkpt lat="41.30458667" lon="1.885125">
        <ele>310.0</ele>
        <time>2019-12-21T09:29:03.358Z</time>
      </trkpt>
      <trkpt lat="41.30463167" lon="1.88491833">
        <ele>309.0</ele>
        <time>2019-12-21T09:29:04.354Z</time>
      </trkpt>
      <trkpt lat="41.30467" lon="1.88480833">
        <ele>308.0</ele>
        <time>2019-12-21T09:29:05.336Z</time>
      </trkpt>
      <trkpt lat="41.30467" lon="1.88480833">
        <ele>308.0</ele>
        <time>2019-12-21T09:29:06.358Z</time>
      </trkpt>
      <trkpt lat="41.30476667" lon="1.88456667">
        <ele>306.0</ele>
        <time>2019-12-21T09:29:07.363Z</time>
      </trkpt>
      <trkpt lat="41.304825" lon="1.884435">
        <ele>305.0</ele>
        <time>2019-12-21T09:29:08.363Z</time>
      </trkpt>
      <trkpt lat="41.304825" lon="1.884435">
        <ele>305.0</ele>
        <time>2019-12-21T09:29:09.358Z</time>
      </trkpt>
      <trkpt lat="41.30494333" lon="1.88415167">
        <ele>303.0</ele>
        <time>2019-12-21T09:29:10.363Z</time>
      </trkpt>
      <trkpt lat="41.30494333" lon="1.88415167">
        <ele>303.0</ele>
        <time>2019-12-21T09:29:11.356Z</time>
      </trkpt>
      <trkpt lat="41.30505833" lon="1.88389833">
        <ele>301.0</ele>
        <time>2019-12-21T09:29:12.341Z</time>
      </trkpt>
      <trkpt lat="41.305105" lon="1.883785">
        <ele>301.0</ele>
        <time>2019-12-21T09:29:13.364Z</time>
      </trkpt>
      <trkpt lat="41.305105" lon="1.883785">
        <ele>301.0</ele>
        <time>2019-12-21T09:29:14.357Z</time>
      </trkpt>
      <trkpt lat="41.30514833" lon="1.883575">
        <ele>300.0</ele>
        <time>2019-12-21T09:29:15.339Z</time>
      </trkpt>
      <trkpt lat="41.30514833" lon="1.883575">
        <ele>300.0</ele>
        <time>2019-12-21T09:29:16.361Z</time>
      </trkpt>
      <trkpt lat="41.30515333" lon="1.88339667">
        <ele>299.0</ele>
        <time>2019-12-21T09:29:17.364Z</time>
      </trkpt>
      <trkpt lat="41.30515333" lon="1.88339667">
        <ele>299.0</ele>
        <time>2019-12-21T09:29:18.356Z</time>
      </trkpt>
      <trkpt lat="41.305145" lon="1.88323167">
        <ele>299.0</ele>
        <time>2019-12-21T09:29:19.361Z</time>
      </trkpt>
      <trkpt lat="41.305145" lon="1.88323167">
        <ele>299.0</ele>
        <time>2019-12-21T09:29:20.357Z</time>
      </trkpt>
      <trkpt lat="41.305135" lon="1.88307833">
        <ele>299.0</ele>
        <time>2019-12-21T09:29:21.339Z</time>
      </trkpt>
      <trkpt lat="41.305135" lon="1.88307833">
        <ele>299.0</ele>
        <time>2019-12-21T09:29:22.362Z</time>
      </trkpt>
      <trkpt lat="41.30512167" lon="1.88293">
        <ele>298.0</ele>
        <time>2019-12-21T09:29:23.363Z</time>
      </trkpt>
      <trkpt lat="41.30512167" lon="1.88293">
        <ele>298.0</ele>
        <time>2019-12-21T09:29:24.369Z</time>
      </trkpt>
      <trkpt lat="41.30510333" lon="1.88278833">
        <ele>297.0</ele>
        <time>2019-12-21T09:29:25.363Z</time>
      </trkpt>
      <trkpt lat="41.305095" lon="1.88271167">
        <ele>297.0</ele>
        <time>2019-12-21T09:29:26.362Z</time>
      </trkpt>
      <trkpt lat="41.30508833" lon="1.88263">
        <ele>297.0</ele>
        <time>2019-12-21T09:29:27.362Z</time>
      </trkpt>
      <trkpt lat="41.30508833" lon="1.88263">
        <ele>297.0</ele>
        <time>2019-12-21T09:29:28.359Z</time>
      </trkpt>
      <trkpt lat="41.30507167" lon="1.88247333">
        <ele>297.0</ele>
        <time>2019-12-21T09:29:29.361Z</time>
      </trkpt>
      <trkpt lat="41.30505833" lon="1.882395">
        <ele>297.0</ele>
        <time>2019-12-21T09:29:30.363Z</time>
      </trkpt>
      <trkpt lat="41.30505833" lon="1.882395">
        <ele>297.0</ele>
        <time>2019-12-21T09:29:31.357Z</time>
      </trkpt>
      <trkpt lat="41.305025" lon="1.88223333">
        <ele>297.0</ele>
        <time>2019-12-21T09:29:32.363Z</time>
      </trkpt>
      <trkpt lat="41.305" lon="1.88215167">
        <ele>298.0</ele>
        <time>2019-12-21T09:29:33.365Z</time>
      </trkpt>
      <trkpt lat="41.305" lon="1.88215167">
        <ele>298.0</ele>
        <time>2019-12-21T09:29:34.361Z</time>
      </trkpt>
      <trkpt lat="41.30493833" lon="1.88199667">
        <ele>298.0</ele>
        <time>2019-12-21T09:29:35.371Z</time>
      </trkpt>
      <trkpt lat="41.30493833" lon="1.88199667">
        <ele>298.0</ele>
        <time>2019-12-21T09:29:36.357Z</time>
      </trkpt>
      <trkpt lat="41.30486167" lon="1.88184833">
        <ele>298.0</ele>
        <time>2019-12-21T09:29:37.363Z</time>
      </trkpt>
      <trkpt lat="41.30486167" lon="1.88184833">
        <ele>298.0</ele>
        <time>2019-12-21T09:29:38.355Z</time>
      </trkpt>
      <trkpt lat="41.30478" lon="1.881695">
        <ele>298.0</ele>
        <time>2019-12-21T09:29:39.337Z</time>
      </trkpt>
      <trkpt lat="41.30478" lon="1.881695">
        <ele>298.0</ele>
        <time>2019-12-21T09:29:40.361Z</time>
      </trkpt>
      <trkpt lat="41.30468833" lon="1.88153667">
        <ele>299.0</ele>
        <time>2019-12-21T09:29:41.363Z</time>
      </trkpt>
      <trkpt lat="41.30468833" lon="1.88153667">
        <ele>299.0</ele>
        <time>2019-12-21T09:29:42.357Z</time>
      </trkpt>
      <trkpt lat="41.3046" lon="1.88136333">
        <ele>298.0</ele>
        <time>2019-12-21T09:29:43.341Z</time>
      </trkpt>
      <trkpt lat="41.3046" lon="1.88136333">
        <ele>298.0</ele>
        <time>2019-12-21T09:29:44.364Z</time>
      </trkpt>
      <trkpt lat="41.30451833" lon="1.88119833">
        <ele>298.0</ele>
        <time>2019-12-21T09:29:45.361Z</time>
      </trkpt>
      <trkpt lat="41.30451833" lon="1.88119833">
        <ele>298.0</ele>
        <time>2019-12-21T09:29:46.357Z</time>
      </trkpt>
      <trkpt lat="41.30444167" lon="1.88104167">
        <ele>298.0</ele>
        <time>2019-12-21T09:29:47.363Z</time>
      </trkpt>
      <trkpt lat="41.30444167" lon="1.88104167">
        <ele>298.0</ele>
        <time>2019-12-21T09:29:48.360Z</time>
      </trkpt>
      <trkpt lat="41.30437" lon="1.88089">
        <ele>298.0</ele>
        <time>2019-12-21T09:29:49.361Z</time>
      </trkpt>
      <trkpt lat="41.30437" lon="1.88089">
        <ele>298.0</ele>
        <time>2019-12-21T09:29:50.356Z</time>
      </trkpt>
      <trkpt lat="41.30431333" lon="1.880755">
        <ele>298.0</ele>
        <time>2019-12-21T09:29:51.339Z</time>
      </trkpt>
      <trkpt lat="41.30429" lon="1.880695">
        <ele>298.0</ele>
        <time>2019-12-21T09:29:52.334Z</time>
      </trkpt>
      <trkpt lat="41.30429" lon="1.880695">
        <ele>298.0</ele>
        <time>2019-12-21T09:29:53.341Z</time>
      </trkpt>
      <trkpt lat="41.30425" lon="1.88057833">
        <ele>299.0</ele>
        <time>2019-12-21T09:29:54.363Z</time>
      </trkpt>
      <trkpt lat="41.30425" lon="1.88057833">
        <ele>299.0</ele>
        <time>2019-12-21T09:29:55.357Z</time>
      </trkpt>
      <trkpt lat="41.30422" lon="1.88047167">
        <ele>299.0</ele>
        <time>2019-12-21T09:29:56.363Z</time>
      </trkpt>
      <trkpt lat="41.30421" lon="1.88041833">
        <ele>299.0</ele>
        <time>2019-12-21T09:29:57.363Z</time>
      </trkpt>
      <trkpt lat="41.30421" lon="1.88041833">
        <ele>299.0</ele>
        <time>2019-12-21T09:29:58.358Z</time>
      </trkpt>
      <trkpt lat="41.304195" lon="1.88031333">
        <ele>299.0</ele>
        <time>2019-12-21T09:29:59.363Z</time>
      </trkpt>
      <trkpt lat="41.304195" lon="1.88031333">
        <ele>299.0</ele>
        <time>2019-12-21T09:30:00.357Z</time>
      </trkpt>
      <trkpt lat="41.30415833" lon="1.880205">
        <ele>300.0</ele>
        <time>2019-12-21T09:30:01.363Z</time>
      </trkpt>
      <trkpt lat="41.30415833" lon="1.880205">
        <ele>300.0</ele>
        <time>2019-12-21T09:30:02.357Z</time>
      </trkpt>
      <trkpt lat="41.304065" lon="1.88009667">
        <ele>301.0</ele>
        <time>2019-12-21T09:30:03.339Z</time>
      </trkpt>
      <trkpt lat="41.304065" lon="1.88009667">
        <ele>301.0</ele>
        <time>2019-12-21T09:30:04.361Z</time>
      </trkpt>
      <trkpt lat="41.30393167" lon="1.88003">
        <ele>300.0</ele>
        <time>2019-12-21T09:30:05.363Z</time>
      </trkpt>
      <trkpt lat="41.30393167" lon="1.88003">
        <ele>300.0</ele>
        <time>2019-12-21T09:30:06.357Z</time>
      </trkpt>
      <trkpt lat="41.30378167" lon="1.879985">
        <ele>299.0</ele>
        <time>2019-12-21T09:30:07.363Z</time>
      </trkpt>
      <trkpt lat="41.30378167" lon="1.879985">
        <ele>299.0</ele>
        <time>2019-12-21T09:30:08.357Z</time>
      </trkpt>
      <trkpt lat="41.30363333" lon="1.879945">
        <ele>299.0</ele>
        <time>2019-12-21T09:30:09.339Z</time>
      </trkpt>
      <trkpt lat="41.30363333" lon="1.879945">
        <ele>299.0</ele>
        <time>2019-12-21T09:30:10.361Z</time>
      </trkpt>
      <trkpt lat="41.30349167" lon="1.879885">
        <ele>298.0</ele>
        <time>2019-12-21T09:30:11.363Z</time>
      </trkpt>
      <trkpt lat="41.30349167" lon="1.879885">
        <ele>298.0</ele>
        <time>2019-12-21T09:30:12.357Z</time>
      </trkpt>
      <trkpt lat="41.30335667" lon="1.87980667">
        <ele>297.0</ele>
        <time>2019-12-21T09:30:13.342Z</time>
      </trkpt>
      <trkpt lat="41.30335667" lon="1.87980667">
        <ele>297.0</ele>
        <time>2019-12-21T09:30:14.365Z</time>
      </trkpt>
      <trkpt lat="41.30322" lon="1.87970833">
        <ele>296.0</ele>
        <time>2019-12-21T09:30:15.361Z</time>
      </trkpt>
      <trkpt lat="41.30322" lon="1.87970833">
        <ele>296.0</ele>
        <time>2019-12-21T09:30:16.357Z</time>
      </trkpt>
      <trkpt lat="41.30308167" lon="1.87953833">
        <ele>295.0</ele>
        <time>2019-12-21T09:30:17.359Z</time>
      </trkpt>
      <trkpt lat="41.30308167" lon="1.87953833">
        <ele>295.0</ele>
        <time>2019-12-21T09:30:18.342Z</time>
      </trkpt>
      <trkpt lat="41.30293167" lon="1.87932833">
        <ele>293.0</ele>
        <time>2019-12-21T09:30:19.364Z</time>
      </trkpt>
      <trkpt lat="41.30293167" lon="1.87932833">
        <ele>293.0</ele>
        <time>2019-12-21T09:30:20.357Z</time>
      </trkpt>
      <trkpt lat="41.30277667" lon="1.87910333">
        <ele>291.0</ele>
        <time>2019-12-21T09:30:21.339Z</time>
      </trkpt>
      <trkpt lat="41.30277667" lon="1.87910333">
        <ele>291.0</ele>
        <time>2019-12-21T09:30:22.361Z</time>
      </trkpt>
      <trkpt lat="41.302625" lon="1.87889167">
        <ele>290.0</ele>
        <time>2019-12-21T09:30:23.371Z</time>
      </trkpt>
      <trkpt lat="41.302625" lon="1.87889167">
        <ele>290.0</ele>
        <time>2019-12-21T09:30:24.363Z</time>
      </trkpt>
      <trkpt lat="41.30246667" lon="1.87869">
        <ele>288.0</ele>
        <time>2019-12-21T09:30:25.362Z</time>
      </trkpt>
      <trkpt lat="41.30238833" lon="1.87859167">
        <ele>287.0</ele>
        <time>2019-12-21T09:30:26.363Z</time>
      </trkpt>
      <trkpt lat="41.30231333" lon="1.87849">
        <ele>286.0</ele>
        <time>2019-12-21T09:30:27.366Z</time>
      </trkpt>
      <trkpt lat="41.30231333" lon="1.87849">
        <ele>286.0</ele>
        <time>2019-12-21T09:30:28.358Z</time>
      </trkpt>
      <trkpt lat="41.30217833" lon="1.87828333">
        <ele>285.0</ele>
        <time>2019-12-21T09:30:29.363Z</time>
      </trkpt>
      <trkpt lat="41.30217833" lon="1.87828333">
        <ele>285.0</ele>
        <time>2019-12-21T09:30:30.357Z</time>
      </trkpt>
      <trkpt lat="41.30206167" lon="1.87808333">
        <ele>284.0</ele>
        <time>2019-12-21T09:30:31.363Z</time>
      </trkpt>
      <trkpt lat="41.30201333" lon="1.87798833">
        <ele>283.0</ele>
        <time>2019-12-21T09:30:32.363Z</time>
      </trkpt>
      <trkpt lat="41.30201333" lon="1.87798833">
        <ele>283.0</ele>
        <time>2019-12-21T09:30:33.359Z</time>
      </trkpt>
      <trkpt lat="41.30194333" lon="1.87781833">
        <ele>282.0</ele>
        <time>2019-12-21T09:30:34.361Z</time>
      </trkpt>
      <trkpt lat="41.30194333" lon="1.87781833">
        <ele>282.0</ele>
        <time>2019-12-21T09:30:35.360Z</time>
      </trkpt>
      <trkpt lat="41.30190667" lon="1.87765333">
        <ele>281.0</ele>
        <time>2019-12-21T09:30:36.363Z</time>
      </trkpt>
      <trkpt lat="41.30190667" lon="1.87765333">
        <ele>281.0</ele>
        <time>2019-12-21T09:30:37.357Z</time>
      </trkpt>
      <trkpt lat="41.30187833" lon="1.87747167">
        <ele>281.0</ele>
        <time>2019-12-21T09:30:38.340Z</time>
      </trkpt>
      <trkpt lat="41.30184333" lon="1.87737833">
        <ele>281.0</ele>
        <time>2019-12-21T09:30:39.343Z</time>
      </trkpt>
      <trkpt lat="41.30184333" lon="1.87737833">
        <ele>281.0</ele>
        <time>2019-12-21T09:30:40.366Z</time>
      </trkpt>
      <trkpt lat="41.30171667" lon="1.87722833">
        <ele>279.0</ele>
        <time>2019-12-21T09:30:41.364Z</time>
      </trkpt>
      <trkpt lat="41.30171667" lon="1.87722833">
        <ele>279.0</ele>
        <time>2019-12-21T09:30:42.355Z</time>
      </trkpt>
      <trkpt lat="41.301545" lon="1.87711167">
        <ele>277.0</ele>
        <time>2019-12-21T09:30:43.337Z</time>
      </trkpt>
      <trkpt lat="41.301545" lon="1.87711167">
        <ele>277.0</ele>
        <time>2019-12-21T09:30:44.369Z</time>
      </trkpt>
      <trkpt lat="41.30134833" lon="1.87699667">
        <ele>275.0</ele>
        <time>2019-12-21T09:30:45.356Z</time>
      </trkpt>
      <trkpt lat="41.30124167" lon="1.87693333">
        <ele>275.0</ele>
        <time>2019-12-21T09:30:46.364Z</time>
      </trkpt>
      <trkpt lat="41.30124167" lon="1.87693333">
        <ele>275.0</ele>
        <time>2019-12-21T09:30:47.357Z</time>
      </trkpt>
      <trkpt lat="41.30102833" lon="1.87677667">
        <ele>273.0</ele>
        <time>2019-12-21T09:30:48.341Z</time>
      </trkpt>
      <trkpt lat="41.30102833" lon="1.87677667">
        <ele>273.0</ele>
        <time>2019-12-21T09:30:49.364Z</time>
      </trkpt>
      <trkpt lat="41.30083833" lon="1.8766">
        <ele>272.0</ele>
        <time>2019-12-21T09:30:50.335Z</time>
      </trkpt>
      <trkpt lat="41.30083833" lon="1.8766">
        <ele>272.0</ele>
        <time>2019-12-21T09:30:51.360Z</time>
      </trkpt>
      <trkpt lat="41.30066167" lon="1.87644167">
        <ele>271.0</ele>
        <time>2019-12-21T09:30:52.342Z</time>
      </trkpt>
      <trkpt lat="41.30066167" lon="1.87644167">
        <ele>271.0</ele>
        <time>2019-12-21T09:30:53.365Z</time>
      </trkpt>
      <trkpt lat="41.30048833" lon="1.87630167">
        <ele>270.0</ele>
        <time>2019-12-21T09:30:54.355Z</time>
      </trkpt>
      <trkpt lat="41.30048833" lon="1.87630167">
        <ele>270.0</ele>
        <time>2019-12-21T09:30:55.349Z</time>
      </trkpt>
      <trkpt lat="41.30031833" lon="1.87617833">
        <ele>269.0</ele>
        <time>2019-12-21T09:30:56.355Z</time>
      </trkpt>
      <trkpt lat="41.30031833" lon="1.87617833">
        <ele>269.0</ele>
        <time>2019-12-21T09:30:57.361Z</time>
      </trkpt>
      <trkpt lat="41.30015667" lon="1.87606167">
        <ele>269.0</ele>
        <time>2019-12-21T09:30:58.345Z</time>
      </trkpt>
      <trkpt lat="41.30015667" lon="1.87606167">
        <ele>269.0</ele>
        <time>2019-12-21T09:30:59.369Z</time>
      </trkpt>
      <trkpt lat="41.30003833" lon="1.87593833">
        <ele>269.0</ele>
        <time>2019-12-21T09:31:00.364Z</time>
      </trkpt>
      <trkpt lat="41.30000833" lon="1.87589">
        <ele>269.0</ele>
        <time>2019-12-21T09:31:01.336Z</time>
      </trkpt>
      <trkpt lat="41.30000833" lon="1.87589">
        <ele>269.0</ele>
        <time>2019-12-21T09:31:02.360Z</time>
      </trkpt>
      <trkpt lat="41.29994167" lon="1.87576167">
        <ele>269.0</ele>
        <time>2019-12-21T09:31:03.362Z</time>
      </trkpt>
      <trkpt lat="41.29994167" lon="1.87576167">
        <ele>269.0</ele>
        <time>2019-12-21T09:31:04.357Z</time>
      </trkpt>
      <trkpt lat="41.29987" lon="1.87558167">
        <ele>267.0</ele>
        <time>2019-12-21T09:31:05.341Z</time>
      </trkpt>
      <trkpt lat="41.29983333" lon="1.87547667">
        <ele>266.0</ele>
        <time>2019-12-21T09:31:06.364Z</time>
      </trkpt>
      <trkpt lat="41.29983333" lon="1.87547667">
        <ele>266.0</ele>
        <time>2019-12-21T09:31:07.358Z</time>
      </trkpt>
      <trkpt lat="41.29976333" lon="1.87525">
        <ele>264.0</ele>
        <time>2019-12-21T09:31:08.363Z</time>
      </trkpt>
      <trkpt lat="41.29973333" lon="1.87513167">
        <ele>263.0</ele>
        <time>2019-12-21T09:31:09.366Z</time>
      </trkpt>
      <trkpt lat="41.29973333" lon="1.87513167">
        <ele>263.0</ele>
        <time>2019-12-21T09:31:10.358Z</time>
      </trkpt>
      <trkpt lat="41.29967167" lon="1.874885">
        <ele>262.0</ele>
        <time>2019-12-21T09:31:11.363Z</time>
      </trkpt>
      <trkpt lat="41.29967167" lon="1.874885">
        <ele>262.0</ele>
        <time>2019-12-21T09:31:12.358Z</time>
      </trkpt>
      <trkpt lat="41.29960167" lon="1.87464833">
        <ele>261.0</ele>
        <time>2019-12-21T09:31:13.363Z</time>
      </trkpt>
      <trkpt lat="41.29960167" lon="1.87464833">
        <ele>261.0</ele>
        <time>2019-12-21T09:31:14.356Z</time>
      </trkpt>
      <trkpt lat="41.29949667" lon="1.874435">
        <ele>260.0</ele>
        <time>2019-12-21T09:31:15.346Z</time>
      </trkpt>
      <trkpt lat="41.29949667" lon="1.874435">
        <ele>260.0</ele>
        <time>2019-12-21T09:31:16.369Z</time>
      </trkpt>
      <trkpt lat="41.29934667" lon="1.87429">
        <ele>259.0</ele>
        <time>2019-12-21T09:31:17.362Z</time>
      </trkpt>
      <trkpt lat="41.29926" lon="1.874245">
        <ele>258.0</ele>
        <time>2019-12-21T09:31:18.371Z</time>
      </trkpt>
      <trkpt lat="41.29926" lon="1.874245">
        <ele>258.0</ele>
        <time>2019-12-21T09:31:19.357Z</time>
      </trkpt>
      <trkpt lat="41.29907167" lon="1.874205">
        <ele>257.0</ele>
        <time>2019-12-21T09:31:20.364Z</time>
      </trkpt>
      <trkpt lat="41.29897667" lon="1.87420333">
        <ele>256.0</ele>
        <time>2019-12-21T09:31:21.365Z</time>
      </trkpt>
      <trkpt lat="41.29897667" lon="1.87420333">
        <ele>256.0</ele>
        <time>2019-12-21T09:31:22.357Z</time>
      </trkpt>
      <trkpt lat="41.298815" lon="1.874195">
        <ele>254.0</ele>
        <time>2019-12-21T09:31:23.363Z</time>
      </trkpt>
      <trkpt lat="41.298815" lon="1.874195">
        <ele>254.0</ele>
        <time>2019-12-21T09:31:24.357Z</time>
      </trkpt>
      <trkpt lat="41.29867" lon="1.87414833">
        <ele>252.0</ele>
        <time>2019-12-21T09:31:25.368Z</time>
      </trkpt>
      <trkpt lat="41.29867" lon="1.87414833">
        <ele>252.0</ele>
        <time>2019-12-21T09:31:26.357Z</time>
      </trkpt>
      <trkpt lat="41.298525" lon="1.87403667">
        <ele>250.0</ele>
        <time>2019-12-21T09:31:27.343Z</time>
      </trkpt>
      <trkpt lat="41.298525" lon="1.87403667">
        <ele>250.0</ele>
        <time>2019-12-21T09:31:28.338Z</time>
      </trkpt>
      <trkpt lat="41.29837167" lon="1.87388167">
        <ele>248.0</ele>
        <time>2019-12-21T09:31:29.364Z</time>
      </trkpt>
      <trkpt lat="41.29837167" lon="1.87388167">
        <ele>248.0</ele>
        <time>2019-12-21T09:31:30.358Z</time>
      </trkpt>
      <trkpt lat="41.29822167" lon="1.87369833">
        <ele>247.0</ele>
        <time>2019-12-21T09:31:31.363Z</time>
      </trkpt>
      <trkpt lat="41.29822167" lon="1.87369833">
        <ele>247.0</ele>
        <time>2019-12-21T09:31:32.358Z</time>
      </trkpt>
      <trkpt lat="41.29808333" lon="1.873515">
        <ele>245.0</ele>
        <time>2019-12-21T09:31:33.365Z</time>
      </trkpt>
      <trkpt lat="41.29808333" lon="1.873515">
        <ele>245.0</ele>
        <time>2019-12-21T09:31:34.358Z</time>
      </trkpt>
      <trkpt lat="41.29795333" lon="1.873335">
        <ele>244.0</ele>
        <time>2019-12-21T09:31:35.366Z</time>
      </trkpt>
      <trkpt lat="41.29795333" lon="1.873335">
        <ele>244.0</ele>
        <time>2019-12-21T09:31:36.363Z</time>
      </trkpt>
      <trkpt lat="41.297825" lon="1.87317">
        <ele>243.0</ele>
        <time>2019-12-21T09:31:37.365Z</time>
      </trkpt>
      <trkpt lat="41.297825" lon="1.87317">
        <ele>243.0</ele>
        <time>2019-12-21T09:31:38.358Z</time>
      </trkpt>
      <trkpt lat="41.29768833" lon="1.872995">
        <ele>241.0</ele>
        <time>2019-12-21T09:31:39.340Z</time>
      </trkpt>
      <trkpt lat="41.29768833" lon="1.872995">
        <ele>241.0</ele>
        <time>2019-12-21T09:31:40.363Z</time>
      </trkpt>
      <trkpt lat="41.29755167" lon="1.87281667">
        <ele>240.0</ele>
        <time>2019-12-21T09:31:41.364Z</time>
      </trkpt>
      <trkpt lat="41.29755167" lon="1.87281667">
        <ele>240.0</ele>
        <time>2019-12-21T09:31:42.358Z</time>
      </trkpt>
      <trkpt lat="41.29741167" lon="1.87266">
        <ele>239.0</ele>
        <time>2019-12-21T09:31:43.349Z</time>
      </trkpt>
      <trkpt lat="41.29741167" lon="1.87266">
        <ele>239.0</ele>
        <time>2019-12-21T09:31:44.372Z</time>
      </trkpt>
      <trkpt lat="41.297285" lon="1.87252">
        <ele>239.0</ele>
        <time>2019-12-21T09:31:45.368Z</time>
      </trkpt>
      <trkpt lat="41.297285" lon="1.87252">
        <ele>239.0</ele>
        <time>2019-12-21T09:31:46.356Z</time>
      </trkpt>
      <trkpt lat="41.297185" lon="1.87240333">
        <ele>239.0</ele>
        <time>2019-12-21T09:31:47.338Z</time>
      </trkpt>
      <trkpt lat="41.297185" lon="1.87240333">
        <ele>239.0</ele>
        <time>2019-12-21T09:31:48.363Z</time>
      </trkpt>
      <trkpt lat="41.29710333" lon="1.87227">
        <ele>240.0</ele>
        <time>2019-12-21T09:31:49.364Z</time>
      </trkpt>
      <trkpt lat="41.29710333" lon="1.87227">
        <ele>240.0</ele>
        <time>2019-12-21T09:31:50.358Z</time>
      </trkpt>
      <trkpt lat="41.29703" lon="1.87211833">
        <ele>240.0</ele>
        <time>2019-12-21T09:31:51.340Z</time>
      </trkpt>
      <trkpt lat="41.29703" lon="1.87211833">
        <ele>240.0</ele>
        <time>2019-12-21T09:31:52.365Z</time>
      </trkpt>
      <trkpt lat="41.29695667" lon="1.87195">
        <ele>240.0</ele>
        <time>2019-12-21T09:31:53.365Z</time>
      </trkpt>
      <trkpt lat="41.29695667" lon="1.87195">
        <ele>240.0</ele>
        <time>2019-12-21T09:31:54.358Z</time>
      </trkpt>
      <trkpt lat="41.29689" lon="1.87176">
        <ele>240.0</ele>
        <time>2019-12-21T09:31:55.365Z</time>
      </trkpt>
      <trkpt lat="41.29689" lon="1.87176">
        <ele>240.0</ele>
        <time>2019-12-21T09:31:56.358Z</time>
      </trkpt>
      <trkpt lat="41.296845" lon="1.87156833">
        <ele>239.0</ele>
        <time>2019-12-21T09:31:57.340Z</time>
      </trkpt>
      <trkpt lat="41.296845" lon="1.87156833">
        <ele>239.0</ele>
        <time>2019-12-21T09:31:58.364Z</time>
      </trkpt>
      <trkpt lat="41.29680833" lon="1.87137167">
        <ele>239.0</ele>
        <time>2019-12-21T09:31:59.365Z</time>
      </trkpt>
      <trkpt lat="41.29680833" lon="1.87137167">
        <ele>239.0</ele>
        <time>2019-12-21T09:32:00.358Z</time>
      </trkpt>
      <trkpt lat="41.29677167" lon="1.871155">
        <ele>237.0</ele>
        <time>2019-12-21T09:32:01.364Z</time>
      </trkpt>
      <trkpt lat="41.29677167" lon="1.871155">
        <ele>237.0</ele>
        <time>2019-12-21T09:32:02.359Z</time>
      </trkpt>
      <trkpt lat="41.296745" lon="1.87091333">
        <ele>237.0</ele>
        <time>2019-12-21T09:32:03.366Z</time>
      </trkpt>
      <trkpt lat="41.296745" lon="1.87091333">
        <ele>237.0</ele>
        <time>2019-12-21T09:32:04.358Z</time>
      </trkpt>
      <trkpt lat="41.29671" lon="1.870685">
        <ele>236.0</ele>
        <time>2019-12-21T09:32:05.363Z</time>
      </trkpt>
      <trkpt lat="41.29671" lon="1.870685">
        <ele>236.0</ele>
        <time>2019-12-21T09:32:06.358Z</time>
      </trkpt>
      <trkpt lat="41.29669" lon="1.87045833">
        <ele>235.0</ele>
        <time>2019-12-21T09:32:07.364Z</time>
      </trkpt>
      <trkpt lat="41.29669" lon="1.87045833">
        <ele>235.0</ele>
        <time>2019-12-21T09:32:08.358Z</time>
      </trkpt>
      <trkpt lat="41.29666333" lon="1.87027167">
        <ele>234.0</ele>
        <time>2019-12-21T09:32:09.366Z</time>
      </trkpt>
      <trkpt lat="41.29666333" lon="1.87027167">
        <ele>234.0</ele>
        <time>2019-12-21T09:32:10.358Z</time>
      </trkpt>
      <trkpt lat="41.296605" lon="1.87016">
        <ele>234.0</ele>
        <time>2019-12-21T09:32:11.364Z</time>
      </trkpt>
      <trkpt lat="41.296605" lon="1.87016">
        <ele>234.0</ele>
        <time>2019-12-21T09:32:12.358Z</time>
      </trkpt>
      <trkpt lat="41.29652833" lon="1.870115">
        <ele>234.0</ele>
        <time>2019-12-21T09:32:13.364Z</time>
      </trkpt>
      <trkpt lat="41.29652833" lon="1.870115">
        <ele>234.0</ele>
        <time>2019-12-21T09:32:14.358Z</time>
      </trkpt>
      <trkpt lat="41.29645" lon="1.8701">
        <ele>234.0</ele>
        <time>2019-12-21T09:32:15.340Z</time>
      </trkpt>
      <trkpt lat="41.29645" lon="1.8701">
        <ele>234.0</ele>
        <time>2019-12-21T09:32:16.367Z</time>
      </trkpt>
      <trkpt lat="41.29637167" lon="1.87009167">
        <ele>234.0</ele>
        <time>2019-12-21T09:32:17.361Z</time>
      </trkpt>
      <trkpt lat="41.29637167" lon="1.87009167">
        <ele>234.0</ele>
        <time>2019-12-21T09:32:18.355Z</time>
      </trkpt>
      <trkpt lat="41.296305" lon="1.87008167">
        <ele>235.0</ele>
        <time>2019-12-21T09:32:19.337Z</time>
      </trkpt>
      <trkpt lat="41.296305" lon="1.87008167">
        <ele>235.0</ele>
        <time>2019-12-21T09:32:20.360Z</time>
      </trkpt>
      <trkpt lat="41.29625167" lon="1.870065">
        <ele>236.0</ele>
        <time>2019-12-21T09:32:21.367Z</time>
      </trkpt>
      <trkpt lat="41.29625167" lon="1.870065">
        <ele>236.0</ele>
        <time>2019-12-21T09:32:22.362Z</time>
      </trkpt>
      <trkpt lat="41.2962" lon="1.87004833">
        <ele>236.0</ele>
        <time>2019-12-21T09:32:23.364Z</time>
      </trkpt>
      <trkpt lat="41.2962" lon="1.87004833">
        <ele>236.0</ele>
        <time>2019-12-21T09:32:24.358Z</time>
      </trkpt>
      <trkpt lat="41.29614833" lon="1.87003167">
        <ele>237.0</ele>
        <time>2019-12-21T09:32:25.364Z</time>
      </trkpt>
      <trkpt lat="41.29614833" lon="1.87003167">
        <ele>237.0</ele>
        <time>2019-12-21T09:32:26.358Z</time>
      </trkpt>
      <trkpt lat="41.29609833" lon="1.87000667">
        <ele>237.0</ele>
        <time>2019-12-21T09:32:27.341Z</time>
      </trkpt>
      <trkpt lat="41.29609833" lon="1.87000667">
        <ele>237.0</ele>
        <time>2019-12-21T09:32:28.364Z</time>
      </trkpt>
      <trkpt lat="41.29605333" lon="1.869985">
        <ele>239.0</ele>
        <time>2019-12-21T09:32:29.363Z</time>
      </trkpt>
      <trkpt lat="41.29605333" lon="1.869985">
        <ele>239.0</ele>
        <time>2019-12-21T09:32:30.358Z</time>
      </trkpt>
      <trkpt lat="41.29601167" lon="1.86996167">
        <ele>239.0</ele>
        <time>2019-12-21T09:32:31.364Z</time>
      </trkpt>
      <trkpt lat="41.29601167" lon="1.86996167">
        <ele>239.0</ele>
        <time>2019-12-21T09:32:32.358Z</time>
      </trkpt>
      <trkpt lat="41.29596833" lon="1.86992833">
        <ele>240.0</ele>
        <time>2019-12-21T09:32:33.367Z</time>
      </trkpt>
      <trkpt lat="41.29596833" lon="1.86992833">
        <ele>240.0</ele>
        <time>2019-12-21T09:32:34.358Z</time>
      </trkpt>
      <trkpt lat="41.29593" lon="1.86989333">
        <ele>241.0</ele>
        <time>2019-12-21T09:32:35.361Z</time>
      </trkpt>
      <trkpt lat="41.29593" lon="1.86989333">
        <ele>241.0</ele>
        <time>2019-12-21T09:32:36.363Z</time>
      </trkpt>
      <trkpt lat="41.29589167" lon="1.86986167">
        <ele>241.0</ele>
        <time>2019-12-21T09:32:37.364Z</time>
      </trkpt>
      <trkpt lat="41.29589167" lon="1.86986167">
        <ele>241.0</ele>
        <time>2019-12-21T09:32:38.359Z</time>
      </trkpt>
      <trkpt lat="41.29585333" lon="1.86982333">
        <ele>242.0</ele>
        <time>2019-12-21T09:32:39.341Z</time>
      </trkpt>
      <trkpt lat="41.29585333" lon="1.86982333">
        <ele>242.0</ele>
        <time>2019-12-21T09:32:40.364Z</time>
      </trkpt>
      <trkpt lat="41.29581833" lon="1.86978167">
        <ele>243.0</ele>
        <time>2019-12-21T09:32:41.361Z</time>
      </trkpt>
      <trkpt lat="41.29581833" lon="1.86978167">
        <ele>243.0</ele>
        <time>2019-12-21T09:32:42.364Z</time>
      </trkpt>
      <trkpt lat="41.29578167" lon="1.86974333">
        <ele>244.0</ele>
        <time>2019-12-21T09:32:43.363Z</time>
      </trkpt>
      <trkpt lat="41.29578167" lon="1.86974333">
        <ele>244.0</ele>
        <time>2019-12-21T09:32:44.358Z</time>
      </trkpt>
      <trkpt lat="41.295745" lon="1.869705">
        <ele>245.0</ele>
        <time>2019-12-21T09:32:45.340Z</time>
      </trkpt>
      <trkpt lat="41.295745" lon="1.869705">
        <ele>245.0</ele>
        <time>2019-12-21T09:32:46.367Z</time>
      </trkpt>
      <trkpt lat="41.29570833" lon="1.869665">
        <ele>245.0</ele>
        <time>2019-12-21T09:32:47.362Z</time>
      </trkpt>
      <trkpt lat="41.29570833" lon="1.869665">
        <ele>245.0</ele>
        <time>2019-12-21T09:32:48.358Z</time>
      </trkpt>
      <trkpt lat="41.29567333" lon="1.86962">
        <ele>246.0</ele>
        <time>2019-12-21T09:32:49.361Z</time>
      </trkpt>
      <trkpt lat="41.29567333" lon="1.86962">
        <ele>246.0</ele>
        <time>2019-12-21T09:32:50.356Z</time>
      </trkpt>
      <trkpt lat="41.29563833" lon="1.86958167">
        <ele>246.0</ele>
        <time>2019-12-21T09:32:51.359Z</time>
      </trkpt>
      <trkpt lat="41.29563833" lon="1.86958167">
        <ele>246.0</ele>
        <time>2019-12-21T09:32:52.358Z</time>
      </trkpt>
      <trkpt lat="41.29560333" lon="1.86954833">
        <ele>246.0</ele>
        <time>2019-12-21T09:32:53.365Z</time>
      </trkpt>
      <trkpt lat="41.29560333" lon="1.86954833">
        <ele>246.0</ele>
        <time>2019-12-21T09:32:54.359Z</time>
      </trkpt>
      <trkpt lat="41.29555833" lon="1.86950333">
        <ele>247.0</ele>
        <time>2019-12-21T09:32:55.337Z</time>
      </trkpt>
      <trkpt lat="41.29555833" lon="1.86950333">
        <ele>247.0</ele>
        <time>2019-12-21T09:32:56.369Z</time>
      </trkpt>
      <trkpt lat="41.29550667" lon="1.86945333">
        <ele>247.0</ele>
        <time>2019-12-21T09:32:57.365Z</time>
      </trkpt>
      <trkpt lat="41.29548" lon="1.86942667">
        <ele>247.0</ele>
        <time>2019-12-21T09:32:58.363Z</time>
      </trkpt>
      <trkpt lat="41.29548" lon="1.86942667">
        <ele>247.0</ele>
        <time>2019-12-21T09:32:59.358Z</time>
      </trkpt>
      <trkpt lat="41.29542333" lon="1.86935833">
        <ele>246.0</ele>
        <time>2019-12-21T09:33:00.365Z</time>
      </trkpt>
      <trkpt lat="41.29542333" lon="1.86935833">
        <ele>246.0</ele>
        <time>2019-12-21T09:33:01.358Z</time>
      </trkpt>
      <trkpt lat="41.29535667" lon="1.86928">
        <ele>246.0</ele>
        <time>2019-12-21T09:33:02.365Z</time>
      </trkpt>
      <trkpt lat="41.29535667" lon="1.86928">
        <ele>246.0</ele>
        <time>2019-12-21T09:33:03.360Z</time>
      </trkpt>
      <trkpt lat="41.29528" lon="1.869195">
        <ele>245.0</ele>
        <time>2019-12-21T09:33:04.363Z</time>
      </trkpt>
      <trkpt lat="41.29528" lon="1.869195">
        <ele>245.0</ele>
        <time>2019-12-21T09:33:05.364Z</time>
      </trkpt>
      <trkpt lat="41.29519333" lon="1.86910167">
        <ele>245.0</ele>
        <time>2019-12-21T09:33:06.352Z</time>
      </trkpt>
      <trkpt lat="41.29515167" lon="1.86904667">
        <ele>244.0</ele>
        <time>2019-12-21T09:33:07.335Z</time>
      </trkpt>
      <trkpt lat="41.29515167" lon="1.86904667">
        <ele>244.0</ele>
        <time>2019-12-21T09:33:08.358Z</time>
      </trkpt>
      <trkpt lat="41.29506667" lon="1.86890333">
        <ele>243.0</ele>
        <time>2019-12-21T09:33:09.339Z</time>
      </trkpt>
      <trkpt lat="41.29506667" lon="1.86890333">
        <ele>243.0</ele>
        <time>2019-12-21T09:33:10.362Z</time>
      </trkpt>
      <trkpt lat="41.29499667" lon="1.868725">
        <ele>242.0</ele>
        <time>2019-12-21T09:33:11.369Z</time>
      </trkpt>
      <trkpt lat="41.29499667" lon="1.868725">
        <ele>242.0</ele>
        <time>2019-12-21T09:33:12.358Z</time>
      </trkpt>
      <trkpt lat="41.29495167" lon="1.86856167">
        <ele>241.0</ele>
        <time>2019-12-21T09:33:13.364Z</time>
      </trkpt>
      <trkpt lat="41.29495167" lon="1.86856167">
        <ele>241.0</ele>
        <time>2019-12-21T09:33:14.358Z</time>
      </trkpt>
      <trkpt lat="41.29492" lon="1.86843">
        <ele>241.0</ele>
        <time>2019-12-21T09:33:15.339Z</time>
      </trkpt>
      <trkpt lat="41.29492" lon="1.86843">
        <ele>241.0</ele>
        <time>2019-12-21T09:33:16.368Z</time>
      </trkpt>
      <trkpt lat="41.29489" lon="1.86831167">
        <ele>240.0</ele>
        <time>2019-12-21T09:33:17.363Z</time>
      </trkpt>
      <trkpt lat="41.29487667" lon="1.86825">
        <ele>240.0</ele>
        <time>2019-12-21T09:33:18.362Z</time>
      </trkpt>
      <trkpt lat="41.29487667" lon="1.86825">
        <ele>240.0</ele>
        <time>2019-12-21T09:33:19.358Z</time>
      </trkpt>
      <trkpt lat="41.294855" lon="1.86812833">
        <ele>240.0</ele>
        <time>2019-12-21T09:33:20.364Z</time>
      </trkpt>
      <trkpt lat="41.294855" lon="1.86812833">
        <ele>240.0</ele>
        <time>2019-12-21T09:33:21.361Z</time>
      </trkpt>
      <trkpt lat="41.29484167" lon="1.86801">
        <ele>240.0</ele>
        <time>2019-12-21T09:33:22.358Z</time>
      </trkpt>
      <trkpt lat="41.294835" lon="1.867955">
        <ele>241.0</ele>
        <time>2019-12-21T09:33:23.364Z</time>
      </trkpt>
      <trkpt lat="41.294835" lon="1.867955">
        <ele>241.0</ele>
        <time>2019-12-21T09:33:24.358Z</time>
      </trkpt>
      <trkpt lat="41.29483" lon="1.86785">
        <ele>242.0</ele>
        <time>2019-12-21T09:33:25.364Z</time>
      </trkpt>
      <trkpt lat="41.29483" lon="1.86785">
        <ele>242.0</ele>
        <time>2019-12-21T09:33:26.359Z</time>
      </trkpt>
      <trkpt lat="41.29483" lon="1.86776167">
        <ele>242.0</ele>
        <time>2019-12-21T09:33:27.338Z</time>
      </trkpt>
      <trkpt lat="41.29482833" lon="1.867725">
        <ele>243.0</ele>
        <time>2019-12-21T09:33:28.333Z</time>
      </trkpt>
      <trkpt lat="41.29482833" lon="1.867725">
        <ele>243.0</ele>
        <time>2019-12-21T09:33:29.358Z</time>
      </trkpt>
      <trkpt lat="41.29483" lon="1.86765667">
        <ele>243.0</ele>
        <time>2019-12-21T09:33:30.364Z</time>
      </trkpt>
      <trkpt lat="41.29483" lon="1.86765667">
        <ele>243.0</ele>
        <time>2019-12-21T09:33:31.358Z</time>
      </trkpt>
      <trkpt lat="41.294835" lon="1.867605">
        <ele>244.0</ele>
        <time>2019-12-21T09:33:32.361Z</time>
      </trkpt>
      <trkpt lat="41.294835" lon="1.86758167">
        <ele>245.0</ele>
        <time>2019-12-21T09:33:33.369Z</time>
      </trkpt>
      <trkpt lat="41.294835" lon="1.86758167">
        <ele>245.0</ele>
        <time>2019-12-21T09:33:34.358Z</time>
      </trkpt>
      <trkpt lat="41.29483667" lon="1.86753333">
        <ele>245.0</ele>
        <time>2019-12-21T09:33:35.361Z</time>
      </trkpt>
      <trkpt lat="41.29483667" lon="1.86753333">
        <ele>245.0</ele>
        <time>2019-12-21T09:33:36.362Z</time>
      </trkpt>
      <trkpt lat="41.29483667" lon="1.86748667">
        <ele>246.0</ele>
        <time>2019-12-21T09:33:37.343Z</time>
      </trkpt>
      <trkpt lat="41.29483667" lon="1.86748667">
        <ele>246.0</ele>
        <time>2019-12-21T09:33:38.366Z</time>
      </trkpt>
      <trkpt lat="41.294845" lon="1.86744333">
        <ele>247.0</ele>
        <time>2019-12-21T09:33:39.366Z</time>
      </trkpt>
      <trkpt lat="41.29484833" lon="1.86741833">
        <ele>247.0</ele>
        <time>2019-12-21T09:33:40.363Z</time>
      </trkpt>
      <trkpt lat="41.29484833" lon="1.86741833">
        <ele>247.0</ele>
        <time>2019-12-21T09:33:41.358Z</time>
      </trkpt>
      <trkpt lat="41.29485" lon="1.86737333">
        <ele>248.0</ele>
        <time>2019-12-21T09:33:42.363Z</time>
      </trkpt>
      <trkpt lat="41.29485" lon="1.86737333">
        <ele>248.0</ele>
        <time>2019-12-21T09:33:43.358Z</time>
      </trkpt>
      <trkpt lat="41.29484833" lon="1.86733167">
        <ele>248.0</ele>
        <time>2019-12-21T09:33:44.339Z</time>
      </trkpt>
      <trkpt lat="41.29484833" lon="1.86730833">
        <ele>248.0</ele>
        <time>2019-12-21T09:33:45.365Z</time>
      </trkpt>
      <trkpt lat="41.29484833" lon="1.86730833">
        <ele>248.0</ele>
        <time>2019-12-21T09:33:46.369Z</time>
      </trkpt>
      <trkpt lat="41.29484833" lon="1.86727">
        <ele>249.0</ele>
        <time>2019-12-21T09:33:47.368Z</time>
      </trkpt>
      <trkpt lat="41.29484833" lon="1.86727">
        <ele>249.0</ele>
        <time>2019-12-21T09:33:48.358Z</time>
      </trkpt>
      <trkpt lat="41.29484667" lon="1.86723167">
        <ele>250.0</ele>
        <time>2019-12-21T09:33:49.364Z</time>
      </trkpt>
      <trkpt lat="41.29484667" lon="1.86723167">
        <ele>250.0</ele>
        <time>2019-12-21T09:33:50.357Z</time>
      </trkpt>
      <trkpt lat="41.29484833" lon="1.867195">
        <ele>251.0</ele>
        <time>2019-12-21T09:33:51.340Z</time>
      </trkpt>
      <trkpt lat="41.29484833" lon="1.867195">
        <ele>251.0</ele>
        <time>2019-12-21T09:33:52.367Z</time>
      </trkpt>
      <trkpt lat="41.29484833" lon="1.86715667">
        <ele>251.0</ele>
        <time>2019-12-21T09:33:53.369Z</time>
      </trkpt>
      <trkpt lat="41.29484833" lon="1.86715667">
        <ele>251.0</ele>
        <time>2019-12-21T09:33:54.356Z</time>
      </trkpt>
      <trkpt lat="41.29484667" lon="1.86711833">
        <ele>252.0</ele>
        <time>2019-12-21T09:33:55.365Z</time>
      </trkpt>
      <trkpt lat="41.29484667" lon="1.86711833">
        <ele>252.0</ele>
        <time>2019-12-21T09:33:56.364Z</time>
      </trkpt>
      <trkpt lat="41.29484167" lon="1.86708333">
        <ele>252.0</ele>
        <time>2019-12-21T09:33:57.339Z</time>
      </trkpt>
      <trkpt lat="41.29484167" lon="1.86708333">
        <ele>252.0</ele>
        <time>2019-12-21T09:33:58.371Z</time>
      </trkpt>
      <trkpt lat="41.29483667" lon="1.867045">
        <ele>253.0</ele>
        <time>2019-12-21T09:33:59.362Z</time>
      </trkpt>
      <trkpt lat="41.29483667" lon="1.867045">
        <ele>253.0</ele>
        <time>2019-12-21T09:34:00.359Z</time>
      </trkpt>
      <trkpt lat="41.29483833" lon="1.867005">
        <ele>253.0</ele>
        <time>2019-12-21T09:34:01.364Z</time>
      </trkpt>
      <trkpt lat="41.29483833" lon="1.867005">
        <ele>253.0</ele>
        <time>2019-12-21T09:34:02.358Z</time>
      </trkpt>
      <trkpt lat="41.294835" lon="1.86696167">
        <ele>254.0</ele>
        <time>2019-12-21T09:34:03.341Z</time>
      </trkpt>
      <trkpt lat="41.294835" lon="1.86696167">
        <ele>254.0</ele>
        <time>2019-12-21T09:34:04.363Z</time>
      </trkpt>
      <trkpt lat="41.29482833" lon="1.86692667">
        <ele>255.0</ele>
        <time>2019-12-21T09:34:05.361Z</time>
      </trkpt>
      <trkpt lat="41.29482833" lon="1.86692667">
        <ele>255.0</ele>
        <time>2019-12-21T09:34:06.358Z</time>
      </trkpt>
      <trkpt lat="41.29482667" lon="1.86689333">
        <ele>255.0</ele>
        <time>2019-12-21T09:34:07.364Z</time>
      </trkpt>
      <trkpt lat="41.29482667" lon="1.86689333">
        <ele>255.0</ele>
        <time>2019-12-21T09:34:08.358Z</time>
      </trkpt>
      <trkpt lat="41.29481833" lon="1.86685833">
        <ele>256.0</ele>
        <time>2019-12-21T09:34:09.340Z</time>
      </trkpt>
      <trkpt lat="41.29481833" lon="1.86685833">
        <ele>256.0</ele>
        <time>2019-12-21T09:34:10.363Z</time>
      </trkpt>
      <trkpt lat="41.29480833" lon="1.86682667">
        <ele>256.0</ele>
        <time>2019-12-21T09:34:11.361Z</time>
      </trkpt>
      <trkpt lat="41.29480833" lon="1.86682667">
        <ele>256.0</ele>
        <time>2019-12-21T09:34:12.358Z</time>
      </trkpt>
      <trkpt lat="41.2948" lon="1.86679667">
        <ele>257.0</ele>
        <time>2019-12-21T09:34:13.361Z</time>
      </trkpt>
      <trkpt lat="41.2948" lon="1.86679667">
        <ele>257.0</ele>
        <time>2019-12-21T09:34:14.358Z</time>
      </trkpt>
      <trkpt lat="41.29479333" lon="1.86676167">
        <ele>257.0</ele>
        <time>2019-12-21T09:34:15.341Z</time>
      </trkpt>
      <trkpt lat="41.29479333" lon="1.86676167">
        <ele>257.0</ele>
        <time>2019-12-21T09:34:16.364Z</time>
      </trkpt>
      <trkpt lat="41.29478333" lon="1.866735">
        <ele>258.0</ele>
        <time>2019-12-21T09:34:17.362Z</time>
      </trkpt>
      <trkpt lat="41.29478333" lon="1.866735">
        <ele>258.0</ele>
        <time>2019-12-21T09:34:18.358Z</time>
      </trkpt>
      <trkpt lat="41.29478" lon="1.86669667">
        <ele>258.0</ele>
        <time>2019-12-21T09:34:19.366Z</time>
      </trkpt>
      <trkpt lat="41.29478" lon="1.86669667">
        <ele>258.0</ele>
        <time>2019-12-21T09:34:20.358Z</time>
      </trkpt>
      <trkpt lat="41.29476833" lon="1.866665">
        <ele>258.0</ele>
        <time>2019-12-21T09:34:21.339Z</time>
      </trkpt>
      <trkpt lat="41.29476833" lon="1.866665">
        <ele>258.0</ele>
        <time>2019-12-21T09:34:22.366Z</time>
      </trkpt>
      <trkpt lat="41.29475167" lon="1.86663333">
        <ele>259.0</ele>
        <time>2019-12-21T09:34:23.364Z</time>
      </trkpt>
      <trkpt lat="41.29475167" lon="1.86663333">
        <ele>259.0</ele>
        <time>2019-12-21T09:34:24.359Z</time>
      </trkpt>
      <trkpt lat="41.29473" lon="1.86660833">
        <ele>259.0</ele>
        <time>2019-12-21T09:34:25.361Z</time>
      </trkpt>
      <trkpt lat="41.29473" lon="1.86660833">
        <ele>259.0</ele>
        <time>2019-12-21T09:34:26.357Z</time>
      </trkpt>
      <trkpt lat="41.294705" lon="1.86658333">
        <ele>259.0</ele>
        <time>2019-12-21T09:34:27.340Z</time>
      </trkpt>
      <trkpt lat="41.294705" lon="1.86658333">
        <ele>259.0</ele>
        <time>2019-12-21T09:34:28.363Z</time>
      </trkpt>
      <trkpt lat="41.29468167" lon="1.86656333">
        <ele>259.0</ele>
        <time>2019-12-21T09:34:29.362Z</time>
      </trkpt>
      <trkpt lat="41.29468167" lon="1.86656333">
        <ele>259.0</ele>
        <time>2019-12-21T09:34:30.358Z</time>
      </trkpt>
      <trkpt lat="41.29467333" lon="1.86653167">
        <ele>259.0</ele>
        <time>2019-12-21T09:34:31.361Z</time>
      </trkpt>
      <trkpt lat="41.29467333" lon="1.86653167">
        <ele>259.0</ele>
        <time>2019-12-21T09:34:32.360Z</time>
      </trkpt>
      <trkpt lat="41.294665" lon="1.86649333">
        <ele>259.0</ele>
        <time>2019-12-21T09:34:33.365Z</time>
      </trkpt>
      <trkpt lat="41.294665" lon="1.86649333">
        <ele>259.0</ele>
        <time>2019-12-21T09:34:34.359Z</time>
      </trkpt>
      <trkpt lat="41.294655" lon="1.86646167">
        <ele>259.0</ele>
        <time>2019-12-21T09:34:35.361Z</time>
      </trkpt>
      <trkpt lat="41.294655" lon="1.86646167">
        <ele>259.0</ele>
        <time>2019-12-21T09:34:36.359Z</time>
      </trkpt>
      <trkpt lat="41.29463667" lon="1.86644333">
        <ele>260.0</ele>
        <time>2019-12-21T09:34:37.365Z</time>
      </trkpt>
      <trkpt lat="41.29463667" lon="1.86644333">
        <ele>260.0</ele>
        <time>2019-12-21T09:34:38.359Z</time>
      </trkpt>
      <trkpt lat="41.29462" lon="1.866415">
        <ele>260.0</ele>
        <time>2019-12-21T09:34:39.341Z</time>
      </trkpt>
      <trkpt lat="41.29462" lon="1.866415">
        <ele>260.0</ele>
        <time>2019-12-21T09:34:40.363Z</time>
      </trkpt>
      <trkpt lat="41.29460333" lon="1.86638833">
        <ele>261.0</ele>
        <time>2019-12-21T09:34:41.364Z</time>
      </trkpt>
      <trkpt lat="41.29460333" lon="1.86638833">
        <ele>261.0</ele>
        <time>2019-12-21T09:34:42.358Z</time>
      </trkpt>
      <trkpt lat="41.29458833" lon="1.86635667">
        <ele>261.0</ele>
        <time>2019-12-21T09:34:43.362Z</time>
      </trkpt>
      <trkpt lat="41.29458833" lon="1.86635667">
        <ele>261.0</ele>
        <time>2019-12-21T09:34:44.358Z</time>
      </trkpt>
      <trkpt lat="41.29457" lon="1.86632833">
        <ele>261.0</ele>
        <time>2019-12-21T09:34:45.339Z</time>
      </trkpt>
      <trkpt lat="41.29457" lon="1.86632833">
        <ele>261.0</ele>
        <time>2019-12-21T09:34:46.363Z</time>
      </trkpt>
      <trkpt lat="41.29454667" lon="1.86630167">
        <ele>261.0</ele>
        <time>2019-12-21T09:34:47.355Z</time>
      </trkpt>
      <trkpt lat="41.29453333" lon="1.86629">
        <ele>261.0</ele>
        <time>2019-12-21T09:34:48.342Z</time>
      </trkpt>
      <trkpt lat="41.29453333" lon="1.86629">
        <ele>261.0</ele>
        <time>2019-12-21T09:34:49.364Z</time>
      </trkpt>
      <trkpt lat="41.29450333" lon="1.866265">
        <ele>261.0</ele>
        <time>2019-12-21T09:34:50.365Z</time>
      </trkpt>
      <trkpt lat="41.29448667" lon="1.86625167">
        <ele>261.0</ele>
        <time>2019-12-21T09:34:51.364Z</time>
      </trkpt>
      <trkpt lat="41.29448667" lon="1.86625167">
        <ele>261.0</ele>
        <time>2019-12-21T09:34:52.366Z</time>
      </trkpt>
      <trkpt lat="41.29444833" lon="1.86622833">
        <ele>261.0</ele>
        <time>2019-12-21T09:34:53.366Z</time>
      </trkpt>
      <trkpt lat="41.29444833" lon="1.86622833">
        <ele>261.0</ele>
        <time>2019-12-21T09:34:54.359Z</time>
      </trkpt>
      <trkpt lat="41.2944" lon="1.866205">
        <ele>261.0</ele>
        <time>2019-12-21T09:34:55.370Z</time>
      </trkpt>
      <trkpt lat="41.29437" lon="1.86619">
        <ele>260.0</ele>
        <time>2019-12-21T09:34:56.365Z</time>
      </trkpt>
      <trkpt lat="41.29437" lon="1.86619">
        <ele>260.0</ele>
        <time>2019-12-21T09:34:57.357Z</time>
      </trkpt>
      <trkpt lat="41.294305" lon="1.86615">
        <ele>260.0</ele>
        <time>2019-12-21T09:34:58.361Z</time>
      </trkpt>
      <trkpt lat="41.294305" lon="1.86615">
        <ele>260.0</ele>
        <time>2019-12-21T09:34:59.359Z</time>
      </trkpt>
      <trkpt lat="41.29422" lon="1.86610333">
        <ele>259.0</ele>
        <time>2019-12-21T09:35:00.342Z</time>
      </trkpt>
      <trkpt lat="41.29422" lon="1.86610333">
        <ele>259.0</ele>
        <time>2019-12-21T09:35:01.365Z</time>
      </trkpt>
      <trkpt lat="41.29412833" lon="1.86604">
        <ele>258.0</ele>
        <time>2019-12-21T09:35:02.362Z</time>
      </trkpt>
      <trkpt lat="41.29408" lon="1.86600167">
        <ele>258.0</ele>
        <time>2019-12-21T09:35:03.367Z</time>
      </trkpt>
      <trkpt lat="41.29408" lon="1.86600167">
        <ele>258.0</ele>
        <time>2019-12-21T09:35:04.363Z</time>
      </trkpt>
      <trkpt lat="41.29399167" lon="1.86591">
        <ele>258.0</ele>
        <time>2019-12-21T09:35:05.369Z</time>
      </trkpt>
      <trkpt lat="41.29399167" lon="1.86591">
        <ele>258.0</ele>
        <time>2019-12-21T09:35:06.359Z</time>
      </trkpt>
      <trkpt lat="41.29391667" lon="1.86579333">
        <ele>257.0</ele>
        <time>2019-12-21T09:35:07.365Z</time>
      </trkpt>
      <trkpt lat="41.293885" lon="1.86573167">
        <ele>257.0</ele>
        <time>2019-12-21T09:35:08.361Z</time>
      </trkpt>
      <trkpt lat="41.29386" lon="1.86566667">
        <ele>257.0</ele>
        <time>2019-12-21T09:35:09.363Z</time>
      </trkpt>
      <trkpt lat="41.29386" lon="1.86566667">
        <ele>257.0</ele>
        <time>2019-12-21T09:35:10.359Z</time>
      </trkpt>
      <trkpt lat="41.29382667" lon="1.86554167">
        <ele>257.0</ele>
        <time>2019-12-21T09:35:11.365Z</time>
      </trkpt>
      <trkpt lat="41.29382667" lon="1.86554167">
        <ele>257.0</ele>
        <time>2019-12-21T09:35:12.359Z</time>
      </trkpt>
      <trkpt lat="41.29382167" lon="1.86544667">
        <ele>256.0</ele>
        <time>2019-12-21T09:35:13.361Z</time>
      </trkpt>
      <trkpt lat="41.29382167" lon="1.86544667">
        <ele>256.0</ele>
        <time>2019-12-21T09:35:14.359Z</time>
      </trkpt>
      <trkpt lat="41.29382833" lon="1.865375">
        <ele>256.0</ele>
        <time>2019-12-21T09:35:15.342Z</time>
      </trkpt>
      <trkpt lat="41.29382833" lon="1.865375">
        <ele>256.0</ele>
        <time>2019-12-21T09:35:16.365Z</time>
      </trkpt>
      <trkpt lat="41.29383833" lon="1.865315">
        <ele>257.0</ele>
        <time>2019-12-21T09:35:17.367Z</time>
      </trkpt>
      <trkpt lat="41.293845" lon="1.86528333">
        <ele>257.0</ele>
        <time>2019-12-21T09:35:18.361Z</time>
      </trkpt>
      <trkpt lat="41.293845" lon="1.86528333">
        <ele>257.0</ele>
        <time>2019-12-21T09:35:19.359Z</time>
      </trkpt>
      <trkpt lat="41.29386167" lon="1.86522333">
        <ele>257.0</ele>
        <time>2019-12-21T09:35:20.362Z</time>
      </trkpt>
      <trkpt lat="41.29387333" lon="1.865195">
        <ele>257.0</ele>
        <time>2019-12-21T09:35:21.366Z</time>
      </trkpt>
      <trkpt lat="41.29387333" lon="1.865195">
        <ele>257.0</ele>
        <time>2019-12-21T09:35:22.359Z</time>
      </trkpt>
      <trkpt lat="41.29389667" lon="1.86513833">
        <ele>258.0</ele>
        <time>2019-12-21T09:35:23.366Z</time>
      </trkpt>
      <trkpt lat="41.29389667" lon="1.86513833">
        <ele>258.0</ele>
        <time>2019-12-21T09:35:24.359Z</time>
      </trkpt>
      <trkpt lat="41.29392" lon="1.86507667">
        <ele>259.0</ele>
        <time>2019-12-21T09:35:25.362Z</time>
      </trkpt>
      <trkpt lat="41.29392" lon="1.86507667">
        <ele>259.0</ele>
        <time>2019-12-21T09:35:26.359Z</time>
      </trkpt>
      <trkpt lat="41.29394" lon="1.86501167">
        <ele>259.0</ele>
        <time>2019-12-21T09:35:27.347Z</time>
      </trkpt>
      <trkpt lat="41.29394" lon="1.86501167">
        <ele>259.0</ele>
        <time>2019-12-21T09:35:28.370Z</time>
      </trkpt>
      <trkpt lat="41.29395833" lon="1.86494667">
        <ele>260.0</ele>
        <time>2019-12-21T09:35:29.362Z</time>
      </trkpt>
      <trkpt lat="41.29396667" lon="1.86490833">
        <ele>260.0</ele>
        <time>2019-12-21T09:35:30.359Z</time>
      </trkpt>
      <trkpt lat="41.29396667" lon="1.86490833">
        <ele>260.0</ele>
        <time>2019-12-21T09:35:31.338Z</time>
      </trkpt>
      <trkpt lat="41.293985" lon="1.86483">
        <ele>261.0</ele>
        <time>2019-12-21T09:35:32.362Z</time>
      </trkpt>
      <trkpt lat="41.293995" lon="1.86479333">
        <ele>261.0</ele>
        <time>2019-12-21T09:35:33.367Z</time>
      </trkpt>
      <trkpt lat="41.293995" lon="1.86479333">
        <ele>261.0</ele>
        <time>2019-12-21T09:35:34.358Z</time>
      </trkpt>
      <trkpt lat="41.29401333" lon="1.86472">
        <ele>261.0</ele>
        <time>2019-12-21T09:35:35.340Z</time>
      </trkpt>
      <trkpt lat="41.29402333" lon="1.86468333">
        <ele>262.0</ele>
        <time>2019-12-21T09:35:36.365Z</time>
      </trkpt>
      <trkpt lat="41.29402333" lon="1.86468333">
        <ele>262.0</ele>
        <time>2019-12-21T09:35:37.371Z</time>
      </trkpt>
      <trkpt lat="41.29404167" lon="1.86461">
        <ele>262.0</ele>
        <time>2019-12-21T09:35:38.361Z</time>
      </trkpt>
      <trkpt lat="41.29404833" lon="1.86457167">
        <ele>262.0</ele>
        <time>2019-12-21T09:35:39.366Z</time>
      </trkpt>
      <trkpt lat="41.29404833" lon="1.86457167">
        <ele>262.0</ele>
        <time>2019-12-21T09:35:40.358Z</time>
      </trkpt>
      <trkpt lat="41.294065" lon="1.86449333">
        <ele>263.0</ele>
        <time>2019-12-21T09:35:41.340Z</time>
      </trkpt>
      <trkpt lat="41.294065" lon="1.86449333">
        <ele>263.0</ele>
        <time>2019-12-21T09:35:42.364Z</time>
      </trkpt>
      <trkpt lat="41.29408167" lon="1.86441667">
        <ele>263.0</ele>
        <time>2019-12-21T09:35:43.362Z</time>
      </trkpt>
      <trkpt lat="41.29408167" lon="1.86441667">
        <ele>263.0</ele>
        <time>2019-12-21T09:35:44.359Z</time>
      </trkpt>
      <trkpt lat="41.29410333" lon="1.86433833">
        <ele>263.0</ele>
        <time>2019-12-21T09:35:45.341Z</time>
      </trkpt>
      <trkpt lat="41.29410333" lon="1.86433833">
        <ele>263.0</ele>
        <time>2019-12-21T09:35:46.364Z</time>
      </trkpt>
      <trkpt lat="41.29412167" lon="1.86426167">
        <ele>263.0</ele>
        <time>2019-12-21T09:35:47.368Z</time>
      </trkpt>
      <trkpt lat="41.29412167" lon="1.86426167">
        <ele>263.0</ele>
        <time>2019-12-21T09:35:48.360Z</time>
      </trkpt>
      <trkpt lat="41.29413833" lon="1.864185">
        <ele>263.0</ele>
        <time>2019-12-21T09:35:49.362Z</time>
      </trkpt>
      <trkpt lat="41.29413833" lon="1.864185">
        <ele>263.0</ele>
        <time>2019-12-21T09:35:50.368Z</time>
      </trkpt>
      <trkpt lat="41.29415167" lon="1.86410333">
        <ele>264.0</ele>
        <time>2019-12-21T09:35:51.368Z</time>
      </trkpt>
      <trkpt lat="41.29415167" lon="1.86410333">
        <ele>264.0</ele>
        <time>2019-12-21T09:35:52.359Z</time>
      </trkpt>
      <trkpt lat="41.29417667" lon="1.86402167">
        <ele>264.0</ele>
        <time>2019-12-21T09:35:53.365Z</time>
      </trkpt>
      <trkpt lat="41.29417667" lon="1.86402167">
        <ele>264.0</ele>
        <time>2019-12-21T09:35:54.359Z</time>
      </trkpt>
      <trkpt lat="41.29420167" lon="1.86394167">
        <ele>264.0</ele>
        <time>2019-12-21T09:35:55.362Z</time>
      </trkpt>
      <trkpt lat="41.29421333" lon="1.86390167">
        <ele>265.0</ele>
        <time>2019-12-21T09:35:56.366Z</time>
      </trkpt>
      <trkpt lat="41.29422667" lon="1.863865">
        <ele>265.0</ele>
        <time>2019-12-21T09:35:57.366Z</time>
      </trkpt>
      <trkpt lat="41.29422667" lon="1.863865">
        <ele>265.0</ele>
        <time>2019-12-21T09:35:58.360Z</time>
      </trkpt>
      <trkpt lat="41.29425333" lon="1.86379333">
        <ele>265.0</ele>
        <time>2019-12-21T09:35:59.362Z</time>
      </trkpt>
      <trkpt lat="41.29425333" lon="1.86379333">
        <ele>265.0</ele>
        <time>2019-12-21T09:36:00.359Z</time>
      </trkpt>
      <trkpt lat="41.294285" lon="1.86372167">
        <ele>266.0</ele>
        <time>2019-12-21T09:36:01.364Z</time>
      </trkpt>
      <trkpt lat="41.294285" lon="1.86372167">
        <ele>266.0</ele>
        <time>2019-12-21T09:36:02.358Z</time>
      </trkpt>
      <trkpt lat="41.29432167" lon="1.86365167">
        <ele>266.0</ele>
        <time>2019-12-21T09:36:03.340Z</time>
      </trkpt>
      <trkpt lat="41.29432167" lon="1.86365167">
        <ele>266.0</ele>
        <time>2019-12-21T09:36:04.363Z</time>
      </trkpt>
      <trkpt lat="41.29435833" lon="1.86358667">
        <ele>266.0</ele>
        <time>2019-12-21T09:36:05.365Z</time>
      </trkpt>
      <trkpt lat="41.29435833" lon="1.86358667">
        <ele>266.0</ele>
        <time>2019-12-21T09:36:06.359Z</time>
      </trkpt>
      <trkpt lat="41.2944" lon="1.86351833">
        <ele>267.0</ele>
        <time>2019-12-21T09:36:07.362Z</time>
      </trkpt>
      <trkpt lat="41.2944" lon="1.86351833">
        <ele>267.0</ele>
        <time>2019-12-21T09:36:08.359Z</time>
      </trkpt>
      <trkpt lat="41.29444333" lon="1.86345167">
        <ele>268.0</ele>
        <time>2019-12-21T09:36:09.341Z</time>
      </trkpt>
      <trkpt lat="41.29444333" lon="1.86345167">
        <ele>268.0</ele>
        <time>2019-12-21T09:36:10.363Z</time>
      </trkpt>
      <trkpt lat="41.29448667" lon="1.86338667">
        <ele>268.0</ele>
        <time>2019-12-21T09:36:11.362Z</time>
      </trkpt>
      <trkpt lat="41.29448667" lon="1.86338667">
        <ele>268.0</ele>
        <time>2019-12-21T09:36:12.359Z</time>
      </trkpt>
      <trkpt lat="41.29453" lon="1.86332167">
        <ele>268.0</ele>
        <time>2019-12-21T09:36:13.362Z</time>
      </trkpt>
      <trkpt lat="41.29453" lon="1.86332167">
        <ele>268.0</ele>
        <time>2019-12-21T09:36:14.359Z</time>
      </trkpt>
      <trkpt lat="41.294575" lon="1.86325667">
        <ele>269.0</ele>
        <time>2019-12-21T09:36:15.341Z</time>
      </trkpt>
      <trkpt lat="41.294575" lon="1.86325667">
        <ele>269.0</ele>
        <time>2019-12-21T09:36:16.363Z</time>
      </trkpt>
      <trkpt lat="41.29461833" lon="1.86319167">
        <ele>269.0</ele>
        <time>2019-12-21T09:36:17.361Z</time>
      </trkpt>
      <trkpt lat="41.29461833" lon="1.86319167">
        <ele>269.0</ele>
        <time>2019-12-21T09:36:18.359Z</time>
      </trkpt>
      <trkpt lat="41.29466" lon="1.86312667">
        <ele>269.0</ele>
        <time>2019-12-21T09:36:19.361Z</time>
      </trkpt>
      <trkpt lat="41.29466" lon="1.86312667">
        <ele>269.0</ele>
        <time>2019-12-21T09:36:20.359Z</time>
      </trkpt>
      <trkpt lat="41.29470333" lon="1.86306333">
        <ele>269.0</ele>
        <time>2019-12-21T09:36:21.369Z</time>
      </trkpt>
      <trkpt lat="41.29470333" lon="1.86306333">
        <ele>269.0</ele>
        <time>2019-12-21T09:36:22.359Z</time>
      </trkpt>
      <trkpt lat="41.29475" lon="1.86300333">
        <ele>270.0</ele>
        <time>2019-12-21T09:36:23.365Z</time>
      </trkpt>
      <trkpt lat="41.29477333" lon="1.86297167">
        <ele>270.0</ele>
        <time>2019-12-21T09:36:24.365Z</time>
      </trkpt>
      <trkpt lat="41.29477333" lon="1.86297167">
        <ele>270.0</ele>
        <time>2019-12-21T09:36:25.359Z</time>
      </trkpt>
      <trkpt lat="41.29481833" lon="1.86291">
        <ele>270.0</ele>
        <time>2019-12-21T09:36:26.362Z</time>
      </trkpt>
      <trkpt lat="41.29484" lon="1.86288167">
        <ele>270.0</ele>
        <time>2019-12-21T09:36:27.367Z</time>
      </trkpt>
      <trkpt lat="41.29484" lon="1.86288167">
        <ele>270.0</ele>
        <time>2019-12-21T09:36:28.359Z</time>
      </trkpt>
      <trkpt lat="41.294885" lon="1.86282667">
        <ele>269.0</ele>
        <time>2019-12-21T09:36:29.362Z</time>
      </trkpt>
      <trkpt lat="41.294885" lon="1.86282667">
        <ele>269.0</ele>
        <time>2019-12-21T09:36:30.359Z</time>
      </trkpt>
      <trkpt lat="41.294925" lon="1.86277">
        <ele>269.0</ele>
        <time>2019-12-21T09:36:31.362Z</time>
      </trkpt>
      <trkpt lat="41.294945" lon="1.86274167">
        <ele>269.0</ele>
        <time>2019-12-21T09:36:32.366Z</time>
      </trkpt>
      <trkpt lat="41.294945" lon="1.86274167">
        <ele>269.0</ele>
        <time>2019-12-21T09:36:33.362Z</time>
      </trkpt>
      <trkpt lat="41.29498833" lon="1.862675">
        <ele>269.0</ele>
        <time>2019-12-21T09:36:34.363Z</time>
      </trkpt>
      <trkpt lat="41.29501167" lon="1.86264167">
        <ele>269.0</ele>
        <time>2019-12-21T09:36:35.362Z</time>
      </trkpt>
      <trkpt lat="41.29501167" lon="1.86264167">
        <ele>269.0</ele>
        <time>2019-12-21T09:36:36.359Z</time>
      </trkpt>
      <trkpt lat="41.29506" lon="1.86256667">
        <ele>269.0</ele>
        <time>2019-12-21T09:36:37.365Z</time>
      </trkpt>
      <trkpt lat="41.29506" lon="1.86256667">
        <ele>269.0</ele>
        <time>2019-12-21T09:36:38.359Z</time>
      </trkpt>
      <trkpt lat="41.29511167" lon="1.86248167">
        <ele>269.0</ele>
        <time>2019-12-21T09:36:39.341Z</time>
      </trkpt>
      <trkpt lat="41.29511167" lon="1.86248167">
        <ele>269.0</ele>
        <time>2019-12-21T09:36:40.363Z</time>
      </trkpt>
      <trkpt lat="41.29516667" lon="1.86238833">
        <ele>268.0</ele>
        <time>2019-12-21T09:36:41.365Z</time>
      </trkpt>
      <trkpt lat="41.29516667" lon="1.86238833">
        <ele>268.0</ele>
        <time>2019-12-21T09:36:42.360Z</time>
      </trkpt>
      <trkpt lat="41.29522" lon="1.86228833">
        <ele>268.0</ele>
        <time>2019-12-21T09:36:43.362Z</time>
      </trkpt>
      <trkpt lat="41.29522" lon="1.86228833">
        <ele>268.0</ele>
        <time>2019-12-21T09:36:44.359Z</time>
      </trkpt>
      <trkpt lat="41.29527333" lon="1.86218167">
        <ele>267.0</ele>
        <time>2019-12-21T09:36:45.341Z</time>
      </trkpt>
      <trkpt lat="41.29527333" lon="1.86218167">
        <ele>267.0</ele>
        <time>2019-12-21T09:36:46.363Z</time>
      </trkpt>
      <trkpt lat="41.29533" lon="1.86207167">
        <ele>267.0</ele>
        <time>2019-12-21T09:36:47.362Z</time>
      </trkpt>
      <trkpt lat="41.29533" lon="1.86207167">
        <ele>267.0</ele>
        <time>2019-12-21T09:36:48.358Z</time>
      </trkpt>
      <trkpt lat="41.29538667" lon="1.86195333">
        <ele>267.0</ele>
        <time>2019-12-21T09:36:49.340Z</time>
      </trkpt>
      <trkpt lat="41.295415" lon="1.86189167">
        <ele>266.0</ele>
        <time>2019-12-21T09:36:50.365Z</time>
      </trkpt>
      <trkpt lat="41.29544167" lon="1.86183">
        <ele>266.0</ele>
        <time>2019-12-21T09:36:51.366Z</time>
      </trkpt>
      <trkpt lat="41.29544167" lon="1.86183">
        <ele>266.0</ele>
        <time>2019-12-21T09:36:52.363Z</time>
      </trkpt>
      <trkpt lat="41.29549167" lon="1.86170667">
        <ele>266.0</ele>
        <time>2019-12-21T09:36:53.365Z</time>
      </trkpt>
      <trkpt lat="41.29549167" lon="1.86170667">
        <ele>266.0</ele>
        <time>2019-12-21T09:36:54.359Z</time>
      </trkpt>
      <trkpt lat="41.29553833" lon="1.86158333">
        <ele>265.0</ele>
        <time>2019-12-21T09:36:55.338Z</time>
      </trkpt>
      <trkpt lat="41.29553833" lon="1.86158333">
        <ele>265.0</ele>
        <time>2019-12-21T09:36:56.365Z</time>
      </trkpt>
      <trkpt lat="41.29558167" lon="1.86146167">
        <ele>265.0</ele>
        <time>2019-12-21T09:36:57.367Z</time>
      </trkpt>
      <trkpt lat="41.29558167" lon="1.86146167">
        <ele>265.0</ele>
        <time>2019-12-21T09:36:58.368Z</time>
      </trkpt>
      <trkpt lat="41.295625" lon="1.86134333">
        <ele>265.0</ele>
        <time>2019-12-21T09:36:59.365Z</time>
      </trkpt>
      <trkpt lat="41.295625" lon="1.86134333">
        <ele>265.0</ele>
        <time>2019-12-21T09:37:00.360Z</time>
      </trkpt>
      <trkpt lat="41.29567" lon="1.86123167">
        <ele>264.0</ele>
        <time>2019-12-21T09:37:01.366Z</time>
      </trkpt>
      <trkpt lat="41.29567" lon="1.86123167">
        <ele>264.0</ele>
        <time>2019-12-21T09:37:02.360Z</time>
      </trkpt>
      <trkpt lat="41.29572" lon="1.86112333">
        <ele>264.0</ele>
        <time>2019-12-21T09:37:03.369Z</time>
      </trkpt>
      <trkpt lat="41.29572" lon="1.86112333">
        <ele>264.0</ele>
        <time>2019-12-21T09:37:04.356Z</time>
      </trkpt>
      <trkpt lat="41.29577667" lon="1.861015">
        <ele>265.0</ele>
        <time>2019-12-21T09:37:05.349Z</time>
      </trkpt>
      <trkpt lat="41.29577667" lon="1.861015">
        <ele>265.0</ele>
        <time>2019-12-21T09:37:06.371Z</time>
      </trkpt>
      <trkpt lat="41.29584667" lon="1.86090167">
        <ele>265.0</ele>
        <time>2019-12-21T09:37:07.362Z</time>
      </trkpt>
      <trkpt lat="41.29584667" lon="1.86090167">
        <ele>265.0</ele>
        <time>2019-12-21T09:37:08.363Z</time>
      </trkpt>
      <trkpt lat="41.29594" lon="1.86078667">
        <ele>262.0</ele>
        <time>2019-12-21T09:37:09.367Z</time>
      </trkpt>
      <trkpt lat="41.29594" lon="1.86078667">
        <ele>262.0</ele>
        <time>2019-12-21T09:37:10.370Z</time>
      </trkpt>
      <trkpt lat="41.29604167" lon="1.86067">
        <ele>260.0</ele>
        <time>2019-12-21T09:37:11.365Z</time>
      </trkpt>
      <trkpt lat="41.29604167" lon="1.86067">
        <ele>260.0</ele>
        <time>2019-12-21T09:37:12.362Z</time>
      </trkpt>
      <trkpt lat="41.29614667" lon="1.860545">
        <ele>258.0</ele>
        <time>2019-12-21T09:37:13.365Z</time>
      </trkpt>
      <trkpt lat="41.29614667" lon="1.860545">
        <ele>258.0</ele>
        <time>2019-12-21T09:37:14.359Z</time>
      </trkpt>
      <trkpt lat="41.29623667" lon="1.860405">
        <ele>257.0</ele>
        <time>2019-12-21T09:37:15.341Z</time>
      </trkpt>
      <trkpt lat="41.29623667" lon="1.860405">
        <ele>257.0</ele>
        <time>2019-12-21T09:37:16.364Z</time>
      </trkpt>
      <trkpt lat="41.29629833" lon="1.860265">
        <ele>255.0</ele>
        <time>2019-12-21T09:37:17.365Z</time>
      </trkpt>
      <trkpt lat="41.29629833" lon="1.860265">
        <ele>255.0</ele>
        <time>2019-12-21T09:37:18.365Z</time>
      </trkpt>
      <trkpt lat="41.29630667" lon="1.86014">
        <ele>254.0</ele>
        <time>2019-12-21T09:37:19.341Z</time>
      </trkpt>
      <trkpt lat="41.29630667" lon="1.86014">
        <ele>254.0</ele>
        <time>2019-12-21T09:37:20.364Z</time>
      </trkpt>
      <trkpt lat="41.29626833" lon="1.860065">
        <ele>253.0</ele>
        <time>2019-12-21T09:37:21.367Z</time>
      </trkpt>
      <trkpt lat="41.29626833" lon="1.860065">
        <ele>253.0</ele>
        <time>2019-12-21T09:37:22.359Z</time>
      </trkpt>
      <trkpt lat="41.29621" lon="1.86007333">
        <ele>253.0</ele>
        <time>2019-12-21T09:37:23.365Z</time>
      </trkpt>
      <trkpt lat="41.29621" lon="1.86007333">
        <ele>253.0</ele>
        <time>2019-12-21T09:37:24.359Z</time>
      </trkpt>
      <trkpt lat="41.29615167" lon="1.86009667">
        <ele>252.0</ele>
        <time>2019-12-21T09:37:25.362Z</time>
      </trkpt>
      <trkpt lat="41.29615167" lon="1.86009667">
        <ele>252.0</ele>
        <time>2019-12-21T09:37:26.359Z</time>
      </trkpt>
      <trkpt lat="41.296085" lon="1.86012667">
        <ele>252.0</ele>
        <time>2019-12-21T09:37:27.341Z</time>
      </trkpt>
      <trkpt lat="41.296085" lon="1.86012667">
        <ele>252.0</ele>
        <time>2019-12-21T09:37:28.366Z</time>
      </trkpt>
      <trkpt lat="41.29600667" lon="1.86016167">
        <ele>251.0</ele>
        <time>2019-12-21T09:37:29.334Z</time>
      </trkpt>
      <trkpt lat="41.29600667" lon="1.86016167">
        <ele>251.0</ele>
        <time>2019-12-21T09:37:30.360Z</time>
      </trkpt>
      <trkpt lat="41.29590667" lon="1.860195">
        <ele>251.0</ele>
        <time>2019-12-21T09:37:31.365Z</time>
      </trkpt>
      <trkpt lat="41.29590667" lon="1.860195">
        <ele>251.0</ele>
        <time>2019-12-21T09:37:32.360Z</time>
      </trkpt>
      <trkpt lat="41.29580167" lon="1.86023">
        <ele>251.0</ele>
        <time>2019-12-21T09:37:33.345Z</time>
      </trkpt>
      <trkpt lat="41.29580167" lon="1.86023">
        <ele>251.0</ele>
        <time>2019-12-21T09:37:34.368Z</time>
      </trkpt>
      <trkpt lat="41.29569167" lon="1.86026">
        <ele>251.0</ele>
        <time>2019-12-21T09:37:35.365Z</time>
      </trkpt>
      <trkpt lat="41.29569167" lon="1.86026">
        <ele>251.0</ele>
        <time>2019-12-21T09:37:36.360Z</time>
      </trkpt>
      <trkpt lat="41.295575" lon="1.86027833">
        <ele>250.0</ele>
        <time>2019-12-21T09:37:37.368Z</time>
      </trkpt>
      <trkpt lat="41.295575" lon="1.86027833">
        <ele>250.0</ele>
        <time>2019-12-21T09:37:38.364Z</time>
      </trkpt>
      <trkpt lat="41.29545167" lon="1.86028667">
        <ele>250.0</ele>
        <time>2019-12-21T09:37:39.342Z</time>
      </trkpt>
      <trkpt lat="41.29545167" lon="1.86028667">
        <ele>250.0</ele>
        <time>2019-12-21T09:37:40.365Z</time>
      </trkpt>
      <trkpt lat="41.295325" lon="1.86028333">
        <ele>250.0</ele>
        <time>2019-12-21T09:37:41.365Z</time>
      </trkpt>
      <trkpt lat="41.295325" lon="1.86028333">
        <ele>250.0</ele>
        <time>2019-12-21T09:37:42.359Z</time>
      </trkpt>
      <trkpt lat="41.29519833" lon="1.86027">
        <ele>250.0</ele>
        <time>2019-12-21T09:37:43.365Z</time>
      </trkpt>
      <trkpt lat="41.29519833" lon="1.86027">
        <ele>250.0</ele>
        <time>2019-12-21T09:37:44.359Z</time>
      </trkpt>
      <trkpt lat="41.29508167" lon="1.860235">
        <ele>249.0</ele>
        <time>2019-12-21T09:37:45.341Z</time>
      </trkpt>
      <trkpt lat="41.29508167" lon="1.860235">
        <ele>249.0</ele>
        <time>2019-12-21T09:37:46.363Z</time>
      </trkpt>
      <trkpt lat="41.29496333" lon="1.86019667">
        <ele>249.0</ele>
        <time>2019-12-21T09:37:47.366Z</time>
      </trkpt>
      <trkpt lat="41.29496333" lon="1.86019667">
        <ele>249.0</ele>
        <time>2019-12-21T09:37:48.360Z</time>
      </trkpt>
      <trkpt lat="41.29483333" lon="1.860185">
        <ele>248.0</ele>
        <time>2019-12-21T09:37:49.365Z</time>
      </trkpt>
      <trkpt lat="41.29483333" lon="1.860185">
        <ele>248.0</ele>
        <time>2019-12-21T09:37:50.360Z</time>
      </trkpt>
      <trkpt lat="41.29469" lon="1.86024">
        <ele>246.0</ele>
        <time>2019-12-21T09:37:51.342Z</time>
      </trkpt>
      <trkpt lat="41.29469" lon="1.86024">
        <ele>246.0</ele>
        <time>2019-12-21T09:37:52.367Z</time>
      </trkpt>
      <trkpt lat="41.29455" lon="1.86034333">
        <ele>245.0</ele>
        <time>2019-12-21T09:37:53.363Z</time>
      </trkpt>
      <trkpt lat="41.29455" lon="1.86034333">
        <ele>245.0</ele>
        <time>2019-12-21T09:37:54.361Z</time>
      </trkpt>
      <trkpt lat="41.29441167" lon="1.86048667">
        <ele>243.0</ele>
        <time>2019-12-21T09:37:55.366Z</time>
      </trkpt>
      <trkpt lat="41.29441167" lon="1.86048667">
        <ele>243.0</ele>
        <time>2019-12-21T09:37:56.360Z</time>
      </trkpt>
      <trkpt lat="41.29429167" lon="1.86066833">
        <ele>241.0</ele>
        <time>2019-12-21T09:37:57.343Z</time>
      </trkpt>
      <trkpt lat="41.29429167" lon="1.86066833">
        <ele>241.0</ele>
        <time>2019-12-21T09:37:58.366Z</time>
      </trkpt>
      <trkpt lat="41.29417" lon="1.860855">
        <ele>239.0</ele>
        <time>2019-12-21T09:37:59.365Z</time>
      </trkpt>
      <trkpt lat="41.29417" lon="1.860855">
        <ele>239.0</ele>
        <time>2019-12-21T09:38:00.361Z</time>
      </trkpt>
      <trkpt lat="41.294035" lon="1.86104667">
        <ele>234.0</ele>
        <time>2019-12-21T09:38:01.365Z</time>
      </trkpt>
      <trkpt lat="41.294035" lon="1.86104667">
        <ele>234.0</ele>
        <time>2019-12-21T09:38:02.361Z</time>
      </trkpt>
      <trkpt lat="41.29388" lon="1.86124833">
        <ele>230.0</ele>
        <time>2019-12-21T09:38:03.368Z</time>
      </trkpt>
      <trkpt lat="41.29388" lon="1.86124833">
        <ele>230.0</ele>
        <time>2019-12-21T09:38:04.361Z</time>
      </trkpt>
      <trkpt lat="41.29371167" lon="1.86146">
        <ele>228.0</ele>
        <time>2019-12-21T09:38:05.365Z</time>
      </trkpt>
      <trkpt lat="41.29371167" lon="1.86146">
        <ele>228.0</ele>
        <time>2019-12-21T09:38:06.360Z</time>
      </trkpt>
      <trkpt lat="41.29353667" lon="1.861655">
        <ele>225.0</ele>
        <time>2019-12-21T09:38:07.362Z</time>
      </trkpt>
      <trkpt lat="41.29353667" lon="1.861655">
        <ele>225.0</ele>
        <time>2019-12-21T09:38:08.360Z</time>
      </trkpt>
      <trkpt lat="41.293385" lon="1.86175">
        <ele>223.0</ele>
        <time>2019-12-21T09:38:09.367Z</time>
      </trkpt>
      <trkpt lat="41.293385" lon="1.86175">
        <ele>223.0</ele>
        <time>2019-12-21T09:38:10.357Z</time>
      </trkpt>
      <trkpt lat="41.29327833" lon="1.86171333">
        <ele>222.0</ele>
        <time>2019-12-21T09:38:11.339Z</time>
      </trkpt>
      <trkpt lat="41.29327833" lon="1.86171333">
        <ele>222.0</ele>
        <time>2019-12-21T09:38:12.362Z</time>
      </trkpt>
      <trkpt lat="41.29322667" lon="1.86160667">
        <ele>221.0</ele>
        <time>2019-12-21T09:38:13.365Z</time>
      </trkpt>
      <trkpt lat="41.29322667" lon="1.86160667">
        <ele>221.0</ele>
        <time>2019-12-21T09:38:14.360Z</time>
      </trkpt>
      <trkpt lat="41.29321667" lon="1.86148833">
        <ele>220.0</ele>
        <time>2019-12-21T09:38:15.367Z</time>
      </trkpt>
      <trkpt lat="41.29321667" lon="1.86148833">
        <ele>220.0</ele>
        <time>2019-12-21T09:38:16.361Z</time>
      </trkpt>
      <trkpt lat="41.29322" lon="1.86138667">
        <ele>219.0</ele>
        <time>2019-12-21T09:38:17.365Z</time>
      </trkpt>
      <trkpt lat="41.29322" lon="1.86138667">
        <ele>219.0</ele>
        <time>2019-12-21T09:38:18.360Z</time>
      </trkpt>
      <trkpt lat="41.29323167" lon="1.86129833">
        <ele>219.0</ele>
        <time>2019-12-21T09:38:19.367Z</time>
      </trkpt>
      <trkpt lat="41.29323167" lon="1.86129833">
        <ele>219.0</ele>
        <time>2019-12-21T09:38:20.361Z</time>
      </trkpt>
      <trkpt lat="41.29324333" lon="1.86121167">
        <ele>219.0</ele>
        <time>2019-12-21T09:38:21.368Z</time>
      </trkpt>
      <trkpt lat="41.29324333" lon="1.86121167">
        <ele>219.0</ele>
        <time>2019-12-21T09:38:22.360Z</time>
      </trkpt>
      <trkpt lat="41.29325" lon="1.86112667">
        <ele>218.0</ele>
        <time>2019-12-21T09:38:23.366Z</time>
      </trkpt>
      <trkpt lat="41.29325" lon="1.86112667">
        <ele>218.0</ele>
        <time>2019-12-21T09:38:24.360Z</time>
      </trkpt>
      <trkpt lat="41.29325167" lon="1.86106167">
        <ele>218.0</ele>
        <time>2019-12-21T09:38:25.363Z</time>
      </trkpt>
      <trkpt lat="41.29325167" lon="1.86106167">
        <ele>218.0</ele>
        <time>2019-12-21T09:38:26.361Z</time>
      </trkpt>
      <trkpt lat="41.29325167" lon="1.86099833">
        <ele>218.0</ele>
        <time>2019-12-21T09:38:27.342Z</time>
      </trkpt>
      <trkpt lat="41.29325667" lon="1.860965">
        <ele>218.0</ele>
        <time>2019-12-21T09:38:28.349Z</time>
      </trkpt>
      <trkpt lat="41.29325667" lon="1.860965">
        <ele>218.0</ele>
        <time>2019-12-21T09:38:29.334Z</time>
      </trkpt>
      <trkpt lat="41.29325833" lon="1.86088667">
        <ele>219.0</ele>
        <time>2019-12-21T09:38:30.366Z</time>
      </trkpt>
      <trkpt lat="41.29325833" lon="1.86088667">
        <ele>219.0</ele>
        <time>2019-12-21T09:38:31.360Z</time>
      </trkpt>
      <trkpt lat="41.29326" lon="1.86081">
        <ele>220.0</ele>
        <time>2019-12-21T09:38:32.365Z</time>
      </trkpt>
      <trkpt lat="41.29326167" lon="1.86077333">
        <ele>220.0</ele>
        <time>2019-12-21T09:38:33.365Z</time>
      </trkpt>
      <trkpt lat="41.29326167" lon="1.86077333">
        <ele>220.0</ele>
        <time>2019-12-21T09:38:34.361Z</time>
      </trkpt>
      <trkpt lat="41.29326" lon="1.86069833">
        <ele>221.0</ele>
        <time>2019-12-21T09:38:35.365Z</time>
      </trkpt>
      <trkpt lat="41.29326" lon="1.86069833">
        <ele>221.0</ele>
        <time>2019-12-21T09:38:36.361Z</time>
      </trkpt>
      <trkpt lat="41.29325833" lon="1.86062667">
        <ele>221.0</ele>
        <time>2019-12-21T09:38:37.367Z</time>
      </trkpt>
      <trkpt lat="41.29325833" lon="1.86062667">
        <ele>221.0</ele>
        <time>2019-12-21T09:38:38.361Z</time>
      </trkpt>
      <trkpt lat="41.29326167" lon="1.86055833">
        <ele>222.0</ele>
        <time>2019-12-21T09:38:39.366Z</time>
      </trkpt>
      <trkpt lat="41.29326167" lon="1.86055833">
        <ele>222.0</ele>
        <time>2019-12-21T09:38:40.361Z</time>
      </trkpt>
      <trkpt lat="41.293255" lon="1.86049167">
        <ele>222.0</ele>
        <time>2019-12-21T09:38:41.365Z</time>
      </trkpt>
      <trkpt lat="41.293255" lon="1.86049167">
        <ele>222.0</ele>
        <time>2019-12-21T09:38:42.358Z</time>
      </trkpt>
      <trkpt lat="41.29325333" lon="1.860425">
        <ele>222.0</ele>
        <time>2019-12-21T09:38:43.340Z</time>
      </trkpt>
      <trkpt lat="41.29325333" lon="1.860425">
        <ele>222.0</ele>
        <time>2019-12-21T09:38:44.363Z</time>
      </trkpt>
      <trkpt lat="41.293255" lon="1.86036">
        <ele>222.0</ele>
        <time>2019-12-21T09:38:45.368Z</time>
      </trkpt>
      <trkpt lat="41.293255" lon="1.86036">
        <ele>222.0</ele>
        <time>2019-12-21T09:38:46.361Z</time>
      </trkpt>
      <trkpt lat="41.29326" lon="1.86029667">
        <ele>222.0</ele>
        <time>2019-12-21T09:38:47.367Z</time>
      </trkpt>
      <trkpt lat="41.29326" lon="1.86029667">
        <ele>222.0</ele>
        <time>2019-12-21T09:38:48.360Z</time>
      </trkpt>
      <trkpt lat="41.29326833" lon="1.860225">
        <ele>222.0</ele>
        <time>2019-12-21T09:38:49.357Z</time>
      </trkpt>
      <trkpt lat="41.29326833" lon="1.860195">
        <ele>222.0</ele>
        <time>2019-12-21T09:38:50.339Z</time>
      </trkpt>
      <trkpt lat="41.29327" lon="1.860165">
        <ele>223.0</ele>
        <time>2019-12-21T09:38:51.368Z</time>
      </trkpt>
      <trkpt lat="41.29327" lon="1.860165">
        <ele>223.0</ele>
        <time>2019-12-21T09:38:52.363Z</time>
      </trkpt>
      <trkpt lat="41.29327333" lon="1.86009333">
        <ele>223.0</ele>
        <time>2019-12-21T09:38:53.346Z</time>
      </trkpt>
      <trkpt lat="41.29327333" lon="1.86009333">
        <ele>223.0</ele>
        <time>2019-12-21T09:38:54.369Z</time>
      </trkpt>
      <trkpt lat="41.29327667" lon="1.860025">
        <ele>224.0</ele>
        <time>2019-12-21T09:38:55.370Z</time>
      </trkpt>
      <trkpt lat="41.29327667" lon="1.860025">
        <ele>224.0</ele>
        <time>2019-12-21T09:38:56.361Z</time>
      </trkpt>
      <trkpt lat="41.29327667" lon="1.859965">
        <ele>225.0</ele>
        <time>2019-12-21T09:38:57.343Z</time>
      </trkpt>
      <trkpt lat="41.29327667" lon="1.859965">
        <ele>225.0</ele>
        <time>2019-12-21T09:38:58.367Z</time>
      </trkpt>
      <trkpt lat="41.29327833" lon="1.85990667">
        <ele>226.0</ele>
        <time>2019-12-21T09:38:59.346Z</time>
      </trkpt>
      <trkpt lat="41.29327833" lon="1.85990667">
        <ele>226.0</ele>
        <time>2019-12-21T09:39:00.369Z</time>
      </trkpt>
      <trkpt lat="41.29328" lon="1.85984667">
        <ele>227.0</ele>
        <time>2019-12-21T09:39:01.366Z</time>
      </trkpt>
      <trkpt lat="41.29328" lon="1.85984667">
        <ele>227.0</ele>
        <time>2019-12-21T09:39:02.362Z</time>
      </trkpt>
      <trkpt lat="41.29327667" lon="1.85978667">
        <ele>227.0</ele>
        <time>2019-12-21T09:39:03.368Z</time>
      </trkpt>
      <trkpt lat="41.29327667" lon="1.85978667">
        <ele>227.0</ele>
        <time>2019-12-21T09:39:04.366Z</time>
      </trkpt>
      <trkpt lat="41.293275" lon="1.85972167">
        <ele>228.0</ele>
        <time>2019-12-21T09:39:05.366Z</time>
      </trkpt>
      <trkpt lat="41.293275" lon="1.85972167">
        <ele>228.0</ele>
        <time>2019-12-21T09:39:06.360Z</time>
      </trkpt>
      <trkpt lat="41.29327667" lon="1.85965667">
        <ele>228.0</ele>
        <time>2019-12-21T09:39:07.366Z</time>
      </trkpt>
      <trkpt lat="41.29327667" lon="1.85965667">
        <ele>228.0</ele>
        <time>2019-12-21T09:39:08.361Z</time>
      </trkpt>
      <trkpt lat="41.29327333" lon="1.85959833">
        <ele>229.0</ele>
        <time>2019-12-21T09:39:09.348Z</time>
      </trkpt>
      <trkpt lat="41.29327333" lon="1.85959833">
        <ele>229.0</ele>
        <time>2019-12-21T09:39:10.339Z</time>
      </trkpt>
      <trkpt lat="41.29327" lon="1.859535">
        <ele>229.0</ele>
        <time>2019-12-21T09:39:11.366Z</time>
      </trkpt>
      <trkpt lat="41.29327" lon="1.859535">
        <ele>229.0</ele>
        <time>2019-12-21T09:39:12.361Z</time>
      </trkpt>
      <trkpt lat="41.29325833" lon="1.85947333">
        <ele>230.0</ele>
        <time>2019-12-21T09:39:13.366Z</time>
      </trkpt>
      <trkpt lat="41.29325833" lon="1.85947333">
        <ele>230.0</ele>
        <time>2019-12-21T09:39:14.359Z</time>
      </trkpt>
      <trkpt lat="41.29324833" lon="1.85942333">
        <ele>230.0</ele>
        <time>2019-12-21T09:39:15.341Z</time>
      </trkpt>
      <trkpt lat="41.29324833" lon="1.85942333">
        <ele>230.0</ele>
        <time>2019-12-21T09:39:16.364Z</time>
      </trkpt>
      <trkpt lat="41.293235" lon="1.85937">
        <ele>230.0</ele>
        <time>2019-12-21T09:39:17.367Z</time>
      </trkpt>
      <trkpt lat="41.293235" lon="1.85937">
        <ele>230.0</ele>
        <time>2019-12-21T09:39:18.361Z</time>
      </trkpt>
      <trkpt lat="41.29321667" lon="1.859315">
        <ele>231.0</ele>
        <time>2019-12-21T09:39:19.368Z</time>
      </trkpt>
      <trkpt lat="41.29321667" lon="1.859315">
        <ele>231.0</ele>
        <time>2019-12-21T09:39:20.361Z</time>
      </trkpt>
      <trkpt lat="41.29320167" lon="1.859265">
        <ele>232.0</ele>
        <time>2019-12-21T09:39:21.360Z</time>
      </trkpt>
      <trkpt lat="41.29320167" lon="1.859265">
        <ele>232.0</ele>
        <time>2019-12-21T09:39:22.361Z</time>
      </trkpt>
      <trkpt lat="41.293175" lon="1.859215">
        <ele>232.0</ele>
        <time>2019-12-21T09:39:23.366Z</time>
      </trkpt>
      <trkpt lat="41.293175" lon="1.859215">
        <ele>232.0</ele>
        <time>2019-12-21T09:39:24.361Z</time>
      </trkpt>
      <trkpt lat="41.29315" lon="1.85918333">
        <ele>233.0</ele>
        <time>2019-12-21T09:39:25.366Z</time>
      </trkpt>
      <trkpt lat="41.29315" lon="1.85918333">
        <ele>233.0</ele>
        <time>2019-12-21T09:39:26.361Z</time>
      </trkpt>
      <trkpt lat="41.29313167" lon="1.85914833">
        <ele>234.0</ele>
        <time>2019-12-21T09:39:27.342Z</time>
      </trkpt>
      <trkpt lat="41.29313167" lon="1.85914833">
        <ele>234.0</ele>
        <time>2019-12-21T09:39:28.343Z</time>
      </trkpt>
      <trkpt lat="41.29311167" lon="1.85911167">
        <ele>235.0</ele>
        <time>2019-12-21T09:39:29.368Z</time>
      </trkpt>
      <trkpt lat="41.29311167" lon="1.85911167">
        <ele>235.0</ele>
        <time>2019-12-21T09:39:30.362Z</time>
      </trkpt>
      <trkpt lat="41.293095" lon="1.85908">
        <ele>236.0</ele>
        <time>2019-12-21T09:39:31.367Z</time>
      </trkpt>
      <trkpt lat="41.293095" lon="1.85908">
        <ele>236.0</ele>
        <time>2019-12-21T09:39:32.361Z</time>
      </trkpt>
      <trkpt lat="41.29308333" lon="1.85903667">
        <ele>237.0</ele>
        <time>2019-12-21T09:39:33.370Z</time>
      </trkpt>
      <trkpt lat="41.29308333" lon="1.85903667">
        <ele>237.0</ele>
        <time>2019-12-21T09:39:34.362Z</time>
      </trkpt>
      <trkpt lat="41.29305333" lon="1.85899167">
        <ele>238.0</ele>
        <time>2019-12-21T09:39:35.366Z</time>
      </trkpt>
      <trkpt lat="41.29305333" lon="1.85899167">
        <ele>238.0</ele>
        <time>2019-12-21T09:39:36.361Z</time>
      </trkpt>
      <trkpt lat="41.293015" lon="1.858955">
        <ele>239.0</ele>
        <time>2019-12-21T09:39:37.367Z</time>
      </trkpt>
      <trkpt lat="41.29299" lon="1.85893833">
        <ele>239.0</ele>
        <time>2019-12-21T09:39:38.370Z</time>
      </trkpt>
      <trkpt lat="41.29299" lon="1.85893833">
        <ele>239.0</ele>
        <time>2019-12-21T09:39:39.366Z</time>
      </trkpt>
      <trkpt lat="41.29293167" lon="1.8589">
        <ele>239.0</ele>
        <time>2019-12-21T09:39:40.366Z</time>
      </trkpt>
      <trkpt lat="41.29293167" lon="1.8589">
        <ele>239.0</ele>
        <time>2019-12-21T09:39:41.361Z</time>
      </trkpt>
      <trkpt lat="41.29286333" lon="1.85886667">
        <ele>240.0</ele>
        <time>2019-12-21T09:39:42.367Z</time>
      </trkpt>
      <trkpt lat="41.29286333" lon="1.85886667">
        <ele>240.0</ele>
        <time>2019-12-21T09:39:43.362Z</time>
      </trkpt>
      <trkpt lat="41.29278333" lon="1.85882833">
        <ele>240.0</ele>
        <time>2019-12-21T09:39:44.366Z</time>
      </trkpt>
      <trkpt lat="41.29274" lon="1.858805">
        <ele>239.0</ele>
        <time>2019-12-21T09:39:45.368Z</time>
      </trkpt>
      <trkpt lat="41.29274" lon="1.858805">
        <ele>239.0</ele>
        <time>2019-12-21T09:39:46.362Z</time>
      </trkpt>
      <trkpt lat="41.29264667" lon="1.85875">
        <ele>238.0</ele>
        <time>2019-12-21T09:39:47.366Z</time>
      </trkpt>
      <trkpt lat="41.29264667" lon="1.85875">
        <ele>238.0</ele>
        <time>2019-12-21T09:39:48.361Z</time>
      </trkpt>
      <trkpt lat="41.292575" lon="1.85864667">
        <ele>238.0</ele>
        <time>2019-12-21T09:39:49.367Z</time>
      </trkpt>
      <trkpt lat="41.292575" lon="1.85864667">
        <ele>238.0</ele>
        <time>2019-12-21T09:39:50.361Z</time>
      </trkpt>
      <trkpt lat="41.292585" lon="1.85851333">
        <ele>237.0</ele>
        <time>2019-12-21T09:39:51.366Z</time>
      </trkpt>
      <trkpt lat="41.29261" lon="1.858465">
        <ele>237.0</ele>
        <time>2019-12-21T09:39:52.367Z</time>
      </trkpt>
      <trkpt lat="41.29264167" lon="1.85842667">
        <ele>237.0</ele>
        <time>2019-12-21T09:39:53.367Z</time>
      </trkpt>
      <trkpt lat="41.29264167" lon="1.85842667">
        <ele>237.0</ele>
        <time>2019-12-21T09:39:54.362Z</time>
      </trkpt>
      <trkpt lat="41.29270333" lon="1.85834667">
        <ele>237.0</ele>
        <time>2019-12-21T09:39:55.367Z</time>
      </trkpt>
      <trkpt lat="41.29273" lon="1.85830667">
        <ele>237.0</ele>
        <time>2019-12-21T09:39:56.364Z</time>
      </trkpt>
      <trkpt lat="41.29273" lon="1.85830667">
        <ele>237.0</ele>
        <time>2019-12-21T09:39:57.363Z</time>
      </trkpt>
      <trkpt lat="41.29278333" lon="1.85822667">
        <ele>237.0</ele>
        <time>2019-12-21T09:39:58.367Z</time>
      </trkpt>
      <trkpt lat="41.29278333" lon="1.85822667">
        <ele>237.0</ele>
        <time>2019-12-21T09:39:59.361Z</time>
      </trkpt>
      <trkpt lat="41.292825" lon="1.858155">
        <ele>237.0</ele>
        <time>2019-12-21T09:40:00.367Z</time>
      </trkpt>
      <trkpt lat="41.292825" lon="1.858155">
        <ele>237.0</ele>
        <time>2019-12-21T09:40:01.364Z</time>
      </trkpt>
      <trkpt lat="41.29285833" lon="1.85808">
        <ele>237.0</ele>
        <time>2019-12-21T09:40:02.366Z</time>
      </trkpt>
      <trkpt lat="41.29287167" lon="1.85804167">
        <ele>237.0</ele>
        <time>2019-12-21T09:40:03.369Z</time>
      </trkpt>
      <trkpt lat="41.29287167" lon="1.85804167">
        <ele>237.0</ele>
        <time>2019-12-21T09:40:04.361Z</time>
      </trkpt>
      <trkpt lat="41.29289667" lon="1.85796833">
        <ele>238.0</ele>
        <time>2019-12-21T09:40:05.367Z</time>
      </trkpt>
      <trkpt lat="41.29289667" lon="1.85796833">
        <ele>238.0</ele>
        <time>2019-12-21T09:40:06.364Z</time>
      </trkpt>
      <trkpt lat="41.29292167" lon="1.85789333">
        <ele>238.0</ele>
        <time>2019-12-21T09:40:07.367Z</time>
      </trkpt>
      <trkpt lat="41.29292167" lon="1.85789333">
        <ele>238.0</ele>
        <time>2019-12-21T09:40:08.364Z</time>
      </trkpt>
      <trkpt lat="41.29295333" lon="1.85782">
        <ele>239.0</ele>
        <time>2019-12-21T09:40:09.365Z</time>
      </trkpt>
      <trkpt lat="41.29297" lon="1.857785">
        <ele>239.0</ele>
        <time>2019-12-21T09:40:10.367Z</time>
      </trkpt>
      <trkpt lat="41.29297" lon="1.857785">
        <ele>239.0</ele>
        <time>2019-12-21T09:40:11.362Z</time>
      </trkpt>
      <trkpt lat="41.29299667" lon="1.85771333">
        <ele>239.0</ele>
        <time>2019-12-21T09:40:12.366Z</time>
      </trkpt>
      <trkpt lat="41.29301" lon="1.857675">
        <ele>240.0</ele>
        <time>2019-12-21T09:40:13.367Z</time>
      </trkpt>
      <trkpt lat="41.29301" lon="1.857675">
        <ele>240.0</ele>
        <time>2019-12-21T09:40:14.361Z</time>
      </trkpt>
      <trkpt lat="41.29303333" lon="1.85760167">
        <ele>240.0</ele>
        <time>2019-12-21T09:40:15.344Z</time>
      </trkpt>
      <trkpt lat="41.293045" lon="1.857565">
        <ele>241.0</ele>
        <time>2019-12-21T09:40:16.367Z</time>
      </trkpt>
      <trkpt lat="41.293055" lon="1.85753167">
        <ele>241.0</ele>
        <time>2019-12-21T09:40:17.367Z</time>
      </trkpt>
      <trkpt lat="41.293055" lon="1.85753167">
        <ele>241.0</ele>
        <time>2019-12-21T09:40:18.362Z</time>
      </trkpt>
      <trkpt lat="41.29308333" lon="1.857465">
        <ele>241.0</ele>
        <time>2019-12-21T09:40:19.367Z</time>
      </trkpt>
      <trkpt lat="41.29308333" lon="1.857465">
        <ele>241.0</ele>
        <time>2019-12-21T09:40:20.361Z</time>
      </trkpt>
      <trkpt lat="41.29311833" lon="1.8574">
        <ele>241.0</ele>
        <time>2019-12-21T09:40:21.344Z</time>
      </trkpt>
      <trkpt lat="41.29314" lon="1.85737">
        <ele>241.0</ele>
        <time>2019-12-21T09:40:22.362Z</time>
      </trkpt>
      <trkpt lat="41.29314" lon="1.85737">
        <ele>241.0</ele>
        <time>2019-12-21T09:40:23.357Z</time>
      </trkpt>
      <trkpt lat="41.29318667" lon="1.85731167">
        <ele>242.0</ele>
        <time>2019-12-21T09:40:24.363Z</time>
      </trkpt>
      <trkpt lat="41.29318667" lon="1.85731167">
        <ele>242.0</ele>
        <time>2019-12-21T09:40:25.369Z</time>
      </trkpt>
      <trkpt lat="41.29323667" lon="1.85725833">
        <ele>242.0</ele>
        <time>2019-12-21T09:40:26.353Z</time>
      </trkpt>
      <trkpt lat="41.29323667" lon="1.85725833">
        <ele>242.0</ele>
        <time>2019-12-21T09:40:27.334Z</time>
      </trkpt>
      <trkpt lat="41.29328667" lon="1.85721">
        <ele>243.0</ele>
        <time>2019-12-21T09:40:28.367Z</time>
      </trkpt>
      <trkpt lat="41.29328667" lon="1.85721">
        <ele>243.0</ele>
        <time>2019-12-21T09:40:29.362Z</time>
      </trkpt>
      <trkpt lat="41.293335" lon="1.85717">
        <ele>243.0</ele>
        <time>2019-12-21T09:40:30.364Z</time>
      </trkpt>
      <trkpt lat="41.29336167" lon="1.85715167">
        <ele>243.0</ele>
        <time>2019-12-21T09:40:31.367Z</time>
      </trkpt>
      <trkpt lat="41.29336167" lon="1.85715167">
        <ele>243.0</ele>
        <time>2019-12-21T09:40:32.364Z</time>
      </trkpt>
      <trkpt lat="41.29341167" lon="1.857115">
        <ele>243.0</ele>
        <time>2019-12-21T09:40:33.348Z</time>
      </trkpt>
      <trkpt lat="41.29341167" lon="1.857115">
        <ele>243.0</ele>
        <time>2019-12-21T09:40:34.371Z</time>
      </trkpt>
      <trkpt lat="41.29346" lon="1.85708">
        <ele>244.0</ele>
        <time>2019-12-21T09:40:35.366Z</time>
      </trkpt>
      <trkpt lat="41.29346" lon="1.85708">
        <ele>244.0</ele>
        <time>2019-12-21T09:40:36.365Z</time>
      </trkpt>
      <trkpt lat="41.29351167" lon="1.85704333">
        <ele>244.0</ele>
        <time>2019-12-21T09:40:37.367Z</time>
      </trkpt>
      <trkpt lat="41.29351167" lon="1.85704333">
        <ele>244.0</ele>
        <time>2019-12-21T09:40:38.362Z</time>
      </trkpt>
      <trkpt lat="41.29356667" lon="1.85701333">
        <ele>245.0</ele>
        <time>2019-12-21T09:40:39.344Z</time>
      </trkpt>
      <trkpt lat="41.29356667" lon="1.85701333">
        <ele>245.0</ele>
        <time>2019-12-21T09:40:40.369Z</time>
      </trkpt>
      <trkpt lat="41.29361833" lon="1.85698167">
        <ele>245.0</ele>
        <time>2019-12-21T09:40:41.367Z</time>
      </trkpt>
      <trkpt lat="41.29364167" lon="1.85696667">
        <ele>245.0</ele>
        <time>2019-12-21T09:40:42.364Z</time>
      </trkpt>
      <trkpt lat="41.29364167" lon="1.85696667">
        <ele>245.0</ele>
        <time>2019-12-21T09:40:43.363Z</time>
      </trkpt>
      <trkpt lat="41.29368833" lon="1.85693833">
        <ele>246.0</ele>
        <time>2019-12-21T09:40:44.367Z</time>
      </trkpt>
      <trkpt lat="41.29368833" lon="1.85693833">
        <ele>246.0</ele>
        <time>2019-12-21T09:40:45.363Z</time>
      </trkpt>
      <trkpt lat="41.293735" lon="1.85691">
        <ele>246.0</ele>
        <time>2019-12-21T09:40:46.367Z</time>
      </trkpt>
      <trkpt lat="41.293735" lon="1.85691">
        <ele>246.0</ele>
        <time>2019-12-21T09:40:47.363Z</time>
      </trkpt>
      <trkpt lat="41.29378" lon="1.85689">
        <ele>246.0</ele>
        <time>2019-12-21T09:40:48.367Z</time>
      </trkpt>
      <trkpt lat="41.29378" lon="1.85689">
        <ele>246.0</ele>
        <time>2019-12-21T09:40:49.365Z</time>
      </trkpt>
      <trkpt lat="41.293825" lon="1.85686167">
        <ele>247.0</ele>
        <time>2019-12-21T09:40:50.334Z</time>
      </trkpt>
      <trkpt lat="41.293845" lon="1.85684667">
        <ele>247.0</ele>
        <time>2019-12-21T09:40:51.342Z</time>
      </trkpt>
      <trkpt lat="41.29386667" lon="1.85683333">
        <ele>247.0</ele>
        <time>2019-12-21T09:40:52.371Z</time>
      </trkpt>
      <trkpt lat="41.29386667" lon="1.85683333">
        <ele>247.0</ele>
        <time>2019-12-21T09:40:53.363Z</time>
      </trkpt>
      <trkpt lat="41.2939" lon="1.85681667">
        <ele>248.0</ele>
        <time>2019-12-21T09:40:54.367Z</time>
      </trkpt>
      <trkpt lat="41.2939" lon="1.85681667">
        <ele>248.0</ele>
        <time>2019-12-21T09:40:55.366Z</time>
      </trkpt>
      <trkpt lat="41.293935" lon="1.856785">
        <ele>248.0</ele>
        <time>2019-12-21T09:40:56.367Z</time>
      </trkpt>
      <trkpt lat="41.293935" lon="1.856785">
        <ele>248.0</ele>
        <time>2019-12-21T09:40:57.364Z</time>
      </trkpt>
      <trkpt lat="41.29397" lon="1.85674833">
        <ele>249.0</ele>
        <time>2019-12-21T09:40:58.346Z</time>
      </trkpt>
      <trkpt lat="41.29397" lon="1.85674833">
        <ele>249.0</ele>
        <time>2019-12-21T09:40:59.369Z</time>
      </trkpt>
      <trkpt lat="41.29401333" lon="1.856705">
        <ele>249.0</ele>
        <time>2019-12-21T09:41:00.369Z</time>
      </trkpt>
      <trkpt lat="41.29401333" lon="1.856705">
        <ele>249.0</ele>
        <time>2019-12-21T09:41:01.365Z</time>
      </trkpt>
      <trkpt lat="41.29403833" lon="1.856665">
        <ele>249.0</ele>
        <time>2019-12-21T09:41:02.367Z</time>
      </trkpt>
      <trkpt lat="41.29403833" lon="1.856665">
        <ele>249.0</ele>
        <time>2019-12-21T09:41:03.364Z</time>
      </trkpt>
      <trkpt lat="41.29406333" lon="1.85662667">
        <ele>249.0</ele>
        <time>2019-12-21T09:41:04.367Z</time>
      </trkpt>
      <trkpt lat="41.29406333" lon="1.85662667">
        <ele>249.0</ele>
        <time>2019-12-21T09:41:05.365Z</time>
      </trkpt>
      <trkpt lat="41.29409" lon="1.85658833">
        <ele>250.0</ele>
        <time>2019-12-21T09:41:06.367Z</time>
      </trkpt>
      <trkpt lat="41.29409" lon="1.85658833">
        <ele>250.0</ele>
        <time>2019-12-21T09:41:07.361Z</time>
      </trkpt>
      <trkpt lat="41.29411167" lon="1.85655">
        <ele>251.0</ele>
        <time>2019-12-21T09:41:08.367Z</time>
      </trkpt>
      <trkpt lat="41.29411167" lon="1.85655">
        <ele>251.0</ele>
        <time>2019-12-21T09:41:09.363Z</time>
      </trkpt>
      <trkpt lat="41.294135" lon="1.85652167">
        <ele>251.0</ele>
        <time>2019-12-21T09:41:10.368Z</time>
      </trkpt>
      <trkpt lat="41.294135" lon="1.85652167">
        <ele>251.0</ele>
        <time>2019-12-21T09:41:11.362Z</time>
      </trkpt>
      <trkpt lat="41.294165" lon="1.85647833">
        <ele>252.0</ele>
        <time>2019-12-21T09:41:12.366Z</time>
      </trkpt>
      <trkpt lat="41.29417833" lon="1.85645667">
        <ele>252.0</ele>
        <time>2019-12-21T09:41:13.366Z</time>
      </trkpt>
      <trkpt lat="41.29419" lon="1.85644">
        <ele>252.0</ele>
        <time>2019-12-21T09:41:14.367Z</time>
      </trkpt>
      <trkpt lat="41.29419" lon="1.85644">
        <ele>252.0</ele>
        <time>2019-12-21T09:41:15.364Z</time>
      </trkpt>
      <trkpt lat="41.29421333" lon="1.85640333">
        <ele>252.0</ele>
        <time>2019-12-21T09:41:16.368Z</time>
      </trkpt>
      <trkpt lat="41.29421333" lon="1.85640333">
        <ele>252.0</ele>
        <time>2019-12-21T09:41:17.362Z</time>
      </trkpt>
      <trkpt lat="41.29423167" lon="1.85636833">
        <ele>253.0</ele>
        <time>2019-12-21T09:41:18.367Z</time>
      </trkpt>
      <trkpt lat="41.29423167" lon="1.85636833">
        <ele>253.0</ele>
        <time>2019-12-21T09:41:19.366Z</time>
      </trkpt>
      <trkpt lat="41.29425333" lon="1.85634">
        <ele>254.0</ele>
        <time>2019-12-21T09:41:20.368Z</time>
      </trkpt>
      <trkpt lat="41.29425333" lon="1.85634">
        <ele>254.0</ele>
        <time>2019-12-21T09:41:21.345Z</time>
      </trkpt>
      <trkpt lat="41.29427333" lon="1.85630333">
        <ele>254.0</ele>
        <time>2019-12-21T09:41:22.369Z</time>
      </trkpt>
      <trkpt lat="41.29428333" lon="1.85628333">
        <ele>254.0</ele>
        <time>2019-12-21T09:41:23.368Z</time>
      </trkpt>
      <trkpt lat="41.29429" lon="1.85626667">
        <ele>255.0</ele>
        <time>2019-12-21T09:41:24.369Z</time>
      </trkpt>
      <trkpt lat="41.29429" lon="1.85626667">
        <ele>255.0</ele>
        <time>2019-12-21T09:41:25.362Z</time>
      </trkpt>
      <trkpt lat="41.294305" lon="1.85623167">
        <ele>256.0</ele>
        <time>2019-12-21T09:41:26.367Z</time>
      </trkpt>
      <trkpt lat="41.294305" lon="1.85623167">
        <ele>256.0</ele>
        <time>2019-12-21T09:41:27.363Z</time>
      </trkpt>
      <trkpt lat="41.29431833" lon="1.85619167">
        <ele>256.0</ele>
        <time>2019-12-21T09:41:28.367Z</time>
      </trkpt>
      <trkpt lat="41.294325" lon="1.85616833">
        <ele>256.0</ele>
        <time>2019-12-21T09:41:29.368Z</time>
      </trkpt>
      <trkpt lat="41.294325" lon="1.85616833">
        <ele>256.0</ele>
        <time>2019-12-21T09:41:30.368Z</time>
      </trkpt>
      <trkpt lat="41.29433333" lon="1.85612">
        <ele>256.0</ele>
        <time>2019-12-21T09:41:31.367Z</time>
      </trkpt>
      <trkpt lat="41.29433333" lon="1.85612">
        <ele>256.0</ele>
        <time>2019-12-21T09:41:32.365Z</time>
      </trkpt>
      <trkpt lat="41.294335" lon="1.85606667">
        <ele>256.0</ele>
        <time>2019-12-21T09:41:33.350Z</time>
      </trkpt>
      <trkpt lat="41.29433333" lon="1.85604">
        <ele>256.0</ele>
        <time>2019-12-21T09:41:34.334Z</time>
      </trkpt>
      <trkpt lat="41.29433333" lon="1.85604">
        <ele>256.0</ele>
        <time>2019-12-21T09:41:35.365Z</time>
      </trkpt>
      <trkpt lat="41.29433167" lon="1.85599667">
        <ele>256.0</ele>
        <time>2019-12-21T09:41:36.367Z</time>
      </trkpt>
      <trkpt lat="41.29433167" lon="1.85599667">
        <ele>256.0</ele>
        <time>2019-12-21T09:41:37.366Z</time>
      </trkpt>
      <trkpt lat="41.294325" lon="1.85594833">
        <ele>256.0</ele>
        <time>2019-12-21T09:41:38.367Z</time>
      </trkpt>
      <trkpt lat="41.294325" lon="1.85594833">
        <ele>256.0</ele>
        <time>2019-12-21T09:41:39.364Z</time>
      </trkpt>
      <trkpt lat="41.29432167" lon="1.8559">
        <ele>256.0</ele>
        <time>2019-12-21T09:41:40.370Z</time>
      </trkpt>
      <trkpt lat="41.29432167" lon="1.85588">
        <ele>257.0</ele>
        <time>2019-12-21T09:41:41.340Z</time>
      </trkpt>
      <trkpt lat="41.29432167" lon="1.85588">
        <ele>257.0</ele>
        <time>2019-12-21T09:41:42.368Z</time>
      </trkpt>
      <trkpt lat="41.29431833" lon="1.85583333">
        <ele>257.0</ele>
        <time>2019-12-21T09:41:43.366Z</time>
      </trkpt>
      <trkpt lat="41.29431833" lon="1.85583333">
        <ele>257.0</ele>
        <time>2019-12-21T09:41:44.364Z</time>
      </trkpt>
      <trkpt lat="41.29431167" lon="1.85578667">
        <ele>257.0</ele>
        <time>2019-12-21T09:41:45.369Z</time>
      </trkpt>
      <trkpt lat="41.29431" lon="1.855765">
        <ele>257.0</ele>
        <time>2019-12-21T09:41:46.364Z</time>
      </trkpt>
      <trkpt lat="41.29431" lon="1.855765">
        <ele>257.0</ele>
        <time>2019-12-21T09:41:47.362Z</time>
      </trkpt>
      <trkpt lat="41.29430833" lon="1.85572">
        <ele>257.0</ele>
        <time>2019-12-21T09:41:48.367Z</time>
      </trkpt>
      <trkpt lat="41.29430833" lon="1.85569667">
        <ele>258.0</ele>
        <time>2019-12-21T09:41:49.367Z</time>
      </trkpt>
      <trkpt lat="41.29430833" lon="1.85569667">
        <ele>258.0</ele>
        <time>2019-12-21T09:41:50.365Z</time>
      </trkpt>
      <trkpt lat="41.29430167" lon="1.85564833">
        <ele>258.0</ele>
        <time>2019-12-21T09:41:51.365Z</time>
      </trkpt>
      <trkpt lat="41.29430167" lon="1.85564833">
        <ele>258.0</ele>
        <time>2019-12-21T09:41:52.363Z</time>
      </trkpt>
      <trkpt lat="41.2943" lon="1.85560333">
        <ele>258.0</ele>
        <time>2019-12-21T09:41:53.347Z</time>
      </trkpt>
      <trkpt lat="41.2943" lon="1.85560333">
        <ele>258.0</ele>
        <time>2019-12-21T09:41:54.340Z</time>
      </trkpt>
      <trkpt lat="41.29430167" lon="1.85555667">
        <ele>258.0</ele>
        <time>2019-12-21T09:41:55.369Z</time>
      </trkpt>
      <trkpt lat="41.29430167" lon="1.85555667">
        <ele>258.0</ele>
        <time>2019-12-21T09:41:56.362Z</time>
      </trkpt>
      <trkpt lat="41.29430833" lon="1.855515">
        <ele>258.0</ele>
        <time>2019-12-21T09:41:57.344Z</time>
      </trkpt>
      <trkpt lat="41.29431333" lon="1.85549667">
        <ele>258.0</ele>
        <time>2019-12-21T09:41:58.368Z</time>
      </trkpt>
      <trkpt lat="41.29431333" lon="1.85549667">
        <ele>258.0</ele>
        <time>2019-12-21T09:41:59.366Z</time>
      </trkpt>
      <trkpt lat="41.294325" lon="1.85546">
        <ele>258.0</ele>
        <time>2019-12-21T09:42:00.368Z</time>
      </trkpt>
      <trkpt lat="41.29433167" lon="1.85544">
        <ele>258.0</ele>
        <time>2019-12-21T09:42:01.366Z</time>
      </trkpt>
      <trkpt lat="41.29433167" lon="1.85544">
        <ele>258.0</ele>
        <time>2019-12-21T09:42:02.363Z</time>
      </trkpt>
      <trkpt lat="41.29434833" lon="1.85540167">
        <ele>259.0</ele>
        <time>2019-12-21T09:42:03.347Z</time>
      </trkpt>
      <trkpt lat="41.29434833" lon="1.85540167">
        <ele>259.0</ele>
        <time>2019-12-21T09:42:04.370Z</time>
      </trkpt>
      <trkpt lat="41.29436833" lon="1.85536333">
        <ele>259.0</ele>
        <time>2019-12-21T09:42:05.369Z</time>
      </trkpt>
      <trkpt lat="41.29436833" lon="1.85536333">
        <ele>259.0</ele>
        <time>2019-12-21T09:42:06.366Z</time>
      </trkpt>
      <trkpt lat="41.29438833" lon="1.85532333">
        <ele>259.0</ele>
        <time>2019-12-21T09:42:07.367Z</time>
      </trkpt>
      <trkpt lat="41.2944" lon="1.85530167">
        <ele>259.0</ele>
        <time>2019-12-21T09:42:08.368Z</time>
      </trkpt>
      <trkpt lat="41.2944" lon="1.85530167">
        <ele>259.0</ele>
        <time>2019-12-21T09:42:09.365Z</time>
      </trkpt>
      <trkpt lat="41.29442" lon="1.85526667">
        <ele>260.0</ele>
        <time>2019-12-21T09:42:10.367Z</time>
      </trkpt>
      <trkpt lat="41.29443" lon="1.85525167">
        <ele>260.0</ele>
        <time>2019-12-21T09:42:11.368Z</time>
      </trkpt>
      <trkpt lat="41.29443" lon="1.85525167">
        <ele>260.0</ele>
        <time>2019-12-21T09:42:12.363Z</time>
      </trkpt>
      <trkpt lat="41.29444833" lon="1.85521667">
        <ele>260.0</ele>
        <time>2019-12-21T09:42:13.367Z</time>
      </trkpt>
      <trkpt lat="41.29444833" lon="1.85521667">
        <ele>260.0</ele>
        <time>2019-12-21T09:42:14.363Z</time>
      </trkpt>
      <trkpt lat="41.29446333" lon="1.85518333">
        <ele>260.0</ele>
        <time>2019-12-21T09:42:15.347Z</time>
      </trkpt>
      <trkpt lat="41.294475" lon="1.85516833">
        <ele>260.0</ele>
        <time>2019-12-21T09:42:16.370Z</time>
      </trkpt>
      <trkpt lat="41.294475" lon="1.85516833">
        <ele>260.0</ele>
        <time>2019-12-21T09:42:17.362Z</time>
      </trkpt>
      <trkpt lat="41.294495" lon="1.85513667">
        <ele>260.0</ele>
        <time>2019-12-21T09:42:18.370Z</time>
      </trkpt>
      <trkpt lat="41.294495" lon="1.85513667">
        <ele>260.0</ele>
        <time>2019-12-21T09:42:19.365Z</time>
      </trkpt>
      <trkpt lat="41.294515" lon="1.855105">
        <ele>260.0</ele>
        <time>2019-12-21T09:42:20.367Z</time>
      </trkpt>
      <trkpt lat="41.29452333" lon="1.85509167">
        <ele>261.0</ele>
        <time>2019-12-21T09:42:21.368Z</time>
      </trkpt>
      <trkpt lat="41.29453167" lon="1.85507667">
        <ele>261.0</ele>
        <time>2019-12-21T09:42:22.342Z</time>
      </trkpt>
      <trkpt lat="41.29453167" lon="1.85507667">
        <ele>261.0</ele>
        <time>2019-12-21T09:42:23.341Z</time>
      </trkpt>
      <trkpt lat="41.29455" lon="1.85504333">
        <ele>261.0</ele>
        <time>2019-12-21T09:42:24.347Z</time>
      </trkpt>
      <trkpt lat="41.29455" lon="1.85504333">
        <ele>261.0</ele>
        <time>2019-12-21T09:42:25.365Z</time>
      </trkpt>
      <trkpt lat="41.294565" lon="1.85501167">
        <ele>261.0</ele>
        <time>2019-12-21T09:42:26.367Z</time>
      </trkpt>
      <trkpt lat="41.294565" lon="1.85501167">
        <ele>261.0</ele>
        <time>2019-12-21T09:42:27.364Z</time>
      </trkpt>
      <trkpt lat="41.294575" lon="1.85498">
        <ele>262.0</ele>
        <time>2019-12-21T09:42:28.343Z</time>
      </trkpt>
      <trkpt lat="41.294575" lon="1.85498">
        <ele>262.0</ele>
        <time>2019-12-21T09:42:29.367Z</time>
      </trkpt>
      <trkpt lat="41.29458333" lon="1.85493833">
        <ele>262.0</ele>
        <time>2019-12-21T09:42:30.368Z</time>
      </trkpt>
      <trkpt lat="41.29458333" lon="1.85493833">
        <ele>262.0</ele>
        <time>2019-12-21T09:42:31.364Z</time>
      </trkpt>
      <trkpt lat="41.29458333" lon="1.854895">
        <ele>263.0</ele>
        <time>2019-12-21T09:42:32.369Z</time>
      </trkpt>
      <trkpt lat="41.29458333" lon="1.854875">
        <ele>263.0</ele>
        <time>2019-12-21T09:42:33.333Z</time>
      </trkpt>
      <trkpt lat="41.29458333" lon="1.854875">
        <ele>263.0</ele>
        <time>2019-12-21T09:42:34.363Z</time>
      </trkpt>
      <trkpt lat="41.29458333" lon="1.85482833">
        <ele>263.0</ele>
        <time>2019-12-21T09:42:35.368Z</time>
      </trkpt>
      <trkpt lat="41.29458167" lon="1.85480667">
        <ele>263.0</ele>
        <time>2019-12-21T09:42:36.368Z</time>
      </trkpt>
      <trkpt lat="41.29458167" lon="1.85480667">
        <ele>263.0</ele>
        <time>2019-12-21T09:42:37.362Z</time>
      </trkpt>
      <trkpt lat="41.29457167" lon="1.85476">
        <ele>263.0</ele>
        <time>2019-12-21T09:42:38.347Z</time>
      </trkpt>
      <trkpt lat="41.29456667" lon="1.85473833">
        <ele>263.0</ele>
        <time>2019-12-21T09:42:39.371Z</time>
      </trkpt>
      <trkpt lat="41.29456667" lon="1.85473833">
        <ele>263.0</ele>
        <time>2019-12-21T09:42:40.363Z</time>
      </trkpt>
      <trkpt lat="41.29456333" lon="1.85469167">
        <ele>264.0</ele>
        <time>2019-12-21T09:42:41.346Z</time>
      </trkpt>
      <trkpt lat="41.29456" lon="1.85466833">
        <ele>264.0</ele>
        <time>2019-12-21T09:42:42.369Z</time>
      </trkpt>
      <trkpt lat="41.29456" lon="1.85466833">
        <ele>264.0</ele>
        <time>2019-12-21T09:42:43.366Z</time>
      </trkpt>
      <trkpt lat="41.29454833" lon="1.85462833">
        <ele>265.0</ele>
        <time>2019-12-21T09:42:44.367Z</time>
      </trkpt>
      <trkpt lat="41.29454167" lon="1.85460833">
        <ele>265.0</ele>
        <time>2019-12-21T09:42:45.370Z</time>
      </trkpt>
      <trkpt lat="41.29454167" lon="1.85460833">
        <ele>265.0</ele>
        <time>2019-12-21T09:42:46.363Z</time>
      </trkpt>
      <trkpt lat="41.29453" lon="1.85457833">
        <ele>266.0</ele>
        <time>2019-12-21T09:42:47.368Z</time>
      </trkpt>
      <trkpt lat="41.29453" lon="1.85457833">
        <ele>266.0</ele>
        <time>2019-12-21T09:42:48.363Z</time>
      </trkpt>
      <trkpt lat="41.29452167" lon="1.85455">
        <ele>266.0</ele>
        <time>2019-12-21T09:42:49.368Z</time>
      </trkpt>
      <trkpt lat="41.294515" lon="1.854535">
        <ele>266.0</ele>
        <time>2019-12-21T09:42:50.368Z</time>
      </trkpt>
      <trkpt lat="41.294515" lon="1.854535">
        <ele>266.0</ele>
        <time>2019-12-21T09:42:51.365Z</time>
      </trkpt>
      <trkpt lat="41.29450667" lon="1.85449833">
        <ele>267.0</ele>
        <time>2019-12-21T09:42:52.368Z</time>
      </trkpt>
      <trkpt lat="41.29450667" lon="1.85449833">
        <ele>267.0</ele>
        <time>2019-12-21T09:42:53.363Z</time>
      </trkpt>
      <trkpt lat="41.29449333" lon="1.85447">
        <ele>267.0</ele>
        <time>2019-12-21T09:42:54.367Z</time>
      </trkpt>
      <trkpt lat="41.29449333" lon="1.85447">
        <ele>267.0</ele>
        <time>2019-12-21T09:42:55.333Z</time>
      </trkpt>
      <trkpt lat="41.29446833" lon="1.85444167">
        <ele>267.0</ele>
        <time>2019-12-21T09:42:56.368Z</time>
      </trkpt>
      <trkpt lat="41.29445167" lon="1.85442667">
        <ele>267.0</ele>
        <time>2019-12-21T09:42:57.370Z</time>
      </trkpt>
      <trkpt lat="41.29445167" lon="1.85442667">
        <ele>267.0</ele>
        <time>2019-12-21T09:42:58.359Z</time>
      </trkpt>
      <trkpt lat="41.29442333" lon="1.85438167">
        <ele>267.0</ele>
        <time>2019-12-21T09:42:59.341Z</time>
      </trkpt>
      <trkpt lat="41.29442333" lon="1.85438167">
        <ele>267.0</ele>
        <time>2019-12-21T09:43:00.365Z</time>
      </trkpt>
      <trkpt lat="41.29438333" lon="1.85431833">
        <ele>267.0</ele>
        <time>2019-12-21T09:43:01.368Z</time>
      </trkpt>
      <trkpt lat="41.29438333" lon="1.85431833">
        <ele>267.0</ele>
        <time>2019-12-21T09:43:02.363Z</time>
      </trkpt>
      <trkpt lat="41.294335" lon="1.85423667">
        <ele>267.0</ele>
        <time>2019-12-21T09:43:03.345Z</time>
      </trkpt>
      <trkpt lat="41.294335" lon="1.85423667">
        <ele>267.0</ele>
        <time>2019-12-21T09:43:04.368Z</time>
      </trkpt>
      <trkpt lat="41.294285" lon="1.85414333">
        <ele>266.0</ele>
        <time>2019-12-21T09:43:05.368Z</time>
      </trkpt>
      <trkpt lat="41.294285" lon="1.85414333">
        <ele>266.0</ele>
        <time>2019-12-21T09:43:06.365Z</time>
      </trkpt>
      <trkpt lat="41.29424" lon="1.85405">
        <ele>266.0</ele>
        <time>2019-12-21T09:43:07.367Z</time>
      </trkpt>
      <trkpt lat="41.29424" lon="1.85405">
        <ele>266.0</ele>
        <time>2019-12-21T09:43:08.362Z</time>
      </trkpt>
      <trkpt lat="41.29419667" lon="1.85395167">
        <ele>265.0</ele>
        <time>2019-12-21T09:43:09.344Z</time>
      </trkpt>
      <trkpt lat="41.29419667" lon="1.85395167">
        <ele>265.0</ele>
        <time>2019-12-21T09:43:10.366Z</time>
      </trkpt>
      <trkpt lat="41.29416167" lon="1.85385333">
        <ele>265.0</ele>
        <time>2019-12-21T09:43:11.367Z</time>
      </trkpt>
      <trkpt lat="41.29416167" lon="1.85385333">
        <ele>265.0</ele>
        <time>2019-12-21T09:43:12.362Z</time>
      </trkpt>
      <trkpt lat="41.29413333" lon="1.85375167">
        <ele>264.0</ele>
        <time>2019-12-21T09:43:13.367Z</time>
      </trkpt>
      <trkpt lat="41.29413333" lon="1.85375167">
        <ele>264.0</ele>
        <time>2019-12-21T09:43:14.361Z</time>
      </trkpt>
      <trkpt lat="41.29410167" lon="1.85364">
        <ele>263.0</ele>
        <time>2019-12-21T09:43:15.343Z</time>
      </trkpt>
      <trkpt lat="41.29408333" lon="1.85358">
        <ele>263.0</ele>
        <time>2019-12-21T09:43:16.367Z</time>
      </trkpt>
      <trkpt lat="41.29408333" lon="1.85358">
        <ele>263.0</ele>
        <time>2019-12-21T09:43:17.364Z</time>
      </trkpt>
      <trkpt lat="41.29403833" lon="1.85345833">
        <ele>262.0</ele>
        <time>2019-12-21T09:43:18.367Z</time>
      </trkpt>
      <trkpt lat="41.29403833" lon="1.85345833">
        <ele>262.0</ele>
        <time>2019-12-21T09:43:19.364Z</time>
      </trkpt>
      <trkpt lat="41.29399" lon="1.85332833">
        <ele>262.0</ele>
        <time>2019-12-21T09:43:20.367Z</time>
      </trkpt>
      <trkpt lat="41.29399" lon="1.85332833">
        <ele>262.0</ele>
        <time>2019-12-21T09:43:21.364Z</time>
      </trkpt>
      <trkpt lat="41.293935" lon="1.85319333">
        <ele>261.0</ele>
        <time>2019-12-21T09:43:22.341Z</time>
      </trkpt>
      <trkpt lat="41.293935" lon="1.85319333">
        <ele>261.0</ele>
        <time>2019-12-21T09:43:23.366Z</time>
      </trkpt>
      <trkpt lat="41.293885" lon="1.85306">
        <ele>260.0</ele>
        <time>2019-12-21T09:43:24.366Z</time>
      </trkpt>
      <trkpt lat="41.29385833" lon="1.85299667">
        <ele>260.0</ele>
        <time>2019-12-21T09:43:25.367Z</time>
      </trkpt>
      <trkpt lat="41.29385833" lon="1.85299667">
        <ele>260.0</ele>
        <time>2019-12-21T09:43:26.364Z</time>
      </trkpt>
      <trkpt lat="41.29380333" lon="1.852895">
        <ele>260.0</ele>
        <time>2019-12-21T09:43:27.369Z</time>
      </trkpt>
      <trkpt lat="41.29380333" lon="1.852895">
        <ele>260.0</ele>
        <time>2019-12-21T09:43:28.361Z</time>
      </trkpt>
      <trkpt lat="41.29375667" lon="1.85282167">
        <ele>259.0</ele>
        <time>2019-12-21T09:43:29.352Z</time>
      </trkpt>
      <trkpt lat="41.29373833" lon="1.85279667">
        <ele>259.0</ele>
        <time>2019-12-21T09:43:30.334Z</time>
      </trkpt>
      <trkpt lat="41.29372" lon="1.85277167">
        <ele>258.0</ele>
        <time>2019-12-21T09:43:31.368Z</time>
      </trkpt>
      <trkpt lat="41.29372" lon="1.85277167">
        <ele>258.0</ele>
        <time>2019-12-21T09:43:32.366Z</time>
      </trkpt>
      <trkpt lat="41.29368667" lon="1.85274333">
        <ele>258.0</ele>
        <time>2019-12-21T09:43:33.348Z</time>
      </trkpt>
      <trkpt lat="41.29367" lon="1.85273167">
        <ele>258.0</ele>
        <time>2019-12-21T09:43:34.335Z</time>
      </trkpt>
      <trkpt lat="41.29367" lon="1.85273167">
        <ele>258.0</ele>
        <time>2019-12-21T09:43:35.362Z</time>
      </trkpt>
      <trkpt lat="41.29363833" lon="1.85270167">
        <ele>257.0</ele>
        <time>2019-12-21T09:43:36.367Z</time>
      </trkpt>
      <trkpt lat="41.29363833" lon="1.85270167">
        <ele>257.0</ele>
        <time>2019-12-21T09:43:37.365Z</time>
      </trkpt>
      <trkpt lat="41.29360167" lon="1.85268">
        <ele>257.0</ele>
        <time>2019-12-21T09:43:38.339Z</time>
      </trkpt>
      <trkpt lat="41.29360167" lon="1.85268">
        <ele>257.0</ele>
        <time>2019-12-21T09:43:39.363Z</time>
      </trkpt>
      <trkpt lat="41.29357167" lon="1.85265833">
        <ele>257.0</ele>
        <time>2019-12-21T09:43:40.367Z</time>
      </trkpt>
      <trkpt lat="41.29357167" lon="1.85265833">
        <ele>257.0</ele>
        <time>2019-12-21T09:43:41.365Z</time>
      </trkpt>
      <trkpt lat="41.293535" lon="1.85264">
        <ele>256.0</ele>
        <time>2019-12-21T09:43:42.367Z</time>
      </trkpt>
      <trkpt lat="41.29351667" lon="1.85262833">
        <ele>256.0</ele>
        <time>2019-12-21T09:43:43.365Z</time>
      </trkpt>
      <trkpt lat="41.29349833" lon="1.85262167">
        <ele>256.0</ele>
        <time>2019-12-21T09:43:44.367Z</time>
      </trkpt>
      <trkpt lat="41.29349833" lon="1.85262167">
        <ele>256.0</ele>
        <time>2019-12-21T09:43:45.363Z</time>
      </trkpt>
      <trkpt lat="41.29346167" lon="1.85261333">
        <ele>256.0</ele>
        <time>2019-12-21T09:43:46.367Z</time>
      </trkpt>
      <trkpt lat="41.29346167" lon="1.85261333">
        <ele>256.0</ele>
        <time>2019-12-21T09:43:47.363Z</time>
      </trkpt>
      <trkpt lat="41.29343" lon="1.85260167">
        <ele>256.0</ele>
        <time>2019-12-21T09:43:48.367Z</time>
      </trkpt>
      <trkpt lat="41.29343" lon="1.85260167">
        <ele>256.0</ele>
        <time>2019-12-21T09:43:49.364Z</time>
      </trkpt>
      <trkpt lat="41.29339167" lon="1.85259333">
        <ele>256.0</ele>
        <time>2019-12-21T09:43:50.367Z</time>
      </trkpt>
      <trkpt lat="41.29337333" lon="1.85258333">
        <ele>256.0</ele>
        <time>2019-12-21T09:43:51.369Z</time>
      </trkpt>
      <trkpt lat="41.29337333" lon="1.85258333">
        <ele>256.0</ele>
        <time>2019-12-21T09:43:52.365Z</time>
      </trkpt>
      <trkpt lat="41.29334833" lon="1.85257167">
        <ele>257.0</ele>
        <time>2019-12-21T09:43:53.367Z</time>
      </trkpt>
      <trkpt lat="41.29334833" lon="1.85257167">
        <ele>257.0</ele>
        <time>2019-12-21T09:43:54.364Z</time>
      </trkpt>
      <trkpt lat="41.29331667" lon="1.85256667">
        <ele>257.0</ele>
        <time>2019-12-21T09:43:55.367Z</time>
      </trkpt>
      <trkpt lat="41.29331667" lon="1.85256667">
        <ele>257.0</ele>
        <time>2019-12-21T09:43:56.365Z</time>
      </trkpt>
      <trkpt lat="41.293285" lon="1.85256833">
        <ele>257.0</ele>
        <time>2019-12-21T09:43:57.369Z</time>
      </trkpt>
      <trkpt lat="41.29326667" lon="1.85257">
        <ele>257.0</ele>
        <time>2019-12-21T09:43:58.365Z</time>
      </trkpt>
      <trkpt lat="41.29326667" lon="1.85257">
        <ele>257.0</ele>
        <time>2019-12-21T09:43:59.363Z</time>
      </trkpt>
      <trkpt lat="41.29323667" lon="1.852575">
        <ele>257.0</ele>
        <time>2019-12-21T09:44:00.366Z</time>
      </trkpt>
      <trkpt lat="41.29323667" lon="1.852575">
        <ele>257.0</ele>
        <time>2019-12-21T09:44:01.365Z</time>
      </trkpt>
      <trkpt lat="41.29321" lon="1.85258">
        <ele>257.0</ele>
        <time>2019-12-21T09:44:02.364Z</time>
      </trkpt>
      <trkpt lat="41.29319667" lon="1.85258333">
        <ele>258.0</ele>
        <time>2019-12-21T09:44:03.350Z</time>
      </trkpt>
      <trkpt lat="41.29318" lon="1.85258667">
        <ele>258.0</ele>
        <time>2019-12-21T09:44:04.336Z</time>
      </trkpt>
      <trkpt lat="41.29318" lon="1.85258667">
        <ele>258.0</ele>
        <time>2019-12-21T09:44:05.365Z</time>
      </trkpt>
      <trkpt lat="41.293145" lon="1.85259167">
        <ele>258.0</ele>
        <time>2019-12-21T09:44:06.367Z</time>
      </trkpt>
      <trkpt lat="41.293145" lon="1.85259167">
        <ele>258.0</ele>
        <time>2019-12-21T09:44:07.365Z</time>
      </trkpt>
      <trkpt lat="41.29310833" lon="1.85260167">
        <ele>258.0</ele>
        <time>2019-12-21T09:44:08.367Z</time>
      </trkpt>
      <trkpt lat="41.29309167" lon="1.852605">
        <ele>258.0</ele>
        <time>2019-12-21T09:44:09.369Z</time>
      </trkpt>
      <trkpt lat="41.29309167" lon="1.852605">
        <ele>258.0</ele>
        <time>2019-12-21T09:44:10.365Z</time>
      </trkpt>
      <trkpt lat="41.29306" lon="1.85260833">
        <ele>259.0</ele>
        <time>2019-12-21T09:44:11.368Z</time>
      </trkpt>
      <trkpt lat="41.29306" lon="1.85260833">
        <ele>259.0</ele>
        <time>2019-12-21T09:44:12.362Z</time>
      </trkpt>
      <trkpt lat="41.293025" lon="1.852605">
        <ele>260.0</ele>
        <time>2019-12-21T09:44:13.367Z</time>
      </trkpt>
      <trkpt lat="41.29300833" lon="1.852605">
        <ele>260.0</ele>
        <time>2019-12-21T09:44:14.367Z</time>
      </trkpt>
      <trkpt lat="41.29300833" lon="1.852605">
        <ele>260.0</ele>
        <time>2019-12-21T09:44:15.364Z</time>
      </trkpt>
      <trkpt lat="41.29297667" lon="1.852605">
        <ele>260.0</ele>
        <time>2019-12-21T09:44:16.348Z</time>
      </trkpt>
      <trkpt lat="41.29297667" lon="1.852605">
        <ele>260.0</ele>
        <time>2019-12-21T09:44:17.370Z</time>
      </trkpt>
      <trkpt lat="41.29294167" lon="1.852605">
        <ele>260.0</ele>
        <time>2019-12-21T09:44:18.367Z</time>
      </trkpt>
      <trkpt lat="41.29294167" lon="1.852605">
        <ele>260.0</ele>
        <time>2019-12-21T09:44:19.365Z</time>
      </trkpt>
      <trkpt lat="41.29290667" lon="1.852605">
        <ele>260.0</ele>
        <time>2019-12-21T09:44:20.367Z</time>
      </trkpt>
      <trkpt lat="41.29290667" lon="1.852605">
        <ele>260.0</ele>
        <time>2019-12-21T09:44:21.336Z</time>
      </trkpt>
      <trkpt lat="41.292875" lon="1.85261167">
        <ele>260.0</ele>
        <time>2019-12-21T09:44:22.365Z</time>
      </trkpt>
      <trkpt lat="41.29286" lon="1.85261167">
        <ele>260.0</ele>
        <time>2019-12-21T09:44:23.347Z</time>
      </trkpt>
      <trkpt lat="41.29286" lon="1.85261167">
        <ele>260.0</ele>
        <time>2019-12-21T09:44:24.369Z</time>
      </trkpt>
      <trkpt lat="41.29282833" lon="1.85261167">
        <ele>261.0</ele>
        <time>2019-12-21T09:44:25.367Z</time>
      </trkpt>
      <trkpt lat="41.29282833" lon="1.85261167">
        <ele>261.0</ele>
        <time>2019-12-21T09:44:26.362Z</time>
      </trkpt>
      <trkpt lat="41.292795" lon="1.85261167">
        <ele>261.0</ele>
        <time>2019-12-21T09:44:27.346Z</time>
      </trkpt>
      <trkpt lat="41.292795" lon="1.85261167">
        <ele>261.0</ele>
        <time>2019-12-21T09:44:28.338Z</time>
      </trkpt>
      <trkpt lat="41.29276667" lon="1.85261">
        <ele>261.0</ele>
        <time>2019-12-21T09:44:29.368Z</time>
      </trkpt>
      <trkpt lat="41.29275333" lon="1.85260667">
        <ele>261.0</ele>
        <time>2019-12-21T09:44:30.365Z</time>
      </trkpt>
      <trkpt lat="41.29275333" lon="1.85260667">
        <ele>261.0</ele>
        <time>2019-12-21T09:44:31.363Z</time>
      </trkpt>
      <trkpt lat="41.29272667" lon="1.852605">
        <ele>262.0</ele>
        <time>2019-12-21T09:44:32.345Z</time>
      </trkpt>
      <trkpt lat="41.292715" lon="1.85260167">
        <ele>262.0</ele>
        <time>2019-12-21T09:44:33.369Z</time>
      </trkpt>
      <trkpt lat="41.292715" lon="1.85260167">
        <ele>262.0</ele>
        <time>2019-12-21T09:44:34.371Z</time>
      </trkpt>
      <trkpt lat="41.29268667" lon="1.85259833">
        <ele>262.0</ele>
        <time>2019-12-21T09:44:35.369Z</time>
      </trkpt>
      <trkpt lat="41.29268667" lon="1.85259833">
        <ele>262.0</ele>
        <time>2019-12-21T09:44:36.363Z</time>
      </trkpt>
      <trkpt lat="41.292655" lon="1.85259833">
        <ele>263.0</ele>
        <time>2019-12-21T09:44:37.369Z</time>
      </trkpt>
      <trkpt lat="41.292655" lon="1.85259833">
        <ele>263.0</ele>
        <time>2019-12-21T09:44:38.365Z</time>
      </trkpt>
      <trkpt lat="41.29262167" lon="1.85259667">
        <ele>263.0</ele>
        <time>2019-12-21T09:44:39.369Z</time>
      </trkpt>
      <trkpt lat="41.292605" lon="1.852595">
        <ele>263.0</ele>
        <time>2019-12-21T09:44:40.366Z</time>
      </trkpt>
      <trkpt lat="41.292605" lon="1.852595">
        <ele>263.0</ele>
        <time>2019-12-21T09:44:41.363Z</time>
      </trkpt>
      <trkpt lat="41.29257167" lon="1.85259833">
        <ele>263.0</ele>
        <time>2019-12-21T09:44:42.368Z</time>
      </trkpt>
      <trkpt lat="41.29257167" lon="1.85259833">
        <ele>263.0</ele>
        <time>2019-12-21T09:44:43.363Z</time>
      </trkpt>
      <trkpt lat="41.29254333" lon="1.85259167">
        <ele>263.0</ele>
        <time>2019-12-21T09:44:44.368Z</time>
      </trkpt>
      <trkpt lat="41.29254333" lon="1.85259167">
        <ele>263.0</ele>
        <time>2019-12-21T09:44:45.365Z</time>
      </trkpt>
      <trkpt lat="41.29250833" lon="1.85258833">
        <ele>264.0</ele>
        <time>2019-12-21T09:44:46.367Z</time>
      </trkpt>
      <trkpt lat="41.29249" lon="1.852585">
        <ele>264.0</ele>
        <time>2019-12-21T09:44:47.367Z</time>
      </trkpt>
      <trkpt lat="41.29247167" lon="1.852585">
        <ele>264.0</ele>
        <time>2019-12-21T09:44:48.367Z</time>
      </trkpt>
      <trkpt lat="41.29247167" lon="1.852585">
        <ele>264.0</ele>
        <time>2019-12-21T09:44:49.365Z</time>
      </trkpt>
      <trkpt lat="41.29243667" lon="1.852585">
        <ele>264.0</ele>
        <time>2019-12-21T09:44:50.369Z</time>
      </trkpt>
      <trkpt lat="41.29243667" lon="1.852585">
        <ele>264.0</ele>
        <time>2019-12-21T09:44:51.366Z</time>
      </trkpt>
      <trkpt lat="41.29240333" lon="1.85258">
        <ele>264.0</ele>
        <time>2019-12-21T09:44:52.368Z</time>
      </trkpt>
      <trkpt lat="41.29240333" lon="1.85258">
        <ele>264.0</ele>
        <time>2019-12-21T09:44:53.363Z</time>
      </trkpt>
      <trkpt lat="41.29237" lon="1.85258167">
        <ele>264.0</ele>
        <time>2019-12-21T09:44:54.369Z</time>
      </trkpt>
      <trkpt lat="41.29237" lon="1.85258167">
        <ele>264.0</ele>
        <time>2019-12-21T09:44:55.349Z</time>
      </trkpt>
      <trkpt lat="41.29233667" lon="1.852585">
        <ele>264.0</ele>
        <time>2019-12-21T09:44:56.372Z</time>
      </trkpt>
      <trkpt lat="41.29233667" lon="1.852585">
        <ele>264.0</ele>
        <time>2019-12-21T09:44:57.364Z</time>
      </trkpt>
      <trkpt lat="41.292305" lon="1.85258">
        <ele>265.0</ele>
        <time>2019-12-21T09:44:58.366Z</time>
      </trkpt>
      <trkpt lat="41.292305" lon="1.85258">
        <ele>265.0</ele>
        <time>2019-12-21T09:44:59.363Z</time>
      </trkpt>
      <trkpt lat="41.292275" lon="1.85257">
        <ele>265.0</ele>
        <time>2019-12-21T09:45:00.369Z</time>
      </trkpt>
      <trkpt lat="41.292275" lon="1.85257">
        <ele>265.0</ele>
        <time>2019-12-21T09:45:01.366Z</time>
      </trkpt>
      <trkpt lat="41.292245" lon="1.85255833">
        <ele>266.0</ele>
        <time>2019-12-21T09:45:02.369Z</time>
      </trkpt>
      <trkpt lat="41.292245" lon="1.85255833">
        <ele>266.0</ele>
        <time>2019-12-21T09:45:03.365Z</time>
      </trkpt>
      <trkpt lat="41.29221" lon="1.85254833">
        <ele>266.0</ele>
        <time>2019-12-21T09:45:04.368Z</time>
      </trkpt>
      <trkpt lat="41.29221" lon="1.85254833">
        <ele>266.0</ele>
        <time>2019-12-21T09:45:05.362Z</time>
      </trkpt>
      <trkpt lat="41.292175" lon="1.85254">
        <ele>267.0</ele>
        <time>2019-12-21T09:45:06.366Z</time>
      </trkpt>
      <trkpt lat="41.29215667" lon="1.852535">
        <ele>267.0</ele>
        <time>2019-12-21T09:45:07.366Z</time>
      </trkpt>
      <trkpt lat="41.29213667" lon="1.85253">
        <ele>267.0</ele>
        <time>2019-12-21T09:45:08.366Z</time>
      </trkpt>
      <trkpt lat="41.29213667" lon="1.85253">
        <ele>267.0</ele>
        <time>2019-12-21T09:45:09.365Z</time>
      </trkpt>
      <trkpt lat="41.29210167" lon="1.85251">
        <ele>267.0</ele>
        <time>2019-12-21T09:45:10.368Z</time>
      </trkpt>
      <trkpt lat="41.29210167" lon="1.85251">
        <ele>267.0</ele>
        <time>2019-12-21T09:45:11.363Z</time>
      </trkpt>
      <trkpt lat="41.29206667" lon="1.85248833">
        <ele>268.0</ele>
        <time>2019-12-21T09:45:12.347Z</time>
      </trkpt>
      <trkpt lat="41.29206667" lon="1.85248833">
        <ele>268.0</ele>
        <time>2019-12-21T09:45:13.334Z</time>
      </trkpt>
      <trkpt lat="41.29203167" lon="1.852465">
        <ele>268.0</ele>
        <time>2019-12-21T09:45:14.369Z</time>
      </trkpt>
      <trkpt lat="41.29203167" lon="1.852465">
        <ele>268.0</ele>
        <time>2019-12-21T09:45:15.364Z</time>
      </trkpt>
      <trkpt lat="41.292" lon="1.85243833">
        <ele>269.0</ele>
        <time>2019-12-21T09:45:16.368Z</time>
      </trkpt>
      <trkpt lat="41.292" lon="1.85243833">
        <ele>269.0</ele>
        <time>2019-12-21T09:45:17.363Z</time>
      </trkpt>
      <trkpt lat="41.29196667" lon="1.85241833">
        <ele>269.0</ele>
        <time>2019-12-21T09:45:18.347Z</time>
      </trkpt>
      <trkpt lat="41.29196667" lon="1.85241833">
        <ele>269.0</ele>
        <time>2019-12-21T09:45:19.339Z</time>
      </trkpt>
      <trkpt lat="41.29193333" lon="1.85239833">
        <ele>269.0</ele>
        <time>2019-12-21T09:45:20.368Z</time>
      </trkpt>
      <trkpt lat="41.29193333" lon="1.85239833">
        <ele>269.0</ele>
        <time>2019-12-21T09:45:21.365Z</time>
      </trkpt>
      <trkpt lat="41.291895" lon="1.85237">
        <ele>270.0</ele>
        <time>2019-12-21T09:45:22.347Z</time>
      </trkpt>
      <trkpt lat="41.291895" lon="1.85237">
        <ele>270.0</ele>
        <time>2019-12-21T09:45:23.370Z</time>
      </trkpt>
      <trkpt lat="41.291855" lon="1.85234333">
        <ele>270.0</ele>
        <time>2019-12-21T09:45:24.367Z</time>
      </trkpt>
      <trkpt lat="41.29183833" lon="1.85233167">
        <ele>270.0</ele>
        <time>2019-12-21T09:45:25.368Z</time>
      </trkpt>
      <trkpt lat="41.29183833" lon="1.85233167">
        <ele>270.0</ele>
        <time>2019-12-21T09:45:26.363Z</time>
      </trkpt>
      <trkpt lat="41.2918" lon="1.85231333">
        <ele>270.0</ele>
        <time>2019-12-21T09:45:27.345Z</time>
      </trkpt>
      <trkpt lat="41.2918" lon="1.85231333">
        <ele>270.0</ele>
        <time>2019-12-21T09:45:28.338Z</time>
      </trkpt>
      <trkpt lat="41.29176333" lon="1.85230167">
        <ele>271.0</ele>
        <time>2019-12-21T09:45:29.368Z</time>
      </trkpt>
      <trkpt lat="41.29174667" lon="1.852295">
        <ele>271.0</ele>
        <time>2019-12-21T09:45:30.368Z</time>
      </trkpt>
      <trkpt lat="41.29174667" lon="1.852295">
        <ele>271.0</ele>
        <time>2019-12-21T09:45:31.362Z</time>
      </trkpt>
      <trkpt lat="41.29171333" lon="1.852265">
        <ele>271.0</ele>
        <time>2019-12-21T09:45:32.347Z</time>
      </trkpt>
      <trkpt lat="41.291695" lon="1.85225">
        <ele>271.0</ele>
        <time>2019-12-21T09:45:33.371Z</time>
      </trkpt>
      <trkpt lat="41.291695" lon="1.85225">
        <ele>271.0</ele>
        <time>2019-12-21T09:45:34.363Z</time>
      </trkpt>
      <trkpt lat="41.291655" lon="1.85222167">
        <ele>271.0</ele>
        <time>2019-12-21T09:45:35.368Z</time>
      </trkpt>
      <trkpt lat="41.291655" lon="1.85222167">
        <ele>271.0</ele>
        <time>2019-12-21T09:45:36.363Z</time>
      </trkpt>
      <trkpt lat="41.29161333" lon="1.852175">
        <ele>271.0</ele>
        <time>2019-12-21T09:45:37.367Z</time>
      </trkpt>
      <trkpt lat="41.29161333" lon="1.852175">
        <ele>271.0</ele>
        <time>2019-12-21T09:45:38.359Z</time>
      </trkpt>
      <trkpt lat="41.29157" lon="1.85213333">
        <ele>271.0</ele>
        <time>2019-12-21T09:45:39.341Z</time>
      </trkpt>
      <trkpt lat="41.29157" lon="1.85213333">
        <ele>271.0</ele>
        <time>2019-12-21T09:45:40.365Z</time>
      </trkpt>
      <trkpt lat="41.29152167" lon="1.85209667">
        <ele>271.0</ele>
        <time>2019-12-21T09:45:41.368Z</time>
      </trkpt>
      <trkpt lat="41.29152167" lon="1.85209667">
        <ele>271.0</ele>
        <time>2019-12-21T09:45:42.364Z</time>
      </trkpt>
      <trkpt lat="41.291475" lon="1.85208667">
        <ele>272.0</ele>
        <time>2019-12-21T09:45:43.347Z</time>
      </trkpt>
      <trkpt lat="41.29145167" lon="1.85210667">
        <ele>272.0</ele>
        <time>2019-12-21T09:45:44.369Z</time>
      </trkpt>
      <trkpt lat="41.29142333" lon="1.85214167">
        <ele>272.0</ele>
        <time>2019-12-21T09:45:45.367Z</time>
      </trkpt>
      <trkpt lat="41.29142333" lon="1.85214167">
        <ele>272.0</ele>
        <time>2019-12-21T09:45:46.362Z</time>
      </trkpt>
      <trkpt lat="41.29135" lon="1.85223167">
        <ele>272.0</ele>
        <time>2019-12-21T09:45:47.343Z</time>
      </trkpt>
      <trkpt lat="41.29135" lon="1.85223167">
        <ele>272.0</ele>
        <time>2019-12-21T09:45:48.366Z</time>
      </trkpt>
      <trkpt lat="41.29126667" lon="1.85230667">
        <ele>273.0</ele>
        <time>2019-12-21T09:45:49.339Z</time>
      </trkpt>
      <trkpt lat="41.29126667" lon="1.85230667">
        <ele>273.0</ele>
        <time>2019-12-21T09:45:50.362Z</time>
      </trkpt>
      <trkpt lat="41.29117333" lon="1.852335">
        <ele>273.0</ele>
        <time>2019-12-21T09:45:51.371Z</time>
      </trkpt>
      <trkpt lat="41.29117333" lon="1.852335">
        <ele>273.0</ele>
        <time>2019-12-21T09:45:52.363Z</time>
      </trkpt>
      <trkpt lat="41.29109333" lon="1.85238">
        <ele>273.0</ele>
        <time>2019-12-21T09:45:53.348Z</time>
      </trkpt>
      <trkpt lat="41.29109333" lon="1.85238">
        <ele>273.0</ele>
        <time>2019-12-21T09:45:54.370Z</time>
      </trkpt>
      <trkpt lat="41.29105" lon="1.85247833">
        <ele>274.0</ele>
        <time>2019-12-21T09:45:55.369Z</time>
      </trkpt>
      <trkpt lat="41.29105" lon="1.85252333">
        <ele>274.0</ele>
        <time>2019-12-21T09:45:56.368Z</time>
      </trkpt>
      <trkpt lat="41.29105" lon="1.85252333">
        <ele>274.0</ele>
        <time>2019-12-21T09:45:57.365Z</time>
      </trkpt>
      <trkpt lat="41.29107833" lon="1.85257667">
        <ele>273.0</ele>
        <time>2019-12-21T09:45:58.368Z</time>
      </trkpt>
      <trkpt lat="41.29107833" lon="1.85257667">
        <ele>273.0</ele>
        <time>2019-12-21T09:45:59.363Z</time>
      </trkpt>
      <trkpt lat="41.29111333" lon="1.85261333">
        <ele>273.0</ele>
        <time>2019-12-21T09:46:00.368Z</time>
      </trkpt>
      <trkpt lat="41.29111333" lon="1.85261333">
        <ele>273.0</ele>
        <time>2019-12-21T09:46:01.363Z</time>
      </trkpt>
      <trkpt lat="41.29114667" lon="1.85264667">
        <ele>274.0</ele>
        <time>2019-12-21T09:46:02.367Z</time>
      </trkpt>
      <trkpt lat="41.29116167" lon="1.85266667">
        <ele>274.0</ele>
        <time>2019-12-21T09:46:03.350Z</time>
      </trkpt>
      <trkpt lat="41.29116167" lon="1.85266667">
        <ele>274.0</ele>
        <time>2019-12-21T09:46:04.334Z</time>
      </trkpt>
      <trkpt lat="41.291195" lon="1.852705">
        <ele>273.0</ele>
        <time>2019-12-21T09:46:05.367Z</time>
      </trkpt>
      <trkpt lat="41.291195" lon="1.852705">
        <ele>273.0</ele>
        <time>2019-12-21T09:46:06.363Z</time>
      </trkpt>
      <trkpt lat="41.29122667" lon="1.85274833">
        <ele>273.0</ele>
        <time>2019-12-21T09:46:07.367Z</time>
      </trkpt>
      <trkpt lat="41.29122667" lon="1.85274833">
        <ele>273.0</ele>
        <time>2019-12-21T09:46:08.365Z</time>
      </trkpt>
      <trkpt lat="41.29125833" lon="1.85279333">
        <ele>273.0</ele>
        <time>2019-12-21T09:46:09.370Z</time>
      </trkpt>
      <trkpt lat="41.29125833" lon="1.85279333">
        <ele>273.0</ele>
        <time>2019-12-21T09:46:10.364Z</time>
      </trkpt>
      <trkpt lat="41.29129167" lon="1.852835">
        <ele>273.0</ele>
        <time>2019-12-21T09:46:11.367Z</time>
      </trkpt>
      <trkpt lat="41.29129167" lon="1.852835">
        <ele>273.0</ele>
        <time>2019-12-21T09:46:12.362Z</time>
      </trkpt>
      <trkpt lat="41.291325" lon="1.852875">
        <ele>273.0</ele>
        <time>2019-12-21T09:46:13.347Z</time>
      </trkpt>
      <trkpt lat="41.291345" lon="1.85289333">
        <ele>273.0</ele>
        <time>2019-12-21T09:46:14.370Z</time>
      </trkpt>
      <trkpt lat="41.29136167" lon="1.85291333">
        <ele>273.0</ele>
        <time>2019-12-21T09:46:15.367Z</time>
      </trkpt>
      <trkpt lat="41.29136167" lon="1.85291333">
        <ele>273.0</ele>
        <time>2019-12-21T09:46:16.363Z</time>
      </trkpt>
      <trkpt lat="41.29139167" lon="1.85295667">
        <ele>272.0</ele>
        <time>2019-12-21T09:46:17.367Z</time>
      </trkpt>
      <trkpt lat="41.29139167" lon="1.85295667">
        <ele>272.0</ele>
        <time>2019-12-21T09:46:18.363Z</time>
      </trkpt>
      <trkpt lat="41.29141667" lon="1.85300167">
        <ele>272.0</ele>
        <time>2019-12-21T09:46:19.371Z</time>
      </trkpt>
      <trkpt lat="41.29141667" lon="1.85300167">
        <ele>272.0</ele>
        <time>2019-12-21T09:46:20.363Z</time>
      </trkpt>
      <trkpt lat="41.29144833" lon="1.85304167">
        <ele>273.0</ele>
        <time>2019-12-21T09:46:21.345Z</time>
      </trkpt>
      <trkpt lat="41.29144833" lon="1.85304167">
        <ele>273.0</ele>
        <time>2019-12-21T09:46:22.368Z</time>
      </trkpt>
      <trkpt lat="41.29147667" lon="1.85308667">
        <ele>273.0</ele>
        <time>2019-12-21T09:46:23.369Z</time>
      </trkpt>
      <trkpt lat="41.291495" lon="1.85310667">
        <ele>273.0</ele>
        <time>2019-12-21T09:46:24.368Z</time>
      </trkpt>
      <trkpt lat="41.291495" lon="1.85310667">
        <ele>273.0</ele>
        <time>2019-12-21T09:46:25.362Z</time>
      </trkpt>
      <trkpt lat="41.29152333" lon="1.85311">
        <ele>273.0</ele>
        <time>2019-12-21T09:46:26.367Z</time>
      </trkpt>
      <trkpt lat="41.29153667" lon="1.853105">
        <ele>273.0</ele>
        <time>2019-12-21T09:46:27.370Z</time>
      </trkpt>
      <trkpt lat="41.29153667" lon="1.853105">
        <ele>273.0</ele>
        <time>2019-12-21T09:46:28.365Z</time>
      </trkpt>
      <trkpt lat="41.29154833" lon="1.85308167">
        <ele>273.0</ele>
        <time>2019-12-21T09:46:29.336Z</time>
      </trkpt>
      <trkpt lat="41.29154833" lon="1.85308167">
        <ele>273.0</ele>
        <time>2019-12-21T09:46:30.363Z</time>
      </trkpt>
      <trkpt lat="41.29152667" lon="1.85305833">
        <ele>273.0</ele>
        <time>2019-12-21T09:46:31.367Z</time>
      </trkpt>
      <trkpt lat="41.29152667" lon="1.85305833">
        <ele>273.0</ele>
        <time>2019-12-21T09:46:32.363Z</time>
      </trkpt>
      <trkpt lat="41.29150333" lon="1.85308">
        <ele>273.0</ele>
        <time>2019-12-21T09:46:33.344Z</time>
      </trkpt>
      <trkpt lat="41.29150333" lon="1.85308">
        <ele>273.0</ele>
        <time>2019-12-21T09:46:34.372Z</time>
      </trkpt>
      <trkpt lat="41.29151333" lon="1.85308167">
        <ele>273.0</ele>
        <time>2019-12-21T09:46:35.368Z</time>
      </trkpt>
      <trkpt lat="41.29151333" lon="1.85308167">
        <ele>273.0</ele>
        <time>2019-12-21T09:46:36.352Z</time>
      </trkpt>
      <trkpt lat="41.29155167" lon="1.85306833">
        <ele>268.0</ele>
        <time>2019-12-21T09:46:37.335Z</time>
      </trkpt>
      <trkpt lat="41.29155167" lon="1.85306833">
        <ele>268.0</ele>
        <time>2019-12-21T09:46:38.364Z</time>
      </trkpt>
      <trkpt lat="41.291575" lon="1.85307">
        <ele>268.0</ele>
        <time>2019-12-21T09:46:39.367Z</time>
      </trkpt>
      <trkpt lat="41.291575" lon="1.85307">
        <ele>268.0</ele>
        <time>2019-12-21T09:46:40.353Z</time>
      </trkpt>
      <trkpt lat="41.29160167" lon="1.85308167">
        <ele>268.0</ele>
        <time>2019-12-21T09:46:41.338Z</time>
      </trkpt>
      <trkpt lat="41.29160167" lon="1.85308167">
        <ele>268.0</ele>
        <time>2019-12-21T09:46:42.360Z</time>
      </trkpt>
      <trkpt lat="41.29161" lon="1.853085">
        <ele>267.0</ele>
        <time>2019-12-21T09:46:43.341Z</time>
      </trkpt>
      <trkpt lat="41.29161" lon="1.853085">
        <ele>267.0</ele>
        <time>2019-12-21T09:46:44.363Z</time>
      </trkpt>
      <trkpt lat="41.29161167" lon="1.85308167">
        <ele>267.0</ele>
        <time>2019-12-21T09:46:45.350Z</time>
      </trkpt>
      <trkpt lat="41.29161167" lon="1.85308167">
        <ele>267.0</ele>
        <time>2019-12-21T09:46:46.372Z</time>
      </trkpt>
      <trkpt lat="41.29161167" lon="1.85308167">
        <ele>267.0</ele>
        <time>2019-12-21T09:46:47.383Z</time>
      </trkpt>
      <trkpt lat="41.29155667" lon="1.85312667">
        <ele>266.0</ele>
        <time>2019-12-21T09:46:48.335Z</time>
      </trkpt>
      <trkpt lat="41.29155667" lon="1.85312667">
        <ele>266.0</ele>
        <time>2019-12-21T09:46:49.358Z</time>
      </trkpt>
      <trkpt lat="41.29153833" lon="1.853135">
        <ele>266.0</ele>
        <time>2019-12-21T09:46:50.335Z</time>
      </trkpt>
      <trkpt lat="41.29153833" lon="1.853135">
        <ele>266.0</ele>
        <time>2019-12-21T09:46:51.358Z</time>
      </trkpt>
      <trkpt lat="41.29150333" lon="1.85314167">
        <ele>266.0</ele>
        <time>2019-12-21T09:46:52.353Z</time>
      </trkpt>
      <trkpt lat="41.29150333" lon="1.85314167">
        <ele>266.0</ele>
        <time>2019-12-21T09:46:53.346Z</time>
      </trkpt>
      <trkpt lat="41.291465" lon="1.85310167">
        <ele>266.0</ele>
        <time>2019-12-21T09:46:54.338Z</time>
      </trkpt>
      <trkpt lat="41.291465" lon="1.85310167">
        <ele>266.0</ele>
        <time>2019-12-21T09:46:55.344Z</time>
      </trkpt>
      <trkpt lat="41.291425" lon="1.85304833">
        <ele>266.0</ele>
        <time>2019-12-21T09:46:56.349Z</time>
      </trkpt>
      <trkpt lat="41.291425" lon="1.85304833">
        <ele>266.0</ele>
        <time>2019-12-21T09:46:57.343Z</time>
      </trkpt>
      <trkpt lat="41.29138" lon="1.85299833">
        <ele>266.0</ele>
        <time>2019-12-21T09:46:58.344Z</time>
      </trkpt>
      <trkpt lat="41.29138" lon="1.85299833">
        <ele>266.0</ele>
        <time>2019-12-21T09:46:59.341Z</time>
      </trkpt>
      <trkpt lat="41.29133333" lon="1.85294">
        <ele>266.0</ele>
        <time>2019-12-21T09:47:00.351Z</time>
      </trkpt>
      <trkpt lat="41.29133333" lon="1.85294">
        <ele>266.0</ele>
        <time>2019-12-21T09:47:01.341Z</time>
      </trkpt>
      <trkpt lat="41.29128667" lon="1.85289167">
        <ele>266.0</ele>
        <time>2019-12-21T09:47:02.379Z</time>
      </trkpt>
      <trkpt lat="41.29128667" lon="1.85289167">
        <ele>266.0</ele>
        <time>2019-12-21T09:47:03.381Z</time>
      </trkpt>
      <trkpt lat="41.29123333" lon="1.85285833">
        <ele>266.0</ele>
        <time>2019-12-21T09:47:04.355Z</time>
      </trkpt>
      <trkpt lat="41.29120833" lon="1.852835">
        <ele>267.0</ele>
        <time>2019-12-21T09:47:05.379Z</time>
      </trkpt>
      <trkpt lat="41.29120833" lon="1.852835">
        <ele>267.0</ele>
        <time>2019-12-21T09:47:06.383Z</time>
      </trkpt>
      <trkpt lat="41.29116333" lon="1.85278167">
        <ele>267.0</ele>
        <time>2019-12-21T09:47:07.387Z</time>
      </trkpt>
      <trkpt lat="41.29113833" lon="1.85276">
        <ele>267.0</ele>
        <time>2019-12-21T09:47:08.361Z</time>
      </trkpt>
      <trkpt lat="41.29113833" lon="1.85276">
        <ele>267.0</ele>
        <time>2019-12-21T09:47:09.383Z</time>
      </trkpt>
      <trkpt lat="41.29109167" lon="1.852705">
        <ele>267.0</ele>
        <time>2019-12-21T09:47:10.378Z</time>
      </trkpt>
      <trkpt lat="41.29109167" lon="1.852705">
        <ele>267.0</ele>
        <time>2019-12-21T09:47:11.383Z</time>
      </trkpt>
      <trkpt lat="41.29105167" lon="1.85263">
        <ele>268.0</ele>
        <time>2019-12-21T09:47:12.378Z</time>
      </trkpt>
      <trkpt lat="41.29105167" lon="1.85263">
        <ele>268.0</ele>
        <time>2019-12-21T09:47:13.361Z</time>
      </trkpt>
      <trkpt lat="41.29102333" lon="1.852565">
        <ele>268.0</ele>
        <time>2019-12-21T09:47:14.348Z</time>
      </trkpt>
      <trkpt lat="41.29102333" lon="1.852565">
        <ele>268.0</ele>
        <time>2019-12-21T09:47:15.384Z</time>
      </trkpt>
      <trkpt lat="41.291005" lon="1.85251167">
        <ele>268.0</ele>
        <time>2019-12-21T09:47:16.357Z</time>
      </trkpt>
      <trkpt lat="41.291005" lon="1.85251167">
        <ele>268.0</ele>
        <time>2019-12-21T09:47:17.383Z</time>
      </trkpt>
      <trkpt lat="41.291" lon="1.85249333">
        <ele>268.0</ele>
        <time>2019-12-21T09:47:18.335Z</time>
      </trkpt>
      <trkpt lat="41.291" lon="1.85249333">
        <ele>268.0</ele>
        <time>2019-12-21T09:47:19.356Z</time>
      </trkpt>
      <trkpt lat="41.291005" lon="1.85249">
        <ele>268.0</ele>
        <time>2019-12-21T09:47:20.368Z</time>
      </trkpt>
      <trkpt lat="41.29096333" lon="1.85248333">
        <ele>268.0</ele>
        <time>2019-12-21T09:47:21.353Z</time>
      </trkpt>
      <trkpt lat="41.29096333" lon="1.85248333">
        <ele>268.0</ele>
        <time>2019-12-21T09:47:22.344Z</time>
      </trkpt>
      <trkpt lat="41.29091833" lon="1.85248667">
        <ele>267.0</ele>
        <time>2019-12-21T09:47:23.350Z</time>
      </trkpt>
      <trkpt lat="41.29091833" lon="1.85248667">
        <ele>267.0</ele>
        <time>2019-12-21T09:47:24.344Z</time>
      </trkpt>
      <trkpt lat="41.29086167" lon="1.85250333">
        <ele>267.0</ele>
        <time>2019-12-21T09:47:25.351Z</time>
      </trkpt>
      <trkpt lat="41.29086167" lon="1.85250333">
        <ele>267.0</ele>
        <time>2019-12-21T09:47:26.344Z</time>
      </trkpt>
      <trkpt lat="41.29082" lon="1.85252667">
        <ele>267.0</ele>
        <time>2019-12-21T09:47:27.366Z</time>
      </trkpt>
      <trkpt lat="41.2908" lon="1.85253167">
        <ele>267.0</ele>
        <time>2019-12-21T09:47:28.351Z</time>
      </trkpt>
      <trkpt lat="41.2908" lon="1.85253167">
        <ele>267.0</ele>
        <time>2019-12-21T09:47:29.345Z</time>
      </trkpt>
      <trkpt lat="41.290775" lon="1.852545">
        <ele>266.0</ele>
        <time>2019-12-21T09:47:30.350Z</time>
      </trkpt>
      <trkpt lat="41.29076" lon="1.85255833">
        <ele>266.0</ele>
        <time>2019-12-21T09:47:31.351Z</time>
      </trkpt>
      <trkpt lat="41.29076" lon="1.85255833">
        <ele>266.0</ele>
        <time>2019-12-21T09:47:32.344Z</time>
      </trkpt>
      <trkpt lat="41.29072" lon="1.85259667">
        <ele>265.0</ele>
        <time>2019-12-21T09:47:33.366Z</time>
      </trkpt>
      <trkpt lat="41.29072" lon="1.85259667">
        <ele>265.0</ele>
        <time>2019-12-21T09:47:34.348Z</time>
      </trkpt>
      <trkpt lat="41.29066833" lon="1.85263833">
        <ele>265.0</ele>
        <time>2019-12-21T09:47:35.350Z</time>
      </trkpt>
      <trkpt lat="41.29066833" lon="1.85263833">
        <ele>265.0</ele>
        <time>2019-12-21T09:47:36.344Z</time>
      </trkpt>
      <trkpt lat="41.29059833" lon="1.85267167">
        <ele>264.0</ele>
        <time>2019-12-21T09:47:37.334Z</time>
      </trkpt>
      <trkpt lat="41.29059833" lon="1.85267167">
        <ele>264.0</ele>
        <time>2019-12-21T09:47:38.368Z</time>
      </trkpt>
      <trkpt lat="41.29051167" lon="1.85271333">
        <ele>264.0</ele>
        <time>2019-12-21T09:47:39.354Z</time>
      </trkpt>
      <trkpt lat="41.29051167" lon="1.85271333">
        <ele>264.0</ele>
        <time>2019-12-21T09:47:40.353Z</time>
      </trkpt>
      <trkpt lat="41.29040833" lon="1.852765">
        <ele>263.0</ele>
        <time>2019-12-21T09:47:41.350Z</time>
      </trkpt>
      <trkpt lat="41.29040833" lon="1.852765">
        <ele>263.0</ele>
        <time>2019-12-21T09:47:42.348Z</time>
      </trkpt>
      <trkpt lat="41.29030667" lon="1.85282167">
        <ele>262.0</ele>
        <time>2019-12-21T09:47:43.352Z</time>
      </trkpt>
      <trkpt lat="41.29030667" lon="1.85282167">
        <ele>262.0</ele>
        <time>2019-12-21T09:47:44.345Z</time>
      </trkpt>
      <trkpt lat="41.29020167" lon="1.852875">
        <ele>261.0</ele>
        <time>2019-12-21T09:47:45.367Z</time>
      </trkpt>
      <trkpt lat="41.29020167" lon="1.852875">
        <ele>261.0</ele>
        <time>2019-12-21T09:47:46.350Z</time>
      </trkpt>
      <trkpt lat="41.29011167" lon="1.85291833">
        <ele>260.0</ele>
        <time>2019-12-21T09:47:47.350Z</time>
      </trkpt>
      <trkpt lat="41.29011167" lon="1.85291833">
        <ele>260.0</ele>
        <time>2019-12-21T09:47:48.344Z</time>
      </trkpt>
      <trkpt lat="41.290025" lon="1.85296">
        <ele>259.0</ele>
        <time>2019-12-21T09:47:49.349Z</time>
      </trkpt>
      <trkpt lat="41.290025" lon="1.85296">
        <ele>259.0</ele>
        <time>2019-12-21T09:47:50.344Z</time>
      </trkpt>
      <trkpt lat="41.28993" lon="1.85300667">
        <ele>259.0</ele>
        <time>2019-12-21T09:47:51.366Z</time>
      </trkpt>
      <trkpt lat="41.28993" lon="1.85300667">
        <ele>259.0</ele>
        <time>2019-12-21T09:47:52.349Z</time>
      </trkpt>
      <trkpt lat="41.28983333" lon="1.85306167">
        <ele>258.0</ele>
        <time>2019-12-21T09:47:53.350Z</time>
      </trkpt>
      <trkpt lat="41.28983333" lon="1.85306167">
        <ele>258.0</ele>
        <time>2019-12-21T09:47:54.347Z</time>
      </trkpt>
      <trkpt lat="41.289735" lon="1.85313333">
        <ele>257.0</ele>
        <time>2019-12-21T09:47:55.350Z</time>
      </trkpt>
      <trkpt lat="41.289735" lon="1.85313333">
        <ele>257.0</ele>
        <time>2019-12-21T09:47:56.345Z</time>
      </trkpt>
      <trkpt lat="41.28963" lon="1.85321833">
        <ele>255.0</ele>
        <time>2019-12-21T09:47:57.367Z</time>
      </trkpt>
      <trkpt lat="41.28963" lon="1.85321833">
        <ele>255.0</ele>
        <time>2019-12-21T09:47:58.352Z</time>
      </trkpt>
      <trkpt lat="41.28952" lon="1.85332333">
        <ele>254.0</ele>
        <time>2019-12-21T09:47:59.352Z</time>
      </trkpt>
      <trkpt lat="41.28952" lon="1.85332333">
        <ele>254.0</ele>
        <time>2019-12-21T09:48:00.348Z</time>
      </trkpt>
      <trkpt lat="41.289415" lon="1.85344167">
        <ele>253.0</ele>
        <time>2019-12-21T09:48:01.350Z</time>
      </trkpt>
      <trkpt lat="41.289415" lon="1.85344167">
        <ele>253.0</ele>
        <time>2019-12-21T09:48:02.344Z</time>
      </trkpt>
      <trkpt lat="41.28930333" lon="1.85357333">
        <ele>252.0</ele>
        <time>2019-12-21T09:48:03.366Z</time>
      </trkpt>
      <trkpt lat="41.28930333" lon="1.85357333">
        <ele>252.0</ele>
        <time>2019-12-21T09:48:04.350Z</time>
      </trkpt>
      <trkpt lat="41.28919833" lon="1.85369667">
        <ele>251.0</ele>
        <time>2019-12-21T09:48:05.351Z</time>
      </trkpt>
      <trkpt lat="41.28919833" lon="1.85369667">
        <ele>251.0</ele>
        <time>2019-12-21T09:48:06.345Z</time>
      </trkpt>
      <trkpt lat="41.28909333" lon="1.85380833">
        <ele>250.0</ele>
        <time>2019-12-21T09:48:07.362Z</time>
      </trkpt>
      <trkpt lat="41.28909333" lon="1.85380833">
        <ele>250.0</ele>
        <time>2019-12-21T09:48:08.346Z</time>
      </trkpt>
      <trkpt lat="41.28898" lon="1.85392333">
        <ele>250.0</ele>
        <time>2019-12-21T09:48:09.352Z</time>
      </trkpt>
      <trkpt lat="41.28892" lon="1.853985">
        <ele>249.0</ele>
        <time>2019-12-21T09:48:10.352Z</time>
      </trkpt>
      <trkpt lat="41.28892" lon="1.853985">
        <ele>249.0</ele>
        <time>2019-12-21T09:48:11.345Z</time>
      </trkpt>
      <trkpt lat="41.28881667" lon="1.85409167">
        <ele>248.0</ele>
        <time>2019-12-21T09:48:12.350Z</time>
      </trkpt>
      <trkpt lat="41.28881667" lon="1.85409167">
        <ele>248.0</ele>
        <time>2019-12-21T09:48:13.345Z</time>
      </trkpt>
      <trkpt lat="41.28876333" lon="1.85414167">
        <ele>248.0</ele>
        <time>2019-12-21T09:48:14.350Z</time>
      </trkpt>
      <trkpt lat="41.28874667" lon="1.85415667">
        <ele>248.0</ele>
        <time>2019-12-21T09:48:15.352Z</time>
      </trkpt>
      <trkpt lat="41.28874667" lon="1.85415667">
        <ele>248.0</ele>
        <time>2019-12-21T09:48:16.345Z</time>
      </trkpt>
      <trkpt lat="41.28873667" lon="1.85416833">
        <ele>248.0</ele>
        <time>2019-12-21T09:48:17.352Z</time>
      </trkpt>
      <trkpt lat="41.28873667" lon="1.85416833">
        <ele>248.0</ele>
        <time>2019-12-21T09:48:18.345Z</time>
      </trkpt>
      <trkpt lat="41.28873833" lon="1.85416833">
        <ele>248.0</ele>
        <time>2019-12-21T09:48:19.352Z</time>
      </trkpt>
      <trkpt lat="41.28873833" lon="1.85416833">
        <ele>248.0</ele>
        <time>2019-12-21T09:48:20.368Z</time>
      </trkpt>
      <trkpt lat="41.28870833" lon="1.854235">
        <ele>246.0</ele>
        <time>2019-12-21T09:48:21.357Z</time>
      </trkpt>
      <trkpt lat="41.28870833" lon="1.854235">
        <ele>246.0</ele>
        <time>2019-12-21T09:48:22.350Z</time>
      </trkpt>
      <trkpt lat="41.28866667" lon="1.85428667">
        <ele>246.0</ele>
        <time>2019-12-21T09:48:23.369Z</time>
      </trkpt>
      <trkpt lat="41.28866667" lon="1.85428667">
        <ele>246.0</ele>
        <time>2019-12-21T09:48:24.354Z</time>
      </trkpt>
      <trkpt lat="41.28861167" lon="1.85436333">
        <ele>245.0</ele>
        <time>2019-12-21T09:48:25.366Z</time>
      </trkpt>
      <trkpt lat="41.28861167" lon="1.85436333">
        <ele>245.0</ele>
        <time>2019-12-21T09:48:26.348Z</time>
      </trkpt>
      <trkpt lat="41.28861167" lon="1.85436333">
        <ele>245.0</ele>
        <time>2019-12-21T09:48:27.333Z</time>
      </trkpt>
      <trkpt lat="41.28854167" lon="1.854445">
        <ele>245.0</ele>
        <time>2019-12-21T09:48:28.368Z</time>
      </trkpt>
      <trkpt lat="41.28854167" lon="1.854445">
        <ele>245.0</ele>
        <time>2019-12-21T09:48:29.353Z</time>
      </trkpt>
      <trkpt lat="41.28846667" lon="1.85454">
        <ele>244.0</ele>
        <time>2019-12-21T09:48:30.348Z</time>
      </trkpt>
      <trkpt lat="41.28838667" lon="1.85464333">
        <ele>244.0</ele>
        <time>2019-12-21T09:48:31.371Z</time>
      </trkpt>
      <trkpt lat="41.28838667" lon="1.85464333">
        <ele>244.0</ele>
        <time>2019-12-21T09:48:32.354Z</time>
      </trkpt>
      <trkpt lat="41.28838667" lon="1.85464333">
        <ele>244.0</ele>
        <time>2019-12-21T09:48:33.367Z</time>
      </trkpt>
      <trkpt lat="41.28830333" lon="1.85475667">
        <ele>243.0</ele>
        <time>2019-12-21T09:48:34.355Z</time>
      </trkpt>
      <trkpt lat="41.28830333" lon="1.85475667">
        <ele>243.0</ele>
        <time>2019-12-21T09:48:35.333Z</time>
      </trkpt>
      <trkpt lat="41.288225" lon="1.85487333">
        <ele>242.0</ele>
        <time>2019-12-21T09:48:36.348Z</time>
      </trkpt>
      <trkpt lat="41.288225" lon="1.85487333">
        <ele>242.0</ele>
        <time>2019-12-21T09:48:37.354Z</time>
      </trkpt>
      <trkpt lat="41.288145" lon="1.85499167">
        <ele>241.0</ele>
        <time>2019-12-21T09:48:38.367Z</time>
      </trkpt>
      <trkpt lat="41.288145" lon="1.85499167">
        <ele>241.0</ele>
        <time>2019-12-21T09:48:39.354Z</time>
      </trkpt>
      <trkpt lat="41.28805833" lon="1.85510833">
        <ele>240.0</ele>
        <time>2019-12-21T09:48:40.366Z</time>
      </trkpt>
      <trkpt lat="41.28796833" lon="1.855225">
        <ele>240.0</ele>
        <time>2019-12-21T09:48:41.362Z</time>
      </trkpt>
      <trkpt lat="41.28796833" lon="1.855225">
        <ele>240.0</ele>
        <time>2019-12-21T09:48:42.347Z</time>
      </trkpt>
      <trkpt lat="41.28796833" lon="1.855225">
        <ele>240.0</ele>
        <time>2019-12-21T09:48:43.355Z</time>
      </trkpt>
      <trkpt lat="41.28787167" lon="1.855345">
        <ele>239.0</ele>
        <time>2019-12-21T09:48:44.367Z</time>
      </trkpt>
      <trkpt lat="41.28787167" lon="1.855345">
        <ele>239.0</ele>
        <time>2019-12-21T09:48:45.355Z</time>
      </trkpt>
      <trkpt lat="41.28776667" lon="1.855475">
        <ele>238.0</ele>
        <time>2019-12-21T09:48:46.368Z</time>
      </trkpt>
      <trkpt lat="41.28776667" lon="1.855475">
        <ele>238.0</ele>
        <time>2019-12-21T09:48:47.353Z</time>
      </trkpt>
      <trkpt lat="41.28763833" lon="1.85556167">
        <ele>237.0</ele>
        <time>2019-12-21T09:48:48.354Z</time>
      </trkpt>
      <trkpt lat="41.287565" lon="1.85557333">
        <ele>237.0</ele>
        <time>2019-12-21T09:48:49.354Z</time>
      </trkpt>
      <trkpt lat="41.28749667" lon="1.855575">
        <ele>237.0</ele>
        <time>2019-12-21T09:48:50.368Z</time>
      </trkpt>
      <trkpt lat="41.28749667" lon="1.855575">
        <ele>237.0</ele>
        <time>2019-12-21T09:48:51.353Z</time>
      </trkpt>
      <trkpt lat="41.28737167" lon="1.85557167">
        <ele>236.0</ele>
        <time>2019-12-21T09:48:52.366Z</time>
      </trkpt>
      <trkpt lat="41.28737167" lon="1.85557167">
        <ele>236.0</ele>
        <time>2019-12-21T09:48:53.354Z</time>
      </trkpt>
      <trkpt lat="41.28726167" lon="1.85558">
        <ele>236.0</ele>
        <time>2019-12-21T09:48:54.344Z</time>
      </trkpt>
      <trkpt lat="41.28726167" lon="1.85558">
        <ele>236.0</ele>
        <time>2019-12-21T09:48:55.339Z</time>
      </trkpt>
      <trkpt lat="41.28716167" lon="1.85560833">
        <ele>235.0</ele>
        <time>2019-12-21T09:48:56.350Z</time>
      </trkpt>
      <trkpt lat="41.28716167" lon="1.85560833">
        <ele>235.0</ele>
        <time>2019-12-21T09:48:57.356Z</time>
      </trkpt>
      <trkpt lat="41.28707167" lon="1.855665">
        <ele>235.0</ele>
        <time>2019-12-21T09:48:58.353Z</time>
      </trkpt>
      <trkpt lat="41.28702333" lon="1.85570167">
        <ele>235.0</ele>
        <time>2019-12-21T09:48:59.366Z</time>
      </trkpt>
      <trkpt lat="41.28702333" lon="1.85570167">
        <ele>235.0</ele>
        <time>2019-12-21T09:49:00.354Z</time>
      </trkpt>
      <trkpt lat="41.28687667" lon="1.85585">
        <ele>235.0</ele>
        <time>2019-12-21T09:49:01.366Z</time>
      </trkpt>
      <trkpt lat="41.28687667" lon="1.85585">
        <ele>235.0</ele>
        <time>2019-12-21T09:49:02.361Z</time>
      </trkpt>
      <trkpt lat="41.28687667" lon="1.85585">
        <ele>235.0</ele>
        <time>2019-12-21T09:49:03.354Z</time>
      </trkpt>
      <trkpt lat="41.286785" lon="1.85597167">
        <ele>234.0</ele>
        <time>2019-12-21T09:49:04.366Z</time>
      </trkpt>
      <trkpt lat="41.286785" lon="1.85597167">
        <ele>234.0</ele>
        <time>2019-12-21T09:49:05.354Z</time>
      </trkpt>
      <trkpt lat="41.28669333" lon="1.85609667">
        <ele>234.0</ele>
        <time>2019-12-21T09:49:06.348Z</time>
      </trkpt>
      <trkpt lat="41.28658167" lon="1.85612167">
        <ele>234.0</ele>
        <time>2019-12-21T09:49:07.370Z</time>
      </trkpt>
      <trkpt lat="41.28658167" lon="1.85612167">
        <ele>234.0</ele>
        <time>2019-12-21T09:49:08.348Z</time>
      </trkpt>
      <trkpt lat="41.28658167" lon="1.85612167">
        <ele>234.0</ele>
        <time>2019-12-21T09:49:09.354Z</time>
      </trkpt>
      <trkpt lat="41.28649333" lon="1.85605833">
        <ele>234.0</ele>
        <time>2019-12-21T09:49:10.366Z</time>
      </trkpt>
      <trkpt lat="41.28646833" lon="1.855965">
        <ele>234.0</ele>
        <time>2019-12-21T09:49:11.365Z</time>
      </trkpt>
      <trkpt lat="41.28646833" lon="1.855965">
        <ele>234.0</ele>
        <time>2019-12-21T09:49:12.354Z</time>
      </trkpt>
      <trkpt lat="41.286475" lon="1.85592333">
        <ele>234.0</ele>
        <time>2019-12-21T09:49:13.367Z</time>
      </trkpt>
      <trkpt lat="41.286475" lon="1.85592333">
        <ele>234.0</ele>
        <time>2019-12-21T09:49:14.350Z</time>
      </trkpt>
      <trkpt lat="41.286475" lon="1.85581167">
        <ele>234.0</ele>
        <time>2019-12-21T09:49:15.363Z</time>
      </trkpt>
      <trkpt lat="41.286475" lon="1.85581167">
        <ele>234.0</ele>
        <time>2019-12-21T09:49:16.354Z</time>
      </trkpt>
      <trkpt lat="41.28647167" lon="1.85578167">
        <ele>234.0</ele>
        <time>2019-12-21T09:49:17.351Z</time>
      </trkpt>
      <trkpt lat="41.28646333" lon="1.85571167">
        <ele>235.0</ele>
        <time>2019-12-21T09:49:18.369Z</time>
      </trkpt>
      <trkpt lat="41.28645833" lon="1.855675">
        <ele>235.0</ele>
        <time>2019-12-21T09:49:19.355Z</time>
      </trkpt>
      <trkpt lat="41.28645833" lon="1.855675">
        <ele>235.0</ele>
        <time>2019-12-21T09:49:20.349Z</time>
      </trkpt>
      <trkpt lat="41.28645833" lon="1.855675">
        <ele>235.0</ele>
        <time>2019-12-21T09:49:21.351Z</time>
      </trkpt>
      <trkpt lat="41.28644167" lon="1.85560833">
        <ele>236.0</ele>
        <time>2019-12-21T09:49:22.366Z</time>
      </trkpt>
      <trkpt lat="41.28644167" lon="1.85560833">
        <ele>236.0</ele>
        <time>2019-12-21T09:49:23.354Z</time>
      </trkpt>
      <trkpt lat="41.286435" lon="1.85554833">
        <ele>236.0</ele>
        <time>2019-12-21T09:49:24.348Z</time>
      </trkpt>
      <trkpt lat="41.28642667" lon="1.85548167">
        <ele>236.0</ele>
        <time>2019-12-21T09:49:25.370Z</time>
      </trkpt>
      <trkpt lat="41.28642667" lon="1.85548167">
        <ele>236.0</ele>
        <time>2019-12-21T09:49:26.348Z</time>
      </trkpt>
      <trkpt lat="41.28642667" lon="1.85548167">
        <ele>236.0</ele>
        <time>2019-12-21T09:49:27.333Z</time>
      </trkpt>
      <trkpt lat="41.286415" lon="1.85540667">
        <ele>236.0</ele>
        <time>2019-12-21T09:49:28.349Z</time>
      </trkpt>
      <trkpt lat="41.286415" lon="1.85540667">
        <ele>236.0</ele>
        <time>2019-12-21T09:49:29.354Z</time>
      </trkpt>
      <trkpt lat="41.28640167" lon="1.85533167">
        <ele>237.0</ele>
        <time>2019-12-21T09:49:30.367Z</time>
      </trkpt>
      <trkpt lat="41.28640167" lon="1.85533167">
        <ele>237.0</ele>
        <time>2019-12-21T09:49:31.355Z</time>
      </trkpt>
      <trkpt lat="41.286385" lon="1.855215">
        <ele>238.0</ele>
        <time>2019-12-21T09:49:32.368Z</time>
      </trkpt>
      <trkpt lat="41.286385" lon="1.855215">
        <ele>238.0</ele>
        <time>2019-12-21T09:49:33.349Z</time>
      </trkpt>
      <trkpt lat="41.286385" lon="1.855215">
        <ele>238.0</ele>
        <time>2019-12-21T09:49:34.333Z</time>
      </trkpt>
      <trkpt lat="41.28637667" lon="1.85514167">
        <ele>238.0</ele>
        <time>2019-12-21T09:49:35.348Z</time>
      </trkpt>
      <trkpt lat="41.28637667" lon="1.85514167">
        <ele>238.0</ele>
        <time>2019-12-21T09:49:36.334Z</time>
      </trkpt>
      <trkpt lat="41.28636667" lon="1.85506833">
        <ele>239.0</ele>
        <time>2019-12-21T09:49:37.366Z</time>
      </trkpt>
      <trkpt lat="41.28636667" lon="1.85506833">
        <ele>239.0</ele>
        <time>2019-12-21T09:49:38.355Z</time>
      </trkpt>
      <trkpt lat="41.28636333" lon="1.854995">
        <ele>240.0</ele>
        <time>2019-12-21T09:49:39.367Z</time>
      </trkpt>
      <trkpt lat="41.28636" lon="1.85491167">
        <ele>240.0</ele>
        <time>2019-12-21T09:49:40.365Z</time>
      </trkpt>
      <trkpt lat="41.28636" lon="1.85491167">
        <ele>240.0</ele>
        <time>2019-12-21T09:49:41.349Z</time>
      </trkpt>
      <trkpt lat="41.28636" lon="1.85491167">
        <ele>240.0</ele>
        <time>2019-12-21T09:49:42.333Z</time>
      </trkpt>
      <trkpt lat="41.28636667" lon="1.85484">
        <ele>240.0</ele>
        <time>2019-12-21T09:49:43.364Z</time>
      </trkpt>
      <trkpt lat="41.28636667" lon="1.85484">
        <ele>240.0</ele>
        <time>2019-12-21T09:49:44.354Z</time>
      </trkpt>
      <trkpt lat="41.28638" lon="1.85472833">
        <ele>240.0</ele>
        <time>2019-12-21T09:49:45.375Z</time>
      </trkpt>
      <trkpt lat="41.28638" lon="1.85472833">
        <ele>240.0</ele>
        <time>2019-12-21T09:49:46.353Z</time>
      </trkpt>
      <trkpt lat="41.28638" lon="1.85472833">
        <ele>240.0</ele>
        <time>2019-12-21T09:49:47.333Z</time>
      </trkpt>
      <trkpt lat="41.286395" lon="1.85465333">
        <ele>240.0</ele>
        <time>2019-12-21T09:49:48.364Z</time>
      </trkpt>
      <trkpt lat="41.286395" lon="1.85465333">
        <ele>240.0</ele>
        <time>2019-12-21T09:49:49.355Z</time>
      </trkpt>
      <trkpt lat="41.28641667" lon="1.85457833">
        <ele>240.0</ele>
        <time>2019-12-21T09:49:50.367Z</time>
      </trkpt>
      <trkpt lat="41.28641667" lon="1.85457833">
        <ele>240.0</ele>
        <time>2019-12-21T09:49:51.358Z</time>
      </trkpt>
      <trkpt lat="41.28644" lon="1.85450333">
        <ele>240.0</ele>
        <time>2019-12-21T09:49:52.355Z</time>
      </trkpt>
      <trkpt lat="41.28644" lon="1.85450333">
        <ele>240.0</ele>
        <time>2019-12-21T09:49:53.353Z</time>
      </trkpt>
      <trkpt lat="41.28646167" lon="1.85442333">
        <ele>241.0</ele>
        <time>2019-12-21T09:49:54.341Z</time>
      </trkpt>
      <trkpt lat="41.28648167" lon="1.85434167">
        <ele>241.0</ele>
        <time>2019-12-21T09:49:55.370Z</time>
      </trkpt>
      <trkpt lat="41.28648167" lon="1.85434167">
        <ele>241.0</ele>
        <time>2019-12-21T09:49:56.341Z</time>
      </trkpt>
      <trkpt lat="41.28648167" lon="1.85434167">
        <ele>241.0</ele>
        <time>2019-12-21T09:49:57.353Z</time>
      </trkpt>
      <trkpt lat="41.286505" lon="1.85426">
        <ele>241.0</ele>
        <time>2019-12-21T09:49:58.366Z</time>
      </trkpt>
      <trkpt lat="41.286505" lon="1.85426">
        <ele>241.0</ele>
        <time>2019-12-21T09:49:59.354Z</time>
      </trkpt>
      <trkpt lat="41.286525" lon="1.85417833">
        <ele>241.0</ele>
        <time>2019-12-21T09:50:00.354Z</time>
      </trkpt>
      <trkpt lat="41.286535" lon="1.85413667">
        <ele>241.0</ele>
        <time>2019-12-21T09:50:01.367Z</time>
      </trkpt>
      <trkpt lat="41.286535" lon="1.85413667">
        <ele>241.0</ele>
        <time>2019-12-21T09:50:02.353Z</time>
      </trkpt>
      <trkpt lat="41.28655833" lon="1.854055">
        <ele>241.0</ele>
        <time>2019-12-21T09:50:03.349Z</time>
      </trkpt>
      <trkpt lat="41.28655833" lon="1.854055">
        <ele>241.0</ele>
        <time>2019-12-21T09:50:04.333Z</time>
      </trkpt>
      <trkpt lat="41.28657833" lon="1.853975">
        <ele>241.0</ele>
        <time>2019-12-21T09:50:05.349Z</time>
      </trkpt>
      <trkpt lat="41.28657833" lon="1.853975">
        <ele>241.0</ele>
        <time>2019-12-21T09:50:06.354Z</time>
      </trkpt>
      <trkpt lat="41.28660833" lon="1.85384667">
        <ele>241.0</ele>
        <time>2019-12-21T09:50:07.371Z</time>
      </trkpt>
      <trkpt lat="41.28660833" lon="1.85384667">
        <ele>241.0</ele>
        <time>2019-12-21T09:50:08.360Z</time>
      </trkpt>
      <trkpt lat="41.28660833" lon="1.85384667">
        <ele>241.0</ele>
        <time>2019-12-21T09:50:09.354Z</time>
      </trkpt>
      <trkpt lat="41.28663" lon="1.85376667">
        <ele>242.0</ele>
        <time>2019-12-21T09:50:10.366Z</time>
      </trkpt>
      <trkpt lat="41.28663" lon="1.85376667">
        <ele>242.0</ele>
        <time>2019-12-21T09:50:11.354Z</time>
      </trkpt>
      <trkpt lat="41.286655" lon="1.85368333">
        <ele>242.0</ele>
        <time>2019-12-21T09:50:12.367Z</time>
      </trkpt>
      <trkpt lat="41.286655" lon="1.85368333">
        <ele>242.0</ele>
        <time>2019-12-21T09:50:13.353Z</time>
      </trkpt>
      <trkpt lat="41.28667833" lon="1.853605">
        <ele>242.0</ele>
        <time>2019-12-21T09:50:14.370Z</time>
      </trkpt>
      <trkpt lat="41.28667833" lon="1.853605">
        <ele>242.0</ele>
        <time>2019-12-21T09:50:15.354Z</time>
      </trkpt>
      <trkpt lat="41.28669833" lon="1.85353333">
        <ele>243.0</ele>
        <time>2019-12-21T09:50:16.367Z</time>
      </trkpt>
      <trkpt lat="41.28669833" lon="1.85353333">
        <ele>243.0</ele>
        <time>2019-12-21T09:50:17.352Z</time>
      </trkpt>
      <trkpt lat="41.28672" lon="1.85346167">
        <ele>243.0</ele>
        <time>2019-12-21T09:50:18.367Z</time>
      </trkpt>
      <trkpt lat="41.28672" lon="1.85346167">
        <ele>243.0</ele>
        <time>2019-12-21T09:50:19.356Z</time>
      </trkpt>
      <trkpt lat="41.28674" lon="1.85339">
        <ele>243.0</ele>
        <time>2019-12-21T09:50:20.368Z</time>
      </trkpt>
      <trkpt lat="41.28674" lon="1.85339">
        <ele>243.0</ele>
        <time>2019-12-21T09:50:21.351Z</time>
      </trkpt>
      <trkpt lat="41.28675667" lon="1.85331667">
        <ele>244.0</ele>
        <time>2019-12-21T09:50:22.366Z</time>
      </trkpt>
      <trkpt lat="41.28675667" lon="1.85331667">
        <ele>244.0</ele>
        <time>2019-12-21T09:50:23.355Z</time>
      </trkpt>
      <trkpt lat="41.28677333" lon="1.85324333">
        <ele>244.0</ele>
        <time>2019-12-21T09:50:24.365Z</time>
      </trkpt>
      <trkpt lat="41.28677333" lon="1.85324333">
        <ele>244.0</ele>
        <time>2019-12-21T09:50:25.440Z</time>
      </trkpt>
      <trkpt lat="41.28678667" lon="1.85317833">
        <ele>244.0</ele>
        <time>2019-12-21T09:50:26.349Z</time>
      </trkpt>
      <trkpt lat="41.28678667" lon="1.85317833">
        <ele>244.0</ele>
        <time>2019-12-21T09:50:27.355Z</time>
      </trkpt>
      <trkpt lat="41.28680333" lon="1.85311833">
        <ele>245.0</ele>
        <time>2019-12-21T09:50:28.367Z</time>
      </trkpt>
      <trkpt lat="41.28680333" lon="1.85311833">
        <ele>245.0</ele>
        <time>2019-12-21T09:50:29.355Z</time>
      </trkpt>
      <trkpt lat="41.28682333" lon="1.85305667">
        <ele>245.0</ele>
        <time>2019-12-21T09:50:30.367Z</time>
      </trkpt>
      <trkpt lat="41.28682333" lon="1.85305667">
        <ele>245.0</ele>
        <time>2019-12-21T09:50:31.355Z</time>
      </trkpt>
      <trkpt lat="41.28684333" lon="1.852995">
        <ele>245.0</ele>
        <time>2019-12-21T09:50:32.371Z</time>
      </trkpt>
      <trkpt lat="41.28686" lon="1.85293333">
        <ele>245.0</ele>
        <time>2019-12-21T09:50:33.362Z</time>
      </trkpt>
      <trkpt lat="41.28686" lon="1.85293333">
        <ele>245.0</ele>
        <time>2019-12-21T09:50:34.349Z</time>
      </trkpt>
      <trkpt lat="41.28686" lon="1.85293333">
        <ele>245.0</ele>
        <time>2019-12-21T09:50:35.354Z</time>
      </trkpt>
      <trkpt lat="41.28687667" lon="1.85285667">
        <ele>244.0</ele>
        <time>2019-12-21T09:50:36.349Z</time>
      </trkpt>
      <trkpt lat="41.28687667" lon="1.85285667">
        <ele>244.0</ele>
        <time>2019-12-21T09:50:37.335Z</time>
      </trkpt>
      <trkpt lat="41.28689333" lon="1.85276333">
        <ele>244.0</ele>
        <time>2019-12-21T09:50:38.371Z</time>
      </trkpt>
      <trkpt lat="41.28689333" lon="1.85276333">
        <ele>244.0</ele>
        <time>2019-12-21T09:50:39.357Z</time>
      </trkpt>
      <trkpt lat="41.28690333" lon="1.85265167">
        <ele>243.0</ele>
        <time>2019-12-21T09:50:40.349Z</time>
      </trkpt>
      <trkpt lat="41.28690333" lon="1.85265167">
        <ele>243.0</ele>
        <time>2019-12-21T09:50:41.353Z</time>
      </trkpt>
      <trkpt lat="41.28688167" lon="1.85252833">
        <ele>242.0</ele>
        <time>2019-12-21T09:50:42.366Z</time>
      </trkpt>
      <trkpt lat="41.28688167" lon="1.85252833">
        <ele>242.0</ele>
        <time>2019-12-21T09:50:43.355Z</time>
      </trkpt>
      <trkpt lat="41.286805" lon="1.852435">
        <ele>242.0</ele>
        <time>2019-12-21T09:50:44.370Z</time>
      </trkpt>
      <trkpt lat="41.28669" lon="1.85239333">
        <ele>241.0</ele>
        <time>2019-12-21T09:50:45.366Z</time>
      </trkpt>
      <trkpt lat="41.28669" lon="1.85239333">
        <ele>241.0</ele>
        <time>2019-12-21T09:50:46.348Z</time>
      </trkpt>
      <trkpt lat="41.28669" lon="1.85239333">
        <ele>241.0</ele>
        <time>2019-12-21T09:50:47.333Z</time>
      </trkpt>
      <trkpt lat="41.28656667" lon="1.85234833">
        <ele>240.0</ele>
        <time>2019-12-21T09:50:48.349Z</time>
      </trkpt>
      <trkpt lat="41.28645333" lon="1.85226667">
        <ele>240.0</ele>
        <time>2019-12-21T09:50:49.370Z</time>
      </trkpt>
      <trkpt lat="41.28645333" lon="1.85226667">
        <ele>240.0</ele>
        <time>2019-12-21T09:50:50.349Z</time>
      </trkpt>
      <trkpt lat="41.28645333" lon="1.85226667">
        <ele>240.0</ele>
        <time>2019-12-21T09:50:51.354Z</time>
      </trkpt>
      <trkpt lat="41.28636667" lon="1.85215833">
        <ele>239.0</ele>
        <time>2019-12-21T09:50:52.367Z</time>
      </trkpt>
      <trkpt lat="41.28636667" lon="1.85215833">
        <ele>239.0</ele>
        <time>2019-12-21T09:50:53.352Z</time>
      </trkpt>
      <trkpt lat="41.28631" lon="1.85204833">
        <ele>239.0</ele>
        <time>2019-12-21T09:50:54.360Z</time>
      </trkpt>
      <trkpt lat="41.28631" lon="1.85204833">
        <ele>239.0</ele>
        <time>2019-12-21T09:50:55.357Z</time>
      </trkpt>
      <trkpt lat="41.28627833" lon="1.85194167">
        <ele>239.0</ele>
        <time>2019-12-21T09:50:56.373Z</time>
      </trkpt>
      <trkpt lat="41.28627833" lon="1.85194167">
        <ele>239.0</ele>
        <time>2019-12-21T09:50:57.356Z</time>
      </trkpt>
      <trkpt lat="41.28624833" lon="1.85185333">
        <ele>238.0</ele>
        <time>2019-12-21T09:50:58.361Z</time>
      </trkpt>
      <trkpt lat="41.28624833" lon="1.85185333">
        <ele>238.0</ele>
        <time>2019-12-21T09:50:59.354Z</time>
      </trkpt>
      <trkpt lat="41.28622167" lon="1.85176167">
        <ele>238.0</ele>
        <time>2019-12-21T09:51:00.367Z</time>
      </trkpt>
      <trkpt lat="41.28622167" lon="1.85176167">
        <ele>238.0</ele>
        <time>2019-12-21T09:51:01.353Z</time>
      </trkpt>
      <trkpt lat="41.28619" lon="1.85166333">
        <ele>238.0</ele>
        <time>2019-12-21T09:51:02.371Z</time>
      </trkpt>
      <trkpt lat="41.28619" lon="1.85166333">
        <ele>238.0</ele>
        <time>2019-12-21T09:51:03.391Z</time>
      </trkpt>
      <trkpt lat="41.28615667" lon="1.85158">
        <ele>238.0</ele>
        <time>2019-12-21T09:51:04.366Z</time>
      </trkpt>
      <trkpt lat="41.28615667" lon="1.85158">
        <ele>238.0</ele>
        <time>2019-12-21T09:51:05.355Z</time>
      </trkpt>
      <trkpt lat="41.28613167" lon="1.85149167">
        <ele>238.0</ele>
        <time>2019-12-21T09:51:06.349Z</time>
      </trkpt>
      <trkpt lat="41.28610833" lon="1.85140667">
        <ele>238.0</ele>
        <time>2019-12-21T09:51:07.371Z</time>
      </trkpt>
      <trkpt lat="41.28610833" lon="1.85140667">
        <ele>238.0</ele>
        <time>2019-12-21T09:51:08.349Z</time>
      </trkpt>
      <trkpt lat="41.28610833" lon="1.85140667">
        <ele>238.0</ele>
        <time>2019-12-21T09:51:09.354Z</time>
      </trkpt>
      <trkpt lat="41.28608167" lon="1.85132">
        <ele>238.0</ele>
        <time>2019-12-21T09:51:10.367Z</time>
      </trkpt>
      <trkpt lat="41.28608167" lon="1.85132">
        <ele>238.0</ele>
        <time>2019-12-21T09:51:11.354Z</time>
      </trkpt>
      <trkpt lat="41.28604833" lon="1.85123">
        <ele>238.0</ele>
        <time>2019-12-21T09:51:12.366Z</time>
      </trkpt>
      <trkpt lat="41.28604833" lon="1.85123">
        <ele>238.0</ele>
        <time>2019-12-21T09:51:13.357Z</time>
      </trkpt>
      <trkpt lat="41.28600667" lon="1.85113167">
        <ele>238.0</ele>
        <time>2019-12-21T09:51:14.371Z</time>
      </trkpt>
      <trkpt lat="41.28596167" lon="1.851025">
        <ele>238.0</ele>
        <time>2019-12-21T09:51:15.369Z</time>
      </trkpt>
      <trkpt lat="41.28596167" lon="1.851025">
        <ele>238.0</ele>
        <time>2019-12-21T09:51:16.353Z</time>
      </trkpt>
      <trkpt lat="41.28596167" lon="1.851025">
        <ele>238.0</ele>
        <time>2019-12-21T09:51:17.354Z</time>
      </trkpt>
      <trkpt lat="41.28591833" lon="1.85092167">
        <ele>238.0</ele>
        <time>2019-12-21T09:51:18.367Z</time>
      </trkpt>
      <trkpt lat="41.28591833" lon="1.85092167">
        <ele>238.0</ele>
        <time>2019-12-21T09:51:19.357Z</time>
      </trkpt>
      <trkpt lat="41.28589167" lon="1.85081167">
        <ele>238.0</ele>
        <time>2019-12-21T09:51:20.371Z</time>
      </trkpt>
      <trkpt lat="41.28589167" lon="1.85081167">
        <ele>238.0</ele>
        <time>2019-12-21T09:51:21.356Z</time>
      </trkpt>
      <trkpt lat="41.28587" lon="1.85067833">
        <ele>238.0</ele>
        <time>2019-12-21T09:51:22.368Z</time>
      </trkpt>
      <trkpt lat="41.28587" lon="1.85067833">
        <ele>238.0</ele>
        <time>2019-12-21T09:51:23.354Z</time>
      </trkpt>
      <trkpt lat="41.28585" lon="1.85054167">
        <ele>239.0</ele>
        <time>2019-12-21T09:51:24.367Z</time>
      </trkpt>
      <trkpt lat="41.28585" lon="1.85054167">
        <ele>239.0</ele>
        <time>2019-12-21T09:51:25.356Z</time>
      </trkpt>
      <trkpt lat="41.28583167" lon="1.8504">
        <ele>239.0</ele>
        <time>2019-12-21T09:51:26.449Z</time>
      </trkpt>
      <trkpt lat="41.28582667" lon="1.85033333">
        <ele>239.0</ele>
        <time>2019-12-21T09:51:27.349Z</time>
      </trkpt>
      <trkpt lat="41.28582667" lon="1.85033333">
        <ele>239.0</ele>
        <time>2019-12-21T09:51:28.354Z</time>
      </trkpt>
      <trkpt lat="41.28581167" lon="1.85021167">
        <ele>239.0</ele>
        <time>2019-12-21T09:51:29.367Z</time>
      </trkpt>
      <trkpt lat="41.28581167" lon="1.85021167">
        <ele>239.0</ele>
        <time>2019-12-21T09:51:30.354Z</time>
      </trkpt>
      <trkpt lat="41.28578" lon="1.85001833">
        <ele>240.0</ele>
        <time>2019-12-21T09:51:31.367Z</time>
      </trkpt>
      <trkpt lat="41.28578" lon="1.85001833">
        <ele>240.0</ele>
        <time>2019-12-21T09:51:32.349Z</time>
      </trkpt>
      <trkpt lat="41.28578" lon="1.85001833">
        <ele>240.0</ele>
        <time>2019-12-21T09:51:33.354Z</time>
      </trkpt>
      <trkpt lat="41.28575667" lon="1.84988667">
        <ele>240.0</ele>
        <time>2019-12-21T09:51:34.367Z</time>
      </trkpt>
      <trkpt lat="41.28573833" lon="1.84975667">
        <ele>240.0</ele>
        <time>2019-12-21T09:51:35.365Z</time>
      </trkpt>
      <trkpt lat="41.28573833" lon="1.84975667">
        <ele>240.0</ele>
        <time>2019-12-21T09:51:36.349Z</time>
      </trkpt>
      <trkpt lat="41.28571833" lon="1.84963667">
        <ele>241.0</ele>
        <time>2019-12-21T09:51:37.371Z</time>
      </trkpt>
      <trkpt lat="41.28571833" lon="1.84963667">
        <ele>241.0</ele>
        <time>2019-12-21T09:51:38.349Z</time>
      </trkpt>
      <trkpt lat="41.28571833" lon="1.84963667">
        <ele>241.0</ele>
        <time>2019-12-21T09:51:39.355Z</time>
      </trkpt>
      <trkpt lat="41.28569667" lon="1.84952333">
        <ele>241.0</ele>
        <time>2019-12-21T09:51:40.367Z</time>
      </trkpt>
      <trkpt lat="41.28569667" lon="1.84952333">
        <ele>241.0</ele>
        <time>2019-12-21T09:51:41.354Z</time>
      </trkpt>
      <trkpt lat="41.28567833" lon="1.84940833">
        <ele>241.0</ele>
        <time>2019-12-21T09:51:42.368Z</time>
      </trkpt>
      <trkpt lat="41.28566167" lon="1.849295">
        <ele>242.0</ele>
        <time>2019-12-21T09:51:43.363Z</time>
      </trkpt>
      <trkpt lat="41.28566167" lon="1.849295">
        <ele>242.0</ele>
        <time>2019-12-21T09:51:44.349Z</time>
      </trkpt>
      <trkpt lat="41.28566167" lon="1.849295">
        <ele>242.0</ele>
        <time>2019-12-21T09:51:45.355Z</time>
      </trkpt>
      <trkpt lat="41.28564" lon="1.84912333">
        <ele>242.0</ele>
        <time>2019-12-21T09:51:46.367Z</time>
      </trkpt>
      <trkpt lat="41.28564" lon="1.84912333">
        <ele>242.0</ele>
        <time>2019-12-21T09:51:47.349Z</time>
      </trkpt>
      <trkpt lat="41.28564" lon="1.84912333">
        <ele>242.0</ele>
        <time>2019-12-21T09:51:48.354Z</time>
      </trkpt>
      <trkpt lat="41.285615" lon="1.84895167">
        <ele>243.0</ele>
        <time>2019-12-21T09:51:49.366Z</time>
      </trkpt>
      <trkpt lat="41.285615" lon="1.84895167">
        <ele>243.0</ele>
        <time>2019-12-21T09:51:50.349Z</time>
      </trkpt>
      <trkpt lat="41.285615" lon="1.84895167">
        <ele>243.0</ele>
        <time>2019-12-21T09:51:51.354Z</time>
      </trkpt>
      <trkpt lat="41.285535" lon="1.84879833">
        <ele>243.0</ele>
        <time>2019-12-21T09:51:52.365Z</time>
      </trkpt>
      <trkpt lat="41.285535" lon="1.84879833">
        <ele>243.0</ele>
        <time>2019-12-21T09:51:53.349Z</time>
      </trkpt>
      <trkpt lat="41.28545167" lon="1.84871">
        <ele>243.0</ele>
        <time>2019-12-21T09:51:54.363Z</time>
      </trkpt>
      <trkpt lat="41.28545167" lon="1.84871">
        <ele>243.0</ele>
        <time>2019-12-21T09:51:55.356Z</time>
      </trkpt>
      <trkpt lat="41.2854" lon="1.84866833">
        <ele>242.0</ele>
        <time>2019-12-21T09:51:56.371Z</time>
      </trkpt>
      <trkpt lat="41.2854" lon="1.84866833">
        <ele>242.0</ele>
        <time>2019-12-21T09:51:57.359Z</time>
      </trkpt>
      <trkpt lat="41.28529667" lon="1.84857167">
        <ele>242.0</ele>
        <time>2019-12-21T09:51:58.349Z</time>
      </trkpt>
      <trkpt lat="41.28529667" lon="1.84857167">
        <ele>242.0</ele>
        <time>2019-12-21T09:51:59.333Z</time>
      </trkpt>
      <trkpt lat="41.28521333" lon="1.84843667">
        <ele>241.0</ele>
        <time>2019-12-21T09:52:00.367Z</time>
      </trkpt>
      <trkpt lat="41.28521333" lon="1.84843667">
        <ele>241.0</ele>
        <time>2019-12-21T09:52:01.356Z</time>
      </trkpt>
      <trkpt lat="41.28515667" lon="1.84828">
        <ele>240.0</ele>
        <time>2019-12-21T09:52:02.369Z</time>
      </trkpt>
      <trkpt lat="41.28512" lon="1.84812667">
        <ele>241.0</ele>
        <time>2019-12-21T09:52:03.369Z</time>
      </trkpt>
      <trkpt lat="41.28512" lon="1.84812667">
        <ele>241.0</ele>
        <time>2019-12-21T09:52:04.349Z</time>
      </trkpt>
      <trkpt lat="41.28512" lon="1.84812667">
        <ele>241.0</ele>
        <time>2019-12-21T09:52:05.353Z</time>
      </trkpt>
      <trkpt lat="41.28507333" lon="1.847905">
        <ele>240.0</ele>
        <time>2019-12-21T09:52:06.367Z</time>
      </trkpt>
      <trkpt lat="41.28507333" lon="1.847905">
        <ele>240.0</ele>
        <time>2019-12-21T09:52:07.356Z</time>
      </trkpt>
      <trkpt lat="41.28506333" lon="1.84783333">
        <ele>241.0</ele>
        <time>2019-12-21T09:52:08.348Z</time>
      </trkpt>
      <trkpt lat="41.28506333" lon="1.84783333">
        <ele>241.0</ele>
        <time>2019-12-21T09:52:09.354Z</time>
      </trkpt>
      <trkpt lat="41.28504167" lon="1.84769833">
        <ele>241.0</ele>
        <time>2019-12-21T09:52:10.367Z</time>
      </trkpt>
      <trkpt lat="41.28504167" lon="1.84769833">
        <ele>241.0</ele>
        <time>2019-12-21T09:52:11.354Z</time>
      </trkpt>
      <trkpt lat="41.28501833" lon="1.847565">
        <ele>242.0</ele>
        <time>2019-12-21T09:52:12.364Z</time>
      </trkpt>
      <trkpt lat="41.28501833" lon="1.847565">
        <ele>242.0</ele>
        <time>2019-12-21T09:52:13.356Z</time>
      </trkpt>
      <trkpt lat="41.28499667" lon="1.847435">
        <ele>242.0</ele>
        <time>2019-12-21T09:52:14.352Z</time>
      </trkpt>
      <trkpt lat="41.28499667" lon="1.847435">
        <ele>242.0</ele>
        <time>2019-12-21T09:52:15.355Z</time>
      </trkpt>
      <trkpt lat="41.28496167" lon="1.84724833">
        <ele>243.0</ele>
        <time>2019-12-21T09:52:16.365Z</time>
      </trkpt>
      <trkpt lat="41.28496167" lon="1.84724833">
        <ele>243.0</ele>
        <time>2019-12-21T09:52:17.349Z</time>
      </trkpt>
      <trkpt lat="41.28496167" lon="1.84724833">
        <ele>243.0</ele>
        <time>2019-12-21T09:52:18.355Z</time>
      </trkpt>
      <trkpt lat="41.28492833" lon="1.84705667">
        <ele>243.0</ele>
        <time>2019-12-21T09:52:19.367Z</time>
      </trkpt>
      <trkpt lat="41.28492833" lon="1.84705667">
        <ele>243.0</ele>
        <time>2019-12-21T09:52:20.355Z</time>
      </trkpt>
      <trkpt lat="41.28491333" lon="1.84699333">
        <ele>243.0</ele>
        <time>2019-12-21T09:52:21.349Z</time>
      </trkpt>
      <trkpt lat="41.28491333" lon="1.84699333">
        <ele>243.0</ele>
        <time>2019-12-21T09:52:22.354Z</time>
      </trkpt>
      <trkpt lat="41.28488333" lon="1.84687">
        <ele>243.0</ele>
        <time>2019-12-21T09:52:23.367Z</time>
      </trkpt>
      <trkpt lat="41.28488333" lon="1.84687">
        <ele>243.0</ele>
        <time>2019-12-21T09:52:24.355Z</time>
      </trkpt>
      <trkpt lat="41.28485333" lon="1.84669167">
        <ele>244.0</ele>
        <time>2019-12-21T09:52:25.368Z</time>
      </trkpt>
      <trkpt lat="41.28485333" lon="1.84669167">
        <ele>244.0</ele>
        <time>2019-12-21T09:52:26.347Z</time>
      </trkpt>
      <trkpt lat="41.28484167" lon="1.84657167">
        <ele>244.0</ele>
        <time>2019-12-21T09:52:27.372Z</time>
      </trkpt>
      <trkpt lat="41.28484167" lon="1.84657167">
        <ele>244.0</ele>
        <time>2019-12-21T09:52:28.354Z</time>
      </trkpt>
      <trkpt lat="41.28484167" lon="1.84657167">
        <ele>244.0</ele>
        <time>2019-12-21T09:52:29.354Z</time>
      </trkpt>
      <trkpt lat="41.28483167" lon="1.846455">
        <ele>244.0</ele>
        <time>2019-12-21T09:52:30.367Z</time>
      </trkpt>
      <trkpt lat="41.28482333" lon="1.846335">
        <ele>244.0</ele>
        <time>2019-12-21T09:52:31.356Z</time>
      </trkpt>
      <trkpt lat="41.28482333" lon="1.846335">
        <ele>244.0</ele>
        <time>2019-12-21T09:52:32.349Z</time>
      </trkpt>
      <trkpt lat="41.28482333" lon="1.846335">
        <ele>244.0</ele>
        <time>2019-12-21T09:52:33.355Z</time>
      </trkpt>
      <trkpt lat="41.28481333" lon="1.84621333">
        <ele>244.0</ele>
        <time>2019-12-21T09:52:34.368Z</time>
      </trkpt>
      <trkpt lat="41.28481333" lon="1.84621333">
        <ele>244.0</ele>
        <time>2019-12-21T09:52:35.354Z</time>
      </trkpt>
      <trkpt lat="41.28481" lon="1.84610167">
        <ele>244.0</ele>
        <time>2019-12-21T09:52:36.350Z</time>
      </trkpt>
      <trkpt lat="41.28481" lon="1.84610167">
        <ele>244.0</ele>
        <time>2019-12-21T09:52:37.356Z</time>
      </trkpt>
      <trkpt lat="41.28481" lon="1.84599167">
        <ele>244.0</ele>
        <time>2019-12-21T09:52:38.371Z</time>
      </trkpt>
      <trkpt lat="41.28482" lon="1.84588167">
        <ele>244.0</ele>
        <time>2019-12-21T09:52:39.362Z</time>
      </trkpt>
      <trkpt lat="41.28482" lon="1.84588167">
        <ele>244.0</ele>
        <time>2019-12-21T09:52:40.350Z</time>
      </trkpt>
      <trkpt lat="41.28482" lon="1.84588167">
        <ele>244.0</ele>
        <time>2019-12-21T09:52:41.354Z</time>
      </trkpt>
      <trkpt lat="41.284835" lon="1.84577167">
        <ele>244.0</ele>
        <time>2019-12-21T09:52:42.368Z</time>
      </trkpt>
      <trkpt lat="41.284835" lon="1.84577167">
        <ele>244.0</ele>
        <time>2019-12-21T09:52:43.356Z</time>
      </trkpt>
      <trkpt lat="41.28485833" lon="1.84566">
        <ele>244.0</ele>
        <time>2019-12-21T09:52:44.370Z</time>
      </trkpt>
      <trkpt lat="41.28485833" lon="1.84566">
        <ele>244.0</ele>
        <time>2019-12-21T09:52:45.360Z</time>
      </trkpt>
      <trkpt lat="41.28489167" lon="1.84554667">
        <ele>244.0</ele>
        <time>2019-12-21T09:52:46.349Z</time>
      </trkpt>
      <trkpt lat="41.28489167" lon="1.84554667">
        <ele>244.0</ele>
        <time>2019-12-21T09:52:47.354Z</time>
      </trkpt>
      <trkpt lat="41.28493167" lon="1.845435">
        <ele>243.0</ele>
        <time>2019-12-21T09:52:48.367Z</time>
      </trkpt>
      <trkpt lat="41.28493167" lon="1.845435">
        <ele>243.0</ele>
        <time>2019-12-21T09:52:49.356Z</time>
      </trkpt>
      <trkpt lat="41.28497167" lon="1.84532">
        <ele>243.0</ele>
        <time>2019-12-21T09:52:50.371Z</time>
      </trkpt>
      <trkpt lat="41.28501833" lon="1.84520667">
        <ele>243.0</ele>
        <time>2019-12-21T09:52:51.362Z</time>
      </trkpt>
      <trkpt lat="41.28501833" lon="1.84520667">
        <ele>243.0</ele>
        <time>2019-12-21T09:52:52.349Z</time>
      </trkpt>
      <trkpt lat="41.28506667" lon="1.845095">
        <ele>243.0</ele>
        <time>2019-12-21T09:52:53.370Z</time>
      </trkpt>
      <trkpt lat="41.28506667" lon="1.845095">
        <ele>243.0</ele>
        <time>2019-12-21T09:52:54.344Z</time>
      </trkpt>
      <trkpt lat="41.285115" lon="1.844985">
        <ele>243.0</ele>
        <time>2019-12-21T09:52:55.362Z</time>
      </trkpt>
      <trkpt lat="41.285115" lon="1.844985">
        <ele>243.0</ele>
        <time>2019-12-21T09:52:56.367Z</time>
      </trkpt>
      <trkpt lat="41.285115" lon="1.844985">
        <ele>243.0</ele>
        <time>2019-12-21T09:52:57.354Z</time>
      </trkpt>
      <trkpt lat="41.285165" lon="1.84488">
        <ele>243.0</ele>
        <time>2019-12-21T09:52:58.347Z</time>
      </trkpt>
      <trkpt lat="41.285165" lon="1.84488">
        <ele>243.0</ele>
        <time>2019-12-21T09:52:59.355Z</time>
      </trkpt>
      <trkpt lat="41.28521333" lon="1.84477833">
        <ele>243.0</ele>
        <time>2019-12-21T09:53:00.367Z</time>
      </trkpt>
      <trkpt lat="41.28521333" lon="1.84477833">
        <ele>243.0</ele>
        <time>2019-12-21T09:53:01.356Z</time>
      </trkpt>
      <trkpt lat="41.28526" lon="1.84468">
        <ele>243.0</ele>
        <time>2019-12-21T09:53:02.377Z</time>
      </trkpt>
      <trkpt lat="41.28526" lon="1.84468">
        <ele>243.0</ele>
        <time>2019-12-21T09:53:03.359Z</time>
      </trkpt>
      <trkpt lat="41.28530333" lon="1.84458667">
        <ele>244.0</ele>
        <time>2019-12-21T09:53:04.350Z</time>
      </trkpt>
      <trkpt lat="41.28530333" lon="1.84458667">
        <ele>244.0</ele>
        <time>2019-12-21T09:53:05.355Z</time>
      </trkpt>
      <trkpt lat="41.28534333" lon="1.844495">
        <ele>243.0</ele>
        <time>2019-12-21T09:53:06.350Z</time>
      </trkpt>
      <trkpt lat="41.28537333" lon="1.84440167">
        <ele>243.0</ele>
        <time>2019-12-21T09:53:07.371Z</time>
      </trkpt>
      <trkpt lat="41.28537333" lon="1.84440167">
        <ele>243.0</ele>
        <time>2019-12-21T09:53:08.350Z</time>
      </trkpt>
      <trkpt lat="41.28537333" lon="1.84440167">
        <ele>243.0</ele>
        <time>2019-12-21T09:53:09.354Z</time>
      </trkpt>
      <trkpt lat="41.28538833" lon="1.84429667">
        <ele>243.0</ele>
        <time>2019-12-21T09:53:10.367Z</time>
      </trkpt>
      <trkpt lat="41.28538833" lon="1.84429667">
        <ele>243.0</ele>
        <time>2019-12-21T09:53:11.354Z</time>
      </trkpt>
      <trkpt lat="41.28539167" lon="1.84418167">
        <ele>243.0</ele>
        <time>2019-12-21T09:53:12.368Z</time>
      </trkpt>
      <trkpt lat="41.28539167" lon="1.84418167">
        <ele>243.0</ele>
        <time>2019-12-21T09:53:13.356Z</time>
      </trkpt>
      <trkpt lat="41.28539333" lon="1.84405">
        <ele>242.0</ele>
        <time>2019-12-21T09:53:14.371Z</time>
      </trkpt>
      <trkpt lat="41.28538667" lon="1.84389667">
        <ele>241.0</ele>
        <time>2019-12-21T09:53:15.362Z</time>
      </trkpt>
      <trkpt lat="41.28538667" lon="1.84389667">
        <ele>241.0</ele>
        <time>2019-12-21T09:53:16.349Z</time>
      </trkpt>
      <trkpt lat="41.28538667" lon="1.84389667">
        <ele>241.0</ele>
        <time>2019-12-21T09:53:17.354Z</time>
      </trkpt>
      <trkpt lat="41.28538" lon="1.843725">
        <ele>240.0</ele>
        <time>2019-12-21T09:53:18.367Z</time>
      </trkpt>
      <trkpt lat="41.28538" lon="1.843725">
        <ele>240.0</ele>
        <time>2019-12-21T09:53:19.355Z</time>
      </trkpt>
      <trkpt lat="41.28537333" lon="1.843535">
        <ele>238.0</ele>
        <time>2019-12-21T09:53:20.371Z</time>
      </trkpt>
      <trkpt lat="41.28537333" lon="1.843535">
        <ele>238.0</ele>
        <time>2019-12-21T09:53:21.356Z</time>
      </trkpt>
      <trkpt lat="41.28538167" lon="1.84323333">
        <ele>236.0</ele>
        <time>2019-12-21T09:53:22.367Z</time>
      </trkpt>
      <trkpt lat="41.28538167" lon="1.84323333">
        <ele>236.0</ele>
        <time>2019-12-21T09:53:23.349Z</time>
      </trkpt>
      <trkpt lat="41.28538167" lon="1.84323333">
        <ele>236.0</ele>
        <time>2019-12-21T09:53:24.353Z</time>
      </trkpt>
      <trkpt lat="41.28541667" lon="1.843025">
        <ele>235.0</ele>
        <time>2019-12-21T09:53:25.391Z</time>
      </trkpt>
      <trkpt lat="41.28544" lon="1.84292333">
        <ele>235.0</ele>
        <time>2019-12-21T09:53:26.349Z</time>
      </trkpt>
      <trkpt lat="41.28544" lon="1.84292333">
        <ele>235.0</ele>
        <time>2019-12-21T09:53:27.352Z</time>
      </trkpt>
      <trkpt lat="41.28549667" lon="1.84271667">
        <ele>233.0</ele>
        <time>2019-12-21T09:53:28.349Z</time>
      </trkpt>
      <trkpt lat="41.28555833" lon="1.84250667">
        <ele>232.0</ele>
        <time>2019-12-21T09:53:29.371Z</time>
      </trkpt>
      <trkpt lat="41.28555833" lon="1.84250667">
        <ele>232.0</ele>
        <time>2019-12-21T09:53:30.348Z</time>
      </trkpt>
      <trkpt lat="41.28562167" lon="1.842295">
        <ele>230.0</ele>
        <time>2019-12-21T09:53:31.371Z</time>
      </trkpt>
      <trkpt lat="41.28562167" lon="1.842295">
        <ele>230.0</ele>
        <time>2019-12-21T09:53:32.349Z</time>
      </trkpt>
      <trkpt lat="41.28562167" lon="1.842295">
        <ele>230.0</ele>
        <time>2019-12-21T09:53:33.355Z</time>
      </trkpt>
      <trkpt lat="41.285675" lon="1.84210167">
        <ele>229.0</ele>
        <time>2019-12-21T09:53:34.367Z</time>
      </trkpt>
      <trkpt lat="41.285675" lon="1.84210167">
        <ele>229.0</ele>
        <time>2019-12-21T09:53:35.355Z</time>
      </trkpt>
      <trkpt lat="41.28571333" lon="1.84191833">
        <ele>228.0</ele>
        <time>2019-12-21T09:53:36.350Z</time>
      </trkpt>
      <trkpt lat="41.285735" lon="1.84172667">
        <ele>226.0</ele>
        <time>2019-12-21T09:53:37.372Z</time>
      </trkpt>
      <trkpt lat="41.285735" lon="1.84172667">
        <ele>226.0</ele>
        <time>2019-12-21T09:53:38.350Z</time>
      </trkpt>
      <trkpt lat="41.285735" lon="1.84172667">
        <ele>226.0</ele>
        <time>2019-12-21T09:53:39.356Z</time>
      </trkpt>
      <trkpt lat="41.28574333" lon="1.84153">
        <ele>225.0</ele>
        <time>2019-12-21T09:53:40.352Z</time>
      </trkpt>
      <trkpt lat="41.28574333" lon="1.84153">
        <ele>225.0</ele>
        <time>2019-12-21T09:53:41.355Z</time>
      </trkpt>
      <trkpt lat="41.28573833" lon="1.841355">
        <ele>224.0</ele>
        <time>2019-12-21T09:53:42.368Z</time>
      </trkpt>
      <trkpt lat="41.28573833" lon="1.841355">
        <ele>224.0</ele>
        <time>2019-12-21T09:53:43.356Z</time>
      </trkpt>
      <trkpt lat="41.28573333" lon="1.84126167">
        <ele>223.0</ele>
        <time>2019-12-21T09:53:44.371Z</time>
      </trkpt>
      <trkpt lat="41.28573167" lon="1.84116667">
        <ele>222.0</ele>
        <time>2019-12-21T09:53:45.362Z</time>
      </trkpt>
      <trkpt lat="41.28573167" lon="1.84116667">
        <ele>222.0</ele>
        <time>2019-12-21T09:53:46.350Z</time>
      </trkpt>
      <trkpt lat="41.28573167" lon="1.84116667">
        <ele>222.0</ele>
        <time>2019-12-21T09:53:47.356Z</time>
      </trkpt>
      <trkpt lat="41.28571167" lon="1.841045">
        <ele>222.0</ele>
        <time>2019-12-21T09:53:48.367Z</time>
      </trkpt>
      <trkpt lat="41.28571167" lon="1.841045">
        <ele>222.0</ele>
        <time>2019-12-21T09:53:49.356Z</time>
      </trkpt>
      <trkpt lat="41.28567667" lon="1.84091333">
        <ele>220.0</ele>
        <time>2019-12-21T09:53:50.371Z</time>
      </trkpt>
      <trkpt lat="41.28560833" lon="1.84080333">
        <ele>219.0</ele>
        <time>2019-12-21T09:53:51.362Z</time>
      </trkpt>
      <trkpt lat="41.28560833" lon="1.84080333">
        <ele>219.0</ele>
        <time>2019-12-21T09:53:52.349Z</time>
      </trkpt>
      <trkpt lat="41.28560833" lon="1.84080333">
        <ele>219.0</ele>
        <time>2019-12-21T09:53:53.356Z</time>
      </trkpt>
      <trkpt lat="41.28551" lon="1.84071">
        <ele>218.0</ele>
        <time>2019-12-21T09:53:54.341Z</time>
      </trkpt>
      <trkpt lat="41.285405" lon="1.84059833">
        <ele>217.0</ele>
        <time>2019-12-21T09:53:55.366Z</time>
      </trkpt>
      <trkpt lat="41.285405" lon="1.84059833">
        <ele>217.0</ele>
        <time>2019-12-21T09:53:56.371Z</time>
      </trkpt>
      <trkpt lat="41.285405" lon="1.84059833">
        <ele>217.0</ele>
        <time>2019-12-21T09:53:57.355Z</time>
      </trkpt>
      <trkpt lat="41.28529667" lon="1.840475">
        <ele>216.0</ele>
        <time>2019-12-21T09:53:58.367Z</time>
      </trkpt>
      <trkpt lat="41.28529667" lon="1.840475">
        <ele>216.0</ele>
        <time>2019-12-21T09:53:59.354Z</time>
      </trkpt>
      <trkpt lat="41.28520333" lon="1.84036">
        <ele>215.0</ele>
        <time>2019-12-21T09:54:00.367Z</time>
      </trkpt>
      <trkpt lat="41.28520333" lon="1.84036">
        <ele>215.0</ele>
        <time>2019-12-21T09:54:01.356Z</time>
      </trkpt>
      <trkpt lat="41.2851" lon="1.84017333">
        <ele>214.0</ele>
        <time>2019-12-21T09:54:02.372Z</time>
      </trkpt>
      <trkpt lat="41.2851" lon="1.84017333">
        <ele>214.0</ele>
        <time>2019-12-21T09:54:03.352Z</time>
      </trkpt>
      <trkpt lat="41.2851" lon="1.84017333">
        <ele>214.0</ele>
        <time>2019-12-21T09:54:04.354Z</time>
      </trkpt>
      <trkpt lat="41.28504667" lon="1.84003333">
        <ele>213.0</ele>
        <time>2019-12-21T09:54:05.367Z</time>
      </trkpt>
      <trkpt lat="41.28504667" lon="1.84003333">
        <ele>213.0</ele>
        <time>2019-12-21T09:54:06.349Z</time>
      </trkpt>
      <trkpt lat="41.28500667" lon="1.83987333">
        <ele>212.0</ele>
        <time>2019-12-21T09:54:07.356Z</time>
      </trkpt>
      <trkpt lat="41.28498667" lon="1.83979">
        <ele>211.0</ele>
        <time>2019-12-21T09:54:08.368Z</time>
      </trkpt>
      <trkpt lat="41.28498667" lon="1.83979">
        <ele>211.0</ele>
        <time>2019-12-21T09:54:09.356Z</time>
      </trkpt>
      <trkpt lat="41.28495833" lon="1.83961">
        <ele>210.0</ele>
        <time>2019-12-21T09:54:10.367Z</time>
      </trkpt>
      <trkpt lat="41.28495833" lon="1.83961">
        <ele>210.0</ele>
        <time>2019-12-21T09:54:11.354Z</time>
      </trkpt>
      <trkpt lat="41.28495333" lon="1.83942">
        <ele>209.0</ele>
        <time>2019-12-21T09:54:12.367Z</time>
      </trkpt>
      <trkpt lat="41.28495333" lon="1.83942">
        <ele>209.0</ele>
        <time>2019-12-21T09:54:13.356Z</time>
      </trkpt>
      <trkpt lat="41.28494667" lon="1.83923833">
        <ele>208.0</ele>
        <time>2019-12-21T09:54:14.370Z</time>
      </trkpt>
      <trkpt lat="41.28490333" lon="1.83907833">
        <ele>207.0</ele>
        <time>2019-12-21T09:54:15.362Z</time>
      </trkpt>
      <trkpt lat="41.28490333" lon="1.83907833">
        <ele>207.0</ele>
        <time>2019-12-21T09:54:16.364Z</time>
      </trkpt>
      <trkpt lat="41.28490333" lon="1.83907833">
        <ele>207.0</ele>
        <time>2019-12-21T09:54:17.356Z</time>
      </trkpt>
      <trkpt lat="41.28475" lon="1.83892667">
        <ele>205.0</ele>
        <time>2019-12-21T09:54:18.368Z</time>
      </trkpt>
      <trkpt lat="41.28475" lon="1.83892667">
        <ele>205.0</ele>
        <time>2019-12-21T09:54:19.357Z</time>
      </trkpt>
      <trkpt lat="41.28469333" lon="1.83887833">
        <ele>204.0</ele>
        <time>2019-12-21T09:54:20.371Z</time>
      </trkpt>
      <trkpt lat="41.28459333" lon="1.838765">
        <ele>203.0</ele>
        <time>2019-12-21T09:54:21.363Z</time>
      </trkpt>
      <trkpt lat="41.28459333" lon="1.838765">
        <ele>203.0</ele>
        <time>2019-12-21T09:54:22.350Z</time>
      </trkpt>
      <trkpt lat="41.28459333" lon="1.838765">
        <ele>203.0</ele>
        <time>2019-12-21T09:54:23.356Z</time>
      </trkpt>
      <trkpt lat="41.28454833" lon="1.83862">
        <ele>203.0</ele>
        <time>2019-12-21T09:54:24.367Z</time>
      </trkpt>
      <trkpt lat="41.28454833" lon="1.83862">
        <ele>203.0</ele>
        <time>2019-12-21T09:54:25.356Z</time>
      </trkpt>
      <trkpt lat="41.28452333" lon="1.83847167">
        <ele>202.0</ele>
        <time>2019-12-21T09:54:26.371Z</time>
      </trkpt>
      <trkpt lat="41.28452333" lon="1.83847167">
        <ele>202.0</ele>
        <time>2019-12-21T09:54:27.356Z</time>
      </trkpt>
      <trkpt lat="41.28443333" lon="1.83843167">
        <ele>201.0</ele>
        <time>2019-12-21T09:54:28.361Z</time>
      </trkpt>
      <trkpt lat="41.28443333" lon="1.83843167">
        <ele>201.0</ele>
        <time>2019-12-21T09:54:29.354Z</time>
      </trkpt>
      <trkpt lat="41.284315" lon="1.83847">
        <ele>200.0</ele>
        <time>2019-12-21T09:54:30.350Z</time>
      </trkpt>
      <trkpt lat="41.28419" lon="1.83851">
        <ele>199.0</ele>
        <time>2019-12-21T09:54:31.372Z</time>
      </trkpt>
      <trkpt lat="41.28419" lon="1.83851">
        <ele>199.0</ele>
        <time>2019-12-21T09:54:32.354Z</time>
      </trkpt>
      <trkpt lat="41.28419" lon="1.83851">
        <ele>199.0</ele>
        <time>2019-12-21T09:54:33.355Z</time>
      </trkpt>
      <trkpt lat="41.28405833" lon="1.83851333">
        <ele>198.0</ele>
        <time>2019-12-21T09:54:34.348Z</time>
      </trkpt>
      <trkpt lat="41.28393333" lon="1.83845">
        <ele>198.0</ele>
        <time>2019-12-21T09:54:35.371Z</time>
      </trkpt>
      <trkpt lat="41.28393333" lon="1.83845">
        <ele>198.0</ele>
        <time>2019-12-21T09:54:36.351Z</time>
      </trkpt>
      <trkpt lat="41.28393333" lon="1.83845">
        <ele>198.0</ele>
        <time>2019-12-21T09:54:37.336Z</time>
      </trkpt>
      <trkpt lat="41.28381" lon="1.83833333">
        <ele>196.0</ele>
        <time>2019-12-21T09:54:38.368Z</time>
      </trkpt>
      <trkpt lat="41.28381" lon="1.83833333">
        <ele>196.0</ele>
        <time>2019-12-21T09:54:39.355Z</time>
      </trkpt>
      <trkpt lat="41.28369" lon="1.83819">
        <ele>195.0</ele>
        <time>2019-12-21T09:54:40.367Z</time>
      </trkpt>
      <trkpt lat="41.28369" lon="1.83819">
        <ele>195.0</ele>
        <time>2019-12-21T09:54:41.355Z</time>
      </trkpt>
      <trkpt lat="41.28357667" lon="1.83804">
        <ele>195.0</ele>
        <time>2019-12-21T09:54:42.367Z</time>
      </trkpt>
      <trkpt lat="41.28357667" lon="1.83804">
        <ele>195.0</ele>
        <time>2019-12-21T09:54:43.356Z</time>
      </trkpt>
      <trkpt lat="41.283495" lon="1.83788333">
        <ele>195.0</ele>
        <time>2019-12-21T09:54:44.368Z</time>
      </trkpt>
      <trkpt lat="41.283495" lon="1.83788333">
        <ele>195.0</ele>
        <time>2019-12-21T09:54:45.355Z</time>
      </trkpt>
      <trkpt lat="41.28346167" lon="1.83773">
        <ele>194.0</ele>
        <time>2019-12-21T09:54:46.367Z</time>
      </trkpt>
      <trkpt lat="41.28346167" lon="1.83773">
        <ele>194.0</ele>
        <time>2019-12-21T09:54:47.355Z</time>
      </trkpt>
      <trkpt lat="41.28347167" lon="1.83760167">
        <ele>194.0</ele>
        <time>2019-12-21T09:54:48.370Z</time>
      </trkpt>
      <trkpt lat="41.28347167" lon="1.83760167">
        <ele>194.0</ele>
        <time>2019-12-21T09:54:49.357Z</time>
      </trkpt>
      <trkpt lat="41.28350333" lon="1.83749667">
        <ele>195.0</ele>
        <time>2019-12-21T09:54:50.371Z</time>
      </trkpt>
      <trkpt lat="41.28353667" lon="1.83740167">
        <ele>195.0</ele>
        <time>2019-12-21T09:54:51.362Z</time>
      </trkpt>
      <trkpt lat="41.28353667" lon="1.83740167">
        <ele>195.0</ele>
        <time>2019-12-21T09:54:52.350Z</time>
      </trkpt>
      <trkpt lat="41.28353667" lon="1.83740167">
        <ele>195.0</ele>
        <time>2019-12-21T09:54:53.335Z</time>
      </trkpt>
      <trkpt lat="41.28357" lon="1.837315">
        <ele>195.0</ele>
        <time>2019-12-21T09:54:54.350Z</time>
      </trkpt>
      <trkpt lat="41.28357" lon="1.837315">
        <ele>195.0</ele>
        <time>2019-12-21T09:54:55.356Z</time>
      </trkpt>
      <trkpt lat="41.2836" lon="1.83722667">
        <ele>195.0</ele>
        <time>2019-12-21T09:54:56.371Z</time>
      </trkpt>
      <trkpt lat="41.28362" lon="1.83718">
        <ele>195.0</ele>
        <time>2019-12-21T09:54:57.349Z</time>
      </trkpt>
      <trkpt lat="41.28362" lon="1.83718">
        <ele>195.0</ele>
        <time>2019-12-21T09:54:58.355Z</time>
      </trkpt>
      <trkpt lat="41.28366667" lon="1.83707833">
        <ele>195.0</ele>
        <time>2019-12-21T09:54:59.367Z</time>
      </trkpt>
      <trkpt lat="41.28366667" lon="1.83707833">
        <ele>195.0</ele>
        <time>2019-12-21T09:55:00.355Z</time>
      </trkpt>
      <trkpt lat="41.28371833" lon="1.83690167">
        <ele>194.0</ele>
        <time>2019-12-21T09:55:01.367Z</time>
      </trkpt>
      <trkpt lat="41.28371833" lon="1.83690167">
        <ele>194.0</ele>
        <time>2019-12-21T09:55:02.355Z</time>
      </trkpt>
      <trkpt lat="41.28371833" lon="1.83690167">
        <ele>194.0</ele>
        <time>2019-12-21T09:55:03.355Z</time>
      </trkpt>
      <trkpt lat="41.28375333" lon="1.83677667">
        <ele>194.0</ele>
        <time>2019-12-21T09:55:04.350Z</time>
      </trkpt>
      <trkpt lat="41.28378333" lon="1.83664333">
        <ele>193.0</ele>
        <time>2019-12-21T09:55:05.371Z</time>
      </trkpt>
      <trkpt lat="41.28378333" lon="1.83664333">
        <ele>193.0</ele>
        <time>2019-12-21T09:55:06.354Z</time>
      </trkpt>
      <trkpt lat="41.28379667" lon="1.83657167">
        <ele>193.0</ele>
        <time>2019-12-21T09:55:07.367Z</time>
      </trkpt>
      <trkpt lat="41.28379667" lon="1.83657167">
        <ele>193.0</ele>
        <time>2019-12-21T09:55:08.354Z</time>
      </trkpt>
      <trkpt lat="41.28381167" lon="1.83642333">
        <ele>192.0</ele>
        <time>2019-12-21T09:55:09.355Z</time>
      </trkpt>
      <trkpt lat="41.28381333" lon="1.83634333">
        <ele>192.0</ele>
        <time>2019-12-21T09:55:10.350Z</time>
      </trkpt>
      <trkpt lat="41.28380167" lon="1.83619">
        <ele>191.0</ele>
        <time>2019-12-21T09:55:11.371Z</time>
      </trkpt>
      <trkpt lat="41.28380167" lon="1.83619">
        <ele>191.0</ele>
        <time>2019-12-21T09:55:12.349Z</time>
      </trkpt>
      <trkpt lat="41.28380167" lon="1.83619">
        <ele>191.0</ele>
        <time>2019-12-21T09:55:13.356Z</time>
      </trkpt>
      <trkpt lat="41.28376167" lon="1.83605167">
        <ele>190.0</ele>
        <time>2019-12-21T09:55:14.371Z</time>
      </trkpt>
      <trkpt lat="41.28370167" lon="1.83593">
        <ele>190.0</ele>
        <time>2019-12-21T09:55:15.362Z</time>
      </trkpt>
      <trkpt lat="41.28370167" lon="1.83593">
        <ele>190.0</ele>
        <time>2019-12-21T09:55:16.350Z</time>
      </trkpt>
      <trkpt lat="41.28370167" lon="1.83593">
        <ele>190.0</ele>
        <time>2019-12-21T09:55:17.335Z</time>
      </trkpt>
      <trkpt lat="41.28361667" lon="1.83581">
        <ele>190.0</ele>
        <time>2019-12-21T09:55:18.367Z</time>
      </trkpt>
      <trkpt lat="41.28361667" lon="1.83581">
        <ele>190.0</ele>
        <time>2019-12-21T09:55:19.357Z</time>
      </trkpt>
      <trkpt lat="41.283525" lon="1.83569167">
        <ele>189.0</ele>
        <time>2019-12-21T09:55:20.350Z</time>
      </trkpt>
      <trkpt lat="41.283525" lon="1.83569167">
        <ele>189.0</ele>
        <time>2019-12-21T09:55:21.356Z</time>
      </trkpt>
      <trkpt lat="41.28343" lon="1.83556833">
        <ele>189.0</ele>
        <time>2019-12-21T09:55:22.367Z</time>
      </trkpt>
      <trkpt lat="41.28343" lon="1.83556833">
        <ele>189.0</ele>
        <time>2019-12-21T09:55:23.355Z</time>
      </trkpt>
      <trkpt lat="41.28333167" lon="1.835455">
        <ele>188.0</ele>
        <time>2019-12-21T09:55:24.364Z</time>
      </trkpt>
      <trkpt lat="41.28333167" lon="1.835455">
        <ele>188.0</ele>
        <time>2019-12-21T09:55:25.357Z</time>
      </trkpt>
      <trkpt lat="41.28324667" lon="1.83535">
        <ele>187.0</ele>
        <time>2019-12-21T09:55:26.350Z</time>
      </trkpt>
      <trkpt lat="41.28324667" lon="1.83535">
        <ele>187.0</ele>
        <time>2019-12-21T09:55:27.355Z</time>
      </trkpt>
      <trkpt lat="41.28316667" lon="1.83525333">
        <ele>186.0</ele>
        <time>2019-12-21T09:55:28.367Z</time>
      </trkpt>
      <trkpt lat="41.28316667" lon="1.83525333">
        <ele>186.0</ele>
        <time>2019-12-21T09:55:29.355Z</time>
      </trkpt>
      <trkpt lat="41.28302333" lon="1.83523">
        <ele>185.0</ele>
        <time>2019-12-21T09:55:30.367Z</time>
      </trkpt>
      <trkpt lat="41.28302333" lon="1.83523">
        <ele>185.0</ele>
        <time>2019-12-21T09:55:31.356Z</time>
      </trkpt>
      <trkpt lat="41.28297667" lon="1.83524833">
        <ele>184.0</ele>
        <time>2019-12-21T09:55:32.371Z</time>
      </trkpt>
      <trkpt lat="41.28297667" lon="1.83524833">
        <ele>184.0</ele>
        <time>2019-12-21T09:55:33.357Z</time>
      </trkpt>
      <trkpt lat="41.282885" lon="1.835295">
        <ele>183.0</ele>
        <time>2019-12-21T09:55:34.365Z</time>
      </trkpt>
      <trkpt lat="41.282885" lon="1.835295">
        <ele>183.0</ele>
        <time>2019-12-21T09:55:35.355Z</time>
      </trkpt>
      <trkpt lat="41.28278167" lon="1.83534833">
        <ele>183.0</ele>
        <time>2019-12-21T09:55:36.367Z</time>
      </trkpt>
      <trkpt lat="41.28278167" lon="1.83534833">
        <ele>183.0</ele>
        <time>2019-12-21T09:55:37.356Z</time>
      </trkpt>
      <trkpt lat="41.28267333" lon="1.83540167">
        <ele>182.0</ele>
        <time>2019-12-21T09:55:38.371Z</time>
      </trkpt>
      <trkpt lat="41.28256333" lon="1.83542833">
        <ele>181.0</ele>
        <time>2019-12-21T09:55:39.362Z</time>
      </trkpt>
      <trkpt lat="41.28256333" lon="1.83542833">
        <ele>181.0</ele>
        <time>2019-12-21T09:55:40.350Z</time>
      </trkpt>
      <trkpt lat="41.28256333" lon="1.83542833">
        <ele>181.0</ele>
        <time>2019-12-21T09:55:41.355Z</time>
      </trkpt>
      <trkpt lat="41.28245833" lon="1.83541333">
        <ele>180.0</ele>
        <time>2019-12-21T09:55:42.367Z</time>
      </trkpt>
      <trkpt lat="41.28245833" lon="1.83541333">
        <ele>180.0</ele>
        <time>2019-12-21T09:55:43.356Z</time>
      </trkpt>
      <trkpt lat="41.28237" lon="1.83533833">
        <ele>180.0</ele>
        <time>2019-12-21T09:55:44.350Z</time>
      </trkpt>
      <trkpt lat="41.28237" lon="1.83533833">
        <ele>180.0</ele>
        <time>2019-12-21T09:55:45.355Z</time>
      </trkpt>
      <trkpt lat="41.28230167" lon="1.83523">
        <ele>180.0</ele>
        <time>2019-12-21T09:55:46.367Z</time>
      </trkpt>
      <trkpt lat="41.28230167" lon="1.83523">
        <ele>180.0</ele>
        <time>2019-12-21T09:55:47.349Z</time>
      </trkpt>
      <trkpt lat="41.28224333" lon="1.83511333">
        <ele>179.0</ele>
        <time>2019-12-21T09:55:48.359Z</time>
      </trkpt>
      <trkpt lat="41.28221333" lon="1.83506">
        <ele>179.0</ele>
        <time>2019-12-21T09:55:49.355Z</time>
      </trkpt>
      <trkpt lat="41.28218333" lon="1.83501">
        <ele>178.0</ele>
        <time>2019-12-21T09:55:50.371Z</time>
      </trkpt>
      <trkpt lat="41.28218333" lon="1.83501">
        <ele>178.0</ele>
        <time>2019-12-21T09:55:51.361Z</time>
      </trkpt>
      <trkpt lat="41.282115" lon="1.83494333">
        <ele>178.0</ele>
        <time>2019-12-21T09:55:52.365Z</time>
      </trkpt>
      <trkpt lat="41.282115" lon="1.83494333">
        <ele>178.0</ele>
        <time>2019-12-21T09:55:53.355Z</time>
      </trkpt>
      <trkpt lat="41.282035" lon="1.83493833">
        <ele>178.0</ele>
        <time>2019-12-21T09:55:54.363Z</time>
      </trkpt>
      <trkpt lat="41.28195667" lon="1.83498">
        <ele>177.0</ele>
        <time>2019-12-21T09:55:55.362Z</time>
      </trkpt>
      <trkpt lat="41.28195667" lon="1.83498">
        <ele>177.0</ele>
        <time>2019-12-21T09:55:56.368Z</time>
      </trkpt>
      <trkpt lat="41.28195667" lon="1.83498">
        <ele>177.0</ele>
        <time>2019-12-21T09:55:57.351Z</time>
      </trkpt>
      <trkpt lat="41.28190333" lon="1.83504833">
        <ele>177.0</ele>
        <time>2019-12-21T09:55:58.353Z</time>
      </trkpt>
      <trkpt lat="41.28189" lon="1.8351">
        <ele>176.0</ele>
        <time>2019-12-21T09:55:59.368Z</time>
      </trkpt>
      <trkpt lat="41.28189" lon="1.8351">
        <ele>176.0</ele>
        <time>2019-12-21T09:56:00.355Z</time>
      </trkpt>
      <trkpt lat="41.28186333" lon="1.835215">
        <ele>176.0</ele>
        <time>2019-12-21T09:56:01.368Z</time>
      </trkpt>
      <trkpt lat="41.28186333" lon="1.835215">
        <ele>176.0</ele>
        <time>2019-12-21T09:56:02.355Z</time>
      </trkpt>
      <trkpt lat="41.28184833" lon="1.83525667">
        <ele>175.0</ele>
        <time>2019-12-21T09:56:03.350Z</time>
      </trkpt>
      <trkpt lat="41.28184833" lon="1.83525667">
        <ele>175.0</ele>
        <time>2019-12-21T09:56:04.355Z</time>
      </trkpt>
      <trkpt lat="41.28181667" lon="1.83534833">
        <ele>175.0</ele>
        <time>2019-12-21T09:56:05.367Z</time>
      </trkpt>
      <trkpt lat="41.28181667" lon="1.83534833">
        <ele>175.0</ele>
        <time>2019-12-21T09:56:06.355Z</time>
      </trkpt>
      <trkpt lat="41.28180667" lon="1.83541333">
        <ele>174.0</ele>
        <time>2019-12-21T09:56:07.373Z</time>
      </trkpt>
      <trkpt lat="41.28180667" lon="1.83541333">
        <ele>174.0</ele>
        <time>2019-12-21T09:56:08.355Z</time>
      </trkpt>
      <trkpt lat="41.281805" lon="1.835465">
        <ele>173.0</ele>
        <time>2019-12-21T09:56:09.367Z</time>
      </trkpt>
      <trkpt lat="41.281805" lon="1.835465">
        <ele>173.0</ele>
        <time>2019-12-21T09:56:10.354Z</time>
      </trkpt>
      <trkpt lat="41.28179333" lon="1.83550667">
        <ele>173.0</ele>
        <time>2019-12-21T09:56:11.367Z</time>
      </trkpt>
      <trkpt lat="41.28179333" lon="1.83550667">
        <ele>173.0</ele>
        <time>2019-12-21T09:56:12.365Z</time>
      </trkpt>
      <trkpt lat="41.28180333" lon="1.83552333">
        <ele>174.0</ele>
        <time>2019-12-21T09:56:13.357Z</time>
      </trkpt>
      <trkpt lat="41.28180833" lon="1.835525">
        <ele>174.0</ele>
        <time>2019-12-21T09:56:14.351Z</time>
      </trkpt>
      <trkpt lat="41.28180833" lon="1.835525">
        <ele>174.0</ele>
        <time>2019-12-21T09:56:15.355Z</time>
      </trkpt>
      <trkpt lat="41.28180667" lon="1.83553333">
        <ele>175.0</ele>
        <time>2019-12-21T09:56:16.351Z</time>
      </trkpt>
      <trkpt lat="41.28180667" lon="1.83553333">
        <ele>175.0</ele>
        <time>2019-12-21T09:56:17.348Z</time>
      </trkpt>
      <trkpt lat="41.28175833" lon="1.83558">
        <ele>176.0</ele>
        <time>2019-12-21T09:56:18.344Z</time>
      </trkpt>
      <trkpt lat="41.28175833" lon="1.83558">
        <ele>176.0</ele>
        <time>2019-12-21T09:56:19.347Z</time>
      </trkpt>
      <trkpt lat="41.28173" lon="1.83562333">
        <ele>176.0</ele>
        <time>2019-12-21T09:56:20.343Z</time>
      </trkpt>
      <trkpt lat="41.28171333" lon="1.83565667">
        <ele>176.0</ele>
        <time>2019-12-21T09:56:21.369Z</time>
      </trkpt>
      <trkpt lat="41.28171333" lon="1.83565667">
        <ele>176.0</ele>
        <time>2019-12-21T09:56:22.355Z</time>
      </trkpt>
      <trkpt lat="41.28171333" lon="1.83565667">
        <ele>176.0</ele>
        <time>2019-12-21T09:56:23.349Z</time>
      </trkpt>
      <trkpt lat="41.28171167" lon="1.83565">
        <ele>176.0</ele>
        <time>2019-12-21T09:56:24.364Z</time>
      </trkpt>
      <trkpt lat="41.28171333" lon="1.83565">
        <ele>176.0</ele>
        <time>2019-12-21T09:56:25.357Z</time>
      </trkpt>
      <trkpt lat="41.28171333" lon="1.83565">
        <ele>176.0</ele>
        <time>2019-12-21T09:56:26.339Z</time>
      </trkpt>
      <trkpt lat="41.28167833" lon="1.83573833">
        <ele>176.0</ele>
        <time>2019-12-21T09:56:27.333Z</time>
      </trkpt>
      <trkpt lat="41.28167833" lon="1.83573833">
        <ele>176.0</ele>
        <time>2019-12-21T09:56:28.359Z</time>
      </trkpt>
      <trkpt lat="41.28162" lon="1.83575667">
        <ele>175.0</ele>
        <time>2019-12-21T09:56:29.363Z</time>
      </trkpt>
      <trkpt lat="41.28162" lon="1.83575667">
        <ele>175.0</ele>
        <time>2019-12-21T09:56:30.357Z</time>
      </trkpt>
      <trkpt lat="41.28154833" lon="1.83578667">
        <ele>174.0</ele>
        <time>2019-12-21T09:56:31.340Z</time>
      </trkpt>
      <trkpt lat="41.28154833" lon="1.83578667">
        <ele>174.0</ele>
        <time>2019-12-21T09:56:32.364Z</time>
      </trkpt>
      <trkpt lat="41.2815" lon="1.83582167">
        <ele>174.0</ele>
        <time>2019-12-21T09:56:33.365Z</time>
      </trkpt>
      <trkpt lat="41.2815" lon="1.83582167">
        <ele>174.0</ele>
        <time>2019-12-21T09:56:34.359Z</time>
      </trkpt>
      <trkpt lat="41.281485" lon="1.835895">
        <ele>173.0</ele>
        <time>2019-12-21T09:56:35.367Z</time>
      </trkpt>
      <trkpt lat="41.281485" lon="1.835895">
        <ele>173.0</ele>
        <time>2019-12-21T09:56:36.359Z</time>
      </trkpt>
      <trkpt lat="41.28147833" lon="1.835985">
        <ele>173.0</ele>
        <time>2019-12-21T09:56:37.368Z</time>
      </trkpt>
      <trkpt lat="41.28147833" lon="1.835985">
        <ele>173.0</ele>
        <time>2019-12-21T09:56:38.359Z</time>
      </trkpt>
      <trkpt lat="41.28147833" lon="1.83606333">
        <ele>173.0</ele>
        <time>2019-12-21T09:56:39.342Z</time>
      </trkpt>
      <trkpt lat="41.28147833" lon="1.83606333">
        <ele>173.0</ele>
        <time>2019-12-21T09:56:40.365Z</time>
      </trkpt>
      <trkpt lat="41.28144667" lon="1.83615833">
        <ele>173.0</ele>
        <time>2019-12-21T09:56:41.365Z</time>
      </trkpt>
      <trkpt lat="41.28142" lon="1.83619333">
        <ele>173.0</ele>
        <time>2019-12-21T09:56:42.365Z</time>
      </trkpt>
      <trkpt lat="41.28142" lon="1.83619333">
        <ele>173.0</ele>
        <time>2019-12-21T09:56:43.360Z</time>
      </trkpt>
      <trkpt lat="41.281355" lon="1.83623667">
        <ele>172.0</ele>
        <time>2019-12-21T09:56:44.364Z</time>
      </trkpt>
      <trkpt lat="41.28133333" lon="1.83626667">
        <ele>172.0</ele>
        <time>2019-12-21T09:56:45.337Z</time>
      </trkpt>
      <trkpt lat="41.28133333" lon="1.83626667">
        <ele>172.0</ele>
        <time>2019-12-21T09:56:46.360Z</time>
      </trkpt>
      <trkpt lat="41.28131333" lon="1.836365">
        <ele>172.0</ele>
        <time>2019-12-21T09:56:47.348Z</time>
      </trkpt>
      <trkpt lat="41.28131333" lon="1.836365">
        <ele>172.0</ele>
        <time>2019-12-21T09:56:48.370Z</time>
      </trkpt>
      <trkpt lat="41.28126167" lon="1.83649667">
        <ele>172.0</ele>
        <time>2019-12-21T09:56:49.363Z</time>
      </trkpt>
      <trkpt lat="41.28126167" lon="1.83649667">
        <ele>172.0</ele>
        <time>2019-12-21T09:56:50.360Z</time>
      </trkpt>
      <trkpt lat="41.28118167" lon="1.83663667">
        <ele>172.0</ele>
        <time>2019-12-21T09:56:51.342Z</time>
      </trkpt>
      <trkpt lat="41.28118167" lon="1.83663667">
        <ele>172.0</ele>
        <time>2019-12-21T09:56:52.366Z</time>
      </trkpt>
      <trkpt lat="41.28109167" lon="1.8368">
        <ele>171.0</ele>
        <time>2019-12-21T09:56:53.366Z</time>
      </trkpt>
      <trkpt lat="41.28109167" lon="1.8368">
        <ele>171.0</ele>
        <time>2019-12-21T09:56:54.370Z</time>
      </trkpt>
      <trkpt lat="41.28099333" lon="1.83697667">
        <ele>171.0</ele>
        <time>2019-12-21T09:56:55.366Z</time>
      </trkpt>
      <trkpt lat="41.280935" lon="1.83706">
        <ele>171.0</ele>
        <time>2019-12-21T09:56:56.362Z</time>
      </trkpt>
      <trkpt lat="41.28086333" lon="1.83712167">
        <ele>171.0</ele>
        <time>2019-12-21T09:56:57.367Z</time>
      </trkpt>
      <trkpt lat="41.28086333" lon="1.83712167">
        <ele>171.0</ele>
        <time>2019-12-21T09:56:58.338Z</time>
      </trkpt>
      <trkpt lat="41.28069833" lon="1.83722833">
        <ele>170.0</ele>
        <time>2019-12-21T09:56:59.371Z</time>
      </trkpt>
      <trkpt lat="41.28069833" lon="1.83722833">
        <ele>170.0</ele>
        <time>2019-12-21T09:57:00.359Z</time>
      </trkpt>
      <trkpt lat="41.280525" lon="1.83733">
        <ele>169.0</ele>
        <time>2019-12-21T09:57:01.364Z</time>
      </trkpt>
      <trkpt lat="41.280525" lon="1.83733">
        <ele>169.0</ele>
        <time>2019-12-21T09:57:02.360Z</time>
      </trkpt>
      <trkpt lat="41.28036167" lon="1.83742333">
        <ele>168.0</ele>
        <time>2019-12-21T09:57:03.342Z</time>
      </trkpt>
      <trkpt lat="41.28036167" lon="1.83742333">
        <ele>168.0</ele>
        <time>2019-12-21T09:57:04.365Z</time>
      </trkpt>
      <trkpt lat="41.28024833" lon="1.83748833">
        <ele>167.0</ele>
        <time>2019-12-21T09:57:05.366Z</time>
      </trkpt>
      <trkpt lat="41.28024833" lon="1.83748833">
        <ele>167.0</ele>
        <time>2019-12-21T09:57:06.362Z</time>
      </trkpt>
      <trkpt lat="41.28017167" lon="1.83757333">
        <ele>165.0</ele>
        <time>2019-12-21T09:57:07.364Z</time>
      </trkpt>
      <trkpt lat="41.28017167" lon="1.83757333">
        <ele>165.0</ele>
        <time>2019-12-21T09:57:08.359Z</time>
      </trkpt>
      <trkpt lat="41.28011333" lon="1.8377">
        <ele>164.0</ele>
        <time>2019-12-21T09:57:09.341Z</time>
      </trkpt>
      <trkpt lat="41.28011333" lon="1.8377">
        <ele>164.0</ele>
        <time>2019-12-21T09:57:10.365Z</time>
      </trkpt>
      <trkpt lat="41.28007" lon="1.83785167">
        <ele>163.0</ele>
        <time>2019-12-21T09:57:11.364Z</time>
      </trkpt>
      <trkpt lat="41.28007" lon="1.83785167">
        <ele>163.0</ele>
        <time>2019-12-21T09:57:12.360Z</time>
      </trkpt>
      <trkpt lat="41.27999833" lon="1.837985">
        <ele>162.0</ele>
        <time>2019-12-21T09:57:13.364Z</time>
      </trkpt>
      <trkpt lat="41.27999833" lon="1.837985">
        <ele>162.0</ele>
        <time>2019-12-21T09:57:14.359Z</time>
      </trkpt>
      <trkpt lat="41.27989833" lon="1.83807">
        <ele>161.0</ele>
        <time>2019-12-21T09:57:15.348Z</time>
      </trkpt>
      <trkpt lat="41.27989833" lon="1.83807">
        <ele>161.0</ele>
        <time>2019-12-21T09:57:16.360Z</time>
      </trkpt>
      <trkpt lat="41.27978" lon="1.83813">
        <ele>161.0</ele>
        <time>2019-12-21T09:57:17.362Z</time>
      </trkpt>
      <trkpt lat="41.27978" lon="1.83813">
        <ele>161.0</ele>
        <time>2019-12-21T09:57:18.359Z</time>
      </trkpt>
      <trkpt lat="41.27966333" lon="1.83819833">
        <ele>160.0</ele>
        <time>2019-12-21T09:57:19.364Z</time>
      </trkpt>
      <trkpt lat="41.27966333" lon="1.83819833">
        <ele>160.0</ele>
        <time>2019-12-21T09:57:20.360Z</time>
      </trkpt>
      <trkpt lat="41.27954167" lon="1.83826167">
        <ele>160.0</ele>
        <time>2019-12-21T09:57:21.342Z</time>
      </trkpt>
      <trkpt lat="41.27954167" lon="1.83826167">
        <ele>160.0</ele>
        <time>2019-12-21T09:57:22.366Z</time>
      </trkpt>
      <trkpt lat="41.27942333" lon="1.83832333">
        <ele>159.0</ele>
        <time>2019-12-21T09:57:23.364Z</time>
      </trkpt>
      <trkpt lat="41.27942333" lon="1.83832333">
        <ele>159.0</ele>
        <time>2019-12-21T09:57:24.359Z</time>
      </trkpt>
      <trkpt lat="41.27931167" lon="1.83839">
        <ele>159.0</ele>
        <time>2019-12-21T09:57:25.349Z</time>
      </trkpt>
      <trkpt lat="41.27931167" lon="1.83839">
        <ele>159.0</ele>
        <time>2019-12-21T09:57:26.359Z</time>
      </trkpt>
      <trkpt lat="41.27922" lon="1.83848">
        <ele>158.0</ele>
        <time>2019-12-21T09:57:27.341Z</time>
      </trkpt>
      <trkpt lat="41.27922" lon="1.83848">
        <ele>158.0</ele>
        <time>2019-12-21T09:57:28.334Z</time>
      </trkpt>
      <trkpt lat="41.27913667" lon="1.8386">
        <ele>157.0</ele>
        <time>2019-12-21T09:57:29.333Z</time>
      </trkpt>
      <trkpt lat="41.27910333" lon="1.838655">
        <ele>157.0</ele>
        <time>2019-12-21T09:57:30.365Z</time>
      </trkpt>
      <trkpt lat="41.27910333" lon="1.838655">
        <ele>157.0</ele>
        <time>2019-12-21T09:57:31.361Z</time>
      </trkpt>
      <trkpt lat="41.27905" lon="1.83873333">
        <ele>156.0</ele>
        <time>2019-12-21T09:57:32.364Z</time>
      </trkpt>
      <trkpt lat="41.27903333" lon="1.83875833">
        <ele>156.0</ele>
        <time>2019-12-21T09:57:33.366Z</time>
      </trkpt>
      <trkpt lat="41.27903333" lon="1.83875833">
        <ele>156.0</ele>
        <time>2019-12-21T09:57:34.360Z</time>
      </trkpt>
      <trkpt lat="41.27901333" lon="1.83879333">
        <ele>155.0</ele>
        <time>2019-12-21T09:57:35.367Z</time>
      </trkpt>
      <trkpt lat="41.27901333" lon="1.83879333">
        <ele>155.0</ele>
        <time>2019-12-21T09:57:36.358Z</time>
      </trkpt>
      <trkpt lat="41.27900167" lon="1.83883">
        <ele>155.0</ele>
        <time>2019-12-21T09:57:37.341Z</time>
      </trkpt>
      <trkpt lat="41.27900167" lon="1.83883">
        <ele>155.0</ele>
        <time>2019-12-21T09:57:38.335Z</time>
      </trkpt>
      <trkpt lat="41.27897333" lon="1.83888333">
        <ele>154.0</ele>
        <time>2019-12-21T09:57:39.368Z</time>
      </trkpt>
      <trkpt lat="41.27897333" lon="1.83888333">
        <ele>154.0</ele>
        <time>2019-12-21T09:57:40.360Z</time>
      </trkpt>
      <trkpt lat="41.27893" lon="1.83890833">
        <ele>154.0</ele>
        <time>2019-12-21T09:57:41.365Z</time>
      </trkpt>
      <trkpt lat="41.27893" lon="1.83890833">
        <ele>154.0</ele>
        <time>2019-12-21T09:57:42.359Z</time>
      </trkpt>
      <trkpt lat="41.27888833" lon="1.838895">
        <ele>154.0</ele>
        <time>2019-12-21T09:57:43.341Z</time>
      </trkpt>
      <trkpt lat="41.27888833" lon="1.838895">
        <ele>154.0</ele>
        <time>2019-12-21T09:57:44.365Z</time>
      </trkpt>
      <trkpt lat="41.278855" lon="1.83885833">
        <ele>153.0</ele>
        <time>2019-12-21T09:57:45.368Z</time>
      </trkpt>
      <trkpt lat="41.278855" lon="1.83885833">
        <ele>153.0</ele>
        <time>2019-12-21T09:57:46.360Z</time>
      </trkpt>
      <trkpt lat="41.278835" lon="1.838785">
        <ele>153.0</ele>
        <time>2019-12-21T09:57:47.342Z</time>
      </trkpt>
      <trkpt lat="41.278835" lon="1.838785">
        <ele>153.0</ele>
        <time>2019-12-21T09:57:48.367Z</time>
      </trkpt>
      <trkpt lat="41.27883333" lon="1.83869833">
        <ele>152.0</ele>
        <time>2019-12-21T09:57:49.362Z</time>
      </trkpt>
      <trkpt lat="41.27883333" lon="1.83869833">
        <ele>152.0</ele>
        <time>2019-12-21T09:57:50.360Z</time>
      </trkpt>
      <trkpt lat="41.27882833" lon="1.83864">
        <ele>151.0</ele>
        <time>2019-12-21T09:57:51.344Z</time>
      </trkpt>
      <trkpt lat="41.27882833" lon="1.83864">
        <ele>151.0</ele>
        <time>2019-12-21T09:57:52.333Z</time>
      </trkpt>
      <trkpt lat="41.27881667" lon="1.838585">
        <ele>151.0</ele>
        <time>2019-12-21T09:57:53.365Z</time>
      </trkpt>
      <trkpt lat="41.27881667" lon="1.838585">
        <ele>151.0</ele>
        <time>2019-12-21T09:57:54.360Z</time>
      </trkpt>
      <trkpt lat="41.27880667" lon="1.83853333">
        <ele>150.0</ele>
        <time>2019-12-21T09:57:55.337Z</time>
      </trkpt>
      <trkpt lat="41.27880667" lon="1.83853333">
        <ele>150.0</ele>
        <time>2019-12-21T09:57:56.360Z</time>
      </trkpt>
      <trkpt lat="41.2788" lon="1.83848">
        <ele>150.0</ele>
        <time>2019-12-21T09:57:57.365Z</time>
      </trkpt>
      <trkpt lat="41.2788" lon="1.83848">
        <ele>150.0</ele>
        <time>2019-12-21T09:57:58.362Z</time>
      </trkpt>
      <trkpt lat="41.27879167" lon="1.83841833">
        <ele>149.0</ele>
        <time>2019-12-21T09:57:59.365Z</time>
      </trkpt>
      <trkpt lat="41.27879167" lon="1.83841833">
        <ele>149.0</ele>
        <time>2019-12-21T09:58:00.359Z</time>
      </trkpt>
      <trkpt lat="41.27878667" lon="1.83834833">
        <ele>149.0</ele>
        <time>2019-12-21T09:58:01.368Z</time>
      </trkpt>
      <trkpt lat="41.27878667" lon="1.83834833">
        <ele>149.0</ele>
        <time>2019-12-21T09:58:02.360Z</time>
      </trkpt>
      <trkpt lat="41.27878833" lon="1.83827667">
        <ele>149.0</ele>
        <time>2019-12-21T09:58:03.366Z</time>
      </trkpt>
      <trkpt lat="41.27878833" lon="1.83827667">
        <ele>149.0</ele>
        <time>2019-12-21T09:58:04.360Z</time>
      </trkpt>
      <trkpt lat="41.278795" lon="1.838215">
        <ele>148.0</ele>
        <time>2019-12-21T09:58:05.369Z</time>
      </trkpt>
      <trkpt lat="41.278795" lon="1.838215">
        <ele>148.0</ele>
        <time>2019-12-21T09:58:06.360Z</time>
      </trkpt>
      <trkpt lat="41.27880667" lon="1.83815667">
        <ele>148.0</ele>
        <time>2019-12-21T09:58:07.365Z</time>
      </trkpt>
      <trkpt lat="41.27881333" lon="1.83812333">
        <ele>148.0</ele>
        <time>2019-12-21T09:58:08.365Z</time>
      </trkpt>
      <trkpt lat="41.27881333" lon="1.83812333">
        <ele>148.0</ele>
        <time>2019-12-21T09:58:09.361Z</time>
      </trkpt>
      <trkpt lat="41.27883833" lon="1.83805167">
        <ele>148.0</ele>
        <time>2019-12-21T09:58:10.365Z</time>
      </trkpt>
      <trkpt lat="41.27884833" lon="1.83801667">
        <ele>148.0</ele>
        <time>2019-12-21T09:58:11.365Z</time>
      </trkpt>
      <trkpt lat="41.27884833" lon="1.83801667">
        <ele>148.0</ele>
        <time>2019-12-21T09:58:12.359Z</time>
      </trkpt>
      <trkpt lat="41.27886333" lon="1.83794667">
        <ele>147.0</ele>
        <time>2019-12-21T09:58:13.341Z</time>
      </trkpt>
      <trkpt lat="41.27886333" lon="1.83794667">
        <ele>147.0</ele>
        <time>2019-12-21T09:58:14.364Z</time>
      </trkpt>
      <trkpt lat="41.27887333" lon="1.83789167">
        <ele>147.0</ele>
        <time>2019-12-21T09:58:15.369Z</time>
      </trkpt>
      <trkpt lat="41.27887333" lon="1.83789167">
        <ele>147.0</ele>
        <time>2019-12-21T09:58:16.359Z</time>
      </trkpt>
      <trkpt lat="41.27888" lon="1.837815">
        <ele>146.0</ele>
        <time>2019-12-21T09:58:17.341Z</time>
      </trkpt>
      <trkpt lat="41.27888" lon="1.837815">
        <ele>146.0</ele>
        <time>2019-12-21T09:58:18.333Z</time>
      </trkpt>
      <trkpt lat="41.27889333" lon="1.83777667">
        <ele>146.0</ele>
        <time>2019-12-21T09:58:19.364Z</time>
      </trkpt>
      <trkpt lat="41.27889333" lon="1.83777667">
        <ele>146.0</ele>
        <time>2019-12-21T09:58:20.359Z</time>
      </trkpt>
      <trkpt lat="41.278895" lon="1.83773">
        <ele>146.0</ele>
        <time>2019-12-21T09:58:21.342Z</time>
      </trkpt>
      <trkpt lat="41.278895" lon="1.83773">
        <ele>146.0</ele>
        <time>2019-12-21T09:58:22.365Z</time>
      </trkpt>
      <trkpt lat="41.27888" lon="1.83765">
        <ele>146.0</ele>
        <time>2019-12-21T09:58:23.365Z</time>
      </trkpt>
      <trkpt lat="41.27888" lon="1.83765">
        <ele>146.0</ele>
        <time>2019-12-21T09:58:24.359Z</time>
      </trkpt>
      <trkpt lat="41.27884833" lon="1.83757667">
        <ele>145.0</ele>
        <time>2019-12-21T09:58:25.349Z</time>
      </trkpt>
      <trkpt lat="41.278825" lon="1.837545">
        <ele>145.0</ele>
        <time>2019-12-21T09:58:26.345Z</time>
      </trkpt>
      <trkpt lat="41.278825" lon="1.837545">
        <ele>145.0</ele>
        <time>2019-12-21T09:58:27.371Z</time>
      </trkpt>
      <trkpt lat="41.27877667" lon="1.83748">
        <ele>145.0</ele>
        <time>2019-12-21T09:58:28.366Z</time>
      </trkpt>
      <trkpt lat="41.27877667" lon="1.83748">
        <ele>145.0</ele>
        <time>2019-12-21T09:58:29.360Z</time>
      </trkpt>
      <trkpt lat="41.27873167" lon="1.83742667">
        <ele>145.0</ele>
        <time>2019-12-21T09:58:30.365Z</time>
      </trkpt>
      <trkpt lat="41.27873167" lon="1.83742667">
        <ele>145.0</ele>
        <time>2019-12-21T09:58:31.371Z</time>
      </trkpt>
      <trkpt lat="41.27867833" lon="1.83736">
        <ele>144.0</ele>
        <time>2019-12-21T09:58:32.365Z</time>
      </trkpt>
      <trkpt lat="41.27865" lon="1.83732667">
        <ele>144.0</ele>
        <time>2019-12-21T09:58:33.366Z</time>
      </trkpt>
      <trkpt lat="41.27865" lon="1.83732667">
        <ele>144.0</ele>
        <time>2019-12-21T09:58:34.360Z</time>
      </trkpt>
      <trkpt lat="41.2786" lon="1.83726333">
        <ele>144.0</ele>
        <time>2019-12-21T09:58:35.346Z</time>
      </trkpt>
      <trkpt lat="41.2786" lon="1.83726333">
        <ele>144.0</ele>
        <time>2019-12-21T09:58:36.360Z</time>
      </trkpt>
      <trkpt lat="41.27856" lon="1.83720167">
        <ele>144.0</ele>
        <time>2019-12-21T09:58:37.344Z</time>
      </trkpt>
      <trkpt lat="41.27856" lon="1.83720167">
        <ele>144.0</ele>
        <time>2019-12-21T09:58:38.333Z</time>
      </trkpt>
      <trkpt lat="41.27852167" lon="1.837155">
        <ele>144.0</ele>
        <time>2019-12-21T09:58:39.364Z</time>
      </trkpt>
      <trkpt lat="41.27852167" lon="1.837155">
        <ele>144.0</ele>
        <time>2019-12-21T09:58:40.357Z</time>
      </trkpt>
      <trkpt lat="41.27848167" lon="1.83711333">
        <ele>144.0</ele>
        <time>2019-12-21T09:58:41.339Z</time>
      </trkpt>
      <trkpt lat="41.27848167" lon="1.83711333">
        <ele>144.0</ele>
        <time>2019-12-21T09:58:42.366Z</time>
      </trkpt>
      <trkpt lat="41.27842667" lon="1.83705833">
        <ele>144.0</ele>
        <time>2019-12-21T09:58:43.365Z</time>
      </trkpt>
      <trkpt lat="41.27842667" lon="1.83705833">
        <ele>144.0</ele>
        <time>2019-12-21T09:58:44.360Z</time>
      </trkpt>
      <trkpt lat="41.27836" lon="1.83699833">
        <ele>144.0</ele>
        <time>2019-12-21T09:58:45.369Z</time>
      </trkpt>
      <trkpt lat="41.27836" lon="1.83699833">
        <ele>144.0</ele>
        <time>2019-12-21T09:58:46.360Z</time>
      </trkpt>
      <trkpt lat="41.278295" lon="1.83694333">
        <ele>144.0</ele>
        <time>2019-12-21T09:58:47.367Z</time>
      </trkpt>
      <trkpt lat="41.278295" lon="1.83694333">
        <ele>144.0</ele>
        <time>2019-12-21T09:58:48.366Z</time>
      </trkpt>
      <trkpt lat="41.278235" lon="1.83687667">
        <ele>144.0</ele>
        <time>2019-12-21T09:58:49.366Z</time>
      </trkpt>
      <trkpt lat="41.2782" lon="1.83685167">
        <ele>144.0</ele>
        <time>2019-12-21T09:58:50.365Z</time>
      </trkpt>
      <trkpt lat="41.27817" lon="1.83683">
        <ele>144.0</ele>
        <time>2019-12-21T09:58:51.367Z</time>
      </trkpt>
      <trkpt lat="41.27817" lon="1.83683">
        <ele>144.0</ele>
        <time>2019-12-21T09:58:52.360Z</time>
      </trkpt>
      <trkpt lat="41.27811" lon="1.83677833">
        <ele>144.0</ele>
        <time>2019-12-21T09:58:53.365Z</time>
      </trkpt>
      <trkpt lat="41.27811" lon="1.83677833">
        <ele>144.0</ele>
        <time>2019-12-21T09:58:54.360Z</time>
      </trkpt>
      <trkpt lat="41.27804833" lon="1.83673">
        <ele>144.0</ele>
        <time>2019-12-21T09:58:55.362Z</time>
      </trkpt>
      <trkpt lat="41.27801167" lon="1.83671333">
        <ele>144.0</ele>
        <time>2019-12-21T09:58:56.365Z</time>
      </trkpt>
      <trkpt lat="41.27797333" lon="1.83670833">
        <ele>144.0</ele>
        <time>2019-12-21T09:58:57.367Z</time>
      </trkpt>
      <trkpt lat="41.27797333" lon="1.83670833">
        <ele>144.0</ele>
        <time>2019-12-21T09:58:58.360Z</time>
      </trkpt>
      <trkpt lat="41.27790167" lon="1.83672667">
        <ele>144.0</ele>
        <time>2019-12-21T09:58:59.367Z</time>
      </trkpt>
      <trkpt lat="41.27790167" lon="1.83672667">
        <ele>144.0</ele>
        <time>2019-12-21T09:59:00.369Z</time>
      </trkpt>
      <trkpt lat="41.27784333" lon="1.83677333">
        <ele>143.0</ele>
        <time>2019-12-21T09:59:01.365Z</time>
      </trkpt>
      <trkpt lat="41.27784333" lon="1.83677333">
        <ele>143.0</ele>
        <time>2019-12-21T09:59:02.360Z</time>
      </trkpt>
      <trkpt lat="41.27779" lon="1.83683">
        <ele>143.0</ele>
        <time>2019-12-21T09:59:03.343Z</time>
      </trkpt>
      <trkpt lat="41.27779" lon="1.83683">
        <ele>143.0</ele>
        <time>2019-12-21T09:59:04.367Z</time>
      </trkpt>
      <trkpt lat="41.27773333" lon="1.83689333">
        <ele>143.0</ele>
        <time>2019-12-21T09:59:05.369Z</time>
      </trkpt>
      <trkpt lat="41.27773333" lon="1.83689333">
        <ele>143.0</ele>
        <time>2019-12-21T09:59:06.360Z</time>
      </trkpt>
      <trkpt lat="41.277685" lon="1.83695167">
        <ele>144.0</ele>
        <time>2019-12-21T09:59:07.342Z</time>
      </trkpt>
      <trkpt lat="41.27765667" lon="1.83698333">
        <ele>144.0</ele>
        <time>2019-12-21T09:59:08.366Z</time>
      </trkpt>
      <trkpt lat="41.27762833" lon="1.83701167">
        <ele>144.0</ele>
        <time>2019-12-21T09:59:09.367Z</time>
      </trkpt>
      <trkpt lat="41.27762833" lon="1.83701167">
        <ele>144.0</ele>
        <time>2019-12-21T09:59:10.360Z</time>
      </trkpt>
      <trkpt lat="41.27757" lon="1.83705667">
        <ele>145.0</ele>
        <time>2019-12-21T09:59:11.344Z</time>
      </trkpt>
      <trkpt lat="41.27757" lon="1.83705667">
        <ele>145.0</ele>
        <time>2019-12-21T09:59:12.339Z</time>
      </trkpt>
      <trkpt lat="41.27750333" lon="1.83706167">
        <ele>146.0</ele>
        <time>2019-12-21T09:59:13.366Z</time>
      </trkpt>
      <trkpt lat="41.27750333" lon="1.83706167">
        <ele>146.0</ele>
        <time>2019-12-21T09:59:14.356Z</time>
      </trkpt>
      <trkpt lat="41.27744" lon="1.83703667">
        <ele>147.0</ele>
        <time>2019-12-21T09:59:15.339Z</time>
      </trkpt>
      <trkpt lat="41.27744" lon="1.83703667">
        <ele>147.0</ele>
        <time>2019-12-21T09:59:16.360Z</time>
      </trkpt>
      <trkpt lat="41.27738333" lon="1.83700333">
        <ele>147.0</ele>
        <time>2019-12-21T09:59:17.365Z</time>
      </trkpt>
      <trkpt lat="41.27738333" lon="1.83700333">
        <ele>147.0</ele>
        <time>2019-12-21T09:59:18.360Z</time>
      </trkpt>
      <trkpt lat="41.27734333" lon="1.83698">
        <ele>148.0</ele>
        <time>2019-12-21T09:59:19.361Z</time>
      </trkpt>
      <trkpt lat="41.27731667" lon="1.83697833">
        <ele>148.0</ele>
        <time>2019-12-21T09:59:20.364Z</time>
      </trkpt>
      <trkpt lat="41.27728667" lon="1.83697167">
        <ele>149.0</ele>
        <time>2019-12-21T09:59:21.367Z</time>
      </trkpt>
      <trkpt lat="41.27728667" lon="1.83697167">
        <ele>149.0</ele>
        <time>2019-12-21T09:59:22.360Z</time>
      </trkpt>
      <trkpt lat="41.27722667" lon="1.83696">
        <ele>150.0</ele>
        <time>2019-12-21T09:59:23.365Z</time>
      </trkpt>
      <trkpt lat="41.27722667" lon="1.83696">
        <ele>150.0</ele>
        <time>2019-12-21T09:59:24.360Z</time>
      </trkpt>
      <trkpt lat="41.27716833" lon="1.83696167">
        <ele>150.0</ele>
        <time>2019-12-21T09:59:25.349Z</time>
      </trkpt>
      <trkpt lat="41.27716833" lon="1.83696167">
        <ele>150.0</ele>
        <time>2019-12-21T09:59:26.360Z</time>
      </trkpt>
      <trkpt lat="41.27710333" lon="1.83697167">
        <ele>150.0</ele>
        <time>2019-12-21T09:59:27.341Z</time>
      </trkpt>
      <trkpt lat="41.27710333" lon="1.83697167">
        <ele>150.0</ele>
        <time>2019-12-21T09:59:28.364Z</time>
      </trkpt>
      <trkpt lat="41.277035" lon="1.83698833">
        <ele>150.0</ele>
        <time>2019-12-21T09:59:29.363Z</time>
      </trkpt>
      <trkpt lat="41.27700333" lon="1.836995">
        <ele>150.0</ele>
        <time>2019-12-21T09:59:30.366Z</time>
      </trkpt>
      <trkpt lat="41.27700333" lon="1.836995">
        <ele>150.0</ele>
        <time>2019-12-21T09:59:31.360Z</time>
      </trkpt>
      <trkpt lat="41.27694" lon="1.83701">
        <ele>151.0</ele>
        <time>2019-12-21T09:59:32.345Z</time>
      </trkpt>
      <trkpt lat="41.27690667" lon="1.83701833">
        <ele>151.0</ele>
        <time>2019-12-21T09:59:33.369Z</time>
      </trkpt>
      <trkpt lat="41.27690667" lon="1.83701833">
        <ele>151.0</ele>
        <time>2019-12-21T09:59:34.360Z</time>
      </trkpt>
      <trkpt lat="41.27684333" lon="1.83702667">
        <ele>151.0</ele>
        <time>2019-12-21T09:59:35.367Z</time>
      </trkpt>
      <trkpt lat="41.27684333" lon="1.83702667">
        <ele>151.0</ele>
        <time>2019-12-21T09:59:36.360Z</time>
      </trkpt>
      <trkpt lat="41.27678167" lon="1.83704333">
        <ele>152.0</ele>
        <time>2019-12-21T09:59:37.345Z</time>
      </trkpt>
      <trkpt lat="41.27678167" lon="1.83704333">
        <ele>152.0</ele>
        <time>2019-12-21T09:59:38.368Z</time>
      </trkpt>
      <trkpt lat="41.27672167" lon="1.83705833">
        <ele>152.0</ele>
        <time>2019-12-21T09:59:39.345Z</time>
      </trkpt>
      <trkpt lat="41.27672167" lon="1.83705833">
        <ele>152.0</ele>
        <time>2019-12-21T09:59:40.368Z</time>
      </trkpt>
      <trkpt lat="41.27666667" lon="1.83706833">
        <ele>152.0</ele>
        <time>2019-12-21T09:59:41.367Z</time>
      </trkpt>
      <trkpt lat="41.27666667" lon="1.83706833">
        <ele>152.0</ele>
        <time>2019-12-21T09:59:42.360Z</time>
      </trkpt>
      <trkpt lat="41.27660833" lon="1.83708167">
        <ele>152.0</ele>
        <time>2019-12-21T09:59:43.365Z</time>
      </trkpt>
      <trkpt lat="41.27660833" lon="1.83708167">
        <ele>152.0</ele>
        <time>2019-12-21T09:59:44.359Z</time>
      </trkpt>
      <trkpt lat="41.27654833" lon="1.83711">
        <ele>153.0</ele>
        <time>2019-12-21T09:59:45.369Z</time>
      </trkpt>
      <trkpt lat="41.27654833" lon="1.83711">
        <ele>153.0</ele>
        <time>2019-12-21T09:59:46.360Z</time>
      </trkpt>
      <trkpt lat="41.27648333" lon="1.83714333">
        <ele>153.0</ele>
        <time>2019-12-21T09:59:47.364Z</time>
      </trkpt>
      <trkpt lat="41.27648333" lon="1.83714333">
        <ele>153.0</ele>
        <time>2019-12-21T09:59:48.360Z</time>
      </trkpt>
      <trkpt lat="41.27642333" lon="1.83718167">
        <ele>154.0</ele>
        <time>2019-12-21T09:59:49.372Z</time>
      </trkpt>
      <trkpt lat="41.27642333" lon="1.83718167">
        <ele>154.0</ele>
        <time>2019-12-21T09:59:50.360Z</time>
      </trkpt>
      <trkpt lat="41.276365" lon="1.83723167">
        <ele>155.0</ele>
        <time>2019-12-21T09:59:51.342Z</time>
      </trkpt>
      <trkpt lat="41.276365" lon="1.83723167">
        <ele>155.0</ele>
        <time>2019-12-21T09:59:52.365Z</time>
      </trkpt>
      <trkpt lat="41.27630333" lon="1.837255">
        <ele>155.0</ele>
        <time>2019-12-21T09:59:53.365Z</time>
      </trkpt>
      <trkpt lat="41.27630333" lon="1.837255">
        <ele>155.0</ele>
        <time>2019-12-21T09:59:54.360Z</time>
      </trkpt>
      <trkpt lat="41.27625" lon="1.83728333">
        <ele>156.0</ele>
        <time>2019-12-21T09:59:55.336Z</time>
      </trkpt>
      <trkpt lat="41.27625" lon="1.83728333">
        <ele>156.0</ele>
        <time>2019-12-21T09:59:56.360Z</time>
      </trkpt>
      <trkpt lat="41.27619333" lon="1.83731667">
        <ele>156.0</ele>
        <time>2019-12-21T09:59:57.347Z</time>
      </trkpt>
      <trkpt lat="41.27619333" lon="1.83731667">
        <ele>156.0</ele>
        <time>2019-12-21T09:59:58.371Z</time>
      </trkpt>
      <trkpt lat="41.27613333" lon="1.83734667">
        <ele>157.0</ele>
        <time>2019-12-21T09:59:59.342Z</time>
      </trkpt>
      <trkpt lat="41.27613333" lon="1.83734667">
        <ele>157.0</ele>
        <time>2019-12-21T10:00:00.366Z</time>
      </trkpt>
      <trkpt lat="41.27607667" lon="1.83738">
        <ele>158.0</ele>
        <time>2019-12-21T10:00:01.365Z</time>
      </trkpt>
      <trkpt lat="41.27607667" lon="1.83738">
        <ele>158.0</ele>
        <time>2019-12-21T10:00:02.360Z</time>
      </trkpt>
      <trkpt lat="41.27602333" lon="1.83740667">
        <ele>159.0</ele>
        <time>2019-12-21T10:00:03.342Z</time>
      </trkpt>
      <trkpt lat="41.27602333" lon="1.83740667">
        <ele>159.0</ele>
        <time>2019-12-21T10:00:04.366Z</time>
      </trkpt>
      <trkpt lat="41.27598333" lon="1.83743833">
        <ele>159.0</ele>
        <time>2019-12-21T10:00:05.369Z</time>
      </trkpt>
      <trkpt lat="41.27598333" lon="1.83743833">
        <ele>159.0</ele>
        <time>2019-12-21T10:00:06.361Z</time>
      </trkpt>
      <trkpt lat="41.27594667" lon="1.83747167">
        <ele>160.0</ele>
        <time>2019-12-21T10:00:07.368Z</time>
      </trkpt>
      <trkpt lat="41.27594667" lon="1.83747167">
        <ele>160.0</ele>
        <time>2019-12-21T10:00:08.361Z</time>
      </trkpt>
      <trkpt lat="41.27590833" lon="1.83749833">
        <ele>161.0</ele>
        <time>2019-12-21T10:00:09.349Z</time>
      </trkpt>
      <trkpt lat="41.27590833" lon="1.83749833">
        <ele>161.0</ele>
        <time>2019-12-21T10:00:10.372Z</time>
      </trkpt>
      <trkpt lat="41.27586" lon="1.83754167">
        <ele>163.0</ele>
        <time>2019-12-21T10:00:11.365Z</time>
      </trkpt>
      <trkpt lat="41.27586" lon="1.83754167">
        <ele>163.0</ele>
        <time>2019-12-21T10:00:12.360Z</time>
      </trkpt>
      <trkpt lat="41.27580333" lon="1.83759167">
        <ele>164.0</ele>
        <time>2019-12-21T10:00:13.342Z</time>
      </trkpt>
      <trkpt lat="41.27580333" lon="1.83759167">
        <ele>164.0</ele>
        <time>2019-12-21T10:00:14.366Z</time>
      </trkpt>
      <trkpt lat="41.27574167" lon="1.83762333">
        <ele>165.0</ele>
        <time>2019-12-21T10:00:15.369Z</time>
      </trkpt>
      <trkpt lat="41.27574167" lon="1.83762333">
        <ele>165.0</ele>
        <time>2019-12-21T10:00:16.358Z</time>
      </trkpt>
      <trkpt lat="41.27567333" lon="1.837645">
        <ele>166.0</ele>
        <time>2019-12-21T10:00:17.340Z</time>
      </trkpt>
      <trkpt lat="41.27567333" lon="1.837645">
        <ele>166.0</ele>
        <time>2019-12-21T10:00:18.364Z</time>
      </trkpt>
      <trkpt lat="41.27559167" lon="1.837635">
        <ele>167.0</ele>
        <time>2019-12-21T10:00:19.368Z</time>
      </trkpt>
      <trkpt lat="41.27559167" lon="1.837635">
        <ele>167.0</ele>
        <time>2019-12-21T10:00:20.360Z</time>
      </trkpt>
      <trkpt lat="41.27550667" lon="1.83759">
        <ele>168.0</ele>
        <time>2019-12-21T10:00:21.342Z</time>
      </trkpt>
      <trkpt lat="41.27550667" lon="1.83759">
        <ele>168.0</ele>
        <time>2019-12-21T10:00:22.365Z</time>
      </trkpt>
      <trkpt lat="41.27546" lon="1.837515">
        <ele>168.0</ele>
        <time>2019-12-21T10:00:23.365Z</time>
      </trkpt>
      <trkpt lat="41.27546" lon="1.837515">
        <ele>168.0</ele>
        <time>2019-12-21T10:00:24.360Z</time>
      </trkpt>
      <trkpt lat="41.27545" lon="1.83743333">
        <ele>169.0</ele>
        <time>2019-12-21T10:00:25.366Z</time>
      </trkpt>
      <trkpt lat="41.27545" lon="1.83743333">
        <ele>169.0</ele>
        <time>2019-12-21T10:00:26.360Z</time>
      </trkpt>
      <trkpt lat="41.27545833" lon="1.83737333">
        <ele>168.0</ele>
        <time>2019-12-21T10:00:27.342Z</time>
      </trkpt>
      <trkpt lat="41.27545833" lon="1.83737333">
        <ele>168.0</ele>
        <time>2019-12-21T10:00:28.367Z</time>
      </trkpt>
      <trkpt lat="41.275485" lon="1.83730667">
        <ele>168.0</ele>
        <time>2019-12-21T10:00:29.338Z</time>
      </trkpt>
      <trkpt lat="41.27549667" lon="1.83728333">
        <ele>168.0</ele>
        <time>2019-12-21T10:00:30.367Z</time>
      </trkpt>
      <trkpt lat="41.27549667" lon="1.83728333">
        <ele>168.0</ele>
        <time>2019-12-21T10:00:31.361Z</time>
      </trkpt>
      <trkpt lat="41.27552667" lon="1.83723833">
        <ele>168.0</ele>
        <time>2019-12-21T10:00:32.369Z</time>
      </trkpt>
      <trkpt lat="41.27554333" lon="1.83721333">
        <ele>168.0</ele>
        <time>2019-12-21T10:00:33.368Z</time>
      </trkpt>
      <trkpt lat="41.27554333" lon="1.83721333">
        <ele>168.0</ele>
        <time>2019-12-21T10:00:34.361Z</time>
      </trkpt>
      <trkpt lat="41.27556333" lon="1.83717667">
        <ele>168.0</ele>
        <time>2019-12-21T10:00:35.363Z</time>
      </trkpt>
      <trkpt lat="41.27556333" lon="1.83717667">
        <ele>168.0</ele>
        <time>2019-12-21T10:00:36.361Z</time>
      </trkpt>
      <trkpt lat="41.27559333" lon="1.83713333">
        <ele>169.0</ele>
        <time>2019-12-21T10:00:37.345Z</time>
      </trkpt>
      <trkpt lat="41.27559333" lon="1.83713333">
        <ele>169.0</ele>
        <time>2019-12-21T10:00:38.368Z</time>
      </trkpt>
      <trkpt lat="41.27562833" lon="1.83708">
        <ele>169.0</ele>
        <time>2019-12-21T10:00:39.370Z</time>
      </trkpt>
      <trkpt lat="41.27562833" lon="1.83708">
        <ele>169.0</ele>
        <time>2019-12-21T10:00:40.333Z</time>
      </trkpt>
      <trkpt lat="41.27565833" lon="1.83704333">
        <ele>169.0</ele>
        <time>2019-12-21T10:00:41.367Z</time>
      </trkpt>
      <trkpt lat="41.27565833" lon="1.83704333">
        <ele>169.0</ele>
        <time>2019-12-21T10:00:42.361Z</time>
      </trkpt>
      <trkpt lat="41.27569333" lon="1.837">
        <ele>170.0</ele>
        <time>2019-12-21T10:00:43.366Z</time>
      </trkpt>
      <trkpt lat="41.27570667" lon="1.836975">
        <ele>170.0</ele>
        <time>2019-12-21T10:00:44.366Z</time>
      </trkpt>
      <trkpt lat="41.27572" lon="1.83695333">
        <ele>170.0</ele>
        <time>2019-12-21T10:00:45.369Z</time>
      </trkpt>
      <trkpt lat="41.27572" lon="1.83695333">
        <ele>170.0</ele>
        <time>2019-12-21T10:00:46.363Z</time>
      </trkpt>
      <trkpt lat="41.27575" lon="1.83691">
        <ele>170.0</ele>
        <time>2019-12-21T10:00:47.346Z</time>
      </trkpt>
      <trkpt lat="41.27575" lon="1.83691">
        <ele>170.0</ele>
        <time>2019-12-21T10:00:48.339Z</time>
      </trkpt>
      <trkpt lat="41.27577333" lon="1.83686667">
        <ele>170.0</ele>
        <time>2019-12-21T10:00:49.365Z</time>
      </trkpt>
      <trkpt lat="41.27577333" lon="1.83686667">
        <ele>170.0</ele>
        <time>2019-12-21T10:00:50.362Z</time>
      </trkpt>
      <trkpt lat="41.27580333" lon="1.83682833">
        <ele>171.0</ele>
        <time>2019-12-21T10:00:51.369Z</time>
      </trkpt>
      <trkpt lat="41.27580333" lon="1.83682833">
        <ele>171.0</ele>
        <time>2019-12-21T10:00:52.362Z</time>
      </trkpt>
      <trkpt lat="41.275835" lon="1.83678167">
        <ele>172.0</ele>
        <time>2019-12-21T10:00:53.335Z</time>
      </trkpt>
      <trkpt lat="41.275835" lon="1.83678167">
        <ele>172.0</ele>
        <time>2019-12-21T10:00:54.362Z</time>
      </trkpt>
      <trkpt lat="41.27586667" lon="1.83673833">
        <ele>172.0</ele>
        <time>2019-12-21T10:00:55.338Z</time>
      </trkpt>
      <trkpt lat="41.27586667" lon="1.83673833">
        <ele>172.0</ele>
        <time>2019-12-21T10:00:56.364Z</time>
      </trkpt>
      <trkpt lat="41.27590167" lon="1.83668333">
        <ele>173.0</ele>
        <time>2019-12-21T10:00:57.333Z</time>
      </trkpt>
      <trkpt lat="41.27590167" lon="1.83668333">
        <ele>173.0</ele>
        <time>2019-12-21T10:00:58.363Z</time>
      </trkpt>
      <trkpt lat="41.27593" lon="1.83663167">
        <ele>174.0</ele>
        <time>2019-12-21T10:00:59.367Z</time>
      </trkpt>
      <trkpt lat="41.27593" lon="1.83663167">
        <ele>174.0</ele>
        <time>2019-12-21T10:01:00.362Z</time>
      </trkpt>
      <trkpt lat="41.27596667" lon="1.83658">
        <ele>175.0</ele>
        <time>2019-12-21T10:01:01.333Z</time>
      </trkpt>
      <trkpt lat="41.27596667" lon="1.83658">
        <ele>175.0</ele>
        <time>2019-12-21T10:01:02.362Z</time>
      </trkpt>
      <trkpt lat="41.27601" lon="1.83652667">
        <ele>176.0</ele>
        <time>2019-12-21T10:01:03.368Z</time>
      </trkpt>
      <trkpt lat="41.27601" lon="1.83652667">
        <ele>176.0</ele>
        <time>2019-12-21T10:01:04.362Z</time>
      </trkpt>
      <trkpt lat="41.27604833" lon="1.83647833">
        <ele>176.0</ele>
        <time>2019-12-21T10:01:05.369Z</time>
      </trkpt>
      <trkpt lat="41.27604833" lon="1.83647833">
        <ele>176.0</ele>
        <time>2019-12-21T10:01:06.363Z</time>
      </trkpt>
      <trkpt lat="41.27608167" lon="1.836435">
        <ele>176.0</ele>
        <time>2019-12-21T10:01:07.345Z</time>
      </trkpt>
      <trkpt lat="41.27608167" lon="1.836435">
        <ele>176.0</ele>
        <time>2019-12-21T10:01:08.369Z</time>
      </trkpt>
      <trkpt lat="41.27611167" lon="1.83639">
        <ele>177.0</ele>
        <time>2019-12-21T10:01:09.368Z</time>
      </trkpt>
      <trkpt lat="41.27611167" lon="1.83639">
        <ele>177.0</ele>
        <time>2019-12-21T10:01:10.363Z</time>
      </trkpt>
      <trkpt lat="41.27614167" lon="1.83634167">
        <ele>177.0</ele>
        <time>2019-12-21T10:01:11.366Z</time>
      </trkpt>
      <trkpt lat="41.27614167" lon="1.83634167">
        <ele>177.0</ele>
        <time>2019-12-21T10:01:12.363Z</time>
      </trkpt>
      <trkpt lat="41.27617" lon="1.83629">
        <ele>177.0</ele>
        <time>2019-12-21T10:01:13.366Z</time>
      </trkpt>
      <trkpt lat="41.27617" lon="1.83629">
        <ele>177.0</ele>
        <time>2019-12-21T10:01:14.363Z</time>
      </trkpt>
      <trkpt lat="41.27619333" lon="1.83623333">
        <ele>177.0</ele>
        <time>2019-12-21T10:01:15.369Z</time>
      </trkpt>
      <trkpt lat="41.27619333" lon="1.83623333">
        <ele>177.0</ele>
        <time>2019-12-21T10:01:16.362Z</time>
      </trkpt>
      <trkpt lat="41.27621" lon="1.83618">
        <ele>176.0</ele>
        <time>2019-12-21T10:01:17.346Z</time>
      </trkpt>
      <trkpt lat="41.27621" lon="1.83618">
        <ele>176.0</ele>
        <time>2019-12-21T10:01:18.339Z</time>
      </trkpt>
      <trkpt lat="41.27622" lon="1.83612833">
        <ele>176.0</ele>
        <time>2019-12-21T10:01:19.366Z</time>
      </trkpt>
      <trkpt lat="41.27622" lon="1.83612833">
        <ele>176.0</ele>
        <time>2019-12-21T10:01:20.356Z</time>
      </trkpt>
      <trkpt lat="41.27622833" lon="1.83607167">
        <ele>176.0</ele>
        <time>2019-12-21T10:01:21.337Z</time>
      </trkpt>
      <trkpt lat="41.27622833" lon="1.83607167">
        <ele>176.0</ele>
        <time>2019-12-21T10:01:22.362Z</time>
      </trkpt>
      <trkpt lat="41.276225" lon="1.83602333">
        <ele>176.0</ele>
        <time>2019-12-21T10:01:23.367Z</time>
      </trkpt>
      <trkpt lat="41.276225" lon="1.83602333">
        <ele>176.0</ele>
        <time>2019-12-21T10:01:24.362Z</time>
      </trkpt>
      <trkpt lat="41.27621833" lon="1.83598333">
        <ele>176.0</ele>
        <time>2019-12-21T10:01:25.368Z</time>
      </trkpt>
      <trkpt lat="41.27621833" lon="1.83598333">
        <ele>176.0</ele>
        <time>2019-12-21T10:01:26.363Z</time>
      </trkpt>
      <trkpt lat="41.27620833" lon="1.83593667">
        <ele>176.0</ele>
        <time>2019-12-21T10:01:27.367Z</time>
      </trkpt>
      <trkpt lat="41.27620833" lon="1.83593667">
        <ele>176.0</ele>
        <time>2019-12-21T10:01:28.362Z</time>
      </trkpt>
      <trkpt lat="41.27618833" lon="1.83589333">
        <ele>176.0</ele>
        <time>2019-12-21T10:01:29.367Z</time>
      </trkpt>
      <trkpt lat="41.27618833" lon="1.83589333">
        <ele>176.0</ele>
        <time>2019-12-21T10:01:30.349Z</time>
      </trkpt>
      <trkpt lat="41.27617" lon="1.83585167">
        <ele>176.0</ele>
        <time>2019-12-21T10:01:31.333Z</time>
      </trkpt>
      <trkpt lat="41.27617" lon="1.83585167">
        <ele>176.0</ele>
        <time>2019-12-21T10:01:32.362Z</time>
      </trkpt>
      <trkpt lat="41.27614667" lon="1.83580667">
        <ele>176.0</ele>
        <time>2019-12-21T10:01:33.368Z</time>
      </trkpt>
      <trkpt lat="41.27614667" lon="1.83580667">
        <ele>176.0</ele>
        <time>2019-12-21T10:01:34.362Z</time>
      </trkpt>
      <trkpt lat="41.27613167" lon="1.835755">
        <ele>177.0</ele>
        <time>2019-12-21T10:01:35.370Z</time>
      </trkpt>
      <trkpt lat="41.27613167" lon="1.835755">
        <ele>177.0</ele>
        <time>2019-12-21T10:01:36.367Z</time>
      </trkpt>
      <trkpt lat="41.27609667" lon="1.83569833">
        <ele>177.0</ele>
        <time>2019-12-21T10:01:37.366Z</time>
      </trkpt>
      <trkpt lat="41.27607833" lon="1.83567667">
        <ele>177.0</ele>
        <time>2019-12-21T10:01:38.368Z</time>
      </trkpt>
      <trkpt lat="41.27607833" lon="1.83567667">
        <ele>177.0</ele>
        <time>2019-12-21T10:01:39.363Z</time>
      </trkpt>
      <trkpt lat="41.27605" lon="1.83563167">
        <ele>177.0</ele>
        <time>2019-12-21T10:01:40.368Z</time>
      </trkpt>
      <trkpt lat="41.27602833" lon="1.83560833">
        <ele>177.0</ele>
        <time>2019-12-21T10:01:41.367Z</time>
      </trkpt>
      <trkpt lat="41.27602833" lon="1.83560833">
        <ele>177.0</ele>
        <time>2019-12-21T10:01:42.362Z</time>
      </trkpt>
      <trkpt lat="41.27598833" lon="1.83557667">
        <ele>177.0</ele>
        <time>2019-12-21T10:01:43.366Z</time>
      </trkpt>
      <trkpt lat="41.27598833" lon="1.83557667">
        <ele>177.0</ele>
        <time>2019-12-21T10:01:44.364Z</time>
      </trkpt>
      <trkpt lat="41.275955" lon="1.83554">
        <ele>177.0</ele>
        <time>2019-12-21T10:01:45.370Z</time>
      </trkpt>
      <trkpt lat="41.275955" lon="1.83554">
        <ele>177.0</ele>
        <time>2019-12-21T10:01:46.363Z</time>
      </trkpt>
      <trkpt lat="41.27591833" lon="1.83549333">
        <ele>177.0</ele>
        <time>2019-12-21T10:01:47.347Z</time>
      </trkpt>
      <trkpt lat="41.27591833" lon="1.83549333">
        <ele>177.0</ele>
        <time>2019-12-21T10:01:48.339Z</time>
      </trkpt>
      <trkpt lat="41.27588" lon="1.83544833">
        <ele>177.0</ele>
        <time>2019-12-21T10:01:49.366Z</time>
      </trkpt>
      <trkpt lat="41.27588" lon="1.83544833">
        <ele>177.0</ele>
        <time>2019-12-21T10:01:50.370Z</time>
      </trkpt>
      <trkpt lat="41.27583667" lon="1.83541833">
        <ele>178.0</ele>
        <time>2019-12-21T10:01:51.368Z</time>
      </trkpt>
      <trkpt lat="41.27583667" lon="1.83541833">
        <ele>178.0</ele>
        <time>2019-12-21T10:01:52.359Z</time>
      </trkpt>
      <trkpt lat="41.27580833" lon="1.83539667">
        <ele>178.0</ele>
        <time>2019-12-21T10:01:53.341Z</time>
      </trkpt>
      <trkpt lat="41.27580833" lon="1.83539667">
        <ele>178.0</ele>
        <time>2019-12-21T10:01:54.340Z</time>
      </trkpt>
      <trkpt lat="41.275785" lon="1.835375">
        <ele>179.0</ele>
        <time>2019-12-21T10:01:55.346Z</time>
      </trkpt>
      <trkpt lat="41.27576667" lon="1.83537833">
        <ele>179.0</ele>
        <time>2019-12-21T10:01:56.367Z</time>
      </trkpt>
      <trkpt lat="41.27575167" lon="1.83538667">
        <ele>179.0</ele>
        <time>2019-12-21T10:01:57.334Z</time>
      </trkpt>
      <trkpt lat="41.27575167" lon="1.83538667">
        <ele>179.0</ele>
        <time>2019-12-21T10:01:58.362Z</time>
      </trkpt>
      <trkpt lat="41.275725" lon="1.83539667">
        <ele>180.0</ele>
        <time>2019-12-21T10:01:59.368Z</time>
      </trkpt>
      <trkpt lat="41.275725" lon="1.83539667">
        <ele>180.0</ele>
        <time>2019-12-21T10:02:00.334Z</time>
      </trkpt>
      <trkpt lat="41.27569667" lon="1.83541667">
        <ele>180.0</ele>
        <time>2019-12-21T10:02:01.366Z</time>
      </trkpt>
      <trkpt lat="41.27569667" lon="1.83541667">
        <ele>180.0</ele>
        <time>2019-12-21T10:02:02.362Z</time>
      </trkpt>
      <trkpt lat="41.27567" lon="1.83544167">
        <ele>181.0</ele>
        <time>2019-12-21T10:02:03.344Z</time>
      </trkpt>
      <trkpt lat="41.27566167" lon="1.83545333">
        <ele>181.0</ele>
        <time>2019-12-21T10:02:04.370Z</time>
      </trkpt>
      <trkpt lat="41.27566167" lon="1.83545333">
        <ele>181.0</ele>
        <time>2019-12-21T10:02:05.362Z</time>
      </trkpt>
      <trkpt lat="41.275645" lon="1.835485">
        <ele>182.0</ele>
        <time>2019-12-21T10:02:06.346Z</time>
      </trkpt>
      <trkpt lat="41.27563167" lon="1.8355">
        <ele>182.0</ele>
        <time>2019-12-21T10:02:07.370Z</time>
      </trkpt>
      <trkpt lat="41.27563167" lon="1.8355">
        <ele>182.0</ele>
        <time>2019-12-21T10:02:08.362Z</time>
      </trkpt>
      <trkpt lat="41.275605" lon="1.83552833">
        <ele>183.0</ele>
        <time>2019-12-21T10:02:09.344Z</time>
      </trkpt>
      <trkpt lat="41.275605" lon="1.83552833">
        <ele>183.0</ele>
        <time>2019-12-21T10:02:10.368Z</time>
      </trkpt>
      <trkpt lat="41.27557833" lon="1.83555667">
        <ele>183.0</ele>
        <time>2019-12-21T10:02:11.339Z</time>
      </trkpt>
      <trkpt lat="41.27557833" lon="1.83555667">
        <ele>183.0</ele>
        <time>2019-12-21T10:02:12.364Z</time>
      </trkpt>
      <trkpt lat="41.27555333" lon="1.83559">
        <ele>184.0</ele>
        <time>2019-12-21T10:02:13.366Z</time>
      </trkpt>
      <trkpt lat="41.27555333" lon="1.83559">
        <ele>184.0</ele>
        <time>2019-12-21T10:02:14.362Z</time>
      </trkpt>
      <trkpt lat="41.27551667" lon="1.83564333">
        <ele>184.0</ele>
        <time>2019-12-21T10:02:15.349Z</time>
      </trkpt>
      <trkpt lat="41.27551667" lon="1.83564333">
        <ele>184.0</ele>
        <time>2019-12-21T10:02:16.362Z</time>
      </trkpt>
      <trkpt lat="41.27548167" lon="1.83569833">
        <ele>184.0</ele>
        <time>2019-12-21T10:02:17.367Z</time>
      </trkpt>
      <trkpt lat="41.27546167" lon="1.835725">
        <ele>184.0</ele>
        <time>2019-12-21T10:02:18.366Z</time>
      </trkpt>
      <trkpt lat="41.27546167" lon="1.835725">
        <ele>184.0</ele>
        <time>2019-12-21T10:02:19.362Z</time>
      </trkpt>
      <trkpt lat="41.27543333" lon="1.83577667">
        <ele>184.0</ele>
        <time>2019-12-21T10:02:20.367Z</time>
      </trkpt>
      <trkpt lat="41.27543333" lon="1.83577667">
        <ele>184.0</ele>
        <time>2019-12-21T10:02:21.343Z</time>
      </trkpt>
      <trkpt lat="41.27540167" lon="1.83582">
        <ele>184.0</ele>
        <time>2019-12-21T10:02:22.366Z</time>
      </trkpt>
      <trkpt lat="41.27540167" lon="1.83582">
        <ele>184.0</ele>
        <time>2019-12-21T10:02:23.363Z</time>
      </trkpt>
      <trkpt lat="41.27536667" lon="1.83586833">
        <ele>185.0</ele>
        <time>2019-12-21T10:02:24.365Z</time>
      </trkpt>
      <trkpt lat="41.27536667" lon="1.83586833">
        <ele>185.0</ele>
        <time>2019-12-21T10:02:25.362Z</time>
      </trkpt>
      <trkpt lat="41.27532333" lon="1.83591833">
        <ele>185.0</ele>
        <time>2019-12-21T10:02:26.363Z</time>
      </trkpt>
      <trkpt lat="41.27530333" lon="1.83594833">
        <ele>186.0</ele>
        <time>2019-12-21T10:02:27.349Z</time>
      </trkpt>
      <trkpt lat="41.27530333" lon="1.83594833">
        <ele>186.0</ele>
        <time>2019-12-21T10:02:28.371Z</time>
      </trkpt>
      <trkpt lat="41.27525667" lon="1.83600333">
        <ele>187.0</ele>
        <time>2019-12-21T10:02:29.359Z</time>
      </trkpt>
      <trkpt lat="41.27525667" lon="1.83600333">
        <ele>187.0</ele>
        <time>2019-12-21T10:02:30.341Z</time>
      </trkpt>
      <trkpt lat="41.27521833" lon="1.836055">
        <ele>187.0</ele>
        <time>2019-12-21T10:02:31.366Z</time>
      </trkpt>
      <trkpt lat="41.27521833" lon="1.836055">
        <ele>187.0</ele>
        <time>2019-12-21T10:02:32.362Z</time>
      </trkpt>
      <trkpt lat="41.27517833" lon="1.83611">
        <ele>188.0</ele>
        <time>2019-12-21T10:02:33.344Z</time>
      </trkpt>
      <trkpt lat="41.27517833" lon="1.83611">
        <ele>188.0</ele>
        <time>2019-12-21T10:02:34.367Z</time>
      </trkpt>
      <trkpt lat="41.27513833" lon="1.83616333">
        <ele>188.0</ele>
        <time>2019-12-21T10:02:35.368Z</time>
      </trkpt>
      <trkpt lat="41.27513833" lon="1.83616333">
        <ele>188.0</ele>
        <time>2019-12-21T10:02:36.362Z</time>
      </trkpt>
      <trkpt lat="41.2751" lon="1.83621167">
        <ele>189.0</ele>
        <time>2019-12-21T10:02:37.366Z</time>
      </trkpt>
      <trkpt lat="41.27508167" lon="1.83623667">
        <ele>189.0</ele>
        <time>2019-12-21T10:02:38.366Z</time>
      </trkpt>
      <trkpt lat="41.27508167" lon="1.83623667">
        <ele>189.0</ele>
        <time>2019-12-21T10:02:39.364Z</time>
      </trkpt>
      <trkpt lat="41.27504833" lon="1.836285">
        <ele>189.0</ele>
        <time>2019-12-21T10:02:40.366Z</time>
      </trkpt>
      <trkpt lat="41.275035" lon="1.836305">
        <ele>189.0</ele>
        <time>2019-12-21T10:02:41.367Z</time>
      </trkpt>
      <trkpt lat="41.275035" lon="1.836305">
        <ele>189.0</ele>
        <time>2019-12-21T10:02:42.362Z</time>
      </trkpt>
      <trkpt lat="41.27500833" lon="1.836345">
        <ele>190.0</ele>
        <time>2019-12-21T10:02:43.367Z</time>
      </trkpt>
      <trkpt lat="41.27500833" lon="1.836345">
        <ele>190.0</ele>
        <time>2019-12-21T10:02:44.365Z</time>
      </trkpt>
      <trkpt lat="41.27498333" lon="1.83639333">
        <ele>190.0</ele>
        <time>2019-12-21T10:02:45.370Z</time>
      </trkpt>
      <trkpt lat="41.274975" lon="1.836415">
        <ele>190.0</ele>
        <time>2019-12-21T10:02:46.367Z</time>
      </trkpt>
      <trkpt lat="41.274975" lon="1.836415">
        <ele>190.0</ele>
        <time>2019-12-21T10:02:47.363Z</time>
      </trkpt>
      <trkpt lat="41.27494833" lon="1.83645167">
        <ele>190.0</ele>
        <time>2019-12-21T10:02:48.367Z</time>
      </trkpt>
      <trkpt lat="41.27494833" lon="1.83645167">
        <ele>190.0</ele>
        <time>2019-12-21T10:02:49.365Z</time>
      </trkpt>
      <trkpt lat="41.27491333" lon="1.83649333">
        <ele>191.0</ele>
        <time>2019-12-21T10:02:50.367Z</time>
      </trkpt>
      <trkpt lat="41.27491333" lon="1.83649333">
        <ele>191.0</ele>
        <time>2019-12-21T10:02:51.359Z</time>
      </trkpt>
      <trkpt lat="41.27488167" lon="1.83653667">
        <ele>192.0</ele>
        <time>2019-12-21T10:02:52.342Z</time>
      </trkpt>
      <trkpt lat="41.27486" lon="1.83655833">
        <ele>192.0</ele>
        <time>2019-12-21T10:02:53.369Z</time>
      </trkpt>
      <trkpt lat="41.27486" lon="1.83655833">
        <ele>192.0</ele>
        <time>2019-12-21T10:02:54.362Z</time>
      </trkpt>
      <trkpt lat="41.274815" lon="1.836595">
        <ele>192.0</ele>
        <time>2019-12-21T10:02:55.333Z</time>
      </trkpt>
      <trkpt lat="41.274815" lon="1.836595">
        <ele>192.0</ele>
        <time>2019-12-21T10:02:56.333Z</time>
      </trkpt>
      <trkpt lat="41.27475333" lon="1.83664">
        <ele>192.0</ele>
        <time>2019-12-21T10:02:57.368Z</time>
      </trkpt>
      <trkpt lat="41.27473" lon="1.83666">
        <ele>192.0</ele>
        <time>2019-12-21T10:02:58.367Z</time>
      </trkpt>
      <trkpt lat="41.27471" lon="1.83667833">
        <ele>192.0</ele>
        <time>2019-12-21T10:02:59.368Z</time>
      </trkpt>
      <trkpt lat="41.27471" lon="1.83667833">
        <ele>192.0</ele>
        <time>2019-12-21T10:03:00.362Z</time>
      </trkpt>
      <trkpt lat="41.27468167" lon="1.83671333">
        <ele>192.0</ele>
        <time>2019-12-21T10:03:01.346Z</time>
      </trkpt>
      <trkpt lat="41.27468167" lon="1.83671333">
        <ele>192.0</ele>
        <time>2019-12-21T10:03:02.370Z</time>
      </trkpt>
      <trkpt lat="41.27466" lon="1.83674833">
        <ele>193.0</ele>
        <time>2019-12-21T10:03:03.369Z</time>
      </trkpt>
      <trkpt lat="41.27466" lon="1.83674833">
        <ele>193.0</ele>
        <time>2019-12-21T10:03:04.361Z</time>
      </trkpt>
      <trkpt lat="41.274625" lon="1.836785">
        <ele>193.0</ele>
        <time>2019-12-21T10:03:05.368Z</time>
      </trkpt>
      <trkpt lat="41.27460833" lon="1.836805">
        <ele>194.0</ele>
        <time>2019-12-21T10:03:06.367Z</time>
      </trkpt>
      <trkpt lat="41.27460833" lon="1.836805">
        <ele>194.0</ele>
        <time>2019-12-21T10:03:07.364Z</time>
      </trkpt>
      <trkpt lat="41.27457833" lon="1.83684167">
        <ele>194.0</ele>
        <time>2019-12-21T10:03:08.339Z</time>
      </trkpt>
      <trkpt lat="41.27457833" lon="1.83684167">
        <ele>194.0</ele>
        <time>2019-12-21T10:03:09.363Z</time>
      </trkpt>
      <trkpt lat="41.27455833" lon="1.836885">
        <ele>195.0</ele>
        <time>2019-12-21T10:03:10.367Z</time>
      </trkpt>
      <trkpt lat="41.27455833" lon="1.836885">
        <ele>195.0</ele>
        <time>2019-12-21T10:03:11.363Z</time>
      </trkpt>
      <trkpt lat="41.27453833" lon="1.83693333">
        <ele>195.0</ele>
        <time>2019-12-21T10:03:12.367Z</time>
      </trkpt>
      <trkpt lat="41.27453833" lon="1.83693333">
        <ele>195.0</ele>
        <time>2019-12-21T10:03:13.367Z</time>
      </trkpt>
      <trkpt lat="41.27452667" lon="1.836985">
        <ele>195.0</ele>
        <time>2019-12-21T10:03:14.367Z</time>
      </trkpt>
      <trkpt lat="41.27452667" lon="1.836985">
        <ele>195.0</ele>
        <time>2019-12-21T10:03:15.363Z</time>
      </trkpt>
      <trkpt lat="41.27451667" lon="1.83703333">
        <ele>196.0</ele>
        <time>2019-12-21T10:03:16.367Z</time>
      </trkpt>
      <trkpt lat="41.27451667" lon="1.83703333">
        <ele>196.0</ele>
        <time>2019-12-21T10:03:17.363Z</time>
      </trkpt>
      <trkpt lat="41.274505" lon="1.83707667">
        <ele>196.0</ele>
        <time>2019-12-21T10:03:18.364Z</time>
      </trkpt>
      <trkpt lat="41.274505" lon="1.83707667">
        <ele>196.0</ele>
        <time>2019-12-21T10:03:19.363Z</time>
      </trkpt>
      <trkpt lat="41.27449167" lon="1.837125">
        <ele>197.0</ele>
        <time>2019-12-21T10:03:20.371Z</time>
      </trkpt>
      <trkpt lat="41.27449167" lon="1.837125">
        <ele>197.0</ele>
        <time>2019-12-21T10:03:21.370Z</time>
      </trkpt>
      <trkpt lat="41.27447333" lon="1.837175">
        <ele>198.0</ele>
        <time>2019-12-21T10:03:22.367Z</time>
      </trkpt>
      <trkpt lat="41.27447333" lon="1.837175">
        <ele>198.0</ele>
        <time>2019-12-21T10:03:23.363Z</time>
      </trkpt>
      <trkpt lat="41.27445333" lon="1.83721833">
        <ele>199.0</ele>
        <time>2019-12-21T10:03:24.346Z</time>
      </trkpt>
      <trkpt lat="41.27445333" lon="1.83721833">
        <ele>199.0</ele>
        <time>2019-12-21T10:03:25.348Z</time>
      </trkpt>
      <trkpt lat="41.27443" lon="1.83725833">
        <ele>200.0</ele>
        <time>2019-12-21T10:03:26.367Z</time>
      </trkpt>
      <trkpt lat="41.27443" lon="1.83725833">
        <ele>200.0</ele>
        <time>2019-12-21T10:03:27.367Z</time>
      </trkpt>
      <trkpt lat="41.274405" lon="1.83729667">
        <ele>201.0</ele>
        <time>2019-12-21T10:03:28.366Z</time>
      </trkpt>
      <trkpt lat="41.274405" lon="1.83729667">
        <ele>201.0</ele>
        <time>2019-12-21T10:03:29.363Z</time>
      </trkpt>
      <trkpt lat="41.27436833" lon="1.83733">
        <ele>202.0</ele>
        <time>2019-12-21T10:03:30.367Z</time>
      </trkpt>
      <trkpt lat="41.27436833" lon="1.83733">
        <ele>202.0</ele>
        <time>2019-12-21T10:03:31.365Z</time>
      </trkpt>
      <trkpt lat="41.27433333" lon="1.83735833">
        <ele>202.0</ele>
        <time>2019-12-21T10:03:32.367Z</time>
      </trkpt>
      <trkpt lat="41.27433333" lon="1.83735833">
        <ele>202.0</ele>
        <time>2019-12-21T10:03:33.363Z</time>
      </trkpt>
      <trkpt lat="41.2743" lon="1.83739333">
        <ele>203.0</ele>
        <time>2019-12-21T10:03:34.367Z</time>
      </trkpt>
      <trkpt lat="41.2743" lon="1.83739333">
        <ele>203.0</ele>
        <time>2019-12-21T10:03:35.363Z</time>
      </trkpt>
      <trkpt lat="41.274275" lon="1.83741833">
        <ele>204.0</ele>
        <time>2019-12-21T10:03:36.367Z</time>
      </trkpt>
      <trkpt lat="41.274275" lon="1.83741833">
        <ele>204.0</ele>
        <time>2019-12-21T10:03:37.362Z</time>
      </trkpt>
      <trkpt lat="41.274245" lon="1.83746">
        <ele>205.0</ele>
        <time>2019-12-21T10:03:38.366Z</time>
      </trkpt>
      <trkpt lat="41.274245" lon="1.83746">
        <ele>205.0</ele>
        <time>2019-12-21T10:03:39.364Z</time>
      </trkpt>
      <trkpt lat="41.274215" lon="1.83750667">
        <ele>206.0</ele>
        <time>2019-12-21T10:03:40.367Z</time>
      </trkpt>
      <trkpt lat="41.274215" lon="1.83750667">
        <ele>206.0</ele>
        <time>2019-12-21T10:03:41.362Z</time>
      </trkpt>
      <trkpt lat="41.27418333" lon="1.83755167">
        <ele>207.0</ele>
        <time>2019-12-21T10:03:42.367Z</time>
      </trkpt>
      <trkpt lat="41.27418333" lon="1.83755167">
        <ele>207.0</ele>
        <time>2019-12-21T10:03:43.365Z</time>
      </trkpt>
      <trkpt lat="41.274155" lon="1.83759667">
        <ele>208.0</ele>
        <time>2019-12-21T10:03:44.367Z</time>
      </trkpt>
      <trkpt lat="41.274155" lon="1.83759667">
        <ele>208.0</ele>
        <time>2019-12-21T10:03:45.362Z</time>
      </trkpt>
      <trkpt lat="41.27412333" lon="1.83764">
        <ele>209.0</ele>
        <time>2019-12-21T10:03:46.371Z</time>
      </trkpt>
      <trkpt lat="41.27412333" lon="1.83764">
        <ele>209.0</ele>
        <time>2019-12-21T10:03:47.363Z</time>
      </trkpt>
      <trkpt lat="41.27409667" lon="1.83767667">
        <ele>210.0</ele>
        <time>2019-12-21T10:03:48.346Z</time>
      </trkpt>
      <trkpt lat="41.27409667" lon="1.83767667">
        <ele>210.0</ele>
        <time>2019-12-21T10:03:49.339Z</time>
      </trkpt>
      <trkpt lat="41.27407667" lon="1.83771167">
        <ele>211.0</ele>
        <time>2019-12-21T10:03:50.367Z</time>
      </trkpt>
      <trkpt lat="41.27407667" lon="1.83771167">
        <ele>211.0</ele>
        <time>2019-12-21T10:03:51.363Z</time>
      </trkpt>
      <trkpt lat="41.274055" lon="1.83774833">
        <ele>212.0</ele>
        <time>2019-12-21T10:03:52.346Z</time>
      </trkpt>
      <trkpt lat="41.274055" lon="1.83774833">
        <ele>212.0</ele>
        <time>2019-12-21T10:03:53.369Z</time>
      </trkpt>
      <trkpt lat="41.274025" lon="1.83778833">
        <ele>212.0</ele>
        <time>2019-12-21T10:03:54.340Z</time>
      </trkpt>
      <trkpt lat="41.27400667" lon="1.83781167">
        <ele>213.0</ele>
        <time>2019-12-21T10:03:55.372Z</time>
      </trkpt>
      <trkpt lat="41.27400667" lon="1.83781167">
        <ele>213.0</ele>
        <time>2019-12-21T10:03:56.336Z</time>
      </trkpt>
      <trkpt lat="41.27398333" lon="1.83785">
        <ele>214.0</ele>
        <time>2019-12-21T10:03:57.342Z</time>
      </trkpt>
      <trkpt lat="41.27396667" lon="1.83787">
        <ele>214.0</ele>
        <time>2019-12-21T10:03:58.367Z</time>
      </trkpt>
      <trkpt lat="41.27396667" lon="1.83787">
        <ele>214.0</ele>
        <time>2019-12-21T10:03:59.363Z</time>
      </trkpt>
      <trkpt lat="41.27394" lon="1.8379">
        <ele>215.0</ele>
        <time>2019-12-21T10:04:00.365Z</time>
      </trkpt>
      <trkpt lat="41.27393" lon="1.83791167">
        <ele>216.0</ele>
        <time>2019-12-21T10:04:01.368Z</time>
      </trkpt>
      <trkpt lat="41.27393" lon="1.83791167">
        <ele>216.0</ele>
        <time>2019-12-21T10:04:02.365Z</time>
      </trkpt>
      <trkpt lat="41.273895" lon="1.83794333">
        <ele>216.0</ele>
        <time>2019-12-21T10:04:03.366Z</time>
      </trkpt>
      <trkpt lat="41.27387833" lon="1.83796167">
        <ele>217.0</ele>
        <time>2019-12-21T10:04:04.367Z</time>
      </trkpt>
      <trkpt lat="41.27387833" lon="1.83796167">
        <ele>217.0</ele>
        <time>2019-12-21T10:04:05.362Z</time>
      </trkpt>
      <trkpt lat="41.27385667" lon="1.83799667">
        <ele>218.0</ele>
        <time>2019-12-21T10:04:06.367Z</time>
      </trkpt>
      <trkpt lat="41.27385667" lon="1.83799667">
        <ele>218.0</ele>
        <time>2019-12-21T10:04:07.365Z</time>
      </trkpt>
      <trkpt lat="41.27383667" lon="1.83802667">
        <ele>218.0</ele>
        <time>2019-12-21T10:04:08.364Z</time>
      </trkpt>
      <trkpt lat="41.27382333" lon="1.83804167">
        <ele>219.0</ele>
        <time>2019-12-21T10:04:09.369Z</time>
      </trkpt>
      <trkpt lat="41.27381" lon="1.83806">
        <ele>219.0</ele>
        <time>2019-12-21T10:04:10.367Z</time>
      </trkpt>
      <trkpt lat="41.27381" lon="1.83806">
        <ele>219.0</ele>
        <time>2019-12-21T10:04:11.363Z</time>
      </trkpt>
      <trkpt lat="41.27378167" lon="1.8381">
        <ele>220.0</ele>
        <time>2019-12-21T10:04:12.349Z</time>
      </trkpt>
      <trkpt lat="41.27376667" lon="1.83812333">
        <ele>220.0</ele>
        <time>2019-12-21T10:04:13.333Z</time>
      </trkpt>
      <trkpt lat="41.27376667" lon="1.83812333">
        <ele>220.0</ele>
        <time>2019-12-21T10:04:14.365Z</time>
      </trkpt>
      <trkpt lat="41.27373333" lon="1.83817">
        <ele>221.0</ele>
        <time>2019-12-21T10:04:15.371Z</time>
      </trkpt>
      <trkpt lat="41.27371833" lon="1.838185">
        <ele>221.0</ele>
        <time>2019-12-21T10:04:16.368Z</time>
      </trkpt>
      <trkpt lat="41.27371833" lon="1.838185">
        <ele>221.0</ele>
        <time>2019-12-21T10:04:17.363Z</time>
      </trkpt>
      <trkpt lat="41.273685" lon="1.83822667">
        <ele>222.0</ele>
        <time>2019-12-21T10:04:18.369Z</time>
      </trkpt>
      <trkpt lat="41.273685" lon="1.83822667">
        <ele>222.0</ele>
        <time>2019-12-21T10:04:19.362Z</time>
      </trkpt>
      <trkpt lat="41.27366" lon="1.83827">
        <ele>223.0</ele>
        <time>2019-12-21T10:04:20.367Z</time>
      </trkpt>
      <trkpt lat="41.27366" lon="1.83827">
        <ele>223.0</ele>
        <time>2019-12-21T10:04:21.364Z</time>
      </trkpt>
      <trkpt lat="41.27364333" lon="1.838315">
        <ele>225.0</ele>
        <time>2019-12-21T10:04:22.370Z</time>
      </trkpt>
      <trkpt lat="41.27364333" lon="1.838315">
        <ele>225.0</ele>
        <time>2019-12-21T10:04:23.363Z</time>
      </trkpt>
      <trkpt lat="41.27361333" lon="1.838375">
        <ele>226.0</ele>
        <time>2019-12-21T10:04:24.368Z</time>
      </trkpt>
      <trkpt lat="41.27360167" lon="1.83840167">
        <ele>226.0</ele>
        <time>2019-12-21T10:04:25.368Z</time>
      </trkpt>
      <trkpt lat="41.27360167" lon="1.83840167">
        <ele>226.0</ele>
        <time>2019-12-21T10:04:26.365Z</time>
      </trkpt>
      <trkpt lat="41.27356833" lon="1.83845333">
        <ele>227.0</ele>
        <time>2019-12-21T10:04:27.333Z</time>
      </trkpt>
      <trkpt lat="41.27356833" lon="1.83845333">
        <ele>227.0</ele>
        <time>2019-12-21T10:04:28.341Z</time>
      </trkpt>
      <trkpt lat="41.27352" lon="1.83850667">
        <ele>228.0</ele>
        <time>2019-12-21T10:04:29.340Z</time>
      </trkpt>
      <trkpt lat="41.27352" lon="1.83850667">
        <ele>228.0</ele>
        <time>2019-12-21T10:04:30.361Z</time>
      </trkpt>
      <trkpt lat="41.273485" lon="1.83857">
        <ele>229.0</ele>
        <time>2019-12-21T10:04:31.340Z</time>
      </trkpt>
      <trkpt lat="41.273485" lon="1.83857">
        <ele>229.0</ele>
        <time>2019-12-21T10:04:32.338Z</time>
      </trkpt>
      <trkpt lat="41.27345167" lon="1.83862667">
        <ele>230.0</ele>
        <time>2019-12-21T10:04:33.355Z</time>
      </trkpt>
      <trkpt lat="41.27345167" lon="1.83862667">
        <ele>230.0</ele>
        <time>2019-12-21T10:04:34.365Z</time>
      </trkpt>
      <trkpt lat="41.27341833" lon="1.83867333">
        <ele>231.0</ele>
        <time>2019-12-21T10:04:35.344Z</time>
      </trkpt>
      <trkpt lat="41.27340167" lon="1.83870167">
        <ele>231.0</ele>
        <time>2019-12-21T10:04:36.366Z</time>
      </trkpt>
      <trkpt lat="41.27340167" lon="1.83870167">
        <ele>231.0</ele>
        <time>2019-12-21T10:04:37.352Z</time>
      </trkpt>
      <trkpt lat="41.273365" lon="1.83875">
        <ele>230.0</ele>
        <time>2019-12-21T10:04:38.344Z</time>
      </trkpt>
      <trkpt lat="41.27334833" lon="1.838775">
        <ele>230.0</ele>
        <time>2019-12-21T10:04:39.367Z</time>
      </trkpt>
      <trkpt lat="41.27334833" lon="1.838775">
        <ele>230.0</ele>
        <time>2019-12-21T10:04:40.334Z</time>
      </trkpt>
      <trkpt lat="41.27331" lon="1.83882667">
        <ele>231.0</ele>
        <time>2019-12-21T10:04:41.351Z</time>
      </trkpt>
      <trkpt lat="41.27331" lon="1.83882667">
        <ele>231.0</ele>
        <time>2019-12-21T10:04:42.358Z</time>
      </trkpt>
      <trkpt lat="41.27327833" lon="1.83888">
        <ele>231.0</ele>
        <time>2019-12-21T10:04:43.372Z</time>
      </trkpt>
      <trkpt lat="41.27327833" lon="1.83888">
        <ele>231.0</ele>
        <time>2019-12-21T10:04:44.337Z</time>
      </trkpt>
      <trkpt lat="41.27324" lon="1.83893333">
        <ele>230.0</ele>
        <time>2019-12-21T10:04:45.346Z</time>
      </trkpt>
      <trkpt lat="41.27324" lon="1.83893333">
        <ele>230.0</ele>
        <time>2019-12-21T10:04:46.369Z</time>
      </trkpt>
      <trkpt lat="41.273205" lon="1.83898167">
        <ele>230.0</ele>
        <time>2019-12-21T10:04:47.349Z</time>
      </trkpt>
      <trkpt lat="41.273205" lon="1.83898167">
        <ele>230.0</ele>
        <time>2019-12-21T10:04:48.361Z</time>
      </trkpt>
      <trkpt lat="41.27316833" lon="1.83903333">
        <ele>230.0</ele>
        <time>2019-12-21T10:04:49.339Z</time>
      </trkpt>
      <trkpt lat="41.27316833" lon="1.83903333">
        <ele>230.0</ele>
        <time>2019-12-21T10:04:50.344Z</time>
      </trkpt>
      <trkpt lat="41.273135" lon="1.83908833">
        <ele>229.0</ele>
        <time>2019-12-21T10:04:51.362Z</time>
      </trkpt>
      <trkpt lat="41.273135" lon="1.83908833">
        <ele>229.0</ele>
        <time>2019-12-21T10:04:52.367Z</time>
      </trkpt>
      <trkpt lat="41.27310667" lon="1.83914167">
        <ele>229.0</ele>
        <time>2019-12-21T10:04:53.353Z</time>
      </trkpt>
      <trkpt lat="41.27309167" lon="1.83916667">
        <ele>229.0</ele>
        <time>2019-12-21T10:04:54.356Z</time>
      </trkpt>
      <trkpt lat="41.27309167" lon="1.83916667">
        <ele>229.0</ele>
        <time>2019-12-21T10:04:55.370Z</time>
      </trkpt>
      <trkpt lat="41.273055" lon="1.83920833">
        <ele>229.0</ele>
        <time>2019-12-21T10:04:56.359Z</time>
      </trkpt>
      <trkpt lat="41.27304" lon="1.83922833">
        <ele>229.0</ele>
        <time>2019-12-21T10:04:57.346Z</time>
      </trkpt>
      <trkpt lat="41.27304" lon="1.83922833">
        <ele>229.0</ele>
        <time>2019-12-21T10:04:58.334Z</time>
      </trkpt>
      <trkpt lat="41.27301333" lon="1.83926667">
        <ele>228.0</ele>
        <time>2019-12-21T10:04:59.365Z</time>
      </trkpt>
      <trkpt lat="41.27301333" lon="1.83926667">
        <ele>228.0</ele>
        <time>2019-12-21T10:05:00.370Z</time>
      </trkpt>
      <trkpt lat="41.27297333" lon="1.83931667">
        <ele>228.0</ele>
        <time>2019-12-21T10:05:01.346Z</time>
      </trkpt>
      <trkpt lat="41.27295833" lon="1.83933833">
        <ele>228.0</ele>
        <time>2019-12-21T10:05:02.337Z</time>
      </trkpt>
      <trkpt lat="41.27295833" lon="1.83933833">
        <ele>228.0</ele>
        <time>2019-12-21T10:05:03.348Z</time>
      </trkpt>
      <trkpt lat="41.272915" lon="1.83937333">
        <ele>228.0</ele>
        <time>2019-12-21T10:05:04.334Z</time>
      </trkpt>
      <trkpt lat="41.27289667" lon="1.839395">
        <ele>228.0</ele>
        <time>2019-12-21T10:05:05.348Z</time>
      </trkpt>
      <trkpt lat="41.27289667" lon="1.839395">
        <ele>228.0</ele>
        <time>2019-12-21T10:05:06.357Z</time>
      </trkpt>
      <trkpt lat="41.27285167" lon="1.83944">
        <ele>227.0</ele>
        <time>2019-12-21T10:05:07.375Z</time>
      </trkpt>
      <trkpt lat="41.27283167" lon="1.83945333">
        <ele>227.0</ele>
        <time>2019-12-21T10:05:08.361Z</time>
      </trkpt>
      <trkpt lat="41.27283167" lon="1.83945333">
        <ele>227.0</ele>
        <time>2019-12-21T10:05:09.369Z</time>
      </trkpt>
      <trkpt lat="41.27280167" lon="1.83947833">
        <ele>226.0</ele>
        <time>2019-12-21T10:05:10.346Z</time>
      </trkpt>
      <trkpt lat="41.27279167" lon="1.83949167">
        <ele>227.0</ele>
        <time>2019-12-21T10:05:11.338Z</time>
      </trkpt>
      <trkpt lat="41.27279167" lon="1.83949167">
        <ele>227.0</ele>
        <time>2019-12-21T10:05:12.350Z</time>
      </trkpt>
      <trkpt lat="41.27276833" lon="1.83951167">
        <ele>227.0</ele>
        <time>2019-12-21T10:05:13.372Z</time>
      </trkpt>
      <trkpt lat="41.27276833" lon="1.83951167">
        <ele>227.0</ele>
        <time>2019-12-21T10:05:14.337Z</time>
      </trkpt>
      <trkpt lat="41.27274667" lon="1.83953167">
        <ele>227.0</ele>
        <time>2019-12-21T10:05:15.356Z</time>
      </trkpt>
      <trkpt lat="41.27274667" lon="1.83953167">
        <ele>227.0</ele>
        <time>2019-12-21T10:05:16.339Z</time>
      </trkpt>
      <trkpt lat="41.27272167" lon="1.839555">
        <ele>227.0</ele>
        <time>2019-12-21T10:05:17.333Z</time>
      </trkpt>
      <trkpt lat="41.27272167" lon="1.839555">
        <ele>227.0</ele>
        <time>2019-12-21T10:05:18.342Z</time>
      </trkpt>
      <trkpt lat="41.27268667" lon="1.83957333">
        <ele>227.0</ele>
        <time>2019-12-21T10:05:19.334Z</time>
      </trkpt>
      <trkpt lat="41.27268667" lon="1.83957333">
        <ele>227.0</ele>
        <time>2019-12-21T10:05:20.342Z</time>
      </trkpt>
      <trkpt lat="41.27265833" lon="1.839605">
        <ele>226.0</ele>
        <time>2019-12-21T10:05:21.361Z</time>
      </trkpt>
      <trkpt lat="41.27265833" lon="1.839605">
        <ele>226.0</ele>
        <time>2019-12-21T10:05:22.372Z</time>
      </trkpt>
      <trkpt lat="41.27263667" lon="1.83963167">
        <ele>226.0</ele>
        <time>2019-12-21T10:05:23.355Z</time>
      </trkpt>
      <trkpt lat="41.27263667" lon="1.83963167">
        <ele>226.0</ele>
        <time>2019-12-21T10:05:24.364Z</time>
      </trkpt>
      <trkpt lat="41.27261167" lon="1.83965333">
        <ele>226.0</ele>
        <time>2019-12-21T10:05:25.343Z</time>
      </trkpt>
      <trkpt lat="41.27259667" lon="1.83966667">
        <ele>226.0</ele>
        <time>2019-12-21T10:05:26.342Z</time>
      </trkpt>
      <trkpt lat="41.27257833" lon="1.839685">
        <ele>225.0</ele>
        <time>2019-12-21T10:05:27.355Z</time>
      </trkpt>
      <trkpt lat="41.27257833" lon="1.839685">
        <ele>225.0</ele>
        <time>2019-12-21T10:05:28.361Z</time>
      </trkpt>
      <trkpt lat="41.27254667" lon="1.83971667">
        <ele>225.0</ele>
        <time>2019-12-21T10:05:29.336Z</time>
      </trkpt>
      <trkpt lat="41.27254667" lon="1.83971667">
        <ele>225.0</ele>
        <time>2019-12-21T10:05:30.343Z</time>
      </trkpt>
      <trkpt lat="41.27251833" lon="1.83975">
        <ele>225.0</ele>
        <time>2019-12-21T10:05:31.363Z</time>
      </trkpt>
      <trkpt lat="41.27251833" lon="1.83975">
        <ele>225.0</ele>
        <time>2019-12-21T10:05:32.335Z</time>
      </trkpt>
      <trkpt lat="41.27248333" lon="1.83976667">
        <ele>224.0</ele>
        <time>2019-12-21T10:05:33.354Z</time>
      </trkpt>
      <trkpt lat="41.27248333" lon="1.83976667">
        <ele>224.0</ele>
        <time>2019-12-21T10:05:34.362Z</time>
      </trkpt>
      <trkpt lat="41.27245667" lon="1.83977667">
        <ele>224.0</ele>
        <time>2019-12-21T10:05:35.342Z</time>
      </trkpt>
      <trkpt lat="41.27245667" lon="1.83977667">
        <ele>224.0</ele>
        <time>2019-12-21T10:05:36.355Z</time>
      </trkpt>
      <trkpt lat="41.27242667" lon="1.83979">
        <ele>225.0</ele>
        <time>2019-12-21T10:05:37.363Z</time>
      </trkpt>
      <trkpt lat="41.27240833" lon="1.8398">
        <ele>224.0</ele>
        <time>2019-12-21T10:05:38.342Z</time>
      </trkpt>
      <trkpt lat="41.27239333" lon="1.83980667">
        <ele>224.0</ele>
        <time>2019-12-21T10:05:39.361Z</time>
      </trkpt>
      <trkpt lat="41.27239333" lon="1.83980667">
        <ele>224.0</ele>
        <time>2019-12-21T10:05:40.368Z</time>
      </trkpt>
      <trkpt lat="41.272365" lon="1.83982333">
        <ele>225.0</ele>
        <time>2019-12-21T10:05:41.364Z</time>
      </trkpt>
      <trkpt lat="41.272365" lon="1.83982333">
        <ele>225.0</ele>
        <time>2019-12-21T10:05:42.364Z</time>
      </trkpt>
      <trkpt lat="41.27233667" lon="1.83984833">
        <ele>225.0</ele>
        <time>2019-12-21T10:05:43.338Z</time>
      </trkpt>
      <trkpt lat="41.27233667" lon="1.83984833">
        <ele>225.0</ele>
        <time>2019-12-21T10:05:44.348Z</time>
      </trkpt>
      <trkpt lat="41.27231167" lon="1.83987167">
        <ele>225.0</ele>
        <time>2019-12-21T10:05:45.359Z</time>
      </trkpt>
      <trkpt lat="41.27231167" lon="1.83987167">
        <ele>225.0</ele>
        <time>2019-12-21T10:05:46.366Z</time>
      </trkpt>
      <trkpt lat="41.27228333" lon="1.83989">
        <ele>226.0</ele>
        <time>2019-12-21T10:05:47.350Z</time>
      </trkpt>
      <trkpt lat="41.27228333" lon="1.83989">
        <ele>226.0</ele>
        <time>2019-12-21T10:05:48.365Z</time>
      </trkpt>
      <trkpt lat="41.27225667" lon="1.83991833">
        <ele>226.0</ele>
        <time>2019-12-21T10:05:49.359Z</time>
      </trkpt>
      <trkpt lat="41.27225667" lon="1.83991833">
        <ele>226.0</ele>
        <time>2019-12-21T10:05:50.366Z</time>
      </trkpt>
      <trkpt lat="41.27223167" lon="1.83994333">
        <ele>226.0</ele>
        <time>2019-12-21T10:05:51.361Z</time>
      </trkpt>
      <trkpt lat="41.27223167" lon="1.83994333">
        <ele>226.0</ele>
        <time>2019-12-21T10:05:52.370Z</time>
      </trkpt>
      <trkpt lat="41.27220333" lon="1.83998">
        <ele>226.0</ele>
        <time>2019-12-21T10:05:53.356Z</time>
      </trkpt>
      <trkpt lat="41.27220333" lon="1.83998">
        <ele>226.0</ele>
        <time>2019-12-21T10:05:54.338Z</time>
      </trkpt>
      <trkpt lat="41.27217667" lon="1.84001167">
        <ele>226.0</ele>
        <time>2019-12-21T10:05:55.364Z</time>
      </trkpt>
      <trkpt lat="41.27217667" lon="1.84001167">
        <ele>226.0</ele>
        <time>2019-12-21T10:05:56.369Z</time>
      </trkpt>
      <trkpt lat="41.27215" lon="1.84004">
        <ele>226.0</ele>
        <time>2019-12-21T10:05:57.348Z</time>
      </trkpt>
      <trkpt lat="41.27215" lon="1.84004">
        <ele>226.0</ele>
        <time>2019-12-21T10:05:58.354Z</time>
      </trkpt>
      <trkpt lat="41.27212333" lon="1.840075">
        <ele>227.0</ele>
        <time>2019-12-21T10:05:59.352Z</time>
      </trkpt>
      <trkpt lat="41.27212333" lon="1.840075">
        <ele>227.0</ele>
        <time>2019-12-21T10:06:00.367Z</time>
      </trkpt>
      <trkpt lat="41.27209667" lon="1.84010833">
        <ele>227.0</ele>
        <time>2019-12-21T10:06:01.355Z</time>
      </trkpt>
      <trkpt lat="41.27209667" lon="1.84010833">
        <ele>227.0</ele>
        <time>2019-12-21T10:06:02.361Z</time>
      </trkpt>
      <trkpt lat="41.27207667" lon="1.84014833">
        <ele>227.0</ele>
        <time>2019-12-21T10:06:03.334Z</time>
      </trkpt>
      <trkpt lat="41.27207667" lon="1.84014833">
        <ele>227.0</ele>
        <time>2019-12-21T10:06:04.351Z</time>
      </trkpt>
      <trkpt lat="41.27205167" lon="1.84018667">
        <ele>228.0</ele>
        <time>2019-12-21T10:06:05.368Z</time>
      </trkpt>
      <trkpt lat="41.27205167" lon="1.84018667">
        <ele>228.0</ele>
        <time>2019-12-21T10:06:06.345Z</time>
      </trkpt>
      <trkpt lat="41.27202667" lon="1.84021833">
        <ele>228.0</ele>
        <time>2019-12-21T10:06:07.368Z</time>
      </trkpt>
      <trkpt lat="41.27202667" lon="1.84021833">
        <ele>228.0</ele>
        <time>2019-12-21T10:06:08.342Z</time>
      </trkpt>
      <trkpt lat="41.272005" lon="1.84025833">
        <ele>229.0</ele>
        <time>2019-12-21T10:06:09.341Z</time>
      </trkpt>
      <trkpt lat="41.272005" lon="1.84025833">
        <ele>229.0</ele>
        <time>2019-12-21T10:06:10.359Z</time>
      </trkpt>
      <trkpt lat="41.27198667" lon="1.8403">
        <ele>229.0</ele>
        <time>2019-12-21T10:06:11.341Z</time>
      </trkpt>
      <trkpt lat="41.27198" lon="1.84031833">
        <ele>230.0</ele>
        <time>2019-12-21T10:06:12.368Z</time>
      </trkpt>
      <trkpt lat="41.27198" lon="1.84031833">
        <ele>230.0</ele>
        <time>2019-12-21T10:06:13.333Z</time>
      </trkpt>
      <trkpt lat="41.27196" lon="1.84036">
        <ele>230.0</ele>
        <time>2019-12-21T10:06:14.357Z</time>
      </trkpt>
      <trkpt lat="41.27195167" lon="1.84037833">
        <ele>231.0</ele>
        <time>2019-12-21T10:06:15.357Z</time>
      </trkpt>
      <trkpt lat="41.27195167" lon="1.84037833">
        <ele>231.0</ele>
        <time>2019-12-21T10:06:16.369Z</time>
      </trkpt>
      <trkpt lat="41.27193333" lon="1.84041">
        <ele>231.0</ele>
        <time>2019-12-21T10:06:17.353Z</time>
      </trkpt>
      <trkpt lat="41.27193333" lon="1.84041">
        <ele>231.0</ele>
        <time>2019-12-21T10:06:18.366Z</time>
      </trkpt>
      <trkpt lat="41.27191167" lon="1.84045">
        <ele>232.0</ele>
        <time>2019-12-21T10:06:19.357Z</time>
      </trkpt>
      <trkpt lat="41.2719" lon="1.84047">
        <ele>232.0</ele>
        <time>2019-12-21T10:06:20.342Z</time>
      </trkpt>
      <trkpt lat="41.27189" lon="1.84048667">
        <ele>232.0</ele>
        <time>2019-12-21T10:06:21.354Z</time>
      </trkpt>
      <trkpt lat="41.27189" lon="1.84048667">
        <ele>232.0</ele>
        <time>2019-12-21T10:06:22.359Z</time>
      </trkpt>
      <trkpt lat="41.27186833" lon="1.84052">
        <ele>233.0</ele>
        <time>2019-12-21T10:06:23.372Z</time>
      </trkpt>
      <trkpt lat="41.27186833" lon="1.84052">
        <ele>233.0</ele>
        <time>2019-12-21T10:06:24.341Z</time>
      </trkpt>
      <trkpt lat="41.271855" lon="1.84055333">
        <ele>233.0</ele>
        <time>2019-12-21T10:06:25.366Z</time>
      </trkpt>
      <trkpt lat="41.27184333" lon="1.84056833">
        <ele>233.0</ele>
        <time>2019-12-21T10:06:26.371Z</time>
      </trkpt>
      <trkpt lat="41.27183333" lon="1.84058">
        <ele>234.0</ele>
        <time>2019-12-21T10:06:27.358Z</time>
      </trkpt>
      <trkpt lat="41.27183333" lon="1.84058">
        <ele>234.0</ele>
        <time>2019-12-21T10:06:28.369Z</time>
      </trkpt>
      <trkpt lat="41.27181167" lon="1.840615">
        <ele>234.0</ele>
        <time>2019-12-21T10:06:29.345Z</time>
      </trkpt>
      <trkpt lat="41.27181167" lon="1.840615">
        <ele>234.0</ele>
        <time>2019-12-21T10:06:30.358Z</time>
      </trkpt>
      <trkpt lat="41.27178333" lon="1.84064833">
        <ele>235.0</ele>
        <time>2019-12-21T10:06:31.344Z</time>
      </trkpt>
      <trkpt lat="41.27178333" lon="1.84064833">
        <ele>235.0</ele>
        <time>2019-12-21T10:06:32.360Z</time>
      </trkpt>
      <trkpt lat="41.27175833" lon="1.840675">
        <ele>236.0</ele>
        <time>2019-12-21T10:06:33.369Z</time>
      </trkpt>
      <trkpt lat="41.27175833" lon="1.840675">
        <ele>236.0</ele>
        <time>2019-12-21T10:06:34.337Z</time>
      </trkpt>
      <trkpt lat="41.27172833" lon="1.84070667">
        <ele>236.0</ele>
        <time>2019-12-21T10:06:35.365Z</time>
      </trkpt>
      <trkpt lat="41.27172833" lon="1.84070667">
        <ele>236.0</ele>
        <time>2019-12-21T10:06:36.337Z</time>
      </trkpt>
      <trkpt lat="41.2717" lon="1.84073833">
        <ele>236.0</ele>
        <time>2019-12-21T10:06:37.351Z</time>
      </trkpt>
      <trkpt lat="41.2717" lon="1.84073833">
        <ele>236.0</ele>
        <time>2019-12-21T10:06:38.365Z</time>
      </trkpt>
      <trkpt lat="41.27167167" lon="1.84077167">
        <ele>237.0</ele>
        <time>2019-12-21T10:06:39.368Z</time>
      </trkpt>
      <trkpt lat="41.27167167" lon="1.84077167">
        <ele>237.0</ele>
        <time>2019-12-21T10:06:40.333Z</time>
      </trkpt>
      <trkpt lat="41.271645" lon="1.84079667">
        <ele>237.0</ele>
        <time>2019-12-21T10:06:41.359Z</time>
      </trkpt>
      <trkpt lat="41.271645" lon="1.84079667">
        <ele>237.0</ele>
        <time>2019-12-21T10:06:42.341Z</time>
      </trkpt>
      <trkpt lat="41.27161" lon="1.84082">
        <ele>238.0</ele>
        <time>2019-12-21T10:06:43.363Z</time>
      </trkpt>
      <trkpt lat="41.27161" lon="1.84082">
        <ele>238.0</ele>
        <time>2019-12-21T10:06:44.370Z</time>
      </trkpt>
      <trkpt lat="41.27158167" lon="1.84084833">
        <ele>238.0</ele>
        <time>2019-12-21T10:06:45.342Z</time>
      </trkpt>
      <trkpt lat="41.27158167" lon="1.84084833">
        <ele>238.0</ele>
        <time>2019-12-21T10:06:46.348Z</time>
      </trkpt>
      <trkpt lat="41.27155333" lon="1.84087167">
        <ele>238.0</ele>
        <time>2019-12-21T10:06:47.358Z</time>
      </trkpt>
      <trkpt lat="41.27155333" lon="1.84087167">
        <ele>238.0</ele>
        <time>2019-12-21T10:06:48.358Z</time>
      </trkpt>
      <trkpt lat="41.27151667" lon="1.84089167">
        <ele>239.0</ele>
        <time>2019-12-21T10:06:49.367Z</time>
      </trkpt>
      <trkpt lat="41.27151667" lon="1.84089167">
        <ele>239.0</ele>
        <time>2019-12-21T10:06:50.348Z</time>
      </trkpt>
      <trkpt lat="41.27148167" lon="1.84091333">
        <ele>240.0</ele>
        <time>2019-12-21T10:06:51.362Z</time>
      </trkpt>
      <trkpt lat="41.27148167" lon="1.84091333">
        <ele>240.0</ele>
        <time>2019-12-21T10:06:52.342Z</time>
      </trkpt>
      <trkpt lat="41.27145167" lon="1.84093833">
        <ele>240.0</ele>
        <time>2019-12-21T10:06:53.339Z</time>
      </trkpt>
      <trkpt lat="41.27145167" lon="1.84093833">
        <ele>240.0</ele>
        <time>2019-12-21T10:06:54.350Z</time>
      </trkpt>
      <trkpt lat="41.27141833" lon="1.84096167">
        <ele>241.0</ele>
        <time>2019-12-21T10:06:55.368Z</time>
      </trkpt>
      <trkpt lat="41.27141833" lon="1.84096167">
        <ele>241.0</ele>
        <time>2019-12-21T10:06:56.349Z</time>
      </trkpt>
      <trkpt lat="41.27138" lon="1.84098">
        <ele>242.0</ele>
        <time>2019-12-21T10:06:57.367Z</time>
      </trkpt>
      <trkpt lat="41.27138" lon="1.84098">
        <ele>242.0</ele>
        <time>2019-12-21T10:06:58.340Z</time>
      </trkpt>
      <trkpt lat="41.271345" lon="1.84099833">
        <ele>243.0</ele>
        <time>2019-12-21T10:06:59.368Z</time>
      </trkpt>
      <trkpt lat="41.271345" lon="1.84099833">
        <ele>243.0</ele>
        <time>2019-12-21T10:07:00.359Z</time>
      </trkpt>
      <trkpt lat="41.271315" lon="1.84102333">
        <ele>243.0</ele>
        <time>2019-12-21T10:07:01.370Z</time>
      </trkpt>
      <trkpt lat="41.271315" lon="1.84102333">
        <ele>243.0</ele>
        <time>2019-12-21T10:07:02.339Z</time>
      </trkpt>
      <trkpt lat="41.27128167" lon="1.84104333">
        <ele>244.0</ele>
        <time>2019-12-21T10:07:03.370Z</time>
      </trkpt>
      <trkpt lat="41.27128167" lon="1.84104333">
        <ele>244.0</ele>
        <time>2019-12-21T10:07:04.355Z</time>
      </trkpt>
      <trkpt lat="41.27124" lon="1.84105833">
        <ele>244.0</ele>
        <time>2019-12-21T10:07:05.378Z</time>
      </trkpt>
      <trkpt lat="41.27124" lon="1.84105833">
        <ele>244.0</ele>
        <time>2019-12-21T10:07:06.360Z</time>
      </trkpt>
      <trkpt lat="41.27120333" lon="1.84108167">
        <ele>245.0</ele>
        <time>2019-12-21T10:07:07.362Z</time>
      </trkpt>
      <trkpt lat="41.27120333" lon="1.84108167">
        <ele>245.0</ele>
        <time>2019-12-21T10:07:08.350Z</time>
      </trkpt>
      <trkpt lat="41.27116667" lon="1.84110667">
        <ele>245.0</ele>
        <time>2019-12-21T10:07:09.366Z</time>
      </trkpt>
      <trkpt lat="41.27116667" lon="1.84110667">
        <ele>245.0</ele>
        <time>2019-12-21T10:07:10.354Z</time>
      </trkpt>
      <trkpt lat="41.271135" lon="1.84113333">
        <ele>246.0</ele>
        <time>2019-12-21T10:07:11.367Z</time>
      </trkpt>
      <trkpt lat="41.271135" lon="1.84113333">
        <ele>246.0</ele>
        <time>2019-12-21T10:07:12.352Z</time>
      </trkpt>
      <trkpt lat="41.27110167" lon="1.84115333">
        <ele>247.0</ele>
        <time>2019-12-21T10:07:13.369Z</time>
      </trkpt>
      <trkpt lat="41.27108" lon="1.84116167">
        <ele>247.0</ele>
        <time>2019-12-21T10:07:14.354Z</time>
      </trkpt>
      <trkpt lat="41.27108" lon="1.84116167">
        <ele>247.0</ele>
        <time>2019-12-21T10:07:15.341Z</time>
      </trkpt>
      <trkpt lat="41.27104333" lon="1.84118833">
        <ele>248.0</ele>
        <time>2019-12-21T10:07:16.361Z</time>
      </trkpt>
      <trkpt lat="41.27104333" lon="1.84118833">
        <ele>248.0</ele>
        <time>2019-12-21T10:07:17.373Z</time>
      </trkpt>
      <trkpt lat="41.27101" lon="1.841215">
        <ele>249.0</ele>
        <time>2019-12-21T10:07:18.339Z</time>
      </trkpt>
      <trkpt lat="41.27099333" lon="1.84122667">
        <ele>249.0</ele>
        <time>2019-12-21T10:07:19.340Z</time>
      </trkpt>
      <trkpt lat="41.27099333" lon="1.84122667">
        <ele>249.0</ele>
        <time>2019-12-21T10:07:20.362Z</time>
      </trkpt>
      <trkpt lat="41.27095833" lon="1.84124833">
        <ele>250.0</ele>
        <time>2019-12-21T10:07:21.369Z</time>
      </trkpt>
      <trkpt lat="41.27095833" lon="1.84124833">
        <ele>250.0</ele>
        <time>2019-12-21T10:07:22.363Z</time>
      </trkpt>
      <trkpt lat="41.270925" lon="1.84126833">
        <ele>250.0</ele>
        <time>2019-12-21T10:07:23.343Z</time>
      </trkpt>
      <trkpt lat="41.270925" lon="1.84126833">
        <ele>250.0</ele>
        <time>2019-12-21T10:07:24.356Z</time>
      </trkpt>
      <trkpt lat="41.27088833" lon="1.84129167">
        <ele>251.0</ele>
        <time>2019-12-21T10:07:25.368Z</time>
      </trkpt>
      <trkpt lat="41.27088833" lon="1.84129167">
        <ele>251.0</ele>
        <time>2019-12-21T10:07:26.360Z</time>
      </trkpt>
      <trkpt lat="41.27085167" lon="1.841325">
        <ele>251.0</ele>
        <time>2019-12-21T10:07:27.360Z</time>
      </trkpt>
      <trkpt lat="41.27085167" lon="1.841325">
        <ele>251.0</ele>
        <time>2019-12-21T10:07:28.342Z</time>
      </trkpt>
      <trkpt lat="41.270815" lon="1.84135167">
        <ele>252.0</ele>
        <time>2019-12-21T10:07:29.353Z</time>
      </trkpt>
      <trkpt lat="41.270815" lon="1.84135167">
        <ele>252.0</ele>
        <time>2019-12-21T10:07:30.338Z</time>
      </trkpt>
      <trkpt lat="41.27077833" lon="1.84137833">
        <ele>252.0</ele>
        <time>2019-12-21T10:07:31.338Z</time>
      </trkpt>
      <trkpt lat="41.27077833" lon="1.84137833">
        <ele>252.0</ele>
        <time>2019-12-21T10:07:32.360Z</time>
      </trkpt>
      <trkpt lat="41.27074" lon="1.8414">
        <ele>253.0</ele>
        <time>2019-12-21T10:07:33.371Z</time>
      </trkpt>
      <trkpt lat="41.27074" lon="1.8414">
        <ele>253.0</ele>
        <time>2019-12-21T10:07:34.356Z</time>
      </trkpt>
      <trkpt lat="41.27069833" lon="1.841425">
        <ele>253.0</ele>
        <time>2019-12-21T10:07:35.368Z</time>
      </trkpt>
      <trkpt lat="41.27069833" lon="1.841425">
        <ele>253.0</ele>
        <time>2019-12-21T10:07:36.359Z</time>
      </trkpt>
      <trkpt lat="41.270655" lon="1.84145833">
        <ele>253.0</ele>
        <time>2019-12-21T10:07:37.347Z</time>
      </trkpt>
      <trkpt lat="41.270655" lon="1.84145833">
        <ele>253.0</ele>
        <time>2019-12-21T10:07:38.372Z</time>
      </trkpt>
      <trkpt lat="41.27061333" lon="1.84148167">
        <ele>253.0</ele>
        <time>2019-12-21T10:07:39.340Z</time>
      </trkpt>
      <trkpt lat="41.27061333" lon="1.84148167">
        <ele>253.0</ele>
        <time>2019-12-21T10:07:40.360Z</time>
      </trkpt>
      <trkpt lat="41.27056833" lon="1.84150667">
        <ele>253.0</ele>
        <time>2019-12-21T10:07:41.360Z</time>
      </trkpt>
      <trkpt lat="41.27056833" lon="1.84150667">
        <ele>253.0</ele>
        <time>2019-12-21T10:07:42.367Z</time>
      </trkpt>
      <trkpt lat="41.270525" lon="1.84153167">
        <ele>253.0</ele>
        <time>2019-12-21T10:07:43.341Z</time>
      </trkpt>
      <trkpt lat="41.270525" lon="1.84153167">
        <ele>253.0</ele>
        <time>2019-12-21T10:07:44.374Z</time>
      </trkpt>
      <trkpt lat="41.27048333" lon="1.84155833">
        <ele>252.0</ele>
        <time>2019-12-21T10:07:45.338Z</time>
      </trkpt>
      <trkpt lat="41.27048333" lon="1.84155833">
        <ele>252.0</ele>
        <time>2019-12-21T10:07:46.369Z</time>
      </trkpt>
      <trkpt lat="41.27044333" lon="1.84158">
        <ele>252.0</ele>
        <time>2019-12-21T10:07:47.337Z</time>
      </trkpt>
      <trkpt lat="41.27044333" lon="1.84158">
        <ele>252.0</ele>
        <time>2019-12-21T10:07:48.364Z</time>
      </trkpt>
      <trkpt lat="41.270395" lon="1.8416">
        <ele>251.0</ele>
        <time>2019-12-21T10:07:49.367Z</time>
      </trkpt>
      <trkpt lat="41.270395" lon="1.8416">
        <ele>251.0</ele>
        <time>2019-12-21T10:07:50.339Z</time>
      </trkpt>
      <trkpt lat="41.27035" lon="1.84161333">
        <ele>250.0</ele>
        <time>2019-12-21T10:07:51.346Z</time>
      </trkpt>
      <trkpt lat="41.27035" lon="1.84161333">
        <ele>250.0</ele>
        <time>2019-12-21T10:07:52.366Z</time>
      </trkpt>
      <trkpt lat="41.27030167" lon="1.84162333">
        <ele>249.0</ele>
        <time>2019-12-21T10:07:53.349Z</time>
      </trkpt>
      <trkpt lat="41.27030167" lon="1.84162333">
        <ele>249.0</ele>
        <time>2019-12-21T10:07:54.341Z</time>
      </trkpt>
      <trkpt lat="41.270255" lon="1.84163833">
        <ele>249.0</ele>
        <time>2019-12-21T10:07:55.368Z</time>
      </trkpt>
      <trkpt lat="41.27023167" lon="1.84164667">
        <ele>249.0</ele>
        <time>2019-12-21T10:07:56.335Z</time>
      </trkpt>
      <trkpt lat="41.27020833" lon="1.84165167">
        <ele>249.0</ele>
        <time>2019-12-21T10:07:57.345Z</time>
      </trkpt>
      <trkpt lat="41.27020833" lon="1.84165167">
        <ele>249.0</ele>
        <time>2019-12-21T10:07:58.355Z</time>
      </trkpt>
      <trkpt lat="41.27015167" lon="1.84165333">
        <ele>248.0</ele>
        <time>2019-12-21T10:07:59.369Z</time>
      </trkpt>
      <trkpt lat="41.27015167" lon="1.84165333">
        <ele>248.0</ele>
        <time>2019-12-21T10:08:00.350Z</time>
      </trkpt>
      <trkpt lat="41.27009667" lon="1.84165">
        <ele>248.0</ele>
        <time>2019-12-21T10:08:01.358Z</time>
      </trkpt>
      <trkpt lat="41.27009667" lon="1.84165">
        <ele>248.0</ele>
        <time>2019-12-21T10:08:02.340Z</time>
      </trkpt>
      <trkpt lat="41.27004333" lon="1.84164833">
        <ele>248.0</ele>
        <time>2019-12-21T10:08:03.338Z</time>
      </trkpt>
      <trkpt lat="41.27004333" lon="1.84164833">
        <ele>248.0</ele>
        <time>2019-12-21T10:08:04.367Z</time>
      </trkpt>
      <trkpt lat="41.26998333" lon="1.84164667">
        <ele>247.0</ele>
        <time>2019-12-21T10:08:05.335Z</time>
      </trkpt>
      <trkpt lat="41.26998333" lon="1.84164667">
        <ele>247.0</ele>
        <time>2019-12-21T10:08:06.371Z</time>
      </trkpt>
      <trkpt lat="41.26992167" lon="1.841635">
        <ele>247.0</ele>
        <time>2019-12-21T10:08:07.346Z</time>
      </trkpt>
      <trkpt lat="41.26992167" lon="1.841635">
        <ele>247.0</ele>
        <time>2019-12-21T10:08:08.366Z</time>
      </trkpt>
      <trkpt lat="41.26986833" lon="1.84162833">
        <ele>248.0</ele>
        <time>2019-12-21T10:08:09.367Z</time>
      </trkpt>
      <trkpt lat="41.26986833" lon="1.84162833">
        <ele>248.0</ele>
        <time>2019-12-21T10:08:10.350Z</time>
      </trkpt>
      <trkpt lat="41.26983" lon="1.84163333">
        <ele>247.0</ele>
        <time>2019-12-21T10:08:11.366Z</time>
      </trkpt>
      <trkpt lat="41.26983" lon="1.84163333">
        <ele>247.0</ele>
        <time>2019-12-21T10:08:12.349Z</time>
      </trkpt>
      <trkpt lat="41.26977833" lon="1.84163667">
        <ele>247.0</ele>
        <time>2019-12-21T10:08:13.343Z</time>
      </trkpt>
      <trkpt lat="41.26977833" lon="1.84163667">
        <ele>247.0</ele>
        <time>2019-12-21T10:08:14.342Z</time>
      </trkpt>
      <trkpt lat="41.26972833" lon="1.84164">
        <ele>247.0</ele>
        <time>2019-12-21T10:08:15.349Z</time>
      </trkpt>
      <trkpt lat="41.26972833" lon="1.84164">
        <ele>247.0</ele>
        <time>2019-12-21T10:08:16.342Z</time>
      </trkpt>
      <trkpt lat="41.26968" lon="1.84163833">
        <ele>247.0</ele>
        <time>2019-12-21T10:08:17.368Z</time>
      </trkpt>
      <trkpt lat="41.26968" lon="1.84163833">
        <ele>247.0</ele>
        <time>2019-12-21T10:08:18.353Z</time>
      </trkpt>
      <trkpt lat="41.26963" lon="1.84163333">
        <ele>247.0</ele>
        <time>2019-12-21T10:08:19.360Z</time>
      </trkpt>
      <trkpt lat="41.26963" lon="1.84163333">
        <ele>247.0</ele>
        <time>2019-12-21T10:08:20.343Z</time>
      </trkpt>
      <trkpt lat="41.269575" lon="1.84162">
        <ele>246.0</ele>
        <time>2019-12-21T10:08:21.355Z</time>
      </trkpt>
      <trkpt lat="41.269575" lon="1.84162">
        <ele>246.0</ele>
        <time>2019-12-21T10:08:22.338Z</time>
      </trkpt>
      <trkpt lat="41.269525" lon="1.841605">
        <ele>246.0</ele>
        <time>2019-12-21T10:08:23.359Z</time>
      </trkpt>
      <trkpt lat="41.269525" lon="1.841605">
        <ele>246.0</ele>
        <time>2019-12-21T10:08:24.371Z</time>
      </trkpt>
      <trkpt lat="41.26947167" lon="1.84158833">
        <ele>246.0</ele>
        <time>2019-12-21T10:08:25.338Z</time>
      </trkpt>
      <trkpt lat="41.26947167" lon="1.84158833">
        <ele>246.0</ele>
        <time>2019-12-21T10:08:26.360Z</time>
      </trkpt>
      <trkpt lat="41.26942" lon="1.84157333">
        <ele>246.0</ele>
        <time>2019-12-21T10:08:27.368Z</time>
      </trkpt>
      <trkpt lat="41.26942" lon="1.84157333">
        <ele>246.0</ele>
        <time>2019-12-21T10:08:28.343Z</time>
      </trkpt>
      <trkpt lat="41.26936333" lon="1.84156">
        <ele>246.0</ele>
        <time>2019-12-21T10:08:29.357Z</time>
      </trkpt>
      <trkpt lat="41.26936333" lon="1.84156">
        <ele>246.0</ele>
        <time>2019-12-21T10:08:30.338Z</time>
      </trkpt>
      <trkpt lat="41.26931167" lon="1.841545">
        <ele>246.0</ele>
        <time>2019-12-21T10:08:31.360Z</time>
      </trkpt>
      <trkpt lat="41.26931167" lon="1.841545">
        <ele>246.0</ele>
        <time>2019-12-21T10:08:32.342Z</time>
      </trkpt>
      <trkpt lat="41.26925167" lon="1.84153833">
        <ele>246.0</ele>
        <time>2019-12-21T10:08:33.348Z</time>
      </trkpt>
      <trkpt lat="41.26925167" lon="1.84153833">
        <ele>246.0</ele>
        <time>2019-12-21T10:08:34.339Z</time>
      </trkpt>
      <trkpt lat="41.26919333" lon="1.84153667">
        <ele>245.0</ele>
        <time>2019-12-21T10:08:35.346Z</time>
      </trkpt>
      <trkpt lat="41.26919333" lon="1.84153667">
        <ele>245.0</ele>
        <time>2019-12-21T10:08:36.358Z</time>
      </trkpt>
      <trkpt lat="41.269145" lon="1.84151833">
        <ele>245.0</ele>
        <time>2019-12-21T10:08:37.365Z</time>
      </trkpt>
      <trkpt lat="41.269145" lon="1.84151833">
        <ele>245.0</ele>
        <time>2019-12-21T10:08:38.346Z</time>
      </trkpt>
      <trkpt lat="41.26908833" lon="1.841505">
        <ele>245.0</ele>
        <time>2019-12-21T10:08:39.345Z</time>
      </trkpt>
      <trkpt lat="41.26908833" lon="1.841505">
        <ele>245.0</ele>
        <time>2019-12-21T10:08:40.341Z</time>
      </trkpt>
      <trkpt lat="41.26902333" lon="1.84148667">
        <ele>245.0</ele>
        <time>2019-12-21T10:08:41.348Z</time>
      </trkpt>
      <trkpt lat="41.26902333" lon="1.84148667">
        <ele>245.0</ele>
        <time>2019-12-21T10:08:42.367Z</time>
      </trkpt>
      <trkpt lat="41.26897" lon="1.84148167">
        <ele>246.0</ele>
        <time>2019-12-21T10:08:43.370Z</time>
      </trkpt>
      <trkpt lat="41.26897" lon="1.84148167">
        <ele>246.0</ele>
        <time>2019-12-21T10:08:44.335Z</time>
      </trkpt>
      <trkpt lat="41.26891333" lon="1.84148">
        <ele>246.0</ele>
        <time>2019-12-21T10:08:45.343Z</time>
      </trkpt>
      <trkpt lat="41.26891333" lon="1.84148">
        <ele>246.0</ele>
        <time>2019-12-21T10:08:46.347Z</time>
      </trkpt>
      <trkpt lat="41.26885167" lon="1.841485">
        <ele>246.0</ele>
        <time>2019-12-21T10:08:47.349Z</time>
      </trkpt>
      <trkpt lat="41.26885167" lon="1.841485">
        <ele>246.0</ele>
        <time>2019-12-21T10:08:48.367Z</time>
      </trkpt>
      <trkpt lat="41.26879" lon="1.84149">
        <ele>247.0</ele>
        <time>2019-12-21T10:08:49.335Z</time>
      </trkpt>
      <trkpt lat="41.26879" lon="1.84149">
        <ele>247.0</ele>
        <time>2019-12-21T10:08:50.359Z</time>
      </trkpt>
      <trkpt lat="41.26872667" lon="1.841495">
        <ele>247.0</ele>
        <time>2019-12-21T10:08:51.356Z</time>
      </trkpt>
      <trkpt lat="41.26872667" lon="1.841495">
        <ele>247.0</ele>
        <time>2019-12-21T10:08:52.370Z</time>
      </trkpt>
      <trkpt lat="41.26865667" lon="1.84150833">
        <ele>247.0</ele>
        <time>2019-12-21T10:08:53.337Z</time>
      </trkpt>
      <trkpt lat="41.26865667" lon="1.84150833">
        <ele>247.0</ele>
        <time>2019-12-21T10:08:54.340Z</time>
      </trkpt>
      <trkpt lat="41.26859167" lon="1.84151833">
        <ele>247.0</ele>
        <time>2019-12-21T10:08:55.350Z</time>
      </trkpt>
      <trkpt lat="41.26856" lon="1.84152333">
        <ele>247.0</ele>
        <time>2019-12-21T10:08:56.333Z</time>
      </trkpt>
      <trkpt lat="41.26852833" lon="1.84153667">
        <ele>247.0</ele>
        <time>2019-12-21T10:08:57.359Z</time>
      </trkpt>
      <trkpt lat="41.26852833" lon="1.84153667">
        <ele>247.0</ele>
        <time>2019-12-21T10:08:58.341Z</time>
      </trkpt>
      <trkpt lat="41.26846833" lon="1.84156167">
        <ele>247.0</ele>
        <time>2019-12-21T10:08:59.359Z</time>
      </trkpt>
      <trkpt lat="41.26844" lon="1.84157167">
        <ele>248.0</ele>
        <time>2019-12-21T10:09:00.341Z</time>
      </trkpt>
      <trkpt lat="41.26844" lon="1.84157167">
        <ele>248.0</ele>
        <time>2019-12-21T10:09:01.360Z</time>
      </trkpt>
      <trkpt lat="41.26839667" lon="1.84158333">
        <ele>248.0</ele>
        <time>2019-12-21T10:09:02.356Z</time>
      </trkpt>
      <trkpt lat="41.26837333" lon="1.84159">
        <ele>248.0</ele>
        <time>2019-12-21T10:09:03.339Z</time>
      </trkpt>
      <trkpt lat="41.26837333" lon="1.84159">
        <ele>248.0</ele>
        <time>2019-12-21T10:09:04.357Z</time>
      </trkpt>
      <trkpt lat="41.26833" lon="1.84159333">
        <ele>248.0</ele>
        <time>2019-12-21T10:09:05.368Z</time>
      </trkpt>
      <trkpt lat="41.26833" lon="1.84159333">
        <ele>248.0</ele>
        <time>2019-12-21T10:09:06.349Z</time>
      </trkpt>
      <trkpt lat="41.268295" lon="1.841595">
        <ele>248.0</ele>
        <time>2019-12-21T10:09:07.368Z</time>
      </trkpt>
      <trkpt lat="41.268295" lon="1.841595">
        <ele>248.0</ele>
        <time>2019-12-21T10:09:08.361Z</time>
      </trkpt>
      <trkpt lat="41.26825167" lon="1.84158333">
        <ele>249.0</ele>
        <time>2019-12-21T10:09:09.369Z</time>
      </trkpt>
      <trkpt lat="41.26825167" lon="1.84158333">
        <ele>249.0</ele>
        <time>2019-12-21T10:09:10.348Z</time>
      </trkpt>
      <trkpt lat="41.26819167" lon="1.84161167">
        <ele>249.0</ele>
        <time>2019-12-21T10:09:11.345Z</time>
      </trkpt>
      <trkpt lat="41.26819167" lon="1.84161167">
        <ele>249.0</ele>
        <time>2019-12-21T10:09:12.370Z</time>
      </trkpt>
      <trkpt lat="41.26813167" lon="1.84163167">
        <ele>249.0</ele>
        <time>2019-12-21T10:09:13.337Z</time>
      </trkpt>
      <trkpt lat="41.26813167" lon="1.84163167">
        <ele>249.0</ele>
        <time>2019-12-21T10:09:14.333Z</time>
      </trkpt>
      <trkpt lat="41.26807167" lon="1.84164167">
        <ele>250.0</ele>
        <time>2019-12-21T10:09:15.335Z</time>
      </trkpt>
      <trkpt lat="41.26807167" lon="1.84164167">
        <ele>250.0</ele>
        <time>2019-12-21T10:09:16.356Z</time>
      </trkpt>
      <trkpt lat="41.26801167" lon="1.84161833">
        <ele>250.0</ele>
        <time>2019-12-21T10:09:17.367Z</time>
      </trkpt>
      <trkpt lat="41.26798333" lon="1.84158167">
        <ele>250.0</ele>
        <time>2019-12-21T10:09:18.345Z</time>
      </trkpt>
      <trkpt lat="41.26798333" lon="1.84158167">
        <ele>250.0</ele>
        <time>2019-12-21T10:09:19.345Z</time>
      </trkpt>
      <trkpt lat="41.26793333" lon="1.84146667">
        <ele>248.0</ele>
        <time>2019-12-21T10:09:20.362Z</time>
      </trkpt>
      <trkpt lat="41.26791833" lon="1.841395">
        <ele>248.0</ele>
        <time>2019-12-21T10:09:21.343Z</time>
      </trkpt>
      <trkpt lat="41.26791833" lon="1.841395">
        <ele>248.0</ele>
        <time>2019-12-21T10:09:22.363Z</time>
      </trkpt>
      <trkpt lat="41.26790333" lon="1.841235">
        <ele>247.0</ele>
        <time>2019-12-21T10:09:23.371Z</time>
      </trkpt>
      <trkpt lat="41.26790333" lon="1.841235">
        <ele>247.0</ele>
        <time>2019-12-21T10:09:24.352Z</time>
      </trkpt>
      <trkpt lat="41.2679" lon="1.84106">
        <ele>247.0</ele>
        <time>2019-12-21T10:09:25.334Z</time>
      </trkpt>
      <trkpt lat="41.2679" lon="1.84106">
        <ele>247.0</ele>
        <time>2019-12-21T10:09:26.357Z</time>
      </trkpt>
      <trkpt lat="41.267905" lon="1.84087833">
        <ele>246.0</ele>
        <time>2019-12-21T10:09:27.364Z</time>
      </trkpt>
      <trkpt lat="41.267905" lon="1.84087833">
        <ele>246.0</ele>
        <time>2019-12-21T10:09:28.342Z</time>
      </trkpt>
      <trkpt lat="41.267915" lon="1.84068667">
        <ele>245.0</ele>
        <time>2019-12-21T10:09:29.338Z</time>
      </trkpt>
      <trkpt lat="41.267915" lon="1.84068667">
        <ele>245.0</ele>
        <time>2019-12-21T10:09:30.357Z</time>
      </trkpt>
      <trkpt lat="41.26792333" lon="1.84049">
        <ele>243.0</ele>
        <time>2019-12-21T10:09:31.365Z</time>
      </trkpt>
      <trkpt lat="41.26791667" lon="1.8404">
        <ele>243.0</ele>
        <time>2019-12-21T10:09:32.350Z</time>
      </trkpt>
      <trkpt lat="41.267895" lon="1.84032333">
        <ele>242.0</ele>
        <time>2019-12-21T10:09:33.372Z</time>
      </trkpt>
      <trkpt lat="41.267895" lon="1.84032333">
        <ele>242.0</ele>
        <time>2019-12-21T10:09:34.349Z</time>
      </trkpt>
      <trkpt lat="41.26781333" lon="1.84019667">
        <ele>241.0</ele>
        <time>2019-12-21T10:09:35.361Z</time>
      </trkpt>
      <trkpt lat="41.26781333" lon="1.84019667">
        <ele>241.0</ele>
        <time>2019-12-21T10:09:36.367Z</time>
      </trkpt>
      <trkpt lat="41.26769333" lon="1.84011833">
        <ele>240.0</ele>
        <time>2019-12-21T10:09:37.345Z</time>
      </trkpt>
      <trkpt lat="41.26769333" lon="1.84011833">
        <ele>240.0</ele>
        <time>2019-12-21T10:09:38.364Z</time>
      </trkpt>
      <trkpt lat="41.26756333" lon="1.84004">
        <ele>239.0</ele>
        <time>2019-12-21T10:09:39.338Z</time>
      </trkpt>
      <trkpt lat="41.26756333" lon="1.84004">
        <ele>239.0</ele>
        <time>2019-12-21T10:09:40.344Z</time>
      </trkpt>
      <trkpt lat="41.26743" lon="1.839965">
        <ele>238.0</ele>
        <time>2019-12-21T10:09:41.351Z</time>
      </trkpt>
      <trkpt lat="41.26743" lon="1.839965">
        <ele>238.0</ele>
        <time>2019-12-21T10:09:42.359Z</time>
      </trkpt>
      <trkpt lat="41.26729167" lon="1.83989333">
        <ele>237.0</ele>
        <time>2019-12-21T10:09:43.362Z</time>
      </trkpt>
      <trkpt lat="41.26729167" lon="1.83989333">
        <ele>237.0</ele>
        <time>2019-12-21T10:09:44.342Z</time>
      </trkpt>
      <trkpt lat="41.26714833" lon="1.83984333">
        <ele>236.0</ele>
        <time>2019-12-21T10:09:45.349Z</time>
      </trkpt>
      <trkpt lat="41.26714833" lon="1.83984333">
        <ele>236.0</ele>
        <time>2019-12-21T10:09:46.334Z</time>
      </trkpt>
      <trkpt lat="41.26700167" lon="1.839805">
        <ele>235.0</ele>
        <time>2019-12-21T10:09:47.342Z</time>
      </trkpt>
      <trkpt lat="41.26700167" lon="1.839805">
        <ele>235.0</ele>
        <time>2019-12-21T10:09:48.363Z</time>
      </trkpt>
      <trkpt lat="41.266855" lon="1.83976833">
        <ele>234.0</ele>
        <time>2019-12-21T10:09:49.348Z</time>
      </trkpt>
      <trkpt lat="41.266855" lon="1.83976833">
        <ele>234.0</ele>
        <time>2019-12-21T10:09:50.367Z</time>
      </trkpt>
      <trkpt lat="41.26671833" lon="1.83973333">
        <ele>234.0</ele>
        <time>2019-12-21T10:09:51.343Z</time>
      </trkpt>
      <trkpt lat="41.26671833" lon="1.83973333">
        <ele>234.0</ele>
        <time>2019-12-21T10:09:52.369Z</time>
      </trkpt>
      <trkpt lat="41.26659667" lon="1.83969">
        <ele>233.0</ele>
        <time>2019-12-21T10:09:53.336Z</time>
      </trkpt>
      <trkpt lat="41.26659667" lon="1.83969">
        <ele>233.0</ele>
        <time>2019-12-21T10:09:54.334Z</time>
      </trkpt>
      <trkpt lat="41.26648333" lon="1.83962833">
        <ele>233.0</ele>
        <time>2019-12-21T10:09:55.368Z</time>
      </trkpt>
      <trkpt lat="41.26648333" lon="1.83962833">
        <ele>233.0</ele>
        <time>2019-12-21T10:09:56.367Z</time>
      </trkpt>
      <trkpt lat="41.26638833" lon="1.83954667">
        <ele>233.0</ele>
        <time>2019-12-21T10:09:57.338Z</time>
      </trkpt>
      <trkpt lat="41.26638833" lon="1.83954667">
        <ele>233.0</ele>
        <time>2019-12-21T10:09:58.337Z</time>
      </trkpt>
      <trkpt lat="41.26630667" lon="1.83945667">
        <ele>233.0</ele>
        <time>2019-12-21T10:09:59.369Z</time>
      </trkpt>
      <trkpt lat="41.26630667" lon="1.83945667">
        <ele>233.0</ele>
        <time>2019-12-21T10:10:00.336Z</time>
      </trkpt>
      <trkpt lat="41.266245" lon="1.83937167">
        <ele>233.0</ele>
        <time>2019-12-21T10:10:01.343Z</time>
      </trkpt>
      <trkpt lat="41.266245" lon="1.83937167">
        <ele>233.0</ele>
        <time>2019-12-21T10:10:02.358Z</time>
      </trkpt>
      <trkpt lat="41.26619333" lon="1.839285">
        <ele>233.0</ele>
        <time>2019-12-21T10:10:03.358Z</time>
      </trkpt>
      <trkpt lat="41.26619333" lon="1.839285">
        <ele>233.0</ele>
        <time>2019-12-21T10:10:04.340Z</time>
      </trkpt>
      <trkpt lat="41.26614833" lon="1.839185">
        <ele>233.0</ele>
        <time>2019-12-21T10:10:05.345Z</time>
      </trkpt>
      <trkpt lat="41.26614833" lon="1.839185">
        <ele>233.0</ele>
        <time>2019-12-21T10:10:06.357Z</time>
      </trkpt>
      <trkpt lat="41.2661" lon="1.839105">
        <ele>233.0</ele>
        <time>2019-12-21T10:10:07.358Z</time>
      </trkpt>
      <trkpt lat="41.2661" lon="1.839105">
        <ele>233.0</ele>
        <time>2019-12-21T10:10:08.339Z</time>
      </trkpt>
      <trkpt lat="41.266055" lon="1.839025">
        <ele>234.0</ele>
        <time>2019-12-21T10:10:09.346Z</time>
      </trkpt>
      <trkpt lat="41.266055" lon="1.839025">
        <ele>234.0</ele>
        <time>2019-12-21T10:10:10.368Z</time>
      </trkpt>
      <trkpt lat="41.26600833" lon="1.83894">
        <ele>234.0</ele>
        <time>2019-12-21T10:10:11.345Z</time>
      </trkpt>
      <trkpt lat="41.26600833" lon="1.83894">
        <ele>234.0</ele>
        <time>2019-12-21T10:10:12.357Z</time>
      </trkpt>
      <trkpt lat="41.265965" lon="1.83883167">
        <ele>234.0</ele>
        <time>2019-12-21T10:10:13.364Z</time>
      </trkpt>
      <trkpt lat="41.265965" lon="1.83883167">
        <ele>234.0</ele>
        <time>2019-12-21T10:10:14.344Z</time>
      </trkpt>
      <trkpt lat="41.26592667" lon="1.83869833">
        <ele>234.0</ele>
        <time>2019-12-21T10:10:15.339Z</time>
      </trkpt>
      <trkpt lat="41.26592667" lon="1.83869833">
        <ele>234.0</ele>
        <time>2019-12-21T10:10:16.344Z</time>
      </trkpt>
      <trkpt lat="41.26589667" lon="1.83853833">
        <ele>233.0</ele>
        <time>2019-12-21T10:10:17.351Z</time>
      </trkpt>
      <trkpt lat="41.26589667" lon="1.83853833">
        <ele>233.0</ele>
        <time>2019-12-21T10:10:18.372Z</time>
      </trkpt>
      <trkpt lat="41.26586333" lon="1.838385">
        <ele>233.0</ele>
        <time>2019-12-21T10:10:19.362Z</time>
      </trkpt>
      <trkpt lat="41.26586333" lon="1.838385">
        <ele>233.0</ele>
        <time>2019-12-21T10:10:20.343Z</time>
      </trkpt>
      <trkpt lat="41.26585" lon="1.838215">
        <ele>233.0</ele>
        <time>2019-12-21T10:10:21.350Z</time>
      </trkpt>
      <trkpt lat="41.26585" lon="1.838215">
        <ele>233.0</ele>
        <time>2019-12-21T10:10:22.369Z</time>
      </trkpt>
      <trkpt lat="41.26584167" lon="1.83804333">
        <ele>233.0</ele>
        <time>2019-12-21T10:10:23.356Z</time>
      </trkpt>
      <trkpt lat="41.26584167" lon="1.83804333">
        <ele>233.0</ele>
        <time>2019-12-21T10:10:24.337Z</time>
      </trkpt>
      <trkpt lat="41.26582667" lon="1.83788667">
        <ele>232.0</ele>
        <time>2019-12-21T10:10:25.350Z</time>
      </trkpt>
      <trkpt lat="41.26582667" lon="1.83788667">
        <ele>232.0</ele>
        <time>2019-12-21T10:10:26.372Z</time>
      </trkpt>
      <trkpt lat="41.26576833" lon="1.83776">
        <ele>232.0</ele>
        <time>2019-12-21T10:10:27.339Z</time>
      </trkpt>
      <trkpt lat="41.26576833" lon="1.83776">
        <ele>232.0</ele>
        <time>2019-12-21T10:10:28.359Z</time>
      </trkpt>
      <trkpt lat="41.26567167" lon="1.83773">
        <ele>232.0</ele>
        <time>2019-12-21T10:10:29.346Z</time>
      </trkpt>
      <trkpt lat="41.26562667" lon="1.837735">
        <ele>232.0</ele>
        <time>2019-12-21T10:10:30.370Z</time>
      </trkpt>
      <trkpt lat="41.26562667" lon="1.837735">
        <ele>232.0</ele>
        <time>2019-12-21T10:10:31.350Z</time>
      </trkpt>
      <trkpt lat="41.26554333" lon="1.837765">
        <ele>232.0</ele>
        <time>2019-12-21T10:10:32.340Z</time>
      </trkpt>
      <trkpt lat="41.26550667" lon="1.837775">
        <ele>232.0</ele>
        <time>2019-12-21T10:10:33.360Z</time>
      </trkpt>
      <trkpt lat="41.26550667" lon="1.837775">
        <ele>232.0</ele>
        <time>2019-12-21T10:10:34.340Z</time>
      </trkpt>
      <trkpt lat="41.26543" lon="1.837785">
        <ele>232.0</ele>
        <time>2019-12-21T10:10:35.368Z</time>
      </trkpt>
      <trkpt lat="41.26543" lon="1.837785">
        <ele>232.0</ele>
        <time>2019-12-21T10:10:36.346Z</time>
      </trkpt>
      <trkpt lat="41.26536" lon="1.83780833">
        <ele>232.0</ele>
        <time>2019-12-21T10:10:37.360Z</time>
      </trkpt>
      <trkpt lat="41.26536" lon="1.83780833">
        <ele>232.0</ele>
        <time>2019-12-21T10:10:38.338Z</time>
      </trkpt>
      <trkpt lat="41.26530333" lon="1.83786167">
        <ele>232.0</ele>
        <time>2019-12-21T10:10:39.372Z</time>
      </trkpt>
      <trkpt lat="41.26530333" lon="1.83786167">
        <ele>232.0</ele>
        <time>2019-12-21T10:10:40.359Z</time>
      </trkpt>
      <trkpt lat="41.26525333" lon="1.83794167">
        <ele>232.0</ele>
        <time>2019-12-21T10:10:41.369Z</time>
      </trkpt>
      <trkpt lat="41.26525333" lon="1.83794167">
        <ele>232.0</ele>
        <time>2019-12-21T10:10:42.346Z</time>
      </trkpt>
      <trkpt lat="41.26518333" lon="1.838035">
        <ele>232.0</ele>
        <time>2019-12-21T10:10:43.344Z</time>
      </trkpt>
      <trkpt lat="41.26518333" lon="1.838035">
        <ele>232.0</ele>
        <time>2019-12-21T10:10:44.357Z</time>
      </trkpt>
      <trkpt lat="41.265095" lon="1.83814167">
        <ele>232.0</ele>
        <time>2019-12-21T10:10:45.368Z</time>
      </trkpt>
      <trkpt lat="41.265095" lon="1.83814167">
        <ele>232.0</ele>
        <time>2019-12-21T10:10:46.333Z</time>
      </trkpt>
      <trkpt lat="41.26500667" lon="1.83826833">
        <ele>232.0</ele>
        <time>2019-12-21T10:10:47.338Z</time>
      </trkpt>
      <trkpt lat="41.26500667" lon="1.83826833">
        <ele>232.0</ele>
        <time>2019-12-21T10:10:48.372Z</time>
      </trkpt>
      <trkpt lat="41.264925" lon="1.83839167">
        <ele>233.0</ele>
        <time>2019-12-21T10:10:49.339Z</time>
      </trkpt>
      <trkpt lat="41.264925" lon="1.83839167">
        <ele>233.0</ele>
        <time>2019-12-21T10:10:50.357Z</time>
      </trkpt>
      <trkpt lat="41.26486667" lon="1.83851333">
        <ele>233.0</ele>
        <time>2019-12-21T10:10:51.339Z</time>
      </trkpt>
      <trkpt lat="41.264845" lon="1.83858">
        <ele>233.0</ele>
        <time>2019-12-21T10:10:52.360Z</time>
      </trkpt>
      <trkpt lat="41.264845" lon="1.83858">
        <ele>233.0</ele>
        <time>2019-12-21T10:10:53.338Z</time>
      </trkpt>
      <trkpt lat="41.26481" lon="1.83871333">
        <ele>233.0</ele>
        <time>2019-12-21T10:10:54.367Z</time>
      </trkpt>
      <trkpt lat="41.26479667" lon="1.83877667">
        <ele>233.0</ele>
        <time>2019-12-21T10:10:55.350Z</time>
      </trkpt>
      <trkpt lat="41.26479667" lon="1.83877667">
        <ele>233.0</ele>
        <time>2019-12-21T10:10:56.370Z</time>
      </trkpt>
      <trkpt lat="41.264775" lon="1.83889167">
        <ele>232.0</ele>
        <time>2019-12-21T10:10:57.336Z</time>
      </trkpt>
      <trkpt lat="41.264775" lon="1.83889167">
        <ele>232.0</ele>
        <time>2019-12-21T10:10:58.358Z</time>
      </trkpt>
      <trkpt lat="41.26474833" lon="1.83901">
        <ele>232.0</ele>
        <time>2019-12-21T10:10:59.338Z</time>
      </trkpt>
      <trkpt lat="41.26474833" lon="1.83901">
        <ele>232.0</ele>
        <time>2019-12-21T10:11:00.338Z</time>
      </trkpt>
      <trkpt lat="41.26472667" lon="1.83909833">
        <ele>232.0</ele>
        <time>2019-12-21T10:11:01.345Z</time>
      </trkpt>
      <trkpt lat="41.26472667" lon="1.83909833">
        <ele>232.0</ele>
        <time>2019-12-21T10:11:02.365Z</time>
      </trkpt>
      <trkpt lat="41.26471667" lon="1.839145">
        <ele>233.0</ele>
        <time>2019-12-21T10:11:03.333Z</time>
      </trkpt>
      <trkpt lat="41.26471667" lon="1.839145">
        <ele>233.0</ele>
        <time>2019-12-21T10:11:04.364Z</time>
      </trkpt>
      <trkpt lat="41.26470833" lon="1.839155">
        <ele>233.0</ele>
        <time>2019-12-21T10:11:05.374Z</time>
      </trkpt>
      <trkpt lat="41.26470333" lon="1.839155">
        <ele>233.0</ele>
        <time>2019-12-21T10:11:06.354Z</time>
      </trkpt>
      <trkpt lat="41.26470333" lon="1.839155">
        <ele>233.0</ele>
        <time>2019-12-21T10:11:07.360Z</time>
      </trkpt>
      <trkpt lat="41.26472" lon="1.83914">
        <ele>233.0</ele>
        <time>2019-12-21T10:11:08.360Z</time>
      </trkpt>
      <trkpt lat="41.26472" lon="1.83914">
        <ele>233.0</ele>
        <time>2019-12-21T10:11:09.350Z</time>
      </trkpt>
      <trkpt lat="41.26471833" lon="1.83915">
        <ele>221.0</ele>
        <time>2019-12-21T10:11:10.356Z</time>
      </trkpt>
      <trkpt lat="41.26471833" lon="1.83915">
        <ele>221.0</ele>
        <time>2019-12-21T10:11:11.351Z</time>
      </trkpt>
      <trkpt lat="41.26474" lon="1.83913167">
        <ele>221.0</ele>
        <time>2019-12-21T10:11:12.370Z</time>
      </trkpt>
      <trkpt lat="41.26475333" lon="1.83912333">
        <ele>221.0</ele>
        <time>2019-12-21T10:11:13.352Z</time>
      </trkpt>
      <trkpt lat="41.26475333" lon="1.83912333">
        <ele>221.0</ele>
        <time>2019-12-21T10:11:14.372Z</time>
      </trkpt>
      <trkpt lat="41.26477333" lon="1.83910167">
        <ele>222.0</ele>
        <time>2019-12-21T10:11:15.360Z</time>
      </trkpt>
      <trkpt lat="41.26477333" lon="1.83910167">
        <ele>222.0</ele>
        <time>2019-12-21T10:11:16.368Z</time>
      </trkpt>
      <trkpt lat="41.264795" lon="1.83909333">
        <ele>221.0</ele>
        <time>2019-12-21T10:11:17.334Z</time>
      </trkpt>
      <trkpt lat="41.264795" lon="1.83909333">
        <ele>221.0</ele>
        <time>2019-12-21T10:11:18.364Z</time>
      </trkpt>
      <trkpt lat="41.26481333" lon="1.83908667">
        <ele>221.0</ele>
        <time>2019-12-21T10:11:19.351Z</time>
      </trkpt>
      <trkpt lat="41.26481333" lon="1.83908667">
        <ele>221.0</ele>
        <time>2019-12-21T10:11:20.342Z</time>
      </trkpt>
      <trkpt lat="41.26483" lon="1.83906833">
        <ele>222.0</ele>
        <time>2019-12-21T10:11:21.352Z</time>
      </trkpt>
      <trkpt lat="41.26483" lon="1.83906833">
        <ele>222.0</ele>
        <time>2019-12-21T10:11:22.366Z</time>
      </trkpt>
      <trkpt lat="41.264835" lon="1.83904667">
        <ele>222.0</ele>
        <time>2019-12-21T10:11:23.344Z</time>
      </trkpt>
      <trkpt lat="41.264835" lon="1.83904667">
        <ele>222.0</ele>
        <time>2019-12-21T10:11:24.364Z</time>
      </trkpt>
      <trkpt lat="41.264845" lon="1.83903333">
        <ele>222.0</ele>
        <time>2019-12-21T10:11:25.370Z</time>
      </trkpt>
      <trkpt lat="41.264845" lon="1.83903333">
        <ele>222.0</ele>
        <time>2019-12-21T10:11:26.355Z</time>
      </trkpt>
      <trkpt lat="41.26485167" lon="1.839015">
        <ele>222.0</ele>
        <time>2019-12-21T10:11:27.346Z</time>
      </trkpt>
      <trkpt lat="41.26485167" lon="1.839015">
        <ele>222.0</ele>
        <time>2019-12-21T10:11:28.350Z</time>
      </trkpt>
      <trkpt lat="41.26486167" lon="1.83897333">
        <ele>222.0</ele>
        <time>2019-12-21T10:11:29.357Z</time>
      </trkpt>
      <trkpt lat="41.26486167" lon="1.83897333">
        <ele>222.0</ele>
        <time>2019-12-21T10:11:30.368Z</time>
      </trkpt>
      <trkpt lat="41.26487333" lon="1.83890833">
        <ele>222.0</ele>
        <time>2019-12-21T10:11:31.342Z</time>
      </trkpt>
      <trkpt lat="41.26487333" lon="1.83890833">
        <ele>222.0</ele>
        <time>2019-12-21T10:11:32.366Z</time>
      </trkpt>
      <trkpt lat="41.26487667" lon="1.838835">
        <ele>222.0</ele>
        <time>2019-12-21T10:11:33.333Z</time>
      </trkpt>
      <trkpt lat="41.26487667" lon="1.838835">
        <ele>222.0</ele>
        <time>2019-12-21T10:11:34.364Z</time>
      </trkpt>
      <trkpt lat="41.264875" lon="1.83875667">
        <ele>222.0</ele>
        <time>2019-12-21T10:11:35.347Z</time>
      </trkpt>
      <trkpt lat="41.264875" lon="1.83875667">
        <ele>222.0</ele>
        <time>2019-12-21T10:11:36.355Z</time>
      </trkpt>
      <trkpt lat="41.26487833" lon="1.83867333">
        <ele>222.0</ele>
        <time>2019-12-21T10:11:37.361Z</time>
      </trkpt>
      <trkpt lat="41.26487833" lon="1.83867333">
        <ele>222.0</ele>
        <time>2019-12-21T10:11:38.368Z</time>
      </trkpt>
      <trkpt lat="41.26487333" lon="1.83860833">
        <ele>223.0</ele>
        <time>2019-12-21T10:11:39.339Z</time>
      </trkpt>
      <trkpt lat="41.26487333" lon="1.83858167">
        <ele>223.0</ele>
        <time>2019-12-21T10:11:40.358Z</time>
      </trkpt>
      <trkpt lat="41.26487333" lon="1.83858167">
        <ele>223.0</ele>
        <time>2019-12-21T10:11:41.343Z</time>
      </trkpt>
      <trkpt lat="41.26487667" lon="1.83853833">
        <ele>224.0</ele>
        <time>2019-12-21T10:11:42.365Z</time>
      </trkpt>
      <trkpt lat="41.26488333" lon="1.83850833">
        <ele>224.0</ele>
        <time>2019-12-21T10:11:43.336Z</time>
      </trkpt>
      <trkpt lat="41.26488333" lon="1.83850833">
        <ele>224.0</ele>
        <time>2019-12-21T10:11:44.355Z</time>
      </trkpt>
      <trkpt lat="41.26490833" lon="1.83845">
        <ele>224.0</ele>
        <time>2019-12-21T10:11:45.372Z</time>
      </trkpt>
      <trkpt lat="41.26490833" lon="1.83845">
        <ele>224.0</ele>
        <time>2019-12-21T10:11:46.353Z</time>
      </trkpt>
      <trkpt lat="41.26494833" lon="1.83840333">
        <ele>225.0</ele>
        <time>2019-12-21T10:11:47.363Z</time>
      </trkpt>
      <trkpt lat="41.26494833" lon="1.83840333">
        <ele>225.0</ele>
        <time>2019-12-21T10:11:48.351Z</time>
      </trkpt>
      <trkpt lat="41.26498667" lon="1.838355">
        <ele>225.0</ele>
        <time>2019-12-21T10:11:49.350Z</time>
      </trkpt>
      <trkpt lat="41.26498667" lon="1.838355">
        <ele>225.0</ele>
        <time>2019-12-21T10:11:50.357Z</time>
      </trkpt>
      <trkpt lat="41.265025" lon="1.83830333">
        <ele>225.0</ele>
        <time>2019-12-21T10:11:51.363Z</time>
      </trkpt>
      <trkpt lat="41.265025" lon="1.83830333">
        <ele>225.0</ele>
        <time>2019-12-21T10:11:52.353Z</time>
      </trkpt>
      <trkpt lat="41.26505667" lon="1.83825167">
        <ele>226.0</ele>
        <time>2019-12-21T10:11:53.348Z</time>
      </trkpt>
      <trkpt lat="41.26505667" lon="1.83825167">
        <ele>226.0</ele>
        <time>2019-12-21T10:11:54.372Z</time>
      </trkpt>
      <trkpt lat="41.26509167" lon="1.83820167">
        <ele>226.0</ele>
        <time>2019-12-21T10:11:55.346Z</time>
      </trkpt>
      <trkpt lat="41.26509167" lon="1.83820167">
        <ele>226.0</ele>
        <time>2019-12-21T10:11:56.360Z</time>
      </trkpt>
      <trkpt lat="41.26513" lon="1.83815167">
        <ele>226.0</ele>
        <time>2019-12-21T10:11:57.367Z</time>
      </trkpt>
      <trkpt lat="41.26514667" lon="1.83813">
        <ele>226.0</ele>
        <time>2019-12-21T10:11:58.368Z</time>
      </trkpt>
      <trkpt lat="41.26516167" lon="1.83810333">
        <ele>226.0</ele>
        <time>2019-12-21T10:11:59.366Z</time>
      </trkpt>
      <trkpt lat="41.26516167" lon="1.83810333">
        <ele>226.0</ele>
        <time>2019-12-21T10:12:00.345Z</time>
      </trkpt>
      <trkpt lat="41.26519333" lon="1.83805">
        <ele>226.0</ele>
        <time>2019-12-21T10:12:01.352Z</time>
      </trkpt>
      <trkpt lat="41.26519333" lon="1.83805">
        <ele>226.0</ele>
        <time>2019-12-21T10:12:02.367Z</time>
      </trkpt>
      <trkpt lat="41.26522" lon="1.83801167">
        <ele>226.0</ele>
        <time>2019-12-21T10:12:03.338Z</time>
      </trkpt>
      <trkpt lat="41.26522" lon="1.83801167">
        <ele>226.0</ele>
        <time>2019-12-21T10:12:04.343Z</time>
      </trkpt>
      <trkpt lat="41.26524667" lon="1.83797833">
        <ele>227.0</ele>
        <time>2019-12-21T10:12:05.351Z</time>
      </trkpt>
      <trkpt lat="41.26525833" lon="1.83796167">
        <ele>227.0</ele>
        <time>2019-12-21T10:12:06.362Z</time>
      </trkpt>
      <trkpt lat="41.265275" lon="1.83794">
        <ele>227.0</ele>
        <time>2019-12-21T10:12:07.343Z</time>
      </trkpt>
      <trkpt lat="41.265275" lon="1.83794">
        <ele>227.0</ele>
        <time>2019-12-21T10:12:08.361Z</time>
      </trkpt>
      <trkpt lat="41.265305" lon="1.83787833">
        <ele>227.0</ele>
        <time>2019-12-21T10:12:09.342Z</time>
      </trkpt>
      <trkpt lat="41.265305" lon="1.83787833">
        <ele>227.0</ele>
        <time>2019-12-21T10:12:10.347Z</time>
      </trkpt>
      <trkpt lat="41.26532167" lon="1.837815">
        <ele>227.0</ele>
        <time>2019-12-21T10:12:11.356Z</time>
      </trkpt>
      <trkpt lat="41.26532167" lon="1.837815">
        <ele>227.0</ele>
        <time>2019-12-21T10:12:12.337Z</time>
      </trkpt>
      <trkpt lat="41.265315" lon="1.83774833">
        <ele>227.0</ele>
        <time>2019-12-21T10:12:13.344Z</time>
      </trkpt>
      <trkpt lat="41.265315" lon="1.83774833">
        <ele>227.0</ele>
        <time>2019-12-21T10:12:14.338Z</time>
      </trkpt>
      <trkpt lat="41.26528333" lon="1.83771333">
        <ele>228.0</ele>
        <time>2019-12-21T10:12:15.344Z</time>
      </trkpt>
      <trkpt lat="41.265265" lon="1.83770167">
        <ele>228.0</ele>
        <time>2019-12-21T10:12:16.340Z</time>
      </trkpt>
      <trkpt lat="41.26525" lon="1.83769">
        <ele>228.0</ele>
        <time>2019-12-21T10:12:17.345Z</time>
      </trkpt>
      <trkpt lat="41.26525" lon="1.83769">
        <ele>228.0</ele>
        <time>2019-12-21T10:12:18.364Z</time>
      </trkpt>
      <trkpt lat="41.26521833" lon="1.83764333">
        <ele>229.0</ele>
        <time>2019-12-21T10:12:19.342Z</time>
      </trkpt>
      <trkpt lat="41.26521833" lon="1.83764333">
        <ele>229.0</ele>
        <time>2019-12-21T10:12:20.351Z</time>
      </trkpt>
      <trkpt lat="41.265195" lon="1.83760333">
        <ele>230.0</ele>
        <time>2019-12-21T10:12:21.357Z</time>
      </trkpt>
      <trkpt lat="41.265195" lon="1.83760333">
        <ele>230.0</ele>
        <time>2019-12-21T10:12:22.351Z</time>
      </trkpt>
      <trkpt lat="41.26517167" lon="1.837565">
        <ele>230.0</ele>
        <time>2019-12-21T10:12:23.342Z</time>
      </trkpt>
      <trkpt lat="41.26517167" lon="1.837565">
        <ele>230.0</ele>
        <time>2019-12-21T10:12:24.350Z</time>
      </trkpt>
      <trkpt lat="41.26515167" lon="1.83750833">
        <ele>231.0</ele>
        <time>2019-12-21T10:12:25.362Z</time>
      </trkpt>
      <trkpt lat="41.26515167" lon="1.83750833">
        <ele>231.0</ele>
        <time>2019-12-21T10:12:26.346Z</time>
      </trkpt>
      <trkpt lat="41.26512333" lon="1.83744333">
        <ele>231.0</ele>
        <time>2019-12-21T10:12:27.349Z</time>
      </trkpt>
      <trkpt lat="41.26511" lon="1.83741167">
        <ele>231.0</ele>
        <time>2019-12-21T10:12:28.334Z</time>
      </trkpt>
      <trkpt lat="41.26511" lon="1.83741167">
        <ele>231.0</ele>
        <time>2019-12-21T10:12:29.354Z</time>
      </trkpt>
      <trkpt lat="41.26508167" lon="1.83734333">
        <ele>232.0</ele>
        <time>2019-12-21T10:12:30.342Z</time>
      </trkpt>
      <trkpt lat="41.26506667" lon="1.83731167">
        <ele>232.0</ele>
        <time>2019-12-21T10:12:31.350Z</time>
      </trkpt>
      <trkpt lat="41.26506667" lon="1.83731167">
        <ele>232.0</ele>
        <time>2019-12-21T10:12:32.367Z</time>
      </trkpt>
      <trkpt lat="41.26502667" lon="1.83725333">
        <ele>232.0</ele>
        <time>2019-12-21T10:12:33.347Z</time>
      </trkpt>
      <trkpt lat="41.26502667" lon="1.83725333">
        <ele>232.0</ele>
        <time>2019-12-21T10:12:34.359Z</time>
      </trkpt>
      <trkpt lat="41.264985" lon="1.83718167">
        <ele>233.0</ele>
        <time>2019-12-21T10:12:35.370Z</time>
      </trkpt>
      <trkpt lat="41.264985" lon="1.83718167">
        <ele>233.0</ele>
        <time>2019-12-21T10:12:36.355Z</time>
      </trkpt>
      <trkpt lat="41.26495" lon="1.83709667">
        <ele>233.0</ele>
        <time>2019-12-21T10:12:37.364Z</time>
      </trkpt>
      <trkpt lat="41.26495" lon="1.83709667">
        <ele>233.0</ele>
        <time>2019-12-21T10:12:38.347Z</time>
      </trkpt>
      <trkpt lat="41.26490833" lon="1.837015">
        <ele>233.0</ele>
        <time>2019-12-21T10:12:39.354Z</time>
      </trkpt>
      <trkpt lat="41.26490833" lon="1.837015">
        <ele>233.0</ele>
        <time>2019-12-21T10:12:40.336Z</time>
      </trkpt>
      <trkpt lat="41.26486167" lon="1.836935">
        <ele>233.0</ele>
        <time>2019-12-21T10:12:41.351Z</time>
      </trkpt>
      <trkpt lat="41.26486167" lon="1.836935">
        <ele>233.0</ele>
        <time>2019-12-21T10:12:42.367Z</time>
      </trkpt>
      <trkpt lat="41.26481667" lon="1.83685167">
        <ele>233.0</ele>
        <time>2019-12-21T10:12:43.356Z</time>
      </trkpt>
      <trkpt lat="41.26481667" lon="1.83685167">
        <ele>233.0</ele>
        <time>2019-12-21T10:12:44.335Z</time>
      </trkpt>
      <trkpt lat="41.26478" lon="1.83677167">
        <ele>233.0</ele>
        <time>2019-12-21T10:12:45.348Z</time>
      </trkpt>
      <trkpt lat="41.26478" lon="1.83677167">
        <ele>233.0</ele>
        <time>2019-12-21T10:12:46.367Z</time>
      </trkpt>
      <trkpt lat="41.26473667" lon="1.83668333">
        <ele>233.0</ele>
        <time>2019-12-21T10:12:47.333Z</time>
      </trkpt>
      <trkpt lat="41.26473667" lon="1.83668333">
        <ele>233.0</ele>
        <time>2019-12-21T10:12:48.354Z</time>
      </trkpt>
      <trkpt lat="41.26469167" lon="1.83659667">
        <ele>233.0</ele>
        <time>2019-12-21T10:12:49.360Z</time>
      </trkpt>
      <trkpt lat="41.26469167" lon="1.83659667">
        <ele>233.0</ele>
        <time>2019-12-21T10:12:50.357Z</time>
      </trkpt>
      <trkpt lat="41.26464" lon="1.83651333">
        <ele>233.0</ele>
        <time>2019-12-21T10:12:51.363Z</time>
      </trkpt>
      <trkpt lat="41.26464" lon="1.83651333">
        <ele>233.0</ele>
        <time>2019-12-21T10:12:52.345Z</time>
      </trkpt>
      <trkpt lat="41.26459" lon="1.83641833">
        <ele>233.0</ele>
        <time>2019-12-21T10:12:53.361Z</time>
      </trkpt>
      <trkpt lat="41.26459" lon="1.83641833">
        <ele>233.0</ele>
        <time>2019-12-21T10:12:54.334Z</time>
      </trkpt>
      <trkpt lat="41.264545" lon="1.836305">
        <ele>233.0</ele>
        <time>2019-12-21T10:12:55.371Z</time>
      </trkpt>
      <trkpt lat="41.264545" lon="1.836305">
        <ele>233.0</ele>
        <time>2019-12-21T10:12:56.336Z</time>
      </trkpt>
      <trkpt lat="41.26451" lon="1.83617167">
        <ele>233.0</ele>
        <time>2019-12-21T10:12:57.344Z</time>
      </trkpt>
      <trkpt lat="41.26451" lon="1.83617167">
        <ele>233.0</ele>
        <time>2019-12-21T10:12:58.352Z</time>
      </trkpt>
      <trkpt lat="41.26447167" lon="1.83599333">
        <ele>233.0</ele>
        <time>2019-12-21T10:12:59.342Z</time>
      </trkpt>
      <trkpt lat="41.26447167" lon="1.83599333">
        <ele>233.0</ele>
        <time>2019-12-21T10:13:00.343Z</time>
      </trkpt>
      <trkpt lat="41.26443667" lon="1.83581333">
        <ele>232.0</ele>
        <time>2019-12-21T10:13:01.350Z</time>
      </trkpt>
      <trkpt lat="41.26443667" lon="1.83581333">
        <ele>232.0</ele>
        <time>2019-12-21T10:13:02.370Z</time>
      </trkpt>
      <trkpt lat="41.264375" lon="1.83565833">
        <ele>232.0</ele>
        <time>2019-12-21T10:13:03.347Z</time>
      </trkpt>
      <trkpt lat="41.264375" lon="1.83565833">
        <ele>232.0</ele>
        <time>2019-12-21T10:13:04.357Z</time>
      </trkpt>
      <trkpt lat="41.26425167" lon="1.835585">
        <ele>232.0</ele>
        <time>2019-12-21T10:13:05.364Z</time>
      </trkpt>
      <trkpt lat="41.26418167" lon="1.83556333">
        <ele>231.0</ele>
        <time>2019-12-21T10:13:06.350Z</time>
      </trkpt>
      <trkpt lat="41.26410667" lon="1.83554667">
        <ele>231.0</ele>
        <time>2019-12-21T10:13:07.342Z</time>
      </trkpt>
      <trkpt lat="41.26410667" lon="1.83554667">
        <ele>231.0</ele>
        <time>2019-12-21T10:13:08.343Z</time>
      </trkpt>
      <trkpt lat="41.26395333" lon="1.835545">
        <ele>230.0</ele>
        <time>2019-12-21T10:13:09.350Z</time>
      </trkpt>
      <trkpt lat="41.26395333" lon="1.835545">
        <ele>230.0</ele>
        <time>2019-12-21T10:13:10.369Z</time>
      </trkpt>
      <trkpt lat="41.26383167" lon="1.83558833">
        <ele>230.0</ele>
        <time>2019-12-21T10:13:11.350Z</time>
      </trkpt>
      <trkpt lat="41.26383167" lon="1.83558833">
        <ele>230.0</ele>
        <time>2019-12-21T10:13:12.354Z</time>
      </trkpt>
      <trkpt lat="41.263725" lon="1.835585">
        <ele>229.0</ele>
        <time>2019-12-21T10:13:13.360Z</time>
      </trkpt>
      <trkpt lat="41.263725" lon="1.835585">
        <ele>229.0</ele>
        <time>2019-12-21T10:13:14.363Z</time>
      </trkpt>
      <trkpt lat="41.263635" lon="1.83548667">
        <ele>228.0</ele>
        <time>2019-12-21T10:13:15.352Z</time>
      </trkpt>
      <trkpt lat="41.263635" lon="1.83548667">
        <ele>228.0</ele>
        <time>2019-12-21T10:13:16.336Z</time>
      </trkpt>
      <trkpt lat="41.26354333" lon="1.83535833">
        <ele>227.0</ele>
        <time>2019-12-21T10:13:17.344Z</time>
      </trkpt>
      <trkpt lat="41.26349833" lon="1.83529833">
        <ele>227.0</ele>
        <time>2019-12-21T10:13:18.354Z</time>
      </trkpt>
      <trkpt lat="41.26344833" lon="1.83525833">
        <ele>226.0</ele>
        <time>2019-12-21T10:13:19.334Z</time>
      </trkpt>
      <trkpt lat="41.26344833" lon="1.83525833">
        <ele>226.0</ele>
        <time>2019-12-21T10:13:20.344Z</time>
      </trkpt>
      <trkpt lat="41.26334" lon="1.83523833">
        <ele>225.0</ele>
        <time>2019-12-21T10:13:21.348Z</time>
      </trkpt>
      <trkpt lat="41.26334" lon="1.83523833">
        <ele>225.0</ele>
        <time>2019-12-21T10:13:22.345Z</time>
      </trkpt>
      <trkpt lat="41.26322833" lon="1.83522833">
        <ele>224.0</ele>
        <time>2019-12-21T10:13:23.352Z</time>
      </trkpt>
      <trkpt lat="41.26322833" lon="1.83522833">
        <ele>224.0</ele>
        <time>2019-12-21T10:13:24.370Z</time>
      </trkpt>
      <trkpt lat="41.26314667" lon="1.83517667">
        <ele>224.0</ele>
        <time>2019-12-21T10:13:25.351Z</time>
      </trkpt>
      <trkpt lat="41.26314667" lon="1.83517667">
        <ele>224.0</ele>
        <time>2019-12-21T10:13:26.336Z</time>
      </trkpt>
      <trkpt lat="41.26307833" lon="1.83512333">
        <ele>223.0</ele>
        <time>2019-12-21T10:13:27.346Z</time>
      </trkpt>
      <trkpt lat="41.26304833" lon="1.83511833">
        <ele>223.0</ele>
        <time>2019-12-21T10:13:28.372Z</time>
      </trkpt>
      <trkpt lat="41.26304833" lon="1.83511833">
        <ele>223.0</ele>
        <time>2019-12-21T10:13:29.346Z</time>
      </trkpt>
      <trkpt lat="41.26299833" lon="1.83512667">
        <ele>223.0</ele>
        <time>2019-12-21T10:13:30.352Z</time>
      </trkpt>
      <trkpt lat="41.26297833" lon="1.83513167">
        <ele>223.0</ele>
        <time>2019-12-21T10:13:31.351Z</time>
      </trkpt>
      <trkpt lat="41.26297833" lon="1.83513167">
        <ele>223.0</ele>
        <time>2019-12-21T10:13:32.348Z</time>
      </trkpt>
      <trkpt lat="41.26293" lon="1.83514">
        <ele>223.0</ele>
        <time>2019-12-21T10:13:33.355Z</time>
      </trkpt>
      <trkpt lat="41.26293" lon="1.83514">
        <ele>223.0</ele>
        <time>2019-12-21T10:13:34.351Z</time>
      </trkpt>
      <trkpt lat="41.26288333" lon="1.83515333">
        <ele>223.0</ele>
        <time>2019-12-21T10:13:35.344Z</time>
      </trkpt>
      <trkpt lat="41.26288333" lon="1.83515333">
        <ele>223.0</ele>
        <time>2019-12-21T10:13:36.360Z</time>
      </trkpt>
      <trkpt lat="41.26284833" lon="1.83516167">
        <ele>223.0</ele>
        <time>2019-12-21T10:13:37.351Z</time>
      </trkpt>
      <trkpt lat="41.26284833" lon="1.83516167">
        <ele>223.0</ele>
        <time>2019-12-21T10:13:38.353Z</time>
      </trkpt>
      <trkpt lat="41.26282667" lon="1.83518167">
        <ele>222.0</ele>
        <time>2019-12-21T10:13:39.359Z</time>
      </trkpt>
      <trkpt lat="41.26282667" lon="1.83518167">
        <ele>222.0</ele>
        <time>2019-12-21T10:13:40.353Z</time>
      </trkpt>
      <trkpt lat="41.26280667" lon="1.83523167">
        <ele>222.0</ele>
        <time>2019-12-21T10:13:41.369Z</time>
      </trkpt>
      <trkpt lat="41.26280667" lon="1.83523167">
        <ele>222.0</ele>
        <time>2019-12-21T10:13:42.358Z</time>
      </trkpt>
      <trkpt lat="41.26277" lon="1.83527167">
        <ele>223.0</ele>
        <time>2019-12-21T10:13:43.365Z</time>
      </trkpt>
      <trkpt lat="41.26277" lon="1.83527167">
        <ele>223.0</ele>
        <time>2019-12-21T10:13:44.363Z</time>
      </trkpt>
      <trkpt lat="41.26275333" lon="1.83530167">
        <ele>222.0</ele>
        <time>2019-12-21T10:13:45.342Z</time>
      </trkpt>
      <trkpt lat="41.26275333" lon="1.83530167">
        <ele>222.0</ele>
        <time>2019-12-21T10:13:46.354Z</time>
      </trkpt>
      <trkpt lat="41.26275" lon="1.83535167">
        <ele>222.0</ele>
        <time>2019-12-21T10:13:47.360Z</time>
      </trkpt>
      <trkpt lat="41.26274" lon="1.83537333">
        <ele>222.0</ele>
        <time>2019-12-21T10:13:48.348Z</time>
      </trkpt>
      <trkpt lat="41.26274" lon="1.83537333">
        <ele>222.0</ele>
        <time>2019-12-21T10:13:49.352Z</time>
      </trkpt>
      <trkpt lat="41.26272333" lon="1.83540833">
        <ele>223.0</ele>
        <time>2019-12-21T10:13:50.360Z</time>
      </trkpt>
      <trkpt lat="41.26272333" lon="1.83540833">
        <ele>223.0</ele>
        <time>2019-12-21T10:13:51.340Z</time>
      </trkpt>
      <trkpt lat="41.26270833" lon="1.83544">
        <ele>223.0</ele>
        <time>2019-12-21T10:13:52.342Z</time>
      </trkpt>
      <trkpt lat="41.2627" lon="1.83545667">
        <ele>223.0</ele>
        <time>2019-12-21T10:13:53.361Z</time>
      </trkpt>
      <trkpt lat="41.2627" lon="1.83545667">
        <ele>223.0</ele>
        <time>2019-12-21T10:13:54.364Z</time>
      </trkpt>
      <trkpt lat="41.26267333" lon="1.83550167">
        <ele>223.0</ele>
        <time>2019-12-21T10:13:55.334Z</time>
      </trkpt>
      <trkpt lat="41.26267333" lon="1.83550167">
        <ele>223.0</ele>
        <time>2019-12-21T10:13:56.363Z</time>
      </trkpt>
      <trkpt lat="41.26264833" lon="1.83556167">
        <ele>224.0</ele>
        <time>2019-12-21T10:13:57.333Z</time>
      </trkpt>
      <trkpt lat="41.26263333" lon="1.83559333">
        <ele>224.0</ele>
        <time>2019-12-21T10:13:58.371Z</time>
      </trkpt>
      <trkpt lat="41.26263333" lon="1.83559333">
        <ele>224.0</ele>
        <time>2019-12-21T10:13:59.336Z</time>
      </trkpt>
      <trkpt lat="41.26259833" lon="1.83566333">
        <ele>224.0</ele>
        <time>2019-12-21T10:14:00.342Z</time>
      </trkpt>
      <trkpt lat="41.262585" lon="1.835695">
        <ele>224.0</ele>
        <time>2019-12-21T10:14:01.372Z</time>
      </trkpt>
      <trkpt lat="41.262585" lon="1.835695">
        <ele>224.0</ele>
        <time>2019-12-21T10:14:02.357Z</time>
      </trkpt>
      <trkpt lat="41.26255167" lon="1.83574833">
        <ele>224.0</ele>
        <time>2019-12-21T10:14:03.363Z</time>
      </trkpt>
      <trkpt lat="41.26255167" lon="1.83574833">
        <ele>224.0</ele>
        <time>2019-12-21T10:14:04.343Z</time>
      </trkpt>
      <trkpt lat="41.26252" lon="1.83582">
        <ele>225.0</ele>
        <time>2019-12-21T10:14:05.351Z</time>
      </trkpt>
      <trkpt lat="41.26252" lon="1.83582">
        <ele>225.0</ele>
        <time>2019-12-21T10:14:06.334Z</time>
      </trkpt>
      <trkpt lat="41.26249167" lon="1.835905">
        <ele>225.0</ele>
        <time>2019-12-21T10:14:07.348Z</time>
      </trkpt>
      <trkpt lat="41.26249167" lon="1.835905">
        <ele>225.0</ele>
        <time>2019-12-21T10:14:08.350Z</time>
      </trkpt>
      <trkpt lat="41.26246833" lon="1.83601333">
        <ele>225.0</ele>
        <time>2019-12-21T10:14:09.351Z</time>
      </trkpt>
      <trkpt lat="41.26246833" lon="1.83601333">
        <ele>225.0</ele>
        <time>2019-12-21T10:14:10.358Z</time>
      </trkpt>
      <trkpt lat="41.26244167" lon="1.83613333">
        <ele>224.0</ele>
        <time>2019-12-21T10:14:11.365Z</time>
      </trkpt>
      <trkpt lat="41.26244167" lon="1.83613333">
        <ele>224.0</ele>
        <time>2019-12-21T10:14:12.347Z</time>
      </trkpt>
      <trkpt lat="41.26239667" lon="1.83625">
        <ele>224.0</ele>
        <time>2019-12-21T10:14:13.339Z</time>
      </trkpt>
      <trkpt lat="41.26239667" lon="1.83625">
        <ele>224.0</ele>
        <time>2019-12-21T10:14:14.365Z</time>
      </trkpt>
      <trkpt lat="41.26233" lon="1.83636167">
        <ele>224.0</ele>
        <time>2019-12-21T10:14:15.371Z</time>
      </trkpt>
      <trkpt lat="41.26233" lon="1.83636167">
        <ele>224.0</ele>
        <time>2019-12-21T10:14:16.354Z</time>
      </trkpt>
      <trkpt lat="41.262245" lon="1.83644333">
        <ele>224.0</ele>
        <time>2019-12-21T10:14:17.352Z</time>
      </trkpt>
      <trkpt lat="41.262245" lon="1.83644333">
        <ele>224.0</ele>
        <time>2019-12-21T10:14:18.361Z</time>
      </trkpt>
      <trkpt lat="41.262155" lon="1.836475">
        <ele>224.0</ele>
        <time>2019-12-21T10:14:19.367Z</time>
      </trkpt>
      <trkpt lat="41.262155" lon="1.836475">
        <ele>224.0</ele>
        <time>2019-12-21T10:14:20.348Z</time>
      </trkpt>
      <trkpt lat="41.26206833" lon="1.83649833">
        <ele>223.0</ele>
        <time>2019-12-21T10:14:21.365Z</time>
      </trkpt>
      <trkpt lat="41.26206833" lon="1.83649833">
        <ele>223.0</ele>
        <time>2019-12-21T10:14:22.346Z</time>
      </trkpt>
      <trkpt lat="41.26198667" lon="1.83652167">
        <ele>223.0</ele>
        <time>2019-12-21T10:14:23.352Z</time>
      </trkpt>
      <trkpt lat="41.261945" lon="1.836535">
        <ele>223.0</ele>
        <time>2019-12-21T10:14:24.338Z</time>
      </trkpt>
      <trkpt lat="41.26190333" lon="1.83655">
        <ele>224.0</ele>
        <time>2019-12-21T10:14:25.359Z</time>
      </trkpt>
      <trkpt lat="41.26190333" lon="1.83655">
        <ele>224.0</ele>
        <time>2019-12-21T10:14:26.335Z</time>
      </trkpt>
      <trkpt lat="41.26182" lon="1.83657667">
        <ele>224.0</ele>
        <time>2019-12-21T10:14:27.344Z</time>
      </trkpt>
      <trkpt lat="41.26177667" lon="1.83659">
        <ele>224.0</ele>
        <time>2019-12-21T10:14:28.348Z</time>
      </trkpt>
      <trkpt lat="41.26177667" lon="1.83659">
        <ele>224.0</ele>
        <time>2019-12-21T10:14:29.367Z</time>
      </trkpt>
      <trkpt lat="41.261695" lon="1.83661833">
        <ele>224.0</ele>
        <time>2019-12-21T10:14:30.342Z</time>
      </trkpt>
      <trkpt lat="41.26165833" lon="1.83662833">
        <ele>224.0</ele>
        <time>2019-12-21T10:14:31.348Z</time>
      </trkpt>
      <trkpt lat="41.26165833" lon="1.83662833">
        <ele>224.0</ele>
        <time>2019-12-21T10:14:32.360Z</time>
      </trkpt>
      <trkpt lat="41.2616" lon="1.836645">
        <ele>224.0</ele>
        <time>2019-12-21T10:14:33.351Z</time>
      </trkpt>
      <trkpt lat="41.26157" lon="1.83665667">
        <ele>225.0</ele>
        <time>2019-12-21T10:14:34.347Z</time>
      </trkpt>
      <trkpt lat="41.26157" lon="1.83665667">
        <ele>225.0</ele>
        <time>2019-12-21T10:14:35.357Z</time>
      </trkpt>
      <trkpt lat="41.26149833" lon="1.836685">
        <ele>225.0</ele>
        <time>2019-12-21T10:14:36.345Z</time>
      </trkpt>
      <trkpt lat="41.26145833" lon="1.83670333">
        <ele>225.0</ele>
        <time>2019-12-21T10:14:37.336Z</time>
      </trkpt>
      <trkpt lat="41.26145833" lon="1.83670333">
        <ele>225.0</ele>
        <time>2019-12-21T10:14:38.349Z</time>
      </trkpt>
      <trkpt lat="41.26139167" lon="1.83674167">
        <ele>225.0</ele>
        <time>2019-12-21T10:14:39.342Z</time>
      </trkpt>
      <trkpt lat="41.26139167" lon="1.83674167">
        <ele>225.0</ele>
        <time>2019-12-21T10:14:40.361Z</time>
      </trkpt>
      <trkpt lat="41.26132667" lon="1.836765">
        <ele>226.0</ele>
        <time>2019-12-21T10:14:41.372Z</time>
      </trkpt>
      <trkpt lat="41.26132667" lon="1.836765">
        <ele>226.0</ele>
        <time>2019-12-21T10:14:42.352Z</time>
      </trkpt>
      <trkpt lat="41.261265" lon="1.83677333">
        <ele>226.0</ele>
        <time>2019-12-21T10:14:43.357Z</time>
      </trkpt>
      <trkpt lat="41.261265" lon="1.83677333">
        <ele>226.0</ele>
        <time>2019-12-21T10:14:44.335Z</time>
      </trkpt>
      <trkpt lat="41.2612" lon="1.83676833">
        <ele>227.0</ele>
        <time>2019-12-21T10:14:45.341Z</time>
      </trkpt>
      <trkpt lat="41.2612" lon="1.83676833">
        <ele>227.0</ele>
        <time>2019-12-21T10:14:46.364Z</time>
      </trkpt>
      <trkpt lat="41.26113667" lon="1.83673833">
        <ele>228.0</ele>
        <time>2019-12-21T10:14:47.341Z</time>
      </trkpt>
      <trkpt lat="41.26113667" lon="1.83673833">
        <ele>228.0</ele>
        <time>2019-12-21T10:14:48.340Z</time>
      </trkpt>
      <trkpt lat="41.26107833" lon="1.83672167">
        <ele>229.0</ele>
        <time>2019-12-21T10:14:49.346Z</time>
      </trkpt>
      <trkpt lat="41.26107833" lon="1.83672167">
        <ele>229.0</ele>
        <time>2019-12-21T10:14:50.366Z</time>
      </trkpt>
      <trkpt lat="41.261025" lon="1.8367">
        <ele>230.0</ele>
        <time>2019-12-21T10:14:51.342Z</time>
      </trkpt>
      <trkpt lat="41.261025" lon="1.8367">
        <ele>230.0</ele>
        <time>2019-12-21T10:14:52.348Z</time>
      </trkpt>
      <trkpt lat="41.260965" lon="1.83669">
        <ele>231.0</ele>
        <time>2019-12-21T10:14:53.356Z</time>
      </trkpt>
      <trkpt lat="41.260965" lon="1.83669">
        <ele>231.0</ele>
        <time>2019-12-21T10:14:54.335Z</time>
      </trkpt>
      <trkpt lat="41.26091" lon="1.83669">
        <ele>231.0</ele>
        <time>2019-12-21T10:14:55.358Z</time>
      </trkpt>
      <trkpt lat="41.26091" lon="1.83669">
        <ele>231.0</ele>
        <time>2019-12-21T10:14:56.344Z</time>
      </trkpt>
      <trkpt lat="41.26085" lon="1.83669333">
        <ele>232.0</ele>
        <time>2019-12-21T10:14:57.372Z</time>
      </trkpt>
      <trkpt lat="41.26085" lon="1.83669333">
        <ele>232.0</ele>
        <time>2019-12-21T10:14:58.358Z</time>
      </trkpt>
      <trkpt lat="41.26079" lon="1.83668833">
        <ele>233.0</ele>
        <time>2019-12-21T10:14:59.364Z</time>
      </trkpt>
      <trkpt lat="41.26079" lon="1.83668833">
        <ele>233.0</ele>
        <time>2019-12-21T10:15:00.344Z</time>
      </trkpt>
      <trkpt lat="41.26072667" lon="1.83667833">
        <ele>234.0</ele>
        <time>2019-12-21T10:15:01.351Z</time>
      </trkpt>
      <trkpt lat="41.26072667" lon="1.83667833">
        <ele>234.0</ele>
        <time>2019-12-21T10:15:02.334Z</time>
      </trkpt>
      <trkpt lat="41.26066833" lon="1.83665333">
        <ele>235.0</ele>
        <time>2019-12-21T10:15:03.347Z</time>
      </trkpt>
      <trkpt lat="41.26066833" lon="1.83665333">
        <ele>235.0</ele>
        <time>2019-12-21T10:15:04.359Z</time>
      </trkpt>
      <trkpt lat="41.26060333" lon="1.83665">
        <ele>236.0</ele>
        <time>2019-12-21T10:15:05.342Z</time>
      </trkpt>
      <trkpt lat="41.26060333" lon="1.83665">
        <ele>236.0</ele>
        <time>2019-12-21T10:15:06.360Z</time>
      </trkpt>
      <trkpt lat="41.26055167" lon="1.83663833">
        <ele>236.0</ele>
        <time>2019-12-21T10:15:07.372Z</time>
      </trkpt>
      <trkpt lat="41.26055167" lon="1.83663833">
        <ele>236.0</ele>
        <time>2019-12-21T10:15:08.346Z</time>
      </trkpt>
      <trkpt lat="41.26048333" lon="1.83663333">
        <ele>237.0</ele>
        <time>2019-12-21T10:15:09.353Z</time>
      </trkpt>
      <trkpt lat="41.26048333" lon="1.83663333">
        <ele>237.0</ele>
        <time>2019-12-21T10:15:10.372Z</time>
      </trkpt>
      <trkpt lat="41.26039833" lon="1.836615">
        <ele>237.0</ele>
        <time>2019-12-21T10:15:11.372Z</time>
      </trkpt>
      <trkpt lat="41.26036" lon="1.836605">
        <ele>237.0</ele>
        <time>2019-12-21T10:15:12.353Z</time>
      </trkpt>
      <trkpt lat="41.26031833" lon="1.836595">
        <ele>237.0</ele>
        <time>2019-12-21T10:15:13.333Z</time>
      </trkpt>
      <trkpt lat="41.26031833" lon="1.836595">
        <ele>237.0</ele>
        <time>2019-12-21T10:15:14.353Z</time>
      </trkpt>
      <trkpt lat="41.260245" lon="1.836585">
        <ele>237.0</ele>
        <time>2019-12-21T10:15:15.360Z</time>
      </trkpt>
      <trkpt lat="41.260245" lon="1.836585">
        <ele>237.0</ele>
        <time>2019-12-21T10:15:16.343Z</time>
      </trkpt>
      <trkpt lat="41.26017167" lon="1.83657667">
        <ele>237.0</ele>
        <time>2019-12-21T10:15:17.342Z</time>
      </trkpt>
      <trkpt lat="41.26017167" lon="1.83657667">
        <ele>237.0</ele>
        <time>2019-12-21T10:15:18.372Z</time>
      </trkpt>
      <trkpt lat="41.26009333" lon="1.83656">
        <ele>237.0</ele>
        <time>2019-12-21T10:15:19.338Z</time>
      </trkpt>
      <trkpt lat="41.26009333" lon="1.83656">
        <ele>237.0</ele>
        <time>2019-12-21T10:15:20.366Z</time>
      </trkpt>
      <trkpt lat="41.26000333" lon="1.83653333">
        <ele>237.0</ele>
        <time>2019-12-21T10:15:21.342Z</time>
      </trkpt>
      <trkpt lat="41.26000333" lon="1.83653333">
        <ele>237.0</ele>
        <time>2019-12-21T10:15:22.335Z</time>
      </trkpt>
      <trkpt lat="41.259915" lon="1.83649667">
        <ele>238.0</ele>
        <time>2019-12-21T10:15:23.342Z</time>
      </trkpt>
      <trkpt lat="41.259915" lon="1.83649667">
        <ele>238.0</ele>
        <time>2019-12-21T10:15:24.369Z</time>
      </trkpt>
      <trkpt lat="41.25984667" lon="1.83647833">
        <ele>238.0</ele>
        <time>2019-12-21T10:15:25.351Z</time>
      </trkpt>
      <trkpt lat="41.25984667" lon="1.83647833">
        <ele>238.0</ele>
        <time>2019-12-21T10:15:26.347Z</time>
      </trkpt>
      <trkpt lat="41.25976333" lon="1.83648167">
        <ele>239.0</ele>
        <time>2019-12-21T10:15:27.354Z</time>
      </trkpt>
      <trkpt lat="41.25976333" lon="1.83648167">
        <ele>239.0</ele>
        <time>2019-12-21T10:15:28.351Z</time>
      </trkpt>
      <trkpt lat="41.25966167" lon="1.836475">
        <ele>239.0</ele>
        <time>2019-12-21T10:15:29.351Z</time>
      </trkpt>
      <trkpt lat="41.25966167" lon="1.836475">
        <ele>239.0</ele>
        <time>2019-12-21T10:15:30.365Z</time>
      </trkpt>
      <trkpt lat="41.25955" lon="1.83644833">
        <ele>239.0</ele>
        <time>2019-12-21T10:15:31.371Z</time>
      </trkpt>
      <trkpt lat="41.25955" lon="1.83644833">
        <ele>239.0</ele>
        <time>2019-12-21T10:15:32.353Z</time>
      </trkpt>
      <trkpt lat="41.25944667" lon="1.8364">
        <ele>239.0</ele>
        <time>2019-12-21T10:15:33.342Z</time>
      </trkpt>
      <trkpt lat="41.25944667" lon="1.8364">
        <ele>239.0</ele>
        <time>2019-12-21T10:15:34.354Z</time>
      </trkpt>
      <trkpt lat="41.25934333" lon="1.83635167">
        <ele>239.0</ele>
        <time>2019-12-21T10:15:35.361Z</time>
      </trkpt>
      <trkpt lat="41.25929167" lon="1.836335">
        <ele>239.0</ele>
        <time>2019-12-21T10:15:36.344Z</time>
      </trkpt>
      <trkpt lat="41.25929167" lon="1.836335">
        <ele>239.0</ele>
        <time>2019-12-21T10:15:37.363Z</time>
      </trkpt>
      <trkpt lat="41.259215" lon="1.83630167">
        <ele>238.0</ele>
        <time>2019-12-21T10:15:38.352Z</time>
      </trkpt>
      <trkpt lat="41.25917333" lon="1.83629167">
        <ele>238.0</ele>
        <time>2019-12-21T10:15:39.348Z</time>
      </trkpt>
      <trkpt lat="41.25917333" lon="1.83629167">
        <ele>238.0</ele>
        <time>2019-12-21T10:15:40.367Z</time>
      </trkpt>
      <trkpt lat="41.25908667" lon="1.836285">
        <ele>238.0</ele>
        <time>2019-12-21T10:15:41.354Z</time>
      </trkpt>
      <trkpt lat="41.25908667" lon="1.836285">
        <ele>238.0</ele>
        <time>2019-12-21T10:15:42.335Z</time>
      </trkpt>
      <trkpt lat="41.25897333" lon="1.8363">
        <ele>237.0</ele>
        <time>2019-12-21T10:15:43.343Z</time>
      </trkpt>
      <trkpt lat="41.25897333" lon="1.8363">
        <ele>237.0</ele>
        <time>2019-12-21T10:15:44.361Z</time>
      </trkpt>
      <trkpt lat="41.25885833" lon="1.83633167">
        <ele>237.0</ele>
        <time>2019-12-21T10:15:45.340Z</time>
      </trkpt>
      <trkpt lat="41.25885833" lon="1.83633167">
        <ele>237.0</ele>
        <time>2019-12-21T10:15:46.348Z</time>
      </trkpt>
      <trkpt lat="41.25875" lon="1.83636167">
        <ele>236.0</ele>
        <time>2019-12-21T10:15:47.354Z</time>
      </trkpt>
      <trkpt lat="41.25870167" lon="1.83638667">
        <ele>235.0</ele>
        <time>2019-12-21T10:15:48.353Z</time>
      </trkpt>
      <trkpt lat="41.25866333" lon="1.83643">
        <ele>235.0</ele>
        <time>2019-12-21T10:15:49.360Z</time>
      </trkpt>
      <trkpt lat="41.25866333" lon="1.83643">
        <ele>235.0</ele>
        <time>2019-12-21T10:15:50.345Z</time>
      </trkpt>
      <trkpt lat="41.25863833" lon="1.83652333">
        <ele>234.0</ele>
        <time>2019-12-21T10:15:51.372Z</time>
      </trkpt>
      <trkpt lat="41.25863833" lon="1.83652333">
        <ele>234.0</ele>
        <time>2019-12-21T10:15:52.352Z</time>
      </trkpt>
      <trkpt lat="41.25864167" lon="1.83661667">
        <ele>234.0</ele>
        <time>2019-12-21T10:15:53.361Z</time>
      </trkpt>
      <trkpt lat="41.25864167" lon="1.83661667">
        <ele>234.0</ele>
        <time>2019-12-21T10:15:54.334Z</time>
      </trkpt>
      <trkpt lat="41.25864" lon="1.836725">
        <ele>234.0</ele>
        <time>2019-12-21T10:15:55.344Z</time>
      </trkpt>
      <trkpt lat="41.25864" lon="1.836725">
        <ele>234.0</ele>
        <time>2019-12-21T10:15:56.367Z</time>
      </trkpt>
      <trkpt lat="41.25863" lon="1.83684667">
        <ele>234.0</ele>
        <time>2019-12-21T10:15:57.341Z</time>
      </trkpt>
      <trkpt lat="41.25863" lon="1.83684667">
        <ele>234.0</ele>
        <time>2019-12-21T10:15:58.345Z</time>
      </trkpt>
      <trkpt lat="41.25861333" lon="1.83697">
        <ele>234.0</ele>
        <time>2019-12-21T10:15:59.352Z</time>
      </trkpt>
      <trkpt lat="41.25861333" lon="1.83697">
        <ele>234.0</ele>
        <time>2019-12-21T10:16:00.369Z</time>
      </trkpt>
      <trkpt lat="41.25858833" lon="1.83709333">
        <ele>233.0</ele>
        <time>2019-12-21T10:16:01.362Z</time>
      </trkpt>
      <trkpt lat="41.25858833" lon="1.83709333">
        <ele>233.0</ele>
        <time>2019-12-21T10:16:02.344Z</time>
      </trkpt>
      <trkpt lat="41.25856667" lon="1.83720667">
        <ele>234.0</ele>
        <time>2019-12-21T10:16:03.361Z</time>
      </trkpt>
      <trkpt lat="41.25856667" lon="1.83720667">
        <ele>234.0</ele>
        <time>2019-12-21T10:16:04.368Z</time>
      </trkpt>
      <trkpt lat="41.25854833" lon="1.83733167">
        <ele>234.0</ele>
        <time>2019-12-21T10:16:05.335Z</time>
      </trkpt>
      <trkpt lat="41.25854833" lon="1.83733167">
        <ele>234.0</ele>
        <time>2019-12-21T10:16:06.356Z</time>
      </trkpt>
      <trkpt lat="41.258515" lon="1.837465">
        <ele>234.0</ele>
        <time>2019-12-21T10:16:07.337Z</time>
      </trkpt>
      <trkpt lat="41.258515" lon="1.837465">
        <ele>234.0</ele>
        <time>2019-12-21T10:16:08.335Z</time>
      </trkpt>
      <trkpt lat="41.25847833" lon="1.837585">
        <ele>234.0</ele>
        <time>2019-12-21T10:16:09.342Z</time>
      </trkpt>
      <trkpt lat="41.25847833" lon="1.837585">
        <ele>234.0</ele>
        <time>2019-12-21T10:16:10.362Z</time>
      </trkpt>
      <trkpt lat="41.25842333" lon="1.83769167">
        <ele>234.0</ele>
        <time>2019-12-21T10:16:11.335Z</time>
      </trkpt>
      <trkpt lat="41.25842333" lon="1.83769167">
        <ele>234.0</ele>
        <time>2019-12-21T10:16:12.360Z</time>
      </trkpt>
      <trkpt lat="41.25835333" lon="1.83778833">
        <ele>234.0</ele>
        <time>2019-12-21T10:16:13.367Z</time>
      </trkpt>
      <trkpt lat="41.25835333" lon="1.83778833">
        <ele>234.0</ele>
        <time>2019-12-21T10:16:14.349Z</time>
      </trkpt>
      <trkpt lat="41.25828833" lon="1.83789167">
        <ele>234.0</ele>
        <time>2019-12-21T10:16:15.351Z</time>
      </trkpt>
      <trkpt lat="41.25828833" lon="1.83789167">
        <ele>234.0</ele>
        <time>2019-12-21T10:16:16.363Z</time>
      </trkpt>
      <trkpt lat="41.25822" lon="1.838">
        <ele>234.0</ele>
        <time>2019-12-21T10:16:17.335Z</time>
      </trkpt>
      <trkpt lat="41.25822" lon="1.838">
        <ele>234.0</ele>
        <time>2019-12-21T10:16:18.363Z</time>
      </trkpt>
      <trkpt lat="41.25815833" lon="1.83810167">
        <ele>234.0</ele>
        <time>2019-12-21T10:16:19.342Z</time>
      </trkpt>
      <trkpt lat="41.25815833" lon="1.83810167">
        <ele>234.0</ele>
        <time>2019-12-21T10:16:20.349Z</time>
      </trkpt>
      <trkpt lat="41.258095" lon="1.83821167">
        <ele>234.0</ele>
        <time>2019-12-21T10:16:21.355Z</time>
      </trkpt>
      <trkpt lat="41.258095" lon="1.83821167">
        <ele>234.0</ele>
        <time>2019-12-21T10:16:22.334Z</time>
      </trkpt>
      <trkpt lat="41.25805167" lon="1.83828667">
        <ele>235.0</ele>
        <time>2019-12-21T10:16:23.349Z</time>
      </trkpt>
      <trkpt lat="41.25805167" lon="1.83828667">
        <ele>235.0</ele>
        <time>2019-12-21T10:16:24.355Z</time>
      </trkpt>
      <trkpt lat="41.25799667" lon="1.838365">
        <ele>235.0</ele>
        <time>2019-12-21T10:16:25.361Z</time>
      </trkpt>
      <trkpt lat="41.25799667" lon="1.838365">
        <ele>235.0</ele>
        <time>2019-12-21T10:16:26.353Z</time>
      </trkpt>
      <trkpt lat="41.25793833" lon="1.83844333">
        <ele>235.0</ele>
        <time>2019-12-21T10:16:27.372Z</time>
      </trkpt>
      <trkpt lat="41.25790833" lon="1.83848667">
        <ele>235.0</ele>
        <time>2019-12-21T10:16:28.339Z</time>
      </trkpt>
      <trkpt lat="41.25790833" lon="1.83848667">
        <ele>235.0</ele>
        <time>2019-12-21T10:16:29.350Z</time>
      </trkpt>
      <trkpt lat="41.257815" lon="1.83858167">
        <ele>234.0</ele>
        <time>2019-12-21T10:16:30.367Z</time>
      </trkpt>
      <trkpt lat="41.25775667" lon="1.838615">
        <ele>234.0</ele>
        <time>2019-12-21T10:16:31.351Z</time>
      </trkpt>
      <trkpt lat="41.25775667" lon="1.838615">
        <ele>234.0</ele>
        <time>2019-12-21T10:16:32.369Z</time>
      </trkpt>
      <trkpt lat="41.25760667" lon="1.8387">
        <ele>232.0</ele>
        <time>2019-12-21T10:16:33.336Z</time>
      </trkpt>
      <trkpt lat="41.25753667" lon="1.83873333">
        <ele>232.0</ele>
        <time>2019-12-21T10:16:34.350Z</time>
      </trkpt>
      <trkpt lat="41.25753667" lon="1.83873333">
        <ele>232.0</ele>
        <time>2019-12-21T10:16:35.365Z</time>
      </trkpt>
      <trkpt lat="41.25739" lon="1.83881333">
        <ele>231.0</ele>
        <time>2019-12-21T10:16:36.346Z</time>
      </trkpt>
      <trkpt lat="41.25734" lon="1.83885">
        <ele>231.0</ele>
        <time>2019-12-21T10:16:37.342Z</time>
      </trkpt>
      <trkpt lat="41.25734" lon="1.83885">
        <ele>231.0</ele>
        <time>2019-12-21T10:16:38.362Z</time>
      </trkpt>
      <trkpt lat="41.25722833" lon="1.83893">
        <ele>230.0</ele>
        <time>2019-12-21T10:16:39.339Z</time>
      </trkpt>
      <trkpt lat="41.257175" lon="1.83896667">
        <ele>230.0</ele>
        <time>2019-12-21T10:16:40.343Z</time>
      </trkpt>
      <trkpt lat="41.257175" lon="1.83896667">
        <ele>230.0</ele>
        <time>2019-12-21T10:16:41.361Z</time>
      </trkpt>
      <trkpt lat="41.257085" lon="1.83903">
        <ele>230.0</ele>
        <time>2019-12-21T10:16:42.356Z</time>
      </trkpt>
      <trkpt lat="41.25704667" lon="1.83906167">
        <ele>230.0</ele>
        <time>2019-12-21T10:16:43.336Z</time>
      </trkpt>
      <trkpt lat="41.25704667" lon="1.83906167">
        <ele>230.0</ele>
        <time>2019-12-21T10:16:44.357Z</time>
      </trkpt>
      <trkpt lat="41.25698" lon="1.83913667">
        <ele>230.0</ele>
        <time>2019-12-21T10:16:45.335Z</time>
      </trkpt>
      <trkpt lat="41.25698" lon="1.83913667">
        <ele>230.0</ele>
        <time>2019-12-21T10:16:46.364Z</time>
      </trkpt>
      <trkpt lat="41.25691333" lon="1.83921">
        <ele>230.0</ele>
        <time>2019-12-21T10:16:47.334Z</time>
      </trkpt>
      <trkpt lat="41.25691333" lon="1.83921">
        <ele>230.0</ele>
        <time>2019-12-21T10:16:48.354Z</time>
      </trkpt>
      <trkpt lat="41.25683667" lon="1.83928167">
        <ele>230.0</ele>
        <time>2019-12-21T10:16:49.350Z</time>
      </trkpt>
      <trkpt lat="41.25683667" lon="1.83928167">
        <ele>230.0</ele>
        <time>2019-12-21T10:16:50.336Z</time>
      </trkpt>
      <trkpt lat="41.25673667" lon="1.83936833">
        <ele>230.0</ele>
        <time>2019-12-21T10:16:51.345Z</time>
      </trkpt>
      <trkpt lat="41.25673667" lon="1.83936833">
        <ele>230.0</ele>
        <time>2019-12-21T10:16:52.364Z</time>
      </trkpt>
      <trkpt lat="41.256625" lon="1.83945333">
        <ele>230.0</ele>
        <time>2019-12-21T10:16:53.351Z</time>
      </trkpt>
      <trkpt lat="41.256625" lon="1.83945333">
        <ele>230.0</ele>
        <time>2019-12-21T10:16:54.354Z</time>
      </trkpt>
      <trkpt lat="41.25650667" lon="1.83953833">
        <ele>230.0</ele>
        <time>2019-12-21T10:16:55.367Z</time>
      </trkpt>
      <trkpt lat="41.25650667" lon="1.83953833">
        <ele>230.0</ele>
        <time>2019-12-21T10:16:56.355Z</time>
      </trkpt>
      <trkpt lat="41.25638167" lon="1.83963167">
        <ele>229.0</ele>
        <time>2019-12-21T10:16:57.361Z</time>
      </trkpt>
      <trkpt lat="41.25638167" lon="1.83963167">
        <ele>229.0</ele>
        <time>2019-12-21T10:16:58.348Z</time>
      </trkpt>
      <trkpt lat="41.25626167" lon="1.83970833">
        <ele>229.0</ele>
        <time>2019-12-21T10:16:59.342Z</time>
      </trkpt>
      <trkpt lat="41.25626167" lon="1.83970833">
        <ele>229.0</ele>
        <time>2019-12-21T10:17:00.338Z</time>
      </trkpt>
      <trkpt lat="41.25614333" lon="1.83979833">
        <ele>229.0</ele>
        <time>2019-12-21T10:17:01.352Z</time>
      </trkpt>
      <trkpt lat="41.25614333" lon="1.83979833">
        <ele>229.0</ele>
        <time>2019-12-21T10:17:02.372Z</time>
      </trkpt>
      <trkpt lat="41.25604333" lon="1.83991667">
        <ele>228.0</ele>
        <time>2019-12-21T10:17:03.352Z</time>
      </trkpt>
      <trkpt lat="41.25604333" lon="1.83991667">
        <ele>228.0</ele>
        <time>2019-12-21T10:17:04.368Z</time>
      </trkpt>
      <trkpt lat="41.25595167" lon="1.84002667">
        <ele>228.0</ele>
        <time>2019-12-21T10:17:05.334Z</time>
      </trkpt>
      <trkpt lat="41.25595167" lon="1.84002667">
        <ele>228.0</ele>
        <time>2019-12-21T10:17:06.362Z</time>
      </trkpt>
      <trkpt lat="41.25583667" lon="1.84009833">
        <ele>228.0</ele>
        <time>2019-12-21T10:17:07.357Z</time>
      </trkpt>
      <trkpt lat="41.25583667" lon="1.84009833">
        <ele>228.0</ele>
        <time>2019-12-21T10:17:08.334Z</time>
      </trkpt>
      <trkpt lat="41.255725" lon="1.84010833">
        <ele>227.0</ele>
        <time>2019-12-21T10:17:09.350Z</time>
      </trkpt>
      <trkpt lat="41.255725" lon="1.84010833">
        <ele>227.0</ele>
        <time>2019-12-21T10:17:10.369Z</time>
      </trkpt>
      <trkpt lat="41.25560333" lon="1.840095">
        <ele>227.0</ele>
        <time>2019-12-21T10:17:11.342Z</time>
      </trkpt>
      <trkpt lat="41.25560333" lon="1.840095">
        <ele>227.0</ele>
        <time>2019-12-21T10:17:12.357Z</time>
      </trkpt>
      <trkpt lat="41.255505" lon="1.84011167">
        <ele>227.0</ele>
        <time>2019-12-21T10:17:13.363Z</time>
      </trkpt>
      <trkpt lat="41.255505" lon="1.84011167">
        <ele>227.0</ele>
        <time>2019-12-21T10:17:14.352Z</time>
      </trkpt>
      <trkpt lat="41.25545833" lon="1.84013833">
        <ele>227.0</ele>
        <time>2019-12-21T10:17:15.358Z</time>
      </trkpt>
      <trkpt lat="41.25545833" lon="1.84013833">
        <ele>227.0</ele>
        <time>2019-12-21T10:17:16.365Z</time>
      </trkpt>
      <trkpt lat="41.255435" lon="1.84017333">
        <ele>227.0</ele>
        <time>2019-12-21T10:17:17.371Z</time>
      </trkpt>
      <trkpt lat="41.25542667" lon="1.84018833">
        <ele>227.0</ele>
        <time>2019-12-21T10:17:18.364Z</time>
      </trkpt>
      <trkpt lat="41.25541333" lon="1.84021">
        <ele>227.0</ele>
        <time>2019-12-21T10:17:19.359Z</time>
      </trkpt>
      <trkpt lat="41.25541333" lon="1.84021">
        <ele>227.0</ele>
        <time>2019-12-21T10:17:20.339Z</time>
      </trkpt>
      <trkpt lat="41.255395" lon="1.84024333">
        <ele>227.0</ele>
        <time>2019-12-21T10:17:21.346Z</time>
      </trkpt>
      <trkpt lat="41.25539167" lon="1.84025833">
        <ele>227.0</ele>
        <time>2019-12-21T10:17:22.358Z</time>
      </trkpt>
      <trkpt lat="41.25538667" lon="1.840275">
        <ele>227.0</ele>
        <time>2019-12-21T10:17:23.357Z</time>
      </trkpt>
      <trkpt lat="41.25538667" lon="1.840275">
        <ele>227.0</ele>
        <time>2019-12-21T10:17:24.353Z</time>
      </trkpt>
      <trkpt lat="41.25536833" lon="1.84031">
        <ele>227.0</ele>
        <time>2019-12-21T10:17:25.350Z</time>
      </trkpt>
      <trkpt lat="41.25536833" lon="1.84031">
        <ele>227.0</ele>
        <time>2019-12-21T10:17:26.347Z</time>
      </trkpt>
      <trkpt lat="41.25534333" lon="1.84034667">
        <ele>227.0</ele>
        <time>2019-12-21T10:17:27.353Z</time>
      </trkpt>
      <trkpt lat="41.25534333" lon="1.84034667">
        <ele>227.0</ele>
        <time>2019-12-21T10:17:28.333Z</time>
      </trkpt>
      <trkpt lat="41.25531667" lon="1.840375">
        <ele>227.0</ele>
        <time>2019-12-21T10:17:29.351Z</time>
      </trkpt>
      <trkpt lat="41.25531667" lon="1.840375">
        <ele>227.0</ele>
        <time>2019-12-21T10:17:30.369Z</time>
      </trkpt>
      <trkpt lat="41.25528833" lon="1.840395">
        <ele>227.0</ele>
        <time>2019-12-21T10:17:31.358Z</time>
      </trkpt>
      <trkpt lat="41.25528833" lon="1.840395">
        <ele>227.0</ele>
        <time>2019-12-21T10:17:32.368Z</time>
      </trkpt>
      <trkpt lat="41.25525" lon="1.84042333">
        <ele>227.0</ele>
        <time>2019-12-21T10:17:33.334Z</time>
      </trkpt>
      <trkpt lat="41.25525" lon="1.84042333">
        <ele>227.0</ele>
        <time>2019-12-21T10:17:34.353Z</time>
      </trkpt>
      <trkpt lat="41.25521833" lon="1.84045333">
        <ele>226.0</ele>
        <time>2019-12-21T10:17:35.342Z</time>
      </trkpt>
      <trkpt lat="41.25521833" lon="1.84045333">
        <ele>226.0</ele>
        <time>2019-12-21T10:17:36.339Z</time>
      </trkpt>
      <trkpt lat="41.255185" lon="1.84047667">
        <ele>226.0</ele>
        <time>2019-12-21T10:17:37.345Z</time>
      </trkpt>
      <trkpt lat="41.255185" lon="1.84047667">
        <ele>226.0</ele>
        <time>2019-12-21T10:17:38.355Z</time>
      </trkpt>
      <trkpt lat="41.255145" lon="1.84050667">
        <ele>226.0</ele>
        <time>2019-12-21T10:17:39.351Z</time>
      </trkpt>
      <trkpt lat="41.255145" lon="1.84050667">
        <ele>226.0</ele>
        <time>2019-12-21T10:17:40.357Z</time>
      </trkpt>
      <trkpt lat="41.25510667" lon="1.84053">
        <ele>226.0</ele>
        <time>2019-12-21T10:17:41.363Z</time>
      </trkpt>
      <trkpt lat="41.25510667" lon="1.84053">
        <ele>226.0</ele>
        <time>2019-12-21T10:17:42.347Z</time>
      </trkpt>
      <trkpt lat="41.25506667" lon="1.84055">
        <ele>227.0</ele>
        <time>2019-12-21T10:17:43.351Z</time>
      </trkpt>
      <trkpt lat="41.25506667" lon="1.84055">
        <ele>227.0</ele>
        <time>2019-12-21T10:17:44.357Z</time>
      </trkpt>
      <trkpt lat="41.25503667" lon="1.840565">
        <ele>227.0</ele>
        <time>2019-12-21T10:17:45.363Z</time>
      </trkpt>
      <trkpt lat="41.25503667" lon="1.840565">
        <ele>227.0</ele>
        <time>2019-12-21T10:17:46.364Z</time>
      </trkpt>
      <trkpt lat="41.25500333" lon="1.84058667">
        <ele>227.0</ele>
        <time>2019-12-21T10:17:47.363Z</time>
      </trkpt>
      <trkpt lat="41.25500333" lon="1.84058667">
        <ele>227.0</ele>
        <time>2019-12-21T10:17:48.363Z</time>
      </trkpt>
      <trkpt lat="41.25496333" lon="1.840615">
        <ele>227.0</ele>
        <time>2019-12-21T10:17:49.369Z</time>
      </trkpt>
      <trkpt lat="41.25496333" lon="1.840615">
        <ele>227.0</ele>
        <time>2019-12-21T10:17:50.348Z</time>
      </trkpt>
      <trkpt lat="41.25492667" lon="1.84064333">
        <ele>227.0</ele>
        <time>2019-12-21T10:17:51.361Z</time>
      </trkpt>
      <trkpt lat="41.25492667" lon="1.84064333">
        <ele>227.0</ele>
        <time>2019-12-21T10:17:52.344Z</time>
      </trkpt>
      <trkpt lat="41.25489" lon="1.84066833">
        <ele>228.0</ele>
        <time>2019-12-21T10:17:53.351Z</time>
      </trkpt>
      <trkpt lat="41.25489" lon="1.84066833">
        <ele>228.0</ele>
        <time>2019-12-21T10:17:54.364Z</time>
      </trkpt>
      <trkpt lat="41.25485333" lon="1.84068333">
        <ele>229.0</ele>
        <time>2019-12-21T10:17:55.350Z</time>
      </trkpt>
      <trkpt lat="41.25485333" lon="1.84068333">
        <ele>229.0</ele>
        <time>2019-12-21T10:17:56.368Z</time>
      </trkpt>
      <trkpt lat="41.25479333" lon="1.8407">
        <ele>229.0</ele>
        <time>2019-12-21T10:17:57.334Z</time>
      </trkpt>
      <trkpt lat="41.25479333" lon="1.8407">
        <ele>229.0</ele>
        <time>2019-12-21T10:17:58.334Z</time>
      </trkpt>
      <trkpt lat="41.25474667" lon="1.84068667">
        <ele>230.0</ele>
        <time>2019-12-21T10:17:59.348Z</time>
      </trkpt>
      <trkpt lat="41.25474667" lon="1.84068667">
        <ele>230.0</ele>
        <time>2019-12-21T10:18:00.354Z</time>
      </trkpt>
      <trkpt lat="41.25470167" lon="1.84067167">
        <ele>231.0</ele>
        <time>2019-12-21T10:18:01.360Z</time>
      </trkpt>
      <trkpt lat="41.25470167" lon="1.84067167">
        <ele>231.0</ele>
        <time>2019-12-21T10:18:02.353Z</time>
      </trkpt>
      <trkpt lat="41.25465667" lon="1.84064667">
        <ele>231.0</ele>
        <time>2019-12-21T10:18:03.351Z</time>
      </trkpt>
      <trkpt lat="41.25465667" lon="1.84064667">
        <ele>231.0</ele>
        <time>2019-12-21T10:18:04.354Z</time>
      </trkpt>
      <trkpt lat="41.25461667" lon="1.84060667">
        <ele>232.0</ele>
        <time>2019-12-21T10:18:05.360Z</time>
      </trkpt>
      <trkpt lat="41.25461667" lon="1.84060667">
        <ele>232.0</ele>
        <time>2019-12-21T10:18:06.341Z</time>
      </trkpt>
      <trkpt lat="41.25458667" lon="1.84057167">
        <ele>232.0</ele>
        <time>2019-12-21T10:18:07.352Z</time>
      </trkpt>
      <trkpt lat="41.25458667" lon="1.84057167">
        <ele>232.0</ele>
        <time>2019-12-21T10:18:08.352Z</time>
      </trkpt>
      <trkpt lat="41.25456" lon="1.84052333">
        <ele>232.0</ele>
        <time>2019-12-21T10:18:09.359Z</time>
      </trkpt>
      <trkpt lat="41.25456" lon="1.84052333">
        <ele>232.0</ele>
        <time>2019-12-21T10:18:10.346Z</time>
      </trkpt>
      <trkpt lat="41.25454167" lon="1.84047667">
        <ele>233.0</ele>
        <time>2019-12-21T10:18:11.341Z</time>
      </trkpt>
      <trkpt lat="41.25454167" lon="1.84047667">
        <ele>233.0</ele>
        <time>2019-12-21T10:18:12.342Z</time>
      </trkpt>
      <trkpt lat="41.25452167" lon="1.84044">
        <ele>233.0</ele>
        <time>2019-12-21T10:18:13.350Z</time>
      </trkpt>
      <trkpt lat="41.25452167" lon="1.84044">
        <ele>233.0</ele>
        <time>2019-12-21T10:18:14.369Z</time>
      </trkpt>
      <trkpt lat="41.25448333" lon="1.84042">
        <ele>234.0</ele>
        <time>2019-12-21T10:18:15.372Z</time>
      </trkpt>
      <trkpt lat="41.25448333" lon="1.84042">
        <ele>234.0</ele>
        <time>2019-12-21T10:18:16.345Z</time>
      </trkpt>
      <trkpt lat="41.25446333" lon="1.84039833">
        <ele>234.0</ele>
        <time>2019-12-21T10:18:17.353Z</time>
      </trkpt>
      <trkpt lat="41.25446333" lon="1.84039833">
        <ele>234.0</ele>
        <time>2019-12-21T10:18:18.360Z</time>
      </trkpt>
      <trkpt lat="41.25444833" lon="1.840385">
        <ele>235.0</ele>
        <time>2019-12-21T10:18:19.367Z</time>
      </trkpt>
      <trkpt lat="41.25444833" lon="1.840385">
        <ele>235.0</ele>
        <time>2019-12-21T10:18:20.345Z</time>
      </trkpt>
      <trkpt lat="41.25443167" lon="1.840375">
        <ele>235.0</ele>
        <time>2019-12-21T10:18:21.351Z</time>
      </trkpt>
      <trkpt lat="41.25443167" lon="1.840375">
        <ele>235.0</ele>
        <time>2019-12-21T10:18:22.345Z</time>
      </trkpt>
      <trkpt lat="41.254405" lon="1.84036333">
        <ele>235.0</ele>
        <time>2019-12-21T10:18:23.353Z</time>
      </trkpt>
      <trkpt lat="41.254405" lon="1.84036333">
        <ele>235.0</ele>
        <time>2019-12-21T10:18:24.372Z</time>
      </trkpt>
      <trkpt lat="41.25437833" lon="1.840355">
        <ele>235.0</ele>
        <time>2019-12-21T10:18:25.350Z</time>
      </trkpt>
      <trkpt lat="41.25437833" lon="1.840355">
        <ele>235.0</ele>
        <time>2019-12-21T10:18:26.353Z</time>
      </trkpt>
      <trkpt lat="41.25435" lon="1.84034667">
        <ele>236.0</ele>
        <time>2019-12-21T10:18:27.359Z</time>
      </trkpt>
      <trkpt lat="41.25435" lon="1.84034667">
        <ele>236.0</ele>
        <time>2019-12-21T10:18:28.339Z</time>
      </trkpt>
      <trkpt lat="41.25432833" lon="1.84033">
        <ele>236.0</ele>
        <time>2019-12-21T10:18:29.345Z</time>
      </trkpt>
      <trkpt lat="41.25432833" lon="1.84033">
        <ele>236.0</ele>
        <time>2019-12-21T10:18:30.364Z</time>
      </trkpt>
      <trkpt lat="41.25431" lon="1.84032">
        <ele>236.0</ele>
        <time>2019-12-21T10:18:31.371Z</time>
      </trkpt>
      <trkpt lat="41.25431" lon="1.84032">
        <ele>236.0</ele>
        <time>2019-12-21T10:18:32.355Z</time>
      </trkpt>
      <trkpt lat="41.25429333" lon="1.84030833">
        <ele>237.0</ele>
        <time>2019-12-21T10:18:33.357Z</time>
      </trkpt>
      <trkpt lat="41.25429333" lon="1.84030833">
        <ele>237.0</ele>
        <time>2019-12-21T10:18:34.363Z</time>
      </trkpt>
      <trkpt lat="41.25427667" lon="1.84028833">
        <ele>238.0</ele>
        <time>2019-12-21T10:18:35.369Z</time>
      </trkpt>
      <trkpt lat="41.254265" lon="1.84027833">
        <ele>238.0</ele>
        <time>2019-12-21T10:18:36.372Z</time>
      </trkpt>
      <trkpt lat="41.254255" lon="1.84026667">
        <ele>238.0</ele>
        <time>2019-12-21T10:18:37.336Z</time>
      </trkpt>
      <trkpt lat="41.254255" lon="1.84026667">
        <ele>238.0</ele>
        <time>2019-12-21T10:18:38.355Z</time>
      </trkpt>
      <trkpt lat="41.25421833" lon="1.84025333">
        <ele>238.0</ele>
        <time>2019-12-21T10:18:39.348Z</time>
      </trkpt>
      <trkpt lat="41.25421833" lon="1.84025333">
        <ele>238.0</ele>
        <time>2019-12-21T10:18:40.345Z</time>
      </trkpt>
      <trkpt lat="41.254195" lon="1.84023833">
        <ele>239.0</ele>
        <time>2019-12-21T10:18:41.352Z</time>
      </trkpt>
      <trkpt lat="41.254195" lon="1.84023833">
        <ele>239.0</ele>
        <time>2019-12-21T10:18:42.372Z</time>
      </trkpt>
      <trkpt lat="41.25417667" lon="1.84022167">
        <ele>239.0</ele>
        <time>2019-12-21T10:18:43.345Z</time>
      </trkpt>
      <trkpt lat="41.25417667" lon="1.84022167">
        <ele>239.0</ele>
        <time>2019-12-21T10:18:44.372Z</time>
      </trkpt>
      <trkpt lat="41.25415167" lon="1.84021167">
        <ele>240.0</ele>
        <time>2019-12-21T10:18:45.337Z</time>
      </trkpt>
      <trkpt lat="41.25415167" lon="1.84021167">
        <ele>240.0</ele>
        <time>2019-12-21T10:18:46.364Z</time>
      </trkpt>
      <trkpt lat="41.25413167" lon="1.84019333">
        <ele>241.0</ele>
        <time>2019-12-21T10:18:47.352Z</time>
      </trkpt>
      <trkpt lat="41.25413167" lon="1.84019333">
        <ele>241.0</ele>
        <time>2019-12-21T10:18:48.368Z</time>
      </trkpt>
      <trkpt lat="41.25411167" lon="1.84017167">
        <ele>241.0</ele>
        <time>2019-12-21T10:18:49.333Z</time>
      </trkpt>
      <trkpt lat="41.25411167" lon="1.84017167">
        <ele>241.0</ele>
        <time>2019-12-21T10:18:50.353Z</time>
      </trkpt>
      <trkpt lat="41.25409" lon="1.84015167">
        <ele>242.0</ele>
        <time>2019-12-21T10:18:51.350Z</time>
      </trkpt>
      <trkpt lat="41.25409" lon="1.84015167">
        <ele>242.0</ele>
        <time>2019-12-21T10:18:52.366Z</time>
      </trkpt>
      <trkpt lat="41.25406833" lon="1.84014">
        <ele>243.0</ele>
        <time>2019-12-21T10:18:53.372Z</time>
      </trkpt>
      <trkpt lat="41.25405333" lon="1.84013167">
        <ele>243.0</ele>
        <time>2019-12-21T10:18:54.348Z</time>
      </trkpt>
      <trkpt lat="41.25403833" lon="1.84012333">
        <ele>243.0</ele>
        <time>2019-12-21T10:18:55.356Z</time>
      </trkpt>
      <trkpt lat="41.25403833" lon="1.84012333">
        <ele>243.0</ele>
        <time>2019-12-21T10:18:56.336Z</time>
      </trkpt>
      <trkpt lat="41.25401333" lon="1.84010667">
        <ele>244.0</ele>
        <time>2019-12-21T10:18:57.343Z</time>
      </trkpt>
      <trkpt lat="41.25400167" lon="1.8401">
        <ele>244.0</ele>
        <time>2019-12-21T10:18:58.333Z</time>
      </trkpt>
      <trkpt lat="41.25400167" lon="1.8401">
        <ele>244.0</ele>
        <time>2019-12-21T10:18:59.355Z</time>
      </trkpt>
      <trkpt lat="41.253975" lon="1.84009167">
        <ele>245.0</ele>
        <time>2019-12-21T10:19:00.363Z</time>
      </trkpt>
      <trkpt lat="41.25396333" lon="1.84008833">
        <ele>246.0</ele>
        <time>2019-12-21T10:19:01.347Z</time>
      </trkpt>
      <trkpt lat="41.25396333" lon="1.84008833">
        <ele>246.0</ele>
        <time>2019-12-21T10:19:02.372Z</time>
      </trkpt>
      <trkpt lat="41.25393833" lon="1.84007167">
        <ele>246.0</ele>
        <time>2019-12-21T10:19:03.338Z</time>
      </trkpt>
      <trkpt lat="41.25393833" lon="1.84007167">
        <ele>246.0</ele>
        <time>2019-12-21T10:19:04.334Z</time>
      </trkpt>
      <trkpt lat="41.25391167" lon="1.84005833">
        <ele>247.0</ele>
        <time>2019-12-21T10:19:05.361Z</time>
      </trkpt>
      <trkpt lat="41.25391167" lon="1.84005833">
        <ele>247.0</ele>
        <time>2019-12-21T10:19:06.356Z</time>
      </trkpt>
      <trkpt lat="41.25387667" lon="1.84004667">
        <ele>248.0</ele>
        <time>2019-12-21T10:19:07.362Z</time>
      </trkpt>
      <trkpt lat="41.25387667" lon="1.84004667">
        <ele>248.0</ele>
        <time>2019-12-21T10:19:08.353Z</time>
      </trkpt>
      <trkpt lat="41.25384667" lon="1.84004167">
        <ele>248.0</ele>
        <time>2019-12-21T10:19:09.357Z</time>
      </trkpt>
      <trkpt lat="41.25384667" lon="1.84004167">
        <ele>248.0</ele>
        <time>2019-12-21T10:19:10.336Z</time>
      </trkpt>
      <trkpt lat="41.25380833" lon="1.84002">
        <ele>248.0</ele>
        <time>2019-12-21T10:19:11.344Z</time>
      </trkpt>
      <trkpt lat="41.25380833" lon="1.84002">
        <ele>248.0</ele>
        <time>2019-12-21T10:19:12.363Z</time>
      </trkpt>
      <trkpt lat="41.25376333" lon="1.84001667">
        <ele>249.0</ele>
        <time>2019-12-21T10:19:13.357Z</time>
      </trkpt>
      <trkpt lat="41.25376333" lon="1.84001667">
        <ele>249.0</ele>
        <time>2019-12-21T10:19:14.336Z</time>
      </trkpt>
      <trkpt lat="41.25372167" lon="1.84000667">
        <ele>249.0</ele>
        <time>2019-12-21T10:19:15.343Z</time>
      </trkpt>
      <trkpt lat="41.25369667" lon="1.84000333">
        <ele>249.0</ele>
        <time>2019-12-21T10:19:16.353Z</time>
      </trkpt>
      <trkpt lat="41.25369667" lon="1.84000333">
        <ele>249.0</ele>
        <time>2019-12-21T10:19:17.361Z</time>
      </trkpt>
      <trkpt lat="41.25363667" lon="1.84000667">
        <ele>249.0</ele>
        <time>2019-12-21T10:19:18.342Z</time>
      </trkpt>
      <trkpt lat="41.25361333" lon="1.84000333">
        <ele>249.0</ele>
        <time>2019-12-21T10:19:19.340Z</time>
      </trkpt>
      <trkpt lat="41.25361333" lon="1.84000333">
        <ele>249.0</ele>
        <time>2019-12-21T10:19:20.355Z</time>
      </trkpt>
      <trkpt lat="41.25356167" lon="1.84000667">
        <ele>250.0</ele>
        <time>2019-12-21T10:19:21.362Z</time>
      </trkpt>
      <trkpt lat="41.25356167" lon="1.84000667">
        <ele>250.0</ele>
        <time>2019-12-21T10:19:22.354Z</time>
      </trkpt>
      <trkpt lat="41.25351333" lon="1.83998333">
        <ele>250.0</ele>
        <time>2019-12-21T10:19:23.342Z</time>
      </trkpt>
      <trkpt lat="41.25351333" lon="1.83998333">
        <ele>250.0</ele>
        <time>2019-12-21T10:19:24.349Z</time>
      </trkpt>
      <trkpt lat="41.25347" lon="1.83996333">
        <ele>250.0</ele>
        <time>2019-12-21T10:19:25.357Z</time>
      </trkpt>
      <trkpt lat="41.25347" lon="1.83996333">
        <ele>250.0</ele>
        <time>2019-12-21T10:19:26.337Z</time>
      </trkpt>
      <trkpt lat="41.25342833" lon="1.83994667">
        <ele>250.0</ele>
        <time>2019-12-21T10:19:27.351Z</time>
      </trkpt>
      <trkpt lat="41.25342833" lon="1.83994667">
        <ele>250.0</ele>
        <time>2019-12-21T10:19:28.371Z</time>
      </trkpt>
      <trkpt lat="41.25339333" lon="1.839925">
        <ele>251.0</ele>
        <time>2019-12-21T10:19:29.338Z</time>
      </trkpt>
      <trkpt lat="41.25337667" lon="1.839915">
        <ele>251.0</ele>
        <time>2019-12-21T10:19:30.342Z</time>
      </trkpt>
      <trkpt lat="41.253355" lon="1.83990333">
        <ele>251.0</ele>
        <time>2019-12-21T10:19:31.372Z</time>
      </trkpt>
      <trkpt lat="41.253355" lon="1.83990333">
        <ele>251.0</ele>
        <time>2019-12-21T10:19:32.352Z</time>
      </trkpt>
      <trkpt lat="41.25331333" lon="1.83987667">
        <ele>251.0</ele>
        <time>2019-12-21T10:19:33.342Z</time>
      </trkpt>
      <trkpt lat="41.25331333" lon="1.83987667">
        <ele>251.0</ele>
        <time>2019-12-21T10:19:34.362Z</time>
      </trkpt>
      <trkpt lat="41.25325667" lon="1.83984667">
        <ele>251.0</ele>
        <time>2019-12-21T10:19:35.367Z</time>
      </trkpt>
      <trkpt lat="41.25325667" lon="1.83984667">
        <ele>251.0</ele>
        <time>2019-12-21T10:19:36.355Z</time>
      </trkpt>
      <trkpt lat="41.253195" lon="1.83979833">
        <ele>251.0</ele>
        <time>2019-12-21T10:19:37.356Z</time>
      </trkpt>
      <trkpt lat="41.253195" lon="1.83979833">
        <ele>251.0</ele>
        <time>2019-12-21T10:19:38.349Z</time>
      </trkpt>
      <trkpt lat="41.25309167" lon="1.83976">
        <ele>251.0</ele>
        <time>2019-12-21T10:19:39.356Z</time>
      </trkpt>
      <trkpt lat="41.25309167" lon="1.83976">
        <ele>251.0</ele>
        <time>2019-12-21T10:19:40.335Z</time>
      </trkpt>
      <trkpt lat="41.25300833" lon="1.839765">
        <ele>252.0</ele>
        <time>2019-12-21T10:19:41.350Z</time>
      </trkpt>
      <trkpt lat="41.25300833" lon="1.839765">
        <ele>252.0</ele>
        <time>2019-12-21T10:19:42.355Z</time>
      </trkpt>
      <trkpt lat="41.252955" lon="1.83978">
        <ele>252.0</ele>
        <time>2019-12-21T10:19:43.364Z</time>
      </trkpt>
      <trkpt lat="41.252955" lon="1.83978">
        <ele>252.0</ele>
        <time>2019-12-21T10:19:44.351Z</time>
      </trkpt>
      <trkpt lat="41.25292" lon="1.83979333">
        <ele>253.0</ele>
        <time>2019-12-21T10:19:45.357Z</time>
      </trkpt>
      <trkpt lat="41.25292" lon="1.83979333">
        <ele>253.0</ele>
        <time>2019-12-21T10:19:46.336Z</time>
      </trkpt>
      <trkpt lat="41.25288833" lon="1.83980667">
        <ele>254.0</ele>
        <time>2019-12-21T10:19:47.351Z</time>
      </trkpt>
      <trkpt lat="41.25286833" lon="1.83981667">
        <ele>254.0</ele>
        <time>2019-12-21T10:19:48.362Z</time>
      </trkpt>
      <trkpt lat="41.25286833" lon="1.83981667">
        <ele>254.0</ele>
        <time>2019-12-21T10:19:49.341Z</time>
      </trkpt>
      <trkpt lat="41.25283333" lon="1.839835">
        <ele>255.0</ele>
        <time>2019-12-21T10:19:50.372Z</time>
      </trkpt>
      <trkpt lat="41.25283333" lon="1.839835">
        <ele>255.0</ele>
        <time>2019-12-21T10:19:51.369Z</time>
      </trkpt>
      <trkpt lat="41.25279833" lon="1.83985333">
        <ele>255.0</ele>
        <time>2019-12-21T10:19:52.342Z</time>
      </trkpt>
      <trkpt lat="41.25277333" lon="1.83986167">
        <ele>256.0</ele>
        <time>2019-12-21T10:19:53.346Z</time>
      </trkpt>
      <trkpt lat="41.25277333" lon="1.83986167">
        <ele>256.0</ele>
        <time>2019-12-21T10:19:54.363Z</time>
      </trkpt>
      <trkpt lat="41.25272667" lon="1.83986667">
        <ele>256.0</ele>
        <time>2019-12-21T10:19:55.356Z</time>
      </trkpt>
      <trkpt lat="41.25272667" lon="1.83986667">
        <ele>256.0</ele>
        <time>2019-12-21T10:19:56.336Z</time>
      </trkpt>
      <trkpt lat="41.25268667" lon="1.83987667">
        <ele>257.0</ele>
        <time>2019-12-21T10:19:57.348Z</time>
      </trkpt>
      <trkpt lat="41.25268667" lon="1.83987667">
        <ele>257.0</ele>
        <time>2019-12-21T10:19:58.372Z</time>
      </trkpt>
      <trkpt lat="41.252655" lon="1.83989">
        <ele>257.0</ele>
        <time>2019-12-21T10:19:59.350Z</time>
      </trkpt>
      <trkpt lat="41.252655" lon="1.83989">
        <ele>257.0</ele>
        <time>2019-12-21T10:20:00.333Z</time>
      </trkpt>
      <trkpt lat="41.25262333" lon="1.8399">
        <ele>258.0</ele>
        <time>2019-12-21T10:20:01.339Z</time>
      </trkpt>
      <trkpt lat="41.25262333" lon="1.8399">
        <ele>258.0</ele>
        <time>2019-12-21T10:20:02.358Z</time>
      </trkpt>
      <trkpt lat="41.252585" lon="1.83990833">
        <ele>258.0</ele>
        <time>2019-12-21T10:20:03.342Z</time>
      </trkpt>
      <trkpt lat="41.252585" lon="1.83990833">
        <ele>258.0</ele>
        <time>2019-12-21T10:20:04.355Z</time>
      </trkpt>
      <trkpt lat="41.25254833" lon="1.839915">
        <ele>259.0</ele>
        <time>2019-12-21T10:20:05.362Z</time>
      </trkpt>
      <trkpt lat="41.25254833" lon="1.839915">
        <ele>259.0</ele>
        <time>2019-12-21T10:20:06.349Z</time>
      </trkpt>
      <trkpt lat="41.25249833" lon="1.83992667">
        <ele>259.0</ele>
        <time>2019-12-21T10:20:07.355Z</time>
      </trkpt>
      <trkpt lat="41.25249833" lon="1.83992667">
        <ele>259.0</ele>
        <time>2019-12-21T10:20:08.344Z</time>
      </trkpt>
      <trkpt lat="41.25245833" lon="1.83994">
        <ele>260.0</ele>
        <time>2019-12-21T10:20:09.350Z</time>
      </trkpt>
      <trkpt lat="41.25244167" lon="1.83995">
        <ele>260.0</ele>
        <time>2019-12-21T10:20:10.347Z</time>
      </trkpt>
      <trkpt lat="41.25244167" lon="1.83995">
        <ele>260.0</ele>
        <time>2019-12-21T10:20:11.339Z</time>
      </trkpt>
      <trkpt lat="41.25239667" lon="1.83996">
        <ele>261.0</ele>
        <time>2019-12-21T10:20:12.348Z</time>
      </trkpt>
      <trkpt lat="41.25237667" lon="1.83996167">
        <ele>261.0</ele>
        <time>2019-12-21T10:20:13.341Z</time>
      </trkpt>
      <trkpt lat="41.25237667" lon="1.83996167">
        <ele>261.0</ele>
        <time>2019-12-21T10:20:14.334Z</time>
      </trkpt>
      <trkpt lat="41.25233833" lon="1.83996833">
        <ele>261.0</ele>
        <time>2019-12-21T10:20:15.340Z</time>
      </trkpt>
      <trkpt lat="41.25233833" lon="1.83996833">
        <ele>261.0</ele>
        <time>2019-12-21T10:20:16.360Z</time>
      </trkpt>
      <trkpt lat="41.25230167" lon="1.83998333">
        <ele>262.0</ele>
        <time>2019-12-21T10:20:17.352Z</time>
      </trkpt>
      <trkpt lat="41.25230167" lon="1.83998333">
        <ele>262.0</ele>
        <time>2019-12-21T10:20:18.356Z</time>
      </trkpt>
      <trkpt lat="41.25225833" lon="1.84000167">
        <ele>263.0</ele>
        <time>2019-12-21T10:20:19.366Z</time>
      </trkpt>
      <trkpt lat="41.25225833" lon="1.84000167">
        <ele>263.0</ele>
        <time>2019-12-21T10:20:20.372Z</time>
      </trkpt>
      <trkpt lat="41.252215" lon="1.84002333">
        <ele>263.0</ele>
        <time>2019-12-21T10:20:21.338Z</time>
      </trkpt>
      <trkpt lat="41.252215" lon="1.84002333">
        <ele>263.0</ele>
        <time>2019-12-21T10:20:22.359Z</time>
      </trkpt>
      <trkpt lat="41.25217333" lon="1.84004">
        <ele>264.0</ele>
        <time>2019-12-21T10:20:23.351Z</time>
      </trkpt>
      <trkpt lat="41.25217333" lon="1.84004">
        <ele>264.0</ele>
        <time>2019-12-21T10:20:24.349Z</time>
      </trkpt>
      <trkpt lat="41.25213667" lon="1.84005833">
        <ele>264.0</ele>
        <time>2019-12-21T10:20:25.358Z</time>
      </trkpt>
      <trkpt lat="41.25213667" lon="1.84005833">
        <ele>264.0</ele>
        <time>2019-12-21T10:20:26.338Z</time>
      </trkpt>
      <trkpt lat="41.25209833" lon="1.84008833">
        <ele>265.0</ele>
        <time>2019-12-21T10:20:27.342Z</time>
      </trkpt>
      <trkpt lat="41.25209833" lon="1.84008833">
        <ele>265.0</ele>
        <time>2019-12-21T10:20:28.350Z</time>
      </trkpt>
      <trkpt lat="41.25205333" lon="1.84011833">
        <ele>265.0</ele>
        <time>2019-12-21T10:20:29.361Z</time>
      </trkpt>
      <trkpt lat="41.25205333" lon="1.84011833">
        <ele>265.0</ele>
        <time>2019-12-21T10:20:30.346Z</time>
      </trkpt>
      <trkpt lat="41.25199833" lon="1.84013833">
        <ele>266.0</ele>
        <time>2019-12-21T10:20:31.357Z</time>
      </trkpt>
      <trkpt lat="41.25199833" lon="1.84013833">
        <ele>266.0</ele>
        <time>2019-12-21T10:20:32.360Z</time>
      </trkpt>
      <trkpt lat="41.25194667" lon="1.84015667">
        <ele>266.0</ele>
        <time>2019-12-21T10:20:33.365Z</time>
      </trkpt>
      <trkpt lat="41.25194667" lon="1.84015667">
        <ele>266.0</ele>
        <time>2019-12-21T10:20:34.346Z</time>
      </trkpt>
      <trkpt lat="41.251895" lon="1.84017">
        <ele>267.0</ele>
        <time>2019-12-21T10:20:35.353Z</time>
      </trkpt>
      <trkpt lat="41.251895" lon="1.84017">
        <ele>267.0</ele>
        <time>2019-12-21T10:20:36.334Z</time>
      </trkpt>
      <trkpt lat="41.25184667" lon="1.84017">
        <ele>268.0</ele>
        <time>2019-12-21T10:20:37.351Z</time>
      </trkpt>
      <trkpt lat="41.25184667" lon="1.84017">
        <ele>268.0</ele>
        <time>2019-12-21T10:20:38.357Z</time>
      </trkpt>
      <trkpt lat="41.251805" lon="1.840165">
        <ele>268.0</ele>
        <time>2019-12-21T10:20:39.365Z</time>
      </trkpt>
      <trkpt lat="41.251805" lon="1.840165">
        <ele>268.0</ele>
        <time>2019-12-21T10:20:40.359Z</time>
      </trkpt>
      <trkpt lat="41.25177833" lon="1.84016167">
        <ele>269.0</ele>
        <time>2019-12-21T10:20:41.349Z</time>
      </trkpt>
      <trkpt lat="41.25177833" lon="1.84016167">
        <ele>269.0</ele>
        <time>2019-12-21T10:20:42.349Z</time>
      </trkpt>
      <trkpt lat="41.251735" lon="1.840165">
        <ele>269.0</ele>
        <time>2019-12-21T10:20:43.360Z</time>
      </trkpt>
      <trkpt lat="41.251735" lon="1.840165">
        <ele>269.0</ele>
        <time>2019-12-21T10:20:44.354Z</time>
      </trkpt>
      <trkpt lat="41.25170333" lon="1.84016667">
        <ele>269.0</ele>
        <time>2019-12-21T10:20:45.351Z</time>
      </trkpt>
      <trkpt lat="41.25170333" lon="1.84016667">
        <ele>269.0</ele>
        <time>2019-12-21T10:20:46.359Z</time>
      </trkpt>
      <trkpt lat="41.251675" lon="1.84016333">
        <ele>270.0</ele>
        <time>2019-12-21T10:20:47.365Z</time>
      </trkpt>
      <trkpt lat="41.251675" lon="1.84016333">
        <ele>270.0</ele>
        <time>2019-12-21T10:20:48.354Z</time>
      </trkpt>
      <trkpt lat="41.25162667" lon="1.84015167">
        <ele>270.0</ele>
        <time>2019-12-21T10:20:49.349Z</time>
      </trkpt>
      <trkpt lat="41.25162667" lon="1.84015167">
        <ele>270.0</ele>
        <time>2019-12-21T10:20:50.349Z</time>
      </trkpt>
      <trkpt lat="41.251595" lon="1.84015333">
        <ele>270.0</ele>
        <time>2019-12-21T10:20:51.356Z</time>
      </trkpt>
      <trkpt lat="41.251595" lon="1.84015333">
        <ele>270.0</ele>
        <time>2019-12-21T10:20:52.336Z</time>
      </trkpt>
      <trkpt lat="41.25155667" lon="1.84014833">
        <ele>270.0</ele>
        <time>2019-12-21T10:20:53.351Z</time>
      </trkpt>
      <trkpt lat="41.25155667" lon="1.84014833">
        <ele>270.0</ele>
        <time>2019-12-21T10:20:54.354Z</time>
      </trkpt>
      <trkpt lat="41.25152667" lon="1.840155">
        <ele>270.0</ele>
        <time>2019-12-21T10:20:55.357Z</time>
      </trkpt>
      <trkpt lat="41.25152667" lon="1.840155">
        <ele>270.0</ele>
        <time>2019-12-21T10:20:56.347Z</time>
      </trkpt>
      <trkpt lat="41.25149" lon="1.840155">
        <ele>271.0</ele>
        <time>2019-12-21T10:20:57.355Z</time>
      </trkpt>
      <trkpt lat="41.25149" lon="1.840155">
        <ele>271.0</ele>
        <time>2019-12-21T10:20:58.336Z</time>
      </trkpt>
      <trkpt lat="41.251445" lon="1.840155">
        <ele>271.0</ele>
        <time>2019-12-21T10:20:59.351Z</time>
      </trkpt>
      <trkpt lat="41.251445" lon="1.840155">
        <ele>271.0</ele>
        <time>2019-12-21T10:21:00.355Z</time>
      </trkpt>
      <trkpt lat="41.25139167" lon="1.84015667">
        <ele>271.0</ele>
        <time>2019-12-21T10:21:01.363Z</time>
      </trkpt>
      <trkpt lat="41.25139167" lon="1.84015667">
        <ele>271.0</ele>
        <time>2019-12-21T10:21:02.354Z</time>
      </trkpt>
      <trkpt lat="41.251345" lon="1.84014667">
        <ele>270.0</ele>
        <time>2019-12-21T10:21:03.351Z</time>
      </trkpt>
      <trkpt lat="41.251345" lon="1.84014667">
        <ele>270.0</ele>
        <time>2019-12-21T10:21:04.366Z</time>
      </trkpt>
      <trkpt lat="41.25131667" lon="1.84014667">
        <ele>270.0</ele>
        <time>2019-12-21T10:21:05.372Z</time>
      </trkpt>
      <trkpt lat="41.25131667" lon="1.84014667">
        <ele>270.0</ele>
        <time>2019-12-21T10:21:06.355Z</time>
      </trkpt>
      <trkpt lat="41.25128" lon="1.84012833">
        <ele>270.0</ele>
        <time>2019-12-21T10:21:07.345Z</time>
      </trkpt>
      <trkpt lat="41.25128" lon="1.84012833">
        <ele>270.0</ele>
        <time>2019-12-21T10:21:08.335Z</time>
      </trkpt>
      <trkpt lat="41.25124667" lon="1.84012">
        <ele>271.0</ele>
        <time>2019-12-21T10:21:09.341Z</time>
      </trkpt>
      <trkpt lat="41.25124667" lon="1.84012">
        <ele>271.0</ele>
        <time>2019-12-21T10:21:10.367Z</time>
      </trkpt>
      <trkpt lat="41.251215" lon="1.84010833">
        <ele>270.0</ele>
        <time>2019-12-21T10:21:11.348Z</time>
      </trkpt>
      <trkpt lat="41.251215" lon="1.84010833">
        <ele>270.0</ele>
        <time>2019-12-21T10:21:12.340Z</time>
      </trkpt>
      <trkpt lat="41.25118667" lon="1.8401">
        <ele>270.0</ele>
        <time>2019-12-21T10:21:13.347Z</time>
      </trkpt>
      <trkpt lat="41.25116167" lon="1.84009">
        <ele>270.0</ele>
        <time>2019-12-21T10:21:14.377Z</time>
      </trkpt>
      <trkpt lat="41.25116167" lon="1.84009">
        <ele>270.0</ele>
        <time>2019-12-21T10:21:15.333Z</time>
      </trkpt>
      <trkpt lat="41.25113833" lon="1.84007">
        <ele>270.0</ele>
        <time>2019-12-21T10:21:16.342Z</time>
      </trkpt>
      <trkpt lat="41.25113833" lon="1.84007">
        <ele>270.0</ele>
        <time>2019-12-21T10:21:17.360Z</time>
      </trkpt>
      <trkpt lat="41.25111333" lon="1.840065">
        <ele>270.0</ele>
        <time>2019-12-21T10:21:18.345Z</time>
      </trkpt>
      <trkpt lat="41.25110167" lon="1.84006333">
        <ele>270.0</ele>
        <time>2019-12-21T10:21:19.334Z</time>
      </trkpt>
      <trkpt lat="41.25110167" lon="1.84006333">
        <ele>270.0</ele>
        <time>2019-12-21T10:21:20.355Z</time>
      </trkpt>
      <trkpt lat="41.25108" lon="1.84005833">
        <ele>270.0</ele>
        <time>2019-12-21T10:21:21.372Z</time>
      </trkpt>
      <trkpt lat="41.25108" lon="1.84005833">
        <ele>270.0</ele>
        <time>2019-12-21T10:21:22.354Z</time>
      </trkpt>
      <trkpt lat="41.25105333" lon="1.84005333">
        <ele>271.0</ele>
        <time>2019-12-21T10:21:23.361Z</time>
      </trkpt>
      <trkpt lat="41.25103333" lon="1.84005167">
        <ele>271.0</ele>
        <time>2019-12-21T10:21:24.342Z</time>
      </trkpt>
      <trkpt lat="41.25103333" lon="1.84005167">
        <ele>271.0</ele>
        <time>2019-12-21T10:21:25.371Z</time>
      </trkpt>
      <trkpt lat="41.251005" lon="1.84004667">
        <ele>270.0</ele>
        <time>2019-12-21T10:21:26.337Z</time>
      </trkpt>
      <trkpt lat="41.251005" lon="1.84004667">
        <ele>270.0</ele>
        <time>2019-12-21T10:21:27.358Z</time>
      </trkpt>
      <trkpt lat="41.25098167" lon="1.84004">
        <ele>271.0</ele>
        <time>2019-12-21T10:21:28.360Z</time>
      </trkpt>
      <trkpt lat="41.25098167" lon="1.84004">
        <ele>271.0</ele>
        <time>2019-12-21T10:21:29.333Z</time>
      </trkpt>
      <trkpt lat="41.25095167" lon="1.84004333">
        <ele>271.0</ele>
        <time>2019-12-21T10:21:30.340Z</time>
      </trkpt>
      <trkpt lat="41.25094" lon="1.84004333">
        <ele>271.0</ele>
        <time>2019-12-21T10:21:31.347Z</time>
      </trkpt>
      <trkpt lat="41.25094" lon="1.84004333">
        <ele>271.0</ele>
        <time>2019-12-21T10:21:32.367Z</time>
      </trkpt>
      <trkpt lat="41.25091667" lon="1.84003833">
        <ele>271.0</ele>
        <time>2019-12-21T10:21:33.333Z</time>
      </trkpt>
      <trkpt lat="41.25091667" lon="1.84003833">
        <ele>271.0</ele>
        <time>2019-12-21T10:21:34.354Z</time>
      </trkpt>
      <trkpt lat="41.2509" lon="1.84002833">
        <ele>271.0</ele>
        <time>2019-12-21T10:21:35.349Z</time>
      </trkpt>
      <trkpt lat="41.2509" lon="1.84002833">
        <ele>271.0</ele>
        <time>2019-12-21T10:21:36.336Z</time>
      </trkpt>
      <trkpt lat="41.25086" lon="1.84002333">
        <ele>271.0</ele>
        <time>2019-12-21T10:21:37.342Z</time>
      </trkpt>
      <trkpt lat="41.25086" lon="1.84002333">
        <ele>271.0</ele>
        <time>2019-12-21T10:21:38.359Z</time>
      </trkpt>
      <trkpt lat="41.25083167" lon="1.84002">
        <ele>271.0</ele>
        <time>2019-12-21T10:21:39.335Z</time>
      </trkpt>
      <trkpt lat="41.25083167" lon="1.84002">
        <ele>271.0</ele>
        <time>2019-12-21T10:21:40.343Z</time>
      </trkpt>
      <trkpt lat="41.2508" lon="1.84001667">
        <ele>271.0</ele>
        <time>2019-12-21T10:21:41.352Z</time>
      </trkpt>
      <trkpt lat="41.2508" lon="1.84001667">
        <ele>271.0</ele>
        <time>2019-12-21T10:21:42.372Z</time>
      </trkpt>
      <trkpt lat="41.25076" lon="1.84000833">
        <ele>271.0</ele>
        <time>2019-12-21T10:21:43.351Z</time>
      </trkpt>
      <trkpt lat="41.25076" lon="1.84000833">
        <ele>271.0</ele>
        <time>2019-12-21T10:21:44.347Z</time>
      </trkpt>
      <trkpt lat="41.25072167" lon="1.84">
        <ele>271.0</ele>
        <time>2019-12-21T10:21:45.353Z</time>
      </trkpt>
      <trkpt lat="41.25072167" lon="1.84">
        <ele>271.0</ele>
        <time>2019-12-21T10:21:46.372Z</time>
      </trkpt>
      <trkpt lat="41.25069" lon="1.83998167">
        <ele>271.0</ele>
        <time>2019-12-21T10:21:47.347Z</time>
      </trkpt>
      <trkpt lat="41.25069" lon="1.83998167">
        <ele>271.0</ele>
        <time>2019-12-21T10:21:48.354Z</time>
      </trkpt>
      <trkpt lat="41.25066" lon="1.83997">
        <ele>271.0</ele>
        <time>2019-12-21T10:21:49.361Z</time>
      </trkpt>
      <trkpt lat="41.25066" lon="1.83997">
        <ele>271.0</ele>
        <time>2019-12-21T10:21:50.345Z</time>
      </trkpt>
      <trkpt lat="41.250615" lon="1.83997">
        <ele>271.0</ele>
        <time>2019-12-21T10:21:51.335Z</time>
      </trkpt>
      <trkpt lat="41.250615" lon="1.83997">
        <ele>271.0</ele>
        <time>2019-12-21T10:21:52.340Z</time>
      </trkpt>
      <trkpt lat="41.25058" lon="1.83995667">
        <ele>271.0</ele>
        <time>2019-12-21T10:21:53.347Z</time>
      </trkpt>
      <trkpt lat="41.25058" lon="1.83995667">
        <ele>271.0</ele>
        <time>2019-12-21T10:21:54.334Z</time>
      </trkpt>
      <trkpt lat="41.25054167" lon="1.83994">
        <ele>271.0</ele>
        <time>2019-12-21T10:21:55.349Z</time>
      </trkpt>
      <trkpt lat="41.25054167" lon="1.83994">
        <ele>271.0</ele>
        <time>2019-12-21T10:21:56.370Z</time>
      </trkpt>
      <trkpt lat="41.25050333" lon="1.83993">
        <ele>272.0</ele>
        <time>2019-12-21T10:21:57.342Z</time>
      </trkpt>
      <trkpt lat="41.25050333" lon="1.83993">
        <ele>272.0</ele>
        <time>2019-12-21T10:21:58.364Z</time>
      </trkpt>
      <trkpt lat="41.25046167" lon="1.83991833">
        <ele>272.0</ele>
        <time>2019-12-21T10:21:59.333Z</time>
      </trkpt>
      <trkpt lat="41.25046167" lon="1.83991833">
        <ele>272.0</ele>
        <time>2019-12-21T10:22:00.358Z</time>
      </trkpt>
      <trkpt lat="41.250425" lon="1.83989167">
        <ele>272.0</ele>
        <time>2019-12-21T10:22:01.342Z</time>
      </trkpt>
      <trkpt lat="41.250425" lon="1.83989167">
        <ele>272.0</ele>
        <time>2019-12-21T10:22:02.356Z</time>
      </trkpt>
      <trkpt lat="41.25039833" lon="1.83985333">
        <ele>272.0</ele>
        <time>2019-12-21T10:22:03.362Z</time>
      </trkpt>
      <trkpt lat="41.25039833" lon="1.83985333">
        <ele>272.0</ele>
        <time>2019-12-21T10:22:04.370Z</time>
      </trkpt>
      <trkpt lat="41.25037167" lon="1.83982833">
        <ele>272.0</ele>
        <time>2019-12-21T10:22:05.348Z</time>
      </trkpt>
      <trkpt lat="41.25037167" lon="1.83982833">
        <ele>272.0</ele>
        <time>2019-12-21T10:22:06.346Z</time>
      </trkpt>
      <trkpt lat="41.25034167" lon="1.83980333">
        <ele>273.0</ele>
        <time>2019-12-21T10:22:07.355Z</time>
      </trkpt>
      <trkpt lat="41.25034167" lon="1.83980333">
        <ele>273.0</ele>
        <time>2019-12-21T10:22:08.334Z</time>
      </trkpt>
      <trkpt lat="41.25032167" lon="1.83977">
        <ele>274.0</ele>
        <time>2019-12-21T10:22:09.341Z</time>
      </trkpt>
      <trkpt lat="41.25032167" lon="1.83977">
        <ele>274.0</ele>
        <time>2019-12-21T10:22:10.359Z</time>
      </trkpt>
      <trkpt lat="41.250295" lon="1.83974167">
        <ele>274.0</ele>
        <time>2019-12-21T10:22:11.351Z</time>
      </trkpt>
      <trkpt lat="41.250295" lon="1.83974167">
        <ele>274.0</ele>
        <time>2019-12-21T10:22:12.357Z</time>
      </trkpt>
      <trkpt lat="41.25026167" lon="1.83971667">
        <ele>275.0</ele>
        <time>2019-12-21T10:22:13.363Z</time>
      </trkpt>
      <trkpt lat="41.25026167" lon="1.83971667">
        <ele>275.0</ele>
        <time>2019-12-21T10:22:14.359Z</time>
      </trkpt>
      <trkpt lat="41.25021167" lon="1.83971">
        <ele>275.0</ele>
        <time>2019-12-21T10:22:15.345Z</time>
      </trkpt>
      <trkpt lat="41.25021167" lon="1.83971">
        <ele>275.0</ele>
        <time>2019-12-21T10:22:16.355Z</time>
      </trkpt>
      <trkpt lat="41.25016667" lon="1.83969667">
        <ele>275.0</ele>
        <time>2019-12-21T10:22:17.361Z</time>
      </trkpt>
      <trkpt lat="41.25016667" lon="1.83969667">
        <ele>275.0</ele>
        <time>2019-12-21T10:22:18.354Z</time>
      </trkpt>
      <trkpt lat="41.250105" lon="1.83969333">
        <ele>275.0</ele>
        <time>2019-12-21T10:22:19.378Z</time>
      </trkpt>
      <trkpt lat="41.250105" lon="1.83969333">
        <ele>275.0</ele>
        <time>2019-12-21T10:22:20.341Z</time>
      </trkpt>
      <trkpt lat="41.25005167" lon="1.83969667">
        <ele>275.0</ele>
        <time>2019-12-21T10:22:21.353Z</time>
      </trkpt>
      <trkpt lat="41.25005167" lon="1.83969667">
        <ele>275.0</ele>
        <time>2019-12-21T10:22:22.333Z</time>
      </trkpt>
      <trkpt lat="41.25000667" lon="1.83969667">
        <ele>275.0</ele>
        <time>2019-12-21T10:22:23.350Z</time>
      </trkpt>
      <trkpt lat="41.25000667" lon="1.83969667">
        <ele>275.0</ele>
        <time>2019-12-21T10:22:24.356Z</time>
      </trkpt>
      <trkpt lat="41.24996" lon="1.83970167">
        <ele>275.0</ele>
        <time>2019-12-21T10:22:25.363Z</time>
      </trkpt>
      <trkpt lat="41.24996" lon="1.83970167">
        <ele>275.0</ele>
        <time>2019-12-21T10:22:26.343Z</time>
      </trkpt>
      <trkpt lat="41.24991333" lon="1.83969333">
        <ele>275.0</ele>
        <time>2019-12-21T10:22:27.349Z</time>
      </trkpt>
      <trkpt lat="41.24991333" lon="1.83969333">
        <ele>275.0</ele>
        <time>2019-12-21T10:22:28.359Z</time>
      </trkpt>
      <trkpt lat="41.24986833" lon="1.83968167">
        <ele>275.0</ele>
        <time>2019-12-21T10:22:29.365Z</time>
      </trkpt>
      <trkpt lat="41.24986833" lon="1.83968167">
        <ele>275.0</ele>
        <time>2019-12-21T10:22:30.335Z</time>
      </trkpt>
      <trkpt lat="41.24982167" lon="1.83966833">
        <ele>275.0</ele>
        <time>2019-12-21T10:22:31.352Z</time>
      </trkpt>
      <trkpt lat="41.24982167" lon="1.83966833">
        <ele>275.0</ele>
        <time>2019-12-21T10:22:32.343Z</time>
      </trkpt>
      <trkpt lat="41.24977167" lon="1.83965833">
        <ele>275.0</ele>
        <time>2019-12-21T10:22:33.352Z</time>
      </trkpt>
      <trkpt lat="41.24977167" lon="1.83965833">
        <ele>275.0</ele>
        <time>2019-12-21T10:22:34.366Z</time>
      </trkpt>
      <trkpt lat="41.249725" lon="1.83964833">
        <ele>275.0</ele>
        <time>2019-12-21T10:22:35.356Z</time>
      </trkpt>
      <trkpt lat="41.249725" lon="1.83964833">
        <ele>275.0</ele>
        <time>2019-12-21T10:22:36.372Z</time>
      </trkpt>
      <trkpt lat="41.24968167" lon="1.83963667">
        <ele>275.0</ele>
        <time>2019-12-21T10:22:37.338Z</time>
      </trkpt>
      <trkpt lat="41.24968167" lon="1.83963667">
        <ele>275.0</ele>
        <time>2019-12-21T10:22:38.357Z</time>
      </trkpt>
      <trkpt lat="41.249635" lon="1.83962333">
        <ele>275.0</ele>
        <time>2019-12-21T10:22:39.349Z</time>
      </trkpt>
      <trkpt lat="41.249635" lon="1.83962333">
        <ele>275.0</ele>
        <time>2019-12-21T10:22:40.337Z</time>
      </trkpt>
      <trkpt lat="41.24959167" lon="1.83960833">
        <ele>275.0</ele>
        <time>2019-12-21T10:22:41.348Z</time>
      </trkpt>
      <trkpt lat="41.24959167" lon="1.83960833">
        <ele>275.0</ele>
        <time>2019-12-21T10:22:42.366Z</time>
      </trkpt>
      <trkpt lat="41.24954667" lon="1.83959333">
        <ele>274.0</ele>
        <time>2019-12-21T10:22:43.351Z</time>
      </trkpt>
      <trkpt lat="41.24954667" lon="1.83959333">
        <ele>274.0</ele>
        <time>2019-12-21T10:22:44.349Z</time>
      </trkpt>
      <trkpt lat="41.24950667" lon="1.83958333">
        <ele>274.0</ele>
        <time>2019-12-21T10:22:45.358Z</time>
      </trkpt>
      <trkpt lat="41.24950667" lon="1.83958333">
        <ele>274.0</ele>
        <time>2019-12-21T10:22:46.338Z</time>
      </trkpt>
      <trkpt lat="41.24946" lon="1.83958167">
        <ele>274.0</ele>
        <time>2019-12-21T10:22:47.342Z</time>
      </trkpt>
      <trkpt lat="41.24946" lon="1.83958167">
        <ele>274.0</ele>
        <time>2019-12-21T10:22:48.359Z</time>
      </trkpt>
      <trkpt lat="41.24941167" lon="1.839585">
        <ele>274.0</ele>
        <time>2019-12-21T10:22:49.335Z</time>
      </trkpt>
      <trkpt lat="41.24941167" lon="1.839585">
        <ele>274.0</ele>
        <time>2019-12-21T10:22:50.350Z</time>
      </trkpt>
      <trkpt lat="41.249365" lon="1.8396">
        <ele>273.0</ele>
        <time>2019-12-21T10:22:51.352Z</time>
      </trkpt>
      <trkpt lat="41.249365" lon="1.8396">
        <ele>273.0</ele>
        <time>2019-12-21T10:22:52.355Z</time>
      </trkpt>
      <trkpt lat="41.24931667" lon="1.83961167">
        <ele>273.0</ele>
        <time>2019-12-21T10:22:53.361Z</time>
      </trkpt>
      <trkpt lat="41.24931667" lon="1.83961167">
        <ele>273.0</ele>
        <time>2019-12-21T10:22:54.359Z</time>
      </trkpt>
      <trkpt lat="41.24927" lon="1.83962167">
        <ele>273.0</ele>
        <time>2019-12-21T10:22:55.342Z</time>
      </trkpt>
      <trkpt lat="41.24927" lon="1.83962167">
        <ele>273.0</ele>
        <time>2019-12-21T10:22:56.369Z</time>
      </trkpt>
      <trkpt lat="41.24923" lon="1.83962667">
        <ele>273.0</ele>
        <time>2019-12-21T10:22:57.336Z</time>
      </trkpt>
      <trkpt lat="41.24921167" lon="1.83962167">
        <ele>273.0</ele>
        <time>2019-12-21T10:22:58.355Z</time>
      </trkpt>
      <trkpt lat="41.24921167" lon="1.83962167">
        <ele>273.0</ele>
        <time>2019-12-21T10:22:59.358Z</time>
      </trkpt>
      <trkpt lat="41.24917667" lon="1.83961833">
        <ele>272.0</ele>
        <time>2019-12-21T10:23:00.365Z</time>
      </trkpt>
      <trkpt lat="41.24915833" lon="1.83961333">
        <ele>272.0</ele>
        <time>2019-12-21T10:23:01.340Z</time>
      </trkpt>
      <trkpt lat="41.24913833" lon="1.83961333">
        <ele>272.0</ele>
        <time>2019-12-21T10:23:02.345Z</time>
      </trkpt>
      <trkpt lat="41.24913833" lon="1.83961333">
        <ele>272.0</ele>
        <time>2019-12-21T10:23:03.360Z</time>
      </trkpt>
      <trkpt lat="41.24909" lon="1.83961667">
        <ele>272.0</ele>
        <time>2019-12-21T10:23:04.333Z</time>
      </trkpt>
      <trkpt lat="41.24909" lon="1.83961667">
        <ele>272.0</ele>
        <time>2019-12-21T10:23:05.352Z</time>
      </trkpt>
      <trkpt lat="41.249045" lon="1.83962333">
        <ele>273.0</ele>
        <time>2019-12-21T10:23:06.372Z</time>
      </trkpt>
      <trkpt lat="41.249045" lon="1.83962333">
        <ele>273.0</ele>
        <time>2019-12-21T10:23:07.352Z</time>
      </trkpt>
      <trkpt lat="41.24899833" lon="1.83964167">
        <ele>273.0</ele>
        <time>2019-12-21T10:23:08.363Z</time>
      </trkpt>
      <trkpt lat="41.248975" lon="1.83965667">
        <ele>273.0</ele>
        <time>2019-12-21T10:23:09.362Z</time>
      </trkpt>
      <trkpt lat="41.248975" lon="1.83965667">
        <ele>273.0</ele>
        <time>2019-12-21T10:23:10.340Z</time>
      </trkpt>
      <trkpt lat="41.24891167" lon="1.83969">
        <ele>273.0</ele>
        <time>2019-12-21T10:23:11.347Z</time>
      </trkpt>
      <trkpt lat="41.24891167" lon="1.83969">
        <ele>273.0</ele>
        <time>2019-12-21T10:23:12.366Z</time>
      </trkpt>
      <trkpt lat="41.24883" lon="1.83973833">
        <ele>273.0</ele>
        <time>2019-12-21T10:23:13.356Z</time>
      </trkpt>
      <trkpt lat="41.24883" lon="1.83973833">
        <ele>273.0</ele>
        <time>2019-12-21T10:23:14.350Z</time>
      </trkpt>
      <trkpt lat="41.24874333" lon="1.83977833">
        <ele>273.0</ele>
        <time>2019-12-21T10:23:15.356Z</time>
      </trkpt>
      <trkpt lat="41.24874333" lon="1.83977833">
        <ele>273.0</ele>
        <time>2019-12-21T10:23:16.334Z</time>
      </trkpt>
      <trkpt lat="41.24864167" lon="1.83981333">
        <ele>273.0</ele>
        <time>2019-12-21T10:23:17.351Z</time>
      </trkpt>
      <trkpt lat="41.24857167" lon="1.83983833">
        <ele>273.0</ele>
        <time>2019-12-21T10:23:18.347Z</time>
      </trkpt>
      <trkpt lat="41.24850833" lon="1.83986">
        <ele>273.0</ele>
        <time>2019-12-21T10:23:19.365Z</time>
      </trkpt>
      <trkpt lat="41.24850833" lon="1.83986">
        <ele>273.0</ele>
        <time>2019-12-21T10:23:20.346Z</time>
      </trkpt>
      <trkpt lat="41.24839" lon="1.83991333">
        <ele>273.0</ele>
        <time>2019-12-21T10:23:21.363Z</time>
      </trkpt>
      <trkpt lat="41.24839" lon="1.83991333">
        <ele>273.0</ele>
        <time>2019-12-21T10:23:22.347Z</time>
      </trkpt>
      <trkpt lat="41.24824833" lon="1.83991667">
        <ele>272.0</ele>
        <time>2019-12-21T10:23:23.351Z</time>
      </trkpt>
      <trkpt lat="41.24824833" lon="1.83991667">
        <ele>272.0</ele>
        <time>2019-12-21T10:23:24.348Z</time>
      </trkpt>
      <trkpt lat="41.24809167" lon="1.83988">
        <ele>272.0</ele>
        <time>2019-12-21T10:23:25.354Z</time>
      </trkpt>
      <trkpt lat="41.24809167" lon="1.83988">
        <ele>272.0</ele>
        <time>2019-12-21T10:23:26.338Z</time>
      </trkpt>
      <trkpt lat="41.24793667" lon="1.83983833">
        <ele>271.0</ele>
        <time>2019-12-21T10:23:27.339Z</time>
      </trkpt>
      <trkpt lat="41.24793667" lon="1.83983833">
        <ele>271.0</ele>
        <time>2019-12-21T10:23:28.359Z</time>
      </trkpt>
      <trkpt lat="41.247795" lon="1.83984">
        <ele>270.0</ele>
        <time>2019-12-21T10:23:29.365Z</time>
      </trkpt>
      <trkpt lat="41.247795" lon="1.83984">
        <ele>270.0</ele>
        <time>2019-12-21T10:23:30.347Z</time>
      </trkpt>
      <trkpt lat="41.24765333" lon="1.83988833">
        <ele>270.0</ele>
        <time>2019-12-21T10:23:31.360Z</time>
      </trkpt>
      <trkpt lat="41.24765333" lon="1.83988833">
        <ele>270.0</ele>
        <time>2019-12-21T10:23:32.368Z</time>
      </trkpt>
      <trkpt lat="41.24749667" lon="1.83996167">
        <ele>269.0</ele>
        <time>2019-12-21T10:23:33.335Z</time>
      </trkpt>
      <trkpt lat="41.247425" lon="1.83998">
        <ele>269.0</ele>
        <time>2019-12-21T10:23:34.342Z</time>
      </trkpt>
      <trkpt lat="41.247425" lon="1.83998">
        <ele>269.0</ele>
        <time>2019-12-21T10:23:35.361Z</time>
      </trkpt>
      <trkpt lat="41.24725333" lon="1.839995">
        <ele>267.0</ele>
        <time>2019-12-21T10:23:36.367Z</time>
      </trkpt>
      <trkpt lat="41.24717" lon="1.83996833">
        <ele>266.0</ele>
        <time>2019-12-21T10:23:37.334Z</time>
      </trkpt>
      <trkpt lat="41.24717" lon="1.83996833">
        <ele>266.0</ele>
        <time>2019-12-21T10:23:38.339Z</time>
      </trkpt>
      <trkpt lat="41.24699667" lon="1.83994833">
        <ele>265.0</ele>
        <time>2019-12-21T10:23:39.345Z</time>
      </trkpt>
      <trkpt lat="41.24699667" lon="1.83994833">
        <ele>265.0</ele>
        <time>2019-12-21T10:23:40.363Z</time>
      </trkpt>
      <trkpt lat="41.246825" lon="1.83997667">
        <ele>263.0</ele>
        <time>2019-12-21T10:23:41.341Z</time>
      </trkpt>
      <trkpt lat="41.24673667" lon="1.839965">
        <ele>263.0</ele>
        <time>2019-12-21T10:23:42.369Z</time>
      </trkpt>
      <trkpt lat="41.246655" lon="1.83994667">
        <ele>262.0</ele>
        <time>2019-12-21T10:23:43.348Z</time>
      </trkpt>
      <trkpt lat="41.246655" lon="1.83994667">
        <ele>262.0</ele>
        <time>2019-12-21T10:23:44.368Z</time>
      </trkpt>
      <trkpt lat="41.24651833" lon="1.839885">
        <ele>261.0</ele>
        <time>2019-12-21T10:23:45.334Z</time>
      </trkpt>
      <trkpt lat="41.24651833" lon="1.839885">
        <ele>261.0</ele>
        <time>2019-12-21T10:23:46.355Z</time>
      </trkpt>
      <trkpt lat="41.246395" lon="1.83984333">
        <ele>260.0</ele>
        <time>2019-12-21T10:23:47.351Z</time>
      </trkpt>
      <trkpt lat="41.246395" lon="1.83984333">
        <ele>260.0</ele>
        <time>2019-12-21T10:23:48.350Z</time>
      </trkpt>
      <trkpt lat="41.24627667" lon="1.83981833">
        <ele>259.0</ele>
        <time>2019-12-21T10:23:49.365Z</time>
      </trkpt>
      <trkpt lat="41.24627667" lon="1.83981833">
        <ele>259.0</ele>
        <time>2019-12-21T10:23:50.348Z</time>
      </trkpt>
      <trkpt lat="41.246185" lon="1.83980167">
        <ele>258.0</ele>
        <time>2019-12-21T10:23:51.341Z</time>
      </trkpt>
      <trkpt lat="41.24615333" lon="1.83979833">
        <ele>258.0</ele>
        <time>2019-12-21T10:23:52.339Z</time>
      </trkpt>
      <trkpt lat="41.24615333" lon="1.83979833">
        <ele>258.0</ele>
        <time>2019-12-21T10:23:53.360Z</time>
      </trkpt>
      <trkpt lat="41.24610167" lon="1.83980833">
        <ele>257.0</ele>
        <time>2019-12-21T10:23:54.372Z</time>
      </trkpt>
      <trkpt lat="41.24610167" lon="1.83980833">
        <ele>257.0</ele>
        <time>2019-12-21T10:23:55.361Z</time>
      </trkpt>
      <trkpt lat="41.24606167" lon="1.83982667">
        <ele>257.0</ele>
        <time>2019-12-21T10:23:56.370Z</time>
      </trkpt>
      <trkpt lat="41.24604167" lon="1.83983833">
        <ele>257.0</ele>
        <time>2019-12-21T10:23:57.342Z</time>
      </trkpt>
      <trkpt lat="41.24604167" lon="1.83983833">
        <ele>257.0</ele>
        <time>2019-12-21T10:23:58.355Z</time>
      </trkpt>
      <trkpt lat="41.24600333" lon="1.83986333">
        <ele>257.0</ele>
        <time>2019-12-21T10:23:59.365Z</time>
      </trkpt>
      <trkpt lat="41.24600333" lon="1.83986333">
        <ele>257.0</ele>
        <time>2019-12-21T10:24:00.347Z</time>
      </trkpt>
      <trkpt lat="41.24595833" lon="1.83989833">
        <ele>257.0</ele>
        <time>2019-12-21T10:24:01.342Z</time>
      </trkpt>
      <trkpt lat="41.24595833" lon="1.83989833">
        <ele>257.0</ele>
        <time>2019-12-21T10:24:02.361Z</time>
      </trkpt>
      <trkpt lat="41.24590333" lon="1.839935">
        <ele>256.0</ele>
        <time>2019-12-21T10:24:03.368Z</time>
      </trkpt>
      <trkpt lat="41.24587333" lon="1.83995">
        <ele>256.0</ele>
        <time>2019-12-21T10:24:04.342Z</time>
      </trkpt>
      <trkpt lat="41.24587333" lon="1.83995">
        <ele>256.0</ele>
        <time>2019-12-21T10:24:05.360Z</time>
      </trkpt>
      <trkpt lat="41.24581667" lon="1.839975">
        <ele>256.0</ele>
        <time>2019-12-21T10:24:06.366Z</time>
      </trkpt>
      <trkpt lat="41.24578667" lon="1.839985">
        <ele>256.0</ele>
        <time>2019-12-21T10:24:07.350Z</time>
      </trkpt>
      <trkpt lat="41.24578667" lon="1.839985">
        <ele>256.0</ele>
        <time>2019-12-21T10:24:08.369Z</time>
      </trkpt>
      <trkpt lat="41.24571333" lon="1.84000333">
        <ele>256.0</ele>
        <time>2019-12-21T10:24:09.342Z</time>
      </trkpt>
      <trkpt lat="41.24571333" lon="1.84000333">
        <ele>256.0</ele>
        <time>2019-12-21T10:24:10.348Z</time>
      </trkpt>
      <trkpt lat="41.245635" lon="1.84000667">
        <ele>255.0</ele>
        <time>2019-12-21T10:24:11.354Z</time>
      </trkpt>
      <trkpt lat="41.24559167" lon="1.84000667">
        <ele>255.0</ele>
        <time>2019-12-21T10:24:12.349Z</time>
      </trkpt>
      <trkpt lat="41.24559167" lon="1.84000667">
        <ele>255.0</ele>
        <time>2019-12-21T10:24:13.338Z</time>
      </trkpt>
      <trkpt lat="41.24550833" lon="1.84000167">
        <ele>255.0</ele>
        <time>2019-12-21T10:24:14.353Z</time>
      </trkpt>
      <trkpt lat="41.24550833" lon="1.84000167">
        <ele>255.0</ele>
        <time>2019-12-21T10:24:15.371Z</time>
      </trkpt>
      <trkpt lat="41.24541667" lon="1.84001">
        <ele>253.0</ele>
        <time>2019-12-21T10:24:16.341Z</time>
      </trkpt>
      <trkpt lat="41.24536833" lon="1.84001333">
        <ele>253.0</ele>
        <time>2019-12-21T10:24:17.365Z</time>
      </trkpt>
      <trkpt lat="41.24536833" lon="1.84001333">
        <ele>253.0</ele>
        <time>2019-12-21T10:24:18.372Z</time>
      </trkpt>
      <trkpt lat="41.24526" lon="1.84001">
        <ele>252.0</ele>
        <time>2019-12-21T10:24:19.338Z</time>
      </trkpt>
      <trkpt lat="41.24526" lon="1.84001">
        <ele>252.0</ele>
        <time>2019-12-21T10:24:20.358Z</time>
      </trkpt>
      <trkpt lat="41.24514167" lon="1.83999167">
        <ele>251.0</ele>
        <time>2019-12-21T10:24:21.371Z</time>
      </trkpt>
      <trkpt lat="41.24514167" lon="1.83999167">
        <ele>251.0</ele>
        <time>2019-12-21T10:24:22.355Z</time>
      </trkpt>
      <trkpt lat="41.24501833" lon="1.83997833">
        <ele>249.0</ele>
        <time>2019-12-21T10:24:23.361Z</time>
      </trkpt>
      <trkpt lat="41.24501833" lon="1.83997833">
        <ele>249.0</ele>
        <time>2019-12-21T10:24:24.369Z</time>
      </trkpt>
      <trkpt lat="41.24490333" lon="1.83997667">
        <ele>248.0</ele>
        <time>2019-12-21T10:24:25.352Z</time>
      </trkpt>
      <trkpt lat="41.24490333" lon="1.83997667">
        <ele>248.0</ele>
        <time>2019-12-21T10:24:26.364Z</time>
      </trkpt>
      <trkpt lat="41.24480167" lon="1.84001167">
        <ele>247.0</ele>
        <time>2019-12-21T10:24:27.371Z</time>
      </trkpt>
      <trkpt lat="41.24475333" lon="1.84003167">
        <ele>246.0</ele>
        <time>2019-12-21T10:24:28.351Z</time>
      </trkpt>
      <trkpt lat="41.24475333" lon="1.84003167">
        <ele>246.0</ele>
        <time>2019-12-21T10:24:29.348Z</time>
      </trkpt>
      <trkpt lat="41.24465333" lon="1.84009833">
        <ele>244.0</ele>
        <time>2019-12-21T10:24:30.354Z</time>
      </trkpt>
      <trkpt lat="41.2446" lon="1.84013167">
        <ele>244.0</ele>
        <time>2019-12-21T10:24:31.338Z</time>
      </trkpt>
      <trkpt lat="41.2446" lon="1.84013167">
        <ele>244.0</ele>
        <time>2019-12-21T10:24:32.355Z</time>
      </trkpt>
      <trkpt lat="41.24449167" lon="1.84020833">
        <ele>242.0</ele>
        <time>2019-12-21T10:24:33.362Z</time>
      </trkpt>
      <trkpt lat="41.24449167" lon="1.84020833">
        <ele>242.0</ele>
        <time>2019-12-21T10:24:34.341Z</time>
      </trkpt>
      <trkpt lat="41.244385" lon="1.84027333">
        <ele>240.0</ele>
        <time>2019-12-21T10:24:35.355Z</time>
      </trkpt>
      <trkpt lat="41.244385" lon="1.84027333">
        <ele>240.0</ele>
        <time>2019-12-21T10:24:36.364Z</time>
      </trkpt>
      <trkpt lat="41.24432333" lon="1.84036333">
        <ele>238.0</ele>
        <time>2019-12-21T10:24:37.370Z</time>
      </trkpt>
      <trkpt lat="41.24429833" lon="1.84044">
        <ele>237.0</ele>
        <time>2019-12-21T10:24:38.348Z</time>
      </trkpt>
      <trkpt lat="41.24429833" lon="1.84044">
        <ele>237.0</ele>
        <time>2019-12-21T10:24:39.337Z</time>
      </trkpt>
      <trkpt lat="41.24423" lon="1.84061333">
        <ele>234.0</ele>
        <time>2019-12-21T10:24:40.349Z</time>
      </trkpt>
      <trkpt lat="41.24423" lon="1.84061333">
        <ele>234.0</ele>
        <time>2019-12-21T10:24:41.367Z</time>
      </trkpt>
      <trkpt lat="41.24416833" lon="1.84081167">
        <ele>233.0</ele>
        <time>2019-12-21T10:24:42.350Z</time>
      </trkpt>
      <trkpt lat="41.24416833" lon="1.84081167">
        <ele>233.0</ele>
        <time>2019-12-21T10:24:43.334Z</time>
      </trkpt>
      <trkpt lat="41.24413833" lon="1.84103167">
        <ele>231.0</ele>
        <time>2019-12-21T10:24:44.340Z</time>
      </trkpt>
      <trkpt lat="41.24413833" lon="1.84103167">
        <ele>231.0</ele>
        <time>2019-12-21T10:24:45.361Z</time>
      </trkpt>
      <trkpt lat="41.24410833" lon="1.841245">
        <ele>229.0</ele>
        <time>2019-12-21T10:24:46.367Z</time>
      </trkpt>
      <trkpt lat="41.24410833" lon="1.841245">
        <ele>229.0</ele>
        <time>2019-12-21T10:24:47.344Z</time>
      </trkpt>
      <trkpt lat="41.24407667" lon="1.841425">
        <ele>228.0</ele>
        <time>2019-12-21T10:24:48.353Z</time>
      </trkpt>
      <trkpt lat="41.244065" lon="1.8415">
        <ele>227.0</ele>
        <time>2019-12-21T10:24:49.346Z</time>
      </trkpt>
      <trkpt lat="41.244065" lon="1.8415">
        <ele>227.0</ele>
        <time>2019-12-21T10:24:50.366Z</time>
      </trkpt>
      <trkpt lat="41.24404167" lon="1.84163667">
        <ele>226.0</ele>
        <time>2019-12-21T10:24:51.334Z</time>
      </trkpt>
      <trkpt lat="41.24404167" lon="1.84163667">
        <ele>226.0</ele>
        <time>2019-12-21T10:24:52.355Z</time>
      </trkpt>
      <trkpt lat="41.24401167" lon="1.841735">
        <ele>225.0</ele>
        <time>2019-12-21T10:24:53.353Z</time>
      </trkpt>
      <trkpt lat="41.24401167" lon="1.841735">
        <ele>225.0</ele>
        <time>2019-12-21T10:24:54.354Z</time>
      </trkpt>
      <trkpt lat="41.24399833" lon="1.84181167">
        <ele>224.0</ele>
        <time>2019-12-21T10:24:55.364Z</time>
      </trkpt>
      <trkpt lat="41.24399833" lon="1.84181167">
        <ele>224.0</ele>
        <time>2019-12-21T10:24:56.348Z</time>
      </trkpt>
      <trkpt lat="41.24398667" lon="1.84186333">
        <ele>223.0</ele>
        <time>2019-12-21T10:24:57.355Z</time>
      </trkpt>
      <trkpt lat="41.24398667" lon="1.84186333">
        <ele>223.0</ele>
        <time>2019-12-21T10:24:58.334Z</time>
      </trkpt>
      <trkpt lat="41.24397333" lon="1.8419">
        <ele>223.0</ele>
        <time>2019-12-21T10:24:59.344Z</time>
      </trkpt>
      <trkpt lat="41.243965" lon="1.84191167">
        <ele>223.0</ele>
        <time>2019-12-21T10:25:00.368Z</time>
      </trkpt>
      <trkpt lat="41.243955" lon="1.84193333">
        <ele>222.0</ele>
        <time>2019-12-21T10:25:01.356Z</time>
      </trkpt>
      <trkpt lat="41.243955" lon="1.84193333">
        <ele>222.0</ele>
        <time>2019-12-21T10:25:02.337Z</time>
      </trkpt>
      <trkpt lat="41.24392833" lon="1.84198">
        <ele>222.0</ele>
        <time>2019-12-21T10:25:03.352Z</time>
      </trkpt>
      <trkpt lat="41.243915" lon="1.842">
        <ele>222.0</ele>
        <time>2019-12-21T10:25:04.356Z</time>
      </trkpt>
      <trkpt lat="41.243915" lon="1.842">
        <ele>222.0</ele>
        <time>2019-12-21T10:25:05.356Z</time>
      </trkpt>
      <trkpt lat="41.24389667" lon="1.84205333">
        <ele>222.0</ele>
        <time>2019-12-21T10:25:06.363Z</time>
      </trkpt>
      <trkpt lat="41.24389667" lon="1.84205333">
        <ele>222.0</ele>
        <time>2019-12-21T10:25:07.342Z</time>
      </trkpt>
      <trkpt lat="41.24388333" lon="1.84211333">
        <ele>222.0</ele>
        <time>2019-12-21T10:25:08.342Z</time>
      </trkpt>
      <trkpt lat="41.24388333" lon="1.84211333">
        <ele>222.0</ele>
        <time>2019-12-21T10:25:09.339Z</time>
      </trkpt>
      <trkpt lat="41.24387" lon="1.84218">
        <ele>222.0</ele>
        <time>2019-12-21T10:25:10.346Z</time>
      </trkpt>
      <trkpt lat="41.24386667" lon="1.842215">
        <ele>222.0</ele>
        <time>2019-12-21T10:25:11.342Z</time>
      </trkpt>
      <trkpt lat="41.24386667" lon="1.842215">
        <ele>222.0</ele>
        <time>2019-12-21T10:25:12.361Z</time>
      </trkpt>
      <trkpt lat="41.24385167" lon="1.84228">
        <ele>223.0</ele>
        <time>2019-12-21T10:25:13.367Z</time>
      </trkpt>
      <trkpt lat="41.24385" lon="1.84231333">
        <ele>223.0</ele>
        <time>2019-12-21T10:25:14.347Z</time>
      </trkpt>
      <trkpt lat="41.24385" lon="1.84231333">
        <ele>223.0</ele>
        <time>2019-12-21T10:25:15.365Z</time>
      </trkpt>
      <trkpt lat="41.24383833" lon="1.84237667">
        <ele>224.0</ele>
        <time>2019-12-21T10:25:16.333Z</time>
      </trkpt>
      <trkpt lat="41.24383833" lon="1.84237667">
        <ele>224.0</ele>
        <time>2019-12-21T10:25:17.352Z</time>
      </trkpt>
      <trkpt lat="41.24382667" lon="1.842445">
        <ele>224.0</ele>
        <time>2019-12-21T10:25:18.342Z</time>
      </trkpt>
      <trkpt lat="41.24382667" lon="1.842445">
        <ele>224.0</ele>
        <time>2019-12-21T10:25:19.337Z</time>
      </trkpt>
      <trkpt lat="41.24381" lon="1.84252833">
        <ele>225.0</ele>
        <time>2019-12-21T10:25:20.343Z</time>
      </trkpt>
      <trkpt lat="41.2438" lon="1.84256833">
        <ele>225.0</ele>
        <time>2019-12-21T10:25:21.340Z</time>
      </trkpt>
      <trkpt lat="41.2438" lon="1.84256833">
        <ele>225.0</ele>
        <time>2019-12-21T10:25:22.364Z</time>
      </trkpt>
      <trkpt lat="41.24379167" lon="1.84265333">
        <ele>226.0</ele>
        <time>2019-12-21T10:25:23.370Z</time>
      </trkpt>
      <trkpt lat="41.24379" lon="1.84269167">
        <ele>227.0</ele>
        <time>2019-12-21T10:25:24.351Z</time>
      </trkpt>
      <trkpt lat="41.24379" lon="1.84269167">
        <ele>227.0</ele>
        <time>2019-12-21T10:25:25.371Z</time>
      </trkpt>
      <trkpt lat="41.243775" lon="1.84277">
        <ele>227.0</ele>
        <time>2019-12-21T10:25:26.337Z</time>
      </trkpt>
      <trkpt lat="41.24376" lon="1.84280833">
        <ele>228.0</ele>
        <time>2019-12-21T10:25:27.333Z</time>
      </trkpt>
      <trkpt lat="41.24376" lon="1.84280833">
        <ele>228.0</ele>
        <time>2019-12-21T10:25:28.339Z</time>
      </trkpt>
      <trkpt lat="41.24372" lon="1.84288">
        <ele>229.0</ele>
        <time>2019-12-21T10:25:29.346Z</time>
      </trkpt>
      <trkpt lat="41.24372" lon="1.84288">
        <ele>229.0</ele>
        <time>2019-12-21T10:25:30.357Z</time>
      </trkpt>
      <trkpt lat="41.24368167" lon="1.84295167">
        <ele>231.0</ele>
        <time>2019-12-21T10:25:31.357Z</time>
      </trkpt>
      <trkpt lat="41.24368167" lon="1.84295167">
        <ele>231.0</ele>
        <time>2019-12-21T10:25:32.354Z</time>
      </trkpt>
      <trkpt lat="41.24365167" lon="1.84302667">
        <ele>233.0</ele>
        <time>2019-12-21T10:25:33.372Z</time>
      </trkpt>
      <trkpt lat="41.24365167" lon="1.84302667">
        <ele>233.0</ele>
        <time>2019-12-21T10:25:34.339Z</time>
      </trkpt>
      <trkpt lat="41.243625" lon="1.84309167">
        <ele>234.0</ele>
        <time>2019-12-21T10:25:35.346Z</time>
      </trkpt>
      <trkpt lat="41.243625" lon="1.84309167">
        <ele>234.0</ele>
        <time>2019-12-21T10:25:36.370Z</time>
      </trkpt>
      <trkpt lat="41.24359667" lon="1.84315167">
        <ele>235.0</ele>
        <time>2019-12-21T10:25:37.360Z</time>
      </trkpt>
      <trkpt lat="41.24359667" lon="1.84315167">
        <ele>235.0</ele>
        <time>2019-12-21T10:25:38.342Z</time>
      </trkpt>
      <trkpt lat="41.24356667" lon="1.84320667">
        <ele>237.0</ele>
        <time>2019-12-21T10:25:39.349Z</time>
      </trkpt>
      <trkpt lat="41.24356667" lon="1.84320667">
        <ele>237.0</ele>
        <time>2019-12-21T10:25:40.356Z</time>
      </trkpt>
      <trkpt lat="41.24352167" lon="1.84326">
        <ele>238.0</ele>
        <time>2019-12-21T10:25:41.356Z</time>
      </trkpt>
      <trkpt lat="41.24352167" lon="1.84326">
        <ele>238.0</ele>
        <time>2019-12-21T10:25:42.358Z</time>
      </trkpt>
      <trkpt lat="41.24349167" lon="1.84332">
        <ele>240.0</ele>
        <time>2019-12-21T10:25:43.364Z</time>
      </trkpt>
      <trkpt lat="41.24349167" lon="1.84332">
        <ele>240.0</ele>
        <time>2019-12-21T10:25:44.356Z</time>
      </trkpt>
      <trkpt lat="41.24344667" lon="1.84339333">
        <ele>241.0</ele>
        <time>2019-12-21T10:25:45.354Z</time>
      </trkpt>
      <trkpt lat="41.24344667" lon="1.84339333">
        <ele>241.0</ele>
        <time>2019-12-21T10:25:46.336Z</time>
      </trkpt>
      <trkpt lat="41.24339667" lon="1.84346667">
        <ele>242.0</ele>
        <time>2019-12-21T10:25:47.346Z</time>
      </trkpt>
      <trkpt lat="41.24339667" lon="1.84346667">
        <ele>242.0</ele>
        <time>2019-12-21T10:25:48.357Z</time>
      </trkpt>
      <trkpt lat="41.24335167" lon="1.84354667">
        <ele>243.0</ele>
        <time>2019-12-21T10:25:49.357Z</time>
      </trkpt>
      <trkpt lat="41.24335167" lon="1.84354667">
        <ele>243.0</ele>
        <time>2019-12-21T10:25:50.340Z</time>
      </trkpt>
      <trkpt lat="41.2433" lon="1.84362333">
        <ele>244.0</ele>
        <time>2019-12-21T10:25:51.350Z</time>
      </trkpt>
      <trkpt lat="41.2433" lon="1.84362333">
        <ele>244.0</ele>
        <time>2019-12-21T10:25:52.369Z</time>
      </trkpt>
      <trkpt lat="41.24324333" lon="1.84369667">
        <ele>245.0</ele>
        <time>2019-12-21T10:25:53.350Z</time>
      </trkpt>
      <trkpt lat="41.24324333" lon="1.84369667">
        <ele>245.0</ele>
        <time>2019-12-21T10:25:54.363Z</time>
      </trkpt>
      <trkpt lat="41.24320667" lon="1.84377">
        <ele>246.0</ele>
        <time>2019-12-21T10:25:55.337Z</time>
      </trkpt>
      <trkpt lat="41.24320667" lon="1.84377">
        <ele>246.0</ele>
        <time>2019-12-21T10:25:56.359Z</time>
      </trkpt>
      <trkpt lat="41.24316333" lon="1.84385167">
        <ele>247.0</ele>
        <time>2019-12-21T10:25:57.365Z</time>
      </trkpt>
      <trkpt lat="41.24316333" lon="1.84385167">
        <ele>247.0</ele>
        <time>2019-12-21T10:25:58.344Z</time>
      </trkpt>
      <trkpt lat="41.243125" lon="1.84392167">
        <ele>248.0</ele>
        <time>2019-12-21T10:25:59.348Z</time>
      </trkpt>
      <trkpt lat="41.243125" lon="1.84392167">
        <ele>248.0</ele>
        <time>2019-12-21T10:26:00.335Z</time>
      </trkpt>
      <trkpt lat="41.24307167" lon="1.843975">
        <ele>249.0</ele>
        <time>2019-12-21T10:26:01.342Z</time>
      </trkpt>
      <trkpt lat="41.24307167" lon="1.843975">
        <ele>249.0</ele>
        <time>2019-12-21T10:26:02.360Z</time>
      </trkpt>
      <trkpt lat="41.24302167" lon="1.84402167">
        <ele>251.0</ele>
        <time>2019-12-21T10:26:03.341Z</time>
      </trkpt>
      <trkpt lat="41.24302167" lon="1.84402167">
        <ele>251.0</ele>
        <time>2019-12-21T10:26:04.361Z</time>
      </trkpt>
      <trkpt lat="41.24297" lon="1.84407">
        <ele>252.0</ele>
        <time>2019-12-21T10:26:05.367Z</time>
      </trkpt>
      <trkpt lat="41.24297" lon="1.84407">
        <ele>252.0</ele>
        <time>2019-12-21T10:26:06.348Z</time>
      </trkpt>
      <trkpt lat="41.24293" lon="1.84412667">
        <ele>253.0</ele>
        <time>2019-12-21T10:26:07.372Z</time>
      </trkpt>
      <trkpt lat="41.24293" lon="1.84412667">
        <ele>253.0</ele>
        <time>2019-12-21T10:26:08.353Z</time>
      </trkpt>
      <trkpt lat="41.24291" lon="1.844175">
        <ele>253.0</ele>
        <time>2019-12-21T10:26:09.359Z</time>
      </trkpt>
      <trkpt lat="41.24291" lon="1.844175">
        <ele>253.0</ele>
        <time>2019-12-21T10:26:10.339Z</time>
      </trkpt>
      <trkpt lat="41.24288833" lon="1.84422">
        <ele>253.0</ele>
        <time>2019-12-21T10:26:11.352Z</time>
      </trkpt>
      <trkpt lat="41.24287" lon="1.84424333">
        <ele>253.0</ele>
        <time>2019-12-21T10:26:12.338Z</time>
      </trkpt>
      <trkpt lat="41.24285333" lon="1.84426167">
        <ele>254.0</ele>
        <time>2019-12-21T10:26:13.358Z</time>
      </trkpt>
      <trkpt lat="41.24285333" lon="1.84426167">
        <ele>254.0</ele>
        <time>2019-12-21T10:26:14.337Z</time>
      </trkpt>
      <trkpt lat="41.24282667" lon="1.84430667">
        <ele>254.0</ele>
        <time>2019-12-21T10:26:15.355Z</time>
      </trkpt>
      <trkpt lat="41.24282667" lon="1.84430667">
        <ele>254.0</ele>
        <time>2019-12-21T10:26:16.334Z</time>
      </trkpt>
      <trkpt lat="41.24279" lon="1.84435167">
        <ele>254.0</ele>
        <time>2019-12-21T10:26:17.349Z</time>
      </trkpt>
      <trkpt lat="41.24279" lon="1.84435167">
        <ele>254.0</ele>
        <time>2019-12-21T10:26:18.342Z</time>
      </trkpt>
      <trkpt lat="41.24276" lon="1.84439667">
        <ele>254.0</ele>
        <time>2019-12-21T10:26:19.348Z</time>
      </trkpt>
      <trkpt lat="41.24276" lon="1.84439667">
        <ele>254.0</ele>
        <time>2019-12-21T10:26:20.360Z</time>
      </trkpt>
      <trkpt lat="41.24273333" lon="1.84442833">
        <ele>254.0</ele>
        <time>2019-12-21T10:26:21.351Z</time>
      </trkpt>
      <trkpt lat="41.24273333" lon="1.84442833">
        <ele>254.0</ele>
        <time>2019-12-21T10:26:22.339Z</time>
      </trkpt>
      <trkpt lat="41.242705" lon="1.844465">
        <ele>254.0</ele>
        <time>2019-12-21T10:26:23.346Z</time>
      </trkpt>
      <trkpt lat="41.24268667" lon="1.844485">
        <ele>254.0</ele>
        <time>2019-12-21T10:26:24.351Z</time>
      </trkpt>
      <trkpt lat="41.24268667" lon="1.844485">
        <ele>254.0</ele>
        <time>2019-12-21T10:26:25.334Z</time>
      </trkpt>
      <trkpt lat="41.24264167" lon="1.84452333">
        <ele>254.0</ele>
        <time>2019-12-21T10:26:26.360Z</time>
      </trkpt>
      <trkpt lat="41.24264167" lon="1.84452333">
        <ele>254.0</ele>
        <time>2019-12-21T10:26:27.340Z</time>
      </trkpt>
      <trkpt lat="41.24261" lon="1.84456667">
        <ele>255.0</ele>
        <time>2019-12-21T10:26:28.359Z</time>
      </trkpt>
      <trkpt lat="41.24261" lon="1.84456667">
        <ele>255.0</ele>
        <time>2019-12-21T10:26:29.368Z</time>
      </trkpt>
      <trkpt lat="41.24257167" lon="1.84461667">
        <ele>254.0</ele>
        <time>2019-12-21T10:26:30.334Z</time>
      </trkpt>
      <trkpt lat="41.24256" lon="1.84465167">
        <ele>254.0</ele>
        <time>2019-12-21T10:26:31.338Z</time>
      </trkpt>
      <trkpt lat="41.24256" lon="1.84465167">
        <ele>254.0</ele>
        <time>2019-12-21T10:26:32.353Z</time>
      </trkpt>
      <trkpt lat="41.24255833" lon="1.84475667">
        <ele>253.0</ele>
        <time>2019-12-21T10:26:33.360Z</time>
      </trkpt>
      <trkpt lat="41.24255833" lon="1.84475667">
        <ele>253.0</ele>
        <time>2019-12-21T10:26:34.356Z</time>
      </trkpt>
      <trkpt lat="41.24256667" lon="1.84488">
        <ele>252.0</ele>
        <time>2019-12-21T10:26:35.356Z</time>
      </trkpt>
      <trkpt lat="41.24256667" lon="1.84488">
        <ele>252.0</ele>
        <time>2019-12-21T10:26:36.353Z</time>
      </trkpt>
      <trkpt lat="41.24258167" lon="1.84501">
        <ele>251.0</ele>
        <time>2019-12-21T10:26:37.361Z</time>
      </trkpt>
      <trkpt lat="41.24258167" lon="1.84501">
        <ele>251.0</ele>
        <time>2019-12-21T10:26:38.339Z</time>
      </trkpt>
      <trkpt lat="41.242605" lon="1.84514">
        <ele>249.0</ele>
        <time>2019-12-21T10:26:39.342Z</time>
      </trkpt>
      <trkpt lat="41.24261333" lon="1.84521">
        <ele>249.0</ele>
        <time>2019-12-21T10:26:40.343Z</time>
      </trkpt>
      <trkpt lat="41.24261333" lon="1.84521">
        <ele>249.0</ele>
        <time>2019-12-21T10:26:41.362Z</time>
      </trkpt>
      <trkpt lat="41.24263167" lon="1.845355">
        <ele>247.0</ele>
        <time>2019-12-21T10:26:42.372Z</time>
      </trkpt>
      <trkpt lat="41.24263667" lon="1.84544167">
        <ele>246.0</ele>
        <time>2019-12-21T10:26:43.371Z</time>
      </trkpt>
      <trkpt lat="41.24263667" lon="1.84544167">
        <ele>246.0</ele>
        <time>2019-12-21T10:26:44.349Z</time>
      </trkpt>
      <trkpt lat="41.24262333" lon="1.84561">
        <ele>246.0</ele>
        <time>2019-12-21T10:26:45.381Z</time>
      </trkpt>
      <trkpt lat="41.24262333" lon="1.84561">
        <ele>246.0</ele>
        <time>2019-12-21T10:26:46.372Z</time>
      </trkpt>
      <trkpt lat="41.24258" lon="1.84578">
        <ele>244.0</ele>
        <time>2019-12-21T10:26:47.340Z</time>
      </trkpt>
      <trkpt lat="41.24258" lon="1.84578">
        <ele>244.0</ele>
        <time>2019-12-21T10:26:48.358Z</time>
      </trkpt>
      <trkpt lat="41.24253833" lon="1.84595667">
        <ele>244.0</ele>
        <time>2019-12-21T10:26:49.352Z</time>
      </trkpt>
      <trkpt lat="41.24253833" lon="1.84595667">
        <ele>244.0</ele>
        <time>2019-12-21T10:26:50.357Z</time>
      </trkpt>
      <trkpt lat="41.24251167" lon="1.84612833">
        <ele>243.0</ele>
        <time>2019-12-21T10:26:51.364Z</time>
      </trkpt>
      <trkpt lat="41.24251167" lon="1.84612833">
        <ele>243.0</ele>
        <time>2019-12-21T10:26:52.368Z</time>
      </trkpt>
      <trkpt lat="41.24249" lon="1.8463">
        <ele>241.0</ele>
        <time>2019-12-21T10:26:53.342Z</time>
      </trkpt>
      <trkpt lat="41.24249" lon="1.8463">
        <ele>241.0</ele>
        <time>2019-12-21T10:26:54.348Z</time>
      </trkpt>
      <trkpt lat="41.24244333" lon="1.84646667">
        <ele>239.0</ele>
        <time>2019-12-21T10:26:55.358Z</time>
      </trkpt>
      <trkpt lat="41.24244333" lon="1.84646667">
        <ele>239.0</ele>
        <time>2019-12-21T10:26:56.339Z</time>
      </trkpt>
      <trkpt lat="41.242375" lon="1.8466">
        <ele>236.0</ele>
        <time>2019-12-21T10:26:57.340Z</time>
      </trkpt>
      <trkpt lat="41.242375" lon="1.8466">
        <ele>236.0</ele>
        <time>2019-12-21T10:26:58.369Z</time>
      </trkpt>
      <trkpt lat="41.24227833" lon="1.84673667">
        <ele>233.0</ele>
        <time>2019-12-21T10:26:59.343Z</time>
      </trkpt>
      <trkpt lat="41.24227833" lon="1.84673667">
        <ele>233.0</ele>
        <time>2019-12-21T10:27:00.363Z</time>
      </trkpt>
      <trkpt lat="41.24216667" lon="1.84689333">
        <ele>230.0</ele>
        <time>2019-12-21T10:27:01.347Z</time>
      </trkpt>
      <trkpt lat="41.24216667" lon="1.84689333">
        <ele>230.0</ele>
        <time>2019-12-21T10:27:02.355Z</time>
      </trkpt>
      <trkpt lat="41.24202667" lon="1.84706">
        <ele>227.0</ele>
        <time>2019-12-21T10:27:03.361Z</time>
      </trkpt>
      <trkpt lat="41.24202667" lon="1.84706">
        <ele>227.0</ele>
        <time>2019-12-21T10:27:04.341Z</time>
      </trkpt>
      <trkpt lat="41.24185667" lon="1.84720167">
        <ele>224.0</ele>
        <time>2019-12-21T10:27:05.369Z</time>
      </trkpt>
      <trkpt lat="41.24185667" lon="1.84720167">
        <ele>224.0</ele>
        <time>2019-12-21T10:27:06.355Z</time>
      </trkpt>
      <trkpt lat="41.241665" lon="1.847335">
        <ele>221.0</ele>
        <time>2019-12-21T10:27:07.362Z</time>
      </trkpt>
      <trkpt lat="41.241665" lon="1.847335">
        <ele>221.0</ele>
        <time>2019-12-21T10:27:08.340Z</time>
      </trkpt>
      <trkpt lat="41.241485" lon="1.84746333">
        <ele>219.0</ele>
        <time>2019-12-21T10:27:09.357Z</time>
      </trkpt>
      <trkpt lat="41.241485" lon="1.84746333">
        <ele>219.0</ele>
        <time>2019-12-21T10:27:10.336Z</time>
      </trkpt>
      <trkpt lat="41.24141" lon="1.847555">
        <ele>217.0</ele>
        <time>2019-12-21T10:27:11.342Z</time>
      </trkpt>
      <trkpt lat="41.24141" lon="1.847555">
        <ele>217.0</ele>
        <time>2019-12-21T10:27:12.359Z</time>
      </trkpt>
      <trkpt lat="41.24139333" lon="1.84759833">
        <ele>215.0</ele>
        <time>2019-12-21T10:27:13.350Z</time>
      </trkpt>
      <trkpt lat="41.24139333" lon="1.84759833">
        <ele>215.0</ele>
        <time>2019-12-21T10:27:14.369Z</time>
      </trkpt>
      <trkpt lat="41.24140167" lon="1.847605">
        <ele>214.0</ele>
        <time>2019-12-21T10:27:15.335Z</time>
      </trkpt>
      <trkpt lat="41.24140167" lon="1.847605">
        <ele>214.0</ele>
        <time>2019-12-21T10:27:16.359Z</time>
      </trkpt>
      <trkpt lat="41.24140833" lon="1.84761167">
        <ele>213.0</ele>
        <time>2019-12-21T10:27:17.360Z</time>
      </trkpt>
      <trkpt lat="41.24140833" lon="1.84761167">
        <ele>213.0</ele>
        <time>2019-12-21T10:27:18.356Z</time>
      </trkpt>
      <trkpt lat="41.24139" lon="1.84767833">
        <ele>211.0</ele>
        <time>2019-12-21T10:27:19.338Z</time>
      </trkpt>
      <trkpt lat="41.24136333" lon="1.84772333">
        <ele>210.0</ele>
        <time>2019-12-21T10:27:20.361Z</time>
      </trkpt>
      <trkpt lat="41.24136333" lon="1.84772333">
        <ele>210.0</ele>
        <time>2019-12-21T10:27:21.355Z</time>
      </trkpt>
      <trkpt lat="41.24126" lon="1.84782333">
        <ele>208.0</ele>
        <time>2019-12-21T10:27:22.337Z</time>
      </trkpt>
      <trkpt lat="41.24126" lon="1.84782333">
        <ele>208.0</ele>
        <time>2019-12-21T10:27:23.334Z</time>
      </trkpt>
      <trkpt lat="41.241105" lon="1.84793">
        <ele>206.0</ele>
        <time>2019-12-21T10:27:24.361Z</time>
      </trkpt>
      <trkpt lat="41.24102333" lon="1.847985">
        <ele>205.0</ele>
        <time>2019-12-21T10:27:25.349Z</time>
      </trkpt>
      <trkpt lat="41.24102333" lon="1.847985">
        <ele>205.0</ele>
        <time>2019-12-21T10:27:26.371Z</time>
      </trkpt>
      <trkpt lat="41.24086833" lon="1.84811667">
        <ele>203.0</ele>
        <time>2019-12-21T10:27:27.340Z</time>
      </trkpt>
      <trkpt lat="41.24086833" lon="1.84811667">
        <ele>203.0</ele>
        <time>2019-12-21T10:27:28.354Z</time>
      </trkpt>
      <trkpt lat="41.24077167" lon="1.84821167">
        <ele>201.0</ele>
        <time>2019-12-21T10:27:29.361Z</time>
      </trkpt>
      <trkpt lat="41.24077167" lon="1.84821167">
        <ele>201.0</ele>
        <time>2019-12-21T10:27:30.341Z</time>
      </trkpt>
      <trkpt lat="41.24073667" lon="1.84831167">
        <ele>198.0</ele>
        <time>2019-12-21T10:27:31.349Z</time>
      </trkpt>
      <trkpt lat="41.24073667" lon="1.84831167">
        <ele>198.0</ele>
        <time>2019-12-21T10:27:32.369Z</time>
      </trkpt>
      <trkpt lat="41.24071" lon="1.84842167">
        <ele>196.0</ele>
        <time>2019-12-21T10:27:33.351Z</time>
      </trkpt>
      <trkpt lat="41.240695" lon="1.84849">
        <ele>195.0</ele>
        <time>2019-12-21T10:27:34.352Z</time>
      </trkpt>
      <trkpt lat="41.240695" lon="1.84849">
        <ele>195.0</ele>
        <time>2019-12-21T10:27:35.371Z</time>
      </trkpt>
      <trkpt lat="41.24067833" lon="1.84867667">
        <ele>193.0</ele>
        <time>2019-12-21T10:27:36.352Z</time>
      </trkpt>
      <trkpt lat="41.24066833" lon="1.84879">
        <ele>192.0</ele>
        <time>2019-12-21T10:27:37.349Z</time>
      </trkpt>
      <trkpt lat="41.24066833" lon="1.84879">
        <ele>192.0</ele>
        <time>2019-12-21T10:27:38.368Z</time>
      </trkpt>
      <trkpt lat="41.24064333" lon="1.849025">
        <ele>190.0</ele>
        <time>2019-12-21T10:27:39.376Z</time>
      </trkpt>
      <trkpt lat="41.24062667" lon="1.849135">
        <ele>190.0</ele>
        <time>2019-12-21T10:27:40.362Z</time>
      </trkpt>
      <trkpt lat="41.24062667" lon="1.849135">
        <ele>190.0</ele>
        <time>2019-12-21T10:27:41.339Z</time>
      </trkpt>
      <trkpt lat="41.24057667" lon="1.84933">
        <ele>188.0</ele>
        <time>2019-12-21T10:27:42.353Z</time>
      </trkpt>
      <trkpt lat="41.24053833" lon="1.849425">
        <ele>188.0</ele>
        <time>2019-12-21T10:27:43.361Z</time>
      </trkpt>
      <trkpt lat="41.24053833" lon="1.849425">
        <ele>188.0</ele>
        <time>2019-12-21T10:27:44.338Z</time>
      </trkpt>
      <trkpt lat="41.24045333" lon="1.84960333">
        <ele>186.0</ele>
        <time>2019-12-21T10:27:45.349Z</time>
      </trkpt>
      <trkpt lat="41.24045333" lon="1.84960333">
        <ele>186.0</ele>
        <time>2019-12-21T10:27:46.372Z</time>
      </trkpt>
      <trkpt lat="41.240385" lon="1.84972167">
        <ele>185.0</ele>
        <time>2019-12-21T10:27:47.338Z</time>
      </trkpt>
      <trkpt lat="41.240385" lon="1.84972167">
        <ele>185.0</ele>
        <time>2019-12-21T10:27:48.358Z</time>
      </trkpt>
      <trkpt lat="41.24031833" lon="1.84977667">
        <ele>185.0</ele>
        <time>2019-12-21T10:27:49.340Z</time>
      </trkpt>
      <trkpt lat="41.24031833" lon="1.84977667">
        <ele>185.0</ele>
        <time>2019-12-21T10:27:50.358Z</time>
      </trkpt>
      <trkpt lat="41.24026" lon="1.84982167">
        <ele>184.0</ele>
        <time>2019-12-21T10:27:51.364Z</time>
      </trkpt>
      <trkpt lat="41.240235" lon="1.84984667">
        <ele>184.0</ele>
        <time>2019-12-21T10:27:52.349Z</time>
      </trkpt>
      <trkpt lat="41.240235" lon="1.84984667">
        <ele>184.0</ele>
        <time>2019-12-21T10:27:53.367Z</time>
      </trkpt>
      <trkpt lat="41.240195" lon="1.84988667">
        <ele>183.0</ele>
        <time>2019-12-21T10:27:54.349Z</time>
      </trkpt>
      <trkpt lat="41.24017667" lon="1.84990667">
        <ele>183.0</ele>
        <time>2019-12-21T10:27:55.364Z</time>
      </trkpt>
      <trkpt lat="41.24017667" lon="1.84990667">
        <ele>183.0</ele>
        <time>2019-12-21T10:27:56.344Z</time>
      </trkpt>
      <trkpt lat="41.24014" lon="1.84994">
        <ele>183.0</ele>
        <time>2019-12-21T10:27:57.351Z</time>
      </trkpt>
      <trkpt lat="41.24014" lon="1.84994">
        <ele>183.0</ele>
        <time>2019-12-21T10:27:58.367Z</time>
      </trkpt>
      <trkpt lat="41.24010667" lon="1.84997167">
        <ele>183.0</ele>
        <time>2019-12-21T10:27:59.333Z</time>
      </trkpt>
      <trkpt lat="41.24010667" lon="1.84997167">
        <ele>183.0</ele>
        <time>2019-12-21T10:28:00.356Z</time>
      </trkpt>
      <trkpt lat="41.24007833" lon="1.85000167">
        <ele>183.0</ele>
        <time>2019-12-21T10:28:01.357Z</time>
      </trkpt>
      <trkpt lat="41.24007833" lon="1.85000167">
        <ele>183.0</ele>
        <time>2019-12-21T10:28:02.335Z</time>
      </trkpt>
      <trkpt lat="41.240055" lon="1.85002167">
        <ele>183.0</ele>
        <time>2019-12-21T10:28:03.342Z</time>
      </trkpt>
      <trkpt lat="41.24004333" lon="1.85003">
        <ele>183.0</ele>
        <time>2019-12-21T10:28:04.348Z</time>
      </trkpt>
      <trkpt lat="41.24004333" lon="1.85003">
        <ele>183.0</ele>
        <time>2019-12-21T10:28:05.351Z</time>
      </trkpt>
      <trkpt lat="41.240015" lon="1.85004167">
        <ele>184.0</ele>
        <time>2019-12-21T10:28:06.363Z</time>
      </trkpt>
      <trkpt lat="41.24000167" lon="1.85005">
        <ele>184.0</ele>
        <time>2019-12-21T10:28:07.352Z</time>
      </trkpt>
      <trkpt lat="41.24000167" lon="1.85005">
        <ele>184.0</ele>
        <time>2019-12-21T10:28:08.358Z</time>
      </trkpt>
      <trkpt lat="41.23998" lon="1.85008333">
        <ele>184.0</ele>
        <time>2019-12-21T10:28:09.364Z</time>
      </trkpt>
      <trkpt lat="41.23998" lon="1.85008333">
        <ele>184.0</ele>
        <time>2019-12-21T10:28:10.349Z</time>
      </trkpt>
      <trkpt lat="41.23996" lon="1.85011333">
        <ele>184.0</ele>
        <time>2019-12-21T10:28:11.371Z</time>
      </trkpt>
      <trkpt lat="41.23996" lon="1.85011333">
        <ele>184.0</ele>
        <time>2019-12-21T10:28:12.357Z</time>
      </trkpt>
      <trkpt lat="41.23994333" lon="1.85013667">
        <ele>184.0</ele>
        <time>2019-12-21T10:28:13.345Z</time>
      </trkpt>
      <trkpt lat="41.23994333" lon="1.85013667">
        <ele>184.0</ele>
        <time>2019-12-21T10:28:14.357Z</time>
      </trkpt>
      <trkpt lat="41.23992333" lon="1.85016167">
        <ele>185.0</ele>
        <time>2019-12-21T10:28:15.342Z</time>
      </trkpt>
      <trkpt lat="41.239915" lon="1.850175">
        <ele>185.0</ele>
        <time>2019-12-21T10:28:16.342Z</time>
      </trkpt>
      <trkpt lat="41.239915" lon="1.850175">
        <ele>185.0</ele>
        <time>2019-12-21T10:28:17.362Z</time>
      </trkpt>
      <trkpt lat="41.23989833" lon="1.8502">
        <ele>185.0</ele>
        <time>2019-12-21T10:28:18.341Z</time>
      </trkpt>
      <trkpt lat="41.239895" lon="1.85021167">
        <ele>185.0</ele>
        <time>2019-12-21T10:28:19.357Z</time>
      </trkpt>
      <trkpt lat="41.239895" lon="1.85021167">
        <ele>185.0</ele>
        <time>2019-12-21T10:28:20.336Z</time>
      </trkpt>
      <trkpt lat="41.239875" lon="1.85024167">
        <ele>186.0</ele>
        <time>2019-12-21T10:28:21.361Z</time>
      </trkpt>
      <trkpt lat="41.239875" lon="1.85024167">
        <ele>186.0</ele>
        <time>2019-12-21T10:28:22.346Z</time>
      </trkpt>
      <trkpt lat="41.23985333" lon="1.85027167">
        <ele>186.0</ele>
        <time>2019-12-21T10:28:23.362Z</time>
      </trkpt>
      <trkpt lat="41.23985333" lon="1.85027167">
        <ele>186.0</ele>
        <time>2019-12-21T10:28:24.333Z</time>
      </trkpt>
      <trkpt lat="41.23983667" lon="1.85029833">
        <ele>187.0</ele>
        <time>2019-12-21T10:28:25.351Z</time>
      </trkpt>
      <trkpt lat="41.23983667" lon="1.85029833">
        <ele>187.0</ele>
        <time>2019-12-21T10:28:26.354Z</time>
      </trkpt>
      <trkpt lat="41.23982333" lon="1.85032667">
        <ele>187.0</ele>
        <time>2019-12-21T10:28:27.360Z</time>
      </trkpt>
      <trkpt lat="41.23982333" lon="1.85032667">
        <ele>187.0</ele>
        <time>2019-12-21T10:28:28.340Z</time>
      </trkpt>
      <trkpt lat="41.23981" lon="1.85035667">
        <ele>188.0</ele>
        <time>2019-12-21T10:28:29.350Z</time>
      </trkpt>
      <trkpt lat="41.23981" lon="1.85035667">
        <ele>188.0</ele>
        <time>2019-12-21T10:28:30.355Z</time>
      </trkpt>
      <trkpt lat="41.239795" lon="1.85038833">
        <ele>189.0</ele>
        <time>2019-12-21T10:28:31.363Z</time>
      </trkpt>
      <trkpt lat="41.239795" lon="1.85038833">
        <ele>189.0</ele>
        <time>2019-12-21T10:28:32.359Z</time>
      </trkpt>
      <trkpt lat="41.23977833" lon="1.850415">
        <ele>190.0</ele>
        <time>2019-12-21T10:28:33.335Z</time>
      </trkpt>
      <trkpt lat="41.23977833" lon="1.850415">
        <ele>190.0</ele>
        <time>2019-12-21T10:28:34.341Z</time>
      </trkpt>
      <trkpt lat="41.23976" lon="1.85044333">
        <ele>190.0</ele>
        <time>2019-12-21T10:28:35.348Z</time>
      </trkpt>
      <trkpt lat="41.23976" lon="1.85044333">
        <ele>190.0</ele>
        <time>2019-12-21T10:28:36.372Z</time>
      </trkpt>
      <trkpt lat="41.23974833" lon="1.85048">
        <ele>191.0</ele>
        <time>2019-12-21T10:28:37.346Z</time>
      </trkpt>
      <trkpt lat="41.23974833" lon="1.85048">
        <ele>191.0</ele>
        <time>2019-12-21T10:28:38.351Z</time>
      </trkpt>
      <trkpt lat="41.23970667" lon="1.850535">
        <ele>192.0</ele>
        <time>2019-12-21T10:28:39.358Z</time>
      </trkpt>
      <trkpt lat="41.23970667" lon="1.850535">
        <ele>192.0</ele>
        <time>2019-12-21T10:28:40.337Z</time>
      </trkpt>
      <trkpt lat="41.23966667" lon="1.850595">
        <ele>192.0</ele>
        <time>2019-12-21T10:28:41.342Z</time>
      </trkpt>
      <trkpt lat="41.23966667" lon="1.850595">
        <ele>192.0</ele>
        <time>2019-12-21T10:28:42.361Z</time>
      </trkpt>
      <trkpt lat="41.23963" lon="1.85066167">
        <ele>193.0</ele>
        <time>2019-12-21T10:28:43.370Z</time>
      </trkpt>
      <trkpt lat="41.23963" lon="1.85066167">
        <ele>193.0</ele>
        <time>2019-12-21T10:28:44.336Z</time>
      </trkpt>
      <trkpt lat="41.2396" lon="1.85075">
        <ele>193.0</ele>
        <time>2019-12-21T10:28:45.353Z</time>
      </trkpt>
      <trkpt lat="41.2396" lon="1.85075">
        <ele>193.0</ele>
        <time>2019-12-21T10:28:46.363Z</time>
      </trkpt>
      <trkpt lat="41.23955833" lon="1.85083333">
        <ele>193.0</ele>
        <time>2019-12-21T10:28:47.369Z</time>
      </trkpt>
      <trkpt lat="41.23955833" lon="1.85083333">
        <ele>193.0</ele>
        <time>2019-12-21T10:28:48.356Z</time>
      </trkpt>
      <trkpt lat="41.23950667" lon="1.85092333">
        <ele>193.0</ele>
        <time>2019-12-21T10:28:49.354Z</time>
      </trkpt>
      <trkpt lat="41.23950667" lon="1.85092333">
        <ele>193.0</ele>
        <time>2019-12-21T10:28:50.367Z</time>
      </trkpt>
      <trkpt lat="41.239455" lon="1.85103">
        <ele>193.0</ele>
        <time>2019-12-21T10:28:51.373Z</time>
      </trkpt>
      <trkpt lat="41.239455" lon="1.85103">
        <ele>193.0</ele>
        <time>2019-12-21T10:28:52.353Z</time>
      </trkpt>
      <trkpt lat="41.23942333" lon="1.851135">
        <ele>193.0</ele>
        <time>2019-12-21T10:28:53.347Z</time>
      </trkpt>
      <trkpt lat="41.23942333" lon="1.851135">
        <ele>193.0</ele>
        <time>2019-12-21T10:28:54.370Z</time>
      </trkpt>
      <trkpt lat="41.23941" lon="1.85125667">
        <ele>193.0</ele>
        <time>2019-12-21T10:28:55.345Z</time>
      </trkpt>
      <trkpt lat="41.23941" lon="1.85125667">
        <ele>193.0</ele>
        <time>2019-12-21T10:28:56.385Z</time>
      </trkpt>
      <trkpt lat="41.23940167" lon="1.85139">
        <ele>193.0</ele>
        <time>2019-12-21T10:28:57.333Z</time>
      </trkpt>
      <trkpt lat="41.239395" lon="1.85145833">
        <ele>193.0</ele>
        <time>2019-12-21T10:28:58.354Z</time>
      </trkpt>
      <trkpt lat="41.23939167" lon="1.85153167">
        <ele>192.0</ele>
        <time>2019-12-21T10:28:59.365Z</time>
      </trkpt>
      <trkpt lat="41.23939167" lon="1.85153167">
        <ele>192.0</ele>
        <time>2019-12-21T10:29:00.345Z</time>
      </trkpt>
      <trkpt lat="41.23936667" lon="1.85168833">
        <ele>191.0</ele>
        <time>2019-12-21T10:29:01.352Z</time>
      </trkpt>
      <trkpt lat="41.23936667" lon="1.85168833">
        <ele>191.0</ele>
        <time>2019-12-21T10:29:02.372Z</time>
      </trkpt>
      <trkpt lat="41.23933833" lon="1.85182333">
        <ele>190.0</ele>
        <time>2019-12-21T10:29:03.341Z</time>
      </trkpt>
      <trkpt lat="41.23933833" lon="1.85182333">
        <ele>190.0</ele>
        <time>2019-12-21T10:29:04.361Z</time>
      </trkpt>
      <trkpt lat="41.23929" lon="1.85196">
        <ele>189.0</ele>
        <time>2019-12-21T10:29:05.367Z</time>
      </trkpt>
      <trkpt lat="41.23929" lon="1.85196">
        <ele>189.0</ele>
        <time>2019-12-21T10:29:06.364Z</time>
      </trkpt>
      <trkpt lat="41.23920333" lon="1.8521">
        <ele>188.0</ele>
        <time>2019-12-21T10:29:07.343Z</time>
      </trkpt>
      <trkpt lat="41.23920333" lon="1.8521">
        <ele>188.0</ele>
        <time>2019-12-21T10:29:08.359Z</time>
      </trkpt>
      <trkpt lat="41.239115" lon="1.852195">
        <ele>187.0</ele>
        <time>2019-12-21T10:29:09.369Z</time>
      </trkpt>
      <trkpt lat="41.239115" lon="1.852195">
        <ele>187.0</ele>
        <time>2019-12-21T10:29:10.352Z</time>
      </trkpt>
      <trkpt lat="41.23900667" lon="1.85223833">
        <ele>186.0</ele>
        <time>2019-12-21T10:29:11.342Z</time>
      </trkpt>
      <trkpt lat="41.23900667" lon="1.85223833">
        <ele>186.0</ele>
        <time>2019-12-21T10:29:12.366Z</time>
      </trkpt>
      <trkpt lat="41.23887167" lon="1.85229167">
        <ele>185.0</ele>
        <time>2019-12-21T10:29:13.333Z</time>
      </trkpt>
      <trkpt lat="41.23887167" lon="1.85229167">
        <ele>185.0</ele>
        <time>2019-12-21T10:29:14.356Z</time>
      </trkpt>
      <trkpt lat="41.23875667" lon="1.85235167">
        <ele>183.0</ele>
        <time>2019-12-21T10:29:15.349Z</time>
      </trkpt>
      <trkpt lat="41.23875667" lon="1.85235167">
        <ele>183.0</ele>
        <time>2019-12-21T10:29:16.339Z</time>
      </trkpt>
      <trkpt lat="41.23865833" lon="1.85239167">
        <ele>182.0</ele>
        <time>2019-12-21T10:29:17.351Z</time>
      </trkpt>
      <trkpt lat="41.23865833" lon="1.85239167">
        <ele>182.0</ele>
        <time>2019-12-21T10:29:18.336Z</time>
      </trkpt>
      <trkpt lat="41.23860333" lon="1.85241333">
        <ele>181.0</ele>
        <time>2019-12-21T10:29:19.351Z</time>
      </trkpt>
      <trkpt lat="41.23860333" lon="1.85241333">
        <ele>181.0</ele>
        <time>2019-12-21T10:29:20.363Z</time>
      </trkpt>
      <trkpt lat="41.238545" lon="1.85244667">
        <ele>180.0</ele>
        <time>2019-12-21T10:29:21.369Z</time>
      </trkpt>
      <trkpt lat="41.238545" lon="1.85244667">
        <ele>180.0</ele>
        <time>2019-12-21T10:29:22.351Z</time>
      </trkpt>
      <trkpt lat="41.23849667" lon="1.85248">
        <ele>179.0</ele>
        <time>2019-12-21T10:29:23.352Z</time>
      </trkpt>
      <trkpt lat="41.23849667" lon="1.85248">
        <ele>179.0</ele>
        <time>2019-12-21T10:29:24.359Z</time>
      </trkpt>
      <trkpt lat="41.238455" lon="1.85250833">
        <ele>178.0</ele>
        <time>2019-12-21T10:29:25.366Z</time>
      </trkpt>
      <trkpt lat="41.238455" lon="1.85250833">
        <ele>178.0</ele>
        <time>2019-12-21T10:29:26.356Z</time>
      </trkpt>
      <trkpt lat="41.23842167" lon="1.85253833">
        <ele>177.0</ele>
        <time>2019-12-21T10:29:27.365Z</time>
      </trkpt>
      <trkpt lat="41.23842167" lon="1.85253833">
        <ele>177.0</ele>
        <time>2019-12-21T10:29:28.348Z</time>
      </trkpt>
      <trkpt lat="41.23839333" lon="1.85257167">
        <ele>177.0</ele>
        <time>2019-12-21T10:29:29.354Z</time>
      </trkpt>
      <trkpt lat="41.23839333" lon="1.85257167">
        <ele>177.0</ele>
        <time>2019-12-21T10:29:30.335Z</time>
      </trkpt>
      <trkpt lat="41.238365" lon="1.852605">
        <ele>176.0</ele>
        <time>2019-12-21T10:29:31.348Z</time>
      </trkpt>
      <trkpt lat="41.238365" lon="1.852605">
        <ele>176.0</ele>
        <time>2019-12-21T10:29:32.359Z</time>
      </trkpt>
      <trkpt lat="41.23834333" lon="1.85264333">
        <ele>176.0</ele>
        <time>2019-12-21T10:29:33.365Z</time>
      </trkpt>
      <trkpt lat="41.23834333" lon="1.85264333">
        <ele>176.0</ele>
        <time>2019-12-21T10:29:34.359Z</time>
      </trkpt>
      <trkpt lat="41.23829333" lon="1.85268">
        <ele>176.0</ele>
        <time>2019-12-21T10:29:35.342Z</time>
      </trkpt>
      <trkpt lat="41.23829333" lon="1.85268">
        <ele>176.0</ele>
        <time>2019-12-21T10:29:36.357Z</time>
      </trkpt>
      <trkpt lat="41.238275" lon="1.85274">
        <ele>176.0</ele>
        <time>2019-12-21T10:29:37.363Z</time>
      </trkpt>
      <trkpt lat="41.238275" lon="1.85274">
        <ele>176.0</ele>
        <time>2019-12-21T10:29:38.341Z</time>
      </trkpt>
      <trkpt lat="41.23825667" lon="1.8528">
        <ele>176.0</ele>
        <time>2019-12-21T10:29:39.351Z</time>
      </trkpt>
      <trkpt lat="41.23825667" lon="1.8528">
        <ele>176.0</ele>
        <time>2019-12-21T10:29:40.356Z</time>
      </trkpt>
      <trkpt lat="41.238255" lon="1.85286167">
        <ele>176.0</ele>
        <time>2019-12-21T10:29:41.362Z</time>
      </trkpt>
      <trkpt lat="41.238255" lon="1.85286167">
        <ele>176.0</ele>
        <time>2019-12-21T10:29:42.348Z</time>
      </trkpt>
      <trkpt lat="41.23825667" lon="1.85292">
        <ele>176.0</ele>
        <time>2019-12-21T10:29:43.356Z</time>
      </trkpt>
      <trkpt lat="41.23825667" lon="1.85292">
        <ele>176.0</ele>
        <time>2019-12-21T10:29:44.355Z</time>
      </trkpt>
      <trkpt lat="41.23827833" lon="1.85297667">
        <ele>176.0</ele>
        <time>2019-12-21T10:29:45.363Z</time>
      </trkpt>
      <trkpt lat="41.23827833" lon="1.85297667">
        <ele>176.0</ele>
        <time>2019-12-21T10:29:46.342Z</time>
      </trkpt>
      <trkpt lat="41.23830333" lon="1.85302667">
        <ele>177.0</ele>
        <time>2019-12-21T10:29:47.354Z</time>
      </trkpt>
      <trkpt lat="41.23830333" lon="1.85302667">
        <ele>177.0</ele>
        <time>2019-12-21T10:29:48.348Z</time>
      </trkpt>
      <trkpt lat="41.23833167" lon="1.85308833">
        <ele>176.0</ele>
        <time>2019-12-21T10:29:49.357Z</time>
      </trkpt>
      <trkpt lat="41.23833167" lon="1.85308833">
        <ele>176.0</ele>
        <time>2019-12-21T10:29:50.334Z</time>
      </trkpt>
      <trkpt lat="41.23836333" lon="1.85315667">
        <ele>176.0</ele>
        <time>2019-12-21T10:29:51.352Z</time>
      </trkpt>
      <trkpt lat="41.23836333" lon="1.85315667">
        <ele>176.0</ele>
        <time>2019-12-21T10:29:52.351Z</time>
      </trkpt>
      <trkpt lat="41.23840167" lon="1.85323167">
        <ele>176.0</ele>
        <time>2019-12-21T10:29:53.357Z</time>
      </trkpt>
      <trkpt lat="41.23840167" lon="1.85323167">
        <ele>176.0</ele>
        <time>2019-12-21T10:29:54.334Z</time>
      </trkpt>
      <trkpt lat="41.23843333" lon="1.85331167">
        <ele>175.0</ele>
        <time>2019-12-21T10:29:55.338Z</time>
      </trkpt>
      <trkpt lat="41.23843333" lon="1.85331167">
        <ele>175.0</ele>
        <time>2019-12-21T10:29:56.362Z</time>
      </trkpt>
      <trkpt lat="41.23846667" lon="1.85338833">
        <ele>175.0</ele>
        <time>2019-12-21T10:29:57.352Z</time>
      </trkpt>
      <trkpt lat="41.23846667" lon="1.85338833">
        <ele>175.0</ele>
        <time>2019-12-21T10:29:58.357Z</time>
      </trkpt>
      <trkpt lat="41.23849667" lon="1.85346">
        <ele>175.0</ele>
        <time>2019-12-21T10:29:59.364Z</time>
      </trkpt>
      <trkpt lat="41.23849667" lon="1.85346">
        <ele>175.0</ele>
        <time>2019-12-21T10:30:00.344Z</time>
      </trkpt>
      <trkpt lat="41.23852833" lon="1.853525">
        <ele>176.0</ele>
        <time>2019-12-21T10:30:01.357Z</time>
      </trkpt>
      <trkpt lat="41.23852833" lon="1.853525">
        <ele>176.0</ele>
        <time>2019-12-21T10:30:02.342Z</time>
      </trkpt>
      <trkpt lat="41.23855333" lon="1.85358667">
        <ele>176.0</ele>
        <time>2019-12-21T10:30:03.353Z</time>
      </trkpt>
      <trkpt lat="41.23855333" lon="1.85358667">
        <ele>176.0</ele>
        <time>2019-12-21T10:30:04.337Z</time>
      </trkpt>
      <trkpt lat="41.23856333" lon="1.85365167">
        <ele>177.0</ele>
        <time>2019-12-21T10:30:05.342Z</time>
      </trkpt>
      <trkpt lat="41.23856333" lon="1.85365167">
        <ele>177.0</ele>
        <time>2019-12-21T10:30:06.339Z</time>
      </trkpt>
      <trkpt lat="41.23856667" lon="1.85373">
        <ele>177.0</ele>
        <time>2019-12-21T10:30:07.345Z</time>
      </trkpt>
      <trkpt lat="41.23856667" lon="1.85373">
        <ele>177.0</ele>
        <time>2019-12-21T10:30:08.366Z</time>
      </trkpt>
      <trkpt lat="41.23857333" lon="1.85382333">
        <ele>177.0</ele>
        <time>2019-12-21T10:30:09.342Z</time>
      </trkpt>
      <trkpt lat="41.23857333" lon="1.85382333">
        <ele>177.0</ele>
        <time>2019-12-21T10:30:10.335Z</time>
      </trkpt>
      <trkpt lat="41.23859167" lon="1.85393">
        <ele>177.0</ele>
        <time>2019-12-21T10:30:11.342Z</time>
      </trkpt>
      <trkpt lat="41.23859167" lon="1.85393">
        <ele>177.0</ele>
        <time>2019-12-21T10:30:12.333Z</time>
      </trkpt>
      <trkpt lat="41.23858833" lon="1.85403">
        <ele>176.0</ele>
        <time>2019-12-21T10:30:13.347Z</time>
      </trkpt>
      <trkpt lat="41.23858833" lon="1.85403">
        <ele>176.0</ele>
        <time>2019-12-21T10:30:14.335Z</time>
      </trkpt>
      <trkpt lat="41.23856833" lon="1.85411167">
        <ele>176.0</ele>
        <time>2019-12-21T10:30:15.341Z</time>
      </trkpt>
      <trkpt lat="41.23856833" lon="1.85411167">
        <ele>176.0</ele>
        <time>2019-12-21T10:30:16.364Z</time>
      </trkpt>
      <trkpt lat="41.238545" lon="1.85418833">
        <ele>176.0</ele>
        <time>2019-12-21T10:30:17.350Z</time>
      </trkpt>
      <trkpt lat="41.238545" lon="1.85418833">
        <ele>176.0</ele>
        <time>2019-12-21T10:30:18.351Z</time>
      </trkpt>
      <trkpt lat="41.23852167" lon="1.85427">
        <ele>176.0</ele>
        <time>2019-12-21T10:30:19.348Z</time>
      </trkpt>
      <trkpt lat="41.23851" lon="1.85430833">
        <ele>176.0</ele>
        <time>2019-12-21T10:30:20.357Z</time>
      </trkpt>
      <trkpt lat="41.23851" lon="1.85430833">
        <ele>176.0</ele>
        <time>2019-12-21T10:30:21.354Z</time>
      </trkpt>
      <trkpt lat="41.23848667" lon="1.85436333">
        <ele>176.0</ele>
        <time>2019-12-21T10:30:22.360Z</time>
      </trkpt>
      <trkpt lat="41.23847833" lon="1.85439333">
        <ele>176.0</ele>
        <time>2019-12-21T10:30:23.362Z</time>
      </trkpt>
      <trkpt lat="41.23847833" lon="1.85439333">
        <ele>176.0</ele>
        <time>2019-12-21T10:30:24.352Z</time>
      </trkpt>
      <trkpt lat="41.23846833" lon="1.85445167">
        <ele>177.0</ele>
        <time>2019-12-21T10:30:25.360Z</time>
      </trkpt>
      <trkpt lat="41.23846833" lon="1.85445167">
        <ele>177.0</ele>
        <time>2019-12-21T10:30:26.340Z</time>
      </trkpt>
      <trkpt lat="41.23845" lon="1.854515">
        <ele>177.0</ele>
        <time>2019-12-21T10:30:27.343Z</time>
      </trkpt>
      <trkpt lat="41.23845" lon="1.854515">
        <ele>177.0</ele>
        <time>2019-12-21T10:30:28.362Z</time>
      </trkpt>
      <trkpt lat="41.23843167" lon="1.854555">
        <ele>177.0</ele>
        <time>2019-12-21T10:30:29.368Z</time>
      </trkpt>
      <trkpt lat="41.23843167" lon="1.854555">
        <ele>177.0</ele>
        <time>2019-12-21T10:30:30.349Z</time>
      </trkpt>
      <trkpt lat="41.238425" lon="1.85456667">
        <ele>178.0</ele>
        <time>2019-12-21T10:30:31.356Z</time>
      </trkpt>
      <trkpt lat="41.238425" lon="1.85456667">
        <ele>178.0</ele>
        <time>2019-12-21T10:30:32.349Z</time>
      </trkpt>
      <trkpt lat="41.23842167" lon="1.85457333">
        <ele>178.0</ele>
        <time>2019-12-21T10:30:33.356Z</time>
      </trkpt>
      <trkpt lat="41.23842167" lon="1.85457333">
        <ele>178.0</ele>
        <time>2019-12-21T10:30:34.359Z</time>
      </trkpt>
      <trkpt lat="41.23842167" lon="1.85457333">
        <ele>178.0</ele>
        <time>2019-12-21T10:30:35.343Z</time>
      </trkpt>
      <trkpt lat="41.23839833" lon="1.85458333">
        <ele>175.0</ele>
        <time>2019-12-21T10:30:36.349Z</time>
      </trkpt>
      <trkpt lat="41.2384" lon="1.854585">
        <ele>175.0</ele>
        <time>2019-12-21T10:30:37.333Z</time>
      </trkpt>
      <trkpt lat="41.238445" lon="1.854565">
        <ele>172.0</ele>
        <time>2019-12-21T10:30:38.365Z</time>
      </trkpt>
      <trkpt lat="41.23845" lon="1.854545">
        <ele>172.0</ele>
        <time>2019-12-21T10:30:39.358Z</time>
      </trkpt>
      <trkpt lat="41.23845667" lon="1.85452167">
        <ele>172.0</ele>
        <time>2019-12-21T10:30:40.361Z</time>
      </trkpt>
      <trkpt lat="41.23845667" lon="1.85452167">
        <ele>172.0</ele>
        <time>2019-12-21T10:30:41.347Z</time>
      </trkpt>
      <trkpt lat="41.23847" lon="1.85448">
        <ele>172.0</ele>
        <time>2019-12-21T10:30:42.353Z</time>
      </trkpt>
      <trkpt lat="41.23847" lon="1.85448">
        <ele>172.0</ele>
        <time>2019-12-21T10:30:43.358Z</time>
      </trkpt>
      <trkpt lat="41.23848" lon="1.85444833">
        <ele>171.0</ele>
        <time>2019-12-21T10:30:44.364Z</time>
      </trkpt>
      <trkpt lat="41.23848" lon="1.85444833">
        <ele>171.0</ele>
        <time>2019-12-21T10:30:45.371Z</time>
      </trkpt>
      <trkpt lat="41.23849833" lon="1.854425">
        <ele>171.0</ele>
        <time>2019-12-21T10:30:46.356Z</time>
      </trkpt>
      <trkpt lat="41.23849833" lon="1.854425">
        <ele>171.0</ele>
        <time>2019-12-21T10:30:47.361Z</time>
      </trkpt>
      <trkpt lat="41.23850833" lon="1.85439333">
        <ele>171.0</ele>
        <time>2019-12-21T10:30:48.336Z</time>
      </trkpt>
      <trkpt lat="41.23850833" lon="1.85439333">
        <ele>171.0</ele>
        <time>2019-12-21T10:30:49.354Z</time>
      </trkpt>
      <trkpt lat="41.23852" lon="1.85436333">
        <ele>170.0</ele>
        <time>2019-12-21T10:30:50.341Z</time>
      </trkpt>
      <trkpt lat="41.23852" lon="1.85436333">
        <ele>170.0</ele>
        <time>2019-12-21T10:30:51.346Z</time>
      </trkpt>
      <trkpt lat="41.23852833" lon="1.85432333">
        <ele>169.0</ele>
        <time>2019-12-21T10:30:52.353Z</time>
      </trkpt>
      <trkpt lat="41.23852833" lon="1.85432333">
        <ele>169.0</ele>
        <time>2019-12-21T10:30:53.358Z</time>
      </trkpt>
      <trkpt lat="41.23854333" lon="1.85428833">
        <ele>169.0</ele>
        <time>2019-12-21T10:30:54.359Z</time>
      </trkpt>
      <trkpt lat="41.23854333" lon="1.85428833">
        <ele>169.0</ele>
        <time>2019-12-21T10:30:55.335Z</time>
      </trkpt>
      <trkpt lat="41.23854667" lon="1.85425">
        <ele>168.0</ele>
        <time>2019-12-21T10:30:56.353Z</time>
      </trkpt>
      <trkpt lat="41.23854667" lon="1.85425">
        <ele>168.0</ele>
        <time>2019-12-21T10:30:57.358Z</time>
      </trkpt>
      <trkpt lat="41.23856167" lon="1.85420333">
        <ele>168.0</ele>
        <time>2019-12-21T10:30:58.367Z</time>
      </trkpt>
      <trkpt lat="41.23856167" lon="1.85420333">
        <ele>168.0</ele>
        <time>2019-12-21T10:30:59.372Z</time>
      </trkpt>
      <trkpt lat="41.23857167" lon="1.85415667">
        <ele>168.0</ele>
        <time>2019-12-21T10:31:00.365Z</time>
      </trkpt>
      <trkpt lat="41.23857167" lon="1.85415667">
        <ele>168.0</ele>
        <time>2019-12-21T10:31:01.370Z</time>
      </trkpt>
      <trkpt lat="41.23857" lon="1.85414333">
        <ele>168.0</ele>
        <time>2019-12-21T10:31:02.336Z</time>
      </trkpt>
      <trkpt lat="41.23857" lon="1.85414333">
        <ele>168.0</ele>
        <time>2019-12-21T10:31:03.344Z</time>
      </trkpt>
      <trkpt lat="41.23858" lon="1.854135">
        <ele>167.0</ele>
        <time>2019-12-21T10:31:04.357Z</time>
      </trkpt>
      <trkpt lat="41.23858" lon="1.854135">
        <ele>167.0</ele>
        <time>2019-12-21T10:31:05.368Z</time>
      </trkpt>
      <trkpt lat="41.23858" lon="1.854135">
        <ele>167.0</ele>
        <time>2019-12-21T10:31:06.334Z</time>
      </trkpt>
      <trkpt lat="41.23858" lon="1.854135">
        <ele>167.0</ele>
        <time>2019-12-21T10:31:07.341Z</time>
      </trkpt>
      <trkpt lat="41.23857833" lon="1.85415833">
        <ele>167.0</ele>
        <time>2019-12-21T10:31:08.364Z</time>
      </trkpt>
      <trkpt lat="41.23857833" lon="1.85415833">
        <ele>167.0</ele>
        <time>2019-12-21T10:31:09.353Z</time>
      </trkpt>
      <trkpt lat="41.23856833" lon="1.854185">
        <ele>167.0</ele>
        <time>2019-12-21T10:31:10.335Z</time>
      </trkpt>
      <trkpt lat="41.23856833" lon="1.854185">
        <ele>167.0</ele>
        <time>2019-12-21T10:31:11.368Z</time>
      </trkpt>
      <trkpt lat="41.23855167" lon="1.85422333">
        <ele>167.0</ele>
        <time>2019-12-21T10:31:12.360Z</time>
      </trkpt>
      <trkpt lat="41.23855167" lon="1.85422333">
        <ele>167.0</ele>
        <time>2019-12-21T10:31:13.353Z</time>
      </trkpt>
      <trkpt lat="41.23854" lon="1.85427333">
        <ele>168.0</ele>
        <time>2019-12-21T10:31:14.368Z</time>
      </trkpt>
      <trkpt lat="41.23854" lon="1.85427333">
        <ele>168.0</ele>
        <time>2019-12-21T10:31:15.334Z</time>
      </trkpt>
      <trkpt lat="41.23853333" lon="1.85431">
        <ele>167.0</ele>
        <time>2019-12-21T10:31:16.344Z</time>
      </trkpt>
      <trkpt lat="41.23853333" lon="1.85431">
        <ele>167.0</ele>
        <time>2019-12-21T10:31:17.349Z</time>
      </trkpt>
      <trkpt lat="41.23853167" lon="1.85432">
        <ele>168.0</ele>
        <time>2019-12-21T10:31:18.357Z</time>
      </trkpt>
      <trkpt lat="41.23853167" lon="1.85432">
        <ele>168.0</ele>
        <time>2019-12-21T10:31:19.362Z</time>
      </trkpt>
      <trkpt lat="41.23852667" lon="1.85433667">
        <ele>168.0</ele>
        <time>2019-12-21T10:31:20.368Z</time>
      </trkpt>
      <trkpt lat="41.23852667" lon="1.85433667">
        <ele>168.0</ele>
        <time>2019-12-21T10:31:21.333Z</time>
      </trkpt>
      <trkpt lat="41.23852167" lon="1.85436">
        <ele>168.0</ele>
        <time>2019-12-21T10:31:22.347Z</time>
      </trkpt>
      <trkpt lat="41.23852167" lon="1.85436">
        <ele>168.0</ele>
        <time>2019-12-21T10:31:23.352Z</time>
      </trkpt>
      <trkpt lat="41.238515" lon="1.8544">
        <ele>168.0</ele>
        <time>2019-12-21T10:31:24.358Z</time>
      </trkpt>
      <trkpt lat="41.238515" lon="1.8544">
        <ele>168.0</ele>
        <time>2019-12-21T10:31:25.363Z</time>
      </trkpt>
      <trkpt lat="41.23850333" lon="1.85443667">
        <ele>169.0</ele>
        <time>2019-12-21T10:31:26.349Z</time>
      </trkpt>
      <trkpt lat="41.23850333" lon="1.85443667">
        <ele>169.0</ele>
        <time>2019-12-21T10:31:27.354Z</time>
      </trkpt>
      <trkpt lat="41.23849167" lon="1.854475">
        <ele>169.0</ele>
        <time>2019-12-21T10:31:28.356Z</time>
      </trkpt>
      <trkpt lat="41.23849167" lon="1.854475">
        <ele>169.0</ele>
        <time>2019-12-21T10:31:29.372Z</time>
      </trkpt>
      <trkpt lat="41.23847833" lon="1.85452">
        <ele>169.0</ele>
        <time>2019-12-21T10:31:30.368Z</time>
      </trkpt>
      <trkpt lat="41.23847833" lon="1.85452">
        <ele>169.0</ele>
        <time>2019-12-21T10:31:31.333Z</time>
      </trkpt>
      <trkpt lat="41.238475" lon="1.85457">
        <ele>170.0</ele>
        <time>2019-12-21T10:31:32.340Z</time>
      </trkpt>
      <trkpt lat="41.238475" lon="1.85457">
        <ele>170.0</ele>
        <time>2019-12-21T10:31:33.348Z</time>
      </trkpt>
      <trkpt lat="41.23849" lon="1.85455667">
        <ele>170.0</ele>
        <time>2019-12-21T10:31:34.338Z</time>
      </trkpt>
      <trkpt lat="41.23849" lon="1.85455667">
        <ele>170.0</ele>
        <time>2019-12-21T10:31:35.343Z</time>
      </trkpt>
      <trkpt lat="41.23849833" lon="1.85451">
        <ele>170.0</ele>
        <time>2019-12-21T10:31:36.363Z</time>
      </trkpt>
      <trkpt lat="41.23849833" lon="1.85451">
        <ele>170.0</ele>
        <time>2019-12-21T10:31:37.368Z</time>
      </trkpt>
      <trkpt lat="41.23851" lon="1.854455">
        <ele>170.0</ele>
        <time>2019-12-21T10:31:38.363Z</time>
      </trkpt>
      <trkpt lat="41.23851" lon="1.854455">
        <ele>170.0</ele>
        <time>2019-12-21T10:31:39.369Z</time>
      </trkpt>
      <trkpt lat="41.23852167" lon="1.85440667">
        <ele>170.0</ele>
        <time>2019-12-21T10:31:40.336Z</time>
      </trkpt>
      <trkpt lat="41.23852167" lon="1.85440667">
        <ele>170.0</ele>
        <time>2019-12-21T10:31:41.343Z</time>
      </trkpt>
      <trkpt lat="41.23852167" lon="1.85436">
        <ele>170.0</ele>
        <time>2019-12-21T10:31:42.357Z</time>
      </trkpt>
      <trkpt lat="41.23852167" lon="1.85436">
        <ele>170.0</ele>
        <time>2019-12-21T10:31:43.363Z</time>
      </trkpt>
      <trkpt lat="41.23853" lon="1.85429667">
        <ele>169.0</ele>
        <time>2019-12-21T10:31:44.334Z</time>
      </trkpt>
      <trkpt lat="41.23853" lon="1.85429667">
        <ele>169.0</ele>
        <time>2019-12-21T10:31:45.354Z</time>
      </trkpt>
      <trkpt lat="41.23854333" lon="1.854255">
        <ele>169.0</ele>
        <time>2019-12-21T10:31:46.338Z</time>
      </trkpt>
      <trkpt lat="41.23854333" lon="1.854255">
        <ele>169.0</ele>
        <time>2019-12-21T10:31:47.347Z</time>
      </trkpt>
      <trkpt lat="41.23853833" lon="1.8543">
        <ele>170.0</ele>
        <time>2019-12-21T10:31:48.353Z</time>
      </trkpt>
      <trkpt lat="41.23853833" lon="1.8543">
        <ele>170.0</ele>
        <time>2019-12-21T10:31:49.358Z</time>
      </trkpt>
      <trkpt lat="41.23853167" lon="1.85432833">
        <ele>170.0</ele>
        <time>2019-12-21T10:31:50.358Z</time>
      </trkpt>
      <trkpt lat="41.23853167" lon="1.85432833">
        <ele>170.0</ele>
        <time>2019-12-21T10:31:51.354Z</time>
      </trkpt>
      <trkpt lat="41.23852" lon="1.85437833">
        <ele>170.0</ele>
        <time>2019-12-21T10:31:52.347Z</time>
      </trkpt>
      <trkpt lat="41.23852" lon="1.85437833">
        <ele>170.0</ele>
        <time>2019-12-21T10:31:53.352Z</time>
      </trkpt>
      <trkpt lat="41.23852" lon="1.85442333">
        <ele>170.0</ele>
        <time>2019-12-21T10:31:54.368Z</time>
      </trkpt>
      <trkpt lat="41.238515" lon="1.854445">
        <ele>170.0</ele>
        <time>2019-12-21T10:31:55.356Z</time>
      </trkpt>
      <trkpt lat="41.23850333" lon="1.85446167">
        <ele>171.0</ele>
        <time>2019-12-21T10:31:56.346Z</time>
      </trkpt>
      <trkpt lat="41.23850333" lon="1.85446167">
        <ele>171.0</ele>
        <time>2019-12-21T10:31:57.352Z</time>
      </trkpt>
      <trkpt lat="41.23847667" lon="1.85451333">
        <ele>171.0</ele>
        <time>2019-12-21T10:31:58.358Z</time>
      </trkpt>
      <trkpt lat="41.23847667" lon="1.85451333">
        <ele>171.0</ele>
        <time>2019-12-21T10:31:59.372Z</time>
      </trkpt>
      <trkpt lat="41.23847667" lon="1.85455667">
        <ele>171.0</ele>
        <time>2019-12-21T10:32:00.358Z</time>
      </trkpt>
      <trkpt lat="41.23847667" lon="1.85455667">
        <ele>171.0</ele>
        <time>2019-12-21T10:32:01.364Z</time>
      </trkpt>
      <trkpt lat="41.23848167" lon="1.85453167">
        <ele>171.0</ele>
        <time>2019-12-21T10:32:02.370Z</time>
      </trkpt>
      <trkpt lat="41.23848167" lon="1.85453167">
        <ele>171.0</ele>
        <time>2019-12-21T10:32:03.335Z</time>
      </trkpt>
      <trkpt lat="41.23848833" lon="1.85449">
        <ele>171.0</ele>
        <time>2019-12-21T10:32:04.359Z</time>
      </trkpt>
      <trkpt lat="41.23848833" lon="1.85449">
        <ele>171.0</ele>
        <time>2019-12-21T10:32:05.333Z</time>
      </trkpt>
      <trkpt lat="41.23849" lon="1.85446">
        <ele>171.0</ele>
        <time>2019-12-21T10:32:06.341Z</time>
      </trkpt>
      <trkpt lat="41.23849" lon="1.85446">
        <ele>171.0</ele>
        <time>2019-12-21T10:32:07.347Z</time>
      </trkpt>
      <trkpt lat="41.23848833" lon="1.85445333">
        <ele>171.0</ele>
        <time>2019-12-21T10:32:08.359Z</time>
      </trkpt>
      <trkpt lat="41.23848833" lon="1.85445333">
        <ele>171.0</ele>
        <time>2019-12-21T10:32:09.354Z</time>
      </trkpt>
      <trkpt lat="41.23849" lon="1.85445">
        <ele>171.0</ele>
        <time>2019-12-21T10:32:10.336Z</time>
      </trkpt>
      <trkpt lat="41.23849" lon="1.85445">
        <ele>171.0</ele>
        <time>2019-12-21T10:32:11.364Z</time>
      </trkpt>
      <trkpt lat="41.23849" lon="1.85445">
        <ele>171.0</ele>
        <time>2019-12-21T10:32:12.355Z</time>
      </trkpt>
      <trkpt lat="41.23852667" lon="1.85436167">
        <ele>164.0</ele>
        <time>2019-12-21T10:32:13.348Z</time>
      </trkpt>
      <trkpt lat="41.23852667" lon="1.85436167">
        <ele>164.0</ele>
        <time>2019-12-21T10:32:14.352Z</time>
      </trkpt>
      <trkpt lat="41.23854333" lon="1.85430667">
        <ele>164.0</ele>
        <time>2019-12-21T10:32:15.363Z</time>
      </trkpt>
      <trkpt lat="41.23854333" lon="1.85430667">
        <ele>164.0</ele>
        <time>2019-12-21T10:32:16.356Z</time>
      </trkpt>
      <trkpt lat="41.23856667" lon="1.85424667">
        <ele>164.0</ele>
        <time>2019-12-21T10:32:17.349Z</time>
      </trkpt>
      <trkpt lat="41.23856667" lon="1.85424667">
        <ele>164.0</ele>
        <time>2019-12-21T10:32:18.354Z</time>
      </trkpt>
      <trkpt lat="41.238575" lon="1.85420667">
        <ele>164.0</ele>
        <time>2019-12-21T10:32:19.340Z</time>
      </trkpt>
      <trkpt lat="41.238575" lon="1.85420667">
        <ele>164.0</ele>
        <time>2019-12-21T10:32:20.345Z</time>
      </trkpt>
      <trkpt lat="41.238575" lon="1.85418833">
        <ele>165.0</ele>
        <time>2019-12-21T10:32:21.363Z</time>
      </trkpt>
      <trkpt lat="41.238575" lon="1.85418833">
        <ele>165.0</ele>
        <time>2019-12-21T10:32:22.369Z</time>
      </trkpt>
      <trkpt lat="41.23857667" lon="1.85416333">
        <ele>165.0</ele>
        <time>2019-12-21T10:32:23.335Z</time>
      </trkpt>
      <trkpt lat="41.23857667" lon="1.85416333">
        <ele>165.0</ele>
        <time>2019-12-21T10:32:24.339Z</time>
      </trkpt>
      <trkpt lat="41.23859" lon="1.85414333">
        <ele>165.0</ele>
        <time>2019-12-21T10:32:25.355Z</time>
      </trkpt>
      <trkpt lat="41.23859" lon="1.85414333">
        <ele>165.0</ele>
        <time>2019-12-21T10:32:26.360Z</time>
      </trkpt>
      <trkpt lat="41.23859333" lon="1.85412">
        <ele>165.0</ele>
        <time>2019-12-21T10:32:27.367Z</time>
      </trkpt>
      <trkpt lat="41.23859333" lon="1.85412">
        <ele>165.0</ele>
        <time>2019-12-21T10:32:28.373Z</time>
      </trkpt>
      <trkpt lat="41.23859833" lon="1.85411">
        <ele>165.0</ele>
        <time>2019-12-21T10:32:29.346Z</time>
      </trkpt>
      <trkpt lat="41.23859833" lon="1.85410833">
        <ele>165.0</ele>
        <time>2019-12-21T10:32:30.353Z</time>
      </trkpt>
      <trkpt lat="41.2386" lon="1.85411167">
        <ele>165.0</ele>
        <time>2019-12-21T10:32:31.344Z</time>
      </trkpt>
      <trkpt lat="41.2386" lon="1.85411167">
        <ele>165.0</ele>
        <time>2019-12-21T10:32:32.355Z</time>
      </trkpt>
      <trkpt lat="41.2386" lon="1.85411167">
        <ele>165.0</ele>
        <time>2019-12-21T10:32:33.370Z</time>
      </trkpt>
      <trkpt lat="41.23859" lon="1.85403333">
        <ele>166.0</ele>
        <time>2019-12-21T10:32:34.335Z</time>
      </trkpt>
      <trkpt lat="41.23859" lon="1.85403333">
        <ele>166.0</ele>
        <time>2019-12-21T10:32:35.371Z</time>
      </trkpt>
      <trkpt lat="41.238585" lon="1.85400167">
        <ele>166.0</ele>
        <time>2019-12-21T10:32:36.360Z</time>
      </trkpt>
      <trkpt lat="41.238585" lon="1.85400167">
        <ele>166.0</ele>
        <time>2019-12-21T10:32:37.372Z</time>
      </trkpt>
      <trkpt lat="41.238585" lon="1.85400167">
        <ele>166.0</ele>
        <time>2019-12-21T10:32:38.341Z</time>
      </trkpt>
      <trkpt lat="41.238585" lon="1.85400167">
        <ele>166.0</ele>
        <time>2019-12-21T10:32:39.364Z</time>
      </trkpt>
      <trkpt lat="41.23858833" lon="1.85399833">
        <ele>166.0</ele>
        <time>2019-12-21T10:32:40.369Z</time>
      </trkpt>
      <trkpt lat="41.23858833" lon="1.85399833">
        <ele>166.0</ele>
        <time>2019-12-21T10:32:41.343Z</time>
      </trkpt>
      <trkpt lat="41.238575" lon="1.85393667">
        <ele>166.0</ele>
        <time>2019-12-21T10:32:42.345Z</time>
      </trkpt>
      <trkpt lat="41.238575" lon="1.85393667">
        <ele>166.0</ele>
        <time>2019-12-21T10:32:43.362Z</time>
      </trkpt>
      <trkpt lat="41.23857" lon="1.8539">
        <ele>167.0</ele>
        <time>2019-12-21T10:32:44.368Z</time>
      </trkpt>
      <trkpt lat="41.23857" lon="1.8539">
        <ele>167.0</ele>
        <time>2019-12-21T10:32:45.334Z</time>
      </trkpt>
      <trkpt lat="41.23857167" lon="1.85387167">
        <ele>167.0</ele>
        <time>2019-12-21T10:32:46.362Z</time>
      </trkpt>
      <trkpt lat="41.23857167" lon="1.85387167">
        <ele>167.0</ele>
        <time>2019-12-21T10:32:47.364Z</time>
      </trkpt>
      <trkpt lat="41.23857833" lon="1.85384333">
        <ele>167.0</ele>
        <time>2019-12-21T10:32:48.370Z</time>
      </trkpt>
      <trkpt lat="41.23857833" lon="1.85382833">
        <ele>167.0</ele>
        <time>2019-12-21T10:32:49.344Z</time>
      </trkpt>
      <trkpt lat="41.23857833" lon="1.85382833">
        <ele>167.0</ele>
        <time>2019-12-21T10:32:50.357Z</time>
      </trkpt>
      <trkpt lat="41.23857333" lon="1.85378667">
        <ele>168.0</ele>
        <time>2019-12-21T10:32:51.364Z</time>
      </trkpt>
      <trkpt lat="41.23857333" lon="1.85378667">
        <ele>168.0</ele>
        <time>2019-12-21T10:32:52.351Z</time>
      </trkpt>
      <trkpt lat="41.23858833" lon="1.85375667">
        <ele>168.0</ele>
        <time>2019-12-21T10:32:53.361Z</time>
      </trkpt>
      <trkpt lat="41.23858833" lon="1.85375667">
        <ele>168.0</ele>
        <time>2019-12-21T10:32:54.363Z</time>
      </trkpt>
      <trkpt lat="41.23859667" lon="1.85374667">
        <ele>168.0</ele>
        <time>2019-12-21T10:32:55.334Z</time>
      </trkpt>
      <trkpt lat="41.23859667" lon="1.853745">
        <ele>168.0</ele>
        <time>2019-12-21T10:32:56.354Z</time>
      </trkpt>
      <trkpt lat="41.23859667" lon="1.853745">
        <ele>168.0</ele>
        <time>2019-12-21T10:32:57.336Z</time>
      </trkpt>
      <trkpt lat="41.238595" lon="1.85374167">
        <ele>168.0</ele>
        <time>2019-12-21T10:32:58.342Z</time>
      </trkpt>
      <trkpt lat="41.238595" lon="1.85374167">
        <ele>168.0</ele>
        <time>2019-12-21T10:32:59.350Z</time>
      </trkpt>
      <trkpt lat="41.23856167" lon="1.85365333">
        <ele>168.0</ele>
        <time>2019-12-21T10:33:00.355Z</time>
      </trkpt>
      <trkpt lat="41.23856167" lon="1.85365333">
        <ele>168.0</ele>
        <time>2019-12-21T10:33:01.346Z</time>
      </trkpt>
      <trkpt lat="41.23855667" lon="1.85364">
        <ele>168.0</ele>
        <time>2019-12-21T10:33:02.353Z</time>
      </trkpt>
      <trkpt lat="41.23855667" lon="1.85364">
        <ele>168.0</ele>
        <time>2019-12-21T10:33:03.347Z</time>
      </trkpt>
      <trkpt lat="41.23856333" lon="1.85362833">
        <ele>168.0</ele>
        <time>2019-12-21T10:33:04.345Z</time>
      </trkpt>
      <trkpt lat="41.23856333" lon="1.85362833">
        <ele>168.0</ele>
        <time>2019-12-21T10:33:05.350Z</time>
      </trkpt>
      <trkpt lat="41.23856167" lon="1.85362833">
        <ele>168.0</ele>
        <time>2019-12-21T10:33:06.356Z</time>
      </trkpt>
      <trkpt lat="41.23856167" lon="1.85362833">
        <ele>168.0</ele>
        <time>2019-12-21T10:33:07.362Z</time>
      </trkpt>
      <trkpt lat="41.23855167" lon="1.85363">
        <ele>168.0</ele>
        <time>2019-12-21T10:33:08.346Z</time>
      </trkpt>
      <trkpt lat="41.23855167" lon="1.85363">
        <ele>168.0</ele>
        <time>2019-12-21T10:33:09.351Z</time>
      </trkpt>
      <trkpt lat="41.23855" lon="1.85362667">
        <ele>168.0</ele>
        <time>2019-12-21T10:33:10.361Z</time>
      </trkpt>
      <trkpt lat="41.23853667" lon="1.85361833">
        <ele>168.0</ele>
        <time>2019-12-21T10:33:11.344Z</time>
      </trkpt>
      <trkpt lat="41.238535" lon="1.853605">
        <ele>168.0</ele>
        <time>2019-12-21T10:33:12.344Z</time>
      </trkpt>
      <trkpt lat="41.23852667" lon="1.85358333">
        <ele>168.0</ele>
        <time>2019-12-21T10:33:13.344Z</time>
      </trkpt>
      <trkpt lat="41.23852667" lon="1.85358333">
        <ele>168.0</ele>
        <time>2019-12-21T10:33:14.338Z</time>
      </trkpt>
      <trkpt lat="41.23850833" lon="1.853545">
        <ele>168.0</ele>
        <time>2019-12-21T10:33:15.345Z</time>
      </trkpt>
      <trkpt lat="41.23850833" lon="1.853545">
        <ele>168.0</ele>
        <time>2019-12-21T10:33:16.350Z</time>
      </trkpt>
      <trkpt lat="41.23849833" lon="1.85351">
        <ele>168.0</ele>
        <time>2019-12-21T10:33:17.357Z</time>
      </trkpt>
      <trkpt lat="41.23849833" lon="1.85351">
        <ele>168.0</ele>
        <time>2019-12-21T10:33:18.362Z</time>
      </trkpt>
      <trkpt lat="41.238495" lon="1.853505">
        <ele>168.0</ele>
        <time>2019-12-21T10:33:19.344Z</time>
      </trkpt>
      <trkpt lat="41.238495" lon="1.853505">
        <ele>168.0</ele>
        <time>2019-12-21T10:33:20.349Z</time>
      </trkpt>
      <trkpt lat="41.23852333" lon="1.85352667">
        <ele>168.0</ele>
        <time>2019-12-21T10:33:21.363Z</time>
      </trkpt>
      <trkpt lat="41.23852333" lon="1.85352667">
        <ele>168.0</ele>
        <time>2019-12-21T10:33:22.348Z</time>
      </trkpt>
      <trkpt lat="41.23854833" lon="1.85352167">
        <ele>168.0</ele>
        <time>2019-12-21T10:33:23.336Z</time>
      </trkpt>
      <trkpt lat="41.23854833" lon="1.85352167">
        <ele>168.0</ele>
        <time>2019-12-21T10:33:24.341Z</time>
      </trkpt>
      <trkpt lat="41.23856333" lon="1.85352333">
        <ele>169.0</ele>
        <time>2019-12-21T10:33:25.348Z</time>
      </trkpt>
      <trkpt lat="41.23856167" lon="1.85351667">
        <ele>169.0</ele>
        <time>2019-12-21T10:33:26.343Z</time>
      </trkpt>
      <trkpt lat="41.23856167" lon="1.85351667">
        <ele>169.0</ele>
        <time>2019-12-21T10:33:27.338Z</time>
      </trkpt>
      <trkpt lat="41.23856167" lon="1.85351667">
        <ele>169.0</ele>
        <time>2019-12-21T10:33:28.343Z</time>
      </trkpt>
      <trkpt lat="41.23856167" lon="1.85351667">
        <ele>169.0</ele>
        <time>2019-12-21T10:33:29.338Z</time>
      </trkpt>
      <trkpt lat="41.23854833" lon="1.85359833">
        <ele>169.0</ele>
        <time>2019-12-21T10:33:30.343Z</time>
      </trkpt>
      <trkpt lat="41.23854833" lon="1.85359833">
        <ele>169.0</ele>
        <time>2019-12-21T10:33:31.338Z</time>
      </trkpt>
      <trkpt lat="41.23854833" lon="1.85362167">
        <ele>169.0</ele>
        <time>2019-12-21T10:33:32.356Z</time>
      </trkpt>
      <trkpt lat="41.23854833" lon="1.85362167">
        <ele>169.0</ele>
        <time>2019-12-21T10:33:33.335Z</time>
      </trkpt>
      <trkpt lat="41.238565" lon="1.85365167">
        <ele>170.0</ele>
        <time>2019-12-21T10:33:34.341Z</time>
      </trkpt>
      <trkpt lat="41.238565" lon="1.85365167">
        <ele>170.0</ele>
        <time>2019-12-21T10:33:35.361Z</time>
      </trkpt>
      <trkpt lat="41.23858833" lon="1.85366">
        <ele>170.0</ele>
        <time>2019-12-21T10:33:36.358Z</time>
      </trkpt>
      <trkpt lat="41.23858833" lon="1.85366">
        <ele>170.0</ele>
        <time>2019-12-21T10:33:37.363Z</time>
      </trkpt>
      <trkpt lat="41.23858" lon="1.853615">
        <ele>169.0</ele>
        <time>2019-12-21T10:33:38.333Z</time>
      </trkpt>
      <trkpt lat="41.23858" lon="1.853615">
        <ele>169.0</ele>
        <time>2019-12-21T10:33:39.353Z</time>
      </trkpt>
      <trkpt lat="41.23854833" lon="1.85355167">
        <ele>169.0</ele>
        <time>2019-12-21T10:33:40.357Z</time>
      </trkpt>
      <trkpt lat="41.23854833" lon="1.85355167">
        <ele>169.0</ele>
        <time>2019-12-21T10:33:41.370Z</time>
      </trkpt>
      <trkpt lat="41.23851167" lon="1.853475">
        <ele>169.0</ele>
        <time>2019-12-21T10:33:42.336Z</time>
      </trkpt>
      <trkpt lat="41.23851167" lon="1.853475">
        <ele>169.0</ele>
        <time>2019-12-21T10:33:43.359Z</time>
      </trkpt>
      <trkpt lat="41.23846667" lon="1.85338667">
        <ele>169.0</ele>
        <time>2019-12-21T10:33:44.366Z</time>
      </trkpt>
      <trkpt lat="41.23846667" lon="1.85338667">
        <ele>169.0</ele>
        <time>2019-12-21T10:33:45.340Z</time>
      </trkpt>
      <trkpt lat="41.23841167" lon="1.85328">
        <ele>169.0</ele>
        <time>2019-12-21T10:33:46.346Z</time>
      </trkpt>
      <trkpt lat="41.23841167" lon="1.85328">
        <ele>169.0</ele>
        <time>2019-12-21T10:33:47.334Z</time>
      </trkpt>
      <trkpt lat="41.23836667" lon="1.85317167">
        <ele>169.0</ele>
        <time>2019-12-21T10:33:48.364Z</time>
      </trkpt>
      <trkpt lat="41.23836667" lon="1.85317167">
        <ele>169.0</ele>
        <time>2019-12-21T10:33:49.349Z</time>
      </trkpt>
      <trkpt lat="41.23832333" lon="1.85308333">
        <ele>168.0</ele>
        <time>2019-12-21T10:33:50.355Z</time>
      </trkpt>
      <trkpt lat="41.23832333" lon="1.85308333">
        <ele>168.0</ele>
        <time>2019-12-21T10:33:51.346Z</time>
      </trkpt>
      <trkpt lat="41.23827833" lon="1.853">
        <ele>168.0</ele>
        <time>2019-12-21T10:33:52.352Z</time>
      </trkpt>
      <trkpt lat="41.23827833" lon="1.853">
        <ele>168.0</ele>
        <time>2019-12-21T10:33:53.371Z</time>
      </trkpt>
      <trkpt lat="41.23824" lon="1.85289">
        <ele>168.0</ele>
        <time>2019-12-21T10:33:54.349Z</time>
      </trkpt>
      <trkpt lat="41.23824" lon="1.85289">
        <ele>168.0</ele>
        <time>2019-12-21T10:33:55.365Z</time>
      </trkpt>
      <trkpt lat="41.23825333" lon="1.85275">
        <ele>167.0</ele>
        <time>2019-12-21T10:33:56.336Z</time>
      </trkpt>
      <trkpt lat="41.23825333" lon="1.85275">
        <ele>167.0</ele>
        <time>2019-12-21T10:33:57.336Z</time>
      </trkpt>
      <trkpt lat="41.238315" lon="1.85260667">
        <ele>166.0</ele>
        <time>2019-12-21T10:33:58.343Z</time>
      </trkpt>
      <trkpt lat="41.238315" lon="1.85260667">
        <ele>166.0</ele>
        <time>2019-12-21T10:33:59.370Z</time>
      </trkpt>
      <trkpt lat="41.23842667" lon="1.85251">
        <ele>165.0</ele>
        <time>2019-12-21T10:34:00.368Z</time>
      </trkpt>
      <trkpt lat="41.23842667" lon="1.85251">
        <ele>165.0</ele>
        <time>2019-12-21T10:34:01.337Z</time>
      </trkpt>
      <trkpt lat="41.238505" lon="1.85246">
        <ele>165.0</ele>
        <time>2019-12-21T10:34:02.344Z</time>
      </trkpt>
      <trkpt lat="41.238505" lon="1.85246">
        <ele>165.0</ele>
        <time>2019-12-21T10:34:03.354Z</time>
      </trkpt>
      <trkpt lat="41.23855667" lon="1.85245833">
        <ele>164.0</ele>
        <time>2019-12-21T10:34:04.368Z</time>
      </trkpt>
      <trkpt lat="41.23855667" lon="1.85245833">
        <ele>164.0</ele>
        <time>2019-12-21T10:34:05.370Z</time>
      </trkpt>
      <trkpt lat="41.23859167" lon="1.85245">
        <ele>163.0</ele>
        <time>2019-12-21T10:34:06.336Z</time>
      </trkpt>
      <trkpt lat="41.23859167" lon="1.85245">
        <ele>163.0</ele>
        <time>2019-12-21T10:34:07.356Z</time>
      </trkpt>
      <trkpt lat="41.23861667" lon="1.852425">
        <ele>163.0</ele>
        <time>2019-12-21T10:34:08.366Z</time>
      </trkpt>
      <trkpt lat="41.23861667" lon="1.852425">
        <ele>163.0</ele>
        <time>2019-12-21T10:34:09.373Z</time>
      </trkpt>
      <trkpt lat="41.238625" lon="1.85242">
        <ele>163.0</ele>
        <time>2019-12-21T10:34:10.339Z</time>
      </trkpt>
      <trkpt lat="41.238625" lon="1.85242">
        <ele>163.0</ele>
        <time>2019-12-21T10:34:11.362Z</time>
      </trkpt>
      <trkpt lat="41.23862833" lon="1.85241167">
        <ele>163.0</ele>
        <time>2019-12-21T10:34:12.345Z</time>
      </trkpt>
      <trkpt lat="41.23862833" lon="1.85241167">
        <ele>163.0</ele>
        <time>2019-12-21T10:34:13.336Z</time>
      </trkpt>
      <trkpt lat="41.23862833" lon="1.85241167">
        <ele>163.0</ele>
        <time>2019-12-21T10:34:14.370Z</time>
      </trkpt>
      <trkpt lat="41.23866" lon="1.852335">
        <ele>165.0</ele>
        <time>2019-12-21T10:34:15.353Z</time>
      </trkpt>
      <trkpt lat="41.23866" lon="1.852335">
        <ele>165.0</ele>
        <time>2019-12-21T10:34:16.334Z</time>
      </trkpt>
      <trkpt lat="41.23869333" lon="1.85230167">
        <ele>165.0</ele>
        <time>2019-12-21T10:34:17.359Z</time>
      </trkpt>
      <trkpt lat="41.23869333" lon="1.85230167">
        <ele>165.0</ele>
        <time>2019-12-21T10:34:18.351Z</time>
      </trkpt>
      <trkpt lat="41.23874" lon="1.85225833">
        <ele>165.0</ele>
        <time>2019-12-21T10:34:19.367Z</time>
      </trkpt>
      <trkpt lat="41.23874" lon="1.85225833">
        <ele>165.0</ele>
        <time>2019-12-21T10:34:20.345Z</time>
      </trkpt>
      <trkpt lat="41.23877167" lon="1.85217667">
        <ele>165.0</ele>
        <time>2019-12-21T10:34:21.371Z</time>
      </trkpt>
      <trkpt lat="41.23877167" lon="1.85217667">
        <ele>165.0</ele>
        <time>2019-12-21T10:34:22.341Z</time>
      </trkpt>
      <trkpt lat="41.23880167" lon="1.85205333">
        <ele>165.0</ele>
        <time>2019-12-21T10:34:23.348Z</time>
      </trkpt>
      <trkpt lat="41.23881333" lon="1.85197">
        <ele>164.0</ele>
        <time>2019-12-21T10:34:24.370Z</time>
      </trkpt>
      <trkpt lat="41.23881333" lon="1.85197">
        <ele>164.0</ele>
        <time>2019-12-21T10:34:25.363Z</time>
      </trkpt>
      <trkpt lat="41.23882667" lon="1.85180833">
        <ele>164.0</ele>
        <time>2019-12-21T10:34:26.369Z</time>
      </trkpt>
      <trkpt lat="41.23882667" lon="1.85180833">
        <ele>164.0</ele>
        <time>2019-12-21T10:34:27.350Z</time>
      </trkpt>
      <trkpt lat="41.23880333" lon="1.85166167">
        <ele>164.0</ele>
        <time>2019-12-21T10:34:28.361Z</time>
      </trkpt>
      <trkpt lat="41.23877167" lon="1.85158667">
        <ele>164.0</ele>
        <time>2019-12-21T10:34:29.339Z</time>
      </trkpt>
      <trkpt lat="41.23877167" lon="1.85158667">
        <ele>164.0</ele>
        <time>2019-12-21T10:34:30.366Z</time>
      </trkpt>
      <trkpt lat="41.23867333" lon="1.85142667">
        <ele>164.0</ele>
        <time>2019-12-21T10:34:31.362Z</time>
      </trkpt>
      <trkpt lat="41.23867333" lon="1.85142667">
        <ele>164.0</ele>
        <time>2019-12-21T10:34:32.349Z</time>
      </trkpt>
      <trkpt lat="41.23854167" lon="1.85129667">
        <ele>163.0</ele>
        <time>2019-12-21T10:34:33.355Z</time>
      </trkpt>
      <trkpt lat="41.23847333" lon="1.85121333">
        <ele>162.0</ele>
        <time>2019-12-21T10:34:34.348Z</time>
      </trkpt>
      <trkpt lat="41.23839667" lon="1.85111333">
        <ele>161.0</ele>
        <time>2019-12-21T10:34:35.372Z</time>
      </trkpt>
      <trkpt lat="41.23839667" lon="1.85111333">
        <ele>161.0</ele>
        <time>2019-12-21T10:34:36.353Z</time>
      </trkpt>
      <trkpt lat="41.23828833" lon="1.85084667">
        <ele>160.0</ele>
        <time>2019-12-21T10:34:37.364Z</time>
      </trkpt>
      <trkpt lat="41.23828833" lon="1.85084667">
        <ele>160.0</ele>
        <time>2019-12-21T10:34:38.369Z</time>
      </trkpt>
      <trkpt lat="41.23819833" lon="1.85058333">
        <ele>158.0</ele>
        <time>2019-12-21T10:34:39.341Z</time>
      </trkpt>
      <trkpt lat="41.23819833" lon="1.85058333">
        <ele>158.0</ele>
        <time>2019-12-21T10:34:40.348Z</time>
      </trkpt>
      <trkpt lat="41.23812167" lon="1.850395">
        <ele>156.0</ele>
        <time>2019-12-21T10:34:41.359Z</time>
      </trkpt>
      <trkpt lat="41.23812167" lon="1.850395">
        <ele>156.0</ele>
        <time>2019-12-21T10:34:42.347Z</time>
      </trkpt>
      <trkpt lat="41.238035" lon="1.85029833">
        <ele>155.0</ele>
        <time>2019-12-21T10:34:43.364Z</time>
      </trkpt>
      <trkpt lat="41.23798" lon="1.850275">
        <ele>154.0</ele>
        <time>2019-12-21T10:34:44.361Z</time>
      </trkpt>
      <trkpt lat="41.23798" lon="1.850275">
        <ele>154.0</ele>
        <time>2019-12-21T10:34:45.334Z</time>
      </trkpt>
      <trkpt lat="41.23787833" lon="1.850255">
        <ele>153.0</ele>
        <time>2019-12-21T10:34:46.339Z</time>
      </trkpt>
      <trkpt lat="41.23784167" lon="1.85025">
        <ele>153.0</ele>
        <time>2019-12-21T10:34:47.346Z</time>
      </trkpt>
      <trkpt lat="41.23784167" lon="1.85025">
        <ele>153.0</ele>
        <time>2019-12-21T10:34:48.347Z</time>
      </trkpt>
      <trkpt lat="41.237795" lon="1.85032167">
        <ele>152.0</ele>
        <time>2019-12-21T10:34:49.354Z</time>
      </trkpt>
      <trkpt lat="41.237795" lon="1.85032167">
        <ele>152.0</ele>
        <time>2019-12-21T10:34:50.371Z</time>
      </trkpt>
      <trkpt lat="41.23782833" lon="1.85035833">
        <ele>151.0</ele>
        <time>2019-12-21T10:34:51.361Z</time>
      </trkpt>
      <trkpt lat="41.23782833" lon="1.85035833">
        <ele>151.0</ele>
        <time>2019-12-21T10:34:52.351Z</time>
      </trkpt>
      <trkpt lat="41.237895" lon="1.85035333">
        <ele>149.0</ele>
        <time>2019-12-21T10:34:53.345Z</time>
      </trkpt>
      <trkpt lat="41.237895" lon="1.85035333">
        <ele>149.0</ele>
        <time>2019-12-21T10:34:54.353Z</time>
      </trkpt>
      <trkpt lat="41.23795667" lon="1.85035833">
        <ele>148.0</ele>
        <time>2019-12-21T10:34:55.361Z</time>
      </trkpt>
      <trkpt lat="41.23795667" lon="1.85035833">
        <ele>148.0</ele>
        <time>2019-12-21T10:34:56.343Z</time>
      </trkpt>
      <trkpt lat="41.23803" lon="1.85039667">
        <ele>147.0</ele>
        <time>2019-12-21T10:34:57.336Z</time>
      </trkpt>
      <trkpt lat="41.23803" lon="1.85039667">
        <ele>147.0</ele>
        <time>2019-12-21T10:34:58.371Z</time>
      </trkpt>
      <trkpt lat="41.23804833" lon="1.850475">
        <ele>146.0</ele>
        <time>2019-12-21T10:34:59.362Z</time>
      </trkpt>
      <trkpt lat="41.23804833" lon="1.850475">
        <ele>146.0</ele>
        <time>2019-12-21T10:35:00.362Z</time>
      </trkpt>
      <trkpt lat="41.23800833" lon="1.85052">
        <ele>145.0</ele>
        <time>2019-12-21T10:35:01.368Z</time>
      </trkpt>
      <trkpt lat="41.23800833" lon="1.85052">
        <ele>145.0</ele>
        <time>2019-12-21T10:35:02.348Z</time>
      </trkpt>
      <trkpt lat="41.23792333" lon="1.85051">
        <ele>144.0</ele>
        <time>2019-12-21T10:35:03.371Z</time>
      </trkpt>
      <trkpt lat="41.23792333" lon="1.85051">
        <ele>144.0</ele>
        <time>2019-12-21T10:35:04.334Z</time>
      </trkpt>
      <trkpt lat="41.23783833" lon="1.85054833">
        <ele>143.0</ele>
        <time>2019-12-21T10:35:05.339Z</time>
      </trkpt>
      <trkpt lat="41.23783833" lon="1.85054833">
        <ele>143.0</ele>
        <time>2019-12-21T10:35:06.340Z</time>
      </trkpt>
      <trkpt lat="41.23775667" lon="1.850635">
        <ele>142.0</ele>
        <time>2019-12-21T10:35:07.348Z</time>
      </trkpt>
      <trkpt lat="41.23775667" lon="1.850635">
        <ele>142.0</ele>
        <time>2019-12-21T10:35:08.344Z</time>
      </trkpt>
      <trkpt lat="41.23766333" lon="1.85072167">
        <ele>140.0</ele>
        <time>2019-12-21T10:35:09.349Z</time>
      </trkpt>
      <trkpt lat="41.23766333" lon="1.85072167">
        <ele>140.0</ele>
        <time>2019-12-21T10:35:10.372Z</time>
      </trkpt>
      <trkpt lat="41.23755167" lon="1.850825">
        <ele>138.0</ele>
        <time>2019-12-21T10:35:11.359Z</time>
      </trkpt>
      <trkpt lat="41.23755167" lon="1.850825">
        <ele>138.0</ele>
        <time>2019-12-21T10:35:12.363Z</time>
      </trkpt>
      <trkpt lat="41.23742833" lon="1.850905">
        <ele>136.0</ele>
        <time>2019-12-21T10:35:13.370Z</time>
      </trkpt>
      <trkpt lat="41.23742833" lon="1.850905">
        <ele>136.0</ele>
        <time>2019-12-21T10:35:14.353Z</time>
      </trkpt>
      <trkpt lat="41.23731" lon="1.85096833">
        <ele>134.0</ele>
        <time>2019-12-21T10:35:15.360Z</time>
      </trkpt>
      <trkpt lat="41.23731" lon="1.85096833">
        <ele>134.0</ele>
        <time>2019-12-21T10:35:16.372Z</time>
      </trkpt>
      <trkpt lat="41.237195" lon="1.85103">
        <ele>132.0</ele>
        <time>2019-12-21T10:35:17.339Z</time>
      </trkpt>
      <trkpt lat="41.237195" lon="1.85103">
        <ele>132.0</ele>
        <time>2019-12-21T10:35:18.339Z</time>
      </trkpt>
      <trkpt lat="41.23708" lon="1.85109667">
        <ele>130.0</ele>
        <time>2019-12-21T10:35:19.360Z</time>
      </trkpt>
      <trkpt lat="41.23708" lon="1.85109667">
        <ele>130.0</ele>
        <time>2019-12-21T10:35:20.372Z</time>
      </trkpt>
      <trkpt lat="41.23697167" lon="1.85118">
        <ele>128.0</ele>
        <time>2019-12-21T10:35:21.338Z</time>
      </trkpt>
      <trkpt lat="41.23697167" lon="1.85118">
        <ele>128.0</ele>
        <time>2019-12-21T10:35:22.349Z</time>
      </trkpt>
      <trkpt lat="41.236865" lon="1.85127667">
        <ele>126.0</ele>
        <time>2019-12-21T10:35:23.363Z</time>
      </trkpt>
      <trkpt lat="41.236865" lon="1.85127667">
        <ele>126.0</ele>
        <time>2019-12-21T10:35:24.370Z</time>
      </trkpt>
      <trkpt lat="41.23675667" lon="1.85138167">
        <ele>123.0</ele>
        <time>2019-12-21T10:35:25.336Z</time>
      </trkpt>
      <trkpt lat="41.23675667" lon="1.85138167">
        <ele>123.0</ele>
        <time>2019-12-21T10:35:26.358Z</time>
      </trkpt>
      <trkpt lat="41.236645" lon="1.851495">
        <ele>121.0</ele>
        <time>2019-12-21T10:35:27.360Z</time>
      </trkpt>
      <trkpt lat="41.23659333" lon="1.85155167">
        <ele>120.0</ele>
        <time>2019-12-21T10:35:28.352Z</time>
      </trkpt>
      <trkpt lat="41.23659333" lon="1.85155167">
        <ele>120.0</ele>
        <time>2019-12-21T10:35:29.358Z</time>
      </trkpt>
      <trkpt lat="41.236505" lon="1.85157667">
        <ele>118.0</ele>
        <time>2019-12-21T10:35:30.336Z</time>
      </trkpt>
      <trkpt lat="41.23648" lon="1.85153333">
        <ele>117.0</ele>
        <time>2019-12-21T10:35:31.366Z</time>
      </trkpt>
      <trkpt lat="41.23648" lon="1.85153333">
        <ele>117.0</ele>
        <time>2019-12-21T10:35:32.352Z</time>
      </trkpt>
      <trkpt lat="41.23650167" lon="1.85144333">
        <ele>115.0</ele>
        <time>2019-12-21T10:35:33.347Z</time>
      </trkpt>
      <trkpt lat="41.23650167" lon="1.85144333">
        <ele>115.0</ele>
        <time>2019-12-21T10:35:34.357Z</time>
      </trkpt>
      <trkpt lat="41.23652667" lon="1.85138333">
        <ele>115.0</ele>
        <time>2019-12-21T10:35:35.369Z</time>
      </trkpt>
      <trkpt lat="41.23652667" lon="1.85138333">
        <ele>115.0</ele>
        <time>2019-12-21T10:35:36.341Z</time>
      </trkpt>
      <trkpt lat="41.23656833" lon="1.85132333">
        <ele>114.0</ele>
        <time>2019-12-21T10:35:37.355Z</time>
      </trkpt>
      <trkpt lat="41.23656833" lon="1.85132333">
        <ele>114.0</ele>
        <time>2019-12-21T10:35:38.372Z</time>
      </trkpt>
      <trkpt lat="41.23662833" lon="1.85122667">
        <ele>114.0</ele>
        <time>2019-12-21T10:35:39.338Z</time>
      </trkpt>
      <trkpt lat="41.23662833" lon="1.85122667">
        <ele>114.0</ele>
        <time>2019-12-21T10:35:40.344Z</time>
      </trkpt>
      <trkpt lat="41.23669833" lon="1.85110833">
        <ele>113.0</ele>
        <time>2019-12-21T10:35:41.355Z</time>
      </trkpt>
      <trkpt lat="41.23669833" lon="1.85110833">
        <ele>113.0</ele>
        <time>2019-12-21T10:35:42.333Z</time>
      </trkpt>
      <trkpt lat="41.236765" lon="1.85096333">
        <ele>112.0</ele>
        <time>2019-12-21T10:35:43.370Z</time>
      </trkpt>
      <trkpt lat="41.23679333" lon="1.85088">
        <ele>112.0</ele>
        <time>2019-12-21T10:35:44.370Z</time>
      </trkpt>
      <trkpt lat="41.23679333" lon="1.85088">
        <ele>112.0</ele>
        <time>2019-12-21T10:35:45.364Z</time>
      </trkpt>
      <trkpt lat="41.23684667" lon="1.850685">
        <ele>110.0</ele>
        <time>2019-12-21T10:35:46.370Z</time>
      </trkpt>
      <trkpt lat="41.23687167" lon="1.85057667">
        <ele>109.0</ele>
        <time>2019-12-21T10:35:47.336Z</time>
      </trkpt>
      <trkpt lat="41.23687167" lon="1.85057667">
        <ele>109.0</ele>
        <time>2019-12-21T10:35:48.339Z</time>
      </trkpt>
      <trkpt lat="41.23691833" lon="1.850355">
        <ele>107.0</ele>
        <time>2019-12-21T10:35:49.345Z</time>
      </trkpt>
      <trkpt lat="41.23691833" lon="1.850355">
        <ele>107.0</ele>
        <time>2019-12-21T10:35:50.356Z</time>
      </trkpt>
      <trkpt lat="41.23696667" lon="1.85015833">
        <ele>104.0</ele>
        <time>2019-12-21T10:35:51.360Z</time>
      </trkpt>
      <trkpt lat="41.23696667" lon="1.85015833">
        <ele>104.0</ele>
        <time>2019-12-21T10:35:52.338Z</time>
      </trkpt>
      <trkpt lat="41.23702" lon="1.84997167">
        <ele>102.0</ele>
        <time>2019-12-21T10:35:53.349Z</time>
      </trkpt>
      <trkpt lat="41.23702" lon="1.84997167">
        <ele>102.0</ele>
        <time>2019-12-21T10:35:54.361Z</time>
      </trkpt>
      <trkpt lat="41.23705167" lon="1.84977333">
        <ele>100.0</ele>
        <time>2019-12-21T10:35:55.372Z</time>
      </trkpt>
      <trkpt lat="41.23705167" lon="1.84977333">
        <ele>100.0</ele>
        <time>2019-12-21T10:35:56.352Z</time>
      </trkpt>
      <trkpt lat="41.23703833" lon="1.84956667">
        <ele>98.0</ele>
        <time>2019-12-21T10:35:57.364Z</time>
      </trkpt>
      <trkpt lat="41.23703833" lon="1.84956667">
        <ele>98.0</ele>
        <time>2019-12-21T10:35:58.344Z</time>
      </trkpt>
      <trkpt lat="41.23699" lon="1.84939167">
        <ele>95.0</ele>
        <time>2019-12-21T10:35:59.359Z</time>
      </trkpt>
      <trkpt lat="41.23699" lon="1.84939167">
        <ele>95.0</ele>
        <time>2019-12-21T10:36:00.350Z</time>
      </trkpt>
      <trkpt lat="41.23688833" lon="1.8493">
        <ele>94.0</ele>
        <time>2019-12-21T10:36:01.356Z</time>
      </trkpt>
      <trkpt lat="41.23688833" lon="1.8493">
        <ele>94.0</ele>
        <time>2019-12-21T10:36:02.336Z</time>
      </trkpt>
      <trkpt lat="41.23676167" lon="1.84925333">
        <ele>91.0</ele>
        <time>2019-12-21T10:36:03.349Z</time>
      </trkpt>
      <trkpt lat="41.23676167" lon="1.84925333">
        <ele>91.0</ele>
        <time>2019-12-21T10:36:04.364Z</time>
      </trkpt>
      <trkpt lat="41.23660667" lon="1.84921">
        <ele>89.0</ele>
        <time>2019-12-21T10:36:05.370Z</time>
      </trkpt>
      <trkpt lat="41.23660667" lon="1.84921">
        <ele>89.0</ele>
        <time>2019-12-21T10:36:06.352Z</time>
      </trkpt>
      <trkpt lat="41.23642667" lon="1.84916">
        <ele>86.0</ele>
        <time>2019-12-21T10:36:07.365Z</time>
      </trkpt>
      <trkpt lat="41.23642667" lon="1.84916">
        <ele>86.0</ele>
        <time>2019-12-21T10:36:08.367Z</time>
      </trkpt>
      <trkpt lat="41.23625167" lon="1.84912">
        <ele>83.0</ele>
        <time>2019-12-21T10:36:09.334Z</time>
      </trkpt>
      <trkpt lat="41.23625167" lon="1.84912">
        <ele>83.0</ele>
        <time>2019-12-21T10:36:10.357Z</time>
      </trkpt>
      <trkpt lat="41.236105" lon="1.84907167">
        <ele>81.0</ele>
        <time>2019-12-21T10:36:11.359Z</time>
      </trkpt>
      <trkpt lat="41.236105" lon="1.84907167">
        <ele>81.0</ele>
        <time>2019-12-21T10:36:12.352Z</time>
      </trkpt>
      <trkpt lat="41.235995" lon="1.84900667">
        <ele>79.0</ele>
        <time>2019-12-21T10:36:13.364Z</time>
      </trkpt>
      <trkpt lat="41.235995" lon="1.84900667">
        <ele>79.0</ele>
        <time>2019-12-21T10:36:14.371Z</time>
      </trkpt>
      <trkpt lat="41.235965" lon="1.84889667">
        <ele>77.0</ele>
        <time>2019-12-21T10:36:15.349Z</time>
      </trkpt>
      <trkpt lat="41.235965" lon="1.84889667">
        <ele>77.0</ele>
        <time>2019-12-21T10:36:16.369Z</time>
      </trkpt>
      <trkpt lat="41.23600833" lon="1.84877167">
        <ele>76.0</ele>
        <time>2019-12-21T10:36:17.337Z</time>
      </trkpt>
      <trkpt lat="41.23600833" lon="1.84877167">
        <ele>76.0</ele>
        <time>2019-12-21T10:36:18.357Z</time>
      </trkpt>
      <trkpt lat="41.23606333" lon="1.848635">
        <ele>75.0</ele>
        <time>2019-12-21T10:36:19.348Z</time>
      </trkpt>
      <trkpt lat="41.23606333" lon="1.848635">
        <ele>75.0</ele>
        <time>2019-12-21T10:36:20.346Z</time>
      </trkpt>
      <trkpt lat="41.23611167" lon="1.84850167">
        <ele>73.0</ele>
        <time>2019-12-21T10:36:21.361Z</time>
      </trkpt>
      <trkpt lat="41.23611667" lon="1.84843167">
        <ele>73.0</ele>
        <time>2019-12-21T10:36:22.365Z</time>
      </trkpt>
      <trkpt lat="41.23611667" lon="1.84843167">
        <ele>73.0</ele>
        <time>2019-12-21T10:36:23.367Z</time>
      </trkpt>
      <trkpt lat="41.23607333" lon="1.848295">
        <ele>71.0</ele>
        <time>2019-12-21T10:36:24.334Z</time>
      </trkpt>
      <trkpt lat="41.23607333" lon="1.848295">
        <ele>71.0</ele>
        <time>2019-12-21T10:36:25.356Z</time>
      </trkpt>
      <trkpt lat="41.236005" lon="1.84817">
        <ele>70.0</ele>
        <time>2019-12-21T10:36:26.368Z</time>
      </trkpt>
      <trkpt lat="41.236005" lon="1.84817">
        <ele>70.0</ele>
        <time>2019-12-21T10:36:27.336Z</time>
      </trkpt>
      <trkpt lat="41.235945" lon="1.84804667">
        <ele>68.0</ele>
        <time>2019-12-21T10:36:28.343Z</time>
      </trkpt>
      <trkpt lat="41.235905" lon="1.84802833">
        <ele>67.0</ele>
        <time>2019-12-21T10:36:29.369Z</time>
      </trkpt>
      <trkpt lat="41.235905" lon="1.84802833">
        <ele>67.0</ele>
        <time>2019-12-21T10:36:30.335Z</time>
      </trkpt>
      <trkpt lat="41.235865" lon="1.848095">
        <ele>66.0</ele>
        <time>2019-12-21T10:36:31.350Z</time>
      </trkpt>
      <trkpt lat="41.235865" lon="1.848095">
        <ele>66.0</ele>
        <time>2019-12-21T10:36:32.372Z</time>
      </trkpt>
      <trkpt lat="41.23589333" lon="1.84820333">
        <ele>64.0</ele>
        <time>2019-12-21T10:36:33.360Z</time>
      </trkpt>
      <trkpt lat="41.23589333" lon="1.84820333">
        <ele>64.0</ele>
        <time>2019-12-21T10:36:34.350Z</time>
      </trkpt>
      <trkpt lat="41.23592" lon="1.84830667">
        <ele>63.0</ele>
        <time>2019-12-21T10:36:35.357Z</time>
      </trkpt>
      <trkpt lat="41.23592" lon="1.84830667">
        <ele>63.0</ele>
        <time>2019-12-21T10:36:36.341Z</time>
      </trkpt>
      <trkpt lat="41.23591667" lon="1.84837667">
        <ele>61.0</ele>
        <time>2019-12-21T10:36:37.363Z</time>
      </trkpt>
      <trkpt lat="41.23591667" lon="1.84837667">
        <ele>61.0</ele>
        <time>2019-12-21T10:36:38.350Z</time>
      </trkpt>
      <trkpt lat="41.23591833" lon="1.84841167">
        <ele>59.0</ele>
        <time>2019-12-21T10:36:39.356Z</time>
      </trkpt>
      <trkpt lat="41.23591833" lon="1.84841167">
        <ele>59.0</ele>
        <time>2019-12-21T10:36:40.336Z</time>
      </trkpt>
      <trkpt lat="41.23592667" lon="1.84841333">
        <ele>58.0</ele>
        <time>2019-12-21T10:36:41.363Z</time>
      </trkpt>
      <trkpt lat="41.23592667" lon="1.84841333">
        <ele>58.0</ele>
        <time>2019-12-21T10:36:42.342Z</time>
      </trkpt>
      <trkpt lat="41.23593167" lon="1.84841167">
        <ele>58.0</ele>
        <time>2019-12-21T10:36:43.346Z</time>
      </trkpt>
      <trkpt lat="41.23593167" lon="1.84841167">
        <ele>58.0</ele>
        <time>2019-12-21T10:36:44.368Z</time>
      </trkpt>
      <trkpt lat="41.23593167" lon="1.84846167">
        <ele>54.0</ele>
        <time>2019-12-21T10:36:45.369Z</time>
      </trkpt>
      <trkpt lat="41.23593167" lon="1.84846167">
        <ele>54.0</ele>
        <time>2019-12-21T10:36:46.340Z</time>
      </trkpt>
      <trkpt lat="41.23585" lon="1.84852">
        <ele>53.0</ele>
        <time>2019-12-21T10:36:47.366Z</time>
      </trkpt>
      <trkpt lat="41.23581833" lon="1.84854833">
        <ele>53.0</ele>
        <time>2019-12-21T10:36:48.354Z</time>
      </trkpt>
      <trkpt lat="41.23581833" lon="1.84854833">
        <ele>53.0</ele>
        <time>2019-12-21T10:36:49.350Z</time>
      </trkpt>
      <trkpt lat="41.23577667" lon="1.84861833">
        <ele>53.0</ele>
        <time>2019-12-21T10:36:50.338Z</time>
      </trkpt>
      <trkpt lat="41.23575667" lon="1.848655">
        <ele>53.0</ele>
        <time>2019-12-21T10:36:51.333Z</time>
      </trkpt>
      <trkpt lat="41.23575667" lon="1.848655">
        <ele>53.0</ele>
        <time>2019-12-21T10:36:52.351Z</time>
      </trkpt>
      <trkpt lat="41.23571" lon="1.84872833">
        <ele>53.0</ele>
        <time>2019-12-21T10:36:53.336Z</time>
      </trkpt>
      <trkpt lat="41.23571" lon="1.84872833">
        <ele>53.0</ele>
        <time>2019-12-21T10:36:54.361Z</time>
      </trkpt>
      <trkpt lat="41.23566167" lon="1.84880667">
        <ele>53.0</ele>
        <time>2019-12-21T10:36:55.363Z</time>
      </trkpt>
      <trkpt lat="41.23566167" lon="1.84880667">
        <ele>53.0</ele>
        <time>2019-12-21T10:36:56.356Z</time>
      </trkpt>
      <trkpt lat="41.23562167" lon="1.848895">
        <ele>53.0</ele>
        <time>2019-12-21T10:36:57.362Z</time>
      </trkpt>
      <trkpt lat="41.23560333" lon="1.84894333">
        <ele>53.0</ele>
        <time>2019-12-21T10:36:58.368Z</time>
      </trkpt>
      <trkpt lat="41.23560333" lon="1.84894333">
        <ele>53.0</ele>
        <time>2019-12-21T10:36:59.333Z</time>
      </trkpt>
      <trkpt lat="41.23558833" lon="1.84905833">
        <ele>53.0</ele>
        <time>2019-12-21T10:37:00.339Z</time>
      </trkpt>
      <trkpt lat="41.235595" lon="1.84912167">
        <ele>53.0</ele>
        <time>2019-12-21T10:37:01.379Z</time>
      </trkpt>
      <trkpt lat="41.235595" lon="1.84912167">
        <ele>53.0</ele>
        <time>2019-12-21T10:37:02.344Z</time>
      </trkpt>
      <trkpt lat="41.23564167" lon="1.84924333">
        <ele>53.0</ele>
        <time>2019-12-21T10:37:03.350Z</time>
      </trkpt>
      <trkpt lat="41.23568" lon="1.84929667">
        <ele>53.0</ele>
        <time>2019-12-21T10:37:04.335Z</time>
      </trkpt>
      <trkpt lat="41.23568" lon="1.84929667">
        <ele>53.0</ele>
        <time>2019-12-21T10:37:05.333Z</time>
      </trkpt>
      <trkpt lat="41.23577667" lon="1.84939333">
        <ele>52.0</ele>
        <time>2019-12-21T10:37:06.339Z</time>
      </trkpt>
      <trkpt lat="41.23577667" lon="1.84939333">
        <ele>52.0</ele>
        <time>2019-12-21T10:37:07.358Z</time>
      </trkpt>
      <trkpt lat="41.23589333" lon="1.84947667">
        <ele>52.0</ele>
        <time>2019-12-21T10:37:08.336Z</time>
      </trkpt>
      <trkpt lat="41.23589333" lon="1.84947667">
        <ele>52.0</ele>
        <time>2019-12-21T10:37:09.341Z</time>
      </trkpt>
      <trkpt lat="41.23601167" lon="1.84954667">
        <ele>51.0</ele>
        <time>2019-12-21T10:37:10.347Z</time>
      </trkpt>
      <trkpt lat="41.23601167" lon="1.84954667">
        <ele>51.0</ele>
        <time>2019-12-21T10:37:11.366Z</time>
      </trkpt>
      <trkpt lat="41.236125" lon="1.84962167">
        <ele>50.0</ele>
        <time>2019-12-21T10:37:12.336Z</time>
      </trkpt>
      <trkpt lat="41.236125" lon="1.84962167">
        <ele>50.0</ele>
        <time>2019-12-21T10:37:13.359Z</time>
      </trkpt>
      <trkpt lat="41.23621167" lon="1.84976167">
        <ele>49.0</ele>
        <time>2019-12-21T10:37:14.365Z</time>
      </trkpt>
      <trkpt lat="41.23621833" lon="1.84985333">
        <ele>48.0</ele>
        <time>2019-12-21T10:37:15.345Z</time>
      </trkpt>
      <trkpt lat="41.23621833" lon="1.84985333">
        <ele>48.0</ele>
        <time>2019-12-21T10:37:16.364Z</time>
      </trkpt>
      <trkpt lat="41.236165" lon="1.85002667">
        <ele>48.0</ele>
        <time>2019-12-21T10:37:17.370Z</time>
      </trkpt>
      <trkpt lat="41.236115" lon="1.85009833">
        <ele>47.0</ele>
        <time>2019-12-21T10:37:18.377Z</time>
      </trkpt>
      <trkpt lat="41.236115" lon="1.85009833">
        <ele>47.0</ele>
        <time>2019-12-21T10:37:19.334Z</time>
      </trkpt>
      <trkpt lat="41.23597667" lon="1.85019333">
        <ele>47.0</ele>
        <time>2019-12-21T10:37:20.340Z</time>
      </trkpt>
      <trkpt lat="41.23597667" lon="1.85019333">
        <ele>47.0</ele>
        <time>2019-12-21T10:37:21.358Z</time>
      </trkpt>
      <trkpt lat="41.23582667" lon="1.85026667">
        <ele>46.0</ele>
        <time>2019-12-21T10:37:22.336Z</time>
      </trkpt>
      <trkpt lat="41.23582667" lon="1.85026667">
        <ele>46.0</ele>
        <time>2019-12-21T10:37:23.350Z</time>
      </trkpt>
      <trkpt lat="41.23568833" lon="1.850355">
        <ele>45.0</ele>
        <time>2019-12-21T10:37:24.356Z</time>
      </trkpt>
      <trkpt lat="41.23568833" lon="1.850355">
        <ele>45.0</ele>
        <time>2019-12-21T10:37:25.345Z</time>
      </trkpt>
      <trkpt lat="41.23555333" lon="1.85046">
        <ele>44.0</ele>
        <time>2019-12-21T10:37:26.340Z</time>
      </trkpt>
      <trkpt lat="41.23555333" lon="1.85046">
        <ele>44.0</ele>
        <time>2019-12-21T10:37:27.346Z</time>
      </trkpt>
      <trkpt lat="41.23543333" lon="1.85059167">
        <ele>44.0</ele>
        <time>2019-12-21T10:37:28.362Z</time>
      </trkpt>
      <trkpt lat="41.23538833" lon="1.85067333">
        <ele>43.0</ele>
        <time>2019-12-21T10:37:29.350Z</time>
      </trkpt>
      <trkpt lat="41.23538833" lon="1.85067333">
        <ele>43.0</ele>
        <time>2019-12-21T10:37:30.342Z</time>
      </trkpt>
      <trkpt lat="41.23534667" lon="1.85087833">
        <ele>42.0</ele>
        <time>2019-12-21T10:37:31.354Z</time>
      </trkpt>
      <trkpt lat="41.23534667" lon="1.85087833">
        <ele>42.0</ele>
        <time>2019-12-21T10:37:32.335Z</time>
      </trkpt>
      <trkpt lat="41.23534667" lon="1.85110667">
        <ele>41.0</ele>
        <time>2019-12-21T10:37:33.342Z</time>
      </trkpt>
      <trkpt lat="41.23534667" lon="1.85110667">
        <ele>41.0</ele>
        <time>2019-12-21T10:37:34.369Z</time>
      </trkpt>
      <trkpt lat="41.23535333" lon="1.85134333">
        <ele>41.0</ele>
        <time>2019-12-21T10:37:35.337Z</time>
      </trkpt>
      <trkpt lat="41.23535333" lon="1.85134333">
        <ele>41.0</ele>
        <time>2019-12-21T10:37:36.355Z</time>
      </trkpt>
      <trkpt lat="41.23537833" lon="1.851575">
        <ele>40.0</ele>
        <time>2019-12-21T10:37:37.336Z</time>
      </trkpt>
      <trkpt lat="41.23537833" lon="1.851575">
        <ele>40.0</ele>
        <time>2019-12-21T10:37:38.349Z</time>
      </trkpt>
      <trkpt lat="41.23540667" lon="1.85180833">
        <ele>39.0</ele>
        <time>2019-12-21T10:37:39.355Z</time>
      </trkpt>
      <trkpt lat="41.23540667" lon="1.85180833">
        <ele>39.0</ele>
        <time>2019-12-21T10:37:40.335Z</time>
      </trkpt>
      <trkpt lat="41.235375" lon="1.85201167">
        <ele>38.0</ele>
        <time>2019-12-21T10:37:41.335Z</time>
      </trkpt>
      <trkpt lat="41.235375" lon="1.85201167">
        <ele>38.0</ele>
        <time>2019-12-21T10:37:42.371Z</time>
      </trkpt>
      <trkpt lat="41.23525833" lon="1.85215833">
        <ele>37.0</ele>
        <time>2019-12-21T10:37:43.340Z</time>
      </trkpt>
      <trkpt lat="41.23518333" lon="1.85221333">
        <ele>37.0</ele>
        <time>2019-12-21T10:37:44.346Z</time>
      </trkpt>
      <trkpt lat="41.23518333" lon="1.85221333">
        <ele>37.0</ele>
        <time>2019-12-21T10:37:45.368Z</time>
      </trkpt>
      <trkpt lat="41.235055" lon="1.852375">
        <ele>37.0</ele>
        <time>2019-12-21T10:37:46.337Z</time>
      </trkpt>
      <trkpt lat="41.235055" lon="1.852375">
        <ele>37.0</ele>
        <time>2019-12-21T10:37:47.355Z</time>
      </trkpt>
      <trkpt lat="41.23500833" lon="1.85259667">
        <ele>37.0</ele>
        <time>2019-12-21T10:37:48.335Z</time>
      </trkpt>
      <trkpt lat="41.23500833" lon="1.85259667">
        <ele>37.0</ele>
        <time>2019-12-21T10:37:49.367Z</time>
      </trkpt>
      <trkpt lat="41.23500833" lon="1.85283">
        <ele>37.0</ele>
        <time>2019-12-21T10:37:50.333Z</time>
      </trkpt>
      <trkpt lat="41.23500833" lon="1.85283">
        <ele>37.0</ele>
        <time>2019-12-21T10:37:51.353Z</time>
      </trkpt>
      <trkpt lat="41.23504333" lon="1.853055">
        <ele>37.0</ele>
        <time>2019-12-21T10:37:52.368Z</time>
      </trkpt>
      <trkpt lat="41.23507" lon="1.853165">
        <ele>37.0</ele>
        <time>2019-12-21T10:37:53.349Z</time>
      </trkpt>
      <trkpt lat="41.23507" lon="1.853165">
        <ele>37.0</ele>
        <time>2019-12-21T10:37:54.348Z</time>
      </trkpt>
      <trkpt lat="41.235125" lon="1.85338833">
        <ele>36.0</ele>
        <time>2019-12-21T10:37:55.366Z</time>
      </trkpt>
      <trkpt lat="41.235125" lon="1.85338833">
        <ele>36.0</ele>
        <time>2019-12-21T10:37:56.351Z</time>
      </trkpt>
      <trkpt lat="41.23518167" lon="1.85360833">
        <ele>36.0</ele>
        <time>2019-12-21T10:37:57.360Z</time>
      </trkpt>
      <trkpt lat="41.23520833" lon="1.85372">
        <ele>36.0</ele>
        <time>2019-12-21T10:37:58.348Z</time>
      </trkpt>
      <trkpt lat="41.23523667" lon="1.85383">
        <ele>37.0</ele>
        <time>2019-12-21T10:37:59.369Z</time>
      </trkpt>
      <trkpt lat="41.23523667" lon="1.85383">
        <ele>37.0</ele>
        <time>2019-12-21T10:38:00.349Z</time>
      </trkpt>
      <trkpt lat="41.23529833" lon="1.85404667">
        <ele>36.0</ele>
        <time>2019-12-21T10:38:01.355Z</time>
      </trkpt>
      <trkpt lat="41.23529833" lon="1.85404667">
        <ele>36.0</ele>
        <time>2019-12-21T10:38:02.335Z</time>
      </trkpt>
      <trkpt lat="41.23536333" lon="1.85426333">
        <ele>36.0</ele>
        <time>2019-12-21T10:38:03.372Z</time>
      </trkpt>
      <trkpt lat="41.23536333" lon="1.85426333">
        <ele>36.0</ele>
        <time>2019-12-21T10:38:04.366Z</time>
      </trkpt>
      <trkpt lat="41.23543167" lon="1.85448167">
        <ele>35.0</ele>
        <time>2019-12-21T10:38:05.336Z</time>
      </trkpt>
      <trkpt lat="41.23546667" lon="1.85459333">
        <ele>35.0</ele>
        <time>2019-12-21T10:38:06.367Z</time>
      </trkpt>
      <trkpt lat="41.23546667" lon="1.85459333">
        <ele>35.0</ele>
        <time>2019-12-21T10:38:07.355Z</time>
      </trkpt>
      <trkpt lat="41.23554667" lon="1.854795">
        <ele>35.0</ele>
        <time>2019-12-21T10:38:08.362Z</time>
      </trkpt>
      <trkpt lat="41.23561" lon="1.85487167">
        <ele>35.0</ele>
        <time>2019-12-21T10:38:09.336Z</time>
      </trkpt>
      <trkpt lat="41.23568833" lon="1.854915">
        <ele>35.0</ele>
        <time>2019-12-21T10:38:10.368Z</time>
      </trkpt>
      <trkpt lat="41.23568833" lon="1.854915">
        <ele>35.0</ele>
        <time>2019-12-21T10:38:11.349Z</time>
      </trkpt>
      <trkpt lat="41.23585" lon="1.85490167">
        <ele>36.0</ele>
        <time>2019-12-21T10:38:12.335Z</time>
      </trkpt>
      <trkpt lat="41.23585" lon="1.85490167">
        <ele>36.0</ele>
        <time>2019-12-21T10:38:13.333Z</time>
      </trkpt>
      <trkpt lat="41.23600667" lon="1.85483667">
        <ele>36.0</ele>
        <time>2019-12-21T10:38:14.345Z</time>
      </trkpt>
      <trkpt lat="41.23600667" lon="1.85483667">
        <ele>36.0</ele>
        <time>2019-12-21T10:38:15.359Z</time>
      </trkpt>
      <trkpt lat="41.23614667" lon="1.854725">
        <ele>37.0</ele>
        <time>2019-12-21T10:38:16.334Z</time>
      </trkpt>
      <trkpt lat="41.23622167" lon="1.854675">
        <ele>37.0</ele>
        <time>2019-12-21T10:38:17.337Z</time>
      </trkpt>
      <trkpt lat="41.23622167" lon="1.854675">
        <ele>37.0</ele>
        <time>2019-12-21T10:38:18.355Z</time>
      </trkpt>
      <trkpt lat="41.236365" lon="1.85467833">
        <ele>37.0</ele>
        <time>2019-12-21T10:38:19.336Z</time>
      </trkpt>
      <trkpt lat="41.236365" lon="1.85467833">
        <ele>37.0</ele>
        <time>2019-12-21T10:38:20.363Z</time>
      </trkpt>
      <trkpt lat="41.23646667" lon="1.85482833">
        <ele>37.0</ele>
        <time>2019-12-21T10:38:21.371Z</time>
      </trkpt>
      <trkpt lat="41.23646667" lon="1.85482833">
        <ele>37.0</ele>
        <time>2019-12-21T10:38:22.351Z</time>
      </trkpt>
      <trkpt lat="41.23646" lon="1.85501833">
        <ele>36.0</ele>
        <time>2019-12-21T10:38:23.336Z</time>
      </trkpt>
      <trkpt lat="41.23646" lon="1.85501833">
        <ele>36.0</ele>
        <time>2019-12-21T10:38:24.358Z</time>
      </trkpt>
      <trkpt lat="41.23639833" lon="1.85519">
        <ele>35.0</ele>
        <time>2019-12-21T10:38:25.349Z</time>
      </trkpt>
      <trkpt lat="41.23639833" lon="1.85519">
        <ele>35.0</ele>
        <time>2019-12-21T10:38:26.349Z</time>
      </trkpt>
      <trkpt lat="41.23634667" lon="1.85536167">
        <ele>35.0</ele>
        <time>2019-12-21T10:38:27.374Z</time>
      </trkpt>
      <trkpt lat="41.23634667" lon="1.85536167">
        <ele>35.0</ele>
        <time>2019-12-21T10:38:28.333Z</time>
      </trkpt>
      <trkpt lat="41.236345" lon="1.85554">
        <ele>34.0</ele>
        <time>2019-12-21T10:38:29.347Z</time>
      </trkpt>
      <trkpt lat="41.236345" lon="1.85554">
        <ele>34.0</ele>
        <time>2019-12-21T10:38:30.367Z</time>
      </trkpt>
      <trkpt lat="41.23638" lon="1.85572667">
        <ele>33.0</ele>
        <time>2019-12-21T10:38:31.347Z</time>
      </trkpt>
      <trkpt lat="41.23638" lon="1.85572667">
        <ele>33.0</ele>
        <time>2019-12-21T10:38:32.342Z</time>
      </trkpt>
      <trkpt lat="41.236405" lon="1.85592167">
        <ele>33.0</ele>
        <time>2019-12-21T10:38:33.349Z</time>
      </trkpt>
      <trkpt lat="41.236405" lon="1.85592167">
        <ele>33.0</ele>
        <time>2019-12-21T10:38:34.347Z</time>
      </trkpt>
      <trkpt lat="41.236395" lon="1.85612167">
        <ele>32.0</ele>
        <time>2019-12-21T10:38:35.336Z</time>
      </trkpt>
      <trkpt lat="41.236395" lon="1.85612167">
        <ele>32.0</ele>
        <time>2019-12-21T10:38:36.369Z</time>
      </trkpt>
      <trkpt lat="41.23634167" lon="1.85631333">
        <ele>32.0</ele>
        <time>2019-12-21T10:38:37.334Z</time>
      </trkpt>
      <trkpt lat="41.23634167" lon="1.85631333">
        <ele>32.0</ele>
        <time>2019-12-21T10:38:38.352Z</time>
      </trkpt>
      <trkpt lat="41.23628667" lon="1.85650333">
        <ele>32.0</ele>
        <time>2019-12-21T10:38:39.370Z</time>
      </trkpt>
      <trkpt lat="41.23628667" lon="1.85650333">
        <ele>32.0</ele>
        <time>2019-12-21T10:38:40.342Z</time>
      </trkpt>
      <trkpt lat="41.236245" lon="1.85669833">
        <ele>32.0</ele>
        <time>2019-12-21T10:38:41.349Z</time>
      </trkpt>
      <trkpt lat="41.236245" lon="1.85669833">
        <ele>32.0</ele>
        <time>2019-12-21T10:38:42.368Z</time>
      </trkpt>
      <trkpt lat="41.23625333" lon="1.85689833">
        <ele>32.0</ele>
        <time>2019-12-21T10:38:43.337Z</time>
      </trkpt>
      <trkpt lat="41.23625333" lon="1.85689833">
        <ele>32.0</ele>
        <time>2019-12-21T10:38:44.369Z</time>
      </trkpt>
      <trkpt lat="41.23629333" lon="1.8571">
        <ele>31.0</ele>
        <time>2019-12-21T10:38:45.335Z</time>
      </trkpt>
      <trkpt lat="41.23629333" lon="1.8571">
        <ele>31.0</ele>
        <time>2019-12-21T10:38:46.362Z</time>
      </trkpt>
      <trkpt lat="41.23633" lon="1.85730667">
        <ele>31.0</ele>
        <time>2019-12-21T10:38:47.338Z</time>
      </trkpt>
      <trkpt lat="41.23633" lon="1.85730667">
        <ele>31.0</ele>
        <time>2019-12-21T10:38:48.360Z</time>
      </trkpt>
      <trkpt lat="41.23631667" lon="1.857515">
        <ele>32.0</ele>
        <time>2019-12-21T10:38:49.366Z</time>
      </trkpt>
      <trkpt lat="41.23631667" lon="1.857515">
        <ele>32.0</ele>
        <time>2019-12-21T10:38:50.346Z</time>
      </trkpt>
      <trkpt lat="41.23624667" lon="1.85770833">
        <ele>32.0</ele>
        <time>2019-12-21T10:38:51.338Z</time>
      </trkpt>
      <trkpt lat="41.23624667" lon="1.85770833">
        <ele>32.0</ele>
        <time>2019-12-21T10:38:52.335Z</time>
      </trkpt>
      <trkpt lat="41.23620167" lon="1.857915">
        <ele>33.0</ele>
        <time>2019-12-21T10:38:53.346Z</time>
      </trkpt>
      <trkpt lat="41.23620167" lon="1.857915">
        <ele>33.0</ele>
        <time>2019-12-21T10:38:54.369Z</time>
      </trkpt>
      <trkpt lat="41.23617833" lon="1.85813333">
        <ele>34.0</ele>
        <time>2019-12-21T10:38:55.364Z</time>
      </trkpt>
      <trkpt lat="41.23617833" lon="1.85813333">
        <ele>34.0</ele>
        <time>2019-12-21T10:38:56.349Z</time>
      </trkpt>
      <trkpt lat="41.23615167" lon="1.85836">
        <ele>34.0</ele>
        <time>2019-12-21T10:38:57.334Z</time>
      </trkpt>
      <trkpt lat="41.23615167" lon="1.85836">
        <ele>34.0</ele>
        <time>2019-12-21T10:38:58.360Z</time>
      </trkpt>
      <trkpt lat="41.23612333" lon="1.85858167">
        <ele>34.0</ele>
        <time>2019-12-21T10:38:59.366Z</time>
      </trkpt>
      <trkpt lat="41.23612333" lon="1.85858167">
        <ele>34.0</ele>
        <time>2019-12-21T10:39:00.346Z</time>
      </trkpt>
      <trkpt lat="41.23613333" lon="1.858805">
        <ele>33.0</ele>
        <time>2019-12-21T10:39:01.335Z</time>
      </trkpt>
      <trkpt lat="41.23613333" lon="1.858805">
        <ele>33.0</ele>
        <time>2019-12-21T10:39:02.341Z</time>
      </trkpt>
      <trkpt lat="41.23622333" lon="1.85901167">
        <ele>33.0</ele>
        <time>2019-12-21T10:39:03.349Z</time>
      </trkpt>
      <trkpt lat="41.23622333" lon="1.85901167">
        <ele>33.0</ele>
        <time>2019-12-21T10:39:04.357Z</time>
      </trkpt>
      <trkpt lat="41.23632" lon="1.85922667">
        <ele>31.0</ele>
        <time>2019-12-21T10:39:05.363Z</time>
      </trkpt>
      <trkpt lat="41.23632" lon="1.85922667">
        <ele>31.0</ele>
        <time>2019-12-21T10:39:06.349Z</time>
      </trkpt>
      <trkpt lat="41.23634833" lon="1.85947833">
        <ele>30.0</ele>
        <time>2019-12-21T10:39:07.346Z</time>
      </trkpt>
      <trkpt lat="41.23634833" lon="1.85947833">
        <ele>30.0</ele>
        <time>2019-12-21T10:39:08.349Z</time>
      </trkpt>
      <trkpt lat="41.23640333" lon="1.85971833">
        <ele>29.0</ele>
        <time>2019-12-21T10:39:09.355Z</time>
      </trkpt>
      <trkpt lat="41.23640333" lon="1.85971833">
        <ele>29.0</ele>
        <time>2019-12-21T10:39:10.334Z</time>
      </trkpt>
      <trkpt lat="41.23653" lon="1.85991">
        <ele>28.0</ele>
        <time>2019-12-21T10:39:11.343Z</time>
      </trkpt>
      <trkpt lat="41.23653" lon="1.85991">
        <ele>28.0</ele>
        <time>2019-12-21T10:39:12.347Z</time>
      </trkpt>
      <trkpt lat="41.23668" lon="1.86009333">
        <ele>26.0</ele>
        <time>2019-12-21T10:39:13.354Z</time>
      </trkpt>
      <trkpt lat="41.23668" lon="1.86009333">
        <ele>26.0</ele>
        <time>2019-12-21T10:39:14.335Z</time>
      </trkpt>
      <trkpt lat="41.23683667" lon="1.86028333">
        <ele>24.0</ele>
        <time>2019-12-21T10:39:15.337Z</time>
      </trkpt>
      <trkpt lat="41.23683667" lon="1.86028333">
        <ele>24.0</ele>
        <time>2019-12-21T10:39:16.356Z</time>
      </trkpt>
      <trkpt lat="41.236995" lon="1.86047333">
        <ele>22.0</ele>
        <time>2019-12-21T10:39:17.376Z</time>
      </trkpt>
      <trkpt lat="41.236995" lon="1.86047333">
        <ele>22.0</ele>
        <time>2019-12-21T10:39:18.350Z</time>
      </trkpt>
      <trkpt lat="41.23715667" lon="1.86061333">
        <ele>21.0</ele>
        <time>2019-12-21T10:39:19.356Z</time>
      </trkpt>
      <trkpt lat="41.23715667" lon="1.86061333">
        <ele>21.0</ele>
        <time>2019-12-21T10:39:20.335Z</time>
      </trkpt>
      <trkpt lat="41.23733" lon="1.86064833">
        <ele>20.0</ele>
        <time>2019-12-21T10:39:21.363Z</time>
      </trkpt>
      <trkpt lat="41.23733" lon="1.86064833">
        <ele>20.0</ele>
        <time>2019-12-21T10:39:22.369Z</time>
      </trkpt>
      <trkpt lat="41.23751833" lon="1.86059833">
        <ele>20.0</ele>
        <time>2019-12-21T10:39:23.335Z</time>
      </trkpt>
      <trkpt lat="41.23751833" lon="1.86059833">
        <ele>20.0</ele>
        <time>2019-12-21T10:39:24.333Z</time>
      </trkpt>
      <trkpt lat="41.23771333" lon="1.86053667">
        <ele>18.0</ele>
        <time>2019-12-21T10:39:25.341Z</time>
      </trkpt>
      <trkpt lat="41.23771333" lon="1.86053667">
        <ele>18.0</ele>
        <time>2019-12-21T10:39:26.362Z</time>
      </trkpt>
      <trkpt lat="41.23791167" lon="1.860545">
        <ele>16.0</ele>
        <time>2019-12-21T10:39:27.363Z</time>
      </trkpt>
      <trkpt lat="41.23791167" lon="1.860545">
        <ele>16.0</ele>
        <time>2019-12-21T10:39:28.358Z</time>
      </trkpt>
      <trkpt lat="41.23809167" lon="1.860665">
        <ele>15.0</ele>
        <time>2019-12-21T10:39:29.364Z</time>
      </trkpt>
      <trkpt lat="41.23809167" lon="1.860665">
        <ele>15.0</ele>
        <time>2019-12-21T10:39:30.344Z</time>
      </trkpt>
      <trkpt lat="41.23827" lon="1.86081333">
        <ele>14.0</ele>
        <time>2019-12-21T10:39:31.336Z</time>
      </trkpt>
      <trkpt lat="41.23827" lon="1.86081333">
        <ele>14.0</ele>
        <time>2019-12-21T10:39:32.349Z</time>
      </trkpt>
      <trkpt lat="41.23846" lon="1.86092833">
        <ele>12.0</ele>
        <time>2019-12-21T10:39:33.355Z</time>
      </trkpt>
      <trkpt lat="41.23856167" lon="1.86096667">
        <ele>12.0</ele>
        <time>2019-12-21T10:39:34.342Z</time>
      </trkpt>
      <trkpt lat="41.23856167" lon="1.86096667">
        <ele>12.0</ele>
        <time>2019-12-21T10:39:35.358Z</time>
      </trkpt>
      <trkpt lat="41.23877167" lon="1.86100167">
        <ele>11.0</ele>
        <time>2019-12-21T10:39:36.350Z</time>
      </trkpt>
      <trkpt lat="41.23877167" lon="1.86100167">
        <ele>11.0</ele>
        <time>2019-12-21T10:39:37.359Z</time>
      </trkpt>
      <trkpt lat="41.23898167" lon="1.860975">
        <ele>11.0</ele>
        <time>2019-12-21T10:39:38.335Z</time>
      </trkpt>
      <trkpt lat="41.23898167" lon="1.860975">
        <ele>11.0</ele>
        <time>2019-12-21T10:39:39.349Z</time>
      </trkpt>
      <trkpt lat="41.23916833" lon="1.86086833">
        <ele>11.0</ele>
        <time>2019-12-21T10:39:40.356Z</time>
      </trkpt>
      <trkpt lat="41.23925833" lon="1.8608">
        <ele>12.0</ele>
        <time>2019-12-21T10:39:41.341Z</time>
      </trkpt>
      <trkpt lat="41.23925833" lon="1.8608">
        <ele>12.0</ele>
        <time>2019-12-21T10:39:42.347Z</time>
      </trkpt>
      <trkpt lat="41.23943167" lon="1.86066167">
        <ele>11.0</ele>
        <time>2019-12-21T10:39:43.353Z</time>
      </trkpt>
      <trkpt lat="41.23943167" lon="1.86066167">
        <ele>11.0</ele>
        <time>2019-12-21T10:39:44.352Z</time>
      </trkpt>
      <trkpt lat="41.23960333" lon="1.86054167">
        <ele>11.0</ele>
        <time>2019-12-21T10:39:45.346Z</time>
      </trkpt>
      <trkpt lat="41.23960333" lon="1.86054167">
        <ele>11.0</ele>
        <time>2019-12-21T10:39:46.370Z</time>
      </trkpt>
      <trkpt lat="41.23978667" lon="1.86047667">
        <ele>10.0</ele>
        <time>2019-12-21T10:39:47.341Z</time>
      </trkpt>
      <trkpt lat="41.23978667" lon="1.86047667">
        <ele>10.0</ele>
        <time>2019-12-21T10:39:48.339Z</time>
      </trkpt>
      <trkpt lat="41.23993833" lon="1.86052167">
        <ele>9.0</ele>
        <time>2019-12-21T10:39:49.347Z</time>
      </trkpt>
      <trkpt lat="41.23993833" lon="1.86052167">
        <ele>9.0</ele>
        <time>2019-12-21T10:39:50.366Z</time>
      </trkpt>
      <trkpt lat="41.24005" lon="1.86066833">
        <ele>8.0</ele>
        <time>2019-12-21T10:39:51.359Z</time>
      </trkpt>
      <trkpt lat="41.24005" lon="1.86066833">
        <ele>8.0</ele>
        <time>2019-12-21T10:39:52.369Z</time>
      </trkpt>
      <trkpt lat="41.24015" lon="1.86085333">
        <ele>8.0</ele>
        <time>2019-12-21T10:39:53.334Z</time>
      </trkpt>
      <trkpt lat="41.24015" lon="1.86085333">
        <ele>8.0</ele>
        <time>2019-12-21T10:39:54.351Z</time>
      </trkpt>
      <trkpt lat="41.24024167" lon="1.86103167">
        <ele>8.0</ele>
        <time>2019-12-21T10:39:55.377Z</time>
      </trkpt>
      <trkpt lat="41.24024167" lon="1.86103167">
        <ele>8.0</ele>
        <time>2019-12-21T10:39:56.349Z</time>
      </trkpt>
      <trkpt lat="41.24032167" lon="1.86119833">
        <ele>9.0</ele>
        <time>2019-12-21T10:39:57.356Z</time>
      </trkpt>
      <trkpt lat="41.24032167" lon="1.86119833">
        <ele>9.0</ele>
        <time>2019-12-21T10:39:58.357Z</time>
      </trkpt>
      <trkpt lat="41.240385" lon="1.86134833">
        <ele>9.0</ele>
        <time>2019-12-21T10:39:59.335Z</time>
      </trkpt>
      <trkpt lat="41.240385" lon="1.86134833">
        <ele>9.0</ele>
        <time>2019-12-21T10:40:00.339Z</time>
      </trkpt>
      <trkpt lat="41.24044333" lon="1.86149">
        <ele>10.0</ele>
        <time>2019-12-21T10:40:01.345Z</time>
      </trkpt>
      <trkpt lat="41.24044333" lon="1.86149">
        <ele>10.0</ele>
        <time>2019-12-21T10:40:02.367Z</time>
      </trkpt>
      <trkpt lat="41.240495" lon="1.86162333">
        <ele>11.0</ele>
        <time>2019-12-21T10:40:03.336Z</time>
      </trkpt>
      <trkpt lat="41.240495" lon="1.86162333">
        <ele>11.0</ele>
        <time>2019-12-21T10:40:04.345Z</time>
      </trkpt>
      <trkpt lat="41.24054667" lon="1.861745">
        <ele>12.0</ele>
        <time>2019-12-21T10:40:05.352Z</time>
      </trkpt>
      <trkpt lat="41.24054667" lon="1.861745">
        <ele>12.0</ele>
        <time>2019-12-21T10:40:06.335Z</time>
      </trkpt>
      <trkpt lat="41.24059" lon="1.86185333">
        <ele>13.0</ele>
        <time>2019-12-21T10:40:07.336Z</time>
      </trkpt>
      <trkpt lat="41.24059" lon="1.86185333">
        <ele>13.0</ele>
        <time>2019-12-21T10:40:08.344Z</time>
      </trkpt>
      <trkpt lat="41.24062667" lon="1.86195167">
        <ele>13.0</ele>
        <time>2019-12-21T10:40:09.350Z</time>
      </trkpt>
      <trkpt lat="41.24062667" lon="1.86195167">
        <ele>13.0</ele>
        <time>2019-12-21T10:40:10.368Z</time>
      </trkpt>
      <trkpt lat="41.24066333" lon="1.86205333">
        <ele>14.0</ele>
        <time>2019-12-21T10:40:11.336Z</time>
      </trkpt>
      <trkpt lat="41.24066333" lon="1.86205333">
        <ele>14.0</ele>
        <time>2019-12-21T10:40:12.343Z</time>
      </trkpt>
      <trkpt lat="41.24070333" lon="1.86216">
        <ele>14.0</ele>
        <time>2019-12-21T10:40:13.349Z</time>
      </trkpt>
      <trkpt lat="41.24070333" lon="1.86216">
        <ele>14.0</ele>
        <time>2019-12-21T10:40:14.367Z</time>
      </trkpt>
      <trkpt lat="41.24072833" lon="1.86226">
        <ele>15.0</ele>
        <time>2019-12-21T10:40:15.376Z</time>
      </trkpt>
      <trkpt lat="41.24072833" lon="1.86226">
        <ele>15.0</ele>
        <time>2019-12-21T10:40:16.333Z</time>
      </trkpt>
      <trkpt lat="41.24075333" lon="1.86236167">
        <ele>15.0</ele>
        <time>2019-12-21T10:40:17.346Z</time>
      </trkpt>
      <trkpt lat="41.24075333" lon="1.86236167">
        <ele>15.0</ele>
        <time>2019-12-21T10:40:18.368Z</time>
      </trkpt>
      <trkpt lat="41.24078333" lon="1.86246667">
        <ele>15.0</ele>
        <time>2019-12-21T10:40:19.333Z</time>
      </trkpt>
      <trkpt lat="41.24078333" lon="1.86246667">
        <ele>15.0</ele>
        <time>2019-12-21T10:40:20.343Z</time>
      </trkpt>
      <trkpt lat="41.24081667" lon="1.86257">
        <ele>15.0</ele>
        <time>2019-12-21T10:40:21.349Z</time>
      </trkpt>
      <trkpt lat="41.24081667" lon="1.86257">
        <ele>15.0</ele>
        <time>2019-12-21T10:40:22.368Z</time>
      </trkpt>
      <trkpt lat="41.24084833" lon="1.86266667">
        <ele>16.0</ele>
        <time>2019-12-21T10:40:23.337Z</time>
      </trkpt>
      <trkpt lat="41.24084833" lon="1.86266667">
        <ele>16.0</ele>
        <time>2019-12-21T10:40:24.339Z</time>
      </trkpt>
      <trkpt lat="41.24086167" lon="1.862755">
        <ele>16.0</ele>
        <time>2019-12-21T10:40:25.346Z</time>
      </trkpt>
      <trkpt lat="41.24086167" lon="1.862755">
        <ele>16.0</ele>
        <time>2019-12-21T10:40:26.367Z</time>
      </trkpt>
      <trkpt lat="41.24084667" lon="1.86284">
        <ele>16.0</ele>
        <time>2019-12-21T10:40:27.335Z</time>
      </trkpt>
      <trkpt lat="41.24084667" lon="1.86284">
        <ele>16.0</ele>
        <time>2019-12-21T10:40:28.371Z</time>
      </trkpt>
      <trkpt lat="41.240785" lon="1.86289667">
        <ele>15.0</ele>
        <time>2019-12-21T10:40:29.338Z</time>
      </trkpt>
      <trkpt lat="41.240785" lon="1.86289667">
        <ele>15.0</ele>
        <time>2019-12-21T10:40:30.358Z</time>
      </trkpt>
      <trkpt lat="41.24070333" lon="1.86288167">
        <ele>15.0</ele>
        <time>2019-12-21T10:40:31.333Z</time>
      </trkpt>
      <trkpt lat="41.24070333" lon="1.86288167">
        <ele>15.0</ele>
        <time>2019-12-21T10:40:32.345Z</time>
      </trkpt>
      <trkpt lat="41.24064667" lon="1.86277167">
        <ele>14.0</ele>
        <time>2019-12-21T10:40:33.353Z</time>
      </trkpt>
      <trkpt lat="41.24064667" lon="1.86277167">
        <ele>14.0</ele>
        <time>2019-12-21T10:40:34.372Z</time>
      </trkpt>
      <trkpt lat="41.24061333" lon="1.86262667">
        <ele>14.0</ele>
        <time>2019-12-21T10:40:35.377Z</time>
      </trkpt>
      <trkpt lat="41.24061333" lon="1.86262667">
        <ele>14.0</ele>
        <time>2019-12-21T10:40:36.337Z</time>
      </trkpt>
      <trkpt lat="41.24054167" lon="1.86248833">
        <ele>13.0</ele>
        <time>2019-12-21T10:40:37.347Z</time>
      </trkpt>
      <trkpt lat="41.24049167" lon="1.86242167">
        <ele>13.0</ele>
        <time>2019-12-21T10:40:38.346Z</time>
      </trkpt>
      <trkpt lat="41.24049167" lon="1.86242167">
        <ele>13.0</ele>
        <time>2019-12-21T10:40:39.347Z</time>
      </trkpt>
      <trkpt lat="41.24037833" lon="1.86228667">
        <ele>12.0</ele>
        <time>2019-12-21T10:40:40.354Z</time>
      </trkpt>
      <trkpt lat="41.24032167" lon="1.86221667">
        <ele>12.0</ele>
        <time>2019-12-21T10:40:41.336Z</time>
      </trkpt>
      <trkpt lat="41.24032167" lon="1.86221667">
        <ele>12.0</ele>
        <time>2019-12-21T10:40:42.344Z</time>
      </trkpt>
      <trkpt lat="41.2402" lon="1.86207">
        <ele>10.0</ele>
        <time>2019-12-21T10:40:43.351Z</time>
      </trkpt>
      <trkpt lat="41.2402" lon="1.86207">
        <ele>10.0</ele>
        <time>2019-12-21T10:40:44.357Z</time>
      </trkpt>
      <trkpt lat="41.240075" lon="1.86192333">
        <ele>9.0</ele>
        <time>2019-12-21T10:40:45.363Z</time>
      </trkpt>
      <trkpt lat="41.240075" lon="1.86192333">
        <ele>9.0</ele>
        <time>2019-12-21T10:40:46.345Z</time>
      </trkpt>
      <trkpt lat="41.23995" lon="1.86176333">
        <ele>8.0</ele>
        <time>2019-12-21T10:40:47.336Z</time>
      </trkpt>
      <trkpt lat="41.23995" lon="1.86176333">
        <ele>8.0</ele>
        <time>2019-12-21T10:40:48.371Z</time>
      </trkpt>
      <trkpt lat="41.23984167" lon="1.86160667">
        <ele>6.0</ele>
        <time>2019-12-21T10:40:49.337Z</time>
      </trkpt>
      <trkpt lat="41.23984167" lon="1.86160667">
        <ele>6.0</ele>
        <time>2019-12-21T10:40:50.354Z</time>
      </trkpt>
      <trkpt lat="41.23978333" lon="1.86143333">
        <ele>5.0</ele>
        <time>2019-12-21T10:40:51.337Z</time>
      </trkpt>
      <trkpt lat="41.23978333" lon="1.86143333">
        <ele>5.0</ele>
        <time>2019-12-21T10:40:52.341Z</time>
      </trkpt>
      <trkpt lat="41.23977333" lon="1.86124">
        <ele>4.0</ele>
        <time>2019-12-21T10:40:53.352Z</time>
      </trkpt>
      <trkpt lat="41.23977333" lon="1.86124">
        <ele>4.0</ele>
        <time>2019-12-21T10:40:54.368Z</time>
      </trkpt>
      <trkpt lat="41.23980333" lon="1.86104167">
        <ele>2.0</ele>
        <time>2019-12-21T10:40:55.345Z</time>
      </trkpt>
      <trkpt lat="41.23980333" lon="1.86104167">
        <ele>2.0</ele>
        <time>2019-12-21T10:40:56.346Z</time>
      </trkpt>
      <trkpt lat="41.23990167" lon="1.86087333">
        <ele>1.0</ele>
        <time>2019-12-21T10:40:57.335Z</time>
      </trkpt>
      <trkpt lat="41.23990167" lon="1.86087333">
        <ele>1.0</ele>
        <time>2019-12-21T10:40:58.360Z</time>
      </trkpt>
      <trkpt lat="41.24003667" lon="1.86075333">
        <ele>1.0</ele>
        <time>2019-12-21T10:40:59.365Z</time>
      </trkpt>
      <trkpt lat="41.24003667" lon="1.86075333">
        <ele>1.0</ele>
        <time>2019-12-21T10:41:00.345Z</time>
      </trkpt>
      <trkpt lat="41.24018" lon="1.86067167">
        <ele>0.0</ele>
        <time>2019-12-21T10:41:01.346Z</time>
      </trkpt>
      <trkpt lat="41.24018" lon="1.86067167">
        <ele>0.0</ele>
        <time>2019-12-21T10:41:02.343Z</time>
      </trkpt>
      <trkpt lat="41.24032" lon="1.86059667">
        <ele>-1.0</ele>
        <time>2019-12-21T10:41:03.355Z</time>
      </trkpt>
      <trkpt lat="41.24038333" lon="1.86055667">
        <ele>-1.0</ele>
        <time>2019-12-21T10:41:04.356Z</time>
      </trkpt>
      <trkpt lat="41.24038333" lon="1.86055667">
        <ele>-1.0</ele>
        <time>2019-12-21T10:41:05.333Z</time>
      </trkpt>
      <trkpt lat="41.24048833" lon="1.86052333">
        <ele>-2.0</ele>
        <time>2019-12-21T10:41:06.348Z</time>
      </trkpt>
      <trkpt lat="41.240575" lon="1.860545">
        <ele>-2.0</ele>
        <time>2019-12-21T10:41:07.337Z</time>
      </trkpt>
      <trkpt lat="41.240575" lon="1.860545">
        <ele>-2.0</ele>
        <time>2019-12-21T10:41:08.358Z</time>
      </trkpt>
      <trkpt lat="41.24066333" lon="1.86050333">
        <ele>-3.0</ele>
        <time>2019-12-21T10:41:09.364Z</time>
      </trkpt>
      <trkpt lat="41.24066333" lon="1.86050333">
        <ele>-3.0</ele>
        <time>2019-12-21T10:41:10.372Z</time>
      </trkpt>
      <trkpt lat="41.24075333" lon="1.860455">
        <ele>-3.0</ele>
        <time>2019-12-21T10:41:11.376Z</time>
      </trkpt>
      <trkpt lat="41.24075333" lon="1.860455">
        <ele>-3.0</ele>
        <time>2019-12-21T10:41:12.350Z</time>
      </trkpt>
      <trkpt lat="41.24083" lon="1.86042167">
        <ele>-4.0</ele>
        <time>2019-12-21T10:41:13.356Z</time>
      </trkpt>
      <trkpt lat="41.240845" lon="1.860415">
        <ele>-4.0</ele>
        <time>2019-12-21T10:41:14.338Z</time>
      </trkpt>
      <trkpt lat="41.240845" lon="1.860415">
        <ele>-4.0</ele>
        <time>2019-12-21T10:41:15.352Z</time>
      </trkpt>
      <trkpt lat="41.24092667" lon="1.86040333">
        <ele>-4.0</ele>
        <time>2019-12-21T10:41:16.358Z</time>
      </trkpt>
      <trkpt lat="41.24096833" lon="1.86039333">
        <ele>-4.0</ele>
        <time>2019-12-21T10:41:17.333Z</time>
      </trkpt>
      <trkpt lat="41.24096833" lon="1.86039333">
        <ele>-4.0</ele>
        <time>2019-12-21T10:41:18.369Z</time>
      </trkpt>
      <trkpt lat="41.241075" lon="1.860405">
        <ele>-4.0</ele>
        <time>2019-12-21T10:41:19.335Z</time>
      </trkpt>
      <trkpt lat="41.24111667" lon="1.86039833">
        <ele>-4.0</ele>
        <time>2019-12-21T10:41:20.371Z</time>
      </trkpt>
      <trkpt lat="41.24111667" lon="1.86039833">
        <ele>-4.0</ele>
        <time>2019-12-21T10:41:21.364Z</time>
      </trkpt>
      <trkpt lat="41.24119833" lon="1.86038167">
        <ele>-4.0</ele>
        <time>2019-12-21T10:41:22.370Z</time>
      </trkpt>
      <trkpt lat="41.24122833" lon="1.86035833">
        <ele>-5.0</ele>
        <time>2019-12-21T10:41:23.364Z</time>
      </trkpt>
      <trkpt lat="41.24122833" lon="1.86035833">
        <ele>-5.0</ele>
        <time>2019-12-21T10:41:24.367Z</time>
      </trkpt>
      <trkpt lat="41.241275" lon="1.8603">
        <ele>-5.0</ele>
        <time>2019-12-21T10:41:25.333Z</time>
      </trkpt>
      <trkpt lat="41.241275" lon="1.8603">
        <ele>-5.0</ele>
        <time>2019-12-21T10:41:26.364Z</time>
      </trkpt>
      <trkpt lat="41.24133167" lon="1.86025333">
        <ele>-5.0</ele>
        <time>2019-12-21T10:41:27.360Z</time>
      </trkpt>
      <trkpt lat="41.241355" lon="1.86023">
        <ele>-5.0</ele>
        <time>2019-12-21T10:41:28.352Z</time>
      </trkpt>
      <trkpt lat="41.241355" lon="1.86023">
        <ele>-5.0</ele>
        <time>2019-12-21T10:41:29.372Z</time>
      </trkpt>
      <trkpt lat="41.24136333" lon="1.86011333">
        <ele>-5.0</ele>
        <time>2019-12-21T10:41:30.335Z</time>
      </trkpt>
      <trkpt lat="41.24136167" lon="1.860055">
        <ele>-4.0</ele>
        <time>2019-12-21T10:41:31.344Z</time>
      </trkpt>
      <trkpt lat="41.24136167" lon="1.860055">
        <ele>-4.0</ele>
        <time>2019-12-21T10:41:32.363Z</time>
      </trkpt>
      <trkpt lat="41.24128833" lon="1.85994333">
        <ele>-4.0</ele>
        <time>2019-12-21T10:41:33.340Z</time>
      </trkpt>
      <trkpt lat="41.24128833" lon="1.85994333">
        <ele>-4.0</ele>
        <time>2019-12-21T10:41:34.347Z</time>
      </trkpt>
      <trkpt lat="41.24126167" lon="1.85985333">
        <ele>-3.0</ele>
        <time>2019-12-21T10:41:35.355Z</time>
      </trkpt>
      <trkpt lat="41.24126167" lon="1.85985333">
        <ele>-3.0</ele>
        <time>2019-12-21T10:41:36.336Z</time>
      </trkpt>
      <trkpt lat="41.24125" lon="1.85975833">
        <ele>-3.0</ele>
        <time>2019-12-21T10:41:37.358Z</time>
      </trkpt>
      <trkpt lat="41.24124667" lon="1.85971">
        <ele>-2.0</ele>
        <time>2019-12-21T10:41:38.349Z</time>
      </trkpt>
      <trkpt lat="41.24124667" lon="1.85971">
        <ele>-2.0</ele>
        <time>2019-12-21T10:41:39.368Z</time>
      </trkpt>
      <trkpt lat="41.24124" lon="1.859605">
        <ele>-2.0</ele>
        <time>2019-12-21T10:41:40.346Z</time>
      </trkpt>
      <trkpt lat="41.241235" lon="1.85955167">
        <ele>-2.0</ele>
        <time>2019-12-21T10:41:41.362Z</time>
      </trkpt>
      <trkpt lat="41.241235" lon="1.85955167">
        <ele>-2.0</ele>
        <time>2019-12-21T10:41:42.345Z</time>
      </trkpt>
      <trkpt lat="41.24122167" lon="1.85944">
        <ele>-1.0</ele>
        <time>2019-12-21T10:41:43.374Z</time>
      </trkpt>
      <trkpt lat="41.24122167" lon="1.85944">
        <ele>-1.0</ele>
        <time>2019-12-21T10:41:44.337Z</time>
      </trkpt>
      <trkpt lat="41.241225" lon="1.85934">
        <ele>0.0</ele>
        <time>2019-12-21T10:41:45.346Z</time>
      </trkpt>
      <trkpt lat="41.24123667" lon="1.85929333">
        <ele>1.0</ele>
        <time>2019-12-21T10:41:46.356Z</time>
      </trkpt>
      <trkpt lat="41.241255" lon="1.85925167">
        <ele>1.0</ele>
        <time>2019-12-21T10:41:47.367Z</time>
      </trkpt>
      <trkpt lat="41.241255" lon="1.85925167">
        <ele>1.0</ele>
        <time>2019-12-21T10:41:48.345Z</time>
      </trkpt>
      <trkpt lat="41.24132" lon="1.85919333">
        <ele>1.0</ele>
        <time>2019-12-21T10:41:49.365Z</time>
      </trkpt>
      <trkpt lat="41.24132" lon="1.85919333">
        <ele>1.0</ele>
        <time>2019-12-21T10:41:50.343Z</time>
      </trkpt>
      <trkpt lat="41.24139" lon="1.85916167">
        <ele>1.0</ele>
        <time>2019-12-21T10:41:51.351Z</time>
      </trkpt>
      <trkpt lat="41.24139" lon="1.85916167">
        <ele>1.0</ele>
        <time>2019-12-21T10:41:52.336Z</time>
      </trkpt>
      <trkpt lat="41.24145667" lon="1.85912833">
        <ele>3.0</ele>
        <time>2019-12-21T10:41:53.368Z</time>
      </trkpt>
      <trkpt lat="41.24145667" lon="1.85912833">
        <ele>3.0</ele>
        <time>2019-12-21T10:41:54.341Z</time>
      </trkpt>
      <trkpt lat="41.24152167" lon="1.85909167">
        <ele>4.0</ele>
        <time>2019-12-21T10:41:55.352Z</time>
      </trkpt>
      <trkpt lat="41.24152167" lon="1.85909167">
        <ele>4.0</ele>
        <time>2019-12-21T10:41:56.333Z</time>
      </trkpt>
      <trkpt lat="41.24159" lon="1.85906167">
        <ele>6.0</ele>
        <time>2019-12-21T10:41:57.357Z</time>
      </trkpt>
      <trkpt lat="41.24159" lon="1.85906167">
        <ele>6.0</ele>
        <time>2019-12-21T10:41:58.349Z</time>
      </trkpt>
      <trkpt lat="41.24166" lon="1.85903333">
        <ele>8.0</ele>
        <time>2019-12-21T10:41:59.370Z</time>
      </trkpt>
      <trkpt lat="41.24166" lon="1.85903333">
        <ele>8.0</ele>
        <time>2019-12-21T10:42:00.340Z</time>
      </trkpt>
      <trkpt lat="41.241725" lon="1.85902167">
        <ele>9.0</ele>
        <time>2019-12-21T10:42:01.347Z</time>
      </trkpt>
      <trkpt lat="41.241725" lon="1.85902167">
        <ele>9.0</ele>
        <time>2019-12-21T10:42:02.369Z</time>
      </trkpt>
      <trkpt lat="41.241795" lon="1.85901">
        <ele>9.0</ele>
        <time>2019-12-21T10:42:03.336Z</time>
      </trkpt>
      <trkpt lat="41.241795" lon="1.85901">
        <ele>9.0</ele>
        <time>2019-12-21T10:42:04.346Z</time>
      </trkpt>
      <trkpt lat="41.24187333" lon="1.859">
        <ele>8.0</ele>
        <time>2019-12-21T10:42:05.353Z</time>
      </trkpt>
      <trkpt lat="41.24187333" lon="1.859">
        <ele>8.0</ele>
        <time>2019-12-21T10:42:06.372Z</time>
      </trkpt>
      <trkpt lat="41.241945" lon="1.85899167">
        <ele>8.0</ele>
        <time>2019-12-21T10:42:07.335Z</time>
      </trkpt>
      <trkpt lat="41.241945" lon="1.85899167">
        <ele>8.0</ele>
        <time>2019-12-21T10:42:08.358Z</time>
      </trkpt>
      <trkpt lat="41.24201667" lon="1.85898167">
        <ele>8.0</ele>
        <time>2019-12-21T10:42:09.364Z</time>
      </trkpt>
      <trkpt lat="41.24201667" lon="1.85898167">
        <ele>8.0</ele>
        <time>2019-12-21T10:42:10.345Z</time>
      </trkpt>
      <trkpt lat="41.24209" lon="1.85897167">
        <ele>8.0</ele>
        <time>2019-12-21T10:42:11.337Z</time>
      </trkpt>
      <trkpt lat="41.24209" lon="1.85897167">
        <ele>8.0</ele>
        <time>2019-12-21T10:42:12.349Z</time>
      </trkpt>
      <trkpt lat="41.24216167" lon="1.85897">
        <ele>9.0</ele>
        <time>2019-12-21T10:42:13.355Z</time>
      </trkpt>
      <trkpt lat="41.24216167" lon="1.85897">
        <ele>9.0</ele>
        <time>2019-12-21T10:42:14.355Z</time>
      </trkpt>
      <trkpt lat="41.24223333" lon="1.858975">
        <ele>9.0</ele>
        <time>2019-12-21T10:42:15.333Z</time>
      </trkpt>
      <trkpt lat="41.24223333" lon="1.858975">
        <ele>9.0</ele>
        <time>2019-12-21T10:42:16.358Z</time>
      </trkpt>
      <trkpt lat="41.24230333" lon="1.85898833">
        <ele>9.0</ele>
        <time>2019-12-21T10:42:17.364Z</time>
      </trkpt>
      <trkpt lat="41.24230333" lon="1.85898833">
        <ele>9.0</ele>
        <time>2019-12-21T10:42:18.356Z</time>
      </trkpt>
      <trkpt lat="41.24237333" lon="1.85901833">
        <ele>9.0</ele>
        <time>2019-12-21T10:42:19.333Z</time>
      </trkpt>
      <trkpt lat="41.24237333" lon="1.85901833">
        <ele>9.0</ele>
        <time>2019-12-21T10:42:20.338Z</time>
      </trkpt>
      <trkpt lat="41.242435" lon="1.85906833">
        <ele>10.0</ele>
        <time>2019-12-21T10:42:21.345Z</time>
      </trkpt>
      <trkpt lat="41.242435" lon="1.85906833">
        <ele>10.0</ele>
        <time>2019-12-21T10:42:22.368Z</time>
      </trkpt>
      <trkpt lat="41.24248667" lon="1.85913333">
        <ele>10.0</ele>
        <time>2019-12-21T10:42:23.337Z</time>
      </trkpt>
      <trkpt lat="41.24248667" lon="1.85913333">
        <ele>10.0</ele>
        <time>2019-12-21T10:42:24.337Z</time>
      </trkpt>
      <trkpt lat="41.24252667" lon="1.85921">
        <ele>10.0</ele>
        <time>2019-12-21T10:42:25.343Z</time>
      </trkpt>
      <trkpt lat="41.24252667" lon="1.85921">
        <ele>10.0</ele>
        <time>2019-12-21T10:42:26.369Z</time>
      </trkpt>
      <trkpt lat="41.24257" lon="1.85928333">
        <ele>10.0</ele>
        <time>2019-12-21T10:42:27.370Z</time>
      </trkpt>
      <trkpt lat="41.24257" lon="1.85928333">
        <ele>10.0</ele>
        <time>2019-12-21T10:42:28.353Z</time>
      </trkpt>
      <trkpt lat="41.242615" lon="1.85935">
        <ele>11.0</ele>
        <time>2019-12-21T10:42:29.359Z</time>
      </trkpt>
      <trkpt lat="41.242615" lon="1.85935">
        <ele>11.0</ele>
        <time>2019-12-21T10:42:30.340Z</time>
      </trkpt>
      <trkpt lat="41.24267" lon="1.85941">
        <ele>11.0</ele>
        <time>2019-12-21T10:42:31.338Z</time>
      </trkpt>
      <trkpt lat="41.24267" lon="1.85941">
        <ele>11.0</ele>
        <time>2019-12-21T10:42:32.370Z</time>
      </trkpt>
      <trkpt lat="41.24273167" lon="1.859455">
        <ele>11.0</ele>
        <time>2019-12-21T10:42:33.336Z</time>
      </trkpt>
      <trkpt lat="41.24273167" lon="1.859455">
        <ele>11.0</ele>
        <time>2019-12-21T10:42:34.355Z</time>
      </trkpt>
      <trkpt lat="41.24279333" lon="1.85948667">
        <ele>11.0</ele>
        <time>2019-12-21T10:42:35.376Z</time>
      </trkpt>
      <trkpt lat="41.24279333" lon="1.85948667">
        <ele>11.0</ele>
        <time>2019-12-21T10:42:36.368Z</time>
      </trkpt>
      <trkpt lat="41.24286167" lon="1.85951167">
        <ele>11.0</ele>
        <time>2019-12-21T10:42:37.334Z</time>
      </trkpt>
      <trkpt lat="41.24286167" lon="1.85951167">
        <ele>11.0</ele>
        <time>2019-12-21T10:42:38.361Z</time>
      </trkpt>
      <trkpt lat="41.24293167" lon="1.85953167">
        <ele>12.0</ele>
        <time>2019-12-21T10:42:39.367Z</time>
      </trkpt>
      <trkpt lat="41.24293167" lon="1.85953167">
        <ele>12.0</ele>
        <time>2019-12-21T10:42:40.346Z</time>
      </trkpt>
      <trkpt lat="41.243005" lon="1.85954333">
        <ele>11.0</ele>
        <time>2019-12-21T10:42:41.336Z</time>
      </trkpt>
      <trkpt lat="41.243005" lon="1.85954333">
        <ele>11.0</ele>
        <time>2019-12-21T10:42:42.346Z</time>
      </trkpt>
      <trkpt lat="41.24307833" lon="1.85955">
        <ele>12.0</ele>
        <time>2019-12-21T10:42:43.352Z</time>
      </trkpt>
      <trkpt lat="41.24307833" lon="1.85955">
        <ele>12.0</ele>
        <time>2019-12-21T10:42:44.351Z</time>
      </trkpt>
      <trkpt lat="41.24314667" lon="1.85956167">
        <ele>12.0</ele>
        <time>2019-12-21T10:42:45.336Z</time>
      </trkpt>
      <trkpt lat="41.24314667" lon="1.85956167">
        <ele>12.0</ele>
        <time>2019-12-21T10:42:46.365Z</time>
      </trkpt>
      <trkpt lat="41.243215" lon="1.85961167">
        <ele>13.0</ele>
        <time>2019-12-21T10:42:47.371Z</time>
      </trkpt>
      <trkpt lat="41.243215" lon="1.85961167">
        <ele>13.0</ele>
        <time>2019-12-21T10:42:48.344Z</time>
      </trkpt>
      <trkpt lat="41.24326667" lon="1.85969167">
        <ele>13.0</ele>
        <time>2019-12-21T10:42:49.352Z</time>
      </trkpt>
      <trkpt lat="41.24328833" lon="1.859735">
        <ele>13.0</ele>
        <time>2019-12-21T10:42:50.333Z</time>
      </trkpt>
      <trkpt lat="41.24328833" lon="1.859735">
        <ele>13.0</ele>
        <time>2019-12-21T10:42:51.369Z</time>
      </trkpt>
      <trkpt lat="41.24332667" lon="1.85983667">
        <ele>13.0</ele>
        <time>2019-12-21T10:42:52.346Z</time>
      </trkpt>
      <trkpt lat="41.24334333" lon="1.85989">
        <ele>13.0</ele>
        <time>2019-12-21T10:42:53.361Z</time>
      </trkpt>
      <trkpt lat="41.24334333" lon="1.85989">
        <ele>13.0</ele>
        <time>2019-12-21T10:42:54.338Z</time>
      </trkpt>
      <trkpt lat="41.24336167" lon="1.85997333">
        <ele>14.0</ele>
        <time>2019-12-21T10:42:55.346Z</time>
      </trkpt>
      <trkpt lat="41.24336167" lon="1.85997333">
        <ele>14.0</ele>
        <time>2019-12-21T10:42:56.366Z</time>
      </trkpt>
      <trkpt lat="41.24337333" lon="1.86003667">
        <ele>14.0</ele>
        <time>2019-12-21T10:42:57.334Z</time>
      </trkpt>
      <trkpt lat="41.24337333" lon="1.86003667">
        <ele>14.0</ele>
        <time>2019-12-21T10:42:58.340Z</time>
      </trkpt>
      <trkpt lat="41.243385" lon="1.860105">
        <ele>14.0</ele>
        <time>2019-12-21T10:42:59.349Z</time>
      </trkpt>
      <trkpt lat="41.243385" lon="1.860105">
        <ele>14.0</ele>
        <time>2019-12-21T10:43:00.370Z</time>
      </trkpt>
      <trkpt lat="41.243395" lon="1.86017167">
        <ele>15.0</ele>
        <time>2019-12-21T10:43:01.335Z</time>
      </trkpt>
      <trkpt lat="41.243395" lon="1.86017167">
        <ele>15.0</ele>
        <time>2019-12-21T10:43:02.338Z</time>
      </trkpt>
      <trkpt lat="41.24340667" lon="1.86023333">
        <ele>15.0</ele>
        <time>2019-12-21T10:43:03.345Z</time>
      </trkpt>
      <trkpt lat="41.24341" lon="1.86026167">
        <ele>15.0</ele>
        <time>2019-12-21T10:43:04.345Z</time>
      </trkpt>
      <trkpt lat="41.24341167" lon="1.86028833">
        <ele>15.0</ele>
        <time>2019-12-21T10:43:05.333Z</time>
      </trkpt>
      <trkpt lat="41.24341167" lon="1.86028833">
        <ele>15.0</ele>
        <time>2019-12-21T10:43:06.356Z</time>
      </trkpt>
      <trkpt lat="41.24341167" lon="1.86034">
        <ele>16.0</ele>
        <time>2019-12-21T10:43:07.376Z</time>
      </trkpt>
      <trkpt lat="41.243415" lon="1.86037">
        <ele>16.0</ele>
        <time>2019-12-21T10:43:08.347Z</time>
      </trkpt>
      <trkpt lat="41.243415" lon="1.86037">
        <ele>16.0</ele>
        <time>2019-12-21T10:43:09.353Z</time>
      </trkpt>
      <trkpt lat="41.24342667" lon="1.860435">
        <ele>16.0</ele>
        <time>2019-12-21T10:43:10.335Z</time>
      </trkpt>
      <trkpt lat="41.24343667" lon="1.86046333">
        <ele>16.0</ele>
        <time>2019-12-21T10:43:11.371Z</time>
      </trkpt>
      <trkpt lat="41.24343667" lon="1.86046333">
        <ele>16.0</ele>
        <time>2019-12-21T10:43:12.349Z</time>
      </trkpt>
      <trkpt lat="41.243455" lon="1.860525">
        <ele>16.0</ele>
        <time>2019-12-21T10:43:13.363Z</time>
      </trkpt>
      <trkpt lat="41.243455" lon="1.860525">
        <ele>16.0</ele>
        <time>2019-12-21T10:43:14.344Z</time>
      </trkpt>
      <trkpt lat="41.24347" lon="1.86059">
        <ele>16.0</ele>
        <time>2019-12-21T10:43:15.351Z</time>
      </trkpt>
      <trkpt lat="41.24348" lon="1.86062167">
        <ele>16.0</ele>
        <time>2019-12-21T10:43:16.334Z</time>
      </trkpt>
      <trkpt lat="41.243495" lon="1.86064833">
        <ele>16.0</ele>
        <time>2019-12-21T10:43:17.338Z</time>
      </trkpt>
      <trkpt lat="41.243495" lon="1.86064833">
        <ele>16.0</ele>
        <time>2019-12-21T10:43:18.347Z</time>
      </trkpt>
      <trkpt lat="41.24352833" lon="1.86068667">
        <ele>17.0</ele>
        <time>2019-12-21T10:43:19.336Z</time>
      </trkpt>
      <trkpt lat="41.24352833" lon="1.86068667">
        <ele>17.0</ele>
        <time>2019-12-21T10:43:20.344Z</time>
      </trkpt>
      <trkpt lat="41.24357667" lon="1.86070667">
        <ele>17.0</ele>
        <time>2019-12-21T10:43:21.350Z</time>
      </trkpt>
      <trkpt lat="41.24357667" lon="1.86070667">
        <ele>17.0</ele>
        <time>2019-12-21T10:43:22.334Z</time>
      </trkpt>
      <trkpt lat="41.24361833" lon="1.86073167">
        <ele>17.0</ele>
        <time>2019-12-21T10:43:23.342Z</time>
      </trkpt>
      <trkpt lat="41.24361833" lon="1.86073167">
        <ele>17.0</ele>
        <time>2019-12-21T10:43:24.350Z</time>
      </trkpt>
      <trkpt lat="41.24365833" lon="1.86074333">
        <ele>17.0</ele>
        <time>2019-12-21T10:43:25.356Z</time>
      </trkpt>
      <trkpt lat="41.24365833" lon="1.86074333">
        <ele>17.0</ele>
        <time>2019-12-21T10:43:26.337Z</time>
      </trkpt>
      <trkpt lat="41.24369667" lon="1.86074833">
        <ele>18.0</ele>
        <time>2019-12-21T10:43:27.336Z</time>
      </trkpt>
      <trkpt lat="41.24369667" lon="1.86074833">
        <ele>18.0</ele>
        <time>2019-12-21T10:43:28.372Z</time>
      </trkpt>
      <trkpt lat="41.24373333" lon="1.86075333">
        <ele>18.0</ele>
        <time>2019-12-21T10:43:29.338Z</time>
      </trkpt>
      <trkpt lat="41.24373333" lon="1.86075333">
        <ele>18.0</ele>
        <time>2019-12-21T10:43:30.357Z</time>
      </trkpt>
      <trkpt lat="41.24377833" lon="1.86075">
        <ele>19.0</ele>
        <time>2019-12-21T10:43:31.335Z</time>
      </trkpt>
      <trkpt lat="41.24377833" lon="1.86075">
        <ele>19.0</ele>
        <time>2019-12-21T10:43:32.351Z</time>
      </trkpt>
      <trkpt lat="41.24384" lon="1.86073833">
        <ele>19.0</ele>
        <time>2019-12-21T10:43:33.357Z</time>
      </trkpt>
      <trkpt lat="41.24387" lon="1.860735">
        <ele>19.0</ele>
        <time>2019-12-21T10:43:34.344Z</time>
      </trkpt>
      <trkpt lat="41.24387" lon="1.860735">
        <ele>19.0</ele>
        <time>2019-12-21T10:43:35.359Z</time>
      </trkpt>
      <trkpt lat="41.24392833" lon="1.86073333">
        <ele>19.0</ele>
        <time>2019-12-21T10:43:36.366Z</time>
      </trkpt>
      <trkpt lat="41.24392833" lon="1.86073333">
        <ele>19.0</ele>
        <time>2019-12-21T10:43:37.355Z</time>
      </trkpt>
      <trkpt lat="41.24399" lon="1.86073">
        <ele>19.0</ele>
        <time>2019-12-21T10:43:38.354Z</time>
      </trkpt>
      <trkpt lat="41.24399" lon="1.86073">
        <ele>19.0</ele>
        <time>2019-12-21T10:43:39.338Z</time>
      </trkpt>
      <trkpt lat="41.24405167" lon="1.86073333">
        <ele>19.0</ele>
        <time>2019-12-21T10:43:40.345Z</time>
      </trkpt>
      <trkpt lat="41.24408333" lon="1.86073667">
        <ele>19.0</ele>
        <time>2019-12-21T10:43:41.356Z</time>
      </trkpt>
      <trkpt lat="41.24408333" lon="1.86073667">
        <ele>19.0</ele>
        <time>2019-12-21T10:43:42.363Z</time>
      </trkpt>
      <trkpt lat="41.24414833" lon="1.86074667">
        <ele>19.0</ele>
        <time>2019-12-21T10:43:43.369Z</time>
      </trkpt>
      <trkpt lat="41.24414833" lon="1.86074667">
        <ele>19.0</ele>
        <time>2019-12-21T10:43:44.347Z</time>
      </trkpt>
      <trkpt lat="41.244215" lon="1.86076333">
        <ele>19.0</ele>
        <time>2019-12-21T10:43:45.345Z</time>
      </trkpt>
      <trkpt lat="41.24424667" lon="1.86077167">
        <ele>20.0</ele>
        <time>2019-12-21T10:43:46.359Z</time>
      </trkpt>
      <trkpt lat="41.24424667" lon="1.86077167">
        <ele>20.0</ele>
        <time>2019-12-21T10:43:47.339Z</time>
      </trkpt>
      <trkpt lat="41.24431167" lon="1.86078833">
        <ele>20.0</ele>
        <time>2019-12-21T10:43:48.343Z</time>
      </trkpt>
      <trkpt lat="41.24434333" lon="1.8608">
        <ele>20.0</ele>
        <time>2019-12-21T10:43:49.335Z</time>
      </trkpt>
      <trkpt lat="41.24434333" lon="1.8608">
        <ele>20.0</ele>
        <time>2019-12-21T10:43:50.355Z</time>
      </trkpt>
      <trkpt lat="41.24440833" lon="1.86082667">
        <ele>21.0</ele>
        <time>2019-12-21T10:43:51.358Z</time>
      </trkpt>
      <trkpt lat="41.24444" lon="1.86084167">
        <ele>21.0</ele>
        <time>2019-12-21T10:43:52.370Z</time>
      </trkpt>
      <trkpt lat="41.24447167" lon="1.860855">
        <ele>21.0</ele>
        <time>2019-12-21T10:43:53.352Z</time>
      </trkpt>
      <trkpt lat="41.24447167" lon="1.860855">
        <ele>21.0</ele>
        <time>2019-12-21T10:43:54.368Z</time>
      </trkpt>
      <trkpt lat="41.244535" lon="1.860885">
        <ele>21.0</ele>
        <time>2019-12-21T10:43:55.365Z</time>
      </trkpt>
      <trkpt lat="41.244535" lon="1.860885">
        <ele>21.0</ele>
        <time>2019-12-21T10:43:56.347Z</time>
      </trkpt>
      <trkpt lat="41.2446" lon="1.86090833">
        <ele>22.0</ele>
        <time>2019-12-21T10:43:57.354Z</time>
      </trkpt>
      <trkpt lat="41.2446" lon="1.86090833">
        <ele>22.0</ele>
        <time>2019-12-21T10:43:58.334Z</time>
      </trkpt>
      <trkpt lat="41.24465833" lon="1.86092833">
        <ele>23.0</ele>
        <time>2019-12-21T10:43:59.336Z</time>
      </trkpt>
      <trkpt lat="41.24465833" lon="1.86092833">
        <ele>23.0</ele>
        <time>2019-12-21T10:44:00.348Z</time>
      </trkpt>
      <trkpt lat="41.24471333" lon="1.86094667">
        <ele>23.0</ele>
        <time>2019-12-21T10:44:01.355Z</time>
      </trkpt>
      <trkpt lat="41.24473833" lon="1.86095667">
        <ele>23.0</ele>
        <time>2019-12-21T10:44:02.342Z</time>
      </trkpt>
      <trkpt lat="41.24473833" lon="1.86095667">
        <ele>23.0</ele>
        <time>2019-12-21T10:44:03.362Z</time>
      </trkpt>
      <trkpt lat="41.24479" lon="1.86097833">
        <ele>24.0</ele>
        <time>2019-12-21T10:44:04.369Z</time>
      </trkpt>
      <trkpt lat="41.24481333" lon="1.86099167">
        <ele>24.0</ele>
        <time>2019-12-21T10:44:05.369Z</time>
      </trkpt>
      <trkpt lat="41.24481333" lon="1.86099167">
        <ele>24.0</ele>
        <time>2019-12-21T10:44:06.334Z</time>
      </trkpt>
      <trkpt lat="41.24486333" lon="1.86100833">
        <ele>24.0</ele>
        <time>2019-12-21T10:44:07.348Z</time>
      </trkpt>
      <trkpt lat="41.24489" lon="1.86101833">
        <ele>25.0</ele>
        <time>2019-12-21T10:44:08.336Z</time>
      </trkpt>
      <trkpt lat="41.24489" lon="1.86101833">
        <ele>25.0</ele>
        <time>2019-12-21T10:44:09.372Z</time>
      </trkpt>
      <trkpt lat="41.24493833" lon="1.861035">
        <ele>25.0</ele>
        <time>2019-12-21T10:44:10.338Z</time>
      </trkpt>
      <trkpt lat="41.24496" lon="1.86104333">
        <ele>25.0</ele>
        <time>2019-12-21T10:44:11.382Z</time>
      </trkpt>
      <trkpt lat="41.24496" lon="1.86104333">
        <ele>25.0</ele>
        <time>2019-12-21T10:44:12.349Z</time>
      </trkpt>
      <trkpt lat="41.245005" lon="1.86106167">
        <ele>25.0</ele>
        <time>2019-12-21T10:44:13.355Z</time>
      </trkpt>
      <trkpt lat="41.245005" lon="1.86106167">
        <ele>25.0</ele>
        <time>2019-12-21T10:44:14.335Z</time>
      </trkpt>
      <trkpt lat="41.24505167" lon="1.86108167">
        <ele>26.0</ele>
        <time>2019-12-21T10:44:15.335Z</time>
      </trkpt>
      <trkpt lat="41.24505167" lon="1.86108167">
        <ele>26.0</ele>
        <time>2019-12-21T10:44:16.372Z</time>
      </trkpt>
      <trkpt lat="41.24509167" lon="1.86109167">
        <ele>26.0</ele>
        <time>2019-12-21T10:44:17.337Z</time>
      </trkpt>
      <trkpt lat="41.24511333" lon="1.86109833">
        <ele>26.0</ele>
        <time>2019-12-21T10:44:18.335Z</time>
      </trkpt>
      <trkpt lat="41.24511333" lon="1.86109833">
        <ele>26.0</ele>
        <time>2019-12-21T10:44:19.335Z</time>
      </trkpt>
      <trkpt lat="41.24516333" lon="1.86111333">
        <ele>27.0</ele>
        <time>2019-12-21T10:44:20.347Z</time>
      </trkpt>
      <trkpt lat="41.24516333" lon="1.86111333">
        <ele>27.0</ele>
        <time>2019-12-21T10:44:21.368Z</time>
      </trkpt>
      <trkpt lat="41.24519333" lon="1.86114667">
        <ele>28.0</ele>
        <time>2019-12-21T10:44:22.343Z</time>
      </trkpt>
      <trkpt lat="41.24519667" lon="1.86117">
        <ele>28.0</ele>
        <time>2019-12-21T10:44:23.333Z</time>
      </trkpt>
      <trkpt lat="41.24519667" lon="1.86117">
        <ele>28.0</ele>
        <time>2019-12-21T10:44:24.359Z</time>
      </trkpt>
      <trkpt lat="41.24522333" lon="1.86118">
        <ele>28.0</ele>
        <time>2019-12-21T10:44:25.365Z</time>
      </trkpt>
      <trkpt lat="41.24522333" lon="1.86118">
        <ele>28.0</ele>
        <time>2019-12-21T10:44:26.372Z</time>
      </trkpt>
      <trkpt lat="41.24525833" lon="1.861175">
        <ele>29.0</ele>
        <time>2019-12-21T10:44:27.338Z</time>
      </trkpt>
      <trkpt lat="41.24528" lon="1.86117667">
        <ele>29.0</ele>
        <time>2019-12-21T10:44:28.336Z</time>
      </trkpt>
      <trkpt lat="41.24528" lon="1.86117667">
        <ele>29.0</ele>
        <time>2019-12-21T10:44:29.372Z</time>
      </trkpt>
      <trkpt lat="41.24532333" lon="1.86117833">
        <ele>30.0</ele>
        <time>2019-12-21T10:44:30.338Z</time>
      </trkpt>
      <trkpt lat="41.24532333" lon="1.86117833">
        <ele>30.0</ele>
        <time>2019-12-21T10:44:31.358Z</time>
      </trkpt>
      <trkpt lat="41.24538" lon="1.86117833">
        <ele>30.0</ele>
        <time>2019-12-21T10:44:32.376Z</time>
      </trkpt>
      <trkpt lat="41.24538" lon="1.86117833">
        <ele>30.0</ele>
        <time>2019-12-21T10:44:33.345Z</time>
      </trkpt>
      <trkpt lat="41.24544333" lon="1.86116167">
        <ele>31.0</ele>
        <time>2019-12-21T10:44:34.352Z</time>
      </trkpt>
      <trkpt lat="41.24547" lon="1.86116">
        <ele>31.0</ele>
        <time>2019-12-21T10:44:35.375Z</time>
      </trkpt>
      <trkpt lat="41.24547" lon="1.86116">
        <ele>31.0</ele>
        <time>2019-12-21T10:44:36.347Z</time>
      </trkpt>
      <trkpt lat="41.24553333" lon="1.86118167">
        <ele>32.0</ele>
        <time>2019-12-21T10:44:37.354Z</time>
      </trkpt>
      <trkpt lat="41.24555167" lon="1.86119">
        <ele>33.0</ele>
        <time>2019-12-21T10:44:38.334Z</time>
      </trkpt>
      <trkpt lat="41.24555167" lon="1.86119">
        <ele>33.0</ele>
        <time>2019-12-21T10:44:39.333Z</time>
      </trkpt>
      <trkpt lat="41.24559333" lon="1.86121167">
        <ele>33.0</ele>
        <time>2019-12-21T10:44:40.375Z</time>
      </trkpt>
      <trkpt lat="41.24562167" lon="1.86122333">
        <ele>34.0</ele>
        <time>2019-12-21T10:44:41.357Z</time>
      </trkpt>
      <trkpt lat="41.24562167" lon="1.86122333">
        <ele>34.0</ele>
        <time>2019-12-21T10:44:42.347Z</time>
      </trkpt>
      <trkpt lat="41.24566167" lon="1.86125">
        <ele>35.0</ele>
        <time>2019-12-21T10:44:43.336Z</time>
      </trkpt>
      <trkpt lat="41.24566167" lon="1.86125">
        <ele>35.0</ele>
        <time>2019-12-21T10:44:44.353Z</time>
      </trkpt>
      <trkpt lat="41.24569833" lon="1.86126667">
        <ele>36.0</ele>
        <time>2019-12-21T10:44:45.371Z</time>
      </trkpt>
      <trkpt lat="41.24569833" lon="1.86126667">
        <ele>36.0</ele>
        <time>2019-12-21T10:44:46.353Z</time>
      </trkpt>
      <trkpt lat="41.24573833" lon="1.86128833">
        <ele>36.0</ele>
        <time>2019-12-21T10:44:47.335Z</time>
      </trkpt>
      <trkpt lat="41.24573833" lon="1.86128833">
        <ele>36.0</ele>
        <time>2019-12-21T10:44:48.353Z</time>
      </trkpt>
      <trkpt lat="41.245785" lon="1.86131667">
        <ele>37.0</ele>
        <time>2019-12-21T10:44:49.359Z</time>
      </trkpt>
      <trkpt lat="41.245785" lon="1.86131667">
        <ele>37.0</ele>
        <time>2019-12-21T10:44:50.339Z</time>
      </trkpt>
      <trkpt lat="41.24583167" lon="1.86132833">
        <ele>38.0</ele>
        <time>2019-12-21T10:44:51.336Z</time>
      </trkpt>
      <trkpt lat="41.24583167" lon="1.86132833">
        <ele>38.0</ele>
        <time>2019-12-21T10:44:52.359Z</time>
      </trkpt>
      <trkpt lat="41.24587" lon="1.86135333">
        <ele>38.0</ele>
        <time>2019-12-21T10:44:53.365Z</time>
      </trkpt>
      <trkpt lat="41.24587" lon="1.86135333">
        <ele>38.0</ele>
        <time>2019-12-21T10:44:54.343Z</time>
      </trkpt>
      <trkpt lat="41.24592" lon="1.86138167">
        <ele>39.0</ele>
        <time>2019-12-21T10:44:55.363Z</time>
      </trkpt>
      <trkpt lat="41.24592" lon="1.86138167">
        <ele>39.0</ele>
        <time>2019-12-21T10:44:56.348Z</time>
      </trkpt>
      <trkpt lat="41.24596" lon="1.86140667">
        <ele>39.0</ele>
        <time>2019-12-21T10:44:57.335Z</time>
      </trkpt>
      <trkpt lat="41.24596" lon="1.86140667">
        <ele>39.0</ele>
        <time>2019-12-21T10:44:58.345Z</time>
      </trkpt>
      <trkpt lat="41.24600167" lon="1.86142333">
        <ele>40.0</ele>
        <time>2019-12-21T10:44:59.352Z</time>
      </trkpt>
      <trkpt lat="41.24600167" lon="1.86142333">
        <ele>40.0</ele>
        <time>2019-12-21T10:45:00.372Z</time>
      </trkpt>
      <trkpt lat="41.24604167" lon="1.86144833">
        <ele>40.0</ele>
        <time>2019-12-21T10:45:01.336Z</time>
      </trkpt>
      <trkpt lat="41.24604167" lon="1.86144833">
        <ele>40.0</ele>
        <time>2019-12-21T10:45:02.364Z</time>
      </trkpt>
      <trkpt lat="41.246085" lon="1.861465">
        <ele>40.0</ele>
        <time>2019-12-21T10:45:03.371Z</time>
      </trkpt>
      <trkpt lat="41.246085" lon="1.861465">
        <ele>40.0</ele>
        <time>2019-12-21T10:45:04.352Z</time>
      </trkpt>
      <trkpt lat="41.24613167" lon="1.86148333">
        <ele>40.0</ele>
        <time>2019-12-21T10:45:05.338Z</time>
      </trkpt>
      <trkpt lat="41.24613167" lon="1.86148333">
        <ele>40.0</ele>
        <time>2019-12-21T10:45:06.366Z</time>
      </trkpt>
      <trkpt lat="41.24617833" lon="1.86149667">
        <ele>41.0</ele>
        <time>2019-12-21T10:45:07.373Z</time>
      </trkpt>
      <trkpt lat="41.24617833" lon="1.86149667">
        <ele>41.0</ele>
        <time>2019-12-21T10:45:08.356Z</time>
      </trkpt>
      <trkpt lat="41.24622167" lon="1.86152333">
        <ele>41.0</ele>
        <time>2019-12-21T10:45:09.344Z</time>
      </trkpt>
      <trkpt lat="41.24624" lon="1.86153667">
        <ele>41.0</ele>
        <time>2019-12-21T10:45:10.365Z</time>
      </trkpt>
      <trkpt lat="41.24626333" lon="1.86155">
        <ele>41.0</ele>
        <time>2019-12-21T10:45:11.349Z</time>
      </trkpt>
      <trkpt lat="41.24626333" lon="1.86155">
        <ele>41.0</ele>
        <time>2019-12-21T10:45:12.369Z</time>
      </trkpt>
      <trkpt lat="41.24631333" lon="1.86157833">
        <ele>41.0</ele>
        <time>2019-12-21T10:45:13.335Z</time>
      </trkpt>
      <trkpt lat="41.24631333" lon="1.86157833">
        <ele>41.0</ele>
        <time>2019-12-21T10:45:14.355Z</time>
      </trkpt>
      <trkpt lat="41.24636667" lon="1.86161333">
        <ele>41.0</ele>
        <time>2019-12-21T10:45:15.337Z</time>
      </trkpt>
      <trkpt lat="41.24636667" lon="1.86161333">
        <ele>41.0</ele>
        <time>2019-12-21T10:45:16.370Z</time>
      </trkpt>
      <trkpt lat="41.24642333" lon="1.86165167">
        <ele>42.0</ele>
        <time>2019-12-21T10:45:17.350Z</time>
      </trkpt>
      <trkpt lat="41.24642333" lon="1.86165167">
        <ele>42.0</ele>
        <time>2019-12-21T10:45:18.348Z</time>
      </trkpt>
      <trkpt lat="41.24648167" lon="1.86169">
        <ele>42.0</ele>
        <time>2019-12-21T10:45:19.356Z</time>
      </trkpt>
      <trkpt lat="41.24648167" lon="1.86169">
        <ele>42.0</ele>
        <time>2019-12-21T10:45:20.337Z</time>
      </trkpt>
      <trkpt lat="41.24654333" lon="1.861735">
        <ele>41.0</ele>
        <time>2019-12-21T10:45:21.367Z</time>
      </trkpt>
      <trkpt lat="41.24654333" lon="1.861735">
        <ele>41.0</ele>
        <time>2019-12-21T10:45:22.372Z</time>
      </trkpt>
      <trkpt lat="41.24660167" lon="1.86178167">
        <ele>42.0</ele>
        <time>2019-12-21T10:45:23.338Z</time>
      </trkpt>
      <trkpt lat="41.24660167" lon="1.86178167">
        <ele>42.0</ele>
        <time>2019-12-21T10:45:24.359Z</time>
      </trkpt>
      <trkpt lat="41.24666" lon="1.86183">
        <ele>42.0</ele>
        <time>2019-12-21T10:45:25.337Z</time>
      </trkpt>
      <trkpt lat="41.24666" lon="1.86183">
        <ele>42.0</ele>
        <time>2019-12-21T10:45:26.369Z</time>
      </trkpt>
      <trkpt lat="41.24672" lon="1.86188333">
        <ele>42.0</ele>
        <time>2019-12-21T10:45:27.335Z</time>
      </trkpt>
      <trkpt lat="41.24675333" lon="1.86191167">
        <ele>42.0</ele>
        <time>2019-12-21T10:45:28.358Z</time>
      </trkpt>
      <trkpt lat="41.24675333" lon="1.86191167">
        <ele>42.0</ele>
        <time>2019-12-21T10:45:29.336Z</time>
      </trkpt>
      <trkpt lat="41.24681833" lon="1.861965">
        <ele>42.0</ele>
        <time>2019-12-21T10:45:30.346Z</time>
      </trkpt>
      <trkpt lat="41.24685167" lon="1.86199333">
        <ele>42.0</ele>
        <time>2019-12-21T10:45:31.346Z</time>
      </trkpt>
      <trkpt lat="41.24685167" lon="1.86199333">
        <ele>42.0</ele>
        <time>2019-12-21T10:45:32.340Z</time>
      </trkpt>
      <trkpt lat="41.24692167" lon="1.86204833">
        <ele>42.0</ele>
        <time>2019-12-21T10:45:33.347Z</time>
      </trkpt>
      <trkpt lat="41.24692167" lon="1.86204833">
        <ele>42.0</ele>
        <time>2019-12-21T10:45:34.367Z</time>
      </trkpt>
      <trkpt lat="41.24699667" lon="1.8621">
        <ele>42.0</ele>
        <time>2019-12-21T10:45:35.343Z</time>
      </trkpt>
      <trkpt lat="41.24699667" lon="1.8621">
        <ele>42.0</ele>
        <time>2019-12-21T10:45:36.347Z</time>
      </trkpt>
      <trkpt lat="41.24706667" lon="1.862155">
        <ele>42.0</ele>
        <time>2019-12-21T10:45:37.354Z</time>
      </trkpt>
      <trkpt lat="41.24706667" lon="1.862155">
        <ele>42.0</ele>
        <time>2019-12-21T10:45:38.334Z</time>
      </trkpt>
      <trkpt lat="41.24712667" lon="1.86220833">
        <ele>42.0</ele>
        <time>2019-12-21T10:45:39.347Z</time>
      </trkpt>
      <trkpt lat="41.24712667" lon="1.86220833">
        <ele>42.0</ele>
        <time>2019-12-21T10:45:40.345Z</time>
      </trkpt>
      <trkpt lat="41.24719833" lon="1.86226333">
        <ele>42.0</ele>
        <time>2019-12-21T10:45:41.352Z</time>
      </trkpt>
      <trkpt lat="41.24719833" lon="1.86226333">
        <ele>42.0</ele>
        <time>2019-12-21T10:45:42.371Z</time>
      </trkpt>
      <trkpt lat="41.24727167" lon="1.86231833">
        <ele>42.0</ele>
        <time>2019-12-21T10:45:43.337Z</time>
      </trkpt>
      <trkpt lat="41.24727167" lon="1.86231833">
        <ele>42.0</ele>
        <time>2019-12-21T10:45:44.363Z</time>
      </trkpt>
      <trkpt lat="41.24734833" lon="1.862365">
        <ele>42.0</ele>
        <time>2019-12-21T10:45:45.336Z</time>
      </trkpt>
      <trkpt lat="41.24738667" lon="1.86238667">
        <ele>42.0</ele>
        <time>2019-12-21T10:45:46.367Z</time>
      </trkpt>
      <trkpt lat="41.24738667" lon="1.86238667">
        <ele>42.0</ele>
        <time>2019-12-21T10:45:47.348Z</time>
      </trkpt>
      <trkpt lat="41.24745833" lon="1.86243333">
        <ele>42.0</ele>
        <time>2019-12-21T10:45:48.335Z</time>
      </trkpt>
      <trkpt lat="41.247495" lon="1.86245667">
        <ele>42.0</ele>
        <time>2019-12-21T10:45:49.348Z</time>
      </trkpt>
      <trkpt lat="41.247495" lon="1.86245667">
        <ele>42.0</ele>
        <time>2019-12-21T10:45:50.359Z</time>
      </trkpt>
      <trkpt lat="41.24756833" lon="1.86250333">
        <ele>42.0</ele>
        <time>2019-12-21T10:45:51.365Z</time>
      </trkpt>
      <trkpt lat="41.24756833" lon="1.86250333">
        <ele>42.0</ele>
        <time>2019-12-21T10:45:52.346Z</time>
      </trkpt>
      <trkpt lat="41.24764167" lon="1.86255833">
        <ele>42.0</ele>
        <time>2019-12-21T10:45:53.354Z</time>
      </trkpt>
      <trkpt lat="41.24764167" lon="1.86255833">
        <ele>42.0</ele>
        <time>2019-12-21T10:45:54.357Z</time>
      </trkpt>
      <trkpt lat="41.24771333" lon="1.86260833">
        <ele>42.0</ele>
        <time>2019-12-21T10:45:55.352Z</time>
      </trkpt>
      <trkpt lat="41.24771333" lon="1.86260833">
        <ele>42.0</ele>
        <time>2019-12-21T10:45:56.372Z</time>
      </trkpt>
      <trkpt lat="41.247785" lon="1.86266167">
        <ele>42.0</ele>
        <time>2019-12-21T10:45:57.337Z</time>
      </trkpt>
      <trkpt lat="41.247785" lon="1.86266167">
        <ele>42.0</ele>
        <time>2019-12-21T10:45:58.358Z</time>
      </trkpt>
      <trkpt lat="41.247855" lon="1.86271167">
        <ele>42.0</ele>
        <time>2019-12-21T10:45:59.368Z</time>
      </trkpt>
      <trkpt lat="41.247855" lon="1.86271167">
        <ele>42.0</ele>
        <time>2019-12-21T10:46:00.352Z</time>
      </trkpt>
      <trkpt lat="41.24792333" lon="1.86276">
        <ele>42.0</ele>
        <time>2019-12-21T10:46:01.337Z</time>
      </trkpt>
      <trkpt lat="41.24792333" lon="1.86276">
        <ele>42.0</ele>
        <time>2019-12-21T10:46:02.348Z</time>
      </trkpt>
      <trkpt lat="41.24798667" lon="1.86281167">
        <ele>42.0</ele>
        <time>2019-12-21T10:46:03.354Z</time>
      </trkpt>
      <trkpt lat="41.24798667" lon="1.86281167">
        <ele>42.0</ele>
        <time>2019-12-21T10:46:04.337Z</time>
      </trkpt>
      <trkpt lat="41.24803833" lon="1.86286667">
        <ele>42.0</ele>
        <time>2019-12-21T10:46:05.373Z</time>
      </trkpt>
      <trkpt lat="41.24803833" lon="1.86286667">
        <ele>42.0</ele>
        <time>2019-12-21T10:46:06.348Z</time>
      </trkpt>
      <trkpt lat="41.24808333" lon="1.86293">
        <ele>42.0</ele>
        <time>2019-12-21T10:46:07.355Z</time>
      </trkpt>
      <trkpt lat="41.24808333" lon="1.86293">
        <ele>42.0</ele>
        <time>2019-12-21T10:46:08.336Z</time>
      </trkpt>
      <trkpt lat="41.24814167" lon="1.86299333">
        <ele>42.0</ele>
        <time>2019-12-21T10:46:09.338Z</time>
      </trkpt>
      <trkpt lat="41.24814167" lon="1.86299333">
        <ele>42.0</ele>
        <time>2019-12-21T10:46:10.340Z</time>
      </trkpt>
      <trkpt lat="41.24819833" lon="1.86305833">
        <ele>42.0</ele>
        <time>2019-12-21T10:46:11.350Z</time>
      </trkpt>
      <trkpt lat="41.24819833" lon="1.86305833">
        <ele>42.0</ele>
        <time>2019-12-21T10:46:12.369Z</time>
      </trkpt>
      <trkpt lat="41.24826" lon="1.86312167">
        <ele>42.0</ele>
        <time>2019-12-21T10:46:13.334Z</time>
      </trkpt>
      <trkpt lat="41.24826" lon="1.86312167">
        <ele>42.0</ele>
        <time>2019-12-21T10:46:14.338Z</time>
      </trkpt>
      <trkpt lat="41.24831" lon="1.86319">
        <ele>42.0</ele>
        <time>2019-12-21T10:46:15.346Z</time>
      </trkpt>
      <trkpt lat="41.24831" lon="1.86319">
        <ele>42.0</ele>
        <time>2019-12-21T10:46:16.366Z</time>
      </trkpt>
      <trkpt lat="41.24835667" lon="1.863265">
        <ele>42.0</ele>
        <time>2019-12-21T10:46:17.333Z</time>
      </trkpt>
      <trkpt lat="41.24835667" lon="1.863265">
        <ele>42.0</ele>
        <time>2019-12-21T10:46:18.347Z</time>
      </trkpt>
      <trkpt lat="41.2484" lon="1.86334">
        <ele>43.0</ele>
        <time>2019-12-21T10:46:19.353Z</time>
      </trkpt>
      <trkpt lat="41.2484" lon="1.86334">
        <ele>43.0</ele>
        <time>2019-12-21T10:46:20.340Z</time>
      </trkpt>
      <trkpt lat="41.24843333" lon="1.86341667">
        <ele>43.0</ele>
        <time>2019-12-21T10:46:21.336Z</time>
      </trkpt>
      <trkpt lat="41.24843333" lon="1.86341667">
        <ele>43.0</ele>
        <time>2019-12-21T10:46:22.369Z</time>
      </trkpt>
      <trkpt lat="41.24847333" lon="1.86349667">
        <ele>43.0</ele>
        <time>2019-12-21T10:46:23.335Z</time>
      </trkpt>
      <trkpt lat="41.24847333" lon="1.86349667">
        <ele>43.0</ele>
        <time>2019-12-21T10:46:24.367Z</time>
      </trkpt>
      <trkpt lat="41.24851333" lon="1.863585">
        <ele>43.0</ele>
        <time>2019-12-21T10:46:25.336Z</time>
      </trkpt>
      <trkpt lat="41.24851333" lon="1.863585">
        <ele>43.0</ele>
        <time>2019-12-21T10:46:26.349Z</time>
      </trkpt>
      <trkpt lat="41.248555" lon="1.86367333">
        <ele>43.0</ele>
        <time>2019-12-21T10:46:27.355Z</time>
      </trkpt>
      <trkpt lat="41.24857167" lon="1.86371333">
        <ele>44.0</ele>
        <time>2019-12-21T10:46:28.333Z</time>
      </trkpt>
      <trkpt lat="41.24859167" lon="1.863755">
        <ele>44.0</ele>
        <time>2019-12-21T10:46:29.338Z</time>
      </trkpt>
      <trkpt lat="41.24859167" lon="1.863755">
        <ele>44.0</ele>
        <time>2019-12-21T10:46:30.358Z</time>
      </trkpt>
      <trkpt lat="41.24862833" lon="1.86383">
        <ele>44.0</ele>
        <time>2019-12-21T10:46:31.337Z</time>
      </trkpt>
      <trkpt lat="41.24862833" lon="1.86383">
        <ele>44.0</ele>
        <time>2019-12-21T10:46:32.344Z</time>
      </trkpt>
      <trkpt lat="41.248665" lon="1.86390833">
        <ele>45.0</ele>
        <time>2019-12-21T10:46:33.354Z</time>
      </trkpt>
      <trkpt lat="41.248665" lon="1.86390833">
        <ele>45.0</ele>
        <time>2019-12-21T10:46:34.334Z</time>
      </trkpt>
      <trkpt lat="41.24869667" lon="1.86397333">
        <ele>45.0</ele>
        <time>2019-12-21T10:46:35.342Z</time>
      </trkpt>
      <trkpt lat="41.24869667" lon="1.86397333">
        <ele>45.0</ele>
        <time>2019-12-21T10:46:36.370Z</time>
      </trkpt>
      <trkpt lat="41.24874833" lon="1.86404333">
        <ele>46.0</ele>
        <time>2019-12-21T10:46:37.336Z</time>
      </trkpt>
      <trkpt lat="41.24877667" lon="1.86409167">
        <ele>46.0</ele>
        <time>2019-12-21T10:46:38.337Z</time>
      </trkpt>
      <trkpt lat="41.24877667" lon="1.86409167">
        <ele>46.0</ele>
        <time>2019-12-21T10:46:39.335Z</time>
      </trkpt>
      <trkpt lat="41.24884167" lon="1.86416333">
        <ele>46.0</ele>
        <time>2019-12-21T10:46:40.341Z</time>
      </trkpt>
      <trkpt lat="41.248875" lon="1.86420167">
        <ele>46.0</ele>
        <time>2019-12-21T10:46:41.342Z</time>
      </trkpt>
      <trkpt lat="41.248875" lon="1.86420167">
        <ele>46.0</ele>
        <time>2019-12-21T10:46:42.343Z</time>
      </trkpt>
      <trkpt lat="41.24894833" lon="1.86428167">
        <ele>47.0</ele>
        <time>2019-12-21T10:46:43.353Z</time>
      </trkpt>
      <trkpt lat="41.24894833" lon="1.86428167">
        <ele>47.0</ele>
        <time>2019-12-21T10:46:44.352Z</time>
      </trkpt>
      <trkpt lat="41.24903333" lon="1.86435333">
        <ele>47.0</ele>
        <time>2019-12-21T10:46:45.334Z</time>
      </trkpt>
      <trkpt lat="41.24903333" lon="1.86435333">
        <ele>47.0</ele>
        <time>2019-12-21T10:46:46.366Z</time>
      </trkpt>
      <trkpt lat="41.249115" lon="1.86441833">
        <ele>47.0</ele>
        <time>2019-12-21T10:46:47.372Z</time>
      </trkpt>
      <trkpt lat="41.249115" lon="1.86441833">
        <ele>47.0</ele>
        <time>2019-12-21T10:46:48.366Z</time>
      </trkpt>
      <trkpt lat="41.24920833" lon="1.86448833">
        <ele>47.0</ele>
        <time>2019-12-21T10:46:49.336Z</time>
      </trkpt>
      <trkpt lat="41.24920833" lon="1.86448833">
        <ele>47.0</ele>
        <time>2019-12-21T10:46:50.345Z</time>
      </trkpt>
      <trkpt lat="41.24930167" lon="1.86455">
        <ele>46.0</ele>
        <time>2019-12-21T10:46:51.352Z</time>
      </trkpt>
      <trkpt lat="41.24930167" lon="1.86455">
        <ele>46.0</ele>
        <time>2019-12-21T10:46:52.365Z</time>
      </trkpt>
      <trkpt lat="41.249395" lon="1.86462">
        <ele>46.0</ele>
        <time>2019-12-21T10:46:53.337Z</time>
      </trkpt>
      <trkpt lat="41.249395" lon="1.86462">
        <ele>46.0</ele>
        <time>2019-12-21T10:46:54.358Z</time>
      </trkpt>
      <trkpt lat="41.24949" lon="1.86469">
        <ele>46.0</ele>
        <time>2019-12-21T10:46:55.351Z</time>
      </trkpt>
      <trkpt lat="41.24949" lon="1.86469">
        <ele>46.0</ele>
        <time>2019-12-21T10:46:56.371Z</time>
      </trkpt>
      <trkpt lat="41.24958333" lon="1.86475167">
        <ele>46.0</ele>
        <time>2019-12-21T10:46:57.337Z</time>
      </trkpt>
      <trkpt lat="41.24958333" lon="1.86475167">
        <ele>46.0</ele>
        <time>2019-12-21T10:46:58.358Z</time>
      </trkpt>
      <trkpt lat="41.24967667" lon="1.864805">
        <ele>46.0</ele>
        <time>2019-12-21T10:46:59.336Z</time>
      </trkpt>
      <trkpt lat="41.24967667" lon="1.864805">
        <ele>46.0</ele>
        <time>2019-12-21T10:47:00.338Z</time>
      </trkpt>
      <trkpt lat="41.24976833" lon="1.86485833">
        <ele>46.0</ele>
        <time>2019-12-21T10:47:01.344Z</time>
      </trkpt>
      <trkpt lat="41.24981" lon="1.86489">
        <ele>46.0</ele>
        <time>2019-12-21T10:47:02.380Z</time>
      </trkpt>
      <trkpt lat="41.24981" lon="1.86489">
        <ele>46.0</ele>
        <time>2019-12-21T10:47:03.369Z</time>
      </trkpt>
      <trkpt lat="41.24988" lon="1.86498333">
        <ele>46.0</ele>
        <time>2019-12-21T10:47:04.335Z</time>
      </trkpt>
      <trkpt lat="41.24988" lon="1.86498333">
        <ele>46.0</ele>
        <time>2019-12-21T10:47:05.355Z</time>
      </trkpt>
      <trkpt lat="41.24993667" lon="1.86509333">
        <ele>46.0</ele>
        <time>2019-12-21T10:47:06.334Z</time>
      </trkpt>
      <trkpt lat="41.24993667" lon="1.86509333">
        <ele>46.0</ele>
        <time>2019-12-21T10:47:07.334Z</time>
      </trkpt>
      <trkpt lat="41.24999333" lon="1.8652">
        <ele>46.0</ele>
        <time>2019-12-21T10:47:08.341Z</time>
      </trkpt>
      <trkpt lat="41.25001833" lon="1.86525667">
        <ele>46.0</ele>
        <time>2019-12-21T10:47:09.364Z</time>
      </trkpt>
      <trkpt lat="41.25001833" lon="1.86525667">
        <ele>46.0</ele>
        <time>2019-12-21T10:47:10.367Z</time>
      </trkpt>
      <trkpt lat="41.250045" lon="1.865385">
        <ele>47.0</ele>
        <time>2019-12-21T10:47:11.333Z</time>
      </trkpt>
      <trkpt lat="41.25005167" lon="1.86544167">
        <ele>47.0</ele>
        <time>2019-12-21T10:47:12.339Z</time>
      </trkpt>
      <trkpt lat="41.25005167" lon="1.86544167">
        <ele>47.0</ele>
        <time>2019-12-21T10:47:13.366Z</time>
      </trkpt>
      <trkpt lat="41.25005333" lon="1.86554833">
        <ele>47.0</ele>
        <time>2019-12-21T10:47:14.372Z</time>
      </trkpt>
      <trkpt lat="41.25005333" lon="1.86554833">
        <ele>47.0</ele>
        <time>2019-12-21T10:47:15.353Z</time>
      </trkpt>
      <trkpt lat="41.25004833" lon="1.865635">
        <ele>46.0</ele>
        <time>2019-12-21T10:47:16.342Z</time>
      </trkpt>
      <trkpt lat="41.25004667" lon="1.86567">
        <ele>46.0</ele>
        <time>2019-12-21T10:47:17.340Z</time>
      </trkpt>
      <trkpt lat="41.25004667" lon="1.86567">
        <ele>46.0</ele>
        <time>2019-12-21T10:47:18.354Z</time>
      </trkpt>
      <trkpt lat="41.25004833" lon="1.86572333">
        <ele>46.0</ele>
        <time>2019-12-21T10:47:19.360Z</time>
      </trkpt>
      <trkpt lat="41.25004833" lon="1.86572333">
        <ele>46.0</ele>
        <time>2019-12-21T10:47:20.361Z</time>
      </trkpt>
      <trkpt lat="41.25005333" lon="1.86577">
        <ele>47.0</ele>
        <time>2019-12-21T10:47:21.333Z</time>
      </trkpt>
      <trkpt lat="41.25005333" lon="1.86577">
        <ele>47.0</ele>
        <time>2019-12-21T10:47:22.339Z</time>
      </trkpt>
      <trkpt lat="41.250055" lon="1.86581167">
        <ele>47.0</ele>
        <time>2019-12-21T10:47:23.348Z</time>
      </trkpt>
      <trkpt lat="41.250055" lon="1.86581167">
        <ele>47.0</ele>
        <time>2019-12-21T10:47:24.368Z</time>
      </trkpt>
      <trkpt lat="41.25005833" lon="1.865855">
        <ele>47.0</ele>
        <time>2019-12-21T10:47:25.334Z</time>
      </trkpt>
      <trkpt lat="41.25005833" lon="1.865855">
        <ele>47.0</ele>
        <time>2019-12-21T10:47:26.339Z</time>
      </trkpt>
      <trkpt lat="41.25005" lon="1.86589">
        <ele>47.0</ele>
        <time>2019-12-21T10:47:27.348Z</time>
      </trkpt>
      <trkpt lat="41.25005" lon="1.86589">
        <ele>47.0</ele>
        <time>2019-12-21T10:47:28.346Z</time>
      </trkpt>
      <trkpt lat="41.250055" lon="1.865925">
        <ele>47.0</ele>
        <time>2019-12-21T10:47:29.359Z</time>
      </trkpt>
      <trkpt lat="41.250055" lon="1.865925">
        <ele>47.0</ele>
        <time>2019-12-21T10:47:30.339Z</time>
      </trkpt>
      <trkpt lat="41.25005833" lon="1.865965">
        <ele>47.0</ele>
        <time>2019-12-21T10:47:31.341Z</time>
      </trkpt>
      <trkpt lat="41.25005833" lon="1.865985">
        <ele>47.0</ele>
        <time>2019-12-21T10:47:32.343Z</time>
      </trkpt>
      <trkpt lat="41.25005833" lon="1.865985">
        <ele>47.0</ele>
        <time>2019-12-21T10:47:33.360Z</time>
      </trkpt>
      <trkpt lat="41.25006" lon="1.86602833">
        <ele>47.0</ele>
        <time>2019-12-21T10:47:34.376Z</time>
      </trkpt>
      <trkpt lat="41.25005167" lon="1.86604667">
        <ele>48.0</ele>
        <time>2019-12-21T10:47:35.364Z</time>
      </trkpt>
      <trkpt lat="41.25005167" lon="1.86604667">
        <ele>48.0</ele>
        <time>2019-12-21T10:47:36.335Z</time>
      </trkpt>
      <trkpt lat="41.25002167" lon="1.86608333">
        <ele>48.0</ele>
        <time>2019-12-21T10:47:37.333Z</time>
      </trkpt>
      <trkpt lat="41.25002167" lon="1.86608333">
        <ele>48.0</ele>
        <time>2019-12-21T10:47:38.335Z</time>
      </trkpt>
      <trkpt lat="41.249985" lon="1.86610667">
        <ele>48.0</ele>
        <time>2019-12-21T10:47:39.343Z</time>
      </trkpt>
      <trkpt lat="41.249985" lon="1.86610667">
        <ele>48.0</ele>
        <time>2019-12-21T10:47:40.364Z</time>
      </trkpt>
      <trkpt lat="41.24994833" lon="1.86611333">
        <ele>48.0</ele>
        <time>2019-12-21T10:47:41.335Z</time>
      </trkpt>
      <trkpt lat="41.24994833" lon="1.86611333">
        <ele>48.0</ele>
        <time>2019-12-21T10:47:42.349Z</time>
      </trkpt>
      <trkpt lat="41.24991833" lon="1.86611">
        <ele>49.0</ele>
        <time>2019-12-21T10:47:43.355Z</time>
      </trkpt>
      <trkpt lat="41.24991833" lon="1.86611">
        <ele>49.0</ele>
        <time>2019-12-21T10:47:44.352Z</time>
      </trkpt>
      <trkpt lat="41.24989333" lon="1.86608">
        <ele>49.0</ele>
        <time>2019-12-21T10:47:45.336Z</time>
      </trkpt>
      <trkpt lat="41.24989333" lon="1.86608">
        <ele>49.0</ele>
        <time>2019-12-21T10:47:46.352Z</time>
      </trkpt>
      <trkpt lat="41.24986167" lon="1.86604333">
        <ele>49.0</ele>
        <time>2019-12-21T10:47:47.358Z</time>
      </trkpt>
      <trkpt lat="41.24986167" lon="1.86604333">
        <ele>49.0</ele>
        <time>2019-12-21T10:47:48.338Z</time>
      </trkpt>
      <trkpt lat="41.24983333" lon="1.86599">
        <ele>50.0</ele>
        <time>2019-12-21T10:47:49.336Z</time>
      </trkpt>
      <trkpt lat="41.24983333" lon="1.86599">
        <ele>50.0</ele>
        <time>2019-12-21T10:47:50.353Z</time>
      </trkpt>
      <trkpt lat="41.2498" lon="1.86596167">
        <ele>50.0</ele>
        <time>2019-12-21T10:47:51.336Z</time>
      </trkpt>
      <trkpt lat="41.24977667" lon="1.86595667">
        <ele>50.0</ele>
        <time>2019-12-21T10:47:52.343Z</time>
      </trkpt>
      <trkpt lat="41.249755" lon="1.865955">
        <ele>51.0</ele>
        <time>2019-12-21T10:47:53.350Z</time>
      </trkpt>
      <trkpt lat="41.249755" lon="1.865955">
        <ele>51.0</ele>
        <time>2019-12-21T10:47:54.366Z</time>
      </trkpt>
      <trkpt lat="41.24972" lon="1.86597167">
        <ele>51.0</ele>
        <time>2019-12-21T10:47:55.339Z</time>
      </trkpt>
      <trkpt lat="41.24972" lon="1.86597167">
        <ele>51.0</ele>
        <time>2019-12-21T10:47:56.365Z</time>
      </trkpt>
      <trkpt lat="41.24969167" lon="1.86599333">
        <ele>52.0</ele>
        <time>2019-12-21T10:47:57.371Z</time>
      </trkpt>
      <trkpt lat="41.24968333" lon="1.86600333">
        <ele>52.0</ele>
        <time>2019-12-21T10:47:58.336Z</time>
      </trkpt>
      <trkpt lat="41.24968333" lon="1.86600333">
        <ele>52.0</ele>
        <time>2019-12-21T10:47:59.334Z</time>
      </trkpt>
      <trkpt lat="41.24967167" lon="1.86602667">
        <ele>53.0</ele>
        <time>2019-12-21T10:48:00.347Z</time>
      </trkpt>
      <trkpt lat="41.24967167" lon="1.86602667">
        <ele>53.0</ele>
        <time>2019-12-21T10:48:01.334Z</time>
      </trkpt>
      <trkpt lat="41.24966333" lon="1.86603833">
        <ele>53.0</ele>
        <time>2019-12-21T10:48:02.343Z</time>
      </trkpt>
      <trkpt lat="41.24966333" lon="1.866045">
        <ele>54.0</ele>
        <time>2019-12-21T10:48:03.333Z</time>
      </trkpt>
      <trkpt lat="41.24966333" lon="1.866045">
        <ele>54.0</ele>
        <time>2019-12-21T10:48:04.353Z</time>
      </trkpt>
      <trkpt lat="41.24966333" lon="1.866045">
        <ele>54.0</ele>
        <time>2019-12-21T10:48:05.344Z</time>
      </trkpt>
      <trkpt lat="41.24951667" lon="1.86617167">
        <ele>56.0</ele>
        <time>2019-12-21T10:48:06.338Z</time>
      </trkpt>
      <trkpt lat="41.24951667" lon="1.86617167">
        <ele>56.0</ele>
        <time>2019-12-21T10:48:07.344Z</time>
      </trkpt>
      <trkpt lat="41.24944667" lon="1.86616667">
        <ele>57.0</ele>
        <time>2019-12-21T10:48:08.350Z</time>
      </trkpt>
      <trkpt lat="41.24944667" lon="1.86616667">
        <ele>57.0</ele>
        <time>2019-12-21T10:48:09.357Z</time>
      </trkpt>
      <trkpt lat="41.24940333" lon="1.86613833">
        <ele>58.0</ele>
        <time>2019-12-21T10:48:10.346Z</time>
      </trkpt>
      <trkpt lat="41.24940333" lon="1.86613833">
        <ele>58.0</ele>
        <time>2019-12-21T10:48:11.351Z</time>
      </trkpt>
      <trkpt lat="41.249355" lon="1.8661">
        <ele>59.0</ele>
        <time>2019-12-21T10:48:12.359Z</time>
      </trkpt>
      <trkpt lat="41.249355" lon="1.8661">
        <ele>59.0</ele>
        <time>2019-12-21T10:48:13.364Z</time>
      </trkpt>
      <trkpt lat="41.24931833" lon="1.86606667">
        <ele>60.0</ele>
        <time>2019-12-21T10:48:14.359Z</time>
      </trkpt>
      <trkpt lat="41.24931833" lon="1.86606667">
        <ele>60.0</ele>
        <time>2019-12-21T10:48:15.364Z</time>
      </trkpt>
      <trkpt lat="41.24929667" lon="1.86602333">
        <ele>61.0</ele>
        <time>2019-12-21T10:48:16.371Z</time>
      </trkpt>
      <trkpt lat="41.24929667" lon="1.86602333">
        <ele>61.0</ele>
        <time>2019-12-21T10:48:17.339Z</time>
      </trkpt>
      <trkpt lat="41.24927667" lon="1.86597833">
        <ele>62.0</ele>
        <time>2019-12-21T10:48:18.351Z</time>
      </trkpt>
      <trkpt lat="41.24927667" lon="1.86597833">
        <ele>62.0</ele>
        <time>2019-12-21T10:48:19.362Z</time>
      </trkpt>
      <trkpt lat="41.24925667" lon="1.86593333">
        <ele>63.0</ele>
        <time>2019-12-21T10:48:20.350Z</time>
      </trkpt>
      <trkpt lat="41.24925" lon="1.86590833">
        <ele>63.0</ele>
        <time>2019-12-21T10:48:21.371Z</time>
      </trkpt>
      <trkpt lat="41.24924" lon="1.86588333">
        <ele>64.0</ele>
        <time>2019-12-21T10:48:22.336Z</time>
      </trkpt>
      <trkpt lat="41.24924" lon="1.86588333">
        <ele>64.0</ele>
        <time>2019-12-21T10:48:23.358Z</time>
      </trkpt>
      <trkpt lat="41.249225" lon="1.86583333">
        <ele>65.0</ele>
        <time>2019-12-21T10:48:24.339Z</time>
      </trkpt>
      <trkpt lat="41.249225" lon="1.86583333">
        <ele>65.0</ele>
        <time>2019-12-21T10:48:25.334Z</time>
      </trkpt>
      <trkpt lat="41.24920667" lon="1.865785">
        <ele>66.0</ele>
        <time>2019-12-21T10:48:26.354Z</time>
      </trkpt>
      <trkpt lat="41.24920667" lon="1.865785">
        <ele>66.0</ele>
        <time>2019-12-21T10:48:27.363Z</time>
      </trkpt>
      <trkpt lat="41.2492" lon="1.865745">
        <ele>67.0</ele>
        <time>2019-12-21T10:48:28.338Z</time>
      </trkpt>
      <trkpt lat="41.2492" lon="1.865745">
        <ele>67.0</ele>
        <time>2019-12-21T10:48:29.344Z</time>
      </trkpt>
      <trkpt lat="41.24919667" lon="1.8657">
        <ele>68.0</ele>
        <time>2019-12-21T10:48:30.363Z</time>
      </trkpt>
      <trkpt lat="41.24919667" lon="1.8657">
        <ele>68.0</ele>
        <time>2019-12-21T10:48:31.368Z</time>
      </trkpt>
      <trkpt lat="41.24919" lon="1.86566">
        <ele>69.0</ele>
        <time>2019-12-21T10:48:32.335Z</time>
      </trkpt>
      <trkpt lat="41.24919" lon="1.86566">
        <ele>69.0</ele>
        <time>2019-12-21T10:48:33.341Z</time>
      </trkpt>
      <trkpt lat="41.24917" lon="1.86561833">
        <ele>69.0</ele>
        <time>2019-12-21T10:48:34.370Z</time>
      </trkpt>
      <trkpt lat="41.24917" lon="1.86561833">
        <ele>69.0</ele>
        <time>2019-12-21T10:48:35.335Z</time>
      </trkpt>
      <trkpt lat="41.249145" lon="1.86557833">
        <ele>70.0</ele>
        <time>2019-12-21T10:48:36.341Z</time>
      </trkpt>
      <trkpt lat="41.249145" lon="1.86557833">
        <ele>70.0</ele>
        <time>2019-12-21T10:48:37.347Z</time>
      </trkpt>
      <trkpt lat="41.24911333" lon="1.86554167">
        <ele>71.0</ele>
        <time>2019-12-21T10:48:38.363Z</time>
      </trkpt>
      <trkpt lat="41.24911333" lon="1.86554167">
        <ele>71.0</ele>
        <time>2019-12-21T10:48:39.368Z</time>
      </trkpt>
      <trkpt lat="41.24907667" lon="1.86550667">
        <ele>71.0</ele>
        <time>2019-12-21T10:48:40.340Z</time>
      </trkpt>
      <trkpt lat="41.24907667" lon="1.86550667">
        <ele>71.0</ele>
        <time>2019-12-21T10:48:41.368Z</time>
      </trkpt>
      <trkpt lat="41.24905167" lon="1.86547667">
        <ele>71.0</ele>
        <time>2019-12-21T10:48:42.372Z</time>
      </trkpt>
      <trkpt lat="41.24905167" lon="1.86547667">
        <ele>71.0</ele>
        <time>2019-12-21T10:48:43.338Z</time>
      </trkpt>
      <trkpt lat="41.24900333" lon="1.86544667">
        <ele>72.0</ele>
        <time>2019-12-21T10:48:44.363Z</time>
      </trkpt>
      <trkpt lat="41.24898333" lon="1.86543167">
        <ele>72.0</ele>
        <time>2019-12-21T10:48:45.357Z</time>
      </trkpt>
      <trkpt lat="41.24898333" lon="1.86543167">
        <ele>72.0</ele>
        <time>2019-12-21T10:48:46.362Z</time>
      </trkpt>
      <trkpt lat="41.24894833" lon="1.86540833">
        <ele>72.0</ele>
        <time>2019-12-21T10:48:47.370Z</time>
      </trkpt>
      <trkpt lat="41.24894833" lon="1.86540833">
        <ele>72.0</ele>
        <time>2019-12-21T10:48:48.335Z</time>
      </trkpt>
      <trkpt lat="41.24890167" lon="1.86538667">
        <ele>73.0</ele>
        <time>2019-12-21T10:48:49.337Z</time>
      </trkpt>
      <trkpt lat="41.24890167" lon="1.86538667">
        <ele>73.0</ele>
        <time>2019-12-21T10:48:50.342Z</time>
      </trkpt>
      <trkpt lat="41.24885333" lon="1.865365">
        <ele>73.0</ele>
        <time>2019-12-21T10:48:51.349Z</time>
      </trkpt>
      <trkpt lat="41.24883667" lon="1.86535667">
        <ele>74.0</ele>
        <time>2019-12-21T10:48:52.335Z</time>
      </trkpt>
      <trkpt lat="41.24883667" lon="1.86535667">
        <ele>74.0</ele>
        <time>2019-12-21T10:48:53.340Z</time>
      </trkpt>
      <trkpt lat="41.24879333" lon="1.86534667">
        <ele>74.0</ele>
        <time>2019-12-21T10:48:54.368Z</time>
      </trkpt>
      <trkpt lat="41.24879333" lon="1.86534667">
        <ele>74.0</ele>
        <time>2019-12-21T10:48:55.338Z</time>
      </trkpt>
      <trkpt lat="41.24876333" lon="1.86532">
        <ele>74.0</ele>
        <time>2019-12-21T10:48:56.345Z</time>
      </trkpt>
      <trkpt lat="41.24876333" lon="1.86532">
        <ele>74.0</ele>
        <time>2019-12-21T10:48:57.350Z</time>
      </trkpt>
      <trkpt lat="41.24873833" lon="1.865295">
        <ele>75.0</ele>
        <time>2019-12-21T10:48:58.360Z</time>
      </trkpt>
      <trkpt lat="41.24873833" lon="1.865295">
        <ele>75.0</ele>
        <time>2019-12-21T10:48:59.365Z</time>
      </trkpt>
      <trkpt lat="41.24871" lon="1.86525667">
        <ele>76.0</ele>
        <time>2019-12-21T10:49:00.366Z</time>
      </trkpt>
      <trkpt lat="41.24869833" lon="1.865235">
        <ele>76.0</ele>
        <time>2019-12-21T10:49:01.343Z</time>
      </trkpt>
      <trkpt lat="41.24869833" lon="1.865235">
        <ele>76.0</ele>
        <time>2019-12-21T10:49:02.348Z</time>
      </trkpt>
      <trkpt lat="41.24866833" lon="1.86519833">
        <ele>76.0</ele>
        <time>2019-12-21T10:49:03.360Z</time>
      </trkpt>
      <trkpt lat="41.24866833" lon="1.86519833">
        <ele>76.0</ele>
        <time>2019-12-21T10:49:04.350Z</time>
      </trkpt>
      <trkpt lat="41.24865833" lon="1.86515333">
        <ele>77.0</ele>
        <time>2019-12-21T10:49:05.371Z</time>
      </trkpt>
      <trkpt lat="41.24865833" lon="1.86515333">
        <ele>77.0</ele>
        <time>2019-12-21T10:49:06.336Z</time>
      </trkpt>
      <trkpt lat="41.24865" lon="1.86511333">
        <ele>77.0</ele>
        <time>2019-12-21T10:49:07.343Z</time>
      </trkpt>
      <trkpt lat="41.24865" lon="1.86511333">
        <ele>77.0</ele>
        <time>2019-12-21T10:49:08.349Z</time>
      </trkpt>
      <trkpt lat="41.24863333" lon="1.86507333">
        <ele>78.0</ele>
        <time>2019-12-21T10:49:09.363Z</time>
      </trkpt>
      <trkpt lat="41.24862833" lon="1.86505333">
        <ele>78.0</ele>
        <time>2019-12-21T10:49:10.333Z</time>
      </trkpt>
      <trkpt lat="41.24862833" lon="1.86505333">
        <ele>78.0</ele>
        <time>2019-12-21T10:49:11.338Z</time>
      </trkpt>
      <trkpt lat="41.24861833" lon="1.86500667">
        <ele>79.0</ele>
        <time>2019-12-21T10:49:12.335Z</time>
      </trkpt>
      <trkpt lat="41.24861833" lon="1.86500667">
        <ele>79.0</ele>
        <time>2019-12-21T10:49:13.340Z</time>
      </trkpt>
      <trkpt lat="41.2486" lon="1.86495833">
        <ele>79.0</ele>
        <time>2019-12-21T10:49:14.355Z</time>
      </trkpt>
      <trkpt lat="41.2486" lon="1.86495833">
        <ele>79.0</ele>
        <time>2019-12-21T10:49:15.359Z</time>
      </trkpt>
      <trkpt lat="41.24859" lon="1.86491167">
        <ele>80.0</ele>
        <time>2019-12-21T10:49:16.341Z</time>
      </trkpt>
      <trkpt lat="41.24859" lon="1.86491167">
        <ele>80.0</ele>
        <time>2019-12-21T10:49:17.346Z</time>
      </trkpt>
      <trkpt lat="41.24857333" lon="1.86486167">
        <ele>80.0</ele>
        <time>2019-12-21T10:49:18.357Z</time>
      </trkpt>
      <trkpt lat="41.24857333" lon="1.86486167">
        <ele>80.0</ele>
        <time>2019-12-21T10:49:19.364Z</time>
      </trkpt>
      <trkpt lat="41.24856" lon="1.86481">
        <ele>81.0</ele>
        <time>2019-12-21T10:49:20.368Z</time>
      </trkpt>
      <trkpt lat="41.24856" lon="1.86481">
        <ele>81.0</ele>
        <time>2019-12-21T10:49:21.333Z</time>
      </trkpt>
      <trkpt lat="41.24854167" lon="1.864755">
        <ele>82.0</ele>
        <time>2019-12-21T10:49:22.339Z</time>
      </trkpt>
      <trkpt lat="41.24854167" lon="1.864755">
        <ele>82.0</ele>
        <time>2019-12-21T10:49:23.344Z</time>
      </trkpt>
      <trkpt lat="41.248515" lon="1.86470667">
        <ele>82.0</ele>
        <time>2019-12-21T10:49:24.370Z</time>
      </trkpt>
      <trkpt lat="41.248515" lon="1.86470667">
        <ele>82.0</ele>
        <time>2019-12-21T10:49:25.336Z</time>
      </trkpt>
      <trkpt lat="41.24848833" lon="1.86466167">
        <ele>83.0</ele>
        <time>2019-12-21T10:49:26.343Z</time>
      </trkpt>
      <trkpt lat="41.24848833" lon="1.86466167">
        <ele>83.0</ele>
        <time>2019-12-21T10:49:27.348Z</time>
      </trkpt>
      <trkpt lat="41.248455" lon="1.86461667">
        <ele>83.0</ele>
        <time>2019-12-21T10:49:28.371Z</time>
      </trkpt>
      <trkpt lat="41.248455" lon="1.86461667">
        <ele>83.0</ele>
        <time>2019-12-21T10:49:29.336Z</time>
      </trkpt>
      <trkpt lat="41.24843333" lon="1.86456667">
        <ele>84.0</ele>
        <time>2019-12-21T10:49:30.342Z</time>
      </trkpt>
      <trkpt lat="41.24843333" lon="1.86456667">
        <ele>84.0</ele>
        <time>2019-12-21T10:49:31.347Z</time>
      </trkpt>
      <trkpt lat="41.24839333" lon="1.86452333">
        <ele>84.0</ele>
        <time>2019-12-21T10:49:32.353Z</time>
      </trkpt>
      <trkpt lat="41.24839333" lon="1.86452333">
        <ele>84.0</ele>
        <time>2019-12-21T10:49:33.361Z</time>
      </trkpt>
      <trkpt lat="41.24836" lon="1.86448167">
        <ele>84.0</ele>
        <time>2019-12-21T10:49:34.335Z</time>
      </trkpt>
      <trkpt lat="41.24836" lon="1.86448167">
        <ele>84.0</ele>
        <time>2019-12-21T10:49:35.368Z</time>
      </trkpt>
      <trkpt lat="41.24832333" lon="1.86444333">
        <ele>84.0</ele>
        <time>2019-12-21T10:49:36.339Z</time>
      </trkpt>
      <trkpt lat="41.24832333" lon="1.86444333">
        <ele>84.0</ele>
        <time>2019-12-21T10:49:37.344Z</time>
      </trkpt>
      <trkpt lat="41.24829333" lon="1.864405">
        <ele>84.0</ele>
        <time>2019-12-21T10:49:38.350Z</time>
      </trkpt>
      <trkpt lat="41.24829333" lon="1.864405">
        <ele>84.0</ele>
        <time>2019-12-21T10:49:39.355Z</time>
      </trkpt>
      <trkpt lat="41.24827" lon="1.86436667">
        <ele>85.0</ele>
        <time>2019-12-21T10:49:40.359Z</time>
      </trkpt>
      <trkpt lat="41.24827" lon="1.86436667">
        <ele>85.0</ele>
        <time>2019-12-21T10:49:41.364Z</time>
      </trkpt>
      <trkpt lat="41.24825" lon="1.86433">
        <ele>85.0</ele>
        <time>2019-12-21T10:49:42.370Z</time>
      </trkpt>
      <trkpt lat="41.24825" lon="1.86433">
        <ele>85.0</ele>
        <time>2019-12-21T10:49:43.335Z</time>
      </trkpt>
      <trkpt lat="41.24822833" lon="1.86428833">
        <ele>86.0</ele>
        <time>2019-12-21T10:49:44.353Z</time>
      </trkpt>
      <trkpt lat="41.24822833" lon="1.86428833">
        <ele>86.0</ele>
        <time>2019-12-21T10:49:45.362Z</time>
      </trkpt>
      <trkpt lat="41.24818167" lon="1.86428333">
        <ele>86.0</ele>
        <time>2019-12-21T10:49:46.368Z</time>
      </trkpt>
      <trkpt lat="41.24818167" lon="1.86428333">
        <ele>86.0</ele>
        <time>2019-12-21T10:49:47.334Z</time>
      </trkpt>
      <trkpt lat="41.24818" lon="1.864325">
        <ele>87.0</ele>
        <time>2019-12-21T10:49:48.337Z</time>
      </trkpt>
      <trkpt lat="41.24818" lon="1.864325">
        <ele>87.0</ele>
        <time>2019-12-21T10:49:49.342Z</time>
      </trkpt>
      <trkpt lat="41.248185" lon="1.86436167">
        <ele>87.0</ele>
        <time>2019-12-21T10:49:50.370Z</time>
      </trkpt>
      <trkpt lat="41.24819333" lon="1.86438167">
        <ele>88.0</ele>
        <time>2019-12-21T10:49:51.338Z</time>
      </trkpt>
      <trkpt lat="41.24819333" lon="1.86438167">
        <ele>88.0</ele>
        <time>2019-12-21T10:49:52.343Z</time>
      </trkpt>
      <trkpt lat="41.248205" lon="1.86442">
        <ele>88.0</ele>
        <time>2019-12-21T10:49:53.350Z</time>
      </trkpt>
      <trkpt lat="41.248205" lon="1.86442">
        <ele>88.0</ele>
        <time>2019-12-21T10:49:54.352Z</time>
      </trkpt>
      <trkpt lat="41.24821667" lon="1.86445833">
        <ele>88.0</ele>
        <time>2019-12-21T10:49:55.346Z</time>
      </trkpt>
      <trkpt lat="41.24822333" lon="1.86447833">
        <ele>88.0</ele>
        <time>2019-12-21T10:49:56.351Z</time>
      </trkpt>
      <trkpt lat="41.24822333" lon="1.86447833">
        <ele>88.0</ele>
        <time>2019-12-21T10:49:57.359Z</time>
      </trkpt>
      <trkpt lat="41.24823667" lon="1.86451667">
        <ele>88.0</ele>
        <time>2019-12-21T10:49:58.363Z</time>
      </trkpt>
      <trkpt lat="41.24823667" lon="1.86451667">
        <ele>88.0</ele>
        <time>2019-12-21T10:49:59.369Z</time>
      </trkpt>
      <trkpt lat="41.24825333" lon="1.86455333">
        <ele>88.0</ele>
        <time>2019-12-21T10:50:00.335Z</time>
      </trkpt>
      <trkpt lat="41.24825333" lon="1.86455333">
        <ele>88.0</ele>
        <time>2019-12-21T10:50:01.340Z</time>
      </trkpt>
      <trkpt lat="41.248265" lon="1.86458833">
        <ele>88.0</ele>
        <time>2019-12-21T10:50:02.353Z</time>
      </trkpt>
      <trkpt lat="41.248265" lon="1.86458833">
        <ele>88.0</ele>
        <time>2019-12-21T10:50:03.358Z</time>
      </trkpt>
      <trkpt lat="41.24827333" lon="1.864625">
        <ele>89.0</ele>
        <time>2019-12-21T10:50:04.367Z</time>
      </trkpt>
      <trkpt lat="41.24827333" lon="1.864625">
        <ele>89.0</ele>
        <time>2019-12-21T10:50:05.344Z</time>
      </trkpt>
      <trkpt lat="41.24828833" lon="1.86466667">
        <ele>89.0</ele>
        <time>2019-12-21T10:50:06.338Z</time>
      </trkpt>
      <trkpt lat="41.24828833" lon="1.86466667">
        <ele>89.0</ele>
        <time>2019-12-21T10:50:07.344Z</time>
      </trkpt>
      <trkpt lat="41.24830167" lon="1.86470833">
        <ele>89.0</ele>
        <time>2019-12-21T10:50:08.351Z</time>
      </trkpt>
      <trkpt lat="41.24830167" lon="1.86470833">
        <ele>89.0</ele>
        <time>2019-12-21T10:50:09.359Z</time>
      </trkpt>
      <trkpt lat="41.248315" lon="1.86474667">
        <ele>90.0</ele>
        <time>2019-12-21T10:50:10.371Z</time>
      </trkpt>
      <trkpt lat="41.248315" lon="1.86474667">
        <ele>90.0</ele>
        <time>2019-12-21T10:50:11.336Z</time>
      </trkpt>
      <trkpt lat="41.24832833" lon="1.86478667">
        <ele>90.0</ele>
        <time>2019-12-21T10:50:12.342Z</time>
      </trkpt>
      <trkpt lat="41.24832833" lon="1.86478667">
        <ele>90.0</ele>
        <time>2019-12-21T10:50:13.347Z</time>
      </trkpt>
      <trkpt lat="41.24834167" lon="1.86482833">
        <ele>90.0</ele>
        <time>2019-12-21T10:50:14.361Z</time>
      </trkpt>
      <trkpt lat="41.24834167" lon="1.86482833">
        <ele>90.0</ele>
        <time>2019-12-21T10:50:15.367Z</time>
      </trkpt>
      <trkpt lat="41.24835167" lon="1.86487333">
        <ele>90.0</ele>
        <time>2019-12-21T10:50:16.334Z</time>
      </trkpt>
      <trkpt lat="41.24835167" lon="1.86487333">
        <ele>90.0</ele>
        <time>2019-12-21T10:50:17.338Z</time>
      </trkpt>
      <trkpt lat="41.24836333" lon="1.86492167">
        <ele>91.0</ele>
        <time>2019-12-21T10:50:18.361Z</time>
      </trkpt>
      <trkpt lat="41.24836333" lon="1.86492167">
        <ele>91.0</ele>
        <time>2019-12-21T10:50:19.367Z</time>
      </trkpt>
      <trkpt lat="41.24836833" lon="1.86496833">
        <ele>91.0</ele>
        <time>2019-12-21T10:50:20.337Z</time>
      </trkpt>
      <trkpt lat="41.24837333" lon="1.86499167">
        <ele>91.0</ele>
        <time>2019-12-21T10:50:21.341Z</time>
      </trkpt>
      <trkpt lat="41.24837833" lon="1.86501333">
        <ele>91.0</ele>
        <time>2019-12-21T10:50:22.346Z</time>
      </trkpt>
      <trkpt lat="41.24837833" lon="1.86501333">
        <ele>91.0</ele>
        <time>2019-12-21T10:50:23.351Z</time>
      </trkpt>
      <trkpt lat="41.24837833" lon="1.86505833">
        <ele>91.0</ele>
        <time>2019-12-21T10:50:24.363Z</time>
      </trkpt>
      <trkpt lat="41.24837833" lon="1.86508">
        <ele>91.0</ele>
        <time>2019-12-21T10:50:25.355Z</time>
      </trkpt>
      <trkpt lat="41.24837833" lon="1.86508">
        <ele>91.0</ele>
        <time>2019-12-21T10:50:26.360Z</time>
      </trkpt>
      <trkpt lat="41.248375" lon="1.865125">
        <ele>91.0</ele>
        <time>2019-12-21T10:50:27.367Z</time>
      </trkpt>
      <trkpt lat="41.24837" lon="1.86515">
        <ele>91.0</ele>
        <time>2019-12-21T10:50:28.337Z</time>
      </trkpt>
      <trkpt lat="41.24837" lon="1.86515">
        <ele>91.0</ele>
        <time>2019-12-21T10:50:29.370Z</time>
      </trkpt>
      <trkpt lat="41.24837667" lon="1.86519833">
        <ele>91.0</ele>
        <time>2019-12-21T10:50:30.355Z</time>
      </trkpt>
      <trkpt lat="41.24837667" lon="1.86519833">
        <ele>91.0</ele>
        <time>2019-12-21T10:50:31.361Z</time>
      </trkpt>
      <trkpt lat="41.24838333" lon="1.86524833">
        <ele>92.0</ele>
        <time>2019-12-21T10:50:32.371Z</time>
      </trkpt>
      <trkpt lat="41.24838333" lon="1.86524833">
        <ele>92.0</ele>
        <time>2019-12-21T10:50:33.336Z</time>
      </trkpt>
      <trkpt lat="41.24838667" lon="1.86529333">
        <ele>92.0</ele>
        <time>2019-12-21T10:50:34.371Z</time>
      </trkpt>
      <trkpt lat="41.24838667" lon="1.86529333">
        <ele>92.0</ele>
        <time>2019-12-21T10:50:35.343Z</time>
      </trkpt>
      <trkpt lat="41.24839667" lon="1.86533833">
        <ele>92.0</ele>
        <time>2019-12-21T10:50:36.358Z</time>
      </trkpt>
      <trkpt lat="41.24839667" lon="1.86533833">
        <ele>92.0</ele>
        <time>2019-12-21T10:50:37.340Z</time>
      </trkpt>
      <trkpt lat="41.248405" lon="1.86538">
        <ele>93.0</ele>
        <time>2019-12-21T10:50:38.371Z</time>
      </trkpt>
      <trkpt lat="41.248405" lon="1.86538">
        <ele>93.0</ele>
        <time>2019-12-21T10:50:39.336Z</time>
      </trkpt>
      <trkpt lat="41.24841333" lon="1.86542">
        <ele>93.0</ele>
        <time>2019-12-21T10:50:40.343Z</time>
      </trkpt>
      <trkpt lat="41.24841833" lon="1.86544333">
        <ele>93.0</ele>
        <time>2019-12-21T10:50:41.370Z</time>
      </trkpt>
      <trkpt lat="41.24841833" lon="1.86544333">
        <ele>93.0</ele>
        <time>2019-12-21T10:50:42.335Z</time>
      </trkpt>
      <trkpt lat="41.24842667" lon="1.86548667">
        <ele>93.0</ele>
        <time>2019-12-21T10:50:43.342Z</time>
      </trkpt>
      <trkpt lat="41.24842667" lon="1.865505">
        <ele>94.0</ele>
        <time>2019-12-21T10:50:44.360Z</time>
      </trkpt>
      <trkpt lat="41.24842667" lon="1.865505">
        <ele>94.0</ele>
        <time>2019-12-21T10:50:45.347Z</time>
      </trkpt>
      <trkpt lat="41.24844167" lon="1.86554333">
        <ele>94.0</ele>
        <time>2019-12-21T10:50:46.340Z</time>
      </trkpt>
      <trkpt lat="41.24844167" lon="1.86554333">
        <ele>94.0</ele>
        <time>2019-12-21T10:50:47.345Z</time>
      </trkpt>
      <trkpt lat="41.24846167" lon="1.865585">
        <ele>94.0</ele>
        <time>2019-12-21T10:50:48.351Z</time>
      </trkpt>
      <trkpt lat="41.24846167" lon="1.865585">
        <ele>94.0</ele>
        <time>2019-12-21T10:50:49.360Z</time>
      </trkpt>
      <trkpt lat="41.248465" lon="1.86562167">
        <ele>95.0</ele>
        <time>2019-12-21T10:50:50.361Z</time>
      </trkpt>
      <trkpt lat="41.248465" lon="1.86562167">
        <ele>95.0</ele>
        <time>2019-12-21T10:50:51.366Z</time>
      </trkpt>
      <trkpt lat="41.24848333" lon="1.86566667">
        <ele>95.0</ele>
        <time>2019-12-21T10:50:52.373Z</time>
      </trkpt>
      <trkpt lat="41.24848333" lon="1.86566667">
        <ele>95.0</ele>
        <time>2019-12-21T10:50:53.337Z</time>
      </trkpt>
      <trkpt lat="41.24848833" lon="1.86570667">
        <ele>96.0</ele>
        <time>2019-12-21T10:50:54.349Z</time>
      </trkpt>
      <trkpt lat="41.24848833" lon="1.86570667">
        <ele>96.0</ele>
        <time>2019-12-21T10:50:55.348Z</time>
      </trkpt>
      <trkpt lat="41.248495" lon="1.86574667">
        <ele>96.0</ele>
        <time>2019-12-21T10:50:56.354Z</time>
      </trkpt>
      <trkpt lat="41.248495" lon="1.86574667">
        <ele>96.0</ele>
        <time>2019-12-21T10:50:57.362Z</time>
      </trkpt>
      <trkpt lat="41.24849833" lon="1.86578667">
        <ele>97.0</ele>
        <time>2019-12-21T10:50:58.371Z</time>
      </trkpt>
      <trkpt lat="41.24849833" lon="1.86578667">
        <ele>97.0</ele>
        <time>2019-12-21T10:50:59.347Z</time>
      </trkpt>
      <trkpt lat="41.24850167" lon="1.86582833">
        <ele>98.0</ele>
        <time>2019-12-21T10:51:00.355Z</time>
      </trkpt>
      <trkpt lat="41.24850167" lon="1.86582833">
        <ele>98.0</ele>
        <time>2019-12-21T10:51:01.362Z</time>
      </trkpt>
      <trkpt lat="41.24851167" lon="1.86587">
        <ele>98.0</ele>
        <time>2019-12-21T10:51:02.370Z</time>
      </trkpt>
      <trkpt lat="41.24851167" lon="1.86587">
        <ele>98.0</ele>
        <time>2019-12-21T10:51:03.342Z</time>
      </trkpt>
      <trkpt lat="41.24851" lon="1.86591333">
        <ele>99.0</ele>
        <time>2019-12-21T10:51:04.372Z</time>
      </trkpt>
      <trkpt lat="41.24851" lon="1.86591333">
        <ele>99.0</ele>
        <time>2019-12-21T10:51:05.337Z</time>
      </trkpt>
      <trkpt lat="41.24851" lon="1.86595667">
        <ele>99.0</ele>
        <time>2019-12-21T10:51:06.343Z</time>
      </trkpt>
      <trkpt lat="41.24851" lon="1.86595667">
        <ele>99.0</ele>
        <time>2019-12-21T10:51:07.348Z</time>
      </trkpt>
      <trkpt lat="41.248515" lon="1.865995">
        <ele>100.0</ele>
        <time>2019-12-21T10:51:08.368Z</time>
      </trkpt>
      <trkpt lat="41.248515" lon="1.865995">
        <ele>100.0</ele>
        <time>2019-12-21T10:51:09.335Z</time>
      </trkpt>
      <trkpt lat="41.24851" lon="1.86603833">
        <ele>101.0</ele>
        <time>2019-12-21T10:51:10.339Z</time>
      </trkpt>
      <trkpt lat="41.24851" lon="1.86603833">
        <ele>101.0</ele>
        <time>2019-12-21T10:51:11.345Z</time>
      </trkpt>
      <trkpt lat="41.24852167" lon="1.866085">
        <ele>101.0</ele>
        <time>2019-12-21T10:51:12.351Z</time>
      </trkpt>
      <trkpt lat="41.24852167" lon="1.866085">
        <ele>101.0</ele>
        <time>2019-12-21T10:51:13.359Z</time>
      </trkpt>
      <trkpt lat="41.248525" lon="1.86612833">
        <ele>102.0</ele>
        <time>2019-12-21T10:51:14.371Z</time>
      </trkpt>
      <trkpt lat="41.24852833" lon="1.86615">
        <ele>103.0</ele>
        <time>2019-12-21T10:51:15.353Z</time>
      </trkpt>
      <trkpt lat="41.24852667" lon="1.86617333">
        <ele>103.0</ele>
        <time>2019-12-21T10:51:16.358Z</time>
      </trkpt>
      <trkpt lat="41.24852667" lon="1.86617333">
        <ele>103.0</ele>
        <time>2019-12-21T10:51:17.364Z</time>
      </trkpt>
      <trkpt lat="41.24853667" lon="1.86622167">
        <ele>104.0</ele>
        <time>2019-12-21T10:51:18.372Z</time>
      </trkpt>
      <trkpt lat="41.24853667" lon="1.86622167">
        <ele>104.0</ele>
        <time>2019-12-21T10:51:19.338Z</time>
      </trkpt>
      <trkpt lat="41.24854167" lon="1.86626667">
        <ele>105.0</ele>
        <time>2019-12-21T10:51:20.366Z</time>
      </trkpt>
      <trkpt lat="41.24854167" lon="1.86626667">
        <ele>105.0</ele>
        <time>2019-12-21T10:51:21.372Z</time>
      </trkpt>
      <trkpt lat="41.24853833" lon="1.86631333">
        <ele>106.0</ele>
        <time>2019-12-21T10:51:22.338Z</time>
      </trkpt>
      <trkpt lat="41.24853833" lon="1.86631333">
        <ele>106.0</ele>
        <time>2019-12-21T10:51:23.343Z</time>
      </trkpt>
      <trkpt lat="41.24853333" lon="1.86635667">
        <ele>107.0</ele>
        <time>2019-12-21T10:51:24.364Z</time>
      </trkpt>
      <trkpt lat="41.24853333" lon="1.86635667">
        <ele>107.0</ele>
        <time>2019-12-21T10:51:25.370Z</time>
      </trkpt>
      <trkpt lat="41.24852667" lon="1.86639667">
        <ele>108.0</ele>
        <time>2019-12-21T10:51:26.347Z</time>
      </trkpt>
      <trkpt lat="41.24852667" lon="1.86639667">
        <ele>108.0</ele>
        <time>2019-12-21T10:51:27.352Z</time>
      </trkpt>
      <trkpt lat="41.248535" lon="1.86644">
        <ele>109.0</ele>
        <time>2019-12-21T10:51:28.334Z</time>
      </trkpt>
      <trkpt lat="41.248535" lon="1.86644">
        <ele>109.0</ele>
        <time>2019-12-21T10:51:29.340Z</time>
      </trkpt>
      <trkpt lat="41.24854833" lon="1.866485">
        <ele>110.0</ele>
        <time>2019-12-21T10:51:30.348Z</time>
      </trkpt>
      <trkpt lat="41.24854833" lon="1.866485">
        <ele>110.0</ele>
        <time>2019-12-21T10:51:31.361Z</time>
      </trkpt>
      <trkpt lat="41.248555" lon="1.86653333">
        <ele>111.0</ele>
        <time>2019-12-21T10:51:32.353Z</time>
      </trkpt>
      <trkpt lat="41.248555" lon="1.86653333">
        <ele>111.0</ele>
        <time>2019-12-21T10:51:33.361Z</time>
      </trkpt>
      <trkpt lat="41.24855833" lon="1.86657833">
        <ele>111.0</ele>
        <time>2019-12-21T10:51:34.335Z</time>
      </trkpt>
      <trkpt lat="41.24855833" lon="1.86657833">
        <ele>111.0</ele>
        <time>2019-12-21T10:51:35.370Z</time>
      </trkpt>
      <trkpt lat="41.24855667" lon="1.86662">
        <ele>112.0</ele>
        <time>2019-12-21T10:51:36.370Z</time>
      </trkpt>
      <trkpt lat="41.24855667" lon="1.86662">
        <ele>112.0</ele>
        <time>2019-12-21T10:51:37.335Z</time>
      </trkpt>
      <trkpt lat="41.24856667" lon="1.86665667">
        <ele>113.0</ele>
        <time>2019-12-21T10:51:38.341Z</time>
      </trkpt>
      <trkpt lat="41.24856667" lon="1.86665667">
        <ele>113.0</ele>
        <time>2019-12-21T10:51:39.347Z</time>
      </trkpt>
      <trkpt lat="41.248585" lon="1.86669333">
        <ele>113.0</ele>
        <time>2019-12-21T10:51:40.333Z</time>
      </trkpt>
      <trkpt lat="41.248585" lon="1.86669333">
        <ele>113.0</ele>
        <time>2019-12-21T10:51:41.338Z</time>
      </trkpt>
      <trkpt lat="41.24860833" lon="1.86672667">
        <ele>114.0</ele>
        <time>2019-12-21T10:51:42.344Z</time>
      </trkpt>
      <trkpt lat="41.24860833" lon="1.86672667">
        <ele>114.0</ele>
        <time>2019-12-21T10:51:43.349Z</time>
      </trkpt>
      <trkpt lat="41.248625" lon="1.86676833">
        <ele>115.0</ele>
        <time>2019-12-21T10:51:44.372Z</time>
      </trkpt>
      <trkpt lat="41.248625" lon="1.86676833">
        <ele>115.0</ele>
        <time>2019-12-21T10:51:45.337Z</time>
      </trkpt>
      <trkpt lat="41.24864667" lon="1.86681333">
        <ele>115.0</ele>
        <time>2019-12-21T10:51:46.344Z</time>
      </trkpt>
      <trkpt lat="41.24864667" lon="1.86681333">
        <ele>115.0</ele>
        <time>2019-12-21T10:51:47.349Z</time>
      </trkpt>
      <trkpt lat="41.24867" lon="1.86685167">
        <ele>116.0</ele>
        <time>2019-12-21T10:51:48.338Z</time>
      </trkpt>
      <trkpt lat="41.24867" lon="1.86685167">
        <ele>116.0</ele>
        <time>2019-12-21T10:51:49.345Z</time>
      </trkpt>
      <trkpt lat="41.24869333" lon="1.86690333">
        <ele>116.0</ele>
        <time>2019-12-21T10:51:50.351Z</time>
      </trkpt>
      <trkpt lat="41.24869333" lon="1.86690333">
        <ele>116.0</ele>
        <time>2019-12-21T10:51:51.358Z</time>
      </trkpt>
      <trkpt lat="41.24870667" lon="1.866945">
        <ele>117.0</ele>
        <time>2019-12-21T10:51:52.338Z</time>
      </trkpt>
      <trkpt lat="41.24870667" lon="1.866945">
        <ele>117.0</ele>
        <time>2019-12-21T10:51:53.343Z</time>
      </trkpt>
      <trkpt lat="41.248725" lon="1.86698333">
        <ele>117.0</ele>
        <time>2019-12-21T10:51:54.333Z</time>
      </trkpt>
      <trkpt lat="41.248725" lon="1.86698333">
        <ele>117.0</ele>
        <time>2019-12-21T10:51:55.358Z</time>
      </trkpt>
      <trkpt lat="41.24874167" lon="1.86703333">
        <ele>117.0</ele>
        <time>2019-12-21T10:51:56.365Z</time>
      </trkpt>
      <trkpt lat="41.24874167" lon="1.86703333">
        <ele>117.0</ele>
        <time>2019-12-21T10:51:57.370Z</time>
      </trkpt>
      <trkpt lat="41.24876" lon="1.86707">
        <ele>118.0</ele>
        <time>2019-12-21T10:51:58.338Z</time>
      </trkpt>
      <trkpt lat="41.24876" lon="1.86707">
        <ele>118.0</ele>
        <time>2019-12-21T10:51:59.346Z</time>
      </trkpt>
      <trkpt lat="41.24877333" lon="1.86709667">
        <ele>118.0</ele>
        <time>2019-12-21T10:52:00.369Z</time>
      </trkpt>
      <trkpt lat="41.24877333" lon="1.86709667">
        <ele>118.0</ele>
        <time>2019-12-21T10:52:01.351Z</time>
      </trkpt>
      <trkpt lat="41.24878667" lon="1.86714167">
        <ele>118.0</ele>
        <time>2019-12-21T10:52:02.361Z</time>
      </trkpt>
      <trkpt lat="41.24878667" lon="1.86714167">
        <ele>118.0</ele>
        <time>2019-12-21T10:52:03.366Z</time>
      </trkpt>
      <trkpt lat="41.24877" lon="1.86716333">
        <ele>118.0</ele>
        <time>2019-12-21T10:52:04.333Z</time>
      </trkpt>
      <trkpt lat="41.24877" lon="1.86716333">
        <ele>118.0</ele>
        <time>2019-12-21T10:52:05.338Z</time>
      </trkpt>
      <trkpt lat="41.24873333" lon="1.86715">
        <ele>118.0</ele>
        <time>2019-12-21T10:52:06.365Z</time>
      </trkpt>
      <trkpt lat="41.24873333" lon="1.86715">
        <ele>118.0</ele>
        <time>2019-12-21T10:52:07.370Z</time>
      </trkpt>
      <trkpt lat="41.24871833" lon="1.86712833">
        <ele>118.0</ele>
        <time>2019-12-21T10:52:08.338Z</time>
      </trkpt>
      <trkpt lat="41.24871833" lon="1.86712833">
        <ele>118.0</ele>
        <time>2019-12-21T10:52:09.345Z</time>
      </trkpt>
      <trkpt lat="41.24870833" lon="1.86709">
        <ele>119.0</ele>
        <time>2019-12-21T10:52:10.361Z</time>
      </trkpt>
      <trkpt lat="41.24870833" lon="1.86709">
        <ele>119.0</ele>
        <time>2019-12-21T10:52:11.366Z</time>
      </trkpt>
      <trkpt lat="41.2487" lon="1.86704667">
        <ele>119.0</ele>
        <time>2019-12-21T10:52:12.359Z</time>
      </trkpt>
      <trkpt lat="41.2487" lon="1.86704667">
        <ele>119.0</ele>
        <time>2019-12-21T10:52:13.365Z</time>
      </trkpt>
      <trkpt lat="41.24868167" lon="1.86701333">
        <ele>120.0</ele>
        <time>2019-12-21T10:52:14.372Z</time>
      </trkpt>
      <trkpt lat="41.24868167" lon="1.86701333">
        <ele>120.0</ele>
        <time>2019-12-21T10:52:15.338Z</time>
      </trkpt>
      <trkpt lat="41.24865667" lon="1.86698667">
        <ele>121.0</ele>
        <time>2019-12-21T10:52:16.344Z</time>
      </trkpt>
      <trkpt lat="41.24865667" lon="1.86698667">
        <ele>121.0</ele>
        <time>2019-12-21T10:52:17.370Z</time>
      </trkpt>
      <trkpt lat="41.24862833" lon="1.86696667">
        <ele>121.0</ele>
        <time>2019-12-21T10:52:18.340Z</time>
      </trkpt>
      <trkpt lat="41.24862833" lon="1.86696667">
        <ele>121.0</ele>
        <time>2019-12-21T10:52:19.345Z</time>
      </trkpt>
      <trkpt lat="41.24859833" lon="1.86693167">
        <ele>121.0</ele>
        <time>2019-12-21T10:52:20.352Z</time>
      </trkpt>
      <trkpt lat="41.24859833" lon="1.86693167">
        <ele>121.0</ele>
        <time>2019-12-21T10:52:21.367Z</time>
      </trkpt>
      <trkpt lat="41.248585" lon="1.86689">
        <ele>122.0</ele>
        <time>2019-12-21T10:52:22.341Z</time>
      </trkpt>
      <trkpt lat="41.248585" lon="1.86689">
        <ele>122.0</ele>
        <time>2019-12-21T10:52:23.346Z</time>
      </trkpt>
      <trkpt lat="41.24856167" lon="1.86684833">
        <ele>122.0</ele>
        <time>2019-12-21T10:52:24.352Z</time>
      </trkpt>
      <trkpt lat="41.24856167" lon="1.86684833">
        <ele>122.0</ele>
        <time>2019-12-21T10:52:25.370Z</time>
      </trkpt>
      <trkpt lat="41.24853667" lon="1.86681333">
        <ele>122.0</ele>
        <time>2019-12-21T10:52:26.370Z</time>
      </trkpt>
      <trkpt lat="41.24853667" lon="1.86681333">
        <ele>122.0</ele>
        <time>2019-12-21T10:52:27.336Z</time>
      </trkpt>
      <trkpt lat="41.24850667" lon="1.866785">
        <ele>122.0</ele>
        <time>2019-12-21T10:52:28.342Z</time>
      </trkpt>
      <trkpt lat="41.24850667" lon="1.866785">
        <ele>122.0</ele>
        <time>2019-12-21T10:52:29.347Z</time>
      </trkpt>
      <trkpt lat="41.24848333" lon="1.86674333">
        <ele>123.0</ele>
        <time>2019-12-21T10:52:30.333Z</time>
      </trkpt>
      <trkpt lat="41.24848333" lon="1.86674333">
        <ele>123.0</ele>
        <time>2019-12-21T10:52:31.338Z</time>
      </trkpt>
      <trkpt lat="41.24845833" lon="1.86670833">
        <ele>123.0</ele>
        <time>2019-12-21T10:52:32.350Z</time>
      </trkpt>
      <trkpt lat="41.24845833" lon="1.86670833">
        <ele>123.0</ele>
        <time>2019-12-21T10:52:33.355Z</time>
      </trkpt>
      <trkpt lat="41.24844333" lon="1.866675">
        <ele>123.0</ele>
        <time>2019-12-21T10:52:34.371Z</time>
      </trkpt>
      <trkpt lat="41.24844333" lon="1.866675">
        <ele>123.0</ele>
        <time>2019-12-21T10:52:35.336Z</time>
      </trkpt>
      <trkpt lat="41.248425" lon="1.86663833">
        <ele>124.0</ele>
        <time>2019-12-21T10:52:36.367Z</time>
      </trkpt>
      <trkpt lat="41.24841833" lon="1.86662333">
        <ele>124.0</ele>
        <time>2019-12-21T10:52:37.351Z</time>
      </trkpt>
      <trkpt lat="41.24841833" lon="1.86662333">
        <ele>124.0</ele>
        <time>2019-12-21T10:52:38.356Z</time>
      </trkpt>
      <trkpt lat="41.24840833" lon="1.866585">
        <ele>125.0</ele>
        <time>2019-12-21T10:52:39.364Z</time>
      </trkpt>
      <trkpt lat="41.248405" lon="1.866565">
        <ele>125.0</ele>
        <time>2019-12-21T10:52:40.353Z</time>
      </trkpt>
      <trkpt lat="41.248405" lon="1.866565">
        <ele>125.0</ele>
        <time>2019-12-21T10:52:41.362Z</time>
      </trkpt>
      <trkpt lat="41.24839667" lon="1.86652667">
        <ele>126.0</ele>
        <time>2019-12-21T10:52:42.369Z</time>
      </trkpt>
      <trkpt lat="41.24839667" lon="1.86652667">
        <ele>126.0</ele>
        <time>2019-12-21T10:52:43.335Z</time>
      </trkpt>
      <trkpt lat="41.24838167" lon="1.86647667">
        <ele>126.0</ele>
        <time>2019-12-21T10:52:44.344Z</time>
      </trkpt>
      <trkpt lat="41.24838167" lon="1.86647667">
        <ele>126.0</ele>
        <time>2019-12-21T10:52:45.349Z</time>
      </trkpt>
      <trkpt lat="41.24837667" lon="1.866425">
        <ele>127.0</ele>
        <time>2019-12-21T10:52:46.355Z</time>
      </trkpt>
      <trkpt lat="41.24837667" lon="1.866425">
        <ele>127.0</ele>
        <time>2019-12-21T10:52:47.365Z</time>
      </trkpt>
      <trkpt lat="41.248375" lon="1.86637833">
        <ele>127.0</ele>
        <time>2019-12-21T10:52:48.372Z</time>
      </trkpt>
      <trkpt lat="41.248375" lon="1.86637833">
        <ele>127.0</ele>
        <time>2019-12-21T10:52:49.337Z</time>
      </trkpt>
      <trkpt lat="41.24836333" lon="1.86632833">
        <ele>128.0</ele>
        <time>2019-12-21T10:52:50.363Z</time>
      </trkpt>
      <trkpt lat="41.24836333" lon="1.86632833">
        <ele>128.0</ele>
        <time>2019-12-21T10:52:51.347Z</time>
      </trkpt>
      <trkpt lat="41.24834" lon="1.86628">
        <ele>128.0</ele>
        <time>2019-12-21T10:52:52.361Z</time>
      </trkpt>
      <trkpt lat="41.24834" lon="1.86628">
        <ele>128.0</ele>
        <time>2019-12-21T10:52:53.366Z</time>
      </trkpt>
      <trkpt lat="41.248305" lon="1.86623667">
        <ele>129.0</ele>
        <time>2019-12-21T10:52:54.356Z</time>
      </trkpt>
      <trkpt lat="41.248305" lon="1.86623667">
        <ele>129.0</ele>
        <time>2019-12-21T10:52:55.372Z</time>
      </trkpt>
      <trkpt lat="41.24829167" lon="1.86619167">
        <ele>129.0</ele>
        <time>2019-12-21T10:52:56.341Z</time>
      </trkpt>
      <trkpt lat="41.24828333" lon="1.86616833">
        <ele>129.0</ele>
        <time>2019-12-21T10:52:57.340Z</time>
      </trkpt>
      <trkpt lat="41.24827" lon="1.866145">
        <ele>129.0</ele>
        <time>2019-12-21T10:52:58.346Z</time>
      </trkpt>
      <trkpt lat="41.24827" lon="1.866145">
        <ele>129.0</ele>
        <time>2019-12-21T10:52:59.352Z</time>
      </trkpt>
      <trkpt lat="41.24822833" lon="1.86610667">
        <ele>129.0</ele>
        <time>2019-12-21T10:53:00.371Z</time>
      </trkpt>
      <trkpt lat="41.24822833" lon="1.86610667">
        <ele>129.0</ele>
        <time>2019-12-21T10:53:01.336Z</time>
      </trkpt>
      <trkpt lat="41.24820667" lon="1.86606833">
        <ele>130.0</ele>
        <time>2019-12-21T10:53:02.343Z</time>
      </trkpt>
      <trkpt lat="41.24820667" lon="1.86606833">
        <ele>130.0</ele>
        <time>2019-12-21T10:53:03.348Z</time>
      </trkpt>
      <trkpt lat="41.24817667" lon="1.86602833">
        <ele>130.0</ele>
        <time>2019-12-21T10:53:04.369Z</time>
      </trkpt>
      <trkpt lat="41.24817667" lon="1.86602833">
        <ele>130.0</ele>
        <time>2019-12-21T10:53:05.335Z</time>
      </trkpt>
      <trkpt lat="41.248145" lon="1.86599167">
        <ele>130.0</ele>
        <time>2019-12-21T10:53:06.345Z</time>
      </trkpt>
      <trkpt lat="41.24813" lon="1.86597167">
        <ele>130.0</ele>
        <time>2019-12-21T10:53:07.362Z</time>
      </trkpt>
      <trkpt lat="41.24813" lon="1.86597167">
        <ele>130.0</ele>
        <time>2019-12-21T10:53:08.367Z</time>
      </trkpt>
      <trkpt lat="41.248105" lon="1.86593333">
        <ele>130.0</ele>
        <time>2019-12-21T10:53:09.333Z</time>
      </trkpt>
      <trkpt lat="41.24809" lon="1.865915">
        <ele>130.0</ele>
        <time>2019-12-21T10:53:10.357Z</time>
      </trkpt>
      <trkpt lat="41.24809" lon="1.865915">
        <ele>130.0</ele>
        <time>2019-12-21T10:53:11.362Z</time>
      </trkpt>
      <trkpt lat="41.24806333" lon="1.865885">
        <ele>131.0</ele>
        <time>2019-12-21T10:53:12.369Z</time>
      </trkpt>
      <trkpt lat="41.24806333" lon="1.865885">
        <ele>131.0</ele>
        <time>2019-12-21T10:53:13.334Z</time>
      </trkpt>
      <trkpt lat="41.24804167" lon="1.86585167">
        <ele>131.0</ele>
        <time>2019-12-21T10:53:14.371Z</time>
      </trkpt>
      <trkpt lat="41.24804167" lon="1.86585167">
        <ele>131.0</ele>
        <time>2019-12-21T10:53:15.336Z</time>
      </trkpt>
      <trkpt lat="41.248015" lon="1.86582167">
        <ele>131.0</ele>
        <time>2019-12-21T10:53:16.354Z</time>
      </trkpt>
      <trkpt lat="41.248015" lon="1.86582167">
        <ele>131.0</ele>
        <time>2019-12-21T10:53:17.363Z</time>
      </trkpt>
      <trkpt lat="41.24799667" lon="1.865785">
        <ele>131.0</ele>
        <time>2019-12-21T10:53:18.350Z</time>
      </trkpt>
      <trkpt lat="41.24799667" lon="1.865785">
        <ele>131.0</ele>
        <time>2019-12-21T10:53:19.356Z</time>
      </trkpt>
      <trkpt lat="41.24797833" lon="1.86575">
        <ele>132.0</ele>
        <time>2019-12-21T10:53:20.338Z</time>
      </trkpt>
      <trkpt lat="41.24797833" lon="1.86575">
        <ele>132.0</ele>
        <time>2019-12-21T10:53:21.370Z</time>
      </trkpt>
      <trkpt lat="41.24795167" lon="1.86571667">
        <ele>132.0</ele>
        <time>2019-12-21T10:53:22.341Z</time>
      </trkpt>
      <trkpt lat="41.24795167" lon="1.86571667">
        <ele>132.0</ele>
        <time>2019-12-21T10:53:23.347Z</time>
      </trkpt>
      <trkpt lat="41.247925" lon="1.86569833">
        <ele>132.0</ele>
        <time>2019-12-21T10:53:24.353Z</time>
      </trkpt>
      <trkpt lat="41.247925" lon="1.86569833">
        <ele>132.0</ele>
        <time>2019-12-21T10:53:25.369Z</time>
      </trkpt>
      <trkpt lat="41.24790167" lon="1.86569667">
        <ele>133.0</ele>
        <time>2019-12-21T10:53:26.343Z</time>
      </trkpt>
      <trkpt lat="41.24790167" lon="1.86569667">
        <ele>133.0</ele>
        <time>2019-12-21T10:53:27.348Z</time>
      </trkpt>
      <trkpt lat="41.24788333" lon="1.86571167">
        <ele>133.0</ele>
        <time>2019-12-21T10:53:28.361Z</time>
      </trkpt>
      <trkpt lat="41.24788333" lon="1.86571167">
        <ele>133.0</ele>
        <time>2019-12-21T10:53:29.366Z</time>
      </trkpt>
      <trkpt lat="41.24787" lon="1.86574667">
        <ele>134.0</ele>
        <time>2019-12-21T10:53:30.341Z</time>
      </trkpt>
      <trkpt lat="41.24787" lon="1.86574667">
        <ele>134.0</ele>
        <time>2019-12-21T10:53:31.346Z</time>
      </trkpt>
      <trkpt lat="41.24787167" lon="1.86578167">
        <ele>135.0</ele>
        <time>2019-12-21T10:53:32.354Z</time>
      </trkpt>
      <trkpt lat="41.24787167" lon="1.86578167">
        <ele>135.0</ele>
        <time>2019-12-21T10:53:33.359Z</time>
      </trkpt>
      <trkpt lat="41.24788833" lon="1.86581333">
        <ele>135.0</ele>
        <time>2019-12-21T10:53:34.341Z</time>
      </trkpt>
      <trkpt lat="41.24788833" lon="1.86581333">
        <ele>135.0</ele>
        <time>2019-12-21T10:53:35.346Z</time>
      </trkpt>
      <trkpt lat="41.24790333" lon="1.865845">
        <ele>135.0</ele>
        <time>2019-12-21T10:53:36.366Z</time>
      </trkpt>
      <trkpt lat="41.24790333" lon="1.865845">
        <ele>135.0</ele>
        <time>2019-12-21T10:53:37.372Z</time>
      </trkpt>
      <trkpt lat="41.24791667" lon="1.86588333">
        <ele>136.0</ele>
        <time>2019-12-21T10:53:38.357Z</time>
      </trkpt>
      <trkpt lat="41.24791667" lon="1.86588333">
        <ele>136.0</ele>
        <time>2019-12-21T10:53:39.365Z</time>
      </trkpt>
      <trkpt lat="41.247925" lon="1.865925">
        <ele>136.0</ele>
        <time>2019-12-21T10:53:40.333Z</time>
      </trkpt>
      <trkpt lat="41.247925" lon="1.865925">
        <ele>136.0</ele>
        <time>2019-12-21T10:53:41.371Z</time>
      </trkpt>
      <trkpt lat="41.24793333" lon="1.86596833">
        <ele>135.0</ele>
        <time>2019-12-21T10:53:42.340Z</time>
      </trkpt>
      <trkpt lat="41.24793333" lon="1.86596833">
        <ele>135.0</ele>
        <time>2019-12-21T10:53:43.345Z</time>
      </trkpt>
      <trkpt lat="41.24793833" lon="1.86601167">
        <ele>135.0</ele>
        <time>2019-12-21T10:53:44.352Z</time>
      </trkpt>
      <trkpt lat="41.24793833" lon="1.86601167">
        <ele>135.0</ele>
        <time>2019-12-21T10:53:45.359Z</time>
      </trkpt>
      <trkpt lat="41.24795167" lon="1.866055">
        <ele>135.0</ele>
        <time>2019-12-21T10:53:46.372Z</time>
      </trkpt>
      <trkpt lat="41.24795167" lon="1.866055">
        <ele>135.0</ele>
        <time>2019-12-21T10:53:47.337Z</time>
      </trkpt>
      <trkpt lat="41.24796333" lon="1.86609667">
        <ele>136.0</ele>
        <time>2019-12-21T10:53:48.344Z</time>
      </trkpt>
      <trkpt lat="41.24796333" lon="1.86609667">
        <ele>136.0</ele>
        <time>2019-12-21T10:53:49.350Z</time>
      </trkpt>
      <trkpt lat="41.24797167" lon="1.86614">
        <ele>136.0</ele>
        <time>2019-12-21T10:53:50.333Z</time>
      </trkpt>
      <trkpt lat="41.24797167" lon="1.86614">
        <ele>136.0</ele>
        <time>2019-12-21T10:53:51.337Z</time>
      </trkpt>
      <trkpt lat="41.24798" lon="1.86618167">
        <ele>136.0</ele>
        <time>2019-12-21T10:53:52.352Z</time>
      </trkpt>
      <trkpt lat="41.24798" lon="1.86618167">
        <ele>136.0</ele>
        <time>2019-12-21T10:53:53.360Z</time>
      </trkpt>
      <trkpt lat="41.24799" lon="1.86622167">
        <ele>136.0</ele>
        <time>2019-12-21T10:53:54.343Z</time>
      </trkpt>
      <trkpt lat="41.24799" lon="1.86622167">
        <ele>136.0</ele>
        <time>2019-12-21T10:53:55.365Z</time>
      </trkpt>
      <trkpt lat="41.24799833" lon="1.86626">
        <ele>136.0</ele>
        <time>2019-12-21T10:53:56.333Z</time>
      </trkpt>
      <trkpt lat="41.24799833" lon="1.86626">
        <ele>136.0</ele>
        <time>2019-12-21T10:53:57.339Z</time>
      </trkpt>
      <trkpt lat="41.24801167" lon="1.86630167">
        <ele>136.0</ele>
        <time>2019-12-21T10:53:58.346Z</time>
      </trkpt>
      <trkpt lat="41.24801167" lon="1.86630167">
        <ele>136.0</ele>
        <time>2019-12-21T10:53:59.351Z</time>
      </trkpt>
      <trkpt lat="41.24802167" lon="1.86634333">
        <ele>136.0</ele>
        <time>2019-12-21T10:54:00.341Z</time>
      </trkpt>
      <trkpt lat="41.24802167" lon="1.86634333">
        <ele>136.0</ele>
        <time>2019-12-21T10:54:01.346Z</time>
      </trkpt>
      <trkpt lat="41.24802833" lon="1.866385">
        <ele>136.0</ele>
        <time>2019-12-21T10:54:02.352Z</time>
      </trkpt>
      <trkpt lat="41.24802833" lon="1.866385">
        <ele>136.0</ele>
        <time>2019-12-21T10:54:03.360Z</time>
      </trkpt>
      <trkpt lat="41.248035" lon="1.86643333">
        <ele>136.0</ele>
        <time>2019-12-21T10:54:04.372Z</time>
      </trkpt>
      <trkpt lat="41.248035" lon="1.86643333">
        <ele>136.0</ele>
        <time>2019-12-21T10:54:05.338Z</time>
      </trkpt>
      <trkpt lat="41.24803833" lon="1.866485">
        <ele>136.0</ele>
        <time>2019-12-21T10:54:06.344Z</time>
      </trkpt>
      <trkpt lat="41.24804167" lon="1.86651">
        <ele>136.0</ele>
        <time>2019-12-21T10:54:07.361Z</time>
      </trkpt>
      <trkpt lat="41.24804167" lon="1.86651">
        <ele>136.0</ele>
        <time>2019-12-21T10:54:08.366Z</time>
      </trkpt>
      <trkpt lat="41.24805167" lon="1.86655667">
        <ele>136.0</ele>
        <time>2019-12-21T10:54:09.372Z</time>
      </trkpt>
      <trkpt lat="41.24805167" lon="1.86655667">
        <ele>136.0</ele>
        <time>2019-12-21T10:54:10.337Z</time>
      </trkpt>
      <trkpt lat="41.24806167" lon="1.86660333">
        <ele>136.0</ele>
        <time>2019-12-21T10:54:11.360Z</time>
      </trkpt>
      <trkpt lat="41.24806167" lon="1.86660333">
        <ele>136.0</ele>
        <time>2019-12-21T10:54:12.365Z</time>
      </trkpt>
      <trkpt lat="41.24807" lon="1.86664833">
        <ele>137.0</ele>
        <time>2019-12-21T10:54:13.371Z</time>
      </trkpt>
      <trkpt lat="41.24807667" lon="1.86667167">
        <ele>137.0</ele>
        <time>2019-12-21T10:54:14.372Z</time>
      </trkpt>
      <trkpt lat="41.24807667" lon="1.86667167">
        <ele>137.0</ele>
        <time>2019-12-21T10:54:15.336Z</time>
      </trkpt>
      <trkpt lat="41.24808833" lon="1.86671833">
        <ele>137.0</ele>
        <time>2019-12-21T10:54:16.355Z</time>
      </trkpt>
      <trkpt lat="41.24808833" lon="1.86671833">
        <ele>137.0</ele>
        <time>2019-12-21T10:54:17.360Z</time>
      </trkpt>
      <trkpt lat="41.24809833" lon="1.86676833">
        <ele>137.0</ele>
        <time>2019-12-21T10:54:18.363Z</time>
      </trkpt>
      <trkpt lat="41.24809833" lon="1.86676833">
        <ele>137.0</ele>
        <time>2019-12-21T10:54:19.368Z</time>
      </trkpt>
      <trkpt lat="41.24811" lon="1.86682167">
        <ele>137.0</ele>
        <time>2019-12-21T10:54:20.350Z</time>
      </trkpt>
      <trkpt lat="41.248115" lon="1.86685">
        <ele>137.0</ele>
        <time>2019-12-21T10:54:21.340Z</time>
      </trkpt>
      <trkpt lat="41.248115" lon="1.86687833">
        <ele>137.0</ele>
        <time>2019-12-21T10:54:22.346Z</time>
      </trkpt>
      <trkpt lat="41.248115" lon="1.86687833">
        <ele>137.0</ele>
        <time>2019-12-21T10:54:23.351Z</time>
      </trkpt>
      <trkpt lat="41.24812667" lon="1.86692833">
        <ele>138.0</ele>
        <time>2019-12-21T10:54:24.370Z</time>
      </trkpt>
      <trkpt lat="41.24812667" lon="1.86692833">
        <ele>138.0</ele>
        <time>2019-12-21T10:54:25.359Z</time>
      </trkpt>
      <trkpt lat="41.24813667" lon="1.86697667">
        <ele>138.0</ele>
        <time>2019-12-21T10:54:26.352Z</time>
      </trkpt>
      <trkpt lat="41.24813667" lon="1.86697667">
        <ele>138.0</ele>
        <time>2019-12-21T10:54:27.359Z</time>
      </trkpt>
      <trkpt lat="41.248145" lon="1.86702667">
        <ele>138.0</ele>
        <time>2019-12-21T10:54:28.370Z</time>
      </trkpt>
      <trkpt lat="41.248145" lon="1.86702667">
        <ele>138.0</ele>
        <time>2019-12-21T10:54:29.335Z</time>
      </trkpt>
      <trkpt lat="41.248155" lon="1.867075">
        <ele>138.0</ele>
        <time>2019-12-21T10:54:30.373Z</time>
      </trkpt>
      <trkpt lat="41.248155" lon="1.867075">
        <ele>138.0</ele>
        <time>2019-12-21T10:54:31.337Z</time>
      </trkpt>
      <trkpt lat="41.24816667" lon="1.86712167">
        <ele>139.0</ele>
        <time>2019-12-21T10:54:32.344Z</time>
      </trkpt>
      <trkpt lat="41.24816667" lon="1.86712167">
        <ele>139.0</ele>
        <time>2019-12-21T10:54:33.350Z</time>
      </trkpt>
      <trkpt lat="41.24817833" lon="1.867165">
        <ele>139.0</ele>
        <time>2019-12-21T10:54:34.356Z</time>
      </trkpt>
      <trkpt lat="41.24817833" lon="1.867165">
        <ele>139.0</ele>
        <time>2019-12-21T10:54:35.362Z</time>
      </trkpt>
      <trkpt lat="41.24819333" lon="1.86720833">
        <ele>140.0</ele>
        <time>2019-12-21T10:54:36.369Z</time>
      </trkpt>
      <trkpt lat="41.24819333" lon="1.86720833">
        <ele>140.0</ele>
        <time>2019-12-21T10:54:37.336Z</time>
      </trkpt>
      <trkpt lat="41.24820333" lon="1.86724833">
        <ele>140.0</ele>
        <time>2019-12-21T10:54:38.349Z</time>
      </trkpt>
      <trkpt lat="41.24820333" lon="1.86724833">
        <ele>140.0</ele>
        <time>2019-12-21T10:54:39.372Z</time>
      </trkpt>
      <trkpt lat="41.24822167" lon="1.86728833">
        <ele>141.0</ele>
        <time>2019-12-21T10:54:40.340Z</time>
      </trkpt>
      <trkpt lat="41.24822167" lon="1.86728833">
        <ele>141.0</ele>
        <time>2019-12-21T10:54:41.347Z</time>
      </trkpt>
      <trkpt lat="41.24823667" lon="1.86732833">
        <ele>142.0</ele>
        <time>2019-12-21T10:54:42.354Z</time>
      </trkpt>
      <trkpt lat="41.24823667" lon="1.86732833">
        <ele>142.0</ele>
        <time>2019-12-21T10:54:43.363Z</time>
      </trkpt>
      <trkpt lat="41.24825" lon="1.86736833">
        <ele>142.0</ele>
        <time>2019-12-21T10:54:44.370Z</time>
      </trkpt>
      <trkpt lat="41.248255" lon="1.86738833">
        <ele>143.0</ele>
        <time>2019-12-21T10:54:45.337Z</time>
      </trkpt>
      <trkpt lat="41.248255" lon="1.86738833">
        <ele>143.0</ele>
        <time>2019-12-21T10:54:46.342Z</time>
      </trkpt>
      <trkpt lat="41.24826667" lon="1.86743">
        <ele>144.0</ele>
        <time>2019-12-21T10:54:47.360Z</time>
      </trkpt>
      <trkpt lat="41.24827167" lon="1.86745167">
        <ele>144.0</ele>
        <time>2019-12-21T10:54:48.364Z</time>
      </trkpt>
      <trkpt lat="41.24827167" lon="1.86745167">
        <ele>144.0</ele>
        <time>2019-12-21T10:54:49.369Z</time>
      </trkpt>
      <trkpt lat="41.24828167" lon="1.86749667">
        <ele>145.0</ele>
        <time>2019-12-21T10:54:50.350Z</time>
      </trkpt>
      <trkpt lat="41.24828167" lon="1.86749667">
        <ele>145.0</ele>
        <time>2019-12-21T10:54:51.372Z</time>
      </trkpt>
      <trkpt lat="41.24829333" lon="1.86754167">
        <ele>145.0</ele>
        <time>2019-12-21T10:54:52.351Z</time>
      </trkpt>
      <trkpt lat="41.24829333" lon="1.86754167">
        <ele>145.0</ele>
        <time>2019-12-21T10:54:53.357Z</time>
      </trkpt>
      <trkpt lat="41.24830167" lon="1.86758">
        <ele>146.0</ele>
        <time>2019-12-21T10:54:54.361Z</time>
      </trkpt>
      <trkpt lat="41.24830167" lon="1.86758">
        <ele>146.0</ele>
        <time>2019-12-21T10:54:55.366Z</time>
      </trkpt>
      <trkpt lat="41.24831" lon="1.86761667">
        <ele>146.0</ele>
        <time>2019-12-21T10:54:56.333Z</time>
      </trkpt>
      <trkpt lat="41.24831" lon="1.86761667">
        <ele>146.0</ele>
        <time>2019-12-21T10:54:57.338Z</time>
      </trkpt>
      <trkpt lat="41.24832167" lon="1.86766333">
        <ele>147.0</ele>
        <time>2019-12-21T10:54:58.364Z</time>
      </trkpt>
      <trkpt lat="41.24832167" lon="1.86766333">
        <ele>147.0</ele>
        <time>2019-12-21T10:54:59.369Z</time>
      </trkpt>
      <trkpt lat="41.24833167" lon="1.86770833">
        <ele>147.0</ele>
        <time>2019-12-21T10:55:00.367Z</time>
      </trkpt>
      <trkpt lat="41.24833167" lon="1.86770833">
        <ele>147.0</ele>
        <time>2019-12-21T10:55:01.348Z</time>
      </trkpt>
      <trkpt lat="41.24834167" lon="1.86775">
        <ele>147.0</ele>
        <time>2019-12-21T10:55:02.339Z</time>
      </trkpt>
      <trkpt lat="41.24834167" lon="1.86775">
        <ele>147.0</ele>
        <time>2019-12-21T10:55:03.345Z</time>
      </trkpt>
      <trkpt lat="41.24835167" lon="1.86779333">
        <ele>148.0</ele>
        <time>2019-12-21T10:55:04.352Z</time>
      </trkpt>
      <trkpt lat="41.24835167" lon="1.86779333">
        <ele>148.0</ele>
        <time>2019-12-21T10:55:05.364Z</time>
      </trkpt>
      <trkpt lat="41.24836167" lon="1.867835">
        <ele>148.0</ele>
        <time>2019-12-21T10:55:06.335Z</time>
      </trkpt>
      <trkpt lat="41.24836167" lon="1.867835">
        <ele>148.0</ele>
        <time>2019-12-21T10:55:07.340Z</time>
      </trkpt>
      <trkpt lat="41.24836833" lon="1.867875">
        <ele>148.0</ele>
        <time>2019-12-21T10:55:08.347Z</time>
      </trkpt>
      <trkpt lat="41.24836833" lon="1.867875">
        <ele>148.0</ele>
        <time>2019-12-21T10:55:09.352Z</time>
      </trkpt>
      <trkpt lat="41.24838333" lon="1.86791667">
        <ele>149.0</ele>
        <time>2019-12-21T10:55:10.370Z</time>
      </trkpt>
      <trkpt lat="41.24838333" lon="1.86791667">
        <ele>149.0</ele>
        <time>2019-12-21T10:55:11.335Z</time>
      </trkpt>
      <trkpt lat="41.248395" lon="1.86795667">
        <ele>149.0</ele>
        <time>2019-12-21T10:55:12.342Z</time>
      </trkpt>
      <trkpt lat="41.248395" lon="1.86795667">
        <ele>149.0</ele>
        <time>2019-12-21T10:55:13.347Z</time>
      </trkpt>
      <trkpt lat="41.248405" lon="1.86799667">
        <ele>149.0</ele>
        <time>2019-12-21T10:55:14.355Z</time>
      </trkpt>
      <trkpt lat="41.248405" lon="1.86801333">
        <ele>149.0</ele>
        <time>2019-12-21T10:55:15.351Z</time>
      </trkpt>
      <trkpt lat="41.248405" lon="1.86801333">
        <ele>149.0</ele>
        <time>2019-12-21T10:55:16.357Z</time>
      </trkpt>
      <trkpt lat="41.248425" lon="1.86805">
        <ele>149.0</ele>
        <time>2019-12-21T10:55:17.370Z</time>
      </trkpt>
      <trkpt lat="41.248425" lon="1.86805">
        <ele>149.0</ele>
        <time>2019-12-21T10:55:18.335Z</time>
      </trkpt>
      <trkpt lat="41.248435" lon="1.86808667">
        <ele>150.0</ele>
        <time>2019-12-21T10:55:19.371Z</time>
      </trkpt>
      <trkpt lat="41.248435" lon="1.86808667">
        <ele>150.0</ele>
        <time>2019-12-21T10:55:20.336Z</time>
      </trkpt>
      <trkpt lat="41.24845" lon="1.86811833">
        <ele>150.0</ele>
        <time>2019-12-21T10:55:21.342Z</time>
      </trkpt>
      <trkpt lat="41.24845667" lon="1.86813167">
        <ele>150.0</ele>
        <time>2019-12-21T10:55:22.364Z</time>
      </trkpt>
      <trkpt lat="41.24845667" lon="1.86813167">
        <ele>150.0</ele>
        <time>2019-12-21T10:55:23.369Z</time>
      </trkpt>
      <trkpt lat="41.24846333" lon="1.86817">
        <ele>151.0</ele>
        <time>2019-12-21T10:55:24.336Z</time>
      </trkpt>
      <trkpt lat="41.24846333" lon="1.86817">
        <ele>151.0</ele>
        <time>2019-12-21T10:55:25.343Z</time>
      </trkpt>
      <trkpt lat="41.24847333" lon="1.86820167">
        <ele>151.0</ele>
        <time>2019-12-21T10:55:26.339Z</time>
      </trkpt>
      <trkpt lat="41.24847333" lon="1.86820167">
        <ele>151.0</ele>
        <time>2019-12-21T10:55:27.346Z</time>
      </trkpt>
      <trkpt lat="41.24848167" lon="1.86823">
        <ele>152.0</ele>
        <time>2019-12-21T10:55:28.367Z</time>
      </trkpt>
      <trkpt lat="41.24848167" lon="1.86823">
        <ele>152.0</ele>
        <time>2019-12-21T10:55:29.350Z</time>
      </trkpt>
      <trkpt lat="41.24851833" lon="1.86827333">
        <ele>152.0</ele>
        <time>2019-12-21T10:55:30.371Z</time>
      </trkpt>
      <trkpt lat="41.24851833" lon="1.86827333">
        <ele>152.0</ele>
        <time>2019-12-21T10:55:31.336Z</time>
      </trkpt>
      <trkpt lat="41.24852833" lon="1.86831833">
        <ele>152.0</ele>
        <time>2019-12-21T10:55:32.343Z</time>
      </trkpt>
      <trkpt lat="41.24852833" lon="1.86831833">
        <ele>152.0</ele>
        <time>2019-12-21T10:55:33.347Z</time>
      </trkpt>
      <trkpt lat="41.24854333" lon="1.86834833">
        <ele>153.0</ele>
        <time>2019-12-21T10:55:34.336Z</time>
      </trkpt>
      <trkpt lat="41.24854333" lon="1.86834833">
        <ele>153.0</ele>
        <time>2019-12-21T10:55:35.342Z</time>
      </trkpt>
      <trkpt lat="41.24855667" lon="1.86838333">
        <ele>154.0</ele>
        <time>2019-12-21T10:55:36.349Z</time>
      </trkpt>
      <trkpt lat="41.24855667" lon="1.86838333">
        <ele>154.0</ele>
        <time>2019-12-21T10:55:37.354Z</time>
      </trkpt>
      <trkpt lat="41.24856833" lon="1.86842667">
        <ele>154.0</ele>
        <time>2019-12-21T10:55:38.340Z</time>
      </trkpt>
      <trkpt lat="41.24856833" lon="1.86842667">
        <ele>154.0</ele>
        <time>2019-12-21T10:55:39.345Z</time>
      </trkpt>
      <trkpt lat="41.24858167" lon="1.86847">
        <ele>155.0</ele>
        <time>2019-12-21T10:55:40.352Z</time>
      </trkpt>
      <trkpt lat="41.24858167" lon="1.86847">
        <ele>155.0</ele>
        <time>2019-12-21T10:55:41.357Z</time>
      </trkpt>
      <trkpt lat="41.2486" lon="1.86851667">
        <ele>155.0</ele>
        <time>2019-12-21T10:55:42.337Z</time>
      </trkpt>
      <trkpt lat="41.2486" lon="1.86851667">
        <ele>155.0</ele>
        <time>2019-12-21T10:55:43.342Z</time>
      </trkpt>
      <trkpt lat="41.248615" lon="1.86855833">
        <ele>156.0</ele>
        <time>2019-12-21T10:55:44.349Z</time>
      </trkpt>
      <trkpt lat="41.248615" lon="1.86855833">
        <ele>156.0</ele>
        <time>2019-12-21T10:55:45.358Z</time>
      </trkpt>
      <trkpt lat="41.24863" lon="1.86860167">
        <ele>156.0</ele>
        <time>2019-12-21T10:55:46.369Z</time>
      </trkpt>
      <trkpt lat="41.24863" lon="1.86860167">
        <ele>156.0</ele>
        <time>2019-12-21T10:55:47.335Z</time>
      </trkpt>
      <trkpt lat="41.24864" lon="1.86864833">
        <ele>157.0</ele>
        <time>2019-12-21T10:55:48.371Z</time>
      </trkpt>
      <trkpt lat="41.24865" lon="1.86867">
        <ele>157.0</ele>
        <time>2019-12-21T10:55:49.357Z</time>
      </trkpt>
      <trkpt lat="41.24865" lon="1.86867">
        <ele>157.0</ele>
        <time>2019-12-21T10:55:50.365Z</time>
      </trkpt>
      <trkpt lat="41.24866333" lon="1.86871833">
        <ele>157.0</ele>
        <time>2019-12-21T10:55:51.333Z</time>
      </trkpt>
      <trkpt lat="41.24867" lon="1.86874333">
        <ele>157.0</ele>
        <time>2019-12-21T10:55:52.371Z</time>
      </trkpt>
      <trkpt lat="41.24867" lon="1.86874333">
        <ele>157.0</ele>
        <time>2019-12-21T10:55:53.336Z</time>
      </trkpt>
      <trkpt lat="41.24868167" lon="1.86878833">
        <ele>158.0</ele>
        <time>2019-12-21T10:55:54.365Z</time>
      </trkpt>
      <trkpt lat="41.24869" lon="1.86881">
        <ele>158.0</ele>
        <time>2019-12-21T10:55:55.362Z</time>
      </trkpt>
      <trkpt lat="41.24869" lon="1.86881">
        <ele>158.0</ele>
        <time>2019-12-21T10:55:56.367Z</time>
      </trkpt>
      <trkpt lat="41.248705" lon="1.86885167">
        <ele>158.0</ele>
        <time>2019-12-21T10:55:57.361Z</time>
      </trkpt>
      <trkpt lat="41.24871" lon="1.868875">
        <ele>159.0</ele>
        <time>2019-12-21T10:55:58.341Z</time>
      </trkpt>
      <trkpt lat="41.24871" lon="1.868875">
        <ele>159.0</ele>
        <time>2019-12-21T10:55:59.347Z</time>
      </trkpt>
      <trkpt lat="41.24872" lon="1.86891833">
        <ele>160.0</ele>
        <time>2019-12-21T10:56:00.336Z</time>
      </trkpt>
      <trkpt lat="41.24872" lon="1.86891833">
        <ele>160.0</ele>
        <time>2019-12-21T10:56:01.371Z</time>
      </trkpt>
      <trkpt lat="41.24873333" lon="1.86896333">
        <ele>160.0</ele>
        <time>2019-12-21T10:56:02.353Z</time>
      </trkpt>
      <trkpt lat="41.24873333" lon="1.86896333">
        <ele>160.0</ele>
        <time>2019-12-21T10:56:03.366Z</time>
      </trkpt>
      <trkpt lat="41.248745" lon="1.86900833">
        <ele>161.0</ele>
        <time>2019-12-21T10:56:04.372Z</time>
      </trkpt>
      <trkpt lat="41.248745" lon="1.86900833">
        <ele>161.0</ele>
        <time>2019-12-21T10:56:05.340Z</time>
      </trkpt>
      <trkpt lat="41.24875833" lon="1.86905167">
        <ele>162.0</ele>
        <time>2019-12-21T10:56:06.347Z</time>
      </trkpt>
      <trkpt lat="41.24875833" lon="1.86905167">
        <ele>162.0</ele>
        <time>2019-12-21T10:56:07.354Z</time>
      </trkpt>
      <trkpt lat="41.248775" lon="1.86909333">
        <ele>162.0</ele>
        <time>2019-12-21T10:56:08.370Z</time>
      </trkpt>
      <trkpt lat="41.248775" lon="1.86909333">
        <ele>162.0</ele>
        <time>2019-12-21T10:56:09.354Z</time>
      </trkpt>
      <trkpt lat="41.24879" lon="1.86913833">
        <ele>163.0</ele>
        <time>2019-12-21T10:56:10.334Z</time>
      </trkpt>
      <trkpt lat="41.24879" lon="1.86913833">
        <ele>163.0</ele>
        <time>2019-12-21T10:56:11.350Z</time>
      </trkpt>
      <trkpt lat="41.24880167" lon="1.86918167">
        <ele>163.0</ele>
        <time>2019-12-21T10:56:12.343Z</time>
      </trkpt>
      <trkpt lat="41.24880833" lon="1.86920333">
        <ele>163.0</ele>
        <time>2019-12-21T10:56:13.342Z</time>
      </trkpt>
      <trkpt lat="41.24880833" lon="1.86920333">
        <ele>163.0</ele>
        <time>2019-12-21T10:56:14.348Z</time>
      </trkpt>
      <trkpt lat="41.24882333" lon="1.86924833">
        <ele>163.0</ele>
        <time>2019-12-21T10:56:15.367Z</time>
      </trkpt>
      <trkpt lat="41.24883" lon="1.86927167">
        <ele>164.0</ele>
        <time>2019-12-21T10:56:16.363Z</time>
      </trkpt>
      <trkpt lat="41.24883" lon="1.86927167">
        <ele>164.0</ele>
        <time>2019-12-21T10:56:17.369Z</time>
      </trkpt>
      <trkpt lat="41.24884333" lon="1.86932">
        <ele>164.0</ele>
        <time>2019-12-21T10:56:18.370Z</time>
      </trkpt>
      <trkpt lat="41.24884333" lon="1.86932">
        <ele>164.0</ele>
        <time>2019-12-21T10:56:19.335Z</time>
      </trkpt>
      <trkpt lat="41.248855" lon="1.86937167">
        <ele>164.0</ele>
        <time>2019-12-21T10:56:20.357Z</time>
      </trkpt>
      <trkpt lat="41.24886" lon="1.86939667">
        <ele>165.0</ele>
        <time>2019-12-21T10:56:21.372Z</time>
      </trkpt>
      <trkpt lat="41.248865" lon="1.86942167">
        <ele>165.0</ele>
        <time>2019-12-21T10:56:22.363Z</time>
      </trkpt>
      <trkpt lat="41.248865" lon="1.86942167">
        <ele>165.0</ele>
        <time>2019-12-21T10:56:23.369Z</time>
      </trkpt>
      <trkpt lat="41.24886833" lon="1.86947167">
        <ele>165.0</ele>
        <time>2019-12-21T10:56:24.352Z</time>
      </trkpt>
      <trkpt lat="41.24886833" lon="1.86947167">
        <ele>165.0</ele>
        <time>2019-12-21T10:56:25.364Z</time>
      </trkpt>
      <trkpt lat="41.24887333" lon="1.869525">
        <ele>165.0</ele>
        <time>2019-12-21T10:56:26.365Z</time>
      </trkpt>
      <trkpt lat="41.24887333" lon="1.869525">
        <ele>165.0</ele>
        <time>2019-12-21T10:56:27.371Z</time>
      </trkpt>
      <trkpt lat="41.24887667" lon="1.86957833">
        <ele>166.0</ele>
        <time>2019-12-21T10:56:28.353Z</time>
      </trkpt>
      <trkpt lat="41.24887667" lon="1.86957833">
        <ele>166.0</ele>
        <time>2019-12-21T10:56:29.366Z</time>
      </trkpt>
      <trkpt lat="41.24887667" lon="1.86963167">
        <ele>166.0</ele>
        <time>2019-12-21T10:56:30.360Z</time>
      </trkpt>
      <trkpt lat="41.24887667" lon="1.86963167">
        <ele>166.0</ele>
        <time>2019-12-21T10:56:31.366Z</time>
      </trkpt>
      <trkpt lat="41.24887833" lon="1.86968333">
        <ele>166.0</ele>
        <time>2019-12-21T10:56:32.354Z</time>
      </trkpt>
      <trkpt lat="41.24887833" lon="1.86968333">
        <ele>166.0</ele>
        <time>2019-12-21T10:56:33.364Z</time>
      </trkpt>
      <trkpt lat="41.24888" lon="1.86973">
        <ele>166.0</ele>
        <time>2019-12-21T10:56:34.354Z</time>
      </trkpt>
      <trkpt lat="41.24888" lon="1.86973">
        <ele>166.0</ele>
        <time>2019-12-21T10:56:35.364Z</time>
      </trkpt>
      <trkpt lat="41.24888" lon="1.86979">
        <ele>166.0</ele>
        <time>2019-12-21T10:56:36.361Z</time>
      </trkpt>
      <trkpt lat="41.24888" lon="1.86979">
        <ele>166.0</ele>
        <time>2019-12-21T10:56:37.344Z</time>
      </trkpt>
      <trkpt lat="41.248875" lon="1.86985667">
        <ele>166.0</ele>
        <time>2019-12-21T10:56:38.343Z</time>
      </trkpt>
      <trkpt lat="41.248875" lon="1.86985667">
        <ele>166.0</ele>
        <time>2019-12-21T10:56:39.349Z</time>
      </trkpt>
      <trkpt lat="41.24887333" lon="1.86992333">
        <ele>166.0</ele>
        <time>2019-12-21T10:56:40.340Z</time>
      </trkpt>
      <trkpt lat="41.24887333" lon="1.86992333">
        <ele>166.0</ele>
        <time>2019-12-21T10:56:41.345Z</time>
      </trkpt>
      <trkpt lat="41.24886833" lon="1.869995">
        <ele>166.0</ele>
        <time>2019-12-21T10:56:42.370Z</time>
      </trkpt>
      <trkpt lat="41.24886833" lon="1.869995">
        <ele>166.0</ele>
        <time>2019-12-21T10:56:43.336Z</time>
      </trkpt>
      <trkpt lat="41.24885833" lon="1.87006667">
        <ele>166.0</ele>
        <time>2019-12-21T10:56:44.355Z</time>
      </trkpt>
      <trkpt lat="41.248855" lon="1.870105">
        <ele>167.0</ele>
        <time>2019-12-21T10:56:45.335Z</time>
      </trkpt>
      <trkpt lat="41.248855" lon="1.870105">
        <ele>167.0</ele>
        <time>2019-12-21T10:56:46.341Z</time>
      </trkpt>
      <trkpt lat="41.24883667" lon="1.87018">
        <ele>167.0</ele>
        <time>2019-12-21T10:56:47.362Z</time>
      </trkpt>
      <trkpt lat="41.24883667" lon="1.87018">
        <ele>167.0</ele>
        <time>2019-12-21T10:56:48.367Z</time>
      </trkpt>
      <trkpt lat="41.24881833" lon="1.87025833">
        <ele>167.0</ele>
        <time>2019-12-21T10:56:49.353Z</time>
      </trkpt>
      <trkpt lat="41.24881833" lon="1.87025833">
        <ele>167.0</ele>
        <time>2019-12-21T10:56:50.366Z</time>
      </trkpt>
      <trkpt lat="41.24880333" lon="1.870335">
        <ele>167.0</ele>
        <time>2019-12-21T10:56:51.353Z</time>
      </trkpt>
      <trkpt lat="41.24879833" lon="1.870375">
        <ele>167.0</ele>
        <time>2019-12-21T10:56:52.334Z</time>
      </trkpt>
      <trkpt lat="41.24879833" lon="1.870375">
        <ele>167.0</ele>
        <time>2019-12-21T10:56:53.341Z</time>
      </trkpt>
      <trkpt lat="41.24878333" lon="1.87045">
        <ele>167.0</ele>
        <time>2019-12-21T10:56:54.341Z</time>
      </trkpt>
      <trkpt lat="41.248775" lon="1.870485">
        <ele>167.0</ele>
        <time>2019-12-21T10:56:55.357Z</time>
      </trkpt>
      <trkpt lat="41.248765" lon="1.87052167">
        <ele>167.0</ele>
        <time>2019-12-21T10:56:56.341Z</time>
      </trkpt>
      <trkpt lat="41.24875833" lon="1.87056167">
        <ele>167.0</ele>
        <time>2019-12-21T10:56:57.340Z</time>
      </trkpt>
      <trkpt lat="41.24875833" lon="1.87056167">
        <ele>167.0</ele>
        <time>2019-12-21T10:56:58.348Z</time>
      </trkpt>
      <trkpt lat="41.24875167" lon="1.87064">
        <ele>168.0</ele>
        <time>2019-12-21T10:56:59.369Z</time>
      </trkpt>
      <trkpt lat="41.24875167" lon="1.87064">
        <ele>168.0</ele>
        <time>2019-12-21T10:57:00.335Z</time>
      </trkpt>
      <trkpt lat="41.24874" lon="1.87071667">
        <ele>168.0</ele>
        <time>2019-12-21T10:57:01.369Z</time>
      </trkpt>
      <trkpt lat="41.24874" lon="1.87071667">
        <ele>168.0</ele>
        <time>2019-12-21T10:57:02.334Z</time>
      </trkpt>
      <trkpt lat="41.24873333" lon="1.87079333">
        <ele>168.0</ele>
        <time>2019-12-21T10:57:03.361Z</time>
      </trkpt>
      <trkpt lat="41.24873" lon="1.87083">
        <ele>169.0</ele>
        <time>2019-12-21T10:57:04.350Z</time>
      </trkpt>
      <trkpt lat="41.24873" lon="1.87083">
        <ele>169.0</ele>
        <time>2019-12-21T10:57:05.356Z</time>
      </trkpt>
      <trkpt lat="41.24871833" lon="1.8709">
        <ele>169.0</ele>
        <time>2019-12-21T10:57:06.343Z</time>
      </trkpt>
      <trkpt lat="41.24871833" lon="1.8709">
        <ele>169.0</ele>
        <time>2019-12-21T10:57:07.349Z</time>
      </trkpt>
      <trkpt lat="41.24870833" lon="1.87096833">
        <ele>169.0</ele>
        <time>2019-12-21T10:57:08.352Z</time>
      </trkpt>
      <trkpt lat="41.24870833" lon="1.87096833">
        <ele>169.0</ele>
        <time>2019-12-21T10:57:09.358Z</time>
      </trkpt>
      <trkpt lat="41.24869833" lon="1.87102167">
        <ele>169.0</ele>
        <time>2019-12-21T10:57:10.339Z</time>
      </trkpt>
      <trkpt lat="41.24869833" lon="1.87102167">
        <ele>169.0</ele>
        <time>2019-12-21T10:57:11.346Z</time>
      </trkpt>
      <trkpt lat="41.24869667" lon="1.87106167">
        <ele>170.0</ele>
        <time>2019-12-21T10:57:12.342Z</time>
      </trkpt>
      <trkpt lat="41.24869667" lon="1.87106167">
        <ele>170.0</ele>
        <time>2019-12-21T10:57:13.348Z</time>
      </trkpt>
      <trkpt lat="41.24869167" lon="1.87108833">
        <ele>170.0</ele>
        <time>2019-12-21T10:57:14.366Z</time>
      </trkpt>
      <trkpt lat="41.24869167" lon="1.87108833">
        <ele>170.0</ele>
        <time>2019-12-21T10:57:15.371Z</time>
      </trkpt>
      <trkpt lat="41.24869667" lon="1.87108667">
        <ele>170.0</ele>
        <time>2019-12-21T10:57:16.366Z</time>
      </trkpt>
      <trkpt lat="41.24869667" lon="1.87108667">
        <ele>170.0</ele>
        <time>2019-12-21T10:57:17.350Z</time>
      </trkpt>
      <trkpt lat="41.24869167" lon="1.871085">
        <ele>170.0</ele>
        <time>2019-12-21T10:57:18.361Z</time>
      </trkpt>
      <trkpt lat="41.24869167" lon="1.871085">
        <ele>170.0</ele>
        <time>2019-12-21T10:57:19.349Z</time>
      </trkpt>
      <trkpt lat="41.24869167" lon="1.871085">
        <ele>170.0</ele>
        <time>2019-12-21T10:57:20.372Z</time>
      </trkpt>
      <trkpt lat="41.24869167" lon="1.871085">
        <ele>170.0</ele>
        <time>2019-12-21T10:57:21.354Z</time>
      </trkpt>
      <trkpt lat="41.24869167" lon="1.871085">
        <ele>170.0</ele>
        <time>2019-12-21T10:57:22.358Z</time>
      </trkpt>
      <trkpt lat="41.24869167" lon="1.871085">
        <ele>170.0</ele>
        <time>2019-12-21T10:57:23.352Z</time>
      </trkpt>
      <trkpt lat="41.24869167" lon="1.871085">
        <ele>170.0</ele>
        <time>2019-12-21T10:57:24.356Z</time>
      </trkpt>
      <trkpt lat="41.24869167" lon="1.871085">
        <ele>170.0</ele>
        <time>2019-12-21T10:57:25.350Z</time>
      </trkpt>
      <trkpt lat="41.24869167" lon="1.871085">
        <ele>170.0</ele>
        <time>2019-12-21T10:57:26.372Z</time>
      </trkpt>
      <trkpt lat="41.24869167" lon="1.871085">
        <ele>170.0</ele>
        <time>2019-12-21T10:57:27.353Z</time>
      </trkpt>
      <trkpt lat="41.24869167" lon="1.871085">
        <ele>170.0</ele>
        <time>2019-12-21T10:57:28.357Z</time>
      </trkpt>
      <trkpt lat="41.24869167" lon="1.871085">
        <ele>170.0</ele>
        <time>2019-12-21T10:57:29.350Z</time>
      </trkpt>
      <trkpt lat="41.24869167" lon="1.871085">
        <ele>170.0</ele>
        <time>2019-12-21T10:57:30.372Z</time>
      </trkpt>
      <trkpt lat="41.24869167" lon="1.871085">
        <ele>170.0</ele>
        <time>2019-12-21T10:57:31.353Z</time>
      </trkpt>
      <trkpt lat="41.24869167" lon="1.871085">
        <ele>170.0</ele>
        <time>2019-12-21T10:57:32.343Z</time>
      </trkpt>
      <trkpt lat="41.24869167" lon="1.871085">
        <ele>170.0</ele>
        <time>2019-12-21T10:57:33.368Z</time>
      </trkpt>
      <trkpt lat="41.24869167" lon="1.871085">
        <ele>170.0</ele>
        <time>2019-12-21T10:57:34.354Z</time>
      </trkpt>
      <trkpt lat="41.24869167" lon="1.871085">
        <ele>170.0</ele>
        <time>2019-12-21T10:57:35.350Z</time>
      </trkpt>
      <trkpt lat="41.24869167" lon="1.871085">
        <ele>170.0</ele>
        <time>2019-12-21T10:57:36.371Z</time>
      </trkpt>
      <trkpt lat="41.24869167" lon="1.871085">
        <ele>170.0</ele>
        <time>2019-12-21T10:57:37.353Z</time>
      </trkpt>
      <trkpt lat="41.24869167" lon="1.871085">
        <ele>170.0</ele>
        <time>2019-12-21T10:57:38.357Z</time>
      </trkpt>
      <trkpt lat="41.24869167" lon="1.871085">
        <ele>170.0</ele>
        <time>2019-12-21T10:57:39.349Z</time>
      </trkpt>
      <trkpt lat="41.24869167" lon="1.871085">
        <ele>170.0</ele>
        <time>2019-12-21T10:57:40.371Z</time>
      </trkpt>
      <trkpt lat="41.24869167" lon="1.871085">
        <ele>170.0</ele>
        <time>2019-12-21T10:57:41.366Z</time>
      </trkpt>
      <trkpt lat="41.24869167" lon="1.871085">
        <ele>170.0</ele>
        <time>2019-12-21T10:57:42.358Z</time>
      </trkpt>
      <trkpt lat="41.24869167" lon="1.871085">
        <ele>170.0</ele>
        <time>2019-12-21T10:57:43.349Z</time>
      </trkpt>
      <trkpt lat="41.24869167" lon="1.871085">
        <ele>170.0</ele>
        <time>2019-12-21T10:57:44.349Z</time>
      </trkpt>
      <trkpt lat="41.24869167" lon="1.871085">
        <ele>170.0</ele>
        <time>2019-12-21T10:57:45.372Z</time>
      </trkpt>
      <trkpt lat="41.24869167" lon="1.871085">
        <ele>170.0</ele>
        <time>2019-12-21T10:57:46.354Z</time>
      </trkpt>
      <trkpt lat="41.24869167" lon="1.871085">
        <ele>170.0</ele>
        <time>2019-12-21T10:57:47.350Z</time>
      </trkpt>
      <trkpt lat="41.24869167" lon="1.871085">
        <ele>170.0</ele>
        <time>2019-12-21T10:57:48.371Z</time>
      </trkpt>
      <trkpt lat="41.24869167" lon="1.871085">
        <ele>170.0</ele>
        <time>2019-12-21T10:57:49.355Z</time>
      </trkpt>
      <trkpt lat="41.24869167" lon="1.871085">
        <ele>170.0</ele>
        <time>2019-12-21T10:57:50.355Z</time>
      </trkpt>
      <trkpt lat="41.24869167" lon="1.871085">
        <ele>170.0</ele>
        <time>2019-12-21T10:57:51.350Z</time>
      </trkpt>
      <trkpt lat="41.24869167" lon="1.871085">
        <ele>170.0</ele>
        <time>2019-12-21T10:57:52.339Z</time>
      </trkpt>
      <trkpt lat="41.24869167" lon="1.871085">
        <ele>170.0</ele>
        <time>2019-12-21T10:57:53.361Z</time>
      </trkpt>
      <trkpt lat="41.24869167" lon="1.871085">
        <ele>170.0</ele>
        <time>2019-12-21T10:57:54.360Z</time>
      </trkpt>
      <trkpt lat="41.24869167" lon="1.871085">
        <ele>170.0</ele>
        <time>2019-12-21T10:57:55.354Z</time>
      </trkpt>
      <trkpt lat="41.24869167" lon="1.871085">
        <ele>170.0</ele>
        <time>2019-12-21T10:57:56.360Z</time>
      </trkpt>
      <trkpt lat="41.24869167" lon="1.871085">
        <ele>170.0</ele>
        <time>2019-12-21T10:57:57.366Z</time>
      </trkpt>
      <trkpt lat="41.24869167" lon="1.871085">
        <ele>170.0</ele>
        <time>2019-12-21T10:57:58.355Z</time>
      </trkpt>
      <trkpt lat="41.24869167" lon="1.871085">
        <ele>170.0</ele>
        <time>2019-12-21T10:57:59.350Z</time>
      </trkpt>
      <trkpt lat="41.24869167" lon="1.871085">
        <ele>170.0</ele>
        <time>2019-12-21T10:58:00.372Z</time>
      </trkpt>
      <trkpt lat="41.24869167" lon="1.871085">
        <ele>170.0</ele>
        <time>2019-12-21T10:58:01.360Z</time>
      </trkpt>
      <trkpt lat="41.24869667" lon="1.87113167">
        <ele>167.0</ele>
        <time>2019-12-21T10:58:02.348Z</time>
      </trkpt>
      <trkpt lat="41.24869667" lon="1.87113167">
        <ele>167.0</ele>
        <time>2019-12-21T10:58:03.357Z</time>
      </trkpt>
      <trkpt lat="41.24869333" lon="1.87119667">
        <ele>167.0</ele>
        <time>2019-12-21T10:58:04.346Z</time>
      </trkpt>
      <trkpt lat="41.24869333" lon="1.87119667">
        <ele>167.0</ele>
        <time>2019-12-21T10:58:05.352Z</time>
      </trkpt>
      <trkpt lat="41.248695" lon="1.871285">
        <ele>167.0</ele>
        <time>2019-12-21T10:58:06.334Z</time>
      </trkpt>
      <trkpt lat="41.248695" lon="1.871285">
        <ele>167.0</ele>
        <time>2019-12-21T10:58:07.340Z</time>
      </trkpt>
      <trkpt lat="41.24870833" lon="1.87140667">
        <ele>167.0</ele>
        <time>2019-12-21T10:58:08.372Z</time>
      </trkpt>
      <trkpt lat="41.24870833" lon="1.87140667">
        <ele>167.0</ele>
        <time>2019-12-21T10:58:09.342Z</time>
      </trkpt>
      <trkpt lat="41.24872833" lon="1.871545">
        <ele>166.0</ele>
        <time>2019-12-21T10:58:10.333Z</time>
      </trkpt>
      <trkpt lat="41.24873667" lon="1.87161833">
        <ele>166.0</ele>
        <time>2019-12-21T10:58:11.363Z</time>
      </trkpt>
      <trkpt lat="41.24874833" lon="1.87169833">
        <ele>166.0</ele>
        <time>2019-12-21T10:58:12.347Z</time>
      </trkpt>
      <trkpt lat="41.24874833" lon="1.87169833">
        <ele>166.0</ele>
        <time>2019-12-21T10:58:13.352Z</time>
      </trkpt>
      <trkpt lat="41.24876333" lon="1.87186333">
        <ele>165.0</ele>
        <time>2019-12-21T10:58:14.363Z</time>
      </trkpt>
      <trkpt lat="41.24876333" lon="1.87186333">
        <ele>165.0</ele>
        <time>2019-12-21T10:58:15.368Z</time>
      </trkpt>
      <trkpt lat="41.24877333" lon="1.87202833">
        <ele>165.0</ele>
        <time>2019-12-21T10:58:16.356Z</time>
      </trkpt>
      <trkpt lat="41.24877333" lon="1.87202833">
        <ele>165.0</ele>
        <time>2019-12-21T10:58:17.362Z</time>
      </trkpt>
      <trkpt lat="41.248785" lon="1.87219167">
        <ele>165.0</ele>
        <time>2019-12-21T10:58:18.368Z</time>
      </trkpt>
      <trkpt lat="41.248785" lon="1.87219167">
        <ele>165.0</ele>
        <time>2019-12-21T10:58:19.333Z</time>
      </trkpt>
      <trkpt lat="41.24879" lon="1.87234667">
        <ele>165.0</ele>
        <time>2019-12-21T10:58:20.353Z</time>
      </trkpt>
      <trkpt lat="41.24879" lon="1.87234667">
        <ele>165.0</ele>
        <time>2019-12-21T10:58:21.358Z</time>
      </trkpt>
      <trkpt lat="41.24880167" lon="1.87249833">
        <ele>165.0</ele>
        <time>2019-12-21T10:58:22.343Z</time>
      </trkpt>
      <trkpt lat="41.24880167" lon="1.87249833">
        <ele>165.0</ele>
        <time>2019-12-21T10:58:23.348Z</time>
      </trkpt>
      <trkpt lat="41.24881667" lon="1.87265">
        <ele>165.0</ele>
        <time>2019-12-21T10:58:24.343Z</time>
      </trkpt>
      <trkpt lat="41.24881667" lon="1.87265">
        <ele>165.0</ele>
        <time>2019-12-21T10:58:25.359Z</time>
      </trkpt>
      <trkpt lat="41.24883167" lon="1.872805">
        <ele>165.0</ele>
        <time>2019-12-21T10:58:26.355Z</time>
      </trkpt>
      <trkpt lat="41.24883167" lon="1.872805">
        <ele>165.0</ele>
        <time>2019-12-21T10:58:27.363Z</time>
      </trkpt>
      <trkpt lat="41.248845" lon="1.87296167">
        <ele>165.0</ele>
        <time>2019-12-21T10:58:28.355Z</time>
      </trkpt>
      <trkpt lat="41.248845" lon="1.87296167">
        <ele>165.0</ele>
        <time>2019-12-21T10:58:29.360Z</time>
      </trkpt>
      <trkpt lat="41.24886167" lon="1.87310667">
        <ele>165.0</ele>
        <time>2019-12-21T10:58:30.355Z</time>
      </trkpt>
      <trkpt lat="41.24886167" lon="1.87310667">
        <ele>165.0</ele>
        <time>2019-12-21T10:58:31.360Z</time>
      </trkpt>
      <trkpt lat="41.24887167" lon="1.87325333">
        <ele>165.0</ele>
        <time>2019-12-21T10:58:32.349Z</time>
      </trkpt>
      <trkpt lat="41.24887167" lon="1.87325333">
        <ele>165.0</ele>
        <time>2019-12-21T10:58:33.355Z</time>
      </trkpt>
      <trkpt lat="41.24888833" lon="1.87339667">
        <ele>165.0</ele>
        <time>2019-12-21T10:58:34.346Z</time>
      </trkpt>
      <trkpt lat="41.24888833" lon="1.87339667">
        <ele>165.0</ele>
        <time>2019-12-21T10:58:35.352Z</time>
      </trkpt>
      <trkpt lat="41.248905" lon="1.87354333">
        <ele>165.0</ele>
        <time>2019-12-21T10:58:36.343Z</time>
      </trkpt>
      <trkpt lat="41.248905" lon="1.87354333">
        <ele>165.0</ele>
        <time>2019-12-21T10:58:37.348Z</time>
      </trkpt>
      <trkpt lat="41.24892" lon="1.87366833">
        <ele>165.0</ele>
        <time>2019-12-21T10:58:38.365Z</time>
      </trkpt>
      <trkpt lat="41.24892" lon="1.87366833">
        <ele>165.0</ele>
        <time>2019-12-21T10:58:39.370Z</time>
      </trkpt>
      <trkpt lat="41.24893833" lon="1.87378833">
        <ele>166.0</ele>
        <time>2019-12-21T10:58:40.350Z</time>
      </trkpt>
      <trkpt lat="41.24893833" lon="1.87378833">
        <ele>166.0</ele>
        <time>2019-12-21T10:58:41.356Z</time>
      </trkpt>
      <trkpt lat="41.24895" lon="1.87390333">
        <ele>166.0</ele>
        <time>2019-12-21T10:58:42.338Z</time>
      </trkpt>
      <trkpt lat="41.24895" lon="1.87390333">
        <ele>166.0</ele>
        <time>2019-12-21T10:58:43.344Z</time>
      </trkpt>
      <trkpt lat="41.24896167" lon="1.87401333">
        <ele>166.0</ele>
        <time>2019-12-21T10:58:44.340Z</time>
      </trkpt>
      <trkpt lat="41.24896167" lon="1.87401333">
        <ele>166.0</ele>
        <time>2019-12-21T10:58:45.356Z</time>
      </trkpt>
      <trkpt lat="41.24897833" lon="1.87412">
        <ele>167.0</ele>
        <time>2019-12-21T10:58:46.338Z</time>
      </trkpt>
      <trkpt lat="41.24897833" lon="1.87412">
        <ele>167.0</ele>
        <time>2019-12-21T10:58:47.349Z</time>
      </trkpt>
      <trkpt lat="41.24898833" lon="1.87422667">
        <ele>167.0</ele>
        <time>2019-12-21T10:58:48.333Z</time>
      </trkpt>
      <trkpt lat="41.24898833" lon="1.87422667">
        <ele>167.0</ele>
        <time>2019-12-21T10:58:49.352Z</time>
      </trkpt>
      <trkpt lat="41.249" lon="1.87432833">
        <ele>167.0</ele>
        <time>2019-12-21T10:58:50.341Z</time>
      </trkpt>
      <trkpt lat="41.249" lon="1.87432833">
        <ele>167.0</ele>
        <time>2019-12-21T10:58:51.347Z</time>
      </trkpt>
      <trkpt lat="41.24901667" lon="1.87442833">
        <ele>167.0</ele>
        <time>2019-12-21T10:58:52.372Z</time>
      </trkpt>
      <trkpt lat="41.24901667" lon="1.87442833">
        <ele>167.0</ele>
        <time>2019-12-21T10:58:53.344Z</time>
      </trkpt>
      <trkpt lat="41.24902833" lon="1.87453167">
        <ele>167.0</ele>
        <time>2019-12-21T10:58:54.370Z</time>
      </trkpt>
      <trkpt lat="41.24902833" lon="1.87453167">
        <ele>167.0</ele>
        <time>2019-12-21T10:58:55.334Z</time>
      </trkpt>
      <trkpt lat="41.24903833" lon="1.87463333">
        <ele>167.0</ele>
        <time>2019-12-21T10:58:56.358Z</time>
      </trkpt>
      <trkpt lat="41.24903833" lon="1.87463333">
        <ele>167.0</ele>
        <time>2019-12-21T10:58:57.364Z</time>
      </trkpt>
      <trkpt lat="41.24904667" lon="1.87473667">
        <ele>168.0</ele>
        <time>2019-12-21T10:58:58.351Z</time>
      </trkpt>
      <trkpt lat="41.24905167" lon="1.87478833">
        <ele>168.0</ele>
        <time>2019-12-21T10:58:59.343Z</time>
      </trkpt>
      <trkpt lat="41.24905833" lon="1.87484">
        <ele>168.0</ele>
        <time>2019-12-21T10:59:00.370Z</time>
      </trkpt>
      <trkpt lat="41.24905833" lon="1.87484">
        <ele>168.0</ele>
        <time>2019-12-21T10:59:01.336Z</time>
      </trkpt>
      <trkpt lat="41.24906833" lon="1.87494">
        <ele>168.0</ele>
        <time>2019-12-21T10:59:02.358Z</time>
      </trkpt>
      <trkpt lat="41.24906833" lon="1.87494">
        <ele>168.0</ele>
        <time>2019-12-21T10:59:03.364Z</time>
      </trkpt>
      <trkpt lat="41.24907833" lon="1.87504167">
        <ele>168.0</ele>
        <time>2019-12-21T10:59:04.350Z</time>
      </trkpt>
      <trkpt lat="41.24908333" lon="1.87509">
        <ele>168.0</ele>
        <time>2019-12-21T10:59:05.335Z</time>
      </trkpt>
      <trkpt lat="41.24909" lon="1.87514">
        <ele>168.0</ele>
        <time>2019-12-21T10:59:06.364Z</time>
      </trkpt>
      <trkpt lat="41.24909" lon="1.87514">
        <ele>168.0</ele>
        <time>2019-12-21T10:59:07.370Z</time>
      </trkpt>
      <trkpt lat="41.2491" lon="1.87524">
        <ele>168.0</ele>
        <time>2019-12-21T10:59:08.342Z</time>
      </trkpt>
      <trkpt lat="41.2491" lon="1.87524">
        <ele>168.0</ele>
        <time>2019-12-21T10:59:09.347Z</time>
      </trkpt>
      <trkpt lat="41.24911" lon="1.87533833">
        <ele>169.0</ele>
        <time>2019-12-21T10:59:10.340Z</time>
      </trkpt>
      <trkpt lat="41.24911" lon="1.87533833">
        <ele>169.0</ele>
        <time>2019-12-21T10:59:11.346Z</time>
      </trkpt>
      <trkpt lat="41.24911667" lon="1.87543167">
        <ele>169.0</ele>
        <time>2019-12-21T10:59:12.371Z</time>
      </trkpt>
      <trkpt lat="41.24911667" lon="1.87543167">
        <ele>169.0</ele>
        <time>2019-12-21T10:59:13.337Z</time>
      </trkpt>
      <trkpt lat="41.24912667" lon="1.87552667">
        <ele>169.0</ele>
        <time>2019-12-21T10:59:14.370Z</time>
      </trkpt>
      <trkpt lat="41.24912667" lon="1.87552667">
        <ele>169.0</ele>
        <time>2019-12-21T10:59:15.335Z</time>
      </trkpt>
      <trkpt lat="41.24914833" lon="1.87560667">
        <ele>169.0</ele>
        <time>2019-12-21T10:59:16.336Z</time>
      </trkpt>
      <trkpt lat="41.24914833" lon="1.87560667">
        <ele>169.0</ele>
        <time>2019-12-21T10:59:17.343Z</time>
      </trkpt>
      <trkpt lat="41.249175" lon="1.87565333">
        <ele>170.0</ele>
        <time>2019-12-21T10:59:18.343Z</time>
      </trkpt>
      <trkpt lat="41.249175" lon="1.87565333">
        <ele>170.0</ele>
        <time>2019-12-21T10:59:19.348Z</time>
      </trkpt>
      <trkpt lat="41.24919833" lon="1.875685">
        <ele>170.0</ele>
        <time>2019-12-21T10:59:20.366Z</time>
      </trkpt>
      <trkpt lat="41.24919833" lon="1.875685">
        <ele>170.0</ele>
        <time>2019-12-21T10:59:21.373Z</time>
      </trkpt>
      <trkpt lat="41.24921667" lon="1.875715">
        <ele>170.0</ele>
        <time>2019-12-21T10:59:22.369Z</time>
      </trkpt>
      <trkpt lat="41.24921667" lon="1.875715">
        <ele>170.0</ele>
        <time>2019-12-21T10:59:23.336Z</time>
      </trkpt>
      <trkpt lat="41.24924333" lon="1.87574833">
        <ele>170.0</ele>
        <time>2019-12-21T10:59:24.371Z</time>
      </trkpt>
      <trkpt lat="41.24924333" lon="1.87574833">
        <ele>170.0</ele>
        <time>2019-12-21T10:59:25.336Z</time>
      </trkpt>
      <trkpt lat="41.24927833" lon="1.8758">
        <ele>170.0</ele>
        <time>2019-12-21T10:59:26.356Z</time>
      </trkpt>
      <trkpt lat="41.24927833" lon="1.8758">
        <ele>170.0</ele>
        <time>2019-12-21T10:59:27.362Z</time>
      </trkpt>
      <trkpt lat="41.24929667" lon="1.875835">
        <ele>170.0</ele>
        <time>2019-12-21T10:59:28.361Z</time>
      </trkpt>
      <trkpt lat="41.24929667" lon="1.875835">
        <ele>170.0</ele>
        <time>2019-12-21T10:59:29.367Z</time>
      </trkpt>
      <trkpt lat="41.2493" lon="1.87584167">
        <ele>169.0</ele>
        <time>2019-12-21T10:59:30.353Z</time>
      </trkpt>
      <trkpt lat="41.2493" lon="1.87584167">
        <ele>169.0</ele>
        <time>2019-12-21T10:59:31.369Z</time>
      </trkpt>
      <trkpt lat="41.24932167" lon="1.87586833">
        <ele>171.0</ele>
        <time>2019-12-21T10:59:32.350Z</time>
      </trkpt>
      <trkpt lat="41.249345" lon="1.87589">
        <ele>171.0</ele>
        <time>2019-12-21T10:59:33.345Z</time>
      </trkpt>
      <trkpt lat="41.249345" lon="1.87589">
        <ele>171.0</ele>
        <time>2019-12-21T10:59:34.355Z</time>
      </trkpt>
      <trkpt lat="41.24940167" lon="1.87594167">
        <ele>171.0</ele>
        <time>2019-12-21T10:59:35.348Z</time>
      </trkpt>
      <trkpt lat="41.24944" lon="1.87595833">
        <ele>171.0</ele>
        <time>2019-12-21T10:59:36.371Z</time>
      </trkpt>
      <trkpt lat="41.24944" lon="1.87595833">
        <ele>171.0</ele>
        <time>2019-12-21T10:59:37.349Z</time>
      </trkpt>
      <trkpt lat="41.24954" lon="1.87596333">
        <ele>171.0</ele>
        <time>2019-12-21T10:59:38.345Z</time>
      </trkpt>
      <trkpt lat="41.24954" lon="1.87596333">
        <ele>171.0</ele>
        <time>2019-12-21T10:59:39.352Z</time>
      </trkpt>
      <trkpt lat="41.24964333" lon="1.87593833">
        <ele>170.0</ele>
        <time>2019-12-21T10:59:40.343Z</time>
      </trkpt>
      <trkpt lat="41.25120167" lon="1.87546667">
        <ele>179.0</ele>
        <time>2019-12-21T12:42:41.400Z</time>
      </trkpt>
      <trkpt lat="41.25120167" lon="1.87546667">
        <ele>179.0</ele>
        <time>2019-12-21T12:42:42.415Z</time>
      </trkpt>
      <trkpt lat="41.25123667" lon="1.87545667">
        <ele>179.0</ele>
        <time>2019-12-21T12:42:43.434Z</time>
      </trkpt>
      <trkpt lat="41.25126" lon="1.87544167">
        <ele>180.0</ele>
        <time>2019-12-21T12:42:44.429Z</time>
      </trkpt>
      <trkpt lat="41.25126" lon="1.87544167">
        <ele>180.0</ele>
        <time>2019-12-21T12:42:45.403Z</time>
      </trkpt>
      <trkpt lat="41.25131167" lon="1.87543">
        <ele>181.0</ele>
        <time>2019-12-21T12:42:46.431Z</time>
      </trkpt>
      <trkpt lat="41.25131167" lon="1.87543">
        <ele>181.0</ele>
        <time>2019-12-21T12:42:47.402Z</time>
      </trkpt>
      <trkpt lat="41.25136333" lon="1.87541667">
        <ele>182.0</ele>
        <time>2019-12-21T12:42:48.409Z</time>
      </trkpt>
      <trkpt lat="41.25139" lon="1.87540833">
        <ele>182.0</ele>
        <time>2019-12-21T12:42:49.422Z</time>
      </trkpt>
      <trkpt lat="41.25139" lon="1.87540833">
        <ele>182.0</ele>
        <time>2019-12-21T12:42:50.430Z</time>
      </trkpt>
      <trkpt lat="41.25144167" lon="1.87539">
        <ele>182.0</ele>
        <time>2019-12-21T12:42:51.401Z</time>
      </trkpt>
      <trkpt lat="41.25144167" lon="1.87539">
        <ele>182.0</ele>
        <time>2019-12-21T12:42:52.413Z</time>
      </trkpt>
      <trkpt lat="41.25149667" lon="1.87537833">
        <ele>181.0</ele>
        <time>2019-12-21T12:42:53.423Z</time>
      </trkpt>
      <trkpt lat="41.25149667" lon="1.87537833">
        <ele>181.0</ele>
        <time>2019-12-21T12:42:54.430Z</time>
      </trkpt>
      <trkpt lat="41.25155833" lon="1.87538">
        <ele>181.0</ele>
        <time>2019-12-21T12:42:55.424Z</time>
      </trkpt>
      <trkpt lat="41.25155833" lon="1.87538">
        <ele>181.0</ele>
        <time>2019-12-21T12:42:56.431Z</time>
      </trkpt>
      <trkpt lat="41.25161667" lon="1.87539667">
        <ele>181.0</ele>
        <time>2019-12-21T12:42:57.404Z</time>
      </trkpt>
      <trkpt lat="41.251645" lon="1.875405">
        <ele>181.0</ele>
        <time>2019-12-21T12:42:58.403Z</time>
      </trkpt>
      <trkpt lat="41.251645" lon="1.875405">
        <ele>181.0</ele>
        <time>2019-12-21T12:42:59.405Z</time>
      </trkpt>
      <trkpt lat="41.251695" lon="1.87542">
        <ele>182.0</ele>
        <time>2019-12-21T12:43:00.416Z</time>
      </trkpt>
      <trkpt lat="41.25172" lon="1.87542833">
        <ele>182.0</ele>
        <time>2019-12-21T12:43:01.409Z</time>
      </trkpt>
      <trkpt lat="41.25172" lon="1.87542833">
        <ele>182.0</ele>
        <time>2019-12-21T12:43:02.413Z</time>
      </trkpt>
      <trkpt lat="41.25177167" lon="1.87544333">
        <ele>182.0</ele>
        <time>2019-12-21T12:43:03.407Z</time>
      </trkpt>
      <trkpt lat="41.25177167" lon="1.87544333">
        <ele>182.0</ele>
        <time>2019-12-21T12:43:04.409Z</time>
      </trkpt>
      <trkpt lat="41.25182167" lon="1.87546">
        <ele>182.0</ele>
        <time>2019-12-21T12:43:05.402Z</time>
      </trkpt>
      <trkpt lat="41.25182167" lon="1.87546">
        <ele>182.0</ele>
        <time>2019-12-21T12:43:06.400Z</time>
      </trkpt>
      <trkpt lat="41.251875" lon="1.87547">
        <ele>183.0</ele>
        <time>2019-12-21T12:43:07.415Z</time>
      </trkpt>
      <trkpt lat="41.251875" lon="1.87547">
        <ele>183.0</ele>
        <time>2019-12-21T12:43:08.417Z</time>
      </trkpt>
      <trkpt lat="41.25192833" lon="1.875485">
        <ele>183.0</ele>
        <time>2019-12-21T12:43:09.407Z</time>
      </trkpt>
      <trkpt lat="41.25192833" lon="1.875485">
        <ele>183.0</ele>
        <time>2019-12-21T12:43:10.435Z</time>
      </trkpt>
      <trkpt lat="41.251985" lon="1.87549833">
        <ele>183.0</ele>
        <time>2019-12-21T12:43:11.399Z</time>
      </trkpt>
      <trkpt lat="41.25201167" lon="1.87550833">
        <ele>183.0</ele>
        <time>2019-12-21T12:43:12.400Z</time>
      </trkpt>
      <trkpt lat="41.25201167" lon="1.87550833">
        <ele>183.0</ele>
        <time>2019-12-21T12:43:13.433Z</time>
      </trkpt>
      <trkpt lat="41.25206333" lon="1.87552833">
        <ele>183.0</ele>
        <time>2019-12-21T12:43:14.399Z</time>
      </trkpt>
      <trkpt lat="41.25206333" lon="1.87552833">
        <ele>183.0</ele>
        <time>2019-12-21T12:43:15.432Z</time>
      </trkpt>
      <trkpt lat="41.25211167" lon="1.87554167">
        <ele>184.0</ele>
        <time>2019-12-21T12:43:16.436Z</time>
      </trkpt>
      <trkpt lat="41.25211167" lon="1.87554167">
        <ele>184.0</ele>
        <time>2019-12-21T12:43:17.398Z</time>
      </trkpt>
      <trkpt lat="41.25215833" lon="1.87556">
        <ele>184.0</ele>
        <time>2019-12-21T12:43:18.398Z</time>
      </trkpt>
      <trkpt lat="41.25215833" lon="1.87556">
        <ele>184.0</ele>
        <time>2019-12-21T12:43:19.433Z</time>
      </trkpt>
      <trkpt lat="41.25221" lon="1.87557667">
        <ele>184.0</ele>
        <time>2019-12-21T12:43:20.397Z</time>
      </trkpt>
      <trkpt lat="41.25221" lon="1.87557667">
        <ele>184.0</ele>
        <time>2019-12-21T12:43:21.435Z</time>
      </trkpt>
      <trkpt lat="41.25226167" lon="1.87559333">
        <ele>184.0</ele>
        <time>2019-12-21T12:43:22.398Z</time>
      </trkpt>
      <trkpt lat="41.25228833" lon="1.87560167">
        <ele>185.0</ele>
        <time>2019-12-21T12:43:23.397Z</time>
      </trkpt>
      <trkpt lat="41.25228833" lon="1.87560167">
        <ele>185.0</ele>
        <time>2019-12-21T12:43:24.429Z</time>
      </trkpt>
      <trkpt lat="41.25234" lon="1.875615">
        <ele>185.0</ele>
        <time>2019-12-21T12:43:25.414Z</time>
      </trkpt>
      <trkpt lat="41.25234" lon="1.875615">
        <ele>185.0</ele>
        <time>2019-12-21T12:43:26.425Z</time>
      </trkpt>
      <trkpt lat="41.25239" lon="1.87562833">
        <ele>185.0</ele>
        <time>2019-12-21T12:43:27.435Z</time>
      </trkpt>
      <trkpt lat="41.25241167" lon="1.87563667">
        <ele>186.0</ele>
        <time>2019-12-21T12:43:28.431Z</time>
      </trkpt>
      <trkpt lat="41.25241167" lon="1.87563667">
        <ele>186.0</ele>
        <time>2019-12-21T12:43:29.431Z</time>
      </trkpt>
      <trkpt lat="41.25245667" lon="1.87565167">
        <ele>186.0</ele>
        <time>2019-12-21T12:43:30.400Z</time>
      </trkpt>
      <trkpt lat="41.25247833" lon="1.87565833">
        <ele>187.0</ele>
        <time>2019-12-21T12:43:31.404Z</time>
      </trkpt>
      <trkpt lat="41.25247833" lon="1.87565833">
        <ele>187.0</ele>
        <time>2019-12-21T12:43:32.398Z</time>
      </trkpt>
      <trkpt lat="41.25252667" lon="1.87567167">
        <ele>187.0</ele>
        <time>2019-12-21T12:43:33.434Z</time>
      </trkpt>
      <trkpt lat="41.25255167" lon="1.87567667">
        <ele>187.0</ele>
        <time>2019-12-21T12:43:34.433Z</time>
      </trkpt>
      <trkpt lat="41.25255167" lon="1.87567667">
        <ele>187.0</ele>
        <time>2019-12-21T12:43:35.431Z</time>
      </trkpt>
      <trkpt lat="41.2526" lon="1.87569">
        <ele>187.0</ele>
        <time>2019-12-21T12:43:36.402Z</time>
      </trkpt>
      <trkpt lat="41.252625" lon="1.87569667">
        <ele>187.0</ele>
        <time>2019-12-21T12:43:37.397Z</time>
      </trkpt>
      <trkpt lat="41.252625" lon="1.87569667">
        <ele>187.0</ele>
        <time>2019-12-21T12:43:38.433Z</time>
      </trkpt>
      <trkpt lat="41.25267333" lon="1.87571333">
        <ele>188.0</ele>
        <time>2019-12-21T12:43:39.436Z</time>
      </trkpt>
      <trkpt lat="41.25269833" lon="1.87572167">
        <ele>188.0</ele>
        <time>2019-12-21T12:43:40.435Z</time>
      </trkpt>
      <trkpt lat="41.25269833" lon="1.87572167">
        <ele>188.0</ele>
        <time>2019-12-21T12:43:41.424Z</time>
      </trkpt>
      <trkpt lat="41.25275167" lon="1.875735">
        <ele>188.0</ele>
        <time>2019-12-21T12:43:42.400Z</time>
      </trkpt>
      <trkpt lat="41.25275167" lon="1.875735">
        <ele>188.0</ele>
        <time>2019-12-21T12:43:43.408Z</time>
      </trkpt>
      <trkpt lat="41.25280167" lon="1.87575167">
        <ele>188.0</ele>
        <time>2019-12-21T12:43:44.416Z</time>
      </trkpt>
      <trkpt lat="41.25280167" lon="1.87575167">
        <ele>188.0</ele>
        <time>2019-12-21T12:43:45.424Z</time>
      </trkpt>
      <trkpt lat="41.25285333" lon="1.87577">
        <ele>188.0</ele>
        <time>2019-12-21T12:43:46.431Z</time>
      </trkpt>
      <trkpt lat="41.25287833" lon="1.87578">
        <ele>188.0</ele>
        <time>2019-12-21T12:43:47.397Z</time>
      </trkpt>
      <trkpt lat="41.25287833" lon="1.87578">
        <ele>188.0</ele>
        <time>2019-12-21T12:43:48.435Z</time>
      </trkpt>
      <trkpt lat="41.25292667" lon="1.8758">
        <ele>189.0</ele>
        <time>2019-12-21T12:43:49.400Z</time>
      </trkpt>
      <trkpt lat="41.25292667" lon="1.8758">
        <ele>189.0</ele>
        <time>2019-12-21T12:43:50.432Z</time>
      </trkpt>
      <trkpt lat="41.25297833" lon="1.87581667">
        <ele>189.0</ele>
        <time>2019-12-21T12:43:51.412Z</time>
      </trkpt>
      <trkpt lat="41.25297833" lon="1.87581667">
        <ele>189.0</ele>
        <time>2019-12-21T12:43:52.401Z</time>
      </trkpt>
      <trkpt lat="41.25303" lon="1.87583">
        <ele>189.0</ele>
        <time>2019-12-21T12:43:53.397Z</time>
      </trkpt>
      <trkpt lat="41.25303" lon="1.87583">
        <ele>189.0</ele>
        <time>2019-12-21T12:43:54.434Z</time>
      </trkpt>
      <trkpt lat="41.25308333" lon="1.87584833">
        <ele>189.0</ele>
        <time>2019-12-21T12:43:55.399Z</time>
      </trkpt>
      <trkpt lat="41.25310833" lon="1.87586">
        <ele>189.0</ele>
        <time>2019-12-21T12:43:56.397Z</time>
      </trkpt>
      <trkpt lat="41.25310833" lon="1.87586">
        <ele>189.0</ele>
        <time>2019-12-21T12:43:57.433Z</time>
      </trkpt>
      <trkpt lat="41.25316" lon="1.87588">
        <ele>190.0</ele>
        <time>2019-12-21T12:43:58.401Z</time>
      </trkpt>
      <trkpt lat="41.25316" lon="1.87588">
        <ele>190.0</ele>
        <time>2019-12-21T12:43:59.407Z</time>
      </trkpt>
      <trkpt lat="41.25321167" lon="1.87589833">
        <ele>190.0</ele>
        <time>2019-12-21T12:44:00.413Z</time>
      </trkpt>
      <trkpt lat="41.25323833" lon="1.87590333">
        <ele>190.0</ele>
        <time>2019-12-21T12:44:01.436Z</time>
      </trkpt>
      <trkpt lat="41.253265" lon="1.87590833">
        <ele>190.0</ele>
        <time>2019-12-21T12:44:02.397Z</time>
      </trkpt>
      <trkpt lat="41.25329333" lon="1.87591333">
        <ele>190.0</ele>
        <time>2019-12-21T12:44:03.406Z</time>
      </trkpt>
      <trkpt lat="41.25329333" lon="1.87591333">
        <ele>190.0</ele>
        <time>2019-12-21T12:44:04.435Z</time>
      </trkpt>
      <trkpt lat="41.253345" lon="1.87592667">
        <ele>191.0</ele>
        <time>2019-12-21T12:44:05.398Z</time>
      </trkpt>
      <trkpt lat="41.253345" lon="1.87592667">
        <ele>191.0</ele>
        <time>2019-12-21T12:44:06.435Z</time>
      </trkpt>
      <trkpt lat="41.25339333" lon="1.875955">
        <ele>191.0</ele>
        <time>2019-12-21T12:44:07.400Z</time>
      </trkpt>
      <trkpt lat="41.253415" lon="1.87596833">
        <ele>191.0</ele>
        <time>2019-12-21T12:44:08.397Z</time>
      </trkpt>
      <trkpt lat="41.253415" lon="1.87596833">
        <ele>191.0</ele>
        <time>2019-12-21T12:44:09.433Z</time>
      </trkpt>
      <trkpt lat="41.25346333" lon="1.87599333">
        <ele>192.0</ele>
        <time>2019-12-21T12:44:10.397Z</time>
      </trkpt>
      <trkpt lat="41.25348667" lon="1.876005">
        <ele>192.0</ele>
        <time>2019-12-21T12:44:11.398Z</time>
      </trkpt>
      <trkpt lat="41.25348667" lon="1.876005">
        <ele>192.0</ele>
        <time>2019-12-21T12:44:12.436Z</time>
      </trkpt>
      <trkpt lat="41.25353333" lon="1.876035">
        <ele>192.0</ele>
        <time>2019-12-21T12:44:13.400Z</time>
      </trkpt>
      <trkpt lat="41.25355833" lon="1.876045">
        <ele>192.0</ele>
        <time>2019-12-21T12:44:14.398Z</time>
      </trkpt>
      <trkpt lat="41.25355833" lon="1.876045">
        <ele>192.0</ele>
        <time>2019-12-21T12:44:15.428Z</time>
      </trkpt>
      <trkpt lat="41.25361667" lon="1.87606333">
        <ele>192.0</ele>
        <time>2019-12-21T12:44:16.411Z</time>
      </trkpt>
      <trkpt lat="41.25361667" lon="1.87606333">
        <ele>192.0</ele>
        <time>2019-12-21T12:44:17.435Z</time>
      </trkpt>
      <trkpt lat="41.25368667" lon="1.87607667">
        <ele>192.0</ele>
        <time>2019-12-21T12:44:18.398Z</time>
      </trkpt>
      <trkpt lat="41.25372333" lon="1.87608167">
        <ele>192.0</ele>
        <time>2019-12-21T12:44:19.437Z</time>
      </trkpt>
      <trkpt lat="41.25372333" lon="1.87608167">
        <ele>192.0</ele>
        <time>2019-12-21T12:44:20.435Z</time>
      </trkpt>
      <trkpt lat="41.25379667" lon="1.87609167">
        <ele>192.0</ele>
        <time>2019-12-21T12:44:21.398Z</time>
      </trkpt>
      <trkpt lat="41.25383167" lon="1.87609667">
        <ele>192.0</ele>
        <time>2019-12-21T12:44:22.397Z</time>
      </trkpt>
      <trkpt lat="41.25383167" lon="1.87609667">
        <ele>192.0</ele>
        <time>2019-12-21T12:44:23.433Z</time>
      </trkpt>
      <trkpt lat="41.25390167" lon="1.87610833">
        <ele>192.0</ele>
        <time>2019-12-21T12:44:24.397Z</time>
      </trkpt>
      <trkpt lat="41.25390167" lon="1.87610833">
        <ele>192.0</ele>
        <time>2019-12-21T12:44:25.399Z</time>
      </trkpt>
      <trkpt lat="41.25396333" lon="1.876115">
        <ele>193.0</ele>
        <time>2019-12-21T12:44:26.397Z</time>
      </trkpt>
      <trkpt lat="41.25399" lon="1.87612167">
        <ele>193.0</ele>
        <time>2019-12-21T12:44:27.398Z</time>
      </trkpt>
      <trkpt lat="41.25401833" lon="1.87612833">
        <ele>193.0</ele>
        <time>2019-12-21T12:44:28.437Z</time>
      </trkpt>
      <trkpt lat="41.25401833" lon="1.87612833">
        <ele>193.0</ele>
        <time>2019-12-21T12:44:29.436Z</time>
      </trkpt>
      <trkpt lat="41.25407167" lon="1.87614333">
        <ele>194.0</ele>
        <time>2019-12-21T12:44:30.398Z</time>
      </trkpt>
      <trkpt lat="41.25407167" lon="1.87614333">
        <ele>194.0</ele>
        <time>2019-12-21T12:44:31.434Z</time>
      </trkpt>
      <trkpt lat="41.25411833" lon="1.87615167">
        <ele>194.0</ele>
        <time>2019-12-21T12:44:32.414Z</time>
      </trkpt>
      <trkpt lat="41.25411833" lon="1.87615167">
        <ele>194.0</ele>
        <time>2019-12-21T12:44:33.425Z</time>
      </trkpt>
      <trkpt lat="41.25415833" lon="1.87615833">
        <ele>195.0</ele>
        <time>2019-12-21T12:44:34.431Z</time>
      </trkpt>
      <trkpt lat="41.25415833" lon="1.87615833">
        <ele>195.0</ele>
        <time>2019-12-21T12:44:35.398Z</time>
      </trkpt>
      <trkpt lat="41.2542" lon="1.876165">
        <ele>195.0</ele>
        <time>2019-12-21T12:44:36.398Z</time>
      </trkpt>
      <trkpt lat="41.2542" lon="1.876165">
        <ele>195.0</ele>
        <time>2019-12-21T12:44:37.434Z</time>
      </trkpt>
      <trkpt lat="41.25424" lon="1.87617">
        <ele>196.0</ele>
        <time>2019-12-21T12:44:38.418Z</time>
      </trkpt>
      <trkpt lat="41.25424" lon="1.87617">
        <ele>196.0</ele>
        <time>2019-12-21T12:44:39.402Z</time>
      </trkpt>
      <trkpt lat="41.25427667" lon="1.876165">
        <ele>196.0</ele>
        <time>2019-12-21T12:44:40.399Z</time>
      </trkpt>
      <trkpt lat="41.25429667" lon="1.87616">
        <ele>197.0</ele>
        <time>2019-12-21T12:44:41.414Z</time>
      </trkpt>
      <trkpt lat="41.25429667" lon="1.87616">
        <ele>197.0</ele>
        <time>2019-12-21T12:44:42.399Z</time>
      </trkpt>
      <trkpt lat="41.25434167" lon="1.87616">
        <ele>197.0</ele>
        <time>2019-12-21T12:44:43.401Z</time>
      </trkpt>
      <trkpt lat="41.254365" lon="1.87616">
        <ele>198.0</ele>
        <time>2019-12-21T12:44:44.398Z</time>
      </trkpt>
      <trkpt lat="41.254365" lon="1.87616">
        <ele>198.0</ele>
        <time>2019-12-21T12:44:45.433Z</time>
      </trkpt>
      <trkpt lat="41.254405" lon="1.87615667">
        <ele>198.0</ele>
        <time>2019-12-21T12:44:46.398Z</time>
      </trkpt>
      <trkpt lat="41.254405" lon="1.87615667">
        <ele>198.0</ele>
        <time>2019-12-21T12:44:47.433Z</time>
      </trkpt>
      <trkpt lat="41.25444333" lon="1.876155">
        <ele>198.0</ele>
        <time>2019-12-21T12:44:48.423Z</time>
      </trkpt>
      <trkpt lat="41.25444333" lon="1.876155">
        <ele>198.0</ele>
        <time>2019-12-21T12:44:49.409Z</time>
      </trkpt>
      <trkpt lat="41.25449" lon="1.87615">
        <ele>198.0</ele>
        <time>2019-12-21T12:44:50.435Z</time>
      </trkpt>
      <trkpt lat="41.25449" lon="1.87615">
        <ele>198.0</ele>
        <time>2019-12-21T12:44:51.434Z</time>
      </trkpt>
      <trkpt lat="41.25453833" lon="1.87615">
        <ele>198.0</ele>
        <time>2019-12-21T12:44:52.421Z</time>
      </trkpt>
      <trkpt lat="41.25456" lon="1.87614833">
        <ele>199.0</ele>
        <time>2019-12-21T12:44:53.407Z</time>
      </trkpt>
      <trkpt lat="41.25456" lon="1.87614833">
        <ele>199.0</ele>
        <time>2019-12-21T12:44:54.403Z</time>
      </trkpt>
      <trkpt lat="41.25460167" lon="1.87614833">
        <ele>199.0</ele>
        <time>2019-12-21T12:44:55.412Z</time>
      </trkpt>
      <trkpt lat="41.25460167" lon="1.87614833">
        <ele>199.0</ele>
        <time>2019-12-21T12:44:56.421Z</time>
      </trkpt>
      <trkpt lat="41.25464167" lon="1.87614333">
        <ele>200.0</ele>
        <time>2019-12-21T12:44:57.415Z</time>
      </trkpt>
      <trkpt lat="41.25466333" lon="1.87614167">
        <ele>200.0</ele>
        <time>2019-12-21T12:44:58.408Z</time>
      </trkpt>
      <trkpt lat="41.25466333" lon="1.87614167">
        <ele>200.0</ele>
        <time>2019-12-21T12:44:59.402Z</time>
      </trkpt>
      <trkpt lat="41.25470833" lon="1.87614">
        <ele>201.0</ele>
        <time>2019-12-21T12:45:00.417Z</time>
      </trkpt>
      <trkpt lat="41.25473167" lon="1.87613833">
        <ele>201.0</ele>
        <time>2019-12-21T12:45:01.407Z</time>
      </trkpt>
      <trkpt lat="41.25473167" lon="1.87613833">
        <ele>201.0</ele>
        <time>2019-12-21T12:45:02.437Z</time>
      </trkpt>
      <trkpt lat="41.25478" lon="1.87614">
        <ele>201.0</ele>
        <time>2019-12-21T12:45:03.432Z</time>
      </trkpt>
      <trkpt lat="41.25480167" lon="1.87614167">
        <ele>201.0</ele>
        <time>2019-12-21T12:45:04.422Z</time>
      </trkpt>
      <trkpt lat="41.25480167" lon="1.87614167">
        <ele>201.0</ele>
        <time>2019-12-21T12:45:05.413Z</time>
      </trkpt>
      <trkpt lat="41.254845" lon="1.87614833">
        <ele>202.0</ele>
        <time>2019-12-21T12:45:06.402Z</time>
      </trkpt>
      <trkpt lat="41.25486667" lon="1.87615">
        <ele>202.0</ele>
        <time>2019-12-21T12:45:07.399Z</time>
      </trkpt>
      <trkpt lat="41.25486667" lon="1.87615">
        <ele>202.0</ele>
        <time>2019-12-21T12:45:08.434Z</time>
      </trkpt>
      <trkpt lat="41.25490833" lon="1.87615">
        <ele>202.0</ele>
        <time>2019-12-21T12:45:09.408Z</time>
      </trkpt>
      <trkpt lat="41.25493333" lon="1.876155">
        <ele>202.0</ele>
        <time>2019-12-21T12:45:10.405Z</time>
      </trkpt>
      <trkpt lat="41.25493333" lon="1.876155">
        <ele>202.0</ele>
        <time>2019-12-21T12:45:11.433Z</time>
      </trkpt>
      <trkpt lat="41.25498167" lon="1.876165">
        <ele>202.0</ele>
        <time>2019-12-21T12:45:12.401Z</time>
      </trkpt>
      <trkpt lat="41.25500667" lon="1.87617333">
        <ele>202.0</ele>
        <time>2019-12-21T12:45:13.404Z</time>
      </trkpt>
      <trkpt lat="41.25500667" lon="1.87617333">
        <ele>202.0</ele>
        <time>2019-12-21T12:45:14.432Z</time>
      </trkpt>
      <trkpt lat="41.25505667" lon="1.87619167">
        <ele>203.0</ele>
        <time>2019-12-21T12:45:15.436Z</time>
      </trkpt>
      <trkpt lat="41.25508" lon="1.8762">
        <ele>203.0</ele>
        <time>2019-12-21T12:45:16.405Z</time>
      </trkpt>
      <trkpt lat="41.25508" lon="1.8762">
        <ele>203.0</ele>
        <time>2019-12-21T12:45:17.433Z</time>
      </trkpt>
      <trkpt lat="41.255125" lon="1.87622667">
        <ele>204.0</ele>
        <time>2019-12-21T12:45:18.400Z</time>
      </trkpt>
      <trkpt lat="41.25514667" lon="1.876245">
        <ele>204.0</ele>
        <time>2019-12-21T12:45:19.407Z</time>
      </trkpt>
      <trkpt lat="41.25514667" lon="1.876245">
        <ele>204.0</ele>
        <time>2019-12-21T12:45:20.413Z</time>
      </trkpt>
      <trkpt lat="41.25519" lon="1.87628167">
        <ele>204.0</ele>
        <time>2019-12-21T12:45:21.403Z</time>
      </trkpt>
      <trkpt lat="41.25521167" lon="1.8763">
        <ele>204.0</ele>
        <time>2019-12-21T12:45:22.410Z</time>
      </trkpt>
      <trkpt lat="41.25521167" lon="1.8763">
        <ele>204.0</ele>
        <time>2019-12-21T12:45:23.417Z</time>
      </trkpt>
      <trkpt lat="41.25525333" lon="1.87633833">
        <ele>204.0</ele>
        <time>2019-12-21T12:45:24.429Z</time>
      </trkpt>
      <trkpt lat="41.25527667" lon="1.87635833">
        <ele>204.0</ele>
        <time>2019-12-21T12:45:25.436Z</time>
      </trkpt>
      <trkpt lat="41.25529667" lon="1.87637667">
        <ele>204.0</ele>
        <time>2019-12-21T12:45:26.415Z</time>
      </trkpt>
      <trkpt lat="41.25529667" lon="1.87637667">
        <ele>204.0</ele>
        <time>2019-12-21T12:45:27.410Z</time>
      </trkpt>
      <trkpt lat="41.255335" lon="1.87641667">
        <ele>204.0</ele>
        <time>2019-12-21T12:45:28.404Z</time>
      </trkpt>
      <trkpt lat="41.255335" lon="1.87641667">
        <ele>204.0</ele>
        <time>2019-12-21T12:45:29.433Z</time>
      </trkpt>
      <trkpt lat="41.25537833" lon="1.87645167">
        <ele>204.0</ele>
        <time>2019-12-21T12:45:30.423Z</time>
      </trkpt>
      <trkpt lat="41.25539833" lon="1.87647167">
        <ele>204.0</ele>
        <time>2019-12-21T12:45:31.431Z</time>
      </trkpt>
      <trkpt lat="41.25541833" lon="1.87649">
        <ele>205.0</ele>
        <time>2019-12-21T12:45:32.397Z</time>
      </trkpt>
      <trkpt lat="41.25541833" lon="1.87649">
        <ele>205.0</ele>
        <time>2019-12-21T12:45:33.433Z</time>
      </trkpt>
      <trkpt lat="41.25546167" lon="1.87652833">
        <ele>205.0</ele>
        <time>2019-12-21T12:45:34.398Z</time>
      </trkpt>
      <trkpt lat="41.25546167" lon="1.87652833">
        <ele>205.0</ele>
        <time>2019-12-21T12:45:35.433Z</time>
      </trkpt>
      <trkpt lat="41.25550333" lon="1.87657">
        <ele>205.0</ele>
        <time>2019-12-21T12:45:36.398Z</time>
      </trkpt>
      <trkpt lat="41.25552833" lon="1.87659333">
        <ele>205.0</ele>
        <time>2019-12-21T12:45:37.413Z</time>
      </trkpt>
      <trkpt lat="41.25552833" lon="1.87659333">
        <ele>205.0</ele>
        <time>2019-12-21T12:45:38.397Z</time>
      </trkpt>
      <trkpt lat="41.25557333" lon="1.87663667">
        <ele>206.0</ele>
        <time>2019-12-21T12:45:39.398Z</time>
      </trkpt>
      <trkpt lat="41.25557333" lon="1.87663667">
        <ele>206.0</ele>
        <time>2019-12-21T12:45:40.434Z</time>
      </trkpt>
      <trkpt lat="41.255615" lon="1.87668833">
        <ele>206.0</ele>
        <time>2019-12-21T12:45:41.399Z</time>
      </trkpt>
      <trkpt lat="41.25563667" lon="1.87671167">
        <ele>206.0</ele>
        <time>2019-12-21T12:45:42.397Z</time>
      </trkpt>
      <trkpt lat="41.25563667" lon="1.87671167">
        <ele>206.0</ele>
        <time>2019-12-21T12:45:43.421Z</time>
      </trkpt>
      <trkpt lat="41.25568333" lon="1.87675167">
        <ele>206.0</ele>
        <time>2019-12-21T12:45:44.406Z</time>
      </trkpt>
      <trkpt lat="41.25568333" lon="1.87675167">
        <ele>206.0</ele>
        <time>2019-12-21T12:45:45.434Z</time>
      </trkpt>
      <trkpt lat="41.25573167" lon="1.87678833">
        <ele>206.0</ele>
        <time>2019-12-21T12:45:46.399Z</time>
      </trkpt>
      <trkpt lat="41.25576333" lon="1.87680667">
        <ele>206.0</ele>
        <time>2019-12-21T12:45:47.399Z</time>
      </trkpt>
      <trkpt lat="41.25576333" lon="1.87680667">
        <ele>206.0</ele>
        <time>2019-12-21T12:45:48.433Z</time>
      </trkpt>
      <trkpt lat="41.25582167" lon="1.87682833">
        <ele>207.0</ele>
        <time>2019-12-21T12:45:49.419Z</time>
      </trkpt>
      <trkpt lat="41.25582167" lon="1.87682833">
        <ele>207.0</ele>
        <time>2019-12-21T12:45:50.401Z</time>
      </trkpt>
      <trkpt lat="41.25588167" lon="1.87684">
        <ele>207.0</ele>
        <time>2019-12-21T12:45:51.399Z</time>
      </trkpt>
      <trkpt lat="41.25588167" lon="1.87684">
        <ele>207.0</ele>
        <time>2019-12-21T12:45:52.433Z</time>
      </trkpt>
      <trkpt lat="41.25594333" lon="1.876835">
        <ele>207.0</ele>
        <time>2019-12-21T12:45:53.416Z</time>
      </trkpt>
      <trkpt lat="41.25597333" lon="1.87682667">
        <ele>208.0</ele>
        <time>2019-12-21T12:45:54.399Z</time>
      </trkpt>
      <trkpt lat="41.25600333" lon="1.87681833">
        <ele>208.0</ele>
        <time>2019-12-21T12:45:55.400Z</time>
      </trkpt>
      <trkpt lat="41.25600333" lon="1.87681833">
        <ele>208.0</ele>
        <time>2019-12-21T12:45:56.427Z</time>
      </trkpt>
      <trkpt lat="41.25606" lon="1.87679333">
        <ele>208.0</ele>
        <time>2019-12-21T12:45:57.433Z</time>
      </trkpt>
      <trkpt lat="41.25606" lon="1.87679333">
        <ele>208.0</ele>
        <time>2019-12-21T12:45:58.399Z</time>
      </trkpt>
      <trkpt lat="41.25611167" lon="1.876765">
        <ele>208.0</ele>
        <time>2019-12-21T12:45:59.410Z</time>
      </trkpt>
      <trkpt lat="41.25614" lon="1.87675">
        <ele>208.0</ele>
        <time>2019-12-21T12:46:00.423Z</time>
      </trkpt>
      <trkpt lat="41.256165" lon="1.876735">
        <ele>208.0</ele>
        <time>2019-12-21T12:46:01.410Z</time>
      </trkpt>
      <trkpt lat="41.256165" lon="1.876735">
        <ele>208.0</ele>
        <time>2019-12-21T12:46:02.399Z</time>
      </trkpt>
      <trkpt lat="41.256215" lon="1.87670667">
        <ele>209.0</ele>
        <time>2019-12-21T12:46:03.410Z</time>
      </trkpt>
      <trkpt lat="41.256215" lon="1.87670667">
        <ele>209.0</ele>
        <time>2019-12-21T12:46:04.400Z</time>
      </trkpt>
      <trkpt lat="41.25626833" lon="1.87668667">
        <ele>209.0</ele>
        <time>2019-12-21T12:46:05.399Z</time>
      </trkpt>
      <trkpt lat="41.25626833" lon="1.87668667">
        <ele>209.0</ele>
        <time>2019-12-21T12:46:06.430Z</time>
      </trkpt>
      <trkpt lat="41.25632333" lon="1.87667833">
        <ele>210.0</ele>
        <time>2019-12-21T12:46:07.419Z</time>
      </trkpt>
      <trkpt lat="41.25635333" lon="1.87668">
        <ele>210.0</ele>
        <time>2019-12-21T12:46:08.406Z</time>
      </trkpt>
      <trkpt lat="41.25635333" lon="1.87668">
        <ele>210.0</ele>
        <time>2019-12-21T12:46:09.433Z</time>
      </trkpt>
      <trkpt lat="41.25641" lon="1.8767">
        <ele>210.0</ele>
        <time>2019-12-21T12:46:10.398Z</time>
      </trkpt>
      <trkpt lat="41.25644167" lon="1.87671333">
        <ele>211.0</ele>
        <time>2019-12-21T12:46:11.398Z</time>
      </trkpt>
      <trkpt lat="41.25644167" lon="1.87671333">
        <ele>211.0</ele>
        <time>2019-12-21T12:46:12.414Z</time>
      </trkpt>
      <trkpt lat="41.25650833" lon="1.87674333">
        <ele>211.0</ele>
        <time>2019-12-21T12:46:13.400Z</time>
      </trkpt>
      <trkpt lat="41.25650833" lon="1.87674333">
        <ele>211.0</ele>
        <time>2019-12-21T12:46:14.433Z</time>
      </trkpt>
      <trkpt lat="41.25658" lon="1.87678333">
        <ele>212.0</ele>
        <time>2019-12-21T12:46:15.398Z</time>
      </trkpt>
      <trkpt lat="41.25658" lon="1.87678333">
        <ele>212.0</ele>
        <time>2019-12-21T12:46:16.410Z</time>
      </trkpt>
      <trkpt lat="41.25665" lon="1.87682667">
        <ele>212.0</ele>
        <time>2019-12-21T12:46:17.398Z</time>
      </trkpt>
      <trkpt lat="41.25665" lon="1.87682667">
        <ele>212.0</ele>
        <time>2019-12-21T12:46:18.435Z</time>
      </trkpt>
      <trkpt lat="41.256715" lon="1.87687167">
        <ele>212.0</ele>
        <time>2019-12-21T12:46:19.400Z</time>
      </trkpt>
      <trkpt lat="41.256715" lon="1.87687167">
        <ele>212.0</ele>
        <time>2019-12-21T12:46:20.430Z</time>
      </trkpt>
      <trkpt lat="41.25678333" lon="1.87691667">
        <ele>212.0</ele>
        <time>2019-12-21T12:46:21.413Z</time>
      </trkpt>
      <trkpt lat="41.25681667" lon="1.87694167">
        <ele>212.0</ele>
        <time>2019-12-21T12:46:22.400Z</time>
      </trkpt>
      <trkpt lat="41.25684667" lon="1.876965">
        <ele>212.0</ele>
        <time>2019-12-21T12:46:23.410Z</time>
      </trkpt>
      <trkpt lat="41.25684667" lon="1.876965">
        <ele>212.0</ele>
        <time>2019-12-21T12:46:24.435Z</time>
      </trkpt>
      <trkpt lat="41.25690667" lon="1.87701833">
        <ele>212.0</ele>
        <time>2019-12-21T12:46:25.400Z</time>
      </trkpt>
      <trkpt lat="41.25690667" lon="1.87701833">
        <ele>212.0</ele>
        <time>2019-12-21T12:46:26.399Z</time>
      </trkpt>
      <trkpt lat="41.25696" lon="1.877075">
        <ele>213.0</ele>
        <time>2019-12-21T12:46:27.398Z</time>
      </trkpt>
      <trkpt lat="41.25696" lon="1.877075">
        <ele>213.0</ele>
        <time>2019-12-21T12:46:28.400Z</time>
      </trkpt>
      <trkpt lat="41.25701" lon="1.87713333">
        <ele>213.0</ele>
        <time>2019-12-21T12:46:29.398Z</time>
      </trkpt>
      <trkpt lat="41.25701" lon="1.87713333">
        <ele>213.0</ele>
        <time>2019-12-21T12:46:30.434Z</time>
      </trkpt>
      <trkpt lat="41.25705333" lon="1.87718333">
        <ele>213.0</ele>
        <time>2019-12-21T12:46:31.416Z</time>
      </trkpt>
      <trkpt lat="41.25705333" lon="1.87718333">
        <ele>213.0</ele>
        <time>2019-12-21T12:46:32.402Z</time>
      </trkpt>
      <trkpt lat="41.25708333" lon="1.87723">
        <ele>213.0</ele>
        <time>2019-12-21T12:46:33.398Z</time>
      </trkpt>
      <trkpt lat="41.25708333" lon="1.87723">
        <ele>213.0</ele>
        <time>2019-12-21T12:46:34.433Z</time>
      </trkpt>
      <trkpt lat="41.257115" lon="1.87728">
        <ele>214.0</ele>
        <time>2019-12-21T12:46:35.415Z</time>
      </trkpt>
      <trkpt lat="41.257115" lon="1.87728">
        <ele>214.0</ele>
        <time>2019-12-21T12:46:36.402Z</time>
      </trkpt>
      <trkpt lat="41.25715167" lon="1.87732833">
        <ele>214.0</ele>
        <time>2019-12-21T12:46:37.400Z</time>
      </trkpt>
      <trkpt lat="41.25715167" lon="1.87732833">
        <ele>214.0</ele>
        <time>2019-12-21T12:46:38.433Z</time>
      </trkpt>
      <trkpt lat="41.25719333" lon="1.87736333">
        <ele>215.0</ele>
        <time>2019-12-21T12:46:39.415Z</time>
      </trkpt>
      <trkpt lat="41.257215" lon="1.877375">
        <ele>215.0</ele>
        <time>2019-12-21T12:46:40.401Z</time>
      </trkpt>
      <trkpt lat="41.257215" lon="1.877375">
        <ele>215.0</ele>
        <time>2019-12-21T12:46:41.434Z</time>
      </trkpt>
      <trkpt lat="41.25725167" lon="1.87739167">
        <ele>215.0</ele>
        <time>2019-12-21T12:46:42.398Z</time>
      </trkpt>
      <trkpt lat="41.25727167" lon="1.87740333">
        <ele>215.0</ele>
        <time>2019-12-21T12:46:43.401Z</time>
      </trkpt>
      <trkpt lat="41.25727167" lon="1.87740333">
        <ele>215.0</ele>
        <time>2019-12-21T12:46:44.434Z</time>
      </trkpt>
      <trkpt lat="41.25730833" lon="1.87741333">
        <ele>216.0</ele>
        <time>2019-12-21T12:46:45.400Z</time>
      </trkpt>
      <trkpt lat="41.25732833" lon="1.87741167">
        <ele>216.0</ele>
        <time>2019-12-21T12:46:46.399Z</time>
      </trkpt>
      <trkpt lat="41.25732833" lon="1.87741167">
        <ele>216.0</ele>
        <time>2019-12-21T12:46:47.400Z</time>
      </trkpt>
      <trkpt lat="41.25736167" lon="1.87740167">
        <ele>217.0</ele>
        <time>2019-12-21T12:46:48.436Z</time>
      </trkpt>
      <trkpt lat="41.25738" lon="1.87739167">
        <ele>218.0</ele>
        <time>2019-12-21T12:46:49.402Z</time>
      </trkpt>
      <trkpt lat="41.25738" lon="1.87739167">
        <ele>218.0</ele>
        <time>2019-12-21T12:46:50.433Z</time>
      </trkpt>
      <trkpt lat="41.25742333" lon="1.87737333">
        <ele>219.0</ele>
        <time>2019-12-21T12:46:51.416Z</time>
      </trkpt>
      <trkpt lat="41.25742333" lon="1.87737333">
        <ele>219.0</ele>
        <time>2019-12-21T12:46:52.401Z</time>
      </trkpt>
      <trkpt lat="41.25746333" lon="1.87735333">
        <ele>221.0</ele>
        <time>2019-12-21T12:46:53.397Z</time>
      </trkpt>
      <trkpt lat="41.25746333" lon="1.87735333">
        <ele>221.0</ele>
        <time>2019-12-21T12:46:54.433Z</time>
      </trkpt>
      <trkpt lat="41.25749167" lon="1.87732667">
        <ele>221.0</ele>
        <time>2019-12-21T12:46:55.415Z</time>
      </trkpt>
      <trkpt lat="41.25749167" lon="1.87732667">
        <ele>221.0</ele>
        <time>2019-12-21T12:46:56.411Z</time>
      </trkpt>
      <trkpt lat="41.25752833" lon="1.87730167">
        <ele>222.0</ele>
        <time>2019-12-21T12:46:57.399Z</time>
      </trkpt>
      <trkpt lat="41.25752833" lon="1.87730167">
        <ele>222.0</ele>
        <time>2019-12-21T12:46:58.397Z</time>
      </trkpt>
      <trkpt lat="41.257565" lon="1.87727667">
        <ele>223.0</ele>
        <time>2019-12-21T12:46:59.399Z</time>
      </trkpt>
      <trkpt lat="41.257565" lon="1.87727667">
        <ele>223.0</ele>
        <time>2019-12-21T12:47:00.436Z</time>
      </trkpt>
      <trkpt lat="41.25759833" lon="1.87725">
        <ele>224.0</ele>
        <time>2019-12-21T12:47:01.401Z</time>
      </trkpt>
      <trkpt lat="41.25759833" lon="1.87725">
        <ele>224.0</ele>
        <time>2019-12-21T12:47:02.434Z</time>
      </trkpt>
      <trkpt lat="41.25762667" lon="1.87722333">
        <ele>224.0</ele>
        <time>2019-12-21T12:47:03.399Z</time>
      </trkpt>
      <trkpt lat="41.25764167" lon="1.87721">
        <ele>225.0</ele>
        <time>2019-12-21T12:47:04.399Z</time>
      </trkpt>
      <trkpt lat="41.25764167" lon="1.87721">
        <ele>225.0</ele>
        <time>2019-12-21T12:47:05.434Z</time>
      </trkpt>
      <trkpt lat="41.25767667" lon="1.87717667">
        <ele>225.0</ele>
        <time>2019-12-21T12:47:06.398Z</time>
      </trkpt>
      <trkpt lat="41.25770167" lon="1.87716667">
        <ele>226.0</ele>
        <time>2019-12-21T12:47:07.400Z</time>
      </trkpt>
      <trkpt lat="41.25770167" lon="1.87716667">
        <ele>226.0</ele>
        <time>2019-12-21T12:47:08.434Z</time>
      </trkpt>
      <trkpt lat="41.25775333" lon="1.87715667">
        <ele>227.0</ele>
        <time>2019-12-21T12:47:09.437Z</time>
      </trkpt>
      <trkpt lat="41.25775333" lon="1.87715667">
        <ele>227.0</ele>
        <time>2019-12-21T12:47:10.434Z</time>
      </trkpt>
      <trkpt lat="41.25780167" lon="1.87716">
        <ele>227.0</ele>
        <time>2019-12-21T12:47:11.415Z</time>
      </trkpt>
      <trkpt lat="41.25780167" lon="1.87716">
        <ele>227.0</ele>
        <time>2019-12-21T12:47:12.401Z</time>
      </trkpt>
      <trkpt lat="41.25784833" lon="1.87716333">
        <ele>227.0</ele>
        <time>2019-12-21T12:47:13.412Z</time>
      </trkpt>
      <trkpt lat="41.25784833" lon="1.87716333">
        <ele>227.0</ele>
        <time>2019-12-21T12:47:14.436Z</time>
      </trkpt>
      <trkpt lat="41.25789833" lon="1.87716667">
        <ele>227.0</ele>
        <time>2019-12-21T12:47:15.398Z</time>
      </trkpt>
      <trkpt lat="41.25789833" lon="1.87716667">
        <ele>227.0</ele>
        <time>2019-12-21T12:47:16.434Z</time>
      </trkpt>
      <trkpt lat="41.25794667" lon="1.87716833">
        <ele>227.0</ele>
        <time>2019-12-21T12:47:17.398Z</time>
      </trkpt>
      <trkpt lat="41.25794667" lon="1.87716833">
        <ele>227.0</ele>
        <time>2019-12-21T12:47:18.410Z</time>
      </trkpt>
      <trkpt lat="41.25798833" lon="1.87716333">
        <ele>227.0</ele>
        <time>2019-12-21T12:47:19.401Z</time>
      </trkpt>
      <trkpt lat="41.25798833" lon="1.87716333">
        <ele>227.0</ele>
        <time>2019-12-21T12:47:20.456Z</time>
      </trkpt>
      <trkpt lat="41.25803833" lon="1.87716333">
        <ele>227.0</ele>
        <time>2019-12-21T12:47:21.429Z</time>
      </trkpt>
      <trkpt lat="41.25803833" lon="1.87716333">
        <ele>227.0</ele>
        <time>2019-12-21T12:47:22.435Z</time>
      </trkpt>
      <trkpt lat="41.25808333" lon="1.87715667">
        <ele>227.0</ele>
        <time>2019-12-21T12:47:23.406Z</time>
      </trkpt>
      <trkpt lat="41.258105" lon="1.87715333">
        <ele>227.0</ele>
        <time>2019-12-21T12:47:24.399Z</time>
      </trkpt>
      <trkpt lat="41.25812833" lon="1.87715167">
        <ele>226.0</ele>
        <time>2019-12-21T12:47:25.401Z</time>
      </trkpt>
      <trkpt lat="41.25812833" lon="1.87715167">
        <ele>226.0</ele>
        <time>2019-12-21T12:47:26.434Z</time>
      </trkpt>
      <trkpt lat="41.258175" lon="1.87714667">
        <ele>226.0</ele>
        <time>2019-12-21T12:47:27.399Z</time>
      </trkpt>
      <trkpt lat="41.258175" lon="1.87714667">
        <ele>226.0</ele>
        <time>2019-12-21T12:47:28.434Z</time>
      </trkpt>
      <trkpt lat="41.25823167" lon="1.877155">
        <ele>226.0</ele>
        <time>2019-12-21T12:47:29.397Z</time>
      </trkpt>
      <trkpt lat="41.25823167" lon="1.877155">
        <ele>226.0</ele>
        <time>2019-12-21T12:47:30.434Z</time>
      </trkpt>
      <trkpt lat="41.25829167" lon="1.87717">
        <ele>225.0</ele>
        <time>2019-12-21T12:47:31.401Z</time>
      </trkpt>
      <trkpt lat="41.25829167" lon="1.87717">
        <ele>225.0</ele>
        <time>2019-12-21T12:47:32.434Z</time>
      </trkpt>
      <trkpt lat="41.25834833" lon="1.87719667">
        <ele>225.0</ele>
        <time>2019-12-21T12:47:33.401Z</time>
      </trkpt>
      <trkpt lat="41.25834833" lon="1.87719667">
        <ele>225.0</ele>
        <time>2019-12-21T12:47:34.434Z</time>
      </trkpt>
      <trkpt lat="41.25840167" lon="1.87722667">
        <ele>225.0</ele>
        <time>2019-12-21T12:47:35.416Z</time>
      </trkpt>
      <trkpt lat="41.25840167" lon="1.87722667">
        <ele>225.0</ele>
        <time>2019-12-21T12:47:36.400Z</time>
      </trkpt>
      <trkpt lat="41.25845667" lon="1.87725833">
        <ele>225.0</ele>
        <time>2019-12-21T12:47:37.401Z</time>
      </trkpt>
      <trkpt lat="41.25845667" lon="1.87725833">
        <ele>225.0</ele>
        <time>2019-12-21T12:47:38.434Z</time>
      </trkpt>
      <trkpt lat="41.25851333" lon="1.8773">
        <ele>225.0</ele>
        <time>2019-12-21T12:47:39.416Z</time>
      </trkpt>
      <trkpt lat="41.25851333" lon="1.8773">
        <ele>225.0</ele>
        <time>2019-12-21T12:47:40.399Z</time>
      </trkpt>
      <trkpt lat="41.25856333" lon="1.87734">
        <ele>225.0</ele>
        <time>2019-12-21T12:47:41.400Z</time>
      </trkpt>
      <trkpt lat="41.25856333" lon="1.87734">
        <ele>225.0</ele>
        <time>2019-12-21T12:47:42.435Z</time>
      </trkpt>
      <trkpt lat="41.25861667" lon="1.87738">
        <ele>224.0</ele>
        <time>2019-12-21T12:47:43.416Z</time>
      </trkpt>
      <trkpt lat="41.25861667" lon="1.87738">
        <ele>224.0</ele>
        <time>2019-12-21T12:47:44.399Z</time>
      </trkpt>
      <trkpt lat="41.25866667" lon="1.87742">
        <ele>225.0</ele>
        <time>2019-12-21T12:47:45.399Z</time>
      </trkpt>
      <trkpt lat="41.25866667" lon="1.87742">
        <ele>225.0</ele>
        <time>2019-12-21T12:47:46.434Z</time>
      </trkpt>
      <trkpt lat="41.25871667" lon="1.87745167">
        <ele>224.0</ele>
        <time>2019-12-21T12:47:47.399Z</time>
      </trkpt>
      <trkpt lat="41.25871667" lon="1.87745167">
        <ele>224.0</ele>
        <time>2019-12-21T12:47:48.434Z</time>
      </trkpt>
      <trkpt lat="41.25876667" lon="1.87748833">
        <ele>225.0</ele>
        <time>2019-12-21T12:47:49.416Z</time>
      </trkpt>
      <trkpt lat="41.25876667" lon="1.87748833">
        <ele>225.0</ele>
        <time>2019-12-21T12:47:50.399Z</time>
      </trkpt>
      <trkpt lat="41.25882" lon="1.87752333">
        <ele>225.0</ele>
        <time>2019-12-21T12:47:51.400Z</time>
      </trkpt>
      <trkpt lat="41.25882" lon="1.87752333">
        <ele>225.0</ele>
        <time>2019-12-21T12:47:52.434Z</time>
      </trkpt>
      <trkpt lat="41.25887" lon="1.877555">
        <ele>225.0</ele>
        <time>2019-12-21T12:47:53.399Z</time>
      </trkpt>
      <trkpt lat="41.25887" lon="1.877555">
        <ele>225.0</ele>
        <time>2019-12-21T12:47:54.434Z</time>
      </trkpt>
      <trkpt lat="41.258925" lon="1.87758">
        <ele>225.0</ele>
        <time>2019-12-21T12:47:55.416Z</time>
      </trkpt>
      <trkpt lat="41.258925" lon="1.87758">
        <ele>225.0</ele>
        <time>2019-12-21T12:47:56.434Z</time>
      </trkpt>
      <trkpt lat="41.25898" lon="1.87760333">
        <ele>225.0</ele>
        <time>2019-12-21T12:47:57.413Z</time>
      </trkpt>
      <trkpt lat="41.25898" lon="1.87760333">
        <ele>225.0</ele>
        <time>2019-12-21T12:47:58.398Z</time>
      </trkpt>
      <trkpt lat="41.25903667" lon="1.87760833">
        <ele>224.0</ele>
        <time>2019-12-21T12:47:59.397Z</time>
      </trkpt>
      <trkpt lat="41.25903667" lon="1.87760833">
        <ele>224.0</ele>
        <time>2019-12-21T12:48:00.409Z</time>
      </trkpt>
      <trkpt lat="41.25909167" lon="1.87760667">
        <ele>224.0</ele>
        <time>2019-12-21T12:48:01.402Z</time>
      </trkpt>
      <trkpt lat="41.25909167" lon="1.87760667">
        <ele>224.0</ele>
        <time>2019-12-21T12:48:02.434Z</time>
      </trkpt>
      <trkpt lat="41.259145" lon="1.877595">
        <ele>223.0</ele>
        <time>2019-12-21T12:48:03.400Z</time>
      </trkpt>
      <trkpt lat="41.259145" lon="1.877595">
        <ele>223.0</ele>
        <time>2019-12-21T12:48:04.434Z</time>
      </trkpt>
      <trkpt lat="41.25920167" lon="1.87758333">
        <ele>223.0</ele>
        <time>2019-12-21T12:48:05.397Z</time>
      </trkpt>
      <trkpt lat="41.25920167" lon="1.87758333">
        <ele>223.0</ele>
        <time>2019-12-21T12:48:06.398Z</time>
      </trkpt>
      <trkpt lat="41.25925167" lon="1.877575">
        <ele>223.0</ele>
        <time>2019-12-21T12:48:07.407Z</time>
      </trkpt>
      <trkpt lat="41.25925167" lon="1.877575">
        <ele>223.0</ele>
        <time>2019-12-21T12:48:08.435Z</time>
      </trkpt>
      <trkpt lat="41.25930333" lon="1.87755333">
        <ele>223.0</ele>
        <time>2019-12-21T12:48:09.398Z</time>
      </trkpt>
      <trkpt lat="41.25930333" lon="1.87755333">
        <ele>223.0</ele>
        <time>2019-12-21T12:48:10.434Z</time>
      </trkpt>
      <trkpt lat="41.259355" lon="1.87753333">
        <ele>223.0</ele>
        <time>2019-12-21T12:48:11.399Z</time>
      </trkpt>
      <trkpt lat="41.259355" lon="1.87753333">
        <ele>223.0</ele>
        <time>2019-12-21T12:48:12.434Z</time>
      </trkpt>
      <trkpt lat="41.25941" lon="1.87751333">
        <ele>224.0</ele>
        <time>2019-12-21T12:48:13.417Z</time>
      </trkpt>
      <trkpt lat="41.25941" lon="1.87751333">
        <ele>224.0</ele>
        <time>2019-12-21T12:48:14.402Z</time>
      </trkpt>
      <trkpt lat="41.25947" lon="1.87749833">
        <ele>224.0</ele>
        <time>2019-12-21T12:48:15.399Z</time>
      </trkpt>
      <trkpt lat="41.25947" lon="1.87749833">
        <ele>224.0</ele>
        <time>2019-12-21T12:48:16.434Z</time>
      </trkpt>
      <trkpt lat="41.25953667" lon="1.877495">
        <ele>224.0</ele>
        <time>2019-12-21T12:48:17.401Z</time>
      </trkpt>
      <trkpt lat="41.25953667" lon="1.877495">
        <ele>224.0</ele>
        <time>2019-12-21T12:48:18.407Z</time>
      </trkpt>
      <trkpt lat="41.25960333" lon="1.87750333">
        <ele>224.0</ele>
        <time>2019-12-21T12:48:19.401Z</time>
      </trkpt>
      <trkpt lat="41.25960333" lon="1.87750333">
        <ele>224.0</ele>
        <time>2019-12-21T12:48:20.434Z</time>
      </trkpt>
      <trkpt lat="41.25967167" lon="1.877525">
        <ele>224.0</ele>
        <time>2019-12-21T12:48:21.399Z</time>
      </trkpt>
      <trkpt lat="41.25967167" lon="1.877525">
        <ele>224.0</ele>
        <time>2019-12-21T12:48:22.436Z</time>
      </trkpt>
      <trkpt lat="41.259735" lon="1.87756167">
        <ele>224.0</ele>
        <time>2019-12-21T12:48:23.436Z</time>
      </trkpt>
      <trkpt lat="41.259735" lon="1.87756167">
        <ele>224.0</ele>
        <time>2019-12-21T12:48:24.434Z</time>
      </trkpt>
      <trkpt lat="41.25979167" lon="1.87761">
        <ele>224.0</ele>
        <time>2019-12-21T12:48:25.417Z</time>
      </trkpt>
      <trkpt lat="41.25979167" lon="1.87761">
        <ele>224.0</ele>
        <time>2019-12-21T12:48:26.400Z</time>
      </trkpt>
      <trkpt lat="41.259845" lon="1.877665">
        <ele>224.0</ele>
        <time>2019-12-21T12:48:27.404Z</time>
      </trkpt>
      <trkpt lat="41.259845" lon="1.877665">
        <ele>224.0</ele>
        <time>2019-12-21T12:48:28.434Z</time>
      </trkpt>
      <trkpt lat="41.25989667" lon="1.87772333">
        <ele>224.0</ele>
        <time>2019-12-21T12:48:29.409Z</time>
      </trkpt>
      <trkpt lat="41.25989667" lon="1.87772333">
        <ele>224.0</ele>
        <time>2019-12-21T12:48:30.435Z</time>
      </trkpt>
      <trkpt lat="41.25995333" lon="1.87778667">
        <ele>224.0</ele>
        <time>2019-12-21T12:48:31.417Z</time>
      </trkpt>
      <trkpt lat="41.25995333" lon="1.87778667">
        <ele>224.0</ele>
        <time>2019-12-21T12:48:32.402Z</time>
      </trkpt>
      <trkpt lat="41.26000667" lon="1.87785833">
        <ele>224.0</ele>
        <time>2019-12-21T12:48:33.400Z</time>
      </trkpt>
      <trkpt lat="41.26000667" lon="1.87785833">
        <ele>224.0</ele>
        <time>2019-12-21T12:48:34.398Z</time>
      </trkpt>
      <trkpt lat="41.26005333" lon="1.87793833">
        <ele>224.0</ele>
        <time>2019-12-21T12:48:35.401Z</time>
      </trkpt>
      <trkpt lat="41.26005333" lon="1.87793833">
        <ele>224.0</ele>
        <time>2019-12-21T12:48:36.435Z</time>
      </trkpt>
      <trkpt lat="41.260095" lon="1.878025">
        <ele>224.0</ele>
        <time>2019-12-21T12:48:37.418Z</time>
      </trkpt>
      <trkpt lat="41.260095" lon="1.878025">
        <ele>224.0</ele>
        <time>2019-12-21T12:48:38.434Z</time>
      </trkpt>
      <trkpt lat="41.26012833" lon="1.87811833">
        <ele>224.0</ele>
        <time>2019-12-21T12:48:39.401Z</time>
      </trkpt>
      <trkpt lat="41.26012833" lon="1.87811833">
        <ele>224.0</ele>
        <time>2019-12-21T12:48:40.434Z</time>
      </trkpt>
      <trkpt lat="41.260155" lon="1.878215">
        <ele>224.0</ele>
        <time>2019-12-21T12:48:41.407Z</time>
      </trkpt>
      <trkpt lat="41.260155" lon="1.878215">
        <ele>224.0</ele>
        <time>2019-12-21T12:48:42.435Z</time>
      </trkpt>
      <trkpt lat="41.26017167" lon="1.87831333">
        <ele>224.0</ele>
        <time>2019-12-21T12:48:43.403Z</time>
      </trkpt>
      <trkpt lat="41.26017167" lon="1.87831333">
        <ele>224.0</ele>
        <time>2019-12-21T12:48:44.435Z</time>
      </trkpt>
      <trkpt lat="41.26018833" lon="1.87841">
        <ele>224.0</ele>
        <time>2019-12-21T12:48:45.400Z</time>
      </trkpt>
      <trkpt lat="41.26018833" lon="1.87841">
        <ele>224.0</ele>
        <time>2019-12-21T12:48:46.434Z</time>
      </trkpt>
      <trkpt lat="41.26021333" lon="1.878505">
        <ele>224.0</ele>
        <time>2019-12-21T12:48:47.403Z</time>
      </trkpt>
      <trkpt lat="41.26023" lon="1.87855">
        <ele>224.0</ele>
        <time>2019-12-21T12:48:48.407Z</time>
      </trkpt>
      <trkpt lat="41.26023" lon="1.87855">
        <ele>224.0</ele>
        <time>2019-12-21T12:48:49.436Z</time>
      </trkpt>
      <trkpt lat="41.260275" lon="1.87862833">
        <ele>225.0</ele>
        <time>2019-12-21T12:48:50.400Z</time>
      </trkpt>
      <trkpt lat="41.260275" lon="1.87862833">
        <ele>225.0</ele>
        <time>2019-12-21T12:48:51.435Z</time>
      </trkpt>
      <trkpt lat="41.26031833" lon="1.87869833">
        <ele>225.0</ele>
        <time>2019-12-21T12:48:52.400Z</time>
      </trkpt>
      <trkpt lat="41.26031833" lon="1.87869833">
        <ele>225.0</ele>
        <time>2019-12-21T12:48:53.435Z</time>
      </trkpt>
      <trkpt lat="41.26036833" lon="1.87874833">
        <ele>226.0</ele>
        <time>2019-12-21T12:48:54.399Z</time>
      </trkpt>
      <trkpt lat="41.26039333" lon="1.878765">
        <ele>226.0</ele>
        <time>2019-12-21T12:48:55.401Z</time>
      </trkpt>
      <trkpt lat="41.26039333" lon="1.878765">
        <ele>226.0</ele>
        <time>2019-12-21T12:48:56.436Z</time>
      </trkpt>
      <trkpt lat="41.26044333" lon="1.87879833">
        <ele>227.0</ele>
        <time>2019-12-21T12:48:57.401Z</time>
      </trkpt>
      <trkpt lat="41.26044333" lon="1.87879833">
        <ele>227.0</ele>
        <time>2019-12-21T12:48:58.434Z</time>
      </trkpt>
      <trkpt lat="41.2605" lon="1.87883167">
        <ele>227.0</ele>
        <time>2019-12-21T12:48:59.416Z</time>
      </trkpt>
      <trkpt lat="41.2605" lon="1.87883167">
        <ele>227.0</ele>
        <time>2019-12-21T12:49:00.418Z</time>
      </trkpt>
      <trkpt lat="41.260545" lon="1.87888167">
        <ele>228.0</ele>
        <time>2019-12-21T12:49:01.402Z</time>
      </trkpt>
      <trkpt lat="41.260545" lon="1.87888167">
        <ele>228.0</ele>
        <time>2019-12-21T12:49:02.435Z</time>
      </trkpt>
      <trkpt lat="41.260585" lon="1.878945">
        <ele>229.0</ele>
        <time>2019-12-21T12:49:03.399Z</time>
      </trkpt>
      <trkpt lat="41.260585" lon="1.878945">
        <ele>229.0</ele>
        <time>2019-12-21T12:49:04.434Z</time>
      </trkpt>
      <trkpt lat="41.260625" lon="1.87901667">
        <ele>229.0</ele>
        <time>2019-12-21T12:49:05.399Z</time>
      </trkpt>
      <trkpt lat="41.260625" lon="1.87901667">
        <ele>229.0</ele>
        <time>2019-12-21T12:49:06.434Z</time>
      </trkpt>
      <trkpt lat="41.26066667" lon="1.87907833">
        <ele>229.0</ele>
        <time>2019-12-21T12:49:07.417Z</time>
      </trkpt>
      <trkpt lat="41.26068833" lon="1.87910333">
        <ele>229.0</ele>
        <time>2019-12-21T12:49:08.408Z</time>
      </trkpt>
      <trkpt lat="41.26068833" lon="1.87910333">
        <ele>229.0</ele>
        <time>2019-12-21T12:49:09.435Z</time>
      </trkpt>
      <trkpt lat="41.26073667" lon="1.87916">
        <ele>229.0</ele>
        <time>2019-12-21T12:49:10.418Z</time>
      </trkpt>
      <trkpt lat="41.26073667" lon="1.87916">
        <ele>229.0</ele>
        <time>2019-12-21T12:49:11.400Z</time>
      </trkpt>
      <trkpt lat="41.26079333" lon="1.87921667">
        <ele>229.0</ele>
        <time>2019-12-21T12:49:12.397Z</time>
      </trkpt>
      <trkpt lat="41.26079333" lon="1.87921667">
        <ele>229.0</ele>
        <time>2019-12-21T12:49:13.422Z</time>
      </trkpt>
      <trkpt lat="41.26086167" lon="1.87926667">
        <ele>229.0</ele>
        <time>2019-12-21T12:49:14.404Z</time>
      </trkpt>
      <trkpt lat="41.26090167" lon="1.87928167">
        <ele>229.0</ele>
        <time>2019-12-21T12:49:15.427Z</time>
      </trkpt>
      <trkpt lat="41.26090167" lon="1.87928167">
        <ele>229.0</ele>
        <time>2019-12-21T12:49:16.411Z</time>
      </trkpt>
      <trkpt lat="41.26097833" lon="1.87928833">
        <ele>229.0</ele>
        <time>2019-12-21T12:49:17.400Z</time>
      </trkpt>
      <trkpt lat="41.26097833" lon="1.87928833">
        <ele>229.0</ele>
        <time>2019-12-21T12:49:18.435Z</time>
      </trkpt>
      <trkpt lat="41.26104833" lon="1.87928333">
        <ele>229.0</ele>
        <time>2019-12-21T12:49:19.418Z</time>
      </trkpt>
      <trkpt lat="41.26104833" lon="1.87928333">
        <ele>229.0</ele>
        <time>2019-12-21T12:49:20.410Z</time>
      </trkpt>
      <trkpt lat="41.26113" lon="1.87928333">
        <ele>229.0</ele>
        <time>2019-12-21T12:49:21.400Z</time>
      </trkpt>
      <trkpt lat="41.26113" lon="1.87928333">
        <ele>229.0</ele>
        <time>2019-12-21T12:49:22.436Z</time>
      </trkpt>
      <trkpt lat="41.26121833" lon="1.87927333">
        <ele>229.0</ele>
        <time>2019-12-21T12:49:23.401Z</time>
      </trkpt>
      <trkpt lat="41.26121833" lon="1.87927333">
        <ele>229.0</ele>
        <time>2019-12-21T12:49:24.435Z</time>
      </trkpt>
      <trkpt lat="41.26130667" lon="1.87926667">
        <ele>228.0</ele>
        <time>2019-12-21T12:49:25.417Z</time>
      </trkpt>
      <trkpt lat="41.26130667" lon="1.87926667">
        <ele>228.0</ele>
        <time>2019-12-21T12:49:26.400Z</time>
      </trkpt>
      <trkpt lat="41.261395" lon="1.87929167">
        <ele>228.0</ele>
        <time>2019-12-21T12:49:27.400Z</time>
      </trkpt>
      <trkpt lat="41.261395" lon="1.87929167">
        <ele>228.0</ele>
        <time>2019-12-21T12:49:28.434Z</time>
      </trkpt>
      <trkpt lat="41.26147667" lon="1.87936333">
        <ele>228.0</ele>
        <time>2019-12-21T12:49:29.400Z</time>
      </trkpt>
      <trkpt lat="41.26147667" lon="1.87936333">
        <ele>228.0</ele>
        <time>2019-12-21T12:49:30.435Z</time>
      </trkpt>
      <trkpt lat="41.26155" lon="1.87946333">
        <ele>227.0</ele>
        <time>2019-12-21T12:49:31.417Z</time>
      </trkpt>
      <trkpt lat="41.26155" lon="1.87946333">
        <ele>227.0</ele>
        <time>2019-12-21T12:49:32.401Z</time>
      </trkpt>
      <trkpt lat="41.26161" lon="1.87957167">
        <ele>227.0</ele>
        <time>2019-12-21T12:49:33.405Z</time>
      </trkpt>
      <trkpt lat="41.26164" lon="1.87962167">
        <ele>226.0</ele>
        <time>2019-12-21T12:49:34.398Z</time>
      </trkpt>
      <trkpt lat="41.26164" lon="1.87962167">
        <ele>226.0</ele>
        <time>2019-12-21T12:49:35.435Z</time>
      </trkpt>
      <trkpt lat="41.26169667" lon="1.87972">
        <ele>226.0</ele>
        <time>2019-12-21T12:49:36.400Z</time>
      </trkpt>
      <trkpt lat="41.261725" lon="1.87976833">
        <ele>226.0</ele>
        <time>2019-12-21T12:49:37.402Z</time>
      </trkpt>
      <trkpt lat="41.261725" lon="1.87976833">
        <ele>226.0</ele>
        <time>2019-12-21T12:49:38.433Z</time>
      </trkpt>
      <trkpt lat="41.26178" lon="1.87986667">
        <ele>226.0</ele>
        <time>2019-12-21T12:49:39.416Z</time>
      </trkpt>
      <trkpt lat="41.26178" lon="1.87986667">
        <ele>226.0</ele>
        <time>2019-12-21T12:49:40.400Z</time>
      </trkpt>
      <trkpt lat="41.26183667" lon="1.879965">
        <ele>226.0</ele>
        <time>2019-12-21T12:49:41.412Z</time>
      </trkpt>
      <trkpt lat="41.26183667" lon="1.879965">
        <ele>226.0</ele>
        <time>2019-12-21T12:49:42.401Z</time>
      </trkpt>
      <trkpt lat="41.26189" lon="1.88006">
        <ele>226.0</ele>
        <time>2019-12-21T12:49:43.414Z</time>
      </trkpt>
      <trkpt lat="41.26189" lon="1.88006">
        <ele>226.0</ele>
        <time>2019-12-21T12:49:44.397Z</time>
      </trkpt>
      <trkpt lat="41.26193833" lon="1.88015">
        <ele>226.0</ele>
        <time>2019-12-21T12:49:45.400Z</time>
      </trkpt>
      <trkpt lat="41.26193833" lon="1.88015">
        <ele>226.0</ele>
        <time>2019-12-21T12:49:46.435Z</time>
      </trkpt>
      <trkpt lat="41.26198667" lon="1.880235">
        <ele>226.0</ele>
        <time>2019-12-21T12:49:47.417Z</time>
      </trkpt>
      <trkpt lat="41.26201" lon="1.880275">
        <ele>226.0</ele>
        <time>2019-12-21T12:49:48.434Z</time>
      </trkpt>
      <trkpt lat="41.26201" lon="1.880275">
        <ele>226.0</ele>
        <time>2019-12-21T12:49:49.416Z</time>
      </trkpt>
      <trkpt lat="41.26205" lon="1.88034833">
        <ele>226.0</ele>
        <time>2019-12-21T12:49:50.400Z</time>
      </trkpt>
      <trkpt lat="41.26206833" lon="1.880385">
        <ele>227.0</ele>
        <time>2019-12-21T12:49:51.400Z</time>
      </trkpt>
      <trkpt lat="41.262085" lon="1.88041833">
        <ele>227.0</ele>
        <time>2019-12-21T12:49:52.400Z</time>
      </trkpt>
      <trkpt lat="41.262085" lon="1.88041833">
        <ele>227.0</ele>
        <time>2019-12-21T12:49:53.435Z</time>
      </trkpt>
      <trkpt lat="41.26212" lon="1.88048">
        <ele>227.0</ele>
        <time>2019-12-21T12:49:54.400Z</time>
      </trkpt>
      <trkpt lat="41.26213833" lon="1.88051">
        <ele>227.0</ele>
        <time>2019-12-21T12:49:55.401Z</time>
      </trkpt>
      <trkpt lat="41.26213833" lon="1.88051">
        <ele>227.0</ele>
        <time>2019-12-21T12:49:56.435Z</time>
      </trkpt>
      <trkpt lat="41.26217333" lon="1.88057167">
        <ele>227.0</ele>
        <time>2019-12-21T12:49:57.398Z</time>
      </trkpt>
      <trkpt lat="41.26217333" lon="1.88057167">
        <ele>227.0</ele>
        <time>2019-12-21T12:49:58.400Z</time>
      </trkpt>
      <trkpt lat="41.262205" lon="1.88063">
        <ele>227.0</ele>
        <time>2019-12-21T12:49:59.400Z</time>
      </trkpt>
      <trkpt lat="41.26222" lon="1.88066">
        <ele>227.0</ele>
        <time>2019-12-21T12:50:00.424Z</time>
      </trkpt>
      <trkpt lat="41.26223667" lon="1.88068667">
        <ele>228.0</ele>
        <time>2019-12-21T12:50:01.421Z</time>
      </trkpt>
      <trkpt lat="41.26223667" lon="1.88068667">
        <ele>228.0</ele>
        <time>2019-12-21T12:50:02.428Z</time>
      </trkpt>
      <trkpt lat="41.26226833" lon="1.88074">
        <ele>228.0</ele>
        <time>2019-12-21T12:50:03.405Z</time>
      </trkpt>
      <trkpt lat="41.262285" lon="1.88076667">
        <ele>228.0</ele>
        <time>2019-12-21T12:50:04.397Z</time>
      </trkpt>
      <trkpt lat="41.262285" lon="1.88076667">
        <ele>228.0</ele>
        <time>2019-12-21T12:50:05.426Z</time>
      </trkpt>
      <trkpt lat="41.262315" lon="1.88083">
        <ele>228.0</ele>
        <time>2019-12-21T12:50:06.415Z</time>
      </trkpt>
      <trkpt lat="41.26233" lon="1.88086167">
        <ele>228.0</ele>
        <time>2019-12-21T12:50:07.425Z</time>
      </trkpt>
      <trkpt lat="41.26233" lon="1.88086167">
        <ele>228.0</ele>
        <time>2019-12-21T12:50:08.419Z</time>
      </trkpt>
      <trkpt lat="41.26235833" lon="1.88092167">
        <ele>228.0</ele>
        <time>2019-12-21T12:50:09.408Z</time>
      </trkpt>
      <trkpt lat="41.26237333" lon="1.88095">
        <ele>228.0</ele>
        <time>2019-12-21T12:50:10.405Z</time>
      </trkpt>
      <trkpt lat="41.26238833" lon="1.88097833">
        <ele>228.0</ele>
        <time>2019-12-21T12:50:11.404Z</time>
      </trkpt>
      <trkpt lat="41.26238833" lon="1.88097833">
        <ele>228.0</ele>
        <time>2019-12-21T12:50:12.433Z</time>
      </trkpt>
      <trkpt lat="41.26241333" lon="1.881035">
        <ele>229.0</ele>
        <time>2019-12-21T12:50:13.431Z</time>
      </trkpt>
      <trkpt lat="41.26241333" lon="1.881035">
        <ele>229.0</ele>
        <time>2019-12-21T12:50:14.429Z</time>
      </trkpt>
      <trkpt lat="41.26243833" lon="1.88109167">
        <ele>229.0</ele>
        <time>2019-12-21T12:50:15.403Z</time>
      </trkpt>
      <trkpt lat="41.26245167" lon="1.88111833">
        <ele>229.0</ele>
        <time>2019-12-21T12:50:16.405Z</time>
      </trkpt>
      <trkpt lat="41.26245167" lon="1.88111833">
        <ele>229.0</ele>
        <time>2019-12-21T12:50:17.413Z</time>
      </trkpt>
      <trkpt lat="41.26248" lon="1.88116833">
        <ele>230.0</ele>
        <time>2019-12-21T12:50:18.408Z</time>
      </trkpt>
      <trkpt lat="41.26249333" lon="1.88119667">
        <ele>230.0</ele>
        <time>2019-12-21T12:50:19.404Z</time>
      </trkpt>
      <trkpt lat="41.262505" lon="1.881225">
        <ele>230.0</ele>
        <time>2019-12-21T12:50:20.400Z</time>
      </trkpt>
      <trkpt lat="41.262505" lon="1.881225">
        <ele>230.0</ele>
        <time>2019-12-21T12:50:21.436Z</time>
      </trkpt>
      <trkpt lat="41.262525" lon="1.88127333">
        <ele>231.0</ele>
        <time>2019-12-21T12:50:22.401Z</time>
      </trkpt>
      <trkpt lat="41.262525" lon="1.88127333">
        <ele>231.0</ele>
        <time>2019-12-21T12:50:23.435Z</time>
      </trkpt>
      <trkpt lat="41.26254167" lon="1.881315">
        <ele>231.0</ele>
        <time>2019-12-21T12:50:24.417Z</time>
      </trkpt>
      <trkpt lat="41.26255" lon="1.88133833">
        <ele>231.0</ele>
        <time>2019-12-21T12:50:25.402Z</time>
      </trkpt>
      <trkpt lat="41.26255" lon="1.88133833">
        <ele>231.0</ele>
        <time>2019-12-21T12:50:26.435Z</time>
      </trkpt>
      <trkpt lat="41.26257167" lon="1.88139">
        <ele>232.0</ele>
        <time>2019-12-21T12:50:27.418Z</time>
      </trkpt>
      <trkpt lat="41.26257167" lon="1.88139">
        <ele>232.0</ele>
        <time>2019-12-21T12:50:28.405Z</time>
      </trkpt>
      <trkpt lat="41.262595" lon="1.88144">
        <ele>232.0</ele>
        <time>2019-12-21T12:50:29.400Z</time>
      </trkpt>
      <trkpt lat="41.26260667" lon="1.88146333">
        <ele>232.0</ele>
        <time>2019-12-21T12:50:30.397Z</time>
      </trkpt>
      <trkpt lat="41.26262" lon="1.88149167">
        <ele>232.0</ele>
        <time>2019-12-21T12:50:31.402Z</time>
      </trkpt>
      <trkpt lat="41.26262" lon="1.88149167">
        <ele>232.0</ele>
        <time>2019-12-21T12:50:32.412Z</time>
      </trkpt>
      <trkpt lat="41.26264333" lon="1.88154">
        <ele>232.0</ele>
        <time>2019-12-21T12:50:33.398Z</time>
      </trkpt>
      <trkpt lat="41.26264333" lon="1.88154">
        <ele>232.0</ele>
        <time>2019-12-21T12:50:34.413Z</time>
      </trkpt>
      <trkpt lat="41.26266167" lon="1.88158667">
        <ele>232.0</ele>
        <time>2019-12-21T12:50:35.400Z</time>
      </trkpt>
      <trkpt lat="41.26266167" lon="1.88158667">
        <ele>232.0</ele>
        <time>2019-12-21T12:50:36.436Z</time>
      </trkpt>
      <trkpt lat="41.26268" lon="1.88163">
        <ele>233.0</ele>
        <time>2019-12-21T12:50:37.418Z</time>
      </trkpt>
      <trkpt lat="41.26268" lon="1.88163">
        <ele>233.0</ele>
        <time>2019-12-21T12:50:38.401Z</time>
      </trkpt>
      <trkpt lat="41.26270667" lon="1.88168167">
        <ele>233.0</ele>
        <time>2019-12-21T12:50:39.415Z</time>
      </trkpt>
      <trkpt lat="41.26270667" lon="1.88168167">
        <ele>233.0</ele>
        <time>2019-12-21T12:50:40.397Z</time>
      </trkpt>
      <trkpt lat="41.26273333" lon="1.881735">
        <ele>233.0</ele>
        <time>2019-12-21T12:50:41.413Z</time>
      </trkpt>
      <trkpt lat="41.26273333" lon="1.881735">
        <ele>233.0</ele>
        <time>2019-12-21T12:50:42.399Z</time>
      </trkpt>
      <trkpt lat="41.262755" lon="1.88178667">
        <ele>233.0</ele>
        <time>2019-12-21T12:50:43.423Z</time>
      </trkpt>
      <trkpt lat="41.262755" lon="1.88178667">
        <ele>233.0</ele>
        <time>2019-12-21T12:50:44.419Z</time>
      </trkpt>
      <trkpt lat="41.262775" lon="1.881835">
        <ele>233.0</ele>
        <time>2019-12-21T12:50:45.402Z</time>
      </trkpt>
      <trkpt lat="41.262775" lon="1.881835">
        <ele>233.0</ele>
        <time>2019-12-21T12:50:46.435Z</time>
      </trkpt>
      <trkpt lat="41.26279333" lon="1.88188">
        <ele>234.0</ele>
        <time>2019-12-21T12:50:47.397Z</time>
      </trkpt>
      <trkpt lat="41.26279333" lon="1.88188">
        <ele>234.0</ele>
        <time>2019-12-21T12:50:48.421Z</time>
      </trkpt>
      <trkpt lat="41.26280833" lon="1.88192833">
        <ele>234.0</ele>
        <time>2019-12-21T12:50:49.410Z</time>
      </trkpt>
      <trkpt lat="41.26280833" lon="1.88192833">
        <ele>234.0</ele>
        <time>2019-12-21T12:50:50.435Z</time>
      </trkpt>
      <trkpt lat="41.26282" lon="1.88197667">
        <ele>234.0</ele>
        <time>2019-12-21T12:50:51.402Z</time>
      </trkpt>
      <trkpt lat="41.26282" lon="1.88197667">
        <ele>234.0</ele>
        <time>2019-12-21T12:50:52.435Z</time>
      </trkpt>
      <trkpt lat="41.26283167" lon="1.88202333">
        <ele>234.0</ele>
        <time>2019-12-21T12:50:53.417Z</time>
      </trkpt>
      <trkpt lat="41.26283167" lon="1.88202333">
        <ele>234.0</ele>
        <time>2019-12-21T12:50:54.401Z</time>
      </trkpt>
      <trkpt lat="41.26282167" lon="1.88207167">
        <ele>234.0</ele>
        <time>2019-12-21T12:50:55.400Z</time>
      </trkpt>
      <trkpt lat="41.262815" lon="1.88209167">
        <ele>235.0</ele>
        <time>2019-12-21T12:50:56.400Z</time>
      </trkpt>
      <trkpt lat="41.262815" lon="1.88209167">
        <ele>235.0</ele>
        <time>2019-12-21T12:50:57.436Z</time>
      </trkpt>
      <trkpt lat="41.26279833" lon="1.88214167">
        <ele>235.0</ele>
        <time>2019-12-21T12:50:58.400Z</time>
      </trkpt>
      <trkpt lat="41.26279833" lon="1.88214167">
        <ele>235.0</ele>
        <time>2019-12-21T12:50:59.435Z</time>
      </trkpt>
      <trkpt lat="41.26278333" lon="1.88219333">
        <ele>235.0</ele>
        <time>2019-12-21T12:51:00.421Z</time>
      </trkpt>
      <trkpt lat="41.26277833" lon="1.88222">
        <ele>235.0</ele>
        <time>2019-12-21T12:51:01.404Z</time>
      </trkpt>
      <trkpt lat="41.26277833" lon="1.88222">
        <ele>235.0</ele>
        <time>2019-12-21T12:51:02.436Z</time>
      </trkpt>
      <trkpt lat="41.262765" lon="1.88227">
        <ele>236.0</ele>
        <time>2019-12-21T12:51:03.400Z</time>
      </trkpt>
      <trkpt lat="41.262765" lon="1.88227">
        <ele>236.0</ele>
        <time>2019-12-21T12:51:04.435Z</time>
      </trkpt>
      <trkpt lat="41.26275" lon="1.88232333">
        <ele>236.0</ele>
        <time>2019-12-21T12:51:05.417Z</time>
      </trkpt>
      <trkpt lat="41.26274333" lon="1.88235">
        <ele>236.0</ele>
        <time>2019-12-21T12:51:06.402Z</time>
      </trkpt>
      <trkpt lat="41.26274333" lon="1.88235">
        <ele>236.0</ele>
        <time>2019-12-21T12:51:07.397Z</time>
      </trkpt>
      <trkpt lat="41.26273167" lon="1.882405">
        <ele>237.0</ele>
        <time>2019-12-21T12:51:08.421Z</time>
      </trkpt>
      <trkpt lat="41.26273167" lon="1.882405">
        <ele>237.0</ele>
        <time>2019-12-21T12:51:09.411Z</time>
      </trkpt>
      <trkpt lat="41.26272667" lon="1.88246167">
        <ele>238.0</ele>
        <time>2019-12-21T12:51:10.400Z</time>
      </trkpt>
      <trkpt lat="41.26272667" lon="1.88246167">
        <ele>238.0</ele>
        <time>2019-12-21T12:51:11.435Z</time>
      </trkpt>
      <trkpt lat="41.26271667" lon="1.88251667">
        <ele>238.0</ele>
        <time>2019-12-21T12:51:12.403Z</time>
      </trkpt>
      <trkpt lat="41.26271167" lon="1.88254667">
        <ele>238.0</ele>
        <time>2019-12-21T12:51:13.402Z</time>
      </trkpt>
      <trkpt lat="41.26271167" lon="1.88254667">
        <ele>238.0</ele>
        <time>2019-12-21T12:51:14.435Z</time>
      </trkpt>
      <trkpt lat="41.26269833" lon="1.882605">
        <ele>239.0</ele>
        <time>2019-12-21T12:51:15.403Z</time>
      </trkpt>
      <trkpt lat="41.26269833" lon="1.882605">
        <ele>239.0</ele>
        <time>2019-12-21T12:51:16.435Z</time>
      </trkpt>
      <trkpt lat="41.26268833" lon="1.88265333">
        <ele>239.0</ele>
        <time>2019-12-21T12:51:17.421Z</time>
      </trkpt>
      <trkpt lat="41.26268833" lon="1.88265333">
        <ele>239.0</ele>
        <time>2019-12-21T12:51:18.404Z</time>
      </trkpt>
      <trkpt lat="41.26268167" lon="1.882705">
        <ele>240.0</ele>
        <time>2019-12-21T12:51:19.401Z</time>
      </trkpt>
      <trkpt lat="41.26267333" lon="1.88273167">
        <ele>240.0</ele>
        <time>2019-12-21T12:51:20.401Z</time>
      </trkpt>
      <trkpt lat="41.26267333" lon="1.88273167">
        <ele>240.0</ele>
        <time>2019-12-21T12:51:21.436Z</time>
      </trkpt>
      <trkpt lat="41.26266" lon="1.882785">
        <ele>240.0</ele>
        <time>2019-12-21T12:51:22.401Z</time>
      </trkpt>
      <trkpt lat="41.26266" lon="1.882785">
        <ele>240.0</ele>
        <time>2019-12-21T12:51:23.435Z</time>
      </trkpt>
      <trkpt lat="41.26264833" lon="1.88283833">
        <ele>241.0</ele>
        <time>2019-12-21T12:51:24.401Z</time>
      </trkpt>
      <trkpt lat="41.26264333" lon="1.88286667">
        <ele>241.0</ele>
        <time>2019-12-21T12:51:25.403Z</time>
      </trkpt>
      <trkpt lat="41.26264333" lon="1.88286667">
        <ele>241.0</ele>
        <time>2019-12-21T12:51:26.436Z</time>
      </trkpt>
      <trkpt lat="41.26263167" lon="1.882925">
        <ele>241.0</ele>
        <time>2019-12-21T12:51:27.420Z</time>
      </trkpt>
      <trkpt lat="41.26263167" lon="1.882925">
        <ele>241.0</ele>
        <time>2019-12-21T12:51:28.402Z</time>
      </trkpt>
      <trkpt lat="41.26262667" lon="1.88298333">
        <ele>242.0</ele>
        <time>2019-12-21T12:51:29.434Z</time>
      </trkpt>
      <trkpt lat="41.26262667" lon="1.88301167">
        <ele>242.0</ele>
        <time>2019-12-21T12:51:30.417Z</time>
      </trkpt>
      <trkpt lat="41.26262667" lon="1.88303833">
        <ele>242.0</ele>
        <time>2019-12-21T12:51:31.403Z</time>
      </trkpt>
      <trkpt lat="41.26262667" lon="1.88303833">
        <ele>242.0</ele>
        <time>2019-12-21T12:51:32.400Z</time>
      </trkpt>
      <trkpt lat="41.26263167" lon="1.88309167">
        <ele>243.0</ele>
        <time>2019-12-21T12:51:33.401Z</time>
      </trkpt>
      <trkpt lat="41.26263167" lon="1.88309167">
        <ele>243.0</ele>
        <time>2019-12-21T12:51:34.436Z</time>
      </trkpt>
      <trkpt lat="41.26263833" lon="1.883145">
        <ele>243.0</ele>
        <time>2019-12-21T12:51:35.400Z</time>
      </trkpt>
      <trkpt lat="41.26263833" lon="1.883145">
        <ele>243.0</ele>
        <time>2019-12-21T12:51:36.436Z</time>
      </trkpt>
      <trkpt lat="41.26264833" lon="1.88319833">
        <ele>244.0</ele>
        <time>2019-12-21T12:51:37.418Z</time>
      </trkpt>
      <trkpt lat="41.26264833" lon="1.88319833">
        <ele>244.0</ele>
        <time>2019-12-21T12:51:38.414Z</time>
      </trkpt>
      <trkpt lat="41.26265667" lon="1.88325333">
        <ele>244.0</ele>
        <time>2019-12-21T12:51:39.418Z</time>
      </trkpt>
      <trkpt lat="41.26265667" lon="1.88325333">
        <ele>244.0</ele>
        <time>2019-12-21T12:51:40.400Z</time>
      </trkpt>
      <trkpt lat="41.262665" lon="1.88330333">
        <ele>245.0</ele>
        <time>2019-12-21T12:51:41.411Z</time>
      </trkpt>
      <trkpt lat="41.262665" lon="1.88330333">
        <ele>245.0</ele>
        <time>2019-12-21T12:51:42.400Z</time>
      </trkpt>
      <trkpt lat="41.26267667" lon="1.883355">
        <ele>245.0</ele>
        <time>2019-12-21T12:51:43.403Z</time>
      </trkpt>
      <trkpt lat="41.26267667" lon="1.883355">
        <ele>245.0</ele>
        <time>2019-12-21T12:51:44.400Z</time>
      </trkpt>
      <trkpt lat="41.26269" lon="1.88340833">
        <ele>245.0</ele>
        <time>2019-12-21T12:51:45.400Z</time>
      </trkpt>
      <trkpt lat="41.26269" lon="1.88340833">
        <ele>245.0</ele>
        <time>2019-12-21T12:51:46.435Z</time>
      </trkpt>
      <trkpt lat="41.2627" lon="1.88346167">
        <ele>246.0</ele>
        <time>2019-12-21T12:51:47.402Z</time>
      </trkpt>
      <trkpt lat="41.2627" lon="1.88346167">
        <ele>246.0</ele>
        <time>2019-12-21T12:51:48.435Z</time>
      </trkpt>
      <trkpt lat="41.26271167" lon="1.88351333">
        <ele>246.0</ele>
        <time>2019-12-21T12:51:49.403Z</time>
      </trkpt>
      <trkpt lat="41.26271167" lon="1.88351333">
        <ele>246.0</ele>
        <time>2019-12-21T12:51:50.436Z</time>
      </trkpt>
      <trkpt lat="41.26272333" lon="1.883565">
        <ele>246.0</ele>
        <time>2019-12-21T12:51:51.401Z</time>
      </trkpt>
      <trkpt lat="41.26272333" lon="1.883565">
        <ele>246.0</ele>
        <time>2019-12-21T12:51:52.397Z</time>
      </trkpt>
      <trkpt lat="41.26273333" lon="1.88361833">
        <ele>247.0</ele>
        <time>2019-12-21T12:51:53.401Z</time>
      </trkpt>
      <trkpt lat="41.26273333" lon="1.88361833">
        <ele>247.0</ele>
        <time>2019-12-21T12:51:54.436Z</time>
      </trkpt>
      <trkpt lat="41.262745" lon="1.88366833">
        <ele>247.0</ele>
        <time>2019-12-21T12:51:55.419Z</time>
      </trkpt>
      <trkpt lat="41.262745" lon="1.88366833">
        <ele>247.0</ele>
        <time>2019-12-21T12:51:56.401Z</time>
      </trkpt>
      <trkpt lat="41.262755" lon="1.88371667">
        <ele>247.0</ele>
        <time>2019-12-21T12:51:57.398Z</time>
      </trkpt>
      <trkpt lat="41.262755" lon="1.88371667">
        <ele>247.0</ele>
        <time>2019-12-21T12:51:58.436Z</time>
      </trkpt>
      <trkpt lat="41.262765" lon="1.88376">
        <ele>248.0</ele>
        <time>2019-12-21T12:51:59.405Z</time>
      </trkpt>
      <trkpt lat="41.262765" lon="1.88376">
        <ele>248.0</ele>
        <time>2019-12-21T12:52:00.410Z</time>
      </trkpt>
      <trkpt lat="41.262775" lon="1.883805">
        <ele>249.0</ele>
        <time>2019-12-21T12:52:01.403Z</time>
      </trkpt>
      <trkpt lat="41.262775" lon="1.883805">
        <ele>249.0</ele>
        <time>2019-12-21T12:52:02.436Z</time>
      </trkpt>
      <trkpt lat="41.26279167" lon="1.883855">
        <ele>249.0</ele>
        <time>2019-12-21T12:52:03.400Z</time>
      </trkpt>
      <trkpt lat="41.26280167" lon="1.88387833">
        <ele>249.0</ele>
        <time>2019-12-21T12:52:04.401Z</time>
      </trkpt>
      <trkpt lat="41.26280167" lon="1.88387833">
        <ele>249.0</ele>
        <time>2019-12-21T12:52:05.436Z</time>
      </trkpt>
      <trkpt lat="41.26282667" lon="1.88392">
        <ele>250.0</ele>
        <time>2019-12-21T12:52:06.400Z</time>
      </trkpt>
      <trkpt lat="41.26283667" lon="1.88394">
        <ele>250.0</ele>
        <time>2019-12-21T12:52:07.403Z</time>
      </trkpt>
      <trkpt lat="41.26283667" lon="1.88394">
        <ele>250.0</ele>
        <time>2019-12-21T12:52:08.399Z</time>
      </trkpt>
      <trkpt lat="41.26285333" lon="1.88398333">
        <ele>250.0</ele>
        <time>2019-12-21T12:52:09.405Z</time>
      </trkpt>
      <trkpt lat="41.26285333" lon="1.88398333">
        <ele>250.0</ele>
        <time>2019-12-21T12:52:10.436Z</time>
      </trkpt>
      <trkpt lat="41.26287167" lon="1.88402167">
        <ele>251.0</ele>
        <time>2019-12-21T12:52:11.418Z</time>
      </trkpt>
      <trkpt lat="41.26288167" lon="1.88404">
        <ele>251.0</ele>
        <time>2019-12-21T12:52:12.402Z</time>
      </trkpt>
      <trkpt lat="41.26288167" lon="1.88404">
        <ele>251.0</ele>
        <time>2019-12-21T12:52:13.399Z</time>
      </trkpt>
      <trkpt lat="41.26290167" lon="1.884075">
        <ele>251.0</ele>
        <time>2019-12-21T12:52:14.400Z</time>
      </trkpt>
      <trkpt lat="41.26291167" lon="1.88409167">
        <ele>252.0</ele>
        <time>2019-12-21T12:52:15.401Z</time>
      </trkpt>
      <trkpt lat="41.26291167" lon="1.88409167">
        <ele>252.0</ele>
        <time>2019-12-21T12:52:16.436Z</time>
      </trkpt>
      <trkpt lat="41.26293" lon="1.88412667">
        <ele>252.0</ele>
        <time>2019-12-21T12:52:17.418Z</time>
      </trkpt>
      <trkpt lat="41.26293" lon="1.88412667">
        <ele>252.0</ele>
        <time>2019-12-21T12:52:18.402Z</time>
      </trkpt>
      <trkpt lat="41.26295" lon="1.88416333">
        <ele>253.0</ele>
        <time>2019-12-21T12:52:19.406Z</time>
      </trkpt>
      <trkpt lat="41.26295" lon="1.88416333">
        <ele>253.0</ele>
        <time>2019-12-21T12:52:20.417Z</time>
      </trkpt>
      <trkpt lat="41.26297667" lon="1.884195">
        <ele>253.0</ele>
        <time>2019-12-21T12:52:21.402Z</time>
      </trkpt>
      <trkpt lat="41.26297667" lon="1.884195">
        <ele>253.0</ele>
        <time>2019-12-21T12:52:22.436Z</time>
      </trkpt>
      <trkpt lat="41.26300333" lon="1.88421">
        <ele>254.0</ele>
        <time>2019-12-21T12:52:23.401Z</time>
      </trkpt>
      <trkpt lat="41.26300333" lon="1.88421">
        <ele>254.0</ele>
        <time>2019-12-21T12:52:24.436Z</time>
      </trkpt>
      <trkpt lat="41.26303167" lon="1.88420833">
        <ele>255.0</ele>
        <time>2019-12-21T12:52:25.422Z</time>
      </trkpt>
      <trkpt lat="41.26303167" lon="1.88420833">
        <ele>255.0</ele>
        <time>2019-12-21T12:52:26.412Z</time>
      </trkpt>
      <trkpt lat="41.26306" lon="1.88419833">
        <ele>256.0</ele>
        <time>2019-12-21T12:52:27.401Z</time>
      </trkpt>
      <trkpt lat="41.26306" lon="1.88419833">
        <ele>256.0</ele>
        <time>2019-12-21T12:52:28.436Z</time>
      </trkpt>
      <trkpt lat="41.26308667" lon="1.884175">
        <ele>256.0</ele>
        <time>2019-12-21T12:52:29.418Z</time>
      </trkpt>
      <trkpt lat="41.26309833" lon="1.88416">
        <ele>257.0</ele>
        <time>2019-12-21T12:52:30.403Z</time>
      </trkpt>
      <trkpt lat="41.26309833" lon="1.88416">
        <ele>257.0</ele>
        <time>2019-12-21T12:52:31.399Z</time>
      </trkpt>
      <trkpt lat="41.263125" lon="1.88413167">
        <ele>257.0</ele>
        <time>2019-12-21T12:52:32.401Z</time>
      </trkpt>
      <trkpt lat="41.26314" lon="1.88411667">
        <ele>257.0</ele>
        <time>2019-12-21T12:52:33.404Z</time>
      </trkpt>
      <trkpt lat="41.26314" lon="1.88411667">
        <ele>257.0</ele>
        <time>2019-12-21T12:52:34.436Z</time>
      </trkpt>
      <trkpt lat="41.263165" lon="1.88409">
        <ele>257.0</ele>
        <time>2019-12-21T12:52:35.401Z</time>
      </trkpt>
      <trkpt lat="41.263165" lon="1.88409">
        <ele>257.0</ele>
        <time>2019-12-21T12:52:36.436Z</time>
      </trkpt>
      <trkpt lat="41.26319333" lon="1.884065">
        <ele>258.0</ele>
        <time>2019-12-21T12:52:37.419Z</time>
      </trkpt>
      <trkpt lat="41.26320667" lon="1.88405833">
        <ele>258.0</ele>
        <time>2019-12-21T12:52:38.413Z</time>
      </trkpt>
      <trkpt lat="41.26320667" lon="1.88405833">
        <ele>258.0</ele>
        <time>2019-12-21T12:52:39.436Z</time>
      </trkpt>
      <trkpt lat="41.26324167" lon="1.884045">
        <ele>258.0</ele>
        <time>2019-12-21T12:52:40.401Z</time>
      </trkpt>
      <trkpt lat="41.26324167" lon="1.884045">
        <ele>258.0</ele>
        <time>2019-12-21T12:52:41.437Z</time>
      </trkpt>
      <trkpt lat="41.26327833" lon="1.88404167">
        <ele>259.0</ele>
        <time>2019-12-21T12:52:42.401Z</time>
      </trkpt>
      <trkpt lat="41.263295" lon="1.88404167">
        <ele>259.0</ele>
        <time>2019-12-21T12:52:43.403Z</time>
      </trkpt>
      <trkpt lat="41.263295" lon="1.88404167">
        <ele>259.0</ele>
        <time>2019-12-21T12:52:44.435Z</time>
      </trkpt>
      <trkpt lat="41.26333167" lon="1.88404833">
        <ele>259.0</ele>
        <time>2019-12-21T12:52:45.417Z</time>
      </trkpt>
      <trkpt lat="41.26333167" lon="1.88404833">
        <ele>259.0</ele>
        <time>2019-12-21T12:52:46.400Z</time>
      </trkpt>
      <trkpt lat="41.263365" lon="1.88405667">
        <ele>259.0</ele>
        <time>2019-12-21T12:52:47.401Z</time>
      </trkpt>
      <trkpt lat="41.263365" lon="1.88405667">
        <ele>259.0</ele>
        <time>2019-12-21T12:52:48.436Z</time>
      </trkpt>
      <trkpt lat="41.26339833" lon="1.88407167">
        <ele>260.0</ele>
        <time>2019-12-21T12:52:49.418Z</time>
      </trkpt>
      <trkpt lat="41.26339833" lon="1.88407167">
        <ele>260.0</ele>
        <time>2019-12-21T12:52:50.419Z</time>
      </trkpt>
      <trkpt lat="41.26343" lon="1.884085">
        <ele>260.0</ele>
        <time>2019-12-21T12:52:51.402Z</time>
      </trkpt>
      <trkpt lat="41.26343" lon="1.884085">
        <ele>260.0</ele>
        <time>2019-12-21T12:52:52.436Z</time>
      </trkpt>
      <trkpt lat="41.26345833" lon="1.884105">
        <ele>261.0</ele>
        <time>2019-12-21T12:52:53.401Z</time>
      </trkpt>
      <trkpt lat="41.26345833" lon="1.884105">
        <ele>261.0</ele>
        <time>2019-12-21T12:52:54.436Z</time>
      </trkpt>
      <trkpt lat="41.26349167" lon="1.88412333">
        <ele>261.0</ele>
        <time>2019-12-21T12:52:55.419Z</time>
      </trkpt>
      <trkpt lat="41.26349167" lon="1.88412333">
        <ele>261.0</ele>
        <time>2019-12-21T12:52:56.401Z</time>
      </trkpt>
      <trkpt lat="41.26352333" lon="1.88413833">
        <ele>262.0</ele>
        <time>2019-12-21T12:52:57.402Z</time>
      </trkpt>
      <trkpt lat="41.26352333" lon="1.88413833">
        <ele>262.0</ele>
        <time>2019-12-21T12:52:58.437Z</time>
      </trkpt>
      <trkpt lat="41.26355333" lon="1.884155">
        <ele>262.0</ele>
        <time>2019-12-21T12:52:59.401Z</time>
      </trkpt>
      <trkpt lat="41.26355333" lon="1.884155">
        <ele>262.0</ele>
        <time>2019-12-21T12:53:00.410Z</time>
      </trkpt>
      <trkpt lat="41.26357667" lon="1.88417667">
        <ele>263.0</ele>
        <time>2019-12-21T12:53:01.403Z</time>
      </trkpt>
      <trkpt lat="41.26357667" lon="1.88417667">
        <ele>263.0</ele>
        <time>2019-12-21T12:53:02.436Z</time>
      </trkpt>
      <trkpt lat="41.26360333" lon="1.88417833">
        <ele>263.0</ele>
        <time>2019-12-21T12:53:03.418Z</time>
      </trkpt>
      <trkpt lat="41.263615" lon="1.88418167">
        <ele>263.0</ele>
        <time>2019-12-21T12:53:04.403Z</time>
      </trkpt>
      <trkpt lat="41.263615" lon="1.88418167">
        <ele>263.0</ele>
        <time>2019-12-21T12:53:05.436Z</time>
      </trkpt>
      <trkpt lat="41.26364" lon="1.88420167">
        <ele>264.0</ele>
        <time>2019-12-21T12:53:06.404Z</time>
      </trkpt>
      <trkpt lat="41.26364" lon="1.88420167">
        <ele>264.0</ele>
        <time>2019-12-21T12:53:07.398Z</time>
      </trkpt>
      <trkpt lat="41.26367333" lon="1.88422333">
        <ele>264.0</ele>
        <time>2019-12-21T12:53:08.403Z</time>
      </trkpt>
      <trkpt lat="41.26367333" lon="1.88422333">
        <ele>264.0</ele>
        <time>2019-12-21T12:53:09.436Z</time>
      </trkpt>
      <trkpt lat="41.26371167" lon="1.88423833">
        <ele>264.0</ele>
        <time>2019-12-21T12:53:10.434Z</time>
      </trkpt>
      <trkpt lat="41.26372667" lon="1.88424667">
        <ele>264.0</ele>
        <time>2019-12-21T12:53:11.417Z</time>
      </trkpt>
      <trkpt lat="41.26372667" lon="1.88424667">
        <ele>264.0</ele>
        <time>2019-12-21T12:53:12.403Z</time>
      </trkpt>
      <trkpt lat="41.26376333" lon="1.88426333">
        <ele>265.0</ele>
        <time>2019-12-21T12:53:13.404Z</time>
      </trkpt>
      <trkpt lat="41.26376333" lon="1.88426333">
        <ele>265.0</ele>
        <time>2019-12-21T12:53:14.437Z</time>
      </trkpt>
      <trkpt lat="41.26380333" lon="1.88428333">
        <ele>266.0</ele>
        <time>2019-12-21T12:53:15.402Z</time>
      </trkpt>
      <trkpt lat="41.26380333" lon="1.88428333">
        <ele>266.0</ele>
        <time>2019-12-21T12:53:16.436Z</time>
      </trkpt>
      <trkpt lat="41.263835" lon="1.88431">
        <ele>266.0</ele>
        <time>2019-12-21T12:53:17.419Z</time>
      </trkpt>
      <trkpt lat="41.263835" lon="1.88431">
        <ele>266.0</ele>
        <time>2019-12-21T12:53:18.402Z</time>
      </trkpt>
      <trkpt lat="41.26386833" lon="1.88432833">
        <ele>267.0</ele>
        <time>2019-12-21T12:53:19.404Z</time>
      </trkpt>
      <trkpt lat="41.26386833" lon="1.88432833">
        <ele>267.0</ele>
        <time>2019-12-21T12:53:20.407Z</time>
      </trkpt>
      <trkpt lat="41.263905" lon="1.88433833">
        <ele>267.0</ele>
        <time>2019-12-21T12:53:21.402Z</time>
      </trkpt>
      <trkpt lat="41.263905" lon="1.88433833">
        <ele>267.0</ele>
        <time>2019-12-21T12:53:22.397Z</time>
      </trkpt>
      <trkpt lat="41.26393667" lon="1.88435">
        <ele>267.0</ele>
        <time>2019-12-21T12:53:23.406Z</time>
      </trkpt>
      <trkpt lat="41.26395" lon="1.88435833">
        <ele>267.0</ele>
        <time>2019-12-21T12:53:24.404Z</time>
      </trkpt>
      <trkpt lat="41.26395" lon="1.88435833">
        <ele>267.0</ele>
        <time>2019-12-21T12:53:25.399Z</time>
      </trkpt>
      <trkpt lat="41.26397833" lon="1.88437167">
        <ele>268.0</ele>
        <time>2019-12-21T12:53:26.402Z</time>
      </trkpt>
      <trkpt lat="41.26399333" lon="1.88437833">
        <ele>268.0</ele>
        <time>2019-12-21T12:53:27.402Z</time>
      </trkpt>
      <trkpt lat="41.26399333" lon="1.88437833">
        <ele>268.0</ele>
        <time>2019-12-21T12:53:28.436Z</time>
      </trkpt>
      <trkpt lat="41.264025" lon="1.88439167">
        <ele>268.0</ele>
        <time>2019-12-21T12:53:29.399Z</time>
      </trkpt>
      <trkpt lat="41.264025" lon="1.88439167">
        <ele>268.0</ele>
        <time>2019-12-21T12:53:30.406Z</time>
      </trkpt>
      <trkpt lat="41.26405167" lon="1.88440667">
        <ele>269.0</ele>
        <time>2019-12-21T12:53:31.403Z</time>
      </trkpt>
      <trkpt lat="41.26405167" lon="1.88440667">
        <ele>269.0</ele>
        <time>2019-12-21T12:53:32.397Z</time>
      </trkpt>
      <trkpt lat="41.26408167" lon="1.884425">
        <ele>269.0</ele>
        <time>2019-12-21T12:53:33.402Z</time>
      </trkpt>
      <trkpt lat="41.26408167" lon="1.884425">
        <ele>269.0</ele>
        <time>2019-12-21T12:53:34.436Z</time>
      </trkpt>
      <trkpt lat="41.26411333" lon="1.88444333">
        <ele>270.0</ele>
        <time>2019-12-21T12:53:35.419Z</time>
      </trkpt>
      <trkpt lat="41.26412833" lon="1.88445">
        <ele>270.0</ele>
        <time>2019-12-21T12:53:36.402Z</time>
      </trkpt>
      <trkpt lat="41.264145" lon="1.88445833">
        <ele>270.0</ele>
        <time>2019-12-21T12:53:37.405Z</time>
      </trkpt>
      <trkpt lat="41.264145" lon="1.88445833">
        <ele>270.0</ele>
        <time>2019-12-21T12:53:38.437Z</time>
      </trkpt>
      <trkpt lat="41.26418" lon="1.88447333">
        <ele>270.0</ele>
        <time>2019-12-21T12:53:39.418Z</time>
      </trkpt>
      <trkpt lat="41.26418" lon="1.88447333">
        <ele>270.0</ele>
        <time>2019-12-21T12:53:40.403Z</time>
      </trkpt>
      <trkpt lat="41.26421" lon="1.88449167">
        <ele>271.0</ele>
        <time>2019-12-21T12:53:41.411Z</time>
      </trkpt>
      <trkpt lat="41.26421" lon="1.88449167">
        <ele>271.0</ele>
        <time>2019-12-21T12:53:42.439Z</time>
      </trkpt>
      <trkpt lat="41.26424" lon="1.884505">
        <ele>271.0</ele>
        <time>2019-12-21T12:53:43.403Z</time>
      </trkpt>
      <trkpt lat="41.26424" lon="1.884505">
        <ele>271.0</ele>
        <time>2019-12-21T12:53:44.436Z</time>
      </trkpt>
      <trkpt lat="41.26426833" lon="1.88451667">
        <ele>271.0</ele>
        <time>2019-12-21T12:53:45.410Z</time>
      </trkpt>
      <trkpt lat="41.26426833" lon="1.88451667">
        <ele>271.0</ele>
        <time>2019-12-21T12:53:46.397Z</time>
      </trkpt>
      <trkpt lat="41.26429833" lon="1.88453333">
        <ele>272.0</ele>
        <time>2019-12-21T12:53:47.399Z</time>
      </trkpt>
      <trkpt lat="41.26429833" lon="1.88453333">
        <ele>272.0</ele>
        <time>2019-12-21T12:53:48.399Z</time>
      </trkpt>
      <trkpt lat="41.26433333" lon="1.88454167">
        <ele>272.0</ele>
        <time>2019-12-21T12:53:49.404Z</time>
      </trkpt>
      <trkpt lat="41.26433333" lon="1.88454167">
        <ele>272.0</ele>
        <time>2019-12-21T12:53:50.399Z</time>
      </trkpt>
      <trkpt lat="41.264365" lon="1.884545">
        <ele>273.0</ele>
        <time>2019-12-21T12:53:51.418Z</time>
      </trkpt>
      <trkpt lat="41.264365" lon="1.884545">
        <ele>273.0</ele>
        <time>2019-12-21T12:53:52.402Z</time>
      </trkpt>
      <trkpt lat="41.26439833" lon="1.88455333">
        <ele>273.0</ele>
        <time>2019-12-21T12:53:53.402Z</time>
      </trkpt>
      <trkpt lat="41.26439833" lon="1.88455333">
        <ele>273.0</ele>
        <time>2019-12-21T12:53:54.397Z</time>
      </trkpt>
      <trkpt lat="41.26443" lon="1.88456167">
        <ele>273.0</ele>
        <time>2019-12-21T12:53:55.419Z</time>
      </trkpt>
      <trkpt lat="41.26443" lon="1.88456167">
        <ele>273.0</ele>
        <time>2019-12-21T12:53:56.403Z</time>
      </trkpt>
      <trkpt lat="41.26446" lon="1.88456667">
        <ele>273.0</ele>
        <time>2019-12-21T12:53:57.402Z</time>
      </trkpt>
      <trkpt lat="41.26446" lon="1.88456667">
        <ele>273.0</ele>
        <time>2019-12-21T12:53:58.397Z</time>
      </trkpt>
      <trkpt lat="41.26449333" lon="1.88456833">
        <ele>274.0</ele>
        <time>2019-12-21T12:53:59.401Z</time>
      </trkpt>
      <trkpt lat="41.26451333" lon="1.88456833">
        <ele>274.0</ele>
        <time>2019-12-21T12:54:00.423Z</time>
      </trkpt>
      <trkpt lat="41.26453667" lon="1.88456833">
        <ele>274.0</ele>
        <time>2019-12-21T12:54:01.412Z</time>
      </trkpt>
      <trkpt lat="41.26455833" lon="1.88457">
        <ele>275.0</ele>
        <time>2019-12-21T12:54:02.404Z</time>
      </trkpt>
      <trkpt lat="41.26455833" lon="1.88457">
        <ele>275.0</ele>
        <time>2019-12-21T12:54:03.397Z</time>
      </trkpt>
      <trkpt lat="41.2646" lon="1.884575">
        <ele>275.0</ele>
        <time>2019-12-21T12:54:04.401Z</time>
      </trkpt>
      <trkpt lat="41.26461667" lon="1.88457667">
        <ele>275.0</ele>
        <time>2019-12-21T12:54:05.402Z</time>
      </trkpt>
      <trkpt lat="41.26461667" lon="1.88457667">
        <ele>275.0</ele>
        <time>2019-12-21T12:54:06.436Z</time>
      </trkpt>
      <trkpt lat="41.26465333" lon="1.88457667">
        <ele>275.0</ele>
        <time>2019-12-21T12:54:07.419Z</time>
      </trkpt>
      <trkpt lat="41.26465333" lon="1.88457667">
        <ele>275.0</ele>
        <time>2019-12-21T12:54:08.402Z</time>
      </trkpt>
      <trkpt lat="41.26469167" lon="1.88458167">
        <ele>276.0</ele>
        <time>2019-12-21T12:54:09.402Z</time>
      </trkpt>
      <trkpt lat="41.26469167" lon="1.88458167">
        <ele>276.0</ele>
        <time>2019-12-21T12:54:10.397Z</time>
      </trkpt>
      <trkpt lat="41.26472667" lon="1.88458833">
        <ele>276.0</ele>
        <time>2019-12-21T12:54:11.402Z</time>
      </trkpt>
      <trkpt lat="41.26472667" lon="1.88458833">
        <ele>276.0</ele>
        <time>2019-12-21T12:54:12.437Z</time>
      </trkpt>
      <trkpt lat="41.26476167" lon="1.884595">
        <ele>277.0</ele>
        <time>2019-12-21T12:54:13.420Z</time>
      </trkpt>
      <trkpt lat="41.26476167" lon="1.884595">
        <ele>277.0</ele>
        <time>2019-12-21T12:54:14.415Z</time>
      </trkpt>
      <trkpt lat="41.26479833" lon="1.88459833">
        <ele>277.0</ele>
        <time>2019-12-21T12:54:15.399Z</time>
      </trkpt>
      <trkpt lat="41.26479833" lon="1.88459833">
        <ele>277.0</ele>
        <time>2019-12-21T12:54:16.436Z</time>
      </trkpt>
      <trkpt lat="41.26483" lon="1.88459833">
        <ele>278.0</ele>
        <time>2019-12-21T12:54:17.418Z</time>
      </trkpt>
      <trkpt lat="41.26483" lon="1.88459833">
        <ele>278.0</ele>
        <time>2019-12-21T12:54:18.403Z</time>
      </trkpt>
      <trkpt lat="41.264865" lon="1.88460167">
        <ele>278.0</ele>
        <time>2019-12-21T12:54:19.401Z</time>
      </trkpt>
      <trkpt lat="41.26488333" lon="1.884605">
        <ele>278.0</ele>
        <time>2019-12-21T12:54:20.402Z</time>
      </trkpt>
      <trkpt lat="41.26488333" lon="1.884605">
        <ele>278.0</ele>
        <time>2019-12-21T12:54:21.398Z</time>
      </trkpt>
      <trkpt lat="41.26491833" lon="1.88461167">
        <ele>279.0</ele>
        <time>2019-12-21T12:54:22.401Z</time>
      </trkpt>
      <trkpt lat="41.26491833" lon="1.88461167">
        <ele>279.0</ele>
        <time>2019-12-21T12:54:23.400Z</time>
      </trkpt>
      <trkpt lat="41.26495667" lon="1.88460667">
        <ele>279.0</ele>
        <time>2019-12-21T12:54:24.401Z</time>
      </trkpt>
      <trkpt lat="41.264975" lon="1.88460167">
        <ele>279.0</ele>
        <time>2019-12-21T12:54:25.416Z</time>
      </trkpt>
      <trkpt lat="41.264975" lon="1.88460167">
        <ele>279.0</ele>
        <time>2019-12-21T12:54:26.399Z</time>
      </trkpt>
      <trkpt lat="41.26500833" lon="1.88459667">
        <ele>279.0</ele>
        <time>2019-12-21T12:54:27.414Z</time>
      </trkpt>
      <trkpt lat="41.26500833" lon="1.88459667">
        <ele>279.0</ele>
        <time>2019-12-21T12:54:28.397Z</time>
      </trkpt>
      <trkpt lat="41.26504667" lon="1.88458833">
        <ele>280.0</ele>
        <time>2019-12-21T12:54:29.402Z</time>
      </trkpt>
      <trkpt lat="41.26504667" lon="1.88458833">
        <ele>280.0</ele>
        <time>2019-12-21T12:54:30.410Z</time>
      </trkpt>
      <trkpt lat="41.26508" lon="1.88456833">
        <ele>280.0</ele>
        <time>2019-12-21T12:54:31.405Z</time>
      </trkpt>
      <trkpt lat="41.26508" lon="1.88456833">
        <ele>280.0</ele>
        <time>2019-12-21T12:54:32.397Z</time>
      </trkpt>
      <trkpt lat="41.265105" lon="1.88454833">
        <ele>280.0</ele>
        <time>2019-12-21T12:54:33.402Z</time>
      </trkpt>
      <trkpt lat="41.265105" lon="1.88454833">
        <ele>280.0</ele>
        <time>2019-12-21T12:54:34.397Z</time>
      </trkpt>
      <trkpt lat="41.265135" lon="1.88452667">
        <ele>280.0</ele>
        <time>2019-12-21T12:54:35.402Z</time>
      </trkpt>
      <trkpt lat="41.265135" lon="1.88452667">
        <ele>280.0</ele>
        <time>2019-12-21T12:54:36.397Z</time>
      </trkpt>
      <trkpt lat="41.26516167" lon="1.88450167">
        <ele>280.0</ele>
        <time>2019-12-21T12:54:37.420Z</time>
      </trkpt>
      <trkpt lat="41.26516167" lon="1.88450167">
        <ele>280.0</ele>
        <time>2019-12-21T12:54:38.404Z</time>
      </trkpt>
      <trkpt lat="41.26519667" lon="1.884475">
        <ele>281.0</ele>
        <time>2019-12-21T12:54:39.402Z</time>
      </trkpt>
      <trkpt lat="41.26519667" lon="1.884475">
        <ele>281.0</ele>
        <time>2019-12-21T12:54:40.397Z</time>
      </trkpt>
      <trkpt lat="41.26522667" lon="1.88444833">
        <ele>282.0</ele>
        <time>2019-12-21T12:54:41.415Z</time>
      </trkpt>
      <trkpt lat="41.26524333" lon="1.88443833">
        <ele>282.0</ele>
        <time>2019-12-21T12:54:42.403Z</time>
      </trkpt>
      <trkpt lat="41.26525833" lon="1.88442667">
        <ele>282.0</ele>
        <time>2019-12-21T12:54:43.404Z</time>
      </trkpt>
      <trkpt lat="41.26525833" lon="1.88442667">
        <ele>282.0</ele>
        <time>2019-12-21T12:54:44.397Z</time>
      </trkpt>
      <trkpt lat="41.26529" lon="1.88440333">
        <ele>283.0</ele>
        <time>2019-12-21T12:54:45.402Z</time>
      </trkpt>
      <trkpt lat="41.26529" lon="1.88440333">
        <ele>283.0</ele>
        <time>2019-12-21T12:54:46.397Z</time>
      </trkpt>
      <trkpt lat="41.26531833" lon="1.88438">
        <ele>283.0</ele>
        <time>2019-12-21T12:54:47.419Z</time>
      </trkpt>
      <trkpt lat="41.26531833" lon="1.88438">
        <ele>283.0</ele>
        <time>2019-12-21T12:54:48.402Z</time>
      </trkpt>
      <trkpt lat="41.26534833" lon="1.88436">
        <ele>284.0</ele>
        <time>2019-12-21T12:54:49.405Z</time>
      </trkpt>
      <trkpt lat="41.26534833" lon="1.88436">
        <ele>284.0</ele>
        <time>2019-12-21T12:54:50.397Z</time>
      </trkpt>
      <trkpt lat="41.26538" lon="1.88433833">
        <ele>284.0</ele>
        <time>2019-12-21T12:54:51.401Z</time>
      </trkpt>
      <trkpt lat="41.265395" lon="1.884325">
        <ele>284.0</ele>
        <time>2019-12-21T12:54:52.399Z</time>
      </trkpt>
      <trkpt lat="41.265395" lon="1.884325">
        <ele>284.0</ele>
        <time>2019-12-21T12:54:53.397Z</time>
      </trkpt>
      <trkpt lat="41.26542333" lon="1.88429667">
        <ele>285.0</ele>
        <time>2019-12-21T12:54:54.401Z</time>
      </trkpt>
      <trkpt lat="41.26543667" lon="1.88428667">
        <ele>286.0</ele>
        <time>2019-12-21T12:54:55.404Z</time>
      </trkpt>
      <trkpt lat="41.26543667" lon="1.88428667">
        <ele>286.0</ele>
        <time>2019-12-21T12:54:56.434Z</time>
      </trkpt>
      <trkpt lat="41.26546333" lon="1.88426333">
        <ele>286.0</ele>
        <time>2019-12-21T12:54:57.416Z</time>
      </trkpt>
      <trkpt lat="41.26546333" lon="1.88426333">
        <ele>286.0</ele>
        <time>2019-12-21T12:54:58.399Z</time>
      </trkpt>
      <trkpt lat="41.265495" lon="1.88424333">
        <ele>287.0</ele>
        <time>2019-12-21T12:54:59.402Z</time>
      </trkpt>
      <trkpt lat="41.265495" lon="1.88424333">
        <ele>287.0</ele>
        <time>2019-12-21T12:55:00.410Z</time>
      </trkpt>
      <trkpt lat="41.26552667" lon="1.88421833">
        <ele>287.0</ele>
        <time>2019-12-21T12:55:01.399Z</time>
      </trkpt>
      <trkpt lat="41.26552667" lon="1.88421833">
        <ele>287.0</ele>
        <time>2019-12-21T12:55:02.397Z</time>
      </trkpt>
      <trkpt lat="41.265555" lon="1.88419667">
        <ele>287.0</ele>
        <time>2019-12-21T12:55:03.400Z</time>
      </trkpt>
      <trkpt lat="41.265555" lon="1.88419667">
        <ele>287.0</ele>
        <time>2019-12-21T12:55:04.403Z</time>
      </trkpt>
      <trkpt lat="41.26558833" lon="1.88417333">
        <ele>288.0</ele>
        <time>2019-12-21T12:55:05.418Z</time>
      </trkpt>
      <trkpt lat="41.26558833" lon="1.88417333">
        <ele>288.0</ele>
        <time>2019-12-21T12:55:06.401Z</time>
      </trkpt>
      <trkpt lat="41.26561833" lon="1.88415167">
        <ele>288.0</ele>
        <time>2019-12-21T12:55:07.405Z</time>
      </trkpt>
      <trkpt lat="41.26561833" lon="1.88415167">
        <ele>288.0</ele>
        <time>2019-12-21T12:55:08.398Z</time>
      </trkpt>
      <trkpt lat="41.26564667" lon="1.88413">
        <ele>289.0</ele>
        <time>2019-12-21T12:55:09.402Z</time>
      </trkpt>
      <trkpt lat="41.26564667" lon="1.88413">
        <ele>289.0</ele>
        <time>2019-12-21T12:55:10.401Z</time>
      </trkpt>
      <trkpt lat="41.265675" lon="1.88411333">
        <ele>289.0</ele>
        <time>2019-12-21T12:55:11.420Z</time>
      </trkpt>
      <trkpt lat="41.26568833" lon="1.88410833">
        <ele>289.0</ele>
        <time>2019-12-21T12:55:12.418Z</time>
      </trkpt>
      <trkpt lat="41.26569833" lon="1.88410833">
        <ele>290.0</ele>
        <time>2019-12-21T12:55:13.405Z</time>
      </trkpt>
      <trkpt lat="41.26569833" lon="1.88410833">
        <ele>290.0</ele>
        <time>2019-12-21T12:55:14.398Z</time>
      </trkpt>
      <trkpt lat="41.26572" lon="1.884115">
        <ele>290.0</ele>
        <time>2019-12-21T12:55:15.404Z</time>
      </trkpt>
      <trkpt lat="41.26572" lon="1.884115">
        <ele>290.0</ele>
        <time>2019-12-21T12:55:16.400Z</time>
      </trkpt>
      <trkpt lat="41.26574667" lon="1.88412167">
        <ele>290.0</ele>
        <time>2019-12-21T12:55:17.402Z</time>
      </trkpt>
      <trkpt lat="41.26574667" lon="1.88412167">
        <ele>290.0</ele>
        <time>2019-12-21T12:55:18.400Z</time>
      </trkpt>
      <trkpt lat="41.26576833" lon="1.88412833">
        <ele>290.0</ele>
        <time>2019-12-21T12:55:19.402Z</time>
      </trkpt>
      <trkpt lat="41.26576833" lon="1.88412833">
        <ele>290.0</ele>
        <time>2019-12-21T12:55:20.397Z</time>
      </trkpt>
      <trkpt lat="41.26578667" lon="1.88413167">
        <ele>290.0</ele>
        <time>2019-12-21T12:55:21.405Z</time>
      </trkpt>
      <trkpt lat="41.26578667" lon="1.88413167">
        <ele>290.0</ele>
        <time>2019-12-21T12:55:22.399Z</time>
      </trkpt>
      <trkpt lat="41.26579" lon="1.88413333">
        <ele>291.0</ele>
        <time>2019-12-21T12:55:23.402Z</time>
      </trkpt>
      <trkpt lat="41.26579" lon="1.88413333">
        <ele>291.0</ele>
        <time>2019-12-21T12:55:24.397Z</time>
      </trkpt>
      <trkpt lat="41.26579" lon="1.884135">
        <ele>291.0</ele>
        <time>2019-12-21T12:55:25.419Z</time>
      </trkpt>
      <trkpt lat="41.26579" lon="1.884135">
        <ele>291.0</ele>
        <time>2019-12-21T12:55:26.423Z</time>
      </trkpt>
      <trkpt lat="41.26579" lon="1.884135">
        <ele>291.0</ele>
        <time>2019-12-21T12:55:27.408Z</time>
      </trkpt>
      <trkpt lat="41.26581833" lon="1.88420333">
        <ele>288.0</ele>
        <time>2019-12-21T12:55:28.423Z</time>
      </trkpt>
      <trkpt lat="41.26581833" lon="1.88420333">
        <ele>288.0</ele>
        <time>2019-12-21T12:55:29.407Z</time>
      </trkpt>
      <trkpt lat="41.26585167" lon="1.88427167">
        <ele>288.0</ele>
        <time>2019-12-21T12:55:30.430Z</time>
      </trkpt>
      <trkpt lat="41.26585167" lon="1.88427167">
        <ele>288.0</ele>
        <time>2019-12-21T12:55:31.413Z</time>
      </trkpt>
      <trkpt lat="41.26588333" lon="1.88435167">
        <ele>288.0</ele>
        <time>2019-12-21T12:55:32.418Z</time>
      </trkpt>
      <trkpt lat="41.26588333" lon="1.88435167">
        <ele>288.0</ele>
        <time>2019-12-21T12:55:33.404Z</time>
      </trkpt>
      <trkpt lat="41.26592" lon="1.88445">
        <ele>288.0</ele>
        <time>2019-12-21T12:55:34.431Z</time>
      </trkpt>
      <trkpt lat="41.26594" lon="1.884505">
        <ele>287.0</ele>
        <time>2019-12-21T12:55:35.415Z</time>
      </trkpt>
      <trkpt lat="41.26596" lon="1.884565">
        <ele>287.0</ele>
        <time>2019-12-21T12:55:36.402Z</time>
      </trkpt>
      <trkpt lat="41.26596" lon="1.884565">
        <ele>287.0</ele>
        <time>2019-12-21T12:55:37.425Z</time>
      </trkpt>
      <trkpt lat="41.26599833" lon="1.88468333">
        <ele>287.0</ele>
        <time>2019-12-21T12:55:38.423Z</time>
      </trkpt>
      <trkpt lat="41.26601333" lon="1.88473167">
        <ele>287.0</ele>
        <time>2019-12-21T12:55:39.407Z</time>
      </trkpt>
      <trkpt lat="41.26601333" lon="1.88473167">
        <ele>287.0</ele>
        <time>2019-12-21T12:55:40.411Z</time>
      </trkpt>
      <trkpt lat="41.26604167" lon="1.884835">
        <ele>286.0</ele>
        <time>2019-12-21T12:55:41.425Z</time>
      </trkpt>
      <trkpt lat="41.26606333" lon="1.884895">
        <ele>285.0</ele>
        <time>2019-12-21T12:55:42.411Z</time>
      </trkpt>
      <trkpt lat="41.26606333" lon="1.884895">
        <ele>285.0</ele>
        <time>2019-12-21T12:55:43.397Z</time>
      </trkpt>
      <trkpt lat="41.26611667" lon="1.885025">
        <ele>284.0</ele>
        <time>2019-12-21T12:55:44.420Z</time>
      </trkpt>
      <trkpt lat="41.26615" lon="1.88508667">
        <ele>284.0</ele>
        <time>2019-12-21T12:55:45.412Z</time>
      </trkpt>
      <trkpt lat="41.266185" lon="1.88514667">
        <ele>283.0</ele>
        <time>2019-12-21T12:55:46.437Z</time>
      </trkpt>
      <trkpt lat="41.266185" lon="1.88514667">
        <ele>283.0</ele>
        <time>2019-12-21T12:55:47.436Z</time>
      </trkpt>
      <trkpt lat="41.26626667" lon="1.88526167">
        <ele>283.0</ele>
        <time>2019-12-21T12:55:48.419Z</time>
      </trkpt>
      <trkpt lat="41.26626667" lon="1.88526167">
        <ele>283.0</ele>
        <time>2019-12-21T12:55:49.403Z</time>
      </trkpt>
      <trkpt lat="41.26634833" lon="1.885375">
        <ele>283.0</ele>
        <time>2019-12-21T12:55:50.430Z</time>
      </trkpt>
      <trkpt lat="41.26638833" lon="1.88543">
        <ele>283.0</ele>
        <time>2019-12-21T12:55:51.412Z</time>
      </trkpt>
      <trkpt lat="41.26638833" lon="1.88543">
        <ele>283.0</ele>
        <time>2019-12-21T12:55:52.436Z</time>
      </trkpt>
      <trkpt lat="41.26646167" lon="1.88553667">
        <ele>283.0</ele>
        <time>2019-12-21T12:55:53.421Z</time>
      </trkpt>
      <trkpt lat="41.26646167" lon="1.88553667">
        <ele>283.0</ele>
        <time>2019-12-21T12:55:54.428Z</time>
      </trkpt>
      <trkpt lat="41.26653333" lon="1.885635">
        <ele>283.0</ele>
        <time>2019-12-21T12:55:55.410Z</time>
      </trkpt>
      <trkpt lat="41.26653333" lon="1.885635">
        <ele>283.0</ele>
        <time>2019-12-21T12:55:56.399Z</time>
      </trkpt>
      <trkpt lat="41.26661333" lon="1.88571667">
        <ele>283.0</ele>
        <time>2019-12-21T12:55:57.424Z</time>
      </trkpt>
      <trkpt lat="41.26665333" lon="1.885745">
        <ele>282.0</ele>
        <time>2019-12-21T12:55:58.418Z</time>
      </trkpt>
      <trkpt lat="41.26665333" lon="1.885745">
        <ele>282.0</ele>
        <time>2019-12-21T12:55:59.401Z</time>
      </trkpt>
      <trkpt lat="41.26674333" lon="1.88578">
        <ele>283.0</ele>
        <time>2019-12-21T12:56:00.429Z</time>
      </trkpt>
      <trkpt lat="41.26674333" lon="1.88578">
        <ele>283.0</ele>
        <time>2019-12-21T12:56:01.412Z</time>
      </trkpt>
      <trkpt lat="41.26683333" lon="1.88580333">
        <ele>283.0</ele>
        <time>2019-12-21T12:56:02.399Z</time>
      </trkpt>
      <trkpt lat="41.26683333" lon="1.88580333">
        <ele>283.0</ele>
        <time>2019-12-21T12:56:03.423Z</time>
      </trkpt>
      <trkpt lat="41.26692" lon="1.8858">
        <ele>284.0</ele>
        <time>2019-12-21T12:56:04.419Z</time>
      </trkpt>
      <trkpt lat="41.26692" lon="1.8858">
        <ele>284.0</ele>
        <time>2019-12-21T12:56:05.402Z</time>
      </trkpt>
      <trkpt lat="41.26699333" lon="1.88575833">
        <ele>284.0</ele>
        <time>2019-12-21T12:56:06.425Z</time>
      </trkpt>
      <trkpt lat="41.26699333" lon="1.88575833">
        <ele>284.0</ele>
        <time>2019-12-21T12:56:07.409Z</time>
      </trkpt>
      <trkpt lat="41.26703333" lon="1.88572167">
        <ele>285.0</ele>
        <time>2019-12-21T12:56:08.399Z</time>
      </trkpt>
      <trkpt lat="41.26703333" lon="1.88572167">
        <ele>285.0</ele>
        <time>2019-12-21T12:56:09.419Z</time>
      </trkpt>
      <trkpt lat="41.26705833" lon="1.885675">
        <ele>285.0</ele>
        <time>2019-12-21T12:56:10.415Z</time>
      </trkpt>
      <trkpt lat="41.26707167" lon="1.885645">
        <ele>286.0</ele>
        <time>2019-12-21T12:56:11.399Z</time>
      </trkpt>
      <trkpt lat="41.26707167" lon="1.885645">
        <ele>286.0</ele>
        <time>2019-12-21T12:56:12.423Z</time>
      </trkpt>
      <trkpt lat="41.267095" lon="1.88559833">
        <ele>286.0</ele>
        <time>2019-12-21T12:56:13.411Z</time>
      </trkpt>
      <trkpt lat="41.267095" lon="1.88559833">
        <ele>286.0</ele>
        <time>2019-12-21T12:56:14.434Z</time>
      </trkpt>
      <trkpt lat="41.26710667" lon="1.885545">
        <ele>287.0</ele>
        <time>2019-12-21T12:56:15.432Z</time>
      </trkpt>
      <trkpt lat="41.26711333" lon="1.88551667">
        <ele>287.0</ele>
        <time>2019-12-21T12:56:16.423Z</time>
      </trkpt>
      <trkpt lat="41.26711333" lon="1.88551667">
        <ele>287.0</ele>
        <time>2019-12-21T12:56:17.405Z</time>
      </trkpt>
      <trkpt lat="41.26713333" lon="1.88545333">
        <ele>286.0</ele>
        <time>2019-12-21T12:56:18.399Z</time>
      </trkpt>
      <trkpt lat="41.26713333" lon="1.88545333">
        <ele>286.0</ele>
        <time>2019-12-21T12:56:19.421Z</time>
      </trkpt>
      <trkpt lat="41.267155" lon="1.88538167">
        <ele>286.0</ele>
        <time>2019-12-21T12:56:20.418Z</time>
      </trkpt>
      <trkpt lat="41.267155" lon="1.88538167">
        <ele>286.0</ele>
        <time>2019-12-21T12:56:21.401Z</time>
      </trkpt>
      <trkpt lat="41.26717833" lon="1.88529333">
        <ele>285.0</ele>
        <time>2019-12-21T12:56:22.424Z</time>
      </trkpt>
      <trkpt lat="41.26719167" lon="1.88524">
        <ele>285.0</ele>
        <time>2019-12-21T12:56:23.412Z</time>
      </trkpt>
      <trkpt lat="41.26721" lon="1.88518167">
        <ele>284.0</ele>
        <time>2019-12-21T12:56:24.437Z</time>
      </trkpt>
      <trkpt lat="41.26721" lon="1.88518167">
        <ele>284.0</ele>
        <time>2019-12-21T12:56:25.428Z</time>
      </trkpt>
      <trkpt lat="41.26727167" lon="1.88503167">
        <ele>283.0</ele>
        <time>2019-12-21T12:56:26.416Z</time>
      </trkpt>
      <trkpt lat="41.26727167" lon="1.88503167">
        <ele>283.0</ele>
        <time>2019-12-21T12:56:27.400Z</time>
      </trkpt>
      <trkpt lat="41.26733333" lon="1.88488">
        <ele>282.0</ele>
        <time>2019-12-21T12:56:28.435Z</time>
      </trkpt>
      <trkpt lat="41.26736" lon="1.88480833">
        <ele>282.0</ele>
        <time>2019-12-21T12:56:29.421Z</time>
      </trkpt>
      <trkpt lat="41.26738" lon="1.88474">
        <ele>282.0</ele>
        <time>2019-12-21T12:56:30.413Z</time>
      </trkpt>
      <trkpt lat="41.26738" lon="1.88474">
        <ele>282.0</ele>
        <time>2019-12-21T12:56:31.397Z</time>
      </trkpt>
      <trkpt lat="41.26742333" lon="1.88462333">
        <ele>281.0</ele>
        <time>2019-12-21T12:56:32.419Z</time>
      </trkpt>
      <trkpt lat="41.267455" lon="1.88455">
        <ele>281.0</ele>
        <time>2019-12-21T12:56:33.402Z</time>
      </trkpt>
      <trkpt lat="41.267455" lon="1.88455">
        <ele>281.0</ele>
        <time>2019-12-21T12:56:34.428Z</time>
      </trkpt>
      <trkpt lat="41.26754667" lon="1.88439333">
        <ele>279.0</ele>
        <time>2019-12-21T12:56:35.410Z</time>
      </trkpt>
      <trkpt lat="41.26754667" lon="1.88439333">
        <ele>279.0</ele>
        <time>2019-12-21T12:56:36.407Z</time>
      </trkpt>
      <trkpt lat="41.26763" lon="1.884245">
        <ele>278.0</ele>
        <time>2019-12-21T12:56:37.430Z</time>
      </trkpt>
      <trkpt lat="41.26767167" lon="1.88417333">
        <ele>277.0</ele>
        <time>2019-12-21T12:56:38.424Z</time>
      </trkpt>
      <trkpt lat="41.26771167" lon="1.88409833">
        <ele>276.0</ele>
        <time>2019-12-21T12:56:39.412Z</time>
      </trkpt>
      <trkpt lat="41.26771167" lon="1.88409833">
        <ele>276.0</ele>
        <time>2019-12-21T12:56:40.405Z</time>
      </trkpt>
      <trkpt lat="41.26779333" lon="1.883945">
        <ele>275.0</ele>
        <time>2019-12-21T12:56:41.399Z</time>
      </trkpt>
      <trkpt lat="41.26783" lon="1.88387">
        <ele>274.0</ele>
        <time>2019-12-21T12:56:42.423Z</time>
      </trkpt>
      <trkpt lat="41.26783" lon="1.88387">
        <ele>274.0</ele>
        <time>2019-12-21T12:56:43.406Z</time>
      </trkpt>
      <trkpt lat="41.26789333" lon="1.88374333">
        <ele>273.0</ele>
        <time>2019-12-21T12:56:44.430Z</time>
      </trkpt>
      <trkpt lat="41.26789333" lon="1.88374333">
        <ele>273.0</ele>
        <time>2019-12-21T12:56:45.413Z</time>
      </trkpt>
      <trkpt lat="41.26796167" lon="1.88362333">
        <ele>272.0</ele>
        <time>2019-12-21T12:56:46.407Z</time>
      </trkpt>
      <trkpt lat="41.26799833" lon="1.88354833">
        <ele>272.0</ele>
        <time>2019-12-21T12:56:47.433Z</time>
      </trkpt>
      <trkpt lat="41.26803667" lon="1.88346">
        <ele>271.0</ele>
        <time>2019-12-21T12:56:48.423Z</time>
      </trkpt>
      <trkpt lat="41.26803667" lon="1.88346">
        <ele>271.0</ele>
        <time>2019-12-21T12:56:49.406Z</time>
      </trkpt>
      <trkpt lat="41.26811833" lon="1.88326">
        <ele>270.0</ele>
        <time>2019-12-21T12:56:50.423Z</time>
      </trkpt>
      <trkpt lat="41.26814833" lon="1.883145">
        <ele>269.0</ele>
        <time>2019-12-21T12:56:51.413Z</time>
      </trkpt>
      <trkpt lat="41.26814833" lon="1.883145">
        <ele>269.0</ele>
        <time>2019-12-21T12:56:52.398Z</time>
      </trkpt>
      <trkpt lat="41.26819667" lon="1.88292333">
        <ele>268.0</ele>
        <time>2019-12-21T12:56:53.420Z</time>
      </trkpt>
      <trkpt lat="41.26821833" lon="1.88281833">
        <ele>268.0</ele>
        <time>2019-12-21T12:56:54.403Z</time>
      </trkpt>
      <trkpt lat="41.26821833" lon="1.88281833">
        <ele>268.0</ele>
        <time>2019-12-21T12:56:55.430Z</time>
      </trkpt>
      <trkpt lat="41.26826" lon="1.88262667">
        <ele>267.0</ele>
        <time>2019-12-21T12:56:56.419Z</time>
      </trkpt>
      <trkpt lat="41.26828" lon="1.88253333">
        <ele>266.0</ele>
        <time>2019-12-21T12:56:57.415Z</time>
      </trkpt>
      <trkpt lat="41.26828" lon="1.88253333">
        <ele>266.0</ele>
        <time>2019-12-21T12:56:58.399Z</time>
      </trkpt>
      <trkpt lat="41.26831167" lon="1.88235">
        <ele>265.0</ele>
        <time>2019-12-21T12:56:59.421Z</time>
      </trkpt>
      <trkpt lat="41.268325" lon="1.88225333">
        <ele>265.0</ele>
        <time>2019-12-21T12:57:00.423Z</time>
      </trkpt>
      <trkpt lat="41.268325" lon="1.88225333">
        <ele>265.0</ele>
        <time>2019-12-21T12:57:01.400Z</time>
      </trkpt>
      <trkpt lat="41.26835667" lon="1.88207667">
        <ele>264.0</ele>
        <time>2019-12-21T12:57:02.424Z</time>
      </trkpt>
      <trkpt lat="41.26837833" lon="1.88201833">
        <ele>263.0</ele>
        <time>2019-12-21T12:57:03.413Z</time>
      </trkpt>
      <trkpt lat="41.26840333" lon="1.88197667">
        <ele>263.0</ele>
        <time>2019-12-21T12:57:04.397Z</time>
      </trkpt>
      <trkpt lat="41.26840333" lon="1.88197667">
        <ele>263.0</ele>
        <time>2019-12-21T12:57:05.419Z</time>
      </trkpt>
      <trkpt lat="41.26845667" lon="1.88190667">
        <ele>263.0</ele>
        <time>2019-12-21T12:57:06.405Z</time>
      </trkpt>
      <trkpt lat="41.26845667" lon="1.88190667">
        <ele>263.0</ele>
        <time>2019-12-21T12:57:07.428Z</time>
      </trkpt>
      <trkpt lat="41.26851167" lon="1.88182">
        <ele>262.0</ele>
        <time>2019-12-21T12:57:08.418Z</time>
      </trkpt>
      <trkpt lat="41.26851167" lon="1.88182">
        <ele>262.0</ele>
        <time>2019-12-21T12:57:09.402Z</time>
      </trkpt>
      <trkpt lat="41.26856167" lon="1.88172667">
        <ele>262.0</ele>
        <time>2019-12-21T12:57:10.427Z</time>
      </trkpt>
      <trkpt lat="41.26858167" lon="1.88168333">
        <ele>262.0</ele>
        <time>2019-12-21T12:57:11.399Z</time>
      </trkpt>
      <trkpt lat="41.26858167" lon="1.88168333">
        <ele>262.0</ele>
        <time>2019-12-21T12:57:12.422Z</time>
      </trkpt>
      <trkpt lat="41.26861833" lon="1.88158833">
        <ele>262.0</ele>
        <time>2019-12-21T12:57:13.430Z</time>
      </trkpt>
      <trkpt lat="41.268635" lon="1.88153333">
        <ele>262.0</ele>
        <time>2019-12-21T12:57:14.413Z</time>
      </trkpt>
      <trkpt lat="41.268635" lon="1.88153333">
        <ele>262.0</ele>
        <time>2019-12-21T12:57:15.397Z</time>
      </trkpt>
      <trkpt lat="41.26865333" lon="1.88142667">
        <ele>263.0</ele>
        <time>2019-12-21T12:57:16.420Z</time>
      </trkpt>
      <trkpt lat="41.26866833" lon="1.88137167">
        <ele>263.0</ele>
        <time>2019-12-21T12:57:17.418Z</time>
      </trkpt>
      <trkpt lat="41.26866833" lon="1.88137167">
        <ele>263.0</ele>
        <time>2019-12-21T12:57:18.405Z</time>
      </trkpt>
      <trkpt lat="41.2687" lon="1.88126167">
        <ele>263.0</ele>
        <time>2019-12-21T12:57:19.429Z</time>
      </trkpt>
      <trkpt lat="41.2687" lon="1.88126167">
        <ele>263.0</ele>
        <time>2019-12-21T12:57:20.412Z</time>
      </trkpt>
      <trkpt lat="41.26872833" lon="1.881145">
        <ele>263.0</ele>
        <time>2019-12-21T12:57:21.414Z</time>
      </trkpt>
      <trkpt lat="41.26874" lon="1.88108667">
        <ele>264.0</ele>
        <time>2019-12-21T12:57:22.418Z</time>
      </trkpt>
      <trkpt lat="41.26874" lon="1.88108667">
        <ele>264.0</ele>
        <time>2019-12-21T12:57:23.401Z</time>
      </trkpt>
      <trkpt lat="41.26877333" lon="1.88097167">
        <ele>264.0</ele>
        <time>2019-12-21T12:57:24.433Z</time>
      </trkpt>
      <trkpt lat="41.26877333" lon="1.88097167">
        <ele>264.0</ele>
        <time>2019-12-21T12:57:25.415Z</time>
      </trkpt>
      <trkpt lat="41.26880833" lon="1.880855">
        <ele>264.0</ele>
        <time>2019-12-21T12:57:26.399Z</time>
      </trkpt>
      <trkpt lat="41.26880833" lon="1.880855">
        <ele>264.0</ele>
        <time>2019-12-21T12:57:27.422Z</time>
      </trkpt>
      <trkpt lat="41.26884" lon="1.88073833">
        <ele>264.0</ele>
        <time>2019-12-21T12:57:28.409Z</time>
      </trkpt>
      <trkpt lat="41.26884" lon="1.88073833">
        <ele>264.0</ele>
        <time>2019-12-21T12:57:29.431Z</time>
      </trkpt>
      <trkpt lat="41.26887333" lon="1.880625">
        <ele>264.0</ele>
        <time>2019-12-21T12:57:30.416Z</time>
      </trkpt>
      <trkpt lat="41.26888833" lon="1.88057167">
        <ele>264.0</ele>
        <time>2019-12-21T12:57:31.403Z</time>
      </trkpt>
      <trkpt lat="41.26888833" lon="1.88057167">
        <ele>264.0</ele>
        <time>2019-12-21T12:57:32.426Z</time>
      </trkpt>
      <trkpt lat="41.26892333" lon="1.880465">
        <ele>264.0</ele>
        <time>2019-12-21T12:57:33.411Z</time>
      </trkpt>
      <trkpt lat="41.26892333" lon="1.880465">
        <ele>264.0</ele>
        <time>2019-12-21T12:57:34.436Z</time>
      </trkpt>
      <trkpt lat="41.26895167" lon="1.88036167">
        <ele>264.0</ele>
        <time>2019-12-21T12:57:35.418Z</time>
      </trkpt>
      <trkpt lat="41.26896667" lon="1.88030833">
        <ele>264.0</ele>
        <time>2019-12-21T12:57:36.401Z</time>
      </trkpt>
      <trkpt lat="41.26896667" lon="1.88030833">
        <ele>264.0</ele>
        <time>2019-12-21T12:57:37.424Z</time>
      </trkpt>
      <trkpt lat="41.26900167" lon="1.880205">
        <ele>264.0</ele>
        <time>2019-12-21T12:57:38.416Z</time>
      </trkpt>
      <trkpt lat="41.26900167" lon="1.880205">
        <ele>264.0</ele>
        <time>2019-12-21T12:57:39.402Z</time>
      </trkpt>
      <trkpt lat="41.26903667" lon="1.8801">
        <ele>264.0</ele>
        <time>2019-12-21T12:57:40.425Z</time>
      </trkpt>
      <trkpt lat="41.26903667" lon="1.8801">
        <ele>264.0</ele>
        <time>2019-12-21T12:57:41.426Z</time>
      </trkpt>
      <trkpt lat="41.26907833" lon="1.87999167">
        <ele>264.0</ele>
        <time>2019-12-21T12:57:42.414Z</time>
      </trkpt>
      <trkpt lat="41.26907833" lon="1.87999167">
        <ele>264.0</ele>
        <time>2019-12-21T12:57:43.399Z</time>
      </trkpt>
      <trkpt lat="41.269115" lon="1.87988">
        <ele>264.0</ele>
        <time>2019-12-21T12:57:44.422Z</time>
      </trkpt>
      <trkpt lat="41.269135" lon="1.87982833">
        <ele>264.0</ele>
        <time>2019-12-21T12:57:45.418Z</time>
      </trkpt>
      <trkpt lat="41.269135" lon="1.87982833">
        <ele>264.0</ele>
        <time>2019-12-21T12:57:46.402Z</time>
      </trkpt>
      <trkpt lat="41.26917" lon="1.87972167">
        <ele>263.0</ele>
        <time>2019-12-21T12:57:47.434Z</time>
      </trkpt>
      <trkpt lat="41.26918333" lon="1.879665">
        <ele>263.0</ele>
        <time>2019-12-21T12:57:48.399Z</time>
      </trkpt>
      <trkpt lat="41.2692" lon="1.87961">
        <ele>263.0</ele>
        <time>2019-12-21T12:57:49.422Z</time>
      </trkpt>
      <trkpt lat="41.2692" lon="1.87961">
        <ele>263.0</ele>
        <time>2019-12-21T12:57:50.429Z</time>
      </trkpt>
      <trkpt lat="41.269245" lon="1.87951333">
        <ele>263.0</ele>
        <time>2019-12-21T12:57:51.418Z</time>
      </trkpt>
      <trkpt lat="41.269245" lon="1.87951333">
        <ele>263.0</ele>
        <time>2019-12-21T12:57:52.404Z</time>
      </trkpt>
      <trkpt lat="41.26930833" lon="1.87943167">
        <ele>263.0</ele>
        <time>2019-12-21T12:57:53.427Z</time>
      </trkpt>
      <trkpt lat="41.26933833" lon="1.87939">
        <ele>263.0</ele>
        <time>2019-12-21T12:57:54.415Z</time>
      </trkpt>
      <trkpt lat="41.26933833" lon="1.87939">
        <ele>263.0</ele>
        <time>2019-12-21T12:57:55.399Z</time>
      </trkpt>
      <trkpt lat="41.2694" lon="1.87930167">
        <ele>263.0</ele>
        <time>2019-12-21T12:57:56.422Z</time>
      </trkpt>
      <trkpt lat="41.26943333" lon="1.87925833">
        <ele>263.0</ele>
        <time>2019-12-21T12:57:57.416Z</time>
      </trkpt>
      <trkpt lat="41.26946333" lon="1.87921667">
        <ele>264.0</ele>
        <time>2019-12-21T12:57:58.403Z</time>
      </trkpt>
      <trkpt lat="41.26946333" lon="1.87921667">
        <ele>264.0</ele>
        <time>2019-12-21T12:57:59.426Z</time>
      </trkpt>
      <trkpt lat="41.26952333" lon="1.87913333">
        <ele>264.0</ele>
        <time>2019-12-21T12:58:00.415Z</time>
      </trkpt>
      <trkpt lat="41.26952333" lon="1.87913333">
        <ele>264.0</ele>
        <time>2019-12-21T12:58:01.401Z</time>
      </trkpt>
      <trkpt lat="41.26958667" lon="1.87906333">
        <ele>264.0</ele>
        <time>2019-12-21T12:58:02.425Z</time>
      </trkpt>
      <trkpt lat="41.26961667" lon="1.87903667">
        <ele>264.0</ele>
        <time>2019-12-21T12:58:03.416Z</time>
      </trkpt>
      <trkpt lat="41.26961667" lon="1.87903667">
        <ele>264.0</ele>
        <time>2019-12-21T12:58:04.399Z</time>
      </trkpt>
      <trkpt lat="41.26967333" lon="1.87899">
        <ele>265.0</ele>
        <time>2019-12-21T12:58:05.422Z</time>
      </trkpt>
      <trkpt lat="41.26970333" lon="1.87897333">
        <ele>265.0</ele>
        <time>2019-12-21T12:58:06.422Z</time>
      </trkpt>
      <trkpt lat="41.26973333" lon="1.87896">
        <ele>265.0</ele>
        <time>2019-12-21T12:58:07.417Z</time>
      </trkpt>
      <trkpt lat="41.26973333" lon="1.87896">
        <ele>265.0</ele>
        <time>2019-12-21T12:58:08.406Z</time>
      </trkpt>
      <trkpt lat="41.26978833" lon="1.87893667">
        <ele>266.0</ele>
        <time>2019-12-21T12:58:09.430Z</time>
      </trkpt>
      <trkpt lat="41.26978833" lon="1.87893667">
        <ele>266.0</ele>
        <time>2019-12-21T12:58:10.417Z</time>
      </trkpt>
      <trkpt lat="41.26985333" lon="1.87892">
        <ele>266.0</ele>
        <time>2019-12-21T12:58:11.424Z</time>
      </trkpt>
      <trkpt lat="41.26989167" lon="1.87891333">
        <ele>265.0</ele>
        <time>2019-12-21T12:58:12.413Z</time>
      </trkpt>
      <trkpt lat="41.26993167" lon="1.87890833">
        <ele>265.0</ele>
        <time>2019-12-21T12:58:13.399Z</time>
      </trkpt>
      <trkpt lat="41.26993167" lon="1.87890833">
        <ele>265.0</ele>
        <time>2019-12-21T12:58:14.422Z</time>
      </trkpt>
      <trkpt lat="41.27001333" lon="1.87891167">
        <ele>265.0</ele>
        <time>2019-12-21T12:58:15.415Z</time>
      </trkpt>
      <trkpt lat="41.27005167" lon="1.878915">
        <ele>265.0</ele>
        <time>2019-12-21T12:58:16.401Z</time>
      </trkpt>
      <trkpt lat="41.27005167" lon="1.878915">
        <ele>265.0</ele>
        <time>2019-12-21T12:58:17.424Z</time>
      </trkpt>
      <trkpt lat="41.270125" lon="1.87893667">
        <ele>265.0</ele>
        <time>2019-12-21T12:58:18.417Z</time>
      </trkpt>
      <trkpt lat="41.270125" lon="1.87893667">
        <ele>265.0</ele>
        <time>2019-12-21T12:58:19.402Z</time>
      </trkpt>
      <trkpt lat="41.27019333" lon="1.87896">
        <ele>265.0</ele>
        <time>2019-12-21T12:58:20.424Z</time>
      </trkpt>
      <trkpt lat="41.27019333" lon="1.87896">
        <ele>265.0</ele>
        <time>2019-12-21T12:58:21.410Z</time>
      </trkpt>
      <trkpt lat="41.270255" lon="1.878985">
        <ele>266.0</ele>
        <time>2019-12-21T12:58:22.399Z</time>
      </trkpt>
      <trkpt lat="41.270255" lon="1.878985">
        <ele>266.0</ele>
        <time>2019-12-21T12:58:23.425Z</time>
      </trkpt>
      <trkpt lat="41.27031333" lon="1.87902167">
        <ele>266.0</ele>
        <time>2019-12-21T12:58:24.417Z</time>
      </trkpt>
      <trkpt lat="41.27031333" lon="1.87902167">
        <ele>266.0</ele>
        <time>2019-12-21T12:58:25.400Z</time>
      </trkpt>
      <trkpt lat="41.27037" lon="1.87906">
        <ele>266.0</ele>
        <time>2019-12-21T12:58:26.423Z</time>
      </trkpt>
      <trkpt lat="41.27039333" lon="1.87907833">
        <ele>266.0</ele>
        <time>2019-12-21T12:58:27.415Z</time>
      </trkpt>
      <trkpt lat="41.27039333" lon="1.87907833">
        <ele>266.0</ele>
        <time>2019-12-21T12:58:28.408Z</time>
      </trkpt>
      <trkpt lat="41.270445" lon="1.87911667">
        <ele>267.0</ele>
        <time>2019-12-21T12:58:29.435Z</time>
      </trkpt>
      <trkpt lat="41.27046833" lon="1.87913833">
        <ele>267.0</ele>
        <time>2019-12-21T12:58:30.427Z</time>
      </trkpt>
      <trkpt lat="41.27046833" lon="1.87913833">
        <ele>267.0</ele>
        <time>2019-12-21T12:58:31.416Z</time>
      </trkpt>
      <trkpt lat="41.27052333" lon="1.87917833">
        <ele>266.0</ele>
        <time>2019-12-21T12:58:32.419Z</time>
      </trkpt>
      <trkpt lat="41.27056" lon="1.87919167">
        <ele>266.0</ele>
        <time>2019-12-21T12:58:33.402Z</time>
      </trkpt>
      <trkpt lat="41.27056" lon="1.87919167">
        <ele>266.0</ele>
        <time>2019-12-21T12:58:34.427Z</time>
      </trkpt>
      <trkpt lat="41.27064" lon="1.87919833">
        <ele>266.0</ele>
        <time>2019-12-21T12:58:35.415Z</time>
      </trkpt>
      <trkpt lat="41.27068167" lon="1.87920333">
        <ele>266.0</ele>
        <time>2019-12-21T12:58:36.417Z</time>
      </trkpt>
      <trkpt lat="41.27068167" lon="1.87920333">
        <ele>266.0</ele>
        <time>2019-12-21T12:58:37.408Z</time>
      </trkpt>
      <trkpt lat="41.27078167" lon="1.879245">
        <ele>264.0</ele>
        <time>2019-12-21T12:58:38.399Z</time>
      </trkpt>
      <trkpt lat="41.27078167" lon="1.879245">
        <ele>264.0</ele>
        <time>2019-12-21T12:58:39.419Z</time>
      </trkpt>
      <trkpt lat="41.27086667" lon="1.87933667">
        <ele>265.0</ele>
        <time>2019-12-21T12:58:40.411Z</time>
      </trkpt>
      <trkpt lat="41.27086667" lon="1.87933667">
        <ele>265.0</ele>
        <time>2019-12-21T12:58:41.399Z</time>
      </trkpt>
      <trkpt lat="41.27092333" lon="1.879455">
        <ele>265.0</ele>
        <time>2019-12-21T12:58:42.417Z</time>
      </trkpt>
      <trkpt lat="41.27092333" lon="1.879455">
        <ele>265.0</ele>
        <time>2019-12-21T12:58:43.400Z</time>
      </trkpt>
      <trkpt lat="41.27098667" lon="1.87957833">
        <ele>264.0</ele>
        <time>2019-12-21T12:58:44.422Z</time>
      </trkpt>
      <trkpt lat="41.27098667" lon="1.87957833">
        <ele>264.0</ele>
        <time>2019-12-21T12:58:45.408Z</time>
      </trkpt>
      <trkpt lat="41.27107833" lon="1.87966333">
        <ele>264.0</ele>
        <time>2019-12-21T12:58:46.431Z</time>
      </trkpt>
      <trkpt lat="41.27113167" lon="1.87968667">
        <ele>264.0</ele>
        <time>2019-12-21T12:58:47.415Z</time>
      </trkpt>
      <trkpt lat="41.271185" lon="1.87970333">
        <ele>264.0</ele>
        <time>2019-12-21T12:58:48.398Z</time>
      </trkpt>
      <trkpt lat="41.271185" lon="1.87970333">
        <ele>264.0</ele>
        <time>2019-12-21T12:58:49.417Z</time>
      </trkpt>
      <trkpt lat="41.27129" lon="1.87973333">
        <ele>264.0</ele>
        <time>2019-12-21T12:58:50.408Z</time>
      </trkpt>
      <trkpt lat="41.27134167" lon="1.87974833">
        <ele>263.0</ele>
        <time>2019-12-21T12:58:51.407Z</time>
      </trkpt>
      <trkpt lat="41.27139" lon="1.87976333">
        <ele>263.0</ele>
        <time>2019-12-21T12:58:52.430Z</time>
      </trkpt>
      <trkpt lat="41.27139" lon="1.87976333">
        <ele>263.0</ele>
        <time>2019-12-21T12:58:53.412Z</time>
      </trkpt>
      <trkpt lat="41.27148667" lon="1.879795">
        <ele>263.0</ele>
        <time>2019-12-21T12:58:54.401Z</time>
      </trkpt>
      <trkpt lat="41.27148667" lon="1.879795">
        <ele>263.0</ele>
        <time>2019-12-21T12:58:55.423Z</time>
      </trkpt>
      <trkpt lat="41.27158" lon="1.87984">
        <ele>262.0</ele>
        <time>2019-12-21T12:58:56.415Z</time>
      </trkpt>
      <trkpt lat="41.27158" lon="1.87984">
        <ele>262.0</ele>
        <time>2019-12-21T12:58:57.399Z</time>
      </trkpt>
      <trkpt lat="41.27167" lon="1.87989333">
        <ele>262.0</ele>
        <time>2019-12-21T12:58:58.423Z</time>
      </trkpt>
      <trkpt lat="41.271715" lon="1.87991667">
        <ele>261.0</ele>
        <time>2019-12-21T12:58:59.412Z</time>
      </trkpt>
      <trkpt lat="41.271715" lon="1.87991667">
        <ele>261.0</ele>
        <time>2019-12-21T12:59:00.397Z</time>
      </trkpt>
      <trkpt lat="41.271805" lon="1.87994167">
        <ele>261.0</ele>
        <time>2019-12-21T12:59:01.425Z</time>
      </trkpt>
      <trkpt lat="41.271805" lon="1.87994167">
        <ele>261.0</ele>
        <time>2019-12-21T12:59:02.411Z</time>
      </trkpt>
      <trkpt lat="41.2719" lon="1.879935">
        <ele>260.0</ele>
        <time>2019-12-21T12:59:03.399Z</time>
      </trkpt>
      <trkpt lat="41.2719" lon="1.879935">
        <ele>260.0</ele>
        <time>2019-12-21T12:59:04.421Z</time>
      </trkpt>
      <trkpt lat="41.27199" lon="1.879915">
        <ele>259.0</ele>
        <time>2019-12-21T12:59:05.412Z</time>
      </trkpt>
      <trkpt lat="41.27203333" lon="1.87990667">
        <ele>258.0</ele>
        <time>2019-12-21T12:59:06.399Z</time>
      </trkpt>
      <trkpt lat="41.27203333" lon="1.87990667">
        <ele>258.0</ele>
        <time>2019-12-21T12:59:07.421Z</time>
      </trkpt>
      <trkpt lat="41.27212167" lon="1.87990833">
        <ele>257.0</ele>
        <time>2019-12-21T12:59:08.411Z</time>
      </trkpt>
      <trkpt lat="41.27212167" lon="1.87990833">
        <ele>257.0</ele>
        <time>2019-12-21T12:59:09.429Z</time>
      </trkpt>
      <trkpt lat="41.27222" lon="1.87993833">
        <ele>255.0</ele>
        <time>2019-12-21T12:59:10.414Z</time>
      </trkpt>
      <trkpt lat="41.27226667" lon="1.87997">
        <ele>255.0</ele>
        <time>2019-12-21T12:59:11.400Z</time>
      </trkpt>
      <trkpt lat="41.27226667" lon="1.87997">
        <ele>255.0</ele>
        <time>2019-12-21T12:59:12.424Z</time>
      </trkpt>
      <trkpt lat="41.272325" lon="1.88008333">
        <ele>253.0</ele>
        <time>2019-12-21T12:59:13.416Z</time>
      </trkpt>
      <trkpt lat="41.272325" lon="1.88008333">
        <ele>253.0</ele>
        <time>2019-12-21T12:59:14.401Z</time>
      </trkpt>
      <trkpt lat="41.27234833" lon="1.880225">
        <ele>252.0</ele>
        <time>2019-12-21T12:59:15.426Z</time>
      </trkpt>
      <trkpt lat="41.27234833" lon="1.880225">
        <ele>252.0</ele>
        <time>2019-12-21T12:59:16.410Z</time>
      </trkpt>
      <trkpt lat="41.27235333" lon="1.88036667">
        <ele>251.0</ele>
        <time>2019-12-21T12:59:17.399Z</time>
      </trkpt>
      <trkpt lat="41.27235333" lon="1.88036667">
        <ele>251.0</ele>
        <time>2019-12-21T12:59:18.423Z</time>
      </trkpt>
      <trkpt lat="41.27235" lon="1.88050333">
        <ele>250.0</ele>
        <time>2019-12-21T12:59:19.416Z</time>
      </trkpt>
      <trkpt lat="41.27234167" lon="1.88056833">
        <ele>250.0</ele>
        <time>2019-12-21T12:59:20.404Z</time>
      </trkpt>
      <trkpt lat="41.27234167" lon="1.88056833">
        <ele>250.0</ele>
        <time>2019-12-21T12:59:21.427Z</time>
      </trkpt>
      <trkpt lat="41.27231833" lon="1.88068667">
        <ele>249.0</ele>
        <time>2019-12-21T12:59:22.421Z</time>
      </trkpt>
      <trkpt lat="41.27231833" lon="1.88068667">
        <ele>249.0</ele>
        <time>2019-12-21T12:59:23.403Z</time>
      </trkpt>
      <trkpt lat="41.2723" lon="1.88079833">
        <ele>248.0</ele>
        <time>2019-12-21T12:59:24.427Z</time>
      </trkpt>
      <trkpt lat="41.2723" lon="1.88079833">
        <ele>248.0</ele>
        <time>2019-12-21T12:59:25.410Z</time>
      </trkpt>
      <trkpt lat="41.27231667" lon="1.88089167">
        <ele>248.0</ele>
        <time>2019-12-21T12:59:26.399Z</time>
      </trkpt>
      <trkpt lat="41.27231667" lon="1.88089167">
        <ele>248.0</ele>
        <time>2019-12-21T12:59:27.429Z</time>
      </trkpt>
      <trkpt lat="41.27235667" lon="1.880965">
        <ele>247.0</ele>
        <time>2019-12-21T12:59:28.418Z</time>
      </trkpt>
      <trkpt lat="41.27238167" lon="1.88099">
        <ele>247.0</ele>
        <time>2019-12-21T12:59:29.404Z</time>
      </trkpt>
      <trkpt lat="41.27238167" lon="1.88099">
        <ele>247.0</ele>
        <time>2019-12-21T12:59:30.428Z</time>
      </trkpt>
      <trkpt lat="41.272445" lon="1.88102">
        <ele>246.0</ele>
        <time>2019-12-21T12:59:31.415Z</time>
      </trkpt>
      <trkpt lat="41.272445" lon="1.88102">
        <ele>246.0</ele>
        <time>2019-12-21T12:59:32.406Z</time>
      </trkpt>
      <trkpt lat="41.27251833" lon="1.88100333">
        <ele>247.0</ele>
        <time>2019-12-21T12:59:33.431Z</time>
      </trkpt>
      <trkpt lat="41.27255167" lon="1.88098">
        <ele>246.0</ele>
        <time>2019-12-21T12:59:34.416Z</time>
      </trkpt>
      <trkpt lat="41.27255167" lon="1.88098">
        <ele>246.0</ele>
        <time>2019-12-21T12:59:35.416Z</time>
      </trkpt>
      <trkpt lat="41.27260833" lon="1.88092">
        <ele>246.0</ele>
        <time>2019-12-21T12:59:36.417Z</time>
      </trkpt>
      <trkpt lat="41.27260833" lon="1.88092">
        <ele>246.0</ele>
        <time>2019-12-21T12:59:37.403Z</time>
      </trkpt>
      <trkpt lat="41.27265" lon="1.88084">
        <ele>246.0</ele>
        <time>2019-12-21T12:59:38.426Z</time>
      </trkpt>
      <trkpt lat="41.27265" lon="1.88084">
        <ele>246.0</ele>
        <time>2019-12-21T12:59:39.409Z</time>
      </trkpt>
      <trkpt lat="41.272715" lon="1.880775">
        <ele>247.0</ele>
        <time>2019-12-21T12:59:40.436Z</time>
      </trkpt>
      <trkpt lat="41.272715" lon="1.880775">
        <ele>247.0</ele>
        <time>2019-12-21T12:59:41.437Z</time>
      </trkpt>
      <trkpt lat="41.27281667" lon="1.880745">
        <ele>247.0</ele>
        <time>2019-12-21T12:59:42.421Z</time>
      </trkpt>
      <trkpt lat="41.27281667" lon="1.880745">
        <ele>247.0</ele>
        <time>2019-12-21T12:59:43.403Z</time>
      </trkpt>
      <trkpt lat="41.272885" lon="1.88069667">
        <ele>247.0</ele>
        <time>2019-12-21T12:59:44.426Z</time>
      </trkpt>
      <trkpt lat="41.27289667" lon="1.880655">
        <ele>247.0</ele>
        <time>2019-12-21T12:59:45.416Z</time>
      </trkpt>
      <trkpt lat="41.27289667" lon="1.880655">
        <ele>247.0</ele>
        <time>2019-12-21T12:59:46.429Z</time>
      </trkpt>
      <trkpt lat="41.272905" lon="1.880565">
        <ele>247.0</ele>
        <time>2019-12-21T12:59:47.406Z</time>
      </trkpt>
      <trkpt lat="41.27290333" lon="1.88052">
        <ele>248.0</ele>
        <time>2019-12-21T12:59:48.399Z</time>
      </trkpt>
      <trkpt lat="41.27290333" lon="1.88052">
        <ele>248.0</ele>
        <time>2019-12-21T12:59:49.418Z</time>
      </trkpt>
      <trkpt lat="41.27289" lon="1.88044">
        <ele>248.0</ele>
        <time>2019-12-21T12:59:50.408Z</time>
      </trkpt>
      <trkpt lat="41.27287833" lon="1.88040833">
        <ele>248.0</ele>
        <time>2019-12-21T12:59:51.399Z</time>
      </trkpt>
      <trkpt lat="41.27287833" lon="1.88040833">
        <ele>248.0</ele>
        <time>2019-12-21T12:59:52.431Z</time>
      </trkpt>
      <trkpt lat="41.27285833" lon="1.88033833">
        <ele>249.0</ele>
        <time>2019-12-21T12:59:53.415Z</time>
      </trkpt>
      <trkpt lat="41.27284833" lon="1.880295">
        <ele>249.0</ele>
        <time>2019-12-21T12:59:54.405Z</time>
      </trkpt>
      <trkpt lat="41.27284833" lon="1.880295">
        <ele>249.0</ele>
        <time>2019-12-21T12:59:55.430Z</time>
      </trkpt>
      <trkpt lat="41.27284333" lon="1.8802">
        <ele>249.0</ele>
        <time>2019-12-21T12:59:56.419Z</time>
      </trkpt>
      <trkpt lat="41.27284333" lon="1.8802">
        <ele>249.0</ele>
        <time>2019-12-21T12:59:57.405Z</time>
      </trkpt>
      <trkpt lat="41.27285333" lon="1.88010167">
        <ele>248.0</ele>
        <time>2019-12-21T12:59:58.429Z</time>
      </trkpt>
      <trkpt lat="41.27286167" lon="1.88005333">
        <ele>248.0</ele>
        <time>2019-12-21T12:59:59.425Z</time>
      </trkpt>
      <trkpt lat="41.27286667" lon="1.88000667">
        <ele>248.0</ele>
        <time>2019-12-21T13:00:00.422Z</time>
      </trkpt>
      <trkpt lat="41.27286667" lon="1.88000667">
        <ele>248.0</ele>
        <time>2019-12-21T13:00:01.406Z</time>
      </trkpt>
      <trkpt lat="41.272875" lon="1.87991167">
        <ele>249.0</ele>
        <time>2019-12-21T13:00:02.434Z</time>
      </trkpt>
      <trkpt lat="41.27288" lon="1.879865">
        <ele>249.0</ele>
        <time>2019-12-21T13:00:03.424Z</time>
      </trkpt>
      <trkpt lat="41.27288333" lon="1.87981833">
        <ele>249.0</ele>
        <time>2019-12-21T13:00:04.413Z</time>
      </trkpt>
      <trkpt lat="41.27288333" lon="1.87981833">
        <ele>249.0</ele>
        <time>2019-12-21T13:00:05.399Z</time>
      </trkpt>
      <trkpt lat="41.272885" lon="1.87973833">
        <ele>250.0</ele>
        <time>2019-12-21T13:00:06.421Z</time>
      </trkpt>
      <trkpt lat="41.272885" lon="1.87973833">
        <ele>250.0</ele>
        <time>2019-12-21T13:00:07.406Z</time>
      </trkpt>
      <trkpt lat="41.272885" lon="1.87966333">
        <ele>250.0</ele>
        <time>2019-12-21T13:00:08.399Z</time>
      </trkpt>
      <trkpt lat="41.272885" lon="1.87961667">
        <ele>250.0</ele>
        <time>2019-12-21T13:00:09.421Z</time>
      </trkpt>
      <trkpt lat="41.272885" lon="1.87961667">
        <ele>250.0</ele>
        <time>2019-12-21T13:00:10.405Z</time>
      </trkpt>
      <trkpt lat="41.272875" lon="1.87951333">
        <ele>250.0</ele>
        <time>2019-12-21T13:00:11.431Z</time>
      </trkpt>
      <trkpt lat="41.27287333" lon="1.87946">
        <ele>249.0</ele>
        <time>2019-12-21T13:00:12.426Z</time>
      </trkpt>
      <trkpt lat="41.27287333" lon="1.87946">
        <ele>249.0</ele>
        <time>2019-12-21T13:00:13.409Z</time>
      </trkpt>
      <trkpt lat="41.27286833" lon="1.87934833">
        <ele>249.0</ele>
        <time>2019-12-21T13:00:14.411Z</time>
      </trkpt>
      <trkpt lat="41.27286833" lon="1.87934833">
        <ele>249.0</ele>
        <time>2019-12-21T13:00:15.435Z</time>
      </trkpt>
      <trkpt lat="41.27287167" lon="1.87923667">
        <ele>249.0</ele>
        <time>2019-12-21T13:00:16.434Z</time>
      </trkpt>
      <trkpt lat="41.27287167" lon="1.87923667">
        <ele>249.0</ele>
        <time>2019-12-21T13:00:17.416Z</time>
      </trkpt>
      <trkpt lat="41.27289333" lon="1.87913333">
        <ele>248.0</ele>
        <time>2019-12-21T13:00:18.404Z</time>
      </trkpt>
      <trkpt lat="41.27289333" lon="1.87913333">
        <ele>248.0</ele>
        <time>2019-12-21T13:00:19.427Z</time>
      </trkpt>
      <trkpt lat="41.27289333" lon="1.87903167">
        <ele>248.0</ele>
        <time>2019-12-21T13:00:20.423Z</time>
      </trkpt>
      <trkpt lat="41.27289333" lon="1.87903167">
        <ele>248.0</ele>
        <time>2019-12-21T13:00:21.408Z</time>
      </trkpt>
      <trkpt lat="41.27288167" lon="1.87892">
        <ele>248.0</ele>
        <time>2019-12-21T13:00:22.404Z</time>
      </trkpt>
      <trkpt lat="41.27288167" lon="1.87892">
        <ele>248.0</ele>
        <time>2019-12-21T13:00:23.420Z</time>
      </trkpt>
      <trkpt lat="41.27289" lon="1.87879667">
        <ele>247.0</ele>
        <time>2019-12-21T13:00:24.403Z</time>
      </trkpt>
      <trkpt lat="41.27289" lon="1.87879667">
        <ele>247.0</ele>
        <time>2019-12-21T13:00:25.426Z</time>
      </trkpt>
      <trkpt lat="41.27292167" lon="1.87866833">
        <ele>246.0</ele>
        <time>2019-12-21T13:00:26.415Z</time>
      </trkpt>
      <trkpt lat="41.27292167" lon="1.87866833">
        <ele>246.0</ele>
        <time>2019-12-21T13:00:27.404Z</time>
      </trkpt>
      <trkpt lat="41.27298667" lon="1.87853167">
        <ele>245.0</ele>
        <time>2019-12-21T13:00:28.424Z</time>
      </trkpt>
      <trkpt lat="41.27302667" lon="1.87846167">
        <ele>244.0</ele>
        <time>2019-12-21T13:00:29.414Z</time>
      </trkpt>
      <trkpt lat="41.27306833" lon="1.87839667">
        <ele>244.0</ele>
        <time>2019-12-21T13:00:30.401Z</time>
      </trkpt>
      <trkpt lat="41.27306833" lon="1.87839667">
        <ele>244.0</ele>
        <time>2019-12-21T13:00:31.424Z</time>
      </trkpt>
      <trkpt lat="41.27315833" lon="1.87829667">
        <ele>243.0</ele>
        <time>2019-12-21T13:00:32.419Z</time>
      </trkpt>
      <trkpt lat="41.27320667" lon="1.878265">
        <ele>242.0</ele>
        <time>2019-12-21T13:00:33.399Z</time>
      </trkpt>
      <trkpt lat="41.27320667" lon="1.878265">
        <ele>242.0</ele>
        <time>2019-12-21T13:00:34.423Z</time>
      </trkpt>
      <trkpt lat="41.273315" lon="1.87821833">
        <ele>241.0</ele>
        <time>2019-12-21T13:00:35.417Z</time>
      </trkpt>
      <trkpt lat="41.27337333" lon="1.87820833">
        <ele>241.0</ele>
        <time>2019-12-21T13:00:36.409Z</time>
      </trkpt>
      <trkpt lat="41.27337333" lon="1.87820833">
        <ele>241.0</ele>
        <time>2019-12-21T13:00:37.435Z</time>
      </trkpt>
      <trkpt lat="41.27347667" lon="1.87820333">
        <ele>241.0</ele>
        <time>2019-12-21T13:00:38.420Z</time>
      </trkpt>
      <trkpt lat="41.27347667" lon="1.87820333">
        <ele>241.0</ele>
        <time>2019-12-21T13:00:39.403Z</time>
      </trkpt>
      <trkpt lat="41.273565" lon="1.878135">
        <ele>241.0</ele>
        <time>2019-12-21T13:00:40.435Z</time>
      </trkpt>
      <trkpt lat="41.27359333" lon="1.87808667">
        <ele>241.0</ele>
        <time>2019-12-21T13:00:41.430Z</time>
      </trkpt>
      <trkpt lat="41.27361667" lon="1.87803667">
        <ele>241.0</ele>
        <time>2019-12-21T13:00:42.425Z</time>
      </trkpt>
      <trkpt lat="41.27361667" lon="1.87803667">
        <ele>241.0</ele>
        <time>2019-12-21T13:00:43.402Z</time>
      </trkpt>
      <trkpt lat="41.27363167" lon="1.87793833">
        <ele>241.0</ele>
        <time>2019-12-21T13:00:44.425Z</time>
      </trkpt>
      <trkpt lat="41.273625" lon="1.87789">
        <ele>241.0</ele>
        <time>2019-12-21T13:00:45.417Z</time>
      </trkpt>
      <trkpt lat="41.273625" lon="1.87789">
        <ele>241.0</ele>
        <time>2019-12-21T13:00:46.404Z</time>
      </trkpt>
      <trkpt lat="41.27358833" lon="1.877815">
        <ele>241.0</ele>
        <time>2019-12-21T13:00:47.432Z</time>
      </trkpt>
      <trkpt lat="41.27355833" lon="1.87777833">
        <ele>241.0</ele>
        <time>2019-12-21T13:00:48.425Z</time>
      </trkpt>
      <trkpt lat="41.27355833" lon="1.87777833">
        <ele>241.0</ele>
        <time>2019-12-21T13:00:49.408Z</time>
      </trkpt>
      <trkpt lat="41.27350167" lon="1.87774833">
        <ele>241.0</ele>
        <time>2019-12-21T13:00:50.432Z</time>
      </trkpt>
      <trkpt lat="41.27350167" lon="1.87774833">
        <ele>241.0</ele>
        <time>2019-12-21T13:00:51.414Z</time>
      </trkpt>
      <trkpt lat="41.27345333" lon="1.87775">
        <ele>241.0</ele>
        <time>2019-12-21T13:00:52.397Z</time>
      </trkpt>
      <trkpt lat="41.27345333" lon="1.87775">
        <ele>241.0</ele>
        <time>2019-12-21T13:00:53.413Z</time>
      </trkpt>
      <trkpt lat="41.27342667" lon="1.87773667">
        <ele>241.0</ele>
        <time>2019-12-21T13:00:54.401Z</time>
      </trkpt>
      <trkpt lat="41.27342667" lon="1.87773667">
        <ele>241.0</ele>
        <time>2019-12-21T13:00:55.399Z</time>
      </trkpt>
      <trkpt lat="41.27339667" lon="1.87771667">
        <ele>241.0</ele>
        <time>2019-12-21T13:00:56.421Z</time>
      </trkpt>
      <trkpt lat="41.27337667" lon="1.877705">
        <ele>241.0</ele>
        <time>2019-12-21T13:00:57.411Z</time>
      </trkpt>
      <trkpt lat="41.27337667" lon="1.877705">
        <ele>241.0</ele>
        <time>2019-12-21T13:00:58.398Z</time>
      </trkpt>
      <trkpt lat="41.27332333" lon="1.87767667">
        <ele>240.0</ele>
        <time>2019-12-21T13:00:59.418Z</time>
      </trkpt>
      <trkpt lat="41.273295" lon="1.87765833">
        <ele>240.0</ele>
        <time>2019-12-21T13:01:00.417Z</time>
      </trkpt>
      <trkpt lat="41.273295" lon="1.87765833">
        <ele>240.0</ele>
        <time>2019-12-21T13:01:01.406Z</time>
      </trkpt>
      <trkpt lat="41.27323833" lon="1.87762333">
        <ele>240.0</ele>
        <time>2019-12-21T13:01:02.429Z</time>
      </trkpt>
      <trkpt lat="41.27321167" lon="1.87760167">
        <ele>240.0</ele>
        <time>2019-12-21T13:01:03.415Z</time>
      </trkpt>
      <trkpt lat="41.27321167" lon="1.87760167">
        <ele>240.0</ele>
        <time>2019-12-21T13:01:04.402Z</time>
      </trkpt>
      <trkpt lat="41.27315833" lon="1.87756333">
        <ele>241.0</ele>
        <time>2019-12-21T13:01:05.423Z</time>
      </trkpt>
      <trkpt lat="41.27313167" lon="1.87755">
        <ele>241.0</ele>
        <time>2019-12-21T13:01:06.406Z</time>
      </trkpt>
      <trkpt lat="41.27313167" lon="1.87755">
        <ele>241.0</ele>
        <time>2019-12-21T13:01:07.430Z</time>
      </trkpt>
      <trkpt lat="41.27308167" lon="1.87752333">
        <ele>241.0</ele>
        <time>2019-12-21T13:01:08.425Z</time>
      </trkpt>
      <trkpt lat="41.27308167" lon="1.87752333">
        <ele>241.0</ele>
        <time>2019-12-21T13:01:09.411Z</time>
      </trkpt>
      <trkpt lat="41.27303" lon="1.877505">
        <ele>241.0</ele>
        <time>2019-12-21T13:01:10.399Z</time>
      </trkpt>
      <trkpt lat="41.27300333" lon="1.87750333">
        <ele>241.0</ele>
        <time>2019-12-21T13:01:11.423Z</time>
      </trkpt>
      <trkpt lat="41.27300333" lon="1.87750333">
        <ele>241.0</ele>
        <time>2019-12-21T13:01:12.408Z</time>
      </trkpt>
      <trkpt lat="41.27295167" lon="1.877505">
        <ele>241.0</ele>
        <time>2019-12-21T13:01:13.401Z</time>
      </trkpt>
      <trkpt lat="41.27295167" lon="1.877505">
        <ele>241.0</ele>
        <time>2019-12-21T13:01:14.426Z</time>
      </trkpt>
      <trkpt lat="41.27289333" lon="1.877525">
        <ele>242.0</ele>
        <time>2019-12-21T13:01:15.417Z</time>
      </trkpt>
      <trkpt lat="41.27289333" lon="1.877525">
        <ele>242.0</ele>
        <time>2019-12-21T13:01:16.401Z</time>
      </trkpt>
      <trkpt lat="41.27284" lon="1.87754667">
        <ele>243.0</ele>
        <time>2019-12-21T13:01:17.424Z</time>
      </trkpt>
      <trkpt lat="41.27281667" lon="1.87755333">
        <ele>243.0</ele>
        <time>2019-12-21T13:01:18.413Z</time>
      </trkpt>
      <trkpt lat="41.27281667" lon="1.87755333">
        <ele>243.0</ele>
        <time>2019-12-21T13:01:19.436Z</time>
      </trkpt>
      <trkpt lat="41.27276333" lon="1.87756333">
        <ele>243.0</ele>
        <time>2019-12-21T13:01:20.428Z</time>
      </trkpt>
      <trkpt lat="41.27276333" lon="1.87756333">
        <ele>243.0</ele>
        <time>2019-12-21T13:01:21.410Z</time>
      </trkpt>
      <trkpt lat="41.27272167" lon="1.87758">
        <ele>244.0</ele>
        <time>2019-12-21T13:01:22.399Z</time>
      </trkpt>
      <trkpt lat="41.27272167" lon="1.87758">
        <ele>244.0</ele>
        <time>2019-12-21T13:01:23.433Z</time>
      </trkpt>
      <trkpt lat="41.272695" lon="1.87759167">
        <ele>244.0</ele>
        <time>2019-12-21T13:01:24.420Z</time>
      </trkpt>
      <trkpt lat="41.27267333" lon="1.87760333">
        <ele>244.0</ele>
        <time>2019-12-21T13:01:25.402Z</time>
      </trkpt>
      <trkpt lat="41.27267333" lon="1.87760333">
        <ele>244.0</ele>
        <time>2019-12-21T13:01:26.425Z</time>
      </trkpt>
      <trkpt lat="41.27263833" lon="1.87761333">
        <ele>245.0</ele>
        <time>2019-12-21T13:01:27.417Z</time>
      </trkpt>
      <trkpt lat="41.27263833" lon="1.87761333">
        <ele>245.0</ele>
        <time>2019-12-21T13:01:28.408Z</time>
      </trkpt>
      <trkpt lat="41.27259833" lon="1.87762833">
        <ele>245.0</ele>
        <time>2019-12-21T13:01:29.428Z</time>
      </trkpt>
      <trkpt lat="41.27259833" lon="1.87762833">
        <ele>245.0</ele>
        <time>2019-12-21T13:01:30.410Z</time>
      </trkpt>
      <trkpt lat="41.27256333" lon="1.87765333">
        <ele>246.0</ele>
        <time>2019-12-21T13:01:31.399Z</time>
      </trkpt>
      <trkpt lat="41.27256333" lon="1.87765333">
        <ele>246.0</ele>
        <time>2019-12-21T13:01:32.421Z</time>
      </trkpt>
      <trkpt lat="41.27253167" lon="1.87768167">
        <ele>247.0</ele>
        <time>2019-12-21T13:01:33.425Z</time>
      </trkpt>
      <trkpt lat="41.27253167" lon="1.87768167">
        <ele>247.0</ele>
        <time>2019-12-21T13:01:34.408Z</time>
      </trkpt>
      <trkpt lat="41.2725" lon="1.87771333">
        <ele>248.0</ele>
        <time>2019-12-21T13:01:35.432Z</time>
      </trkpt>
      <trkpt lat="41.2725" lon="1.87771333">
        <ele>248.0</ele>
        <time>2019-12-21T13:01:36.416Z</time>
      </trkpt>
      <trkpt lat="41.27246667" lon="1.877745">
        <ele>248.0</ele>
        <time>2019-12-21T13:01:37.407Z</time>
      </trkpt>
      <trkpt lat="41.27244833" lon="1.87775833">
        <ele>249.0</ele>
        <time>2019-12-21T13:01:38.408Z</time>
      </trkpt>
      <trkpt lat="41.272425" lon="1.87777167">
        <ele>249.0</ele>
        <time>2019-12-21T13:01:39.434Z</time>
      </trkpt>
      <trkpt lat="41.272425" lon="1.87777167">
        <ele>249.0</ele>
        <time>2019-12-21T13:01:40.417Z</time>
      </trkpt>
      <trkpt lat="41.27237833" lon="1.87779167">
        <ele>249.0</ele>
        <time>2019-12-21T13:01:41.428Z</time>
      </trkpt>
      <trkpt lat="41.27237833" lon="1.87779167">
        <ele>249.0</ele>
        <time>2019-12-21T13:01:42.429Z</time>
      </trkpt>
      <trkpt lat="41.27233167" lon="1.87779">
        <ele>250.0</ele>
        <time>2019-12-21T13:01:43.412Z</time>
      </trkpt>
      <trkpt lat="41.27233167" lon="1.87779">
        <ele>250.0</ele>
        <time>2019-12-21T13:01:44.437Z</time>
      </trkpt>
      <trkpt lat="41.27228667" lon="1.87778833">
        <ele>250.0</ele>
        <time>2019-12-21T13:01:45.424Z</time>
      </trkpt>
      <trkpt lat="41.27227167" lon="1.87778667">
        <ele>250.0</ele>
        <time>2019-12-21T13:01:46.413Z</time>
      </trkpt>
      <trkpt lat="41.272255" lon="1.87778167">
        <ele>251.0</ele>
        <time>2019-12-21T13:01:47.420Z</time>
      </trkpt>
      <trkpt lat="41.27223667" lon="1.877775">
        <ele>251.0</ele>
        <time>2019-12-21T13:01:48.408Z</time>
      </trkpt>
      <trkpt lat="41.27223667" lon="1.877775">
        <ele>251.0</ele>
        <time>2019-12-21T13:01:49.427Z</time>
      </trkpt>
      <trkpt lat="41.272185" lon="1.877765">
        <ele>251.0</ele>
        <time>2019-12-21T13:01:50.419Z</time>
      </trkpt>
      <trkpt lat="41.272185" lon="1.877765">
        <ele>251.0</ele>
        <time>2019-12-21T13:01:51.407Z</time>
      </trkpt>
      <trkpt lat="41.27212833" lon="1.87775333">
        <ele>252.0</ele>
        <time>2019-12-21T13:01:52.431Z</time>
      </trkpt>
      <trkpt lat="41.27210333" lon="1.87775167">
        <ele>252.0</ele>
        <time>2019-12-21T13:01:53.418Z</time>
      </trkpt>
      <trkpt lat="41.27210333" lon="1.87775167">
        <ele>252.0</ele>
        <time>2019-12-21T13:01:54.402Z</time>
      </trkpt>
      <trkpt lat="41.27205667" lon="1.87774833">
        <ele>253.0</ele>
        <time>2019-12-21T13:01:55.426Z</time>
      </trkpt>
      <trkpt lat="41.272035" lon="1.87774">
        <ele>253.0</ele>
        <time>2019-12-21T13:01:56.412Z</time>
      </trkpt>
      <trkpt lat="41.272035" lon="1.87774">
        <ele>253.0</ele>
        <time>2019-12-21T13:01:57.400Z</time>
      </trkpt>
      <trkpt lat="41.271995" lon="1.877715">
        <ele>254.0</ele>
        <time>2019-12-21T13:01:58.425Z</time>
      </trkpt>
      <trkpt lat="41.271995" lon="1.877715">
        <ele>254.0</ele>
        <time>2019-12-21T13:01:59.407Z</time>
      </trkpt>
      <trkpt lat="41.27196333" lon="1.87767667">
        <ele>255.0</ele>
        <time>2019-12-21T13:02:00.431Z</time>
      </trkpt>
      <trkpt lat="41.27194833" lon="1.87765167">
        <ele>255.0</ele>
        <time>2019-12-21T13:02:01.414Z</time>
      </trkpt>
      <trkpt lat="41.27193333" lon="1.87762833">
        <ele>256.0</ele>
        <time>2019-12-21T13:02:02.401Z</time>
      </trkpt>
      <trkpt lat="41.27193333" lon="1.87762833">
        <ele>256.0</ele>
        <time>2019-12-21T13:02:03.428Z</time>
      </trkpt>
      <trkpt lat="41.271905" lon="1.87757833">
        <ele>257.0</ele>
        <time>2019-12-21T13:02:04.417Z</time>
      </trkpt>
      <trkpt lat="41.27189667" lon="1.87755167">
        <ele>257.0</ele>
        <time>2019-12-21T13:02:05.402Z</time>
      </trkpt>
      <trkpt lat="41.27189667" lon="1.87755167">
        <ele>257.0</ele>
        <time>2019-12-21T13:02:06.424Z</time>
      </trkpt>
      <trkpt lat="41.27187667" lon="1.87749667">
        <ele>258.0</ele>
        <time>2019-12-21T13:02:07.416Z</time>
      </trkpt>
      <trkpt lat="41.27187667" lon="1.87749667">
        <ele>258.0</ele>
        <time>2019-12-21T13:02:08.408Z</time>
      </trkpt>
      <trkpt lat="41.27186833" lon="1.87744167">
        <ele>259.0</ele>
        <time>2019-12-21T13:02:09.436Z</time>
      </trkpt>
      <trkpt lat="41.27186667" lon="1.87741667">
        <ele>259.0</ele>
        <time>2019-12-21T13:02:10.422Z</time>
      </trkpt>
      <trkpt lat="41.27186667" lon="1.87741667">
        <ele>259.0</ele>
        <time>2019-12-21T13:02:11.405Z</time>
      </trkpt>
      <trkpt lat="41.27186" lon="1.87736333">
        <ele>260.0</ele>
        <time>2019-12-21T13:02:12.428Z</time>
      </trkpt>
      <trkpt lat="41.27186" lon="1.87736333">
        <ele>260.0</ele>
        <time>2019-12-21T13:02:13.417Z</time>
      </trkpt>
      <trkpt lat="41.271855" lon="1.87731167">
        <ele>261.0</ele>
        <time>2019-12-21T13:02:14.397Z</time>
      </trkpt>
      <trkpt lat="41.27185167" lon="1.87728333">
        <ele>261.0</ele>
        <time>2019-12-21T13:02:15.419Z</time>
      </trkpt>
      <trkpt lat="41.27185167" lon="1.87728333">
        <ele>261.0</ele>
        <time>2019-12-21T13:02:16.403Z</time>
      </trkpt>
      <trkpt lat="41.271845" lon="1.87721833">
        <ele>261.0</ele>
        <time>2019-12-21T13:02:17.410Z</time>
      </trkpt>
      <trkpt lat="41.27184" lon="1.87718667">
        <ele>261.0</ele>
        <time>2019-12-21T13:02:18.436Z</time>
      </trkpt>
      <trkpt lat="41.27184" lon="1.87718667">
        <ele>261.0</ele>
        <time>2019-12-21T13:02:19.418Z</time>
      </trkpt>
      <trkpt lat="41.27183333" lon="1.87712167">
        <ele>261.0</ele>
        <time>2019-12-21T13:02:20.410Z</time>
      </trkpt>
      <trkpt lat="41.27182833" lon="1.877085">
        <ele>261.0</ele>
        <time>2019-12-21T13:02:21.433Z</time>
      </trkpt>
      <trkpt lat="41.27182833" lon="1.877085">
        <ele>261.0</ele>
        <time>2019-12-21T13:02:22.416Z</time>
      </trkpt>
      <trkpt lat="41.27181667" lon="1.87702167">
        <ele>262.0</ele>
        <time>2019-12-21T13:02:23.423Z</time>
      </trkpt>
      <trkpt lat="41.27181667" lon="1.87702167">
        <ele>262.0</ele>
        <time>2019-12-21T13:02:24.414Z</time>
      </trkpt>
      <trkpt lat="41.27181" lon="1.87695667">
        <ele>262.0</ele>
        <time>2019-12-21T13:02:25.410Z</time>
      </trkpt>
      <trkpt lat="41.27181" lon="1.87695667">
        <ele>262.0</ele>
        <time>2019-12-21T13:02:26.436Z</time>
      </trkpt>
      <trkpt lat="41.27183167" lon="1.87690833">
        <ele>262.0</ele>
        <time>2019-12-21T13:02:27.426Z</time>
      </trkpt>
      <trkpt lat="41.27185167" lon="1.87691333">
        <ele>262.0</ele>
        <time>2019-12-21T13:02:28.420Z</time>
      </trkpt>
      <trkpt lat="41.27185167" lon="1.87691333">
        <ele>262.0</ele>
        <time>2019-12-21T13:02:29.409Z</time>
      </trkpt>
      <trkpt lat="41.27188" lon="1.87694833">
        <ele>263.0</ele>
        <time>2019-12-21T13:02:30.433Z</time>
      </trkpt>
      <trkpt lat="41.27188" lon="1.87694833">
        <ele>263.0</ele>
        <time>2019-12-21T13:02:31.416Z</time>
      </trkpt>
      <trkpt lat="41.27190833" lon="1.87698833">
        <ele>263.0</ele>
        <time>2019-12-21T13:02:32.401Z</time>
      </trkpt>
      <trkpt lat="41.27190833" lon="1.87698833">
        <ele>263.0</ele>
        <time>2019-12-21T13:02:33.429Z</time>
      </trkpt>
      <trkpt lat="41.27191" lon="1.87702167">
        <ele>264.0</ele>
        <time>2019-12-21T13:02:34.410Z</time>
      </trkpt>
      <trkpt lat="41.27191" lon="1.87702167">
        <ele>264.0</ele>
        <time>2019-12-21T13:02:35.436Z</time>
      </trkpt>
      <trkpt lat="41.271915" lon="1.877075">
        <ele>264.0</ele>
        <time>2019-12-21T13:02:36.419Z</time>
      </trkpt>
      <trkpt lat="41.271925" lon="1.87709333">
        <ele>264.0</ele>
        <time>2019-12-21T13:02:37.402Z</time>
      </trkpt>
      <trkpt lat="41.271925" lon="1.87709333">
        <ele>264.0</ele>
        <time>2019-12-21T13:02:38.426Z</time>
      </trkpt>
      <trkpt lat="41.27193667" lon="1.87709167">
        <ele>265.0</ele>
        <time>2019-12-21T13:02:39.416Z</time>
      </trkpt>
      <trkpt lat="41.27193667" lon="1.87709167">
        <ele>265.0</ele>
        <time>2019-12-21T13:02:40.402Z</time>
      </trkpt>
      <trkpt lat="41.27195" lon="1.87705333">
        <ele>265.0</ele>
        <time>2019-12-21T13:02:41.416Z</time>
      </trkpt>
      <trkpt lat="41.271965" lon="1.877035">
        <ele>265.0</ele>
        <time>2019-12-21T13:02:42.401Z</time>
      </trkpt>
      <trkpt lat="41.271965" lon="1.877035">
        <ele>265.0</ele>
        <time>2019-12-21T13:02:43.426Z</time>
      </trkpt>
      <trkpt lat="41.27200667" lon="1.87699333">
        <ele>265.0</ele>
        <time>2019-12-21T13:02:44.428Z</time>
      </trkpt>
      <trkpt lat="41.27202833" lon="1.87699">
        <ele>265.0</ele>
        <time>2019-12-21T13:02:45.425Z</time>
      </trkpt>
      <trkpt lat="41.27202833" lon="1.87699">
        <ele>265.0</ele>
        <time>2019-12-21T13:02:46.408Z</time>
      </trkpt>
      <trkpt lat="41.27207" lon="1.87699167">
        <ele>266.0</ele>
        <time>2019-12-21T13:02:47.432Z</time>
      </trkpt>
      <trkpt lat="41.27207" lon="1.87699167">
        <ele>266.0</ele>
        <time>2019-12-21T13:02:48.422Z</time>
      </trkpt>
      <trkpt lat="41.27211" lon="1.87700333">
        <ele>266.0</ele>
        <time>2019-12-21T13:02:49.417Z</time>
      </trkpt>
      <trkpt lat="41.27212667" lon="1.87702">
        <ele>266.0</ele>
        <time>2019-12-21T13:02:50.408Z</time>
      </trkpt>
      <trkpt lat="41.27212667" lon="1.87702">
        <ele>266.0</ele>
        <time>2019-12-21T13:02:51.430Z</time>
      </trkpt>
      <trkpt lat="41.272145" lon="1.87703833">
        <ele>267.0</ele>
        <time>2019-12-21T13:02:52.419Z</time>
      </trkpt>
      <trkpt lat="41.272145" lon="1.87703833">
        <ele>267.0</ele>
        <time>2019-12-21T13:02:53.401Z</time>
      </trkpt>
      <trkpt lat="41.27217167" lon="1.87703833">
        <ele>267.0</ele>
        <time>2019-12-21T13:02:54.429Z</time>
      </trkpt>
      <trkpt lat="41.272175" lon="1.87703667">
        <ele>267.0</ele>
        <time>2019-12-21T13:02:55.413Z</time>
      </trkpt>
      <trkpt lat="41.27217" lon="1.877035">
        <ele>267.0</ele>
        <time>2019-12-21T13:02:56.430Z</time>
      </trkpt>
      <trkpt lat="41.27217" lon="1.877035">
        <ele>267.0</ele>
        <time>2019-12-21T13:02:57.412Z</time>
      </trkpt>
      <trkpt lat="41.27221667" lon="1.87701">
        <ele>266.0</ele>
        <time>2019-12-21T13:02:58.397Z</time>
      </trkpt>
      <trkpt lat="41.27223333" lon="1.876995">
        <ele>266.0</ele>
        <time>2019-12-21T13:02:59.423Z</time>
      </trkpt>
      <trkpt lat="41.27223333" lon="1.876995">
        <ele>266.0</ele>
        <time>2019-12-21T13:03:00.408Z</time>
      </trkpt>
      <trkpt lat="41.27226667" lon="1.87696833">
        <ele>266.0</ele>
        <time>2019-12-21T13:03:01.432Z</time>
      </trkpt>
      <trkpt lat="41.27228167" lon="1.87695167">
        <ele>266.0</ele>
        <time>2019-12-21T13:03:02.415Z</time>
      </trkpt>
      <trkpt lat="41.27230167" lon="1.87693833">
        <ele>266.0</ele>
        <time>2019-12-21T13:03:03.398Z</time>
      </trkpt>
      <trkpt lat="41.27232667" lon="1.87692">
        <ele>266.0</ele>
        <time>2019-12-21T13:03:04.431Z</time>
      </trkpt>
      <trkpt lat="41.27232667" lon="1.87692">
        <ele>266.0</ele>
        <time>2019-12-21T13:03:05.415Z</time>
      </trkpt>
      <trkpt lat="41.27236667" lon="1.8769">
        <ele>266.0</ele>
        <time>2019-12-21T13:03:06.402Z</time>
      </trkpt>
      <trkpt lat="41.27239333" lon="1.87688333">
        <ele>266.0</ele>
        <time>2019-12-21T13:03:07.426Z</time>
      </trkpt>
      <trkpt lat="41.27239333" lon="1.87688333">
        <ele>266.0</ele>
        <time>2019-12-21T13:03:08.408Z</time>
      </trkpt>
      <trkpt lat="41.27245167" lon="1.87685833">
        <ele>266.0</ele>
        <time>2019-12-21T13:03:09.398Z</time>
      </trkpt>
      <trkpt lat="41.27245167" lon="1.87685833">
        <ele>266.0</ele>
        <time>2019-12-21T13:03:10.427Z</time>
      </trkpt>
      <trkpt lat="41.27250333" lon="1.87682833">
        <ele>266.0</ele>
        <time>2019-12-21T13:03:11.405Z</time>
      </trkpt>
      <trkpt lat="41.27253667" lon="1.87681">
        <ele>266.0</ele>
        <time>2019-12-21T13:03:12.403Z</time>
      </trkpt>
      <trkpt lat="41.27253667" lon="1.87681">
        <ele>266.0</ele>
        <time>2019-12-21T13:03:13.426Z</time>
      </trkpt>
      <trkpt lat="41.27258833" lon="1.87679167">
        <ele>266.0</ele>
        <time>2019-12-21T13:03:14.409Z</time>
      </trkpt>
      <trkpt lat="41.27261333" lon="1.87678">
        <ele>266.0</ele>
        <time>2019-12-21T13:03:15.402Z</time>
      </trkpt>
      <trkpt lat="41.27261333" lon="1.87678">
        <ele>266.0</ele>
        <time>2019-12-21T13:03:16.425Z</time>
      </trkpt>
      <trkpt lat="41.27266167" lon="1.87677333">
        <ele>266.0</ele>
        <time>2019-12-21T13:03:17.412Z</time>
      </trkpt>
      <trkpt lat="41.27266167" lon="1.87677333">
        <ele>266.0</ele>
        <time>2019-12-21T13:03:18.434Z</time>
      </trkpt>
      <trkpt lat="41.27270833" lon="1.87676667">
        <ele>266.0</ele>
        <time>2019-12-21T13:03:19.435Z</time>
      </trkpt>
      <trkpt lat="41.27273" lon="1.87676333">
        <ele>266.0</ele>
        <time>2019-12-21T13:03:20.407Z</time>
      </trkpt>
      <trkpt lat="41.27273" lon="1.87676333">
        <ele>266.0</ele>
        <time>2019-12-21T13:03:21.435Z</time>
      </trkpt>
      <trkpt lat="41.27276667" lon="1.876755">
        <ele>266.0</ele>
        <time>2019-12-21T13:03:22.436Z</time>
      </trkpt>
      <trkpt lat="41.27276667" lon="1.876755">
        <ele>266.0</ele>
        <time>2019-12-21T13:03:23.408Z</time>
      </trkpt>
      <trkpt lat="41.27279833" lon="1.87673833">
        <ele>266.0</ele>
        <time>2019-12-21T13:03:24.399Z</time>
      </trkpt>
      <trkpt lat="41.27279833" lon="1.87673833">
        <ele>266.0</ele>
        <time>2019-12-21T13:03:25.425Z</time>
      </trkpt>
      <trkpt lat="41.27283167" lon="1.87671667">
        <ele>267.0</ele>
        <time>2019-12-21T13:03:26.415Z</time>
      </trkpt>
      <trkpt lat="41.27285" lon="1.87671">
        <ele>267.0</ele>
        <time>2019-12-21T13:03:27.402Z</time>
      </trkpt>
      <trkpt lat="41.27285" lon="1.87671">
        <ele>267.0</ele>
        <time>2019-12-21T13:03:28.424Z</time>
      </trkpt>
      <trkpt lat="41.27289333" lon="1.87670167">
        <ele>267.0</ele>
        <time>2019-12-21T13:03:29.409Z</time>
      </trkpt>
      <trkpt lat="41.27291167" lon="1.87669833">
        <ele>267.0</ele>
        <time>2019-12-21T13:03:30.436Z</time>
      </trkpt>
      <trkpt lat="41.27291167" lon="1.87669833">
        <ele>267.0</ele>
        <time>2019-12-21T13:03:31.403Z</time>
      </trkpt>
      <trkpt lat="41.27294167" lon="1.87669">
        <ele>267.0</ele>
        <time>2019-12-21T13:03:32.429Z</time>
      </trkpt>
      <trkpt lat="41.27294167" lon="1.87669">
        <ele>267.0</ele>
        <time>2019-12-21T13:03:33.411Z</time>
      </trkpt>
      <trkpt lat="41.27297" lon="1.87667667">
        <ele>268.0</ele>
        <time>2019-12-21T13:03:34.400Z</time>
      </trkpt>
      <trkpt lat="41.27298833" lon="1.87667">
        <ele>268.0</ele>
        <time>2019-12-21T13:03:35.424Z</time>
      </trkpt>
      <trkpt lat="41.27298833" lon="1.87667">
        <ele>268.0</ele>
        <time>2019-12-21T13:03:36.420Z</time>
      </trkpt>
      <trkpt lat="41.27302667" lon="1.87665833">
        <ele>268.0</ele>
        <time>2019-12-21T13:03:37.425Z</time>
      </trkpt>
      <trkpt lat="41.27302667" lon="1.87665833">
        <ele>268.0</ele>
        <time>2019-12-21T13:03:38.408Z</time>
      </trkpt>
      <trkpt lat="41.27306333" lon="1.876655">
        <ele>268.0</ele>
        <time>2019-12-21T13:03:39.433Z</time>
      </trkpt>
      <trkpt lat="41.27306333" lon="1.876655">
        <ele>268.0</ele>
        <time>2019-12-21T13:03:40.430Z</time>
      </trkpt>
      <trkpt lat="41.2731" lon="1.87665667">
        <ele>268.0</ele>
        <time>2019-12-21T13:03:41.397Z</time>
      </trkpt>
      <trkpt lat="41.27311833" lon="1.87665833">
        <ele>269.0</ele>
        <time>2019-12-21T13:03:42.430Z</time>
      </trkpt>
      <trkpt lat="41.27311833" lon="1.87665833">
        <ele>269.0</ele>
        <time>2019-12-21T13:03:43.412Z</time>
      </trkpt>
      <trkpt lat="41.27315833" lon="1.87664667">
        <ele>269.0</ele>
        <time>2019-12-21T13:03:44.397Z</time>
      </trkpt>
      <trkpt lat="41.27318167" lon="1.876645">
        <ele>269.0</ele>
        <time>2019-12-21T13:03:45.424Z</time>
      </trkpt>
      <trkpt lat="41.27318167" lon="1.876645">
        <ele>269.0</ele>
        <time>2019-12-21T13:03:46.407Z</time>
      </trkpt>
      <trkpt lat="41.273215" lon="1.87663833">
        <ele>268.0</ele>
        <time>2019-12-21T13:03:47.404Z</time>
      </trkpt>
      <trkpt lat="41.27323" lon="1.87663667">
        <ele>267.0</ele>
        <time>2019-12-21T13:03:48.405Z</time>
      </trkpt>
      <trkpt lat="41.27324833" lon="1.876635">
        <ele>267.0</ele>
        <time>2019-12-21T13:03:49.433Z</time>
      </trkpt>
      <trkpt lat="41.27324833" lon="1.876635">
        <ele>267.0</ele>
        <time>2019-12-21T13:03:50.430Z</time>
      </trkpt>
      <trkpt lat="41.27328167" lon="1.87662333">
        <ele>267.0</ele>
        <time>2019-12-21T13:03:51.414Z</time>
      </trkpt>
      <trkpt lat="41.27330167" lon="1.87662167">
        <ele>267.0</ele>
        <time>2019-12-21T13:03:52.401Z</time>
      </trkpt>
      <trkpt lat="41.27330167" lon="1.87662167">
        <ele>267.0</ele>
        <time>2019-12-21T13:03:53.426Z</time>
      </trkpt>
      <trkpt lat="41.27334667" lon="1.87661333">
        <ele>266.0</ele>
        <time>2019-12-21T13:03:54.420Z</time>
      </trkpt>
      <trkpt lat="41.27334667" lon="1.87661333">
        <ele>266.0</ele>
        <time>2019-12-21T13:03:55.405Z</time>
      </trkpt>
      <trkpt lat="41.27339" lon="1.87660333">
        <ele>267.0</ele>
        <time>2019-12-21T13:03:56.398Z</time>
      </trkpt>
      <trkpt lat="41.27339" lon="1.87660333">
        <ele>267.0</ele>
        <time>2019-12-21T13:03:57.422Z</time>
      </trkpt>
      <trkpt lat="41.27343" lon="1.87659833">
        <ele>267.0</ele>
        <time>2019-12-21T13:03:58.406Z</time>
      </trkpt>
      <trkpt lat="41.27345167" lon="1.87659667">
        <ele>267.0</ele>
        <time>2019-12-21T13:03:59.397Z</time>
      </trkpt>
      <trkpt lat="41.27345167" lon="1.87659667">
        <ele>267.0</ele>
        <time>2019-12-21T13:04:00.422Z</time>
      </trkpt>
      <trkpt lat="41.273495" lon="1.87659">
        <ele>267.0</ele>
        <time>2019-12-21T13:04:01.417Z</time>
      </trkpt>
      <trkpt lat="41.273495" lon="1.87659">
        <ele>267.0</ele>
        <time>2019-12-21T13:04:02.399Z</time>
      </trkpt>
      <trkpt lat="41.27353333" lon="1.87657833">
        <ele>268.0</ele>
        <time>2019-12-21T13:04:03.423Z</time>
      </trkpt>
      <trkpt lat="41.27353333" lon="1.87657833">
        <ele>268.0</ele>
        <time>2019-12-21T13:04:04.419Z</time>
      </trkpt>
      <trkpt lat="41.27357167" lon="1.876565">
        <ele>268.0</ele>
        <time>2019-12-21T13:04:05.409Z</time>
      </trkpt>
      <trkpt lat="41.27358833" lon="1.87655833">
        <ele>269.0</ele>
        <time>2019-12-21T13:04:06.400Z</time>
      </trkpt>
      <trkpt lat="41.273605" lon="1.87655667">
        <ele>270.0</ele>
        <time>2019-12-21T13:04:07.425Z</time>
      </trkpt>
      <trkpt lat="41.273605" lon="1.87655667">
        <ele>270.0</ele>
        <time>2019-12-21T13:04:08.407Z</time>
      </trkpt>
      <trkpt lat="41.27363333" lon="1.87654">
        <ele>270.0</ele>
        <time>2019-12-21T13:04:09.399Z</time>
      </trkpt>
      <trkpt lat="41.27364833" lon="1.87652667">
        <ele>271.0</ele>
        <time>2019-12-21T13:04:10.426Z</time>
      </trkpt>
      <trkpt lat="41.27364833" lon="1.87652667">
        <ele>271.0</ele>
        <time>2019-12-21T13:04:11.410Z</time>
      </trkpt>
      <trkpt lat="41.27367333" lon="1.876495">
        <ele>271.0</ele>
        <time>2019-12-21T13:04:12.402Z</time>
      </trkpt>
      <trkpt lat="41.27367333" lon="1.876495">
        <ele>271.0</ele>
        <time>2019-12-21T13:04:13.406Z</time>
      </trkpt>
      <trkpt lat="41.27369333" lon="1.87646667">
        <ele>272.0</ele>
        <time>2019-12-21T13:04:14.403Z</time>
      </trkpt>
      <trkpt lat="41.273705" lon="1.87645333">
        <ele>272.0</ele>
        <time>2019-12-21T13:04:15.401Z</time>
      </trkpt>
      <trkpt lat="41.273705" lon="1.87645333">
        <ele>272.0</ele>
        <time>2019-12-21T13:04:16.426Z</time>
      </trkpt>
      <trkpt lat="41.27374" lon="1.87641667">
        <ele>273.0</ele>
        <time>2019-12-21T13:04:17.413Z</time>
      </trkpt>
      <trkpt lat="41.27375667" lon="1.8764">
        <ele>273.0</ele>
        <time>2019-12-21T13:04:18.397Z</time>
      </trkpt>
      <trkpt lat="41.27376833" lon="1.87638667">
        <ele>273.0</ele>
        <time>2019-12-21T13:04:19.425Z</time>
      </trkpt>
      <trkpt lat="41.27376833" lon="1.87638667">
        <ele>273.0</ele>
        <time>2019-12-21T13:04:20.407Z</time>
      </trkpt>
      <trkpt lat="41.27379167" lon="1.87635">
        <ele>273.0</ele>
        <time>2019-12-21T13:04:21.399Z</time>
      </trkpt>
      <trkpt lat="41.27379167" lon="1.87635">
        <ele>273.0</ele>
        <time>2019-12-21T13:04:22.427Z</time>
      </trkpt>
      <trkpt lat="41.273815" lon="1.87632333">
        <ele>274.0</ele>
        <time>2019-12-21T13:04:23.424Z</time>
      </trkpt>
      <trkpt lat="41.27382333" lon="1.876315">
        <ele>274.0</ele>
        <time>2019-12-21T13:04:24.412Z</time>
      </trkpt>
      <trkpt lat="41.27382333" lon="1.876315">
        <ele>274.0</ele>
        <time>2019-12-21T13:04:25.435Z</time>
      </trkpt>
      <trkpt lat="41.27384167" lon="1.8763">
        <ele>276.0</ele>
        <time>2019-12-21T13:04:26.407Z</time>
      </trkpt>
      <trkpt lat="41.27384167" lon="1.8763">
        <ele>276.0</ele>
        <time>2019-12-21T13:04:27.432Z</time>
      </trkpt>
      <trkpt lat="41.27384667" lon="1.87627667">
        <ele>277.0</ele>
        <time>2019-12-21T13:04:28.418Z</time>
      </trkpt>
      <trkpt lat="41.27384667" lon="1.87627667">
        <ele>277.0</ele>
        <time>2019-12-21T13:04:29.400Z</time>
      </trkpt>
      <trkpt lat="41.27385833" lon="1.87625">
        <ele>278.0</ele>
        <time>2019-12-21T13:04:30.424Z</time>
      </trkpt>
      <trkpt lat="41.27385833" lon="1.87625">
        <ele>278.0</ele>
        <time>2019-12-21T13:04:31.410Z</time>
      </trkpt>
      <trkpt lat="41.27387333" lon="1.87621667">
        <ele>279.0</ele>
        <time>2019-12-21T13:04:32.400Z</time>
      </trkpt>
      <trkpt lat="41.27387333" lon="1.87621667">
        <ele>279.0</ele>
        <time>2019-12-21T13:04:33.428Z</time>
      </trkpt>
      <trkpt lat="41.27388167" lon="1.87619">
        <ele>279.0</ele>
        <time>2019-12-21T13:04:34.412Z</time>
      </trkpt>
      <trkpt lat="41.27388167" lon="1.87619">
        <ele>279.0</ele>
        <time>2019-12-21T13:04:35.434Z</time>
      </trkpt>
      <trkpt lat="41.273895" lon="1.87616167">
        <ele>280.0</ele>
        <time>2019-12-21T13:04:36.417Z</time>
      </trkpt>
      <trkpt lat="41.273895" lon="1.87616167">
        <ele>280.0</ele>
        <time>2019-12-21T13:04:37.400Z</time>
      </trkpt>
      <trkpt lat="41.273915" lon="1.87612">
        <ele>281.0</ele>
        <time>2019-12-21T13:04:38.434Z</time>
      </trkpt>
      <trkpt lat="41.273915" lon="1.87612">
        <ele>281.0</ele>
        <time>2019-12-21T13:04:39.422Z</time>
      </trkpt>
      <trkpt lat="41.273945" lon="1.87606833">
        <ele>281.0</ele>
        <time>2019-12-21T13:04:40.416Z</time>
      </trkpt>
      <trkpt lat="41.273945" lon="1.87606833">
        <ele>281.0</ele>
        <time>2019-12-21T13:04:41.412Z</time>
      </trkpt>
      <trkpt lat="41.27397333" lon="1.87602167">
        <ele>282.0</ele>
        <time>2019-12-21T13:04:42.400Z</time>
      </trkpt>
      <trkpt lat="41.27397333" lon="1.87602167">
        <ele>282.0</ele>
        <time>2019-12-21T13:04:43.423Z</time>
      </trkpt>
      <trkpt lat="41.27400333" lon="1.87596833">
        <ele>283.0</ele>
        <time>2019-12-21T13:04:44.407Z</time>
      </trkpt>
      <trkpt lat="41.27402667" lon="1.87593667">
        <ele>283.0</ele>
        <time>2019-12-21T13:04:45.403Z</time>
      </trkpt>
      <trkpt lat="41.27402667" lon="1.87593667">
        <ele>283.0</ele>
        <time>2019-12-21T13:04:46.427Z</time>
      </trkpt>
      <trkpt lat="41.27406" lon="1.87587833">
        <ele>283.0</ele>
        <time>2019-12-21T13:04:47.409Z</time>
      </trkpt>
      <trkpt lat="41.27407667" lon="1.87585333">
        <ele>284.0</ele>
        <time>2019-12-21T13:04:48.404Z</time>
      </trkpt>
      <trkpt lat="41.27409167" lon="1.87583">
        <ele>284.0</ele>
        <time>2019-12-21T13:04:49.426Z</time>
      </trkpt>
      <trkpt lat="41.27409167" lon="1.87583">
        <ele>284.0</ele>
        <time>2019-12-21T13:04:50.426Z</time>
      </trkpt>
      <trkpt lat="41.27411833" lon="1.87578833">
        <ele>285.0</ele>
        <time>2019-12-21T13:04:51.418Z</time>
      </trkpt>
      <trkpt lat="41.27413333" lon="1.87576167">
        <ele>286.0</ele>
        <time>2019-12-21T13:04:52.398Z</time>
      </trkpt>
      <trkpt lat="41.27414333" lon="1.875735">
        <ele>286.0</ele>
        <time>2019-12-21T13:04:53.422Z</time>
      </trkpt>
      <trkpt lat="41.27414333" lon="1.875735">
        <ele>286.0</ele>
        <time>2019-12-21T13:04:54.406Z</time>
      </trkpt>
      <trkpt lat="41.27416833" lon="1.87568833">
        <ele>287.0</ele>
        <time>2019-12-21T13:04:55.435Z</time>
      </trkpt>
      <trkpt lat="41.27416833" lon="1.87568833">
        <ele>287.0</ele>
        <time>2019-12-21T13:04:56.434Z</time>
      </trkpt>
      <trkpt lat="41.27418667" lon="1.87563833">
        <ele>288.0</ele>
        <time>2019-12-21T13:04:57.397Z</time>
      </trkpt>
      <trkpt lat="41.274195" lon="1.87561167">
        <ele>288.0</ele>
        <time>2019-12-21T13:04:58.423Z</time>
      </trkpt>
      <trkpt lat="41.274195" lon="1.87561167">
        <ele>288.0</ele>
        <time>2019-12-21T13:04:59.405Z</time>
      </trkpt>
      <trkpt lat="41.27421667" lon="1.87556833">
        <ele>288.0</ele>
        <time>2019-12-21T13:05:00.400Z</time>
      </trkpt>
      <trkpt lat="41.27421667" lon="1.87556833">
        <ele>288.0</ele>
        <time>2019-12-21T13:05:01.433Z</time>
      </trkpt>
      <trkpt lat="41.274245" lon="1.87553333">
        <ele>289.0</ele>
        <time>2019-12-21T13:05:02.414Z</time>
      </trkpt>
      <trkpt lat="41.27425833" lon="1.87551667">
        <ele>289.0</ele>
        <time>2019-12-21T13:05:03.404Z</time>
      </trkpt>
      <trkpt lat="41.27425833" lon="1.87551667">
        <ele>289.0</ele>
        <time>2019-12-21T13:05:04.399Z</time>
      </trkpt>
      <trkpt lat="41.27428833" lon="1.87547167">
        <ele>290.0</ele>
        <time>2019-12-21T13:05:05.424Z</time>
      </trkpt>
      <trkpt lat="41.27431" lon="1.87544833">
        <ele>290.0</ele>
        <time>2019-12-21T13:05:06.410Z</time>
      </trkpt>
      <trkpt lat="41.27431" lon="1.87544833">
        <ele>290.0</ele>
        <time>2019-12-21T13:05:07.434Z</time>
      </trkpt>
      <trkpt lat="41.27435833" lon="1.87541333">
        <ele>291.0</ele>
        <time>2019-12-21T13:05:08.417Z</time>
      </trkpt>
      <trkpt lat="41.27435833" lon="1.87541333">
        <ele>291.0</ele>
        <time>2019-12-21T13:05:09.399Z</time>
      </trkpt>
      <trkpt lat="41.27442167" lon="1.875385">
        <ele>292.0</ele>
        <time>2019-12-21T13:05:10.426Z</time>
      </trkpt>
      <trkpt lat="41.27442167" lon="1.875385">
        <ele>292.0</ele>
        <time>2019-12-21T13:05:11.408Z</time>
      </trkpt>
      <trkpt lat="41.27448667" lon="1.875355">
        <ele>292.0</ele>
        <time>2019-12-21T13:05:12.435Z</time>
      </trkpt>
      <trkpt lat="41.27448667" lon="1.875355">
        <ele>292.0</ele>
        <time>2019-12-21T13:05:13.433Z</time>
      </trkpt>
      <trkpt lat="41.27455167" lon="1.875325">
        <ele>292.0</ele>
        <time>2019-12-21T13:05:14.418Z</time>
      </trkpt>
      <trkpt lat="41.27455167" lon="1.875325">
        <ele>292.0</ele>
        <time>2019-12-21T13:05:15.400Z</time>
      </trkpt>
      <trkpt lat="41.27461667" lon="1.87528333">
        <ele>292.0</ele>
        <time>2019-12-21T13:05:16.433Z</time>
      </trkpt>
      <trkpt lat="41.27464667" lon="1.87526333">
        <ele>292.0</ele>
        <time>2019-12-21T13:05:17.416Z</time>
      </trkpt>
      <trkpt lat="41.27468" lon="1.87525">
        <ele>292.0</ele>
        <time>2019-12-21T13:05:18.411Z</time>
      </trkpt>
      <trkpt lat="41.27468" lon="1.87525">
        <ele>292.0</ele>
        <time>2019-12-21T13:05:19.434Z</time>
      </trkpt>
      <trkpt lat="41.27473333" lon="1.87522667">
        <ele>293.0</ele>
        <time>2019-12-21T13:05:20.397Z</time>
      </trkpt>
      <trkpt lat="41.27473333" lon="1.87522667">
        <ele>293.0</ele>
        <time>2019-12-21T13:05:21.422Z</time>
      </trkpt>
      <trkpt lat="41.2748" lon="1.87520833">
        <ele>292.0</ele>
        <time>2019-12-21T13:05:22.410Z</time>
      </trkpt>
      <trkpt lat="41.27483333" lon="1.8752">
        <ele>292.0</ele>
        <time>2019-12-21T13:05:23.422Z</time>
      </trkpt>
      <trkpt lat="41.27486833" lon="1.87519167">
        <ele>292.0</ele>
        <time>2019-12-21T13:05:24.420Z</time>
      </trkpt>
      <trkpt lat="41.27486833" lon="1.87519167">
        <ele>292.0</ele>
        <time>2019-12-21T13:05:25.404Z</time>
      </trkpt>
      <trkpt lat="41.27493667" lon="1.87518333">
        <ele>292.0</ele>
        <time>2019-12-21T13:05:26.433Z</time>
      </trkpt>
      <trkpt lat="41.27493667" lon="1.87518333">
        <ele>292.0</ele>
        <time>2019-12-21T13:05:27.416Z</time>
      </trkpt>
      <trkpt lat="41.27500333" lon="1.875185">
        <ele>292.0</ele>
        <time>2019-12-21T13:05:28.404Z</time>
      </trkpt>
      <trkpt lat="41.27500333" lon="1.875185">
        <ele>292.0</ele>
        <time>2019-12-21T13:05:29.428Z</time>
      </trkpt>
      <trkpt lat="41.27506667" lon="1.87518667">
        <ele>292.0</ele>
        <time>2019-12-21T13:05:30.415Z</time>
      </trkpt>
      <trkpt lat="41.27506667" lon="1.87518667">
        <ele>292.0</ele>
        <time>2019-12-21T13:05:31.397Z</time>
      </trkpt>
      <trkpt lat="41.275125" lon="1.875185">
        <ele>292.0</ele>
        <time>2019-12-21T13:05:32.435Z</time>
      </trkpt>
      <trkpt lat="41.27515167" lon="1.87518667">
        <ele>292.0</ele>
        <time>2019-12-21T13:05:33.431Z</time>
      </trkpt>
      <trkpt lat="41.27518" lon="1.87518667">
        <ele>292.0</ele>
        <time>2019-12-21T13:05:34.420Z</time>
      </trkpt>
      <trkpt lat="41.27518" lon="1.87518667">
        <ele>292.0</ele>
        <time>2019-12-21T13:05:35.404Z</time>
      </trkpt>
      <trkpt lat="41.27522833" lon="1.87517167">
        <ele>292.0</ele>
        <time>2019-12-21T13:05:36.430Z</time>
      </trkpt>
      <trkpt lat="41.27522833" lon="1.87517167">
        <ele>292.0</ele>
        <time>2019-12-21T13:05:37.412Z</time>
      </trkpt>
      <trkpt lat="41.27526667" lon="1.875145">
        <ele>293.0</ele>
        <time>2019-12-21T13:05:38.400Z</time>
      </trkpt>
      <trkpt lat="41.27528333" lon="1.87513">
        <ele>293.0</ele>
        <time>2019-12-21T13:05:39.425Z</time>
      </trkpt>
      <trkpt lat="41.27528333" lon="1.87513">
        <ele>293.0</ele>
        <time>2019-12-21T13:05:40.407Z</time>
      </trkpt>
      <trkpt lat="41.27532167" lon="1.87509167">
        <ele>293.0</ele>
        <time>2019-12-21T13:05:41.428Z</time>
      </trkpt>
      <trkpt lat="41.27534" lon="1.87507333">
        <ele>293.0</ele>
        <time>2019-12-21T13:05:42.418Z</time>
      </trkpt>
      <trkpt lat="41.27534" lon="1.87507333">
        <ele>293.0</ele>
        <time>2019-12-21T13:05:43.401Z</time>
      </trkpt>
      <trkpt lat="41.27537167" lon="1.87503333">
        <ele>294.0</ele>
        <time>2019-12-21T13:05:44.406Z</time>
      </trkpt>
      <trkpt lat="41.27537167" lon="1.87503333">
        <ele>294.0</ele>
        <time>2019-12-21T13:05:45.430Z</time>
      </trkpt>
      <trkpt lat="41.27540333" lon="1.87499833">
        <ele>294.0</ele>
        <time>2019-12-21T13:05:46.414Z</time>
      </trkpt>
      <trkpt lat="41.27540333" lon="1.87499833">
        <ele>294.0</ele>
        <time>2019-12-21T13:05:47.436Z</time>
      </trkpt>
      <trkpt lat="41.27543333" lon="1.87496833">
        <ele>295.0</ele>
        <time>2019-12-21T13:05:48.412Z</time>
      </trkpt>
      <trkpt lat="41.27543333" lon="1.87496833">
        <ele>295.0</ele>
        <time>2019-12-21T13:05:49.400Z</time>
      </trkpt>
      <trkpt lat="41.275475" lon="1.874945">
        <ele>295.0</ele>
        <time>2019-12-21T13:05:50.433Z</time>
      </trkpt>
      <trkpt lat="41.275475" lon="1.874945">
        <ele>295.0</ele>
        <time>2019-12-21T13:05:51.415Z</time>
      </trkpt>
      <trkpt lat="41.27551667" lon="1.87492167">
        <ele>295.0</ele>
        <time>2019-12-21T13:05:52.410Z</time>
      </trkpt>
      <trkpt lat="41.27553833" lon="1.87490833">
        <ele>295.0</ele>
        <time>2019-12-21T13:05:53.397Z</time>
      </trkpt>
      <trkpt lat="41.27553833" lon="1.87490833">
        <ele>295.0</ele>
        <time>2019-12-21T13:05:54.426Z</time>
      </trkpt>
      <trkpt lat="41.27558333" lon="1.874885">
        <ele>296.0</ele>
        <time>2019-12-21T13:05:55.414Z</time>
      </trkpt>
      <trkpt lat="41.27560333" lon="1.87487">
        <ele>296.0</ele>
        <time>2019-12-21T13:05:56.406Z</time>
      </trkpt>
      <trkpt lat="41.275625" lon="1.874855">
        <ele>296.0</ele>
        <time>2019-12-21T13:05:57.432Z</time>
      </trkpt>
      <trkpt lat="41.275625" lon="1.874855">
        <ele>296.0</ele>
        <time>2019-12-21T13:05:58.414Z</time>
      </trkpt>
      <trkpt lat="41.27566667" lon="1.87483">
        <ele>296.0</ele>
        <time>2019-12-21T13:05:59.436Z</time>
      </trkpt>
      <trkpt lat="41.27568667" lon="1.874815">
        <ele>296.0</ele>
        <time>2019-12-21T13:06:00.397Z</time>
      </trkpt>
      <trkpt lat="41.275705" lon="1.87479833">
        <ele>296.0</ele>
        <time>2019-12-21T13:06:01.424Z</time>
      </trkpt>
      <trkpt lat="41.275705" lon="1.87479833">
        <ele>296.0</ele>
        <time>2019-12-21T13:06:02.409Z</time>
      </trkpt>
      <trkpt lat="41.27574333" lon="1.87477333">
        <ele>296.0</ele>
        <time>2019-12-21T13:06:03.403Z</time>
      </trkpt>
      <trkpt lat="41.27574333" lon="1.87477333">
        <ele>296.0</ele>
        <time>2019-12-21T13:06:04.436Z</time>
      </trkpt>
      <trkpt lat="41.27578" lon="1.87475">
        <ele>297.0</ele>
        <time>2019-12-21T13:06:05.397Z</time>
      </trkpt>
      <trkpt lat="41.2758" lon="1.87474">
        <ele>297.0</ele>
        <time>2019-12-21T13:06:06.423Z</time>
      </trkpt>
      <trkpt lat="41.2758" lon="1.87474">
        <ele>297.0</ele>
        <time>2019-12-21T13:06:07.405Z</time>
      </trkpt>
      <trkpt lat="41.275835" lon="1.87471833">
        <ele>297.0</ele>
        <time>2019-12-21T13:06:08.399Z</time>
      </trkpt>
      <trkpt lat="41.275855" lon="1.874705">
        <ele>297.0</ele>
        <time>2019-12-21T13:06:09.403Z</time>
      </trkpt>
      <trkpt lat="41.275855" lon="1.874705">
        <ele>297.0</ele>
        <time>2019-12-21T13:06:10.403Z</time>
      </trkpt>
      <trkpt lat="41.27590167" lon="1.87469">
        <ele>297.0</ele>
        <time>2019-12-21T13:06:11.427Z</time>
      </trkpt>
      <trkpt lat="41.27590167" lon="1.87469">
        <ele>297.0</ele>
        <time>2019-12-21T13:06:12.419Z</time>
      </trkpt>
      <trkpt lat="41.27594667" lon="1.87467167">
        <ele>297.0</ele>
        <time>2019-12-21T13:06:13.423Z</time>
      </trkpt>
      <trkpt lat="41.27594667" lon="1.87467167">
        <ele>297.0</ele>
        <time>2019-12-21T13:06:14.419Z</time>
      </trkpt>
      <trkpt lat="41.27599333" lon="1.87466">
        <ele>297.0</ele>
        <time>2019-12-21T13:06:15.418Z</time>
      </trkpt>
      <trkpt lat="41.27599333" lon="1.87466">
        <ele>297.0</ele>
        <time>2019-12-21T13:06:16.401Z</time>
      </trkpt>
      <trkpt lat="41.276035" lon="1.87464667">
        <ele>298.0</ele>
        <time>2019-12-21T13:06:17.425Z</time>
      </trkpt>
      <trkpt lat="41.276035" lon="1.87464667">
        <ele>298.0</ele>
        <time>2019-12-21T13:06:18.407Z</time>
      </trkpt>
      <trkpt lat="41.27608167" lon="1.874625">
        <ele>298.0</ele>
        <time>2019-12-21T13:06:19.400Z</time>
      </trkpt>
      <trkpt lat="41.27608167" lon="1.874625">
        <ele>298.0</ele>
        <time>2019-12-21T13:06:20.426Z</time>
      </trkpt>
      <trkpt lat="41.276125" lon="1.87458333">
        <ele>298.0</ele>
        <time>2019-12-21T13:06:21.413Z</time>
      </trkpt>
      <trkpt lat="41.276125" lon="1.87458333">
        <ele>298.0</ele>
        <time>2019-12-21T13:06:22.398Z</time>
      </trkpt>
      <trkpt lat="41.27616833" lon="1.87454">
        <ele>298.0</ele>
        <time>2019-12-21T13:06:23.427Z</time>
      </trkpt>
      <trkpt lat="41.27616833" lon="1.87454">
        <ele>298.0</ele>
        <time>2019-12-21T13:06:24.410Z</time>
      </trkpt>
      <trkpt lat="41.27620333" lon="1.874485">
        <ele>299.0</ele>
        <time>2019-12-21T13:06:25.403Z</time>
      </trkpt>
      <trkpt lat="41.27620333" lon="1.874485">
        <ele>299.0</ele>
        <time>2019-12-21T13:06:26.427Z</time>
      </trkpt>
      <trkpt lat="41.27623167" lon="1.87443">
        <ele>299.0</ele>
        <time>2019-12-21T13:06:27.409Z</time>
      </trkpt>
      <trkpt lat="41.276245" lon="1.87440333">
        <ele>299.0</ele>
        <time>2019-12-21T13:06:28.435Z</time>
      </trkpt>
      <trkpt lat="41.276245" lon="1.87440333">
        <ele>299.0</ele>
        <time>2019-12-21T13:06:29.433Z</time>
      </trkpt>
      <trkpt lat="41.27627667" lon="1.87435667">
        <ele>300.0</ele>
        <time>2019-12-21T13:06:30.422Z</time>
      </trkpt>
      <trkpt lat="41.27627667" lon="1.87435667">
        <ele>300.0</ele>
        <time>2019-12-21T13:06:31.405Z</time>
      </trkpt>
      <trkpt lat="41.276325" lon="1.87433">
        <ele>300.0</ele>
        <time>2019-12-21T13:06:32.408Z</time>
      </trkpt>
      <trkpt lat="41.276325" lon="1.87433">
        <ele>300.0</ele>
        <time>2019-12-21T13:06:33.431Z</time>
      </trkpt>
      <trkpt lat="41.27637833" lon="1.87433">
        <ele>300.0</ele>
        <time>2019-12-21T13:06:34.420Z</time>
      </trkpt>
      <trkpt lat="41.27637833" lon="1.87433">
        <ele>300.0</ele>
        <time>2019-12-21T13:06:35.403Z</time>
      </trkpt>
      <trkpt lat="41.27643333" lon="1.87435">
        <ele>300.0</ele>
        <time>2019-12-21T13:06:36.427Z</time>
      </trkpt>
      <trkpt lat="41.27643333" lon="1.87435">
        <ele>300.0</ele>
        <time>2019-12-21T13:06:37.410Z</time>
      </trkpt>
      <trkpt lat="41.27648833" lon="1.87437833">
        <ele>300.0</ele>
        <time>2019-12-21T13:06:38.432Z</time>
      </trkpt>
      <trkpt lat="41.27648833" lon="1.87437833">
        <ele>300.0</ele>
        <time>2019-12-21T13:06:39.414Z</time>
      </trkpt>
      <trkpt lat="41.276545" lon="1.87441167">
        <ele>300.0</ele>
        <time>2019-12-21T13:06:40.397Z</time>
      </trkpt>
      <trkpt lat="41.276545" lon="1.87441167">
        <ele>300.0</ele>
        <time>2019-12-21T13:06:41.400Z</time>
      </trkpt>
      <trkpt lat="41.2766" lon="1.87445">
        <ele>300.0</ele>
        <time>2019-12-21T13:06:42.415Z</time>
      </trkpt>
      <trkpt lat="41.2766" lon="1.87445">
        <ele>300.0</ele>
        <time>2019-12-21T13:06:43.432Z</time>
      </trkpt>
      <trkpt lat="41.27665333" lon="1.87450167">
        <ele>300.0</ele>
        <time>2019-12-21T13:06:44.420Z</time>
      </trkpt>
      <trkpt lat="41.27665333" lon="1.87450167">
        <ele>300.0</ele>
        <time>2019-12-21T13:06:45.402Z</time>
      </trkpt>
      <trkpt lat="41.27670833" lon="1.87455167">
        <ele>301.0</ele>
        <time>2019-12-21T13:06:46.426Z</time>
      </trkpt>
      <trkpt lat="41.27670833" lon="1.87455167">
        <ele>301.0</ele>
        <time>2019-12-21T13:06:47.408Z</time>
      </trkpt>
      <trkpt lat="41.27675667" lon="1.87456833">
        <ele>300.0</ele>
        <time>2019-12-21T13:06:48.428Z</time>
      </trkpt>
      <trkpt lat="41.27675667" lon="1.87456833">
        <ele>300.0</ele>
        <time>2019-12-21T13:06:49.410Z</time>
      </trkpt>
      <trkpt lat="41.276805" lon="1.87455333">
        <ele>300.0</ele>
        <time>2019-12-21T13:06:50.397Z</time>
      </trkpt>
      <trkpt lat="41.276805" lon="1.87455333">
        <ele>300.0</ele>
        <time>2019-12-21T13:06:51.424Z</time>
      </trkpt>
      <trkpt lat="41.27685833" lon="1.87452333">
        <ele>300.0</ele>
        <time>2019-12-21T13:06:52.418Z</time>
      </trkpt>
      <trkpt lat="41.27685833" lon="1.87452333">
        <ele>300.0</ele>
        <time>2019-12-21T13:06:53.415Z</time>
      </trkpt>
      <trkpt lat="41.27691667" lon="1.87448833">
        <ele>300.0</ele>
        <time>2019-12-21T13:06:54.410Z</time>
      </trkpt>
      <trkpt lat="41.27691667" lon="1.87448833">
        <ele>300.0</ele>
        <time>2019-12-21T13:06:55.435Z</time>
      </trkpt>
      <trkpt lat="41.27697833" lon="1.87445167">
        <ele>300.0</ele>
        <time>2019-12-21T13:06:56.397Z</time>
      </trkpt>
      <trkpt lat="41.27697833" lon="1.87445167">
        <ele>300.0</ele>
        <time>2019-12-21T13:06:57.421Z</time>
      </trkpt>
      <trkpt lat="41.27704667" lon="1.87441667">
        <ele>299.0</ele>
        <time>2019-12-21T13:06:58.406Z</time>
      </trkpt>
      <trkpt lat="41.27708" lon="1.8744">
        <ele>299.0</ele>
        <time>2019-12-21T13:06:59.397Z</time>
      </trkpt>
      <trkpt lat="41.27711167" lon="1.87438667">
        <ele>299.0</ele>
        <time>2019-12-21T13:07:00.426Z</time>
      </trkpt>
      <trkpt lat="41.27711167" lon="1.87438667">
        <ele>299.0</ele>
        <time>2019-12-21T13:07:01.408Z</time>
      </trkpt>
      <trkpt lat="41.27718" lon="1.87437167">
        <ele>299.0</ele>
        <time>2019-12-21T13:07:02.400Z</time>
      </trkpt>
      <trkpt lat="41.27718" lon="1.87437167">
        <ele>299.0</ele>
        <time>2019-12-21T13:07:03.429Z</time>
      </trkpt>
      <trkpt lat="41.27726167" lon="1.87436167">
        <ele>298.0</ele>
        <time>2019-12-21T13:07:04.412Z</time>
      </trkpt>
      <trkpt lat="41.27726167" lon="1.87436167">
        <ele>298.0</ele>
        <time>2019-12-21T13:07:05.434Z</time>
      </trkpt>
      <trkpt lat="41.27735667" lon="1.87435">
        <ele>297.0</ele>
        <time>2019-12-21T13:07:06.417Z</time>
      </trkpt>
      <trkpt lat="41.27735667" lon="1.87435">
        <ele>297.0</ele>
        <time>2019-12-21T13:07:07.400Z</time>
      </trkpt>
      <trkpt lat="41.277465" lon="1.87432167">
        <ele>296.0</ele>
        <time>2019-12-21T13:07:08.430Z</time>
      </trkpt>
      <trkpt lat="41.277465" lon="1.87432167">
        <ele>296.0</ele>
        <time>2019-12-21T13:07:09.412Z</time>
      </trkpt>
      <trkpt lat="41.27758333" lon="1.87429">
        <ele>294.0</ele>
        <time>2019-12-21T13:07:10.436Z</time>
      </trkpt>
      <trkpt lat="41.27758333" lon="1.87429">
        <ele>294.0</ele>
        <time>2019-12-21T13:07:11.433Z</time>
      </trkpt>
      <trkpt lat="41.277705" lon="1.87428167">
        <ele>293.0</ele>
        <time>2019-12-21T13:07:12.417Z</time>
      </trkpt>
      <trkpt lat="41.277705" lon="1.87428167">
        <ele>293.0</ele>
        <time>2019-12-21T13:07:13.404Z</time>
      </trkpt>
      <trkpt lat="41.27782667" lon="1.87429">
        <ele>292.0</ele>
        <time>2019-12-21T13:07:14.399Z</time>
      </trkpt>
      <trkpt lat="41.27782667" lon="1.87429">
        <ele>292.0</ele>
        <time>2019-12-21T13:07:15.425Z</time>
      </trkpt>
      <trkpt lat="41.27792667" lon="1.87433">
        <ele>290.0</ele>
        <time>2019-12-21T13:07:16.408Z</time>
      </trkpt>
      <trkpt lat="41.27795167" lon="1.87438667">
        <ele>290.0</ele>
        <time>2019-12-21T13:07:17.433Z</time>
      </trkpt>
      <trkpt lat="41.27795167" lon="1.87438667">
        <ele>290.0</ele>
        <time>2019-12-21T13:07:18.415Z</time>
      </trkpt>
      <trkpt lat="41.27792667" lon="1.87450833">
        <ele>289.0</ele>
        <time>2019-12-21T13:07:19.398Z</time>
      </trkpt>
      <trkpt lat="41.27792667" lon="1.87450833">
        <ele>289.0</ele>
        <time>2019-12-21T13:07:20.425Z</time>
      </trkpt>
      <trkpt lat="41.27787333" lon="1.87459833">
        <ele>288.0</ele>
        <time>2019-12-21T13:07:21.409Z</time>
      </trkpt>
      <trkpt lat="41.27787333" lon="1.87459833">
        <ele>288.0</ele>
        <time>2019-12-21T13:07:22.435Z</time>
      </trkpt>
      <trkpt lat="41.27783833" lon="1.87465333">
        <ele>287.0</ele>
        <time>2019-12-21T13:07:23.423Z</time>
      </trkpt>
      <trkpt lat="41.27782667" lon="1.87467167">
        <ele>287.0</ele>
        <time>2019-12-21T13:07:24.408Z</time>
      </trkpt>
      <trkpt lat="41.277815" lon="1.87469167">
        <ele>287.0</ele>
        <time>2019-12-21T13:07:25.432Z</time>
      </trkpt>
      <trkpt lat="41.277815" lon="1.87469167">
        <ele>287.0</ele>
        <time>2019-12-21T13:07:26.402Z</time>
      </trkpt>
      <trkpt lat="41.27778833" lon="1.87473833">
        <ele>287.0</ele>
        <time>2019-12-21T13:07:27.399Z</time>
      </trkpt>
      <trkpt lat="41.27778833" lon="1.87473833">
        <ele>287.0</ele>
        <time>2019-12-21T13:07:28.424Z</time>
      </trkpt>
      <trkpt lat="41.27776333" lon="1.87478667">
        <ele>286.0</ele>
        <time>2019-12-21T13:07:29.406Z</time>
      </trkpt>
      <trkpt lat="41.27775167" lon="1.87481167">
        <ele>286.0</ele>
        <time>2019-12-21T13:07:30.404Z</time>
      </trkpt>
      <trkpt lat="41.27774" lon="1.87484">
        <ele>286.0</ele>
        <time>2019-12-21T13:07:31.408Z</time>
      </trkpt>
      <trkpt lat="41.27774" lon="1.87484">
        <ele>286.0</ele>
        <time>2019-12-21T13:07:32.433Z</time>
      </trkpt>
      <trkpt lat="41.27772333" lon="1.87489333">
        <ele>285.0</ele>
        <time>2019-12-21T13:07:33.421Z</time>
      </trkpt>
      <trkpt lat="41.27772333" lon="1.87489333">
        <ele>285.0</ele>
        <time>2019-12-21T13:07:34.405Z</time>
      </trkpt>
      <trkpt lat="41.277705" lon="1.87494667">
        <ele>285.0</ele>
        <time>2019-12-21T13:07:35.404Z</time>
      </trkpt>
      <trkpt lat="41.27770167" lon="1.87497333">
        <ele>285.0</ele>
        <time>2019-12-21T13:07:36.406Z</time>
      </trkpt>
      <trkpt lat="41.27770167" lon="1.87497333">
        <ele>285.0</ele>
        <time>2019-12-21T13:07:37.429Z</time>
      </trkpt>
      <trkpt lat="41.27771833" lon="1.87503333">
        <ele>288.0</ele>
        <time>2019-12-21T13:07:38.414Z</time>
      </trkpt>
      <trkpt lat="41.27773" lon="1.87506">
        <ele>289.0</ele>
        <time>2019-12-21T13:07:39.397Z</time>
      </trkpt>
      <trkpt lat="41.27773" lon="1.87506">
        <ele>289.0</ele>
        <time>2019-12-21T13:07:40.425Z</time>
      </trkpt>
      <trkpt lat="41.27774833" lon="1.87510333">
        <ele>291.0</ele>
        <time>2019-12-21T13:07:41.420Z</time>
      </trkpt>
      <trkpt lat="41.27776" lon="1.875125">
        <ele>292.0</ele>
        <time>2019-12-21T13:07:42.407Z</time>
      </trkpt>
      <trkpt lat="41.27777167" lon="1.875145">
        <ele>292.0</ele>
        <time>2019-12-21T13:07:43.397Z</time>
      </trkpt>
      <trkpt lat="41.27777167" lon="1.875145">
        <ele>292.0</ele>
        <time>2019-12-21T13:07:44.428Z</time>
      </trkpt>
      <trkpt lat="41.27780167" lon="1.87519333">
        <ele>293.0</ele>
        <time>2019-12-21T13:07:45.411Z</time>
      </trkpt>
      <trkpt lat="41.27780167" lon="1.87519333">
        <ele>293.0</ele>
        <time>2019-12-21T13:07:46.433Z</time>
      </trkpt>
      <trkpt lat="41.27782667" lon="1.87523667">
        <ele>294.0</ele>
        <time>2019-12-21T13:07:47.416Z</time>
      </trkpt>
      <trkpt lat="41.27784333" lon="1.87525333">
        <ele>294.0</ele>
        <time>2019-12-21T13:07:48.400Z</time>
      </trkpt>
      <trkpt lat="41.27784333" lon="1.87525333">
        <ele>294.0</ele>
        <time>2019-12-21T13:07:49.424Z</time>
      </trkpt>
      <trkpt lat="41.27787" lon="1.87529">
        <ele>295.0</ele>
        <time>2019-12-21T13:07:50.406Z</time>
      </trkpt>
      <trkpt lat="41.27787" lon="1.87529">
        <ele>295.0</ele>
        <time>2019-12-21T13:07:51.431Z</time>
      </trkpt>
      <trkpt lat="41.27789167" lon="1.87532167">
        <ele>296.0</ele>
        <time>2019-12-21T13:07:52.420Z</time>
      </trkpt>
      <trkpt lat="41.27789167" lon="1.87532167">
        <ele>296.0</ele>
        <time>2019-12-21T13:07:53.410Z</time>
      </trkpt>
      <trkpt lat="41.27791333" lon="1.87535167">
        <ele>297.0</ele>
        <time>2019-12-21T13:07:54.404Z</time>
      </trkpt>
      <trkpt lat="41.277925" lon="1.875365">
        <ele>297.0</ele>
        <time>2019-12-21T13:07:55.429Z</time>
      </trkpt>
      <trkpt lat="41.277925" lon="1.875365">
        <ele>297.0</ele>
        <time>2019-12-21T13:07:56.411Z</time>
      </trkpt>
      <trkpt lat="41.277945" lon="1.87539667">
        <ele>298.0</ele>
        <time>2019-12-21T13:07:57.436Z</time>
      </trkpt>
      <trkpt lat="41.277945" lon="1.87539667">
        <ele>298.0</ele>
        <time>2019-12-21T13:07:58.433Z</time>
      </trkpt>
      <trkpt lat="41.27796667" lon="1.87543667">
        <ele>298.0</ele>
        <time>2019-12-21T13:07:59.417Z</time>
      </trkpt>
      <trkpt lat="41.27797667" lon="1.87545833">
        <ele>299.0</ele>
        <time>2019-12-21T13:08:00.407Z</time>
      </trkpt>
      <trkpt lat="41.27797667" lon="1.87545833">
        <ele>299.0</ele>
        <time>2019-12-21T13:08:01.431Z</time>
      </trkpt>
      <trkpt lat="41.27799833" lon="1.8755">
        <ele>299.0</ele>
        <time>2019-12-21T13:08:02.415Z</time>
      </trkpt>
      <trkpt lat="41.27799833" lon="1.8755">
        <ele>299.0</ele>
        <time>2019-12-21T13:08:03.403Z</time>
      </trkpt>
      <trkpt lat="41.27801667" lon="1.87555167">
        <ele>299.0</ele>
        <time>2019-12-21T13:08:04.434Z</time>
      </trkpt>
      <trkpt lat="41.27801667" lon="1.87555167">
        <ele>299.0</ele>
        <time>2019-12-21T13:08:05.417Z</time>
      </trkpt>
      <trkpt lat="41.27803333" lon="1.87560167">
        <ele>300.0</ele>
        <time>2019-12-21T13:08:06.400Z</time>
      </trkpt>
      <trkpt lat="41.27803333" lon="1.87560167">
        <ele>300.0</ele>
        <time>2019-12-21T13:08:07.425Z</time>
      </trkpt>
      <trkpt lat="41.27805167" lon="1.87564833">
        <ele>300.0</ele>
        <time>2019-12-21T13:08:08.425Z</time>
      </trkpt>
      <trkpt lat="41.27806167" lon="1.87566833">
        <ele>300.0</ele>
        <time>2019-12-21T13:08:09.415Z</time>
      </trkpt>
      <trkpt lat="41.27807167" lon="1.87568833">
        <ele>301.0</ele>
        <time>2019-12-21T13:08:10.405Z</time>
      </trkpt>
      <trkpt lat="41.27807167" lon="1.87568833">
        <ele>301.0</ele>
        <time>2019-12-21T13:08:11.429Z</time>
      </trkpt>
      <trkpt lat="41.27809167" lon="1.87572833">
        <ele>301.0</ele>
        <time>2019-12-21T13:08:12.415Z</time>
      </trkpt>
      <trkpt lat="41.27809167" lon="1.87572833">
        <ele>301.0</ele>
        <time>2019-12-21T13:08:13.398Z</time>
      </trkpt>
      <trkpt lat="41.27811167" lon="1.87576833">
        <ele>302.0</ele>
        <time>2019-12-21T13:08:14.420Z</time>
      </trkpt>
      <trkpt lat="41.27812167" lon="1.87578667">
        <ele>302.0</ele>
        <time>2019-12-21T13:08:15.411Z</time>
      </trkpt>
      <trkpt lat="41.27812167" lon="1.87578667">
        <ele>302.0</ele>
        <time>2019-12-21T13:08:16.434Z</time>
      </trkpt>
      <trkpt lat="41.27814" lon="1.87582833">
        <ele>303.0</ele>
        <time>2019-12-21T13:08:17.427Z</time>
      </trkpt>
      <trkpt lat="41.27814" lon="1.87582833">
        <ele>303.0</ele>
        <time>2019-12-21T13:08:18.409Z</time>
      </trkpt>
      <trkpt lat="41.27815667" lon="1.875865">
        <ele>303.0</ele>
        <time>2019-12-21T13:08:19.436Z</time>
      </trkpt>
      <trkpt lat="41.27815667" lon="1.875865">
        <ele>303.0</ele>
        <time>2019-12-21T13:08:20.434Z</time>
      </trkpt>
      <trkpt lat="41.27817167" lon="1.8759">
        <ele>304.0</ele>
        <time>2019-12-21T13:08:21.417Z</time>
      </trkpt>
      <trkpt lat="41.27817833" lon="1.87591833">
        <ele>304.0</ele>
        <time>2019-12-21T13:08:22.407Z</time>
      </trkpt>
      <trkpt lat="41.27817833" lon="1.87591833">
        <ele>304.0</ele>
        <time>2019-12-21T13:08:23.397Z</time>
      </trkpt>
      <trkpt lat="41.27819333" lon="1.87595">
        <ele>305.0</ele>
        <time>2019-12-21T13:08:24.420Z</time>
      </trkpt>
      <trkpt lat="41.27819333" lon="1.87595">
        <ele>305.0</ele>
        <time>2019-12-21T13:08:25.407Z</time>
      </trkpt>
      <trkpt lat="41.278205" lon="1.87598167">
        <ele>306.0</ele>
        <time>2019-12-21T13:08:26.430Z</time>
      </trkpt>
      <trkpt lat="41.278205" lon="1.87598167">
        <ele>306.0</ele>
        <time>2019-12-21T13:08:27.412Z</time>
      </trkpt>
      <trkpt lat="41.278215" lon="1.87601333">
        <ele>306.0</ele>
        <time>2019-12-21T13:08:28.399Z</time>
      </trkpt>
      <trkpt lat="41.27822" lon="1.87603333">
        <ele>307.0</ele>
        <time>2019-12-21T13:08:29.425Z</time>
      </trkpt>
      <trkpt lat="41.27822" lon="1.87603333">
        <ele>307.0</ele>
        <time>2019-12-21T13:08:30.407Z</time>
      </trkpt>
      <trkpt lat="41.27823" lon="1.87606667">
        <ele>307.0</ele>
        <time>2019-12-21T13:08:31.399Z</time>
      </trkpt>
      <trkpt lat="41.27823" lon="1.87606667">
        <ele>307.0</ele>
        <time>2019-12-21T13:08:32.422Z</time>
      </trkpt>
      <trkpt lat="41.278245" lon="1.876095">
        <ele>308.0</ele>
        <time>2019-12-21T13:08:33.418Z</time>
      </trkpt>
      <trkpt lat="41.27825333" lon="1.87611">
        <ele>308.0</ele>
        <time>2019-12-21T13:08:34.408Z</time>
      </trkpt>
      <trkpt lat="41.27825333" lon="1.87611">
        <ele>308.0</ele>
        <time>2019-12-21T13:08:35.401Z</time>
      </trkpt>
      <trkpt lat="41.27827167" lon="1.87614167">
        <ele>309.0</ele>
        <time>2019-12-21T13:08:36.401Z</time>
      </trkpt>
      <trkpt lat="41.27828333" lon="1.876155">
        <ele>309.0</ele>
        <time>2019-12-21T13:08:37.427Z</time>
      </trkpt>
      <trkpt lat="41.27828333" lon="1.876155">
        <ele>309.0</ele>
        <time>2019-12-21T13:08:38.411Z</time>
      </trkpt>
      <trkpt lat="41.27831167" lon="1.87617667">
        <ele>309.0</ele>
        <time>2019-12-21T13:08:39.437Z</time>
      </trkpt>
      <trkpt lat="41.27831167" lon="1.87617667">
        <ele>309.0</ele>
        <time>2019-12-21T13:08:40.402Z</time>
      </trkpt>
      <trkpt lat="41.27834667" lon="1.87619">
        <ele>309.0</ele>
        <time>2019-12-21T13:08:41.431Z</time>
      </trkpt>
      <trkpt lat="41.27834667" lon="1.87619">
        <ele>309.0</ele>
        <time>2019-12-21T13:08:42.397Z</time>
      </trkpt>
      <trkpt lat="41.27837833" lon="1.87620333">
        <ele>310.0</ele>
        <time>2019-12-21T13:08:43.404Z</time>
      </trkpt>
      <trkpt lat="41.27837833" lon="1.87620333">
        <ele>310.0</ele>
        <time>2019-12-21T13:08:44.420Z</time>
      </trkpt>
      <trkpt lat="41.27841" lon="1.876215">
        <ele>310.0</ele>
        <time>2019-12-21T13:08:45.432Z</time>
      </trkpt>
      <trkpt lat="41.27841" lon="1.876215">
        <ele>310.0</ele>
        <time>2019-12-21T13:08:46.415Z</time>
      </trkpt>
      <trkpt lat="41.27844167" lon="1.87623">
        <ele>310.0</ele>
        <time>2019-12-21T13:08:47.399Z</time>
      </trkpt>
      <trkpt lat="41.27845833" lon="1.87623333">
        <ele>311.0</ele>
        <time>2019-12-21T13:08:48.423Z</time>
      </trkpt>
      <trkpt lat="41.27845833" lon="1.87623333">
        <ele>311.0</ele>
        <time>2019-12-21T13:08:49.406Z</time>
      </trkpt>
      <trkpt lat="41.27849167" lon="1.87624">
        <ele>311.0</ele>
        <time>2019-12-21T13:08:50.404Z</time>
      </trkpt>
      <trkpt lat="41.27850833" lon="1.876245">
        <ele>311.0</ele>
        <time>2019-12-21T13:08:51.427Z</time>
      </trkpt>
      <trkpt lat="41.27850833" lon="1.876245">
        <ele>311.0</ele>
        <time>2019-12-21T13:08:52.410Z</time>
      </trkpt>
      <trkpt lat="41.278545" lon="1.87625833">
        <ele>311.0</ele>
        <time>2019-12-21T13:08:53.402Z</time>
      </trkpt>
      <trkpt lat="41.27856167" lon="1.876265">
        <ele>311.0</ele>
        <time>2019-12-21T13:08:54.398Z</time>
      </trkpt>
      <trkpt lat="41.27856167" lon="1.876265">
        <ele>311.0</ele>
        <time>2019-12-21T13:08:55.424Z</time>
      </trkpt>
      <trkpt lat="41.278595" lon="1.87627333">
        <ele>311.0</ele>
        <time>2019-12-21T13:08:56.412Z</time>
      </trkpt>
      <trkpt lat="41.27861167" lon="1.876275">
        <ele>311.0</ele>
        <time>2019-12-21T13:08:57.404Z</time>
      </trkpt>
      <trkpt lat="41.27862833" lon="1.87627333">
        <ele>311.0</ele>
        <time>2019-12-21T13:08:58.427Z</time>
      </trkpt>
      <trkpt lat="41.27862833" lon="1.87627333">
        <ele>311.0</ele>
        <time>2019-12-21T13:08:59.411Z</time>
      </trkpt>
      <trkpt lat="41.27866" lon="1.87626833">
        <ele>312.0</ele>
        <time>2019-12-21T13:09:00.433Z</time>
      </trkpt>
      <trkpt lat="41.27867667" lon="1.87627167">
        <ele>312.0</ele>
        <time>2019-12-21T13:09:01.402Z</time>
      </trkpt>
      <trkpt lat="41.27867667" lon="1.87627167">
        <ele>312.0</ele>
        <time>2019-12-21T13:09:02.426Z</time>
      </trkpt>
      <trkpt lat="41.27871" lon="1.87626833">
        <ele>312.0</ele>
        <time>2019-12-21T13:09:03.412Z</time>
      </trkpt>
      <trkpt lat="41.27871" lon="1.87626833">
        <ele>312.0</ele>
        <time>2019-12-21T13:09:04.436Z</time>
      </trkpt>
      <trkpt lat="41.278745" lon="1.87626667">
        <ele>312.0</ele>
        <time>2019-12-21T13:09:05.436Z</time>
      </trkpt>
      <trkpt lat="41.27876" lon="1.87626">
        <ele>312.0</ele>
        <time>2019-12-21T13:09:06.420Z</time>
      </trkpt>
      <trkpt lat="41.27876" lon="1.87626">
        <ele>312.0</ele>
        <time>2019-12-21T13:09:07.402Z</time>
      </trkpt>
      <trkpt lat="41.278785" lon="1.87624333">
        <ele>313.0</ele>
        <time>2019-12-21T13:09:08.433Z</time>
      </trkpt>
      <trkpt lat="41.27879667" lon="1.876235">
        <ele>313.0</ele>
        <time>2019-12-21T13:09:09.416Z</time>
      </trkpt>
      <trkpt lat="41.27879667" lon="1.876235">
        <ele>313.0</ele>
        <time>2019-12-21T13:09:10.398Z</time>
      </trkpt>
      <trkpt lat="41.27882167" lon="1.87622">
        <ele>314.0</ele>
        <time>2019-12-21T13:09:11.425Z</time>
      </trkpt>
      <trkpt lat="41.27882167" lon="1.87622">
        <ele>314.0</ele>
        <time>2019-12-21T13:09:12.407Z</time>
      </trkpt>
      <trkpt lat="41.27884667" lon="1.87619833">
        <ele>314.0</ele>
        <time>2019-12-21T13:09:13.399Z</time>
      </trkpt>
      <trkpt lat="41.27886167" lon="1.87618833">
        <ele>314.0</ele>
        <time>2019-12-21T13:09:14.426Z</time>
      </trkpt>
      <trkpt lat="41.27886167" lon="1.87618833">
        <ele>314.0</ele>
        <time>2019-12-21T13:09:15.408Z</time>
      </trkpt>
      <trkpt lat="41.27888833" lon="1.87616667">
        <ele>315.0</ele>
        <time>2019-12-21T13:09:16.405Z</time>
      </trkpt>
      <trkpt lat="41.27890333" lon="1.87616">
        <ele>315.0</ele>
        <time>2019-12-21T13:09:17.404Z</time>
      </trkpt>
      <trkpt lat="41.27890333" lon="1.87616">
        <ele>315.0</ele>
        <time>2019-12-21T13:09:18.427Z</time>
      </trkpt>
      <trkpt lat="41.27893" lon="1.87615667">
        <ele>316.0</ele>
        <time>2019-12-21T13:09:19.410Z</time>
      </trkpt>
      <trkpt lat="41.278945" lon="1.87615667">
        <ele>316.0</ele>
        <time>2019-12-21T13:09:20.404Z</time>
      </trkpt>
      <trkpt lat="41.278945" lon="1.87615667">
        <ele>316.0</ele>
        <time>2019-12-21T13:09:21.428Z</time>
      </trkpt>
      <trkpt lat="41.27897333" lon="1.87615833">
        <ele>317.0</ele>
        <time>2019-12-21T13:09:22.416Z</time>
      </trkpt>
      <trkpt lat="41.27897333" lon="1.87615833">
        <ele>317.0</ele>
        <time>2019-12-21T13:09:23.400Z</time>
      </trkpt>
      <trkpt lat="41.27899333" lon="1.876175">
        <ele>317.0</ele>
        <time>2019-12-21T13:09:24.433Z</time>
      </trkpt>
      <trkpt lat="41.27899333" lon="1.876175">
        <ele>317.0</ele>
        <time>2019-12-21T13:09:25.416Z</time>
      </trkpt>
      <trkpt lat="41.27901333" lon="1.87619333">
        <ele>317.0</ele>
        <time>2019-12-21T13:09:26.407Z</time>
      </trkpt>
      <trkpt lat="41.27901333" lon="1.87619333">
        <ele>317.0</ele>
        <time>2019-12-21T13:09:27.432Z</time>
      </trkpt>
      <trkpt lat="41.27903167" lon="1.87620833">
        <ele>318.0</ele>
        <time>2019-12-21T13:09:28.404Z</time>
      </trkpt>
      <trkpt lat="41.27903167" lon="1.87620833">
        <ele>318.0</ele>
        <time>2019-12-21T13:09:29.429Z</time>
      </trkpt>
      <trkpt lat="41.27905333" lon="1.87620667">
        <ele>318.0</ele>
        <time>2019-12-21T13:09:30.420Z</time>
      </trkpt>
      <trkpt lat="41.27905333" lon="1.87620667">
        <ele>318.0</ele>
        <time>2019-12-21T13:09:31.404Z</time>
      </trkpt>
      <trkpt lat="41.27908" lon="1.87618833">
        <ele>318.0</ele>
        <time>2019-12-21T13:09:32.405Z</time>
      </trkpt>
      <trkpt lat="41.27908" lon="1.87618833">
        <ele>318.0</ele>
        <time>2019-12-21T13:09:33.429Z</time>
      </trkpt>
      <trkpt lat="41.2791" lon="1.87621167">
        <ele>319.0</ele>
        <time>2019-12-21T13:09:34.416Z</time>
      </trkpt>
      <trkpt lat="41.2791" lon="1.87621167">
        <ele>319.0</ele>
        <time>2019-12-21T13:09:35.398Z</time>
      </trkpt>
      <trkpt lat="41.27911167" lon="1.87623167">
        <ele>319.0</ele>
        <time>2019-12-21T13:09:36.426Z</time>
      </trkpt>
      <trkpt lat="41.27911167" lon="1.87623167">
        <ele>319.0</ele>
        <time>2019-12-21T13:09:37.409Z</time>
      </trkpt>
      <trkpt lat="41.27913333" lon="1.87624">
        <ele>318.0</ele>
        <time>2019-12-21T13:09:38.404Z</time>
      </trkpt>
      <trkpt lat="41.27914667" lon="1.87625167">
        <ele>318.0</ele>
        <time>2019-12-21T13:09:39.411Z</time>
      </trkpt>
      <trkpt lat="41.27914667" lon="1.87625167">
        <ele>318.0</ele>
        <time>2019-12-21T13:09:40.434Z</time>
      </trkpt>
      <trkpt lat="41.27918167" lon="1.87627333">
        <ele>318.0</ele>
        <time>2019-12-21T13:09:41.428Z</time>
      </trkpt>
      <trkpt lat="41.27920333" lon="1.87628333">
        <ele>318.0</ele>
        <time>2019-12-21T13:09:42.411Z</time>
      </trkpt>
      <trkpt lat="41.27920333" lon="1.87628333">
        <ele>318.0</ele>
        <time>2019-12-21T13:09:43.434Z</time>
      </trkpt>
      <trkpt lat="41.27923" lon="1.87629833">
        <ele>318.0</ele>
        <time>2019-12-21T13:09:44.417Z</time>
      </trkpt>
      <trkpt lat="41.27923" lon="1.87629833">
        <ele>318.0</ele>
        <time>2019-12-21T13:09:45.399Z</time>
      </trkpt>
      <trkpt lat="41.279235" lon="1.87629833">
        <ele>318.0</ele>
        <time>2019-12-21T13:09:46.424Z</time>
      </trkpt>
      <trkpt lat="41.279235" lon="1.87629833">
        <ele>318.0</ele>
        <time>2019-12-21T13:09:47.441Z</time>
      </trkpt>
      <trkpt lat="41.279235" lon="1.87629833">
        <ele>318.0</ele>
        <time>2019-12-21T13:09:48.426Z</time>
      </trkpt>
      <trkpt lat="41.279265" lon="1.87630667">
        <ele>307.0</ele>
        <time>2019-12-21T13:09:49.442Z</time>
      </trkpt>
      <trkpt lat="41.279265" lon="1.87630667">
        <ele>307.0</ele>
        <time>2019-12-21T13:09:50.425Z</time>
      </trkpt>
      <trkpt lat="41.27927" lon="1.87631167">
        <ele>307.0</ele>
        <time>2019-12-21T13:09:51.440Z</time>
      </trkpt>
      <trkpt lat="41.27927167" lon="1.87631">
        <ele>307.0</ele>
        <time>2019-12-21T13:09:52.445Z</time>
      </trkpt>
      <trkpt lat="41.27927167" lon="1.87631">
        <ele>307.0</ele>
        <time>2019-12-21T13:09:53.411Z</time>
      </trkpt>
      <trkpt lat="41.27927" lon="1.87636333">
        <ele>306.0</ele>
        <time>2019-12-21T13:09:54.436Z</time>
      </trkpt>
      <trkpt lat="41.27926833" lon="1.87638167">
        <ele>306.0</ele>
        <time>2019-12-21T13:09:55.435Z</time>
      </trkpt>
      <trkpt lat="41.27926833" lon="1.87638167">
        <ele>306.0</ele>
        <time>2019-12-21T13:09:56.438Z</time>
      </trkpt>
      <trkpt lat="41.27925667" lon="1.87642333">
        <ele>307.0</ele>
        <time>2019-12-21T13:09:57.412Z</time>
      </trkpt>
      <trkpt lat="41.27925167" lon="1.87644">
        <ele>306.0</ele>
        <time>2019-12-21T13:09:58.412Z</time>
      </trkpt>
      <trkpt lat="41.27925167" lon="1.87644">
        <ele>306.0</ele>
        <time>2019-12-21T13:09:59.414Z</time>
      </trkpt>
      <trkpt lat="41.27924667" lon="1.87646167">
        <ele>306.0</ele>
        <time>2019-12-21T13:10:00.410Z</time>
      </trkpt>
      <trkpt lat="41.27924667" lon="1.87646167">
        <ele>306.0</ele>
        <time>2019-12-21T13:10:01.413Z</time>
      </trkpt>
      <trkpt lat="41.279245" lon="1.87648667">
        <ele>307.0</ele>
        <time>2019-12-21T13:10:02.407Z</time>
      </trkpt>
      <trkpt lat="41.279245" lon="1.87648667">
        <ele>307.0</ele>
        <time>2019-12-21T13:10:03.438Z</time>
      </trkpt>
      <trkpt lat="41.279235" lon="1.87651667">
        <ele>307.0</ele>
        <time>2019-12-21T13:10:04.411Z</time>
      </trkpt>
      <trkpt lat="41.279235" lon="1.87651667">
        <ele>307.0</ele>
        <time>2019-12-21T13:10:05.413Z</time>
      </trkpt>
      <trkpt lat="41.27923333" lon="1.87654833">
        <ele>307.0</ele>
        <time>2019-12-21T13:10:06.433Z</time>
      </trkpt>
      <trkpt lat="41.27923333" lon="1.87654833">
        <ele>307.0</ele>
        <time>2019-12-21T13:10:07.431Z</time>
      </trkpt>
      <trkpt lat="41.27923" lon="1.876575">
        <ele>308.0</ele>
        <time>2019-12-21T13:10:08.401Z</time>
      </trkpt>
      <trkpt lat="41.279225" lon="1.87658833">
        <ele>308.0</ele>
        <time>2019-12-21T13:10:09.403Z</time>
      </trkpt>
      <trkpt lat="41.279225" lon="1.87658833">
        <ele>308.0</ele>
        <time>2019-12-21T13:10:10.404Z</time>
      </trkpt>
      <trkpt lat="41.27922" lon="1.87662">
        <ele>309.0</ele>
        <time>2019-12-21T13:10:11.403Z</time>
      </trkpt>
      <trkpt lat="41.27921667" lon="1.87663667">
        <ele>309.0</ele>
        <time>2019-12-21T13:10:12.404Z</time>
      </trkpt>
      <trkpt lat="41.27921667" lon="1.87663667">
        <ele>309.0</ele>
        <time>2019-12-21T13:10:13.415Z</time>
      </trkpt>
      <trkpt lat="41.27921" lon="1.87667">
        <ele>310.0</ele>
        <time>2019-12-21T13:10:14.436Z</time>
      </trkpt>
      <trkpt lat="41.27921" lon="1.87667">
        <ele>310.0</ele>
        <time>2019-12-21T13:10:15.439Z</time>
      </trkpt>
      <trkpt lat="41.27921167" lon="1.87670333">
        <ele>310.0</ele>
        <time>2019-12-21T13:10:16.412Z</time>
      </trkpt>
      <trkpt lat="41.27921167" lon="1.87670333">
        <ele>310.0</ele>
        <time>2019-12-21T13:10:17.442Z</time>
      </trkpt>
      <trkpt lat="41.27920833" lon="1.87673667">
        <ele>311.0</ele>
        <time>2019-12-21T13:10:18.411Z</time>
      </trkpt>
      <trkpt lat="41.27920833" lon="1.87673667">
        <ele>311.0</ele>
        <time>2019-12-21T13:10:19.439Z</time>
      </trkpt>
      <trkpt lat="41.27920833" lon="1.87677333">
        <ele>312.0</ele>
        <time>2019-12-21T13:10:20.412Z</time>
      </trkpt>
      <trkpt lat="41.27920833" lon="1.87677333">
        <ele>312.0</ele>
        <time>2019-12-21T13:10:21.414Z</time>
      </trkpt>
      <trkpt lat="41.27921" lon="1.87681167">
        <ele>313.0</ele>
        <time>2019-12-21T13:10:22.411Z</time>
      </trkpt>
      <trkpt lat="41.27921" lon="1.87681167">
        <ele>313.0</ele>
        <time>2019-12-21T13:10:23.405Z</time>
      </trkpt>
      <trkpt lat="41.27921167" lon="1.87685">
        <ele>314.0</ele>
        <time>2019-12-21T13:10:24.406Z</time>
      </trkpt>
      <trkpt lat="41.27921167" lon="1.87685">
        <ele>314.0</ele>
        <time>2019-12-21T13:10:25.440Z</time>
      </trkpt>
      <trkpt lat="41.27921167" lon="1.876885">
        <ele>314.0</ele>
        <time>2019-12-21T13:10:26.434Z</time>
      </trkpt>
      <trkpt lat="41.27921167" lon="1.876885">
        <ele>314.0</ele>
        <time>2019-12-21T13:10:27.439Z</time>
      </trkpt>
      <trkpt lat="41.27920833" lon="1.87691167">
        <ele>315.0</ele>
        <time>2019-12-21T13:10:28.413Z</time>
      </trkpt>
      <trkpt lat="41.27920833" lon="1.87691167">
        <ele>315.0</ele>
        <time>2019-12-21T13:10:29.414Z</time>
      </trkpt>
      <trkpt lat="41.27921167" lon="1.87694833">
        <ele>316.0</ele>
        <time>2019-12-21T13:10:30.411Z</time>
      </trkpt>
      <trkpt lat="41.27921167" lon="1.87694833">
        <ele>316.0</ele>
        <time>2019-12-21T13:10:31.438Z</time>
      </trkpt>
      <trkpt lat="41.27921667" lon="1.87697833">
        <ele>317.0</ele>
        <time>2019-12-21T13:10:32.410Z</time>
      </trkpt>
      <trkpt lat="41.27921833" lon="1.876995">
        <ele>317.0</ele>
        <time>2019-12-21T13:10:33.409Z</time>
      </trkpt>
      <trkpt lat="41.27921833" lon="1.877015">
        <ele>317.0</ele>
        <time>2019-12-21T13:10:34.411Z</time>
      </trkpt>
      <trkpt lat="41.27921833" lon="1.877015">
        <ele>317.0</ele>
        <time>2019-12-21T13:10:35.441Z</time>
      </trkpt>
      <trkpt lat="41.27922" lon="1.87705167">
        <ele>318.0</ele>
        <time>2019-12-21T13:10:36.413Z</time>
      </trkpt>
      <trkpt lat="41.27922" lon="1.87705167">
        <ele>318.0</ele>
        <time>2019-12-21T13:10:37.439Z</time>
      </trkpt>
      <trkpt lat="41.27922333" lon="1.877085">
        <ele>318.0</ele>
        <time>2019-12-21T13:10:38.413Z</time>
      </trkpt>
      <trkpt lat="41.27922333" lon="1.877085">
        <ele>318.0</ele>
        <time>2019-12-21T13:10:39.414Z</time>
      </trkpt>
      <trkpt lat="41.27923333" lon="1.87712167">
        <ele>319.0</ele>
        <time>2019-12-21T13:10:40.411Z</time>
      </trkpt>
      <trkpt lat="41.27923333" lon="1.87712167">
        <ele>319.0</ele>
        <time>2019-12-21T13:10:41.398Z</time>
      </trkpt>
      <trkpt lat="41.27924333" lon="1.87715833">
        <ele>320.0</ele>
        <time>2019-12-21T13:10:42.412Z</time>
      </trkpt>
      <trkpt lat="41.27924333" lon="1.87715833">
        <ele>320.0</ele>
        <time>2019-12-21T13:10:43.439Z</time>
      </trkpt>
      <trkpt lat="41.27924833" lon="1.87719167">
        <ele>321.0</ele>
        <time>2019-12-21T13:10:44.412Z</time>
      </trkpt>
      <trkpt lat="41.27924833" lon="1.87719167">
        <ele>321.0</ele>
        <time>2019-12-21T13:10:45.413Z</time>
      </trkpt>
      <trkpt lat="41.27926" lon="1.87722667">
        <ele>322.0</ele>
        <time>2019-12-21T13:10:46.410Z</time>
      </trkpt>
      <trkpt lat="41.27926" lon="1.87722667">
        <ele>322.0</ele>
        <time>2019-12-21T13:10:47.412Z</time>
      </trkpt>
      <trkpt lat="41.27924833" lon="1.877265">
        <ele>322.0</ele>
        <time>2019-12-21T13:10:48.413Z</time>
      </trkpt>
      <trkpt lat="41.27924833" lon="1.877265">
        <ele>322.0</ele>
        <time>2019-12-21T13:10:49.438Z</time>
      </trkpt>
      <trkpt lat="41.279255" lon="1.87729667">
        <ele>323.0</ele>
        <time>2019-12-21T13:10:50.413Z</time>
      </trkpt>
      <trkpt lat="41.27925667" lon="1.87731">
        <ele>323.0</ele>
        <time>2019-12-21T13:10:51.411Z</time>
      </trkpt>
      <trkpt lat="41.27925667" lon="1.87731">
        <ele>323.0</ele>
        <time>2019-12-21T13:10:52.413Z</time>
      </trkpt>
      <trkpt lat="41.27925667" lon="1.877345">
        <ele>324.0</ele>
        <time>2019-12-21T13:10:53.407Z</time>
      </trkpt>
      <trkpt lat="41.27925833" lon="1.87736">
        <ele>324.0</ele>
        <time>2019-12-21T13:10:54.401Z</time>
      </trkpt>
      <trkpt lat="41.27925833" lon="1.87736">
        <ele>324.0</ele>
        <time>2019-12-21T13:10:55.400Z</time>
      </trkpt>
      <trkpt lat="41.27926667" lon="1.87739333">
        <ele>325.0</ele>
        <time>2019-12-21T13:10:56.401Z</time>
      </trkpt>
      <trkpt lat="41.27926667" lon="1.87739333">
        <ele>325.0</ele>
        <time>2019-12-21T13:10:57.400Z</time>
      </trkpt>
      <trkpt lat="41.27927333" lon="1.87741667">
        <ele>325.0</ele>
        <time>2019-12-21T13:10:58.403Z</time>
      </trkpt>
      <trkpt lat="41.27927333" lon="1.87741667">
        <ele>325.0</ele>
        <time>2019-12-21T13:10:59.408Z</time>
      </trkpt>
      <trkpt lat="41.27928167" lon="1.877445">
        <ele>326.0</ele>
        <time>2019-12-21T13:11:00.434Z</time>
      </trkpt>
      <trkpt lat="41.27928167" lon="1.877445">
        <ele>326.0</ele>
        <time>2019-12-21T13:11:01.440Z</time>
      </trkpt>
      <trkpt lat="41.279285" lon="1.87748167">
        <ele>326.0</ele>
        <time>2019-12-21T13:11:02.414Z</time>
      </trkpt>
      <trkpt lat="41.27928667" lon="1.87752">
        <ele>327.0</ele>
        <time>2019-12-21T13:11:03.437Z</time>
      </trkpt>
      <trkpt lat="41.27928667" lon="1.87752">
        <ele>327.0</ele>
        <time>2019-12-21T13:11:04.440Z</time>
      </trkpt>
      <trkpt lat="41.27929167" lon="1.87753833">
        <ele>327.0</ele>
        <time>2019-12-21T13:11:05.412Z</time>
      </trkpt>
      <trkpt lat="41.27929667" lon="1.877555">
        <ele>327.0</ele>
        <time>2019-12-21T13:11:06.412Z</time>
      </trkpt>
      <trkpt lat="41.27929667" lon="1.877555">
        <ele>327.0</ele>
        <time>2019-12-21T13:11:07.439Z</time>
      </trkpt>
      <trkpt lat="41.27930167" lon="1.87758167">
        <ele>328.0</ele>
        <time>2019-12-21T13:11:08.412Z</time>
      </trkpt>
      <trkpt lat="41.27930167" lon="1.87758167">
        <ele>328.0</ele>
        <time>2019-12-21T13:11:09.414Z</time>
      </trkpt>
      <trkpt lat="41.27930667" lon="1.87761167">
        <ele>329.0</ele>
        <time>2019-12-21T13:11:10.411Z</time>
      </trkpt>
      <trkpt lat="41.27930667" lon="1.87761167">
        <ele>329.0</ele>
        <time>2019-12-21T13:11:11.419Z</time>
      </trkpt>
      <trkpt lat="41.27931167" lon="1.87764333">
        <ele>330.0</ele>
        <time>2019-12-21T13:11:12.414Z</time>
      </trkpt>
      <trkpt lat="41.27931167" lon="1.87764333">
        <ele>330.0</ele>
        <time>2019-12-21T13:11:13.439Z</time>
      </trkpt>
      <trkpt lat="41.27931333" lon="1.87768167">
        <ele>330.0</ele>
        <time>2019-12-21T13:11:14.412Z</time>
      </trkpt>
      <trkpt lat="41.27931333" lon="1.87768167">
        <ele>330.0</ele>
        <time>2019-12-21T13:11:15.413Z</time>
      </trkpt>
      <trkpt lat="41.27932" lon="1.87772">
        <ele>331.0</ele>
        <time>2019-12-21T13:11:16.410Z</time>
      </trkpt>
      <trkpt lat="41.279325" lon="1.87773667">
        <ele>331.0</ele>
        <time>2019-12-21T13:11:17.436Z</time>
      </trkpt>
      <trkpt lat="41.279325" lon="1.87773667">
        <ele>331.0</ele>
        <time>2019-12-21T13:11:18.439Z</time>
      </trkpt>
      <trkpt lat="41.27933333" lon="1.87776833">
        <ele>332.0</ele>
        <time>2019-12-21T13:11:19.434Z</time>
      </trkpt>
      <trkpt lat="41.27933333" lon="1.87776833">
        <ele>332.0</ele>
        <time>2019-12-21T13:11:20.420Z</time>
      </trkpt>
      <trkpt lat="41.27934167" lon="1.87780333">
        <ele>332.0</ele>
        <time>2019-12-21T13:11:21.415Z</time>
      </trkpt>
      <trkpt lat="41.27934167" lon="1.87780333">
        <ele>332.0</ele>
        <time>2019-12-21T13:11:22.415Z</time>
      </trkpt>
      <trkpt lat="41.27934667" lon="1.87783333">
        <ele>333.0</ele>
        <time>2019-12-21T13:11:23.402Z</time>
      </trkpt>
      <trkpt lat="41.27935167" lon="1.87784833">
        <ele>334.0</ele>
        <time>2019-12-21T13:11:24.434Z</time>
      </trkpt>
      <trkpt lat="41.27935167" lon="1.87784833">
        <ele>334.0</ele>
        <time>2019-12-21T13:11:25.420Z</time>
      </trkpt>
      <trkpt lat="41.27935667" lon="1.87787833">
        <ele>334.0</ele>
        <time>2019-12-21T13:11:26.434Z</time>
      </trkpt>
      <trkpt lat="41.27935667" lon="1.87787833">
        <ele>334.0</ele>
        <time>2019-12-21T13:11:27.439Z</time>
      </trkpt>
      <trkpt lat="41.279365" lon="1.87790667">
        <ele>335.0</ele>
        <time>2019-12-21T13:11:28.434Z</time>
      </trkpt>
      <trkpt lat="41.279365" lon="1.87790667">
        <ele>335.0</ele>
        <time>2019-12-21T13:11:29.441Z</time>
      </trkpt>
      <trkpt lat="41.27937" lon="1.87794">
        <ele>336.0</ele>
        <time>2019-12-21T13:11:30.415Z</time>
      </trkpt>
      <trkpt lat="41.27937" lon="1.87794">
        <ele>336.0</ele>
        <time>2019-12-21T13:11:31.415Z</time>
      </trkpt>
      <trkpt lat="41.27938" lon="1.87797667">
        <ele>337.0</ele>
        <time>2019-12-21T13:11:32.411Z</time>
      </trkpt>
      <trkpt lat="41.27938333" lon="1.87799667">
        <ele>337.0</ele>
        <time>2019-12-21T13:11:33.410Z</time>
      </trkpt>
      <trkpt lat="41.27938333" lon="1.87799667">
        <ele>337.0</ele>
        <time>2019-12-21T13:11:34.400Z</time>
      </trkpt>
      <trkpt lat="41.27938667" lon="1.87803333">
        <ele>337.0</ele>
        <time>2019-12-21T13:11:35.416Z</time>
      </trkpt>
      <trkpt lat="41.27939" lon="1.87805167">
        <ele>338.0</ele>
        <time>2019-12-21T13:11:36.434Z</time>
      </trkpt>
      <trkpt lat="41.27939" lon="1.87805167">
        <ele>338.0</ele>
        <time>2019-12-21T13:11:37.440Z</time>
      </trkpt>
      <trkpt lat="41.27939833" lon="1.87809">
        <ele>338.0</ele>
        <time>2019-12-21T13:11:38.434Z</time>
      </trkpt>
      <trkpt lat="41.27939833" lon="1.87809">
        <ele>338.0</ele>
        <time>2019-12-21T13:11:39.439Z</time>
      </trkpt>
      <trkpt lat="41.27940667" lon="1.87812333">
        <ele>339.0</ele>
        <time>2019-12-21T13:11:40.413Z</time>
      </trkpt>
      <trkpt lat="41.27940667" lon="1.87812333">
        <ele>339.0</ele>
        <time>2019-12-21T13:11:41.398Z</time>
      </trkpt>
      <trkpt lat="41.27941167" lon="1.87815833">
        <ele>339.0</ele>
        <time>2019-12-21T13:11:42.435Z</time>
      </trkpt>
      <trkpt lat="41.27941167" lon="1.87815833">
        <ele>339.0</ele>
        <time>2019-12-21T13:11:43.439Z</time>
      </trkpt>
      <trkpt lat="41.27941833" lon="1.87819833">
        <ele>340.0</ele>
        <time>2019-12-21T13:11:44.441Z</time>
      </trkpt>
      <trkpt lat="41.27942333" lon="1.87821667">
        <ele>340.0</ele>
        <time>2019-12-21T13:11:45.414Z</time>
      </trkpt>
      <trkpt lat="41.27942333" lon="1.87821667">
        <ele>340.0</ele>
        <time>2019-12-21T13:11:46.416Z</time>
      </trkpt>
      <trkpt lat="41.27943333" lon="1.87825333">
        <ele>340.0</ele>
        <time>2019-12-21T13:11:47.411Z</time>
      </trkpt>
      <trkpt lat="41.27943667" lon="1.87827">
        <ele>341.0</ele>
        <time>2019-12-21T13:11:48.432Z</time>
      </trkpt>
      <trkpt lat="41.27943667" lon="1.87827">
        <ele>341.0</ele>
        <time>2019-12-21T13:11:49.439Z</time>
      </trkpt>
      <trkpt lat="41.279445" lon="1.878305">
        <ele>341.0</ele>
        <time>2019-12-21T13:11:50.434Z</time>
      </trkpt>
      <trkpt lat="41.279445" lon="1.878305">
        <ele>341.0</ele>
        <time>2019-12-21T13:11:51.439Z</time>
      </trkpt>
      <trkpt lat="41.27945167" lon="1.87833667">
        <ele>342.0</ele>
        <time>2019-12-21T13:11:52.413Z</time>
      </trkpt>
      <trkpt lat="41.27945167" lon="1.87833667">
        <ele>342.0</ele>
        <time>2019-12-21T13:11:53.414Z</time>
      </trkpt>
      <trkpt lat="41.27945667" lon="1.87837">
        <ele>342.0</ele>
        <time>2019-12-21T13:11:54.434Z</time>
      </trkpt>
      <trkpt lat="41.27945667" lon="1.87837">
        <ele>342.0</ele>
        <time>2019-12-21T13:11:55.439Z</time>
      </trkpt>
      <trkpt lat="41.27946167" lon="1.878405">
        <ele>343.0</ele>
        <time>2019-12-21T13:11:56.434Z</time>
      </trkpt>
      <trkpt lat="41.27946167" lon="1.878405">
        <ele>343.0</ele>
        <time>2019-12-21T13:11:57.440Z</time>
      </trkpt>
      <trkpt lat="41.27946833" lon="1.87844333">
        <ele>343.0</ele>
        <time>2019-12-21T13:11:58.412Z</time>
      </trkpt>
      <trkpt lat="41.27946833" lon="1.87844333">
        <ele>343.0</ele>
        <time>2019-12-21T13:11:59.402Z</time>
      </trkpt>
      <trkpt lat="41.279475" lon="1.87848333">
        <ele>343.0</ele>
        <time>2019-12-21T13:12:00.403Z</time>
      </trkpt>
      <trkpt lat="41.279475" lon="1.87848333">
        <ele>343.0</ele>
        <time>2019-12-21T13:12:01.404Z</time>
      </trkpt>
      <trkpt lat="41.27948333" lon="1.87852">
        <ele>344.0</ele>
        <time>2019-12-21T13:12:02.404Z</time>
      </trkpt>
      <trkpt lat="41.27948333" lon="1.87852">
        <ele>344.0</ele>
        <time>2019-12-21T13:12:03.405Z</time>
      </trkpt>
      <trkpt lat="41.27949" lon="1.87855833">
        <ele>344.0</ele>
        <time>2019-12-21T13:12:04.406Z</time>
      </trkpt>
      <trkpt lat="41.27949" lon="1.87855833">
        <ele>344.0</ele>
        <time>2019-12-21T13:12:05.411Z</time>
      </trkpt>
      <trkpt lat="41.27949167" lon="1.878605">
        <ele>344.0</ele>
        <time>2019-12-21T13:12:06.411Z</time>
      </trkpt>
      <trkpt lat="41.27949167" lon="1.878605">
        <ele>344.0</ele>
        <time>2019-12-21T13:12:07.435Z</time>
      </trkpt>
      <trkpt lat="41.27949833" lon="1.87864833">
        <ele>344.0</ele>
        <time>2019-12-21T13:12:08.440Z</time>
      </trkpt>
      <trkpt lat="41.27949833" lon="1.87864833">
        <ele>344.0</ele>
        <time>2019-12-21T13:12:09.439Z</time>
      </trkpt>
      <trkpt lat="41.279505" lon="1.87869">
        <ele>345.0</ele>
        <time>2019-12-21T13:12:10.412Z</time>
      </trkpt>
      <trkpt lat="41.27950667" lon="1.87870833">
        <ele>345.0</ele>
        <time>2019-12-21T13:12:11.411Z</time>
      </trkpt>
      <trkpt lat="41.27950667" lon="1.87870833">
        <ele>345.0</ele>
        <time>2019-12-21T13:12:12.400Z</time>
      </trkpt>
      <trkpt lat="41.27951167" lon="1.87874833">
        <ele>345.0</ele>
        <time>2019-12-21T13:12:13.400Z</time>
      </trkpt>
      <trkpt lat="41.279515" lon="1.87876833">
        <ele>345.0</ele>
        <time>2019-12-21T13:12:14.434Z</time>
      </trkpt>
      <trkpt lat="41.279515" lon="1.87876833">
        <ele>345.0</ele>
        <time>2019-12-21T13:12:15.417Z</time>
      </trkpt>
      <trkpt lat="41.27951667" lon="1.87880667">
        <ele>346.0</ele>
        <time>2019-12-21T13:12:16.439Z</time>
      </trkpt>
      <trkpt lat="41.27951667" lon="1.87880667">
        <ele>346.0</ele>
        <time>2019-12-21T13:12:17.441Z</time>
      </trkpt>
      <trkpt lat="41.27952167" lon="1.87884667">
        <ele>346.0</ele>
        <time>2019-12-21T13:12:18.415Z</time>
      </trkpt>
      <trkpt lat="41.27952167" lon="1.87884667">
        <ele>346.0</ele>
        <time>2019-12-21T13:12:19.439Z</time>
      </trkpt>
      <trkpt lat="41.279525" lon="1.87888667">
        <ele>346.0</ele>
        <time>2019-12-21T13:12:20.414Z</time>
      </trkpt>
      <trkpt lat="41.27952833" lon="1.878905">
        <ele>347.0</ele>
        <time>2019-12-21T13:12:21.410Z</time>
      </trkpt>
      <trkpt lat="41.27952833" lon="1.878905">
        <ele>347.0</ele>
        <time>2019-12-21T13:12:22.400Z</time>
      </trkpt>
      <trkpt lat="41.279535" lon="1.87894333">
        <ele>347.0</ele>
        <time>2019-12-21T13:12:23.416Z</time>
      </trkpt>
      <trkpt lat="41.279535" lon="1.87896833">
        <ele>347.0</ele>
        <time>2019-12-21T13:12:24.435Z</time>
      </trkpt>
      <trkpt lat="41.279535" lon="1.87896833">
        <ele>347.0</ele>
        <time>2019-12-21T13:12:25.441Z</time>
      </trkpt>
      <trkpt lat="41.27954" lon="1.87901333">
        <ele>348.0</ele>
        <time>2019-12-21T13:12:26.412Z</time>
      </trkpt>
      <trkpt lat="41.27954" lon="1.87901333">
        <ele>348.0</ele>
        <time>2019-12-21T13:12:27.414Z</time>
      </trkpt>
      <trkpt lat="41.279545" lon="1.87905667">
        <ele>348.0</ele>
        <time>2019-12-21T13:12:28.410Z</time>
      </trkpt>
      <trkpt lat="41.279545" lon="1.87905667">
        <ele>348.0</ele>
        <time>2019-12-21T13:12:29.400Z</time>
      </trkpt>
      <trkpt lat="41.27954833" lon="1.87909833">
        <ele>349.0</ele>
        <time>2019-12-21T13:12:30.402Z</time>
      </trkpt>
      <trkpt lat="41.27954833" lon="1.87909833">
        <ele>349.0</ele>
        <time>2019-12-21T13:12:31.401Z</time>
      </trkpt>
      <trkpt lat="41.27955" lon="1.87913833">
        <ele>349.0</ele>
        <time>2019-12-21T13:12:32.414Z</time>
      </trkpt>
      <trkpt lat="41.27955" lon="1.87913833">
        <ele>349.0</ele>
        <time>2019-12-21T13:12:33.415Z</time>
      </trkpt>
      <trkpt lat="41.27955167" lon="1.87918167">
        <ele>349.0</ele>
        <time>2019-12-21T13:12:34.411Z</time>
      </trkpt>
      <trkpt lat="41.27955333" lon="1.8792">
        <ele>350.0</ele>
        <time>2019-12-21T13:12:35.437Z</time>
      </trkpt>
      <trkpt lat="41.27955333" lon="1.8792">
        <ele>350.0</ele>
        <time>2019-12-21T13:12:36.439Z</time>
      </trkpt>
      <trkpt lat="41.279555" lon="1.87923833">
        <ele>350.0</ele>
        <time>2019-12-21T13:12:37.412Z</time>
      </trkpt>
      <trkpt lat="41.279555" lon="1.87923833">
        <ele>350.0</ele>
        <time>2019-12-21T13:12:38.415Z</time>
      </trkpt>
      <trkpt lat="41.27955833" lon="1.87928">
        <ele>350.0</ele>
        <time>2019-12-21T13:12:39.410Z</time>
      </trkpt>
      <trkpt lat="41.27955833" lon="1.87928">
        <ele>350.0</ele>
        <time>2019-12-21T13:12:40.413Z</time>
      </trkpt>
      <trkpt lat="41.27956333" lon="1.87932167">
        <ele>351.0</ele>
        <time>2019-12-21T13:12:41.406Z</time>
      </trkpt>
      <trkpt lat="41.27956667" lon="1.87934">
        <ele>351.0</ele>
        <time>2019-12-21T13:12:42.434Z</time>
      </trkpt>
      <trkpt lat="41.27956667" lon="1.87934">
        <ele>351.0</ele>
        <time>2019-12-21T13:12:43.416Z</time>
      </trkpt>
      <trkpt lat="41.279585" lon="1.87935833">
        <ele>352.0</ele>
        <time>2019-12-21T13:12:44.435Z</time>
      </trkpt>
      <trkpt lat="41.279585" lon="1.87935833">
        <ele>352.0</ele>
        <time>2019-12-21T13:12:45.440Z</time>
      </trkpt>
      <trkpt lat="41.27958833" lon="1.87938">
        <ele>352.0</ele>
        <time>2019-12-21T13:12:46.415Z</time>
      </trkpt>
      <trkpt lat="41.27958333" lon="1.87939333">
        <ele>352.0</ele>
        <time>2019-12-21T13:12:47.411Z</time>
      </trkpt>
      <trkpt lat="41.27958" lon="1.87941">
        <ele>352.0</ele>
        <time>2019-12-21T13:12:48.436Z</time>
      </trkpt>
      <trkpt lat="41.27958" lon="1.87941">
        <ele>352.0</ele>
        <time>2019-12-21T13:12:49.441Z</time>
      </trkpt>
      <trkpt lat="41.27958167" lon="1.87944333">
        <ele>353.0</ele>
        <time>2019-12-21T13:12:50.415Z</time>
      </trkpt>
      <trkpt lat="41.27958167" lon="1.87944333">
        <ele>353.0</ele>
        <time>2019-12-21T13:12:51.406Z</time>
      </trkpt>
      <trkpt lat="41.27958333" lon="1.87948167">
        <ele>353.0</ele>
        <time>2019-12-21T13:12:52.406Z</time>
      </trkpt>
      <trkpt lat="41.279585" lon="1.87951833">
        <ele>353.0</ele>
        <time>2019-12-21T13:12:53.446Z</time>
      </trkpt>
      <trkpt lat="41.279585" lon="1.87951833">
        <ele>353.0</ele>
        <time>2019-12-21T13:12:54.406Z</time>
      </trkpt>
      <trkpt lat="41.279585" lon="1.87951833">
        <ele>353.0</ele>
        <time>2019-12-21T13:12:55.417Z</time>
      </trkpt>
      <trkpt lat="41.27958667" lon="1.879565">
        <ele>353.0</ele>
        <time>2019-12-21T13:12:56.398Z</time>
      </trkpt>
      <trkpt lat="41.279585" lon="1.879585">
        <ele>353.0</ele>
        <time>2019-12-21T13:12:57.405Z</time>
      </trkpt>
      <trkpt lat="41.279585" lon="1.879585">
        <ele>353.0</ele>
        <time>2019-12-21T13:12:58.415Z</time>
      </trkpt>
      <trkpt lat="41.27958667" lon="1.87962333">
        <ele>354.0</ele>
        <time>2019-12-21T13:12:59.445Z</time>
      </trkpt>
      <trkpt lat="41.27958667" lon="1.879645">
        <ele>354.0</ele>
        <time>2019-12-21T13:13:00.397Z</time>
      </trkpt>
      <trkpt lat="41.27958667" lon="1.879645">
        <ele>354.0</ele>
        <time>2019-12-21T13:13:01.403Z</time>
      </trkpt>
      <trkpt lat="41.27958833" lon="1.87968333">
        <ele>354.0</ele>
        <time>2019-12-21T13:13:02.408Z</time>
      </trkpt>
      <trkpt lat="41.27958833" lon="1.87968333">
        <ele>354.0</ele>
        <time>2019-12-21T13:13:03.417Z</time>
      </trkpt>
      <trkpt lat="41.279585" lon="1.87970667">
        <ele>354.0</ele>
        <time>2019-12-21T13:13:04.436Z</time>
      </trkpt>
      <trkpt lat="41.27958333" lon="1.87974">
        <ele>355.0</ele>
        <time>2019-12-21T13:13:05.443Z</time>
      </trkpt>
      <trkpt lat="41.27958333" lon="1.87974">
        <ele>355.0</ele>
        <time>2019-12-21T13:13:06.401Z</time>
      </trkpt>
      <trkpt lat="41.27958333" lon="1.87974">
        <ele>355.0</ele>
        <time>2019-12-21T13:13:07.409Z</time>
      </trkpt>
      <trkpt lat="41.27958333" lon="1.87977">
        <ele>355.0</ele>
        <time>2019-12-21T13:13:08.435Z</time>
      </trkpt>
      <trkpt lat="41.27958333" lon="1.87980833">
        <ele>356.0</ele>
        <time>2019-12-21T13:13:09.443Z</time>
      </trkpt>
      <trkpt lat="41.27958333" lon="1.87980833">
        <ele>356.0</ele>
        <time>2019-12-21T13:13:10.436Z</time>
      </trkpt>
      <trkpt lat="41.279585" lon="1.87985167">
        <ele>356.0</ele>
        <time>2019-12-21T13:13:11.444Z</time>
      </trkpt>
      <trkpt lat="41.279585" lon="1.87985167">
        <ele>356.0</ele>
        <time>2019-12-21T13:13:12.401Z</time>
      </trkpt>
      <trkpt lat="41.279585" lon="1.87985167">
        <ele>356.0</ele>
        <time>2019-12-21T13:13:13.404Z</time>
      </trkpt>
      <trkpt lat="41.27958833" lon="1.879895">
        <ele>356.0</ele>
        <time>2019-12-21T13:13:14.406Z</time>
      </trkpt>
      <trkpt lat="41.27958833" lon="1.879895">
        <ele>356.0</ele>
        <time>2019-12-21T13:13:15.411Z</time>
      </trkpt>
      <trkpt lat="41.27959167" lon="1.87993667">
        <ele>356.0</ele>
        <time>2019-12-21T13:13:16.436Z</time>
      </trkpt>
      <trkpt lat="41.27959667" lon="1.87998167">
        <ele>357.0</ele>
        <time>2019-12-21T13:13:17.444Z</time>
      </trkpt>
      <trkpt lat="41.27959667" lon="1.87998167">
        <ele>357.0</ele>
        <time>2019-12-21T13:13:18.435Z</time>
      </trkpt>
      <trkpt lat="41.27959667" lon="1.87998167">
        <ele>357.0</ele>
        <time>2019-12-21T13:13:19.441Z</time>
      </trkpt>
      <trkpt lat="41.27960333" lon="1.88004833">
        <ele>358.0</ele>
        <time>2019-12-21T13:13:20.443Z</time>
      </trkpt>
      <trkpt lat="41.27960333" lon="1.88004833">
        <ele>358.0</ele>
        <time>2019-12-21T13:13:21.404Z</time>
      </trkpt>
      <trkpt lat="41.27960333" lon="1.88004833">
        <ele>358.0</ele>
        <time>2019-12-21T13:13:22.411Z</time>
      </trkpt>
      <trkpt lat="41.27960833" lon="1.880115">
        <ele>358.0</ele>
        <time>2019-12-21T13:13:23.419Z</time>
      </trkpt>
      <trkpt lat="41.27960833" lon="1.880115">
        <ele>358.0</ele>
        <time>2019-12-21T13:13:24.398Z</time>
      </trkpt>
      <trkpt lat="41.27960833" lon="1.880115">
        <ele>358.0</ele>
        <time>2019-12-21T13:13:25.403Z</time>
      </trkpt>
      <trkpt lat="41.27960833" lon="1.880155">
        <ele>359.0</ele>
        <time>2019-12-21T13:13:26.418Z</time>
      </trkpt>
      <trkpt lat="41.27960833" lon="1.880155">
        <ele>359.0</ele>
        <time>2019-12-21T13:13:27.453Z</time>
      </trkpt>
      <trkpt lat="41.27961167" lon="1.88019833">
        <ele>359.0</ele>
        <time>2019-12-21T13:13:28.398Z</time>
      </trkpt>
      <trkpt lat="41.27961167" lon="1.88021667">
        <ele>359.0</ele>
        <time>2019-12-21T13:13:29.405Z</time>
      </trkpt>
      <trkpt lat="41.27961167" lon="1.88021667">
        <ele>359.0</ele>
        <time>2019-12-21T13:13:30.410Z</time>
      </trkpt>
      <trkpt lat="41.27961333" lon="1.88025667">
        <ele>360.0</ele>
        <time>2019-12-21T13:13:31.437Z</time>
      </trkpt>
      <trkpt lat="41.27961333" lon="1.88025667">
        <ele>360.0</ele>
        <time>2019-12-21T13:13:32.442Z</time>
      </trkpt>
      <trkpt lat="41.27962" lon="1.88029833">
        <ele>361.0</ele>
        <time>2019-12-21T13:13:33.400Z</time>
      </trkpt>
      <trkpt lat="41.27962" lon="1.88029833">
        <ele>361.0</ele>
        <time>2019-12-21T13:13:34.407Z</time>
      </trkpt>
      <trkpt lat="41.279625" lon="1.88033667">
        <ele>361.0</ele>
        <time>2019-12-21T13:13:35.423Z</time>
      </trkpt>
      <trkpt lat="41.27962667" lon="1.88035667">
        <ele>361.0</ele>
        <time>2019-12-21T13:13:36.439Z</time>
      </trkpt>
      <trkpt lat="41.27962667" lon="1.88035667">
        <ele>361.0</ele>
        <time>2019-12-21T13:13:37.442Z</time>
      </trkpt>
      <trkpt lat="41.27963" lon="1.88039667">
        <ele>362.0</ele>
        <time>2019-12-21T13:13:38.437Z</time>
      </trkpt>
      <trkpt lat="41.27963" lon="1.88039667">
        <ele>362.0</ele>
        <time>2019-12-21T13:13:39.437Z</time>
      </trkpt>
      <trkpt lat="41.27963833" lon="1.88044167">
        <ele>362.0</ele>
        <time>2019-12-21T13:13:40.401Z</time>
      </trkpt>
      <trkpt lat="41.27964" lon="1.88046167">
        <ele>362.0</ele>
        <time>2019-12-21T13:13:41.418Z</time>
      </trkpt>
      <trkpt lat="41.27964167" lon="1.880485">
        <ele>362.0</ele>
        <time>2019-12-21T13:13:42.399Z</time>
      </trkpt>
      <trkpt lat="41.27964167" lon="1.880485">
        <ele>362.0</ele>
        <time>2019-12-21T13:13:43.441Z</time>
      </trkpt>
      <trkpt lat="41.27964833" lon="1.88052167">
        <ele>363.0</ele>
        <time>2019-12-21T13:13:44.436Z</time>
      </trkpt>
      <trkpt lat="41.27964833" lon="1.88052167">
        <ele>363.0</ele>
        <time>2019-12-21T13:13:45.422Z</time>
      </trkpt>
      <trkpt lat="41.27965" lon="1.88056">
        <ele>363.0</ele>
        <time>2019-12-21T13:13:46.414Z</time>
      </trkpt>
      <trkpt lat="41.27965" lon="1.88056">
        <ele>363.0</ele>
        <time>2019-12-21T13:13:47.418Z</time>
      </trkpt>
      <trkpt lat="41.27965167" lon="1.880595">
        <ele>364.0</ele>
        <time>2019-12-21T13:13:48.436Z</time>
      </trkpt>
      <trkpt lat="41.27965167" lon="1.880595">
        <ele>364.0</ele>
        <time>2019-12-21T13:13:49.420Z</time>
      </trkpt>
      <trkpt lat="41.27965667" lon="1.880635">
        <ele>364.0</ele>
        <time>2019-12-21T13:13:50.436Z</time>
      </trkpt>
      <trkpt lat="41.27965667" lon="1.880635">
        <ele>364.0</ele>
        <time>2019-12-21T13:13:51.440Z</time>
      </trkpt>
      <trkpt lat="41.27966" lon="1.880675">
        <ele>364.0</ele>
        <time>2019-12-21T13:13:52.413Z</time>
      </trkpt>
      <trkpt lat="41.27966" lon="1.880675">
        <ele>364.0</ele>
        <time>2019-12-21T13:13:53.446Z</time>
      </trkpt>
      <trkpt lat="41.27966333" lon="1.880715">
        <ele>365.0</ele>
        <time>2019-12-21T13:13:54.436Z</time>
      </trkpt>
      <trkpt lat="41.27966333" lon="1.880715">
        <ele>365.0</ele>
        <time>2019-12-21T13:13:55.418Z</time>
      </trkpt>
      <trkpt lat="41.27966833" lon="1.880755">
        <ele>365.0</ele>
        <time>2019-12-21T13:13:56.436Z</time>
      </trkpt>
      <trkpt lat="41.27966833" lon="1.880755">
        <ele>365.0</ele>
        <time>2019-12-21T13:13:57.441Z</time>
      </trkpt>
      <trkpt lat="41.27967167" lon="1.88079167">
        <ele>365.0</ele>
        <time>2019-12-21T13:13:58.414Z</time>
      </trkpt>
      <trkpt lat="41.27967167" lon="1.88079167">
        <ele>365.0</ele>
        <time>2019-12-21T13:13:59.415Z</time>
      </trkpt>
      <trkpt lat="41.279675" lon="1.88083167">
        <ele>365.0</ele>
        <time>2019-12-21T13:14:00.436Z</time>
      </trkpt>
      <trkpt lat="41.279675" lon="1.88083167">
        <ele>365.0</ele>
        <time>2019-12-21T13:14:01.442Z</time>
      </trkpt>
      <trkpt lat="41.27968" lon="1.88087833">
        <ele>366.0</ele>
        <time>2019-12-21T13:14:02.414Z</time>
      </trkpt>
      <trkpt lat="41.27968333" lon="1.8809">
        <ele>366.0</ele>
        <time>2019-12-21T13:14:03.406Z</time>
      </trkpt>
      <trkpt lat="41.27968333" lon="1.8809">
        <ele>366.0</ele>
        <time>2019-12-21T13:14:04.410Z</time>
      </trkpt>
      <trkpt lat="41.27969833" lon="1.88093333">
        <ele>366.0</ele>
        <time>2019-12-21T13:14:05.423Z</time>
      </trkpt>
      <trkpt lat="41.27970667" lon="1.88095667">
        <ele>367.0</ele>
        <time>2019-12-21T13:14:06.436Z</time>
      </trkpt>
      <trkpt lat="41.27970667" lon="1.88095667">
        <ele>367.0</ele>
        <time>2019-12-21T13:14:07.441Z</time>
      </trkpt>
      <trkpt lat="41.27972167" lon="1.88100167">
        <ele>367.0</ele>
        <time>2019-12-21T13:14:08.401Z</time>
      </trkpt>
      <trkpt lat="41.27972167" lon="1.88100167">
        <ele>367.0</ele>
        <time>2019-12-21T13:14:09.402Z</time>
      </trkpt>
      <trkpt lat="41.27974333" lon="1.88103167">
        <ele>368.0</ele>
        <time>2019-12-21T13:14:10.405Z</time>
      </trkpt>
      <trkpt lat="41.27974333" lon="1.88103167">
        <ele>368.0</ele>
        <time>2019-12-21T13:14:11.444Z</time>
      </trkpt>
      <trkpt lat="41.27976833" lon="1.881055">
        <ele>368.0</ele>
        <time>2019-12-21T13:14:12.436Z</time>
      </trkpt>
      <trkpt lat="41.27976833" lon="1.881055">
        <ele>368.0</ele>
        <time>2019-12-21T13:14:13.442Z</time>
      </trkpt>
      <trkpt lat="41.27980167" lon="1.88108">
        <ele>369.0</ele>
        <time>2019-12-21T13:14:14.442Z</time>
      </trkpt>
      <trkpt lat="41.27981833" lon="1.88108333">
        <ele>369.0</ele>
        <time>2019-12-21T13:14:15.399Z</time>
      </trkpt>
      <trkpt lat="41.27981833" lon="1.88108333">
        <ele>369.0</ele>
        <time>2019-12-21T13:14:16.399Z</time>
      </trkpt>
      <trkpt lat="41.27985167" lon="1.881095">
        <ele>369.0</ele>
        <time>2019-12-21T13:14:17.400Z</time>
      </trkpt>
      <trkpt lat="41.27986833" lon="1.88109833">
        <ele>369.0</ele>
        <time>2019-12-21T13:14:18.404Z</time>
      </trkpt>
      <trkpt lat="41.27986833" lon="1.88109833">
        <ele>369.0</ele>
        <time>2019-12-21T13:14:19.406Z</time>
      </trkpt>
      <trkpt lat="41.27989667" lon="1.88108833">
        <ele>370.0</ele>
        <time>2019-12-21T13:14:20.411Z</time>
      </trkpt>
      <trkpt lat="41.27989667" lon="1.88108833">
        <ele>370.0</ele>
        <time>2019-12-21T13:14:21.414Z</time>
      </trkpt>
      <trkpt lat="41.27992167" lon="1.88107333">
        <ele>370.0</ele>
        <time>2019-12-21T13:14:22.461Z</time>
      </trkpt>
      <trkpt lat="41.27992167" lon="1.88107333">
        <ele>370.0</ele>
        <time>2019-12-21T13:14:23.401Z</time>
      </trkpt>
      <trkpt lat="41.27994833" lon="1.88106">
        <ele>370.0</ele>
        <time>2019-12-21T13:14:24.405Z</time>
      </trkpt>
      <trkpt lat="41.27994833" lon="1.88106">
        <ele>370.0</ele>
        <time>2019-12-21T13:14:25.407Z</time>
      </trkpt>
      <trkpt lat="41.27997833" lon="1.88105">
        <ele>370.0</ele>
        <time>2019-12-21T13:14:26.409Z</time>
      </trkpt>
      <trkpt lat="41.27997833" lon="1.88105">
        <ele>370.0</ele>
        <time>2019-12-21T13:14:27.414Z</time>
      </trkpt>
      <trkpt lat="41.279995" lon="1.88103667">
        <ele>370.0</ele>
        <time>2019-12-21T13:14:28.437Z</time>
      </trkpt>
      <trkpt lat="41.279995" lon="1.88103667">
        <ele>370.0</ele>
        <time>2019-12-21T13:14:29.418Z</time>
      </trkpt>
      <trkpt lat="41.28001167" lon="1.88102333">
        <ele>370.0</ele>
        <time>2019-12-21T13:14:30.436Z</time>
      </trkpt>
      <trkpt lat="41.28003833" lon="1.881005">
        <ele>371.0</ele>
        <time>2019-12-21T13:14:31.442Z</time>
      </trkpt>
      <trkpt lat="41.28003833" lon="1.881005">
        <ele>371.0</ele>
        <time>2019-12-21T13:14:32.436Z</time>
      </trkpt>
      <trkpt lat="41.28007" lon="1.88099167">
        <ele>371.0</ele>
        <time>2019-12-21T13:14:33.442Z</time>
      </trkpt>
      <trkpt lat="41.28007" lon="1.88099167">
        <ele>371.0</ele>
        <time>2019-12-21T13:14:34.436Z</time>
      </trkpt>
      <trkpt lat="41.28007" lon="1.88099167">
        <ele>371.0</ele>
        <time>2019-12-21T13:14:35.444Z</time>
      </trkpt>
      <trkpt lat="41.2801" lon="1.88097667">
        <ele>371.0</ele>
        <time>2019-12-21T13:14:36.437Z</time>
      </trkpt>
      <trkpt lat="41.28012833" lon="1.88095833">
        <ele>372.0</ele>
        <time>2019-12-21T13:14:37.441Z</time>
      </trkpt>
      <trkpt lat="41.28012833" lon="1.88095833">
        <ele>372.0</ele>
        <time>2019-12-21T13:14:38.436Z</time>
      </trkpt>
      <trkpt lat="41.28012833" lon="1.88095833">
        <ele>372.0</ele>
        <time>2019-12-21T13:14:39.397Z</time>
      </trkpt>
      <trkpt lat="41.28014833" lon="1.880935">
        <ele>372.0</ele>
        <time>2019-12-21T13:14:40.403Z</time>
      </trkpt>
      <trkpt lat="41.28014833" lon="1.880935">
        <ele>372.0</ele>
        <time>2019-12-21T13:14:41.402Z</time>
      </trkpt>
      <trkpt lat="41.28016833" lon="1.88092167">
        <ele>373.0</ele>
        <time>2019-12-21T13:14:42.403Z</time>
      </trkpt>
      <trkpt lat="41.28018" lon="1.88091333">
        <ele>373.0</ele>
        <time>2019-12-21T13:14:43.411Z</time>
      </trkpt>
      <trkpt lat="41.28018" lon="1.88091333">
        <ele>373.0</ele>
        <time>2019-12-21T13:14:44.402Z</time>
      </trkpt>
      <trkpt lat="41.28020167" lon="1.88089167">
        <ele>374.0</ele>
        <time>2019-12-21T13:14:45.405Z</time>
      </trkpt>
      <trkpt lat="41.28020167" lon="1.88089167">
        <ele>374.0</ele>
        <time>2019-12-21T13:14:46.405Z</time>
      </trkpt>
      <trkpt lat="41.28023167" lon="1.88086833">
        <ele>375.0</ele>
        <time>2019-12-21T13:14:47.438Z</time>
      </trkpt>
      <trkpt lat="41.28023167" lon="1.88086833">
        <ele>375.0</ele>
        <time>2019-12-21T13:14:48.441Z</time>
      </trkpt>
      <trkpt lat="41.28025833" lon="1.880855">
        <ele>375.0</ele>
        <time>2019-12-21T13:14:49.415Z</time>
      </trkpt>
      <trkpt lat="41.280275" lon="1.88084667">
        <ele>376.0</ele>
        <time>2019-12-21T13:14:50.436Z</time>
      </trkpt>
      <trkpt lat="41.280275" lon="1.88084667">
        <ele>376.0</ele>
        <time>2019-12-21T13:14:51.422Z</time>
      </trkpt>
      <trkpt lat="41.28029667" lon="1.88081333">
        <ele>377.0</ele>
        <time>2019-12-21T13:14:52.400Z</time>
      </trkpt>
      <trkpt lat="41.28029667" lon="1.88081333">
        <ele>377.0</ele>
        <time>2019-12-21T13:14:53.399Z</time>
      </trkpt>
      <trkpt lat="41.28031833" lon="1.88079">
        <ele>377.0</ele>
        <time>2019-12-21T13:14:54.405Z</time>
      </trkpt>
      <trkpt lat="41.28031833" lon="1.88079">
        <ele>377.0</ele>
        <time>2019-12-21T13:14:55.408Z</time>
      </trkpt>
      <trkpt lat="41.28035333" lon="1.88076667">
        <ele>378.0</ele>
        <time>2019-12-21T13:14:56.414Z</time>
      </trkpt>
      <trkpt lat="41.28035333" lon="1.88076667">
        <ele>378.0</ele>
        <time>2019-12-21T13:14:57.398Z</time>
      </trkpt>
      <trkpt lat="41.28038833" lon="1.880745">
        <ele>378.0</ele>
        <time>2019-12-21T13:14:58.437Z</time>
      </trkpt>
      <trkpt lat="41.28038833" lon="1.880745">
        <ele>378.0</ele>
        <time>2019-12-21T13:14:59.442Z</time>
      </trkpt>
      <trkpt lat="41.28041333" lon="1.880725">
        <ele>379.0</ele>
        <time>2019-12-21T13:15:00.439Z</time>
      </trkpt>
      <trkpt lat="41.28041333" lon="1.880725">
        <ele>379.0</ele>
        <time>2019-12-21T13:15:01.444Z</time>
      </trkpt>
      <trkpt lat="41.28044333" lon="1.88070333">
        <ele>379.0</ele>
        <time>2019-12-21T13:15:02.438Z</time>
      </trkpt>
      <trkpt lat="41.28044333" lon="1.88070333">
        <ele>379.0</ele>
        <time>2019-12-21T13:15:03.397Z</time>
      </trkpt>
      <trkpt lat="41.28047333" lon="1.88067833">
        <ele>380.0</ele>
        <time>2019-12-21T13:15:04.437Z</time>
      </trkpt>
      <trkpt lat="41.28047333" lon="1.88067833">
        <ele>380.0</ele>
        <time>2019-12-21T13:15:05.444Z</time>
      </trkpt>
      <trkpt lat="41.28050167" lon="1.88064833">
        <ele>380.0</ele>
        <time>2019-12-21T13:15:06.418Z</time>
      </trkpt>
      <trkpt lat="41.28050167" lon="1.88064833">
        <ele>380.0</ele>
        <time>2019-12-21T13:15:07.442Z</time>
      </trkpt>
      <trkpt lat="41.28053" lon="1.88062667">
        <ele>381.0</ele>
        <time>2019-12-21T13:15:08.416Z</time>
      </trkpt>
      <trkpt lat="41.28053" lon="1.88062667">
        <ele>381.0</ele>
        <time>2019-12-21T13:15:09.442Z</time>
      </trkpt>
      <trkpt lat="41.280565" lon="1.880615">
        <ele>381.0</ele>
        <time>2019-12-21T13:15:10.437Z</time>
      </trkpt>
      <trkpt lat="41.280565" lon="1.880615">
        <ele>381.0</ele>
        <time>2019-12-21T13:15:11.444Z</time>
      </trkpt>
      <trkpt lat="41.28060833" lon="1.88060167">
        <ele>382.0</ele>
        <time>2019-12-21T13:15:12.442Z</time>
      </trkpt>
      <trkpt lat="41.280635" lon="1.88060167">
        <ele>382.0</ele>
        <time>2019-12-21T13:15:13.438Z</time>
      </trkpt>
      <trkpt lat="41.280635" lon="1.88060167">
        <ele>382.0</ele>
        <time>2019-12-21T13:15:14.441Z</time>
      </trkpt>
      <trkpt lat="41.28069833" lon="1.88060167">
        <ele>382.0</ele>
        <time>2019-12-21T13:15:15.398Z</time>
      </trkpt>
      <trkpt lat="41.28072667" lon="1.880605">
        <ele>382.0</ele>
        <time>2019-12-21T13:15:16.402Z</time>
      </trkpt>
      <trkpt lat="41.28075167" lon="1.88061667">
        <ele>382.0</ele>
        <time>2019-12-21T13:15:17.410Z</time>
      </trkpt>
      <trkpt lat="41.28075167" lon="1.88061667">
        <ele>382.0</ele>
        <time>2019-12-21T13:15:18.401Z</time>
      </trkpt>
      <trkpt lat="41.280795" lon="1.880645">
        <ele>382.0</ele>
        <time>2019-12-21T13:15:19.405Z</time>
      </trkpt>
      <trkpt lat="41.280795" lon="1.880645">
        <ele>382.0</ele>
        <time>2019-12-21T13:15:20.400Z</time>
      </trkpt>
      <trkpt lat="41.28082833" lon="1.880685">
        <ele>382.0</ele>
        <time>2019-12-21T13:15:21.404Z</time>
      </trkpt>
      <trkpt lat="41.28084333" lon="1.88071167">
        <ele>382.0</ele>
        <time>2019-12-21T13:15:22.406Z</time>
      </trkpt>
      <trkpt lat="41.28085333" lon="1.88073667">
        <ele>382.0</ele>
        <time>2019-12-21T13:15:23.397Z</time>
      </trkpt>
      <trkpt lat="41.28086167" lon="1.88076667">
        <ele>381.0</ele>
        <time>2019-12-21T13:15:24.437Z</time>
      </trkpt>
      <trkpt lat="41.28086167" lon="1.88076667">
        <ele>381.0</ele>
        <time>2019-12-21T13:15:25.422Z</time>
      </trkpt>
      <trkpt lat="41.280865" lon="1.88082333">
        <ele>381.0</ele>
        <time>2019-12-21T13:15:26.415Z</time>
      </trkpt>
      <trkpt lat="41.280865" lon="1.88082333">
        <ele>381.0</ele>
        <time>2019-12-21T13:15:27.418Z</time>
      </trkpt>
      <trkpt lat="41.28086167" lon="1.88087667">
        <ele>381.0</ele>
        <time>2019-12-21T13:15:28.437Z</time>
      </trkpt>
      <trkpt lat="41.28086167" lon="1.88087667">
        <ele>381.0</ele>
        <time>2019-12-21T13:15:29.414Z</time>
      </trkpt>
      <trkpt lat="41.28085667" lon="1.88093333">
        <ele>381.0</ele>
        <time>2019-12-21T13:15:30.454Z</time>
      </trkpt>
      <trkpt lat="41.28085167" lon="1.88096167">
        <ele>381.0</ele>
        <time>2019-12-21T13:15:31.398Z</time>
      </trkpt>
      <trkpt lat="41.28085167" lon="1.88096167">
        <ele>381.0</ele>
        <time>2019-12-21T13:15:32.398Z</time>
      </trkpt>
      <trkpt lat="41.28083833" lon="1.88101833">
        <ele>381.0</ele>
        <time>2019-12-21T13:15:33.403Z</time>
      </trkpt>
      <trkpt lat="41.28083" lon="1.881045">
        <ele>381.0</ele>
        <time>2019-12-21T13:15:34.407Z</time>
      </trkpt>
      <trkpt lat="41.28083" lon="1.881045">
        <ele>381.0</ele>
        <time>2019-12-21T13:15:35.400Z</time>
      </trkpt>
      <trkpt lat="41.28081" lon="1.881095">
        <ele>381.0</ele>
        <time>2019-12-21T13:15:36.402Z</time>
      </trkpt>
      <trkpt lat="41.28081" lon="1.881095">
        <ele>381.0</ele>
        <time>2019-12-21T13:15:37.407Z</time>
      </trkpt>
      <trkpt lat="41.28078833" lon="1.88114333">
        <ele>380.0</ele>
        <time>2019-12-21T13:15:38.437Z</time>
      </trkpt>
      <trkpt lat="41.28078833" lon="1.88114333">
        <ele>380.0</ele>
        <time>2019-12-21T13:15:39.443Z</time>
      </trkpt>
      <trkpt lat="41.280765" lon="1.88118833">
        <ele>380.0</ele>
        <time>2019-12-21T13:15:40.433Z</time>
      </trkpt>
      <trkpt lat="41.280765" lon="1.88118833">
        <ele>380.0</ele>
        <time>2019-12-21T13:15:41.408Z</time>
      </trkpt>
      <trkpt lat="41.28073833" lon="1.88123167">
        <ele>380.0</ele>
        <time>2019-12-21T13:15:42.412Z</time>
      </trkpt>
      <trkpt lat="41.28073833" lon="1.88123167">
        <ele>380.0</ele>
        <time>2019-12-21T13:15:43.401Z</time>
      </trkpt>
      <trkpt lat="41.28070833" lon="1.88127">
        <ele>379.0</ele>
        <time>2019-12-21T13:15:44.404Z</time>
      </trkpt>
      <trkpt lat="41.28070833" lon="1.88127">
        <ele>379.0</ele>
        <time>2019-12-21T13:15:45.405Z</time>
      </trkpt>
      <trkpt lat="41.28067833" lon="1.881305">
        <ele>380.0</ele>
        <time>2019-12-21T13:15:46.411Z</time>
      </trkpt>
      <trkpt lat="41.28067833" lon="1.881305">
        <ele>380.0</ele>
        <time>2019-12-21T13:15:47.401Z</time>
      </trkpt>
      <trkpt lat="41.28065" lon="1.88133">
        <ele>380.0</ele>
        <time>2019-12-21T13:15:48.403Z</time>
      </trkpt>
      <trkpt lat="41.28065" lon="1.88133">
        <ele>380.0</ele>
        <time>2019-12-21T13:15:49.401Z</time>
      </trkpt>
      <trkpt lat="41.28062667" lon="1.88135833">
        <ele>380.0</ele>
        <time>2019-12-21T13:15:50.401Z</time>
      </trkpt>
      <trkpt lat="41.28061333" lon="1.88137">
        <ele>380.0</ele>
        <time>2019-12-21T13:15:51.413Z</time>
      </trkpt>
      <trkpt lat="41.28061333" lon="1.88137">
        <ele>380.0</ele>
        <time>2019-12-21T13:15:52.416Z</time>
      </trkpt>
      <trkpt lat="41.28059" lon="1.88139833">
        <ele>380.0</ele>
        <time>2019-12-21T13:15:53.414Z</time>
      </trkpt>
      <trkpt lat="41.28059" lon="1.88139833">
        <ele>380.0</ele>
        <time>2019-12-21T13:15:54.442Z</time>
      </trkpt>
      <trkpt lat="41.28056667" lon="1.88142667">
        <ele>380.0</ele>
        <time>2019-12-21T13:15:55.437Z</time>
      </trkpt>
      <trkpt lat="41.28056667" lon="1.88142667">
        <ele>380.0</ele>
        <time>2019-12-21T13:15:56.441Z</time>
      </trkpt>
      <trkpt lat="41.28054" lon="1.88145667">
        <ele>381.0</ele>
        <time>2019-12-21T13:15:57.414Z</time>
      </trkpt>
      <trkpt lat="41.28054" lon="1.88145667">
        <ele>381.0</ele>
        <time>2019-12-21T13:15:58.401Z</time>
      </trkpt>
      <trkpt lat="41.28051667" lon="1.88149">
        <ele>381.0</ele>
        <time>2019-12-21T13:15:59.398Z</time>
      </trkpt>
      <trkpt lat="41.28051667" lon="1.88149">
        <ele>381.0</ele>
        <time>2019-12-21T13:16:00.442Z</time>
      </trkpt>
      <trkpt lat="41.28049167" lon="1.881525">
        <ele>381.0</ele>
        <time>2019-12-21T13:16:01.437Z</time>
      </trkpt>
      <trkpt lat="41.28049167" lon="1.881525">
        <ele>381.0</ele>
        <time>2019-12-21T13:16:02.441Z</time>
      </trkpt>
      <trkpt lat="41.28046667" lon="1.88156">
        <ele>381.0</ele>
        <time>2019-12-21T13:16:03.433Z</time>
      </trkpt>
      <trkpt lat="41.28046667" lon="1.88156">
        <ele>381.0</ele>
        <time>2019-12-21T13:16:04.442Z</time>
      </trkpt>
      <trkpt lat="41.28044333" lon="1.881595">
        <ele>381.0</ele>
        <time>2019-12-21T13:16:05.486Z</time>
      </trkpt>
      <trkpt lat="41.28043" lon="1.88161">
        <ele>381.0</ele>
        <time>2019-12-21T13:16:06.408Z</time>
      </trkpt>
      <trkpt lat="41.28043" lon="1.88161">
        <ele>381.0</ele>
        <time>2019-12-21T13:16:07.413Z</time>
      </trkpt>
      <trkpt lat="41.28040667" lon="1.88164">
        <ele>381.0</ele>
        <time>2019-12-21T13:16:08.437Z</time>
      </trkpt>
      <trkpt lat="41.28040667" lon="1.88164">
        <ele>381.0</ele>
        <time>2019-12-21T13:16:09.443Z</time>
      </trkpt>
      <trkpt lat="41.28038833" lon="1.881665">
        <ele>382.0</ele>
        <time>2019-12-21T13:16:10.422Z</time>
      </trkpt>
      <trkpt lat="41.28037667" lon="1.88167833">
        <ele>382.0</ele>
        <time>2019-12-21T13:16:11.440Z</time>
      </trkpt>
      <trkpt lat="41.28037667" lon="1.88167833">
        <ele>382.0</ele>
        <time>2019-12-21T13:16:12.442Z</time>
      </trkpt>
      <trkpt lat="41.28034833" lon="1.88170333">
        <ele>382.0</ele>
        <time>2019-12-21T13:16:13.416Z</time>
      </trkpt>
      <trkpt lat="41.28034833" lon="1.88170333">
        <ele>382.0</ele>
        <time>2019-12-21T13:16:14.440Z</time>
      </trkpt>
      <trkpt lat="41.280325" lon="1.88173167">
        <ele>382.0</ele>
        <time>2019-12-21T13:16:15.437Z</time>
      </trkpt>
      <trkpt lat="41.280325" lon="1.88173167">
        <ele>382.0</ele>
        <time>2019-12-21T13:16:16.441Z</time>
      </trkpt>
      <trkpt lat="41.28029833" lon="1.88177">
        <ele>382.0</ele>
        <time>2019-12-21T13:16:17.442Z</time>
      </trkpt>
      <trkpt lat="41.28027833" lon="1.88178667">
        <ele>382.0</ele>
        <time>2019-12-21T13:16:18.412Z</time>
      </trkpt>
      <trkpt lat="41.28027833" lon="1.88178667">
        <ele>382.0</ele>
        <time>2019-12-21T13:16:19.405Z</time>
      </trkpt>
      <trkpt lat="41.28025833" lon="1.88182333">
        <ele>382.0</ele>
        <time>2019-12-21T13:16:20.408Z</time>
      </trkpt>
      <trkpt lat="41.28025833" lon="1.88182333">
        <ele>382.0</ele>
        <time>2019-12-21T13:16:21.411Z</time>
      </trkpt>
      <trkpt lat="41.28024333" lon="1.88185333">
        <ele>383.0</ele>
        <time>2019-12-21T13:16:22.454Z</time>
      </trkpt>
      <trkpt lat="41.28023167" lon="1.88187167">
        <ele>383.0</ele>
        <time>2019-12-21T13:16:23.405Z</time>
      </trkpt>
      <trkpt lat="41.28023167" lon="1.88187167">
        <ele>383.0</ele>
        <time>2019-12-21T13:16:24.404Z</time>
      </trkpt>
      <trkpt lat="41.28021167" lon="1.88190667">
        <ele>383.0</ele>
        <time>2019-12-21T13:16:25.408Z</time>
      </trkpt>
      <trkpt lat="41.28021167" lon="1.88190667">
        <ele>383.0</ele>
        <time>2019-12-21T13:16:26.400Z</time>
      </trkpt>
      <trkpt lat="41.28019167" lon="1.88194">
        <ele>384.0</ele>
        <time>2019-12-21T13:16:27.401Z</time>
      </trkpt>
      <trkpt lat="41.28019167" lon="1.88194">
        <ele>384.0</ele>
        <time>2019-12-21T13:16:28.442Z</time>
      </trkpt>
      <trkpt lat="41.28018" lon="1.881965">
        <ele>384.0</ele>
        <time>2019-12-21T13:16:29.416Z</time>
      </trkpt>
      <trkpt lat="41.28017167" lon="1.88198">
        <ele>385.0</ele>
        <time>2019-12-21T13:16:30.436Z</time>
      </trkpt>
      <trkpt lat="41.28017167" lon="1.88198">
        <ele>385.0</ele>
        <time>2019-12-21T13:16:31.418Z</time>
      </trkpt>
      <trkpt lat="41.28015167" lon="1.88201">
        <ele>385.0</ele>
        <time>2019-12-21T13:16:32.415Z</time>
      </trkpt>
      <trkpt lat="41.28015167" lon="1.88201">
        <ele>385.0</ele>
        <time>2019-12-21T13:16:33.416Z</time>
      </trkpt>
      <trkpt lat="41.28013167" lon="1.88204">
        <ele>385.0</ele>
        <time>2019-12-21T13:16:34.442Z</time>
      </trkpt>
      <trkpt lat="41.28012" lon="1.88206">
        <ele>386.0</ele>
        <time>2019-12-21T13:16:35.416Z</time>
      </trkpt>
      <trkpt lat="41.28011" lon="1.882075">
        <ele>386.0</ele>
        <time>2019-12-21T13:16:36.411Z</time>
      </trkpt>
      <trkpt lat="41.28011" lon="1.882075">
        <ele>386.0</ele>
        <time>2019-12-21T13:16:37.413Z</time>
      </trkpt>
      <trkpt lat="41.28009333" lon="1.88210667">
        <ele>386.0</ele>
        <time>2019-12-21T13:16:38.436Z</time>
      </trkpt>
      <trkpt lat="41.28009333" lon="1.88210667">
        <ele>386.0</ele>
        <time>2019-12-21T13:16:39.442Z</time>
      </trkpt>
      <trkpt lat="41.28007667" lon="1.88214167">
        <ele>387.0</ele>
        <time>2019-12-21T13:16:40.415Z</time>
      </trkpt>
      <trkpt lat="41.28007" lon="1.88216167">
        <ele>387.0</ele>
        <time>2019-12-21T13:16:41.440Z</time>
      </trkpt>
      <trkpt lat="41.28007" lon="1.88216167">
        <ele>387.0</ele>
        <time>2019-12-21T13:16:42.408Z</time>
      </trkpt>
      <trkpt lat="41.28005167" lon="1.88219667">
        <ele>388.0</ele>
        <time>2019-12-21T13:16:43.442Z</time>
      </trkpt>
      <trkpt lat="41.280045" lon="1.88221667">
        <ele>388.0</ele>
        <time>2019-12-21T13:16:44.437Z</time>
      </trkpt>
      <trkpt lat="41.280045" lon="1.88221667">
        <ele>388.0</ele>
        <time>2019-12-21T13:16:45.443Z</time>
      </trkpt>
      <trkpt lat="41.280025" lon="1.88225333">
        <ele>389.0</ele>
        <time>2019-12-21T13:16:46.414Z</time>
      </trkpt>
      <trkpt lat="41.280025" lon="1.88225333">
        <ele>389.0</ele>
        <time>2019-12-21T13:16:47.416Z</time>
      </trkpt>
      <trkpt lat="41.28001333" lon="1.88229333">
        <ele>389.0</ele>
        <time>2019-12-21T13:16:48.416Z</time>
      </trkpt>
      <trkpt lat="41.28001333" lon="1.88229333">
        <ele>389.0</ele>
        <time>2019-12-21T13:16:49.442Z</time>
      </trkpt>
      <trkpt lat="41.27999833" lon="1.88232667">
        <ele>389.0</ele>
        <time>2019-12-21T13:16:50.416Z</time>
      </trkpt>
      <trkpt lat="41.27999" lon="1.882345">
        <ele>390.0</ele>
        <time>2019-12-21T13:16:51.411Z</time>
      </trkpt>
      <trkpt lat="41.27999" lon="1.882345">
        <ele>390.0</ele>
        <time>2019-12-21T13:16:52.401Z</time>
      </trkpt>
      <trkpt lat="41.27997667" lon="1.882385">
        <ele>390.0</ele>
        <time>2019-12-21T13:16:53.403Z</time>
      </trkpt>
      <trkpt lat="41.27996833" lon="1.88240667">
        <ele>390.0</ele>
        <time>2019-12-21T13:16:54.405Z</time>
      </trkpt>
      <trkpt lat="41.27996833" lon="1.88240667">
        <ele>390.0</ele>
        <time>2019-12-21T13:16:55.407Z</time>
      </trkpt>
      <trkpt lat="41.27995667" lon="1.88244833">
        <ele>391.0</ele>
        <time>2019-12-21T13:16:56.441Z</time>
      </trkpt>
      <trkpt lat="41.27995" lon="1.88247167">
        <ele>391.0</ele>
        <time>2019-12-21T13:16:57.437Z</time>
      </trkpt>
      <trkpt lat="41.27995" lon="1.88247167">
        <ele>391.0</ele>
        <time>2019-12-21T13:16:58.443Z</time>
      </trkpt>
      <trkpt lat="41.27993667" lon="1.882505">
        <ele>391.0</ele>
        <time>2019-12-21T13:16:59.444Z</time>
      </trkpt>
      <trkpt lat="41.27993333" lon="1.88252333">
        <ele>392.0</ele>
        <time>2019-12-21T13:17:00.437Z</time>
      </trkpt>
      <trkpt lat="41.27993333" lon="1.88252333">
        <ele>392.0</ele>
        <time>2019-12-21T13:17:01.422Z</time>
      </trkpt>
      <trkpt lat="41.27991833" lon="1.88256167">
        <ele>392.0</ele>
        <time>2019-12-21T13:17:02.402Z</time>
      </trkpt>
      <trkpt lat="41.27991833" lon="1.88256167">
        <ele>392.0</ele>
        <time>2019-12-21T13:17:03.442Z</time>
      </trkpt>
      <trkpt lat="41.27990333" lon="1.88259833">
        <ele>393.0</ele>
        <time>2019-12-21T13:17:04.401Z</time>
      </trkpt>
      <trkpt lat="41.279895" lon="1.882615">
        <ele>393.0</ele>
        <time>2019-12-21T13:17:05.417Z</time>
      </trkpt>
      <trkpt lat="41.27989" lon="1.88263167">
        <ele>393.0</ele>
        <time>2019-12-21T13:17:06.437Z</time>
      </trkpt>
      <trkpt lat="41.27989" lon="1.88263167">
        <ele>393.0</ele>
        <time>2019-12-21T13:17:07.442Z</time>
      </trkpt>
      <trkpt lat="41.27987" lon="1.88266667">
        <ele>393.0</ele>
        <time>2019-12-21T13:17:08.416Z</time>
      </trkpt>
      <trkpt lat="41.27987" lon="1.88266667">
        <ele>393.0</ele>
        <time>2019-12-21T13:17:09.441Z</time>
      </trkpt>
      <trkpt lat="41.27985833" lon="1.8827">
        <ele>394.0</ele>
        <time>2019-12-21T13:17:10.415Z</time>
      </trkpt>
      <trkpt lat="41.27985667" lon="1.88272">
        <ele>394.0</ele>
        <time>2019-12-21T13:17:11.414Z</time>
      </trkpt>
      <trkpt lat="41.27985667" lon="1.88272">
        <ele>394.0</ele>
        <time>2019-12-21T13:17:12.416Z</time>
      </trkpt>
      <trkpt lat="41.27985667" lon="1.88276333">
        <ele>395.0</ele>
        <time>2019-12-21T13:17:13.436Z</time>
      </trkpt>
      <trkpt lat="41.27985667" lon="1.88276333">
        <ele>395.0</ele>
        <time>2019-12-21T13:17:14.441Z</time>
      </trkpt>
      <trkpt lat="41.27985167" lon="1.88280167">
        <ele>395.0</ele>
        <time>2019-12-21T13:17:15.414Z</time>
      </trkpt>
      <trkpt lat="41.27984667" lon="1.88281833">
        <ele>395.0</ele>
        <time>2019-12-21T13:17:16.416Z</time>
      </trkpt>
      <trkpt lat="41.27984667" lon="1.88281833">
        <ele>395.0</ele>
        <time>2019-12-21T13:17:17.420Z</time>
      </trkpt>
      <trkpt lat="41.27981667" lon="1.88285167">
        <ele>395.0</ele>
        <time>2019-12-21T13:17:18.414Z</time>
      </trkpt>
      <trkpt lat="41.27981667" lon="1.88285167">
        <ele>395.0</ele>
        <time>2019-12-21T13:17:19.415Z</time>
      </trkpt>
      <trkpt lat="41.279805" lon="1.88289">
        <ele>396.0</ele>
        <time>2019-12-21T13:17:20.412Z</time>
      </trkpt>
      <trkpt lat="41.279805" lon="1.88289">
        <ele>396.0</ele>
        <time>2019-12-21T13:17:21.415Z</time>
      </trkpt>
      <trkpt lat="41.27978833" lon="1.88294667">
        <ele>397.0</ele>
        <time>2019-12-21T13:17:22.457Z</time>
      </trkpt>
      <trkpt lat="41.27978833" lon="1.88294667">
        <ele>397.0</ele>
        <time>2019-12-21T13:17:23.411Z</time>
      </trkpt>
      <trkpt lat="41.27978833" lon="1.88294667">
        <ele>397.0</ele>
        <time>2019-12-21T13:17:24.402Z</time>
      </trkpt>
      <trkpt lat="41.279785" lon="1.88299">
        <ele>397.0</ele>
        <time>2019-12-21T13:17:25.408Z</time>
      </trkpt>
      <trkpt lat="41.27977833" lon="1.88300833">
        <ele>397.0</ele>
        <time>2019-12-21T13:17:26.436Z</time>
      </trkpt>
      <trkpt lat="41.27977833" lon="1.88300833">
        <ele>397.0</ele>
        <time>2019-12-21T13:17:27.440Z</time>
      </trkpt>
      <trkpt lat="41.279765" lon="1.88304667">
        <ele>398.0</ele>
        <time>2019-12-21T13:17:28.436Z</time>
      </trkpt>
      <trkpt lat="41.279765" lon="1.88304667">
        <ele>398.0</ele>
        <time>2019-12-21T13:17:29.444Z</time>
      </trkpt>
      <trkpt lat="41.27976167" lon="1.88309">
        <ele>398.0</ele>
        <time>2019-12-21T13:17:30.398Z</time>
      </trkpt>
      <trkpt lat="41.27976167" lon="1.88309">
        <ele>398.0</ele>
        <time>2019-12-21T13:17:31.399Z</time>
      </trkpt>
      <trkpt lat="41.27975167" lon="1.88312833">
        <ele>398.0</ele>
        <time>2019-12-21T13:17:32.441Z</time>
      </trkpt>
      <trkpt lat="41.279745" lon="1.88314667">
        <ele>398.0</ele>
        <time>2019-12-21T13:17:33.437Z</time>
      </trkpt>
      <trkpt lat="41.279745" lon="1.88314667">
        <ele>398.0</ele>
        <time>2019-12-21T13:17:34.441Z</time>
      </trkpt>
      <trkpt lat="41.27973" lon="1.883185">
        <ele>398.0</ele>
        <time>2019-12-21T13:17:35.443Z</time>
      </trkpt>
      <trkpt lat="41.27972333" lon="1.88320833">
        <ele>399.0</ele>
        <time>2019-12-21T13:17:36.437Z</time>
      </trkpt>
      <trkpt lat="41.27972333" lon="1.88320833">
        <ele>399.0</ele>
        <time>2019-12-21T13:17:37.442Z</time>
      </trkpt>
      <trkpt lat="41.27971333" lon="1.88325">
        <ele>399.0</ele>
        <time>2019-12-21T13:17:38.437Z</time>
      </trkpt>
      <trkpt lat="41.27971333" lon="1.88325">
        <ele>399.0</ele>
        <time>2019-12-21T13:17:39.442Z</time>
      </trkpt>
      <trkpt lat="41.27970333" lon="1.88328833">
        <ele>400.0</ele>
        <time>2019-12-21T13:17:40.437Z</time>
      </trkpt>
      <trkpt lat="41.27970333" lon="1.88328833">
        <ele>400.0</ele>
        <time>2019-12-21T13:17:41.425Z</time>
      </trkpt>
      <trkpt lat="41.27969167" lon="1.88333167">
        <ele>400.0</ele>
        <time>2019-12-21T13:17:42.437Z</time>
      </trkpt>
      <trkpt lat="41.27967667" lon="1.88337167">
        <ele>401.0</ele>
        <time>2019-12-21T13:17:43.442Z</time>
      </trkpt>
      <trkpt lat="41.27967667" lon="1.88337167">
        <ele>401.0</ele>
        <time>2019-12-21T13:17:44.437Z</time>
      </trkpt>
      <trkpt lat="41.27966667" lon="1.883415">
        <ele>401.0</ele>
        <time>2019-12-21T13:17:45.441Z</time>
      </trkpt>
      <trkpt lat="41.27966667" lon="1.883415">
        <ele>401.0</ele>
        <time>2019-12-21T13:17:46.437Z</time>
      </trkpt>
      <trkpt lat="41.279655" lon="1.88345333">
        <ele>402.0</ele>
        <time>2019-12-21T13:17:47.444Z</time>
      </trkpt>
      <trkpt lat="41.279655" lon="1.88345333">
        <ele>402.0</ele>
        <time>2019-12-21T13:17:48.437Z</time>
      </trkpt>
      <trkpt lat="41.279655" lon="1.88345333">
        <ele>402.0</ele>
        <time>2019-12-21T13:17:49.441Z</time>
      </trkpt>
      <trkpt lat="41.27963833" lon="1.88349833">
        <ele>402.0</ele>
        <time>2019-12-21T13:17:50.414Z</time>
      </trkpt>
      <trkpt lat="41.27963833" lon="1.88349833">
        <ele>402.0</ele>
        <time>2019-12-21T13:17:51.416Z</time>
      </trkpt>
      <trkpt lat="41.27962833" lon="1.88354">
        <ele>402.0</ele>
        <time>2019-12-21T13:17:52.412Z</time>
      </trkpt>
      <trkpt lat="41.27962833" lon="1.88354">
        <ele>402.0</ele>
        <time>2019-12-21T13:17:53.412Z</time>
      </trkpt>
      <trkpt lat="41.27962167" lon="1.88357667">
        <ele>403.0</ele>
        <time>2019-12-21T13:17:54.437Z</time>
      </trkpt>
      <trkpt lat="41.27962167" lon="1.88357667">
        <ele>403.0</ele>
        <time>2019-12-21T13:17:55.442Z</time>
      </trkpt>
      <trkpt lat="41.27960833" lon="1.88360833">
        <ele>403.0</ele>
        <time>2019-12-21T13:17:56.415Z</time>
      </trkpt>
      <trkpt lat="41.27960333" lon="1.883625">
        <ele>403.0</ele>
        <time>2019-12-21T13:17:57.411Z</time>
      </trkpt>
      <trkpt lat="41.27960333" lon="1.883625">
        <ele>403.0</ele>
        <time>2019-12-21T13:17:58.400Z</time>
      </trkpt>
      <trkpt lat="41.27959667" lon="1.88366333">
        <ele>404.0</ele>
        <time>2019-12-21T13:17:59.403Z</time>
      </trkpt>
      <trkpt lat="41.27959167" lon="1.88368167">
        <ele>404.0</ele>
        <time>2019-12-21T13:18:00.404Z</time>
      </trkpt>
      <trkpt lat="41.27959167" lon="1.88368167">
        <ele>404.0</ele>
        <time>2019-12-21T13:18:01.398Z</time>
      </trkpt>
      <trkpt lat="41.27958" lon="1.88371833">
        <ele>404.0</ele>
        <time>2019-12-21T13:18:02.437Z</time>
      </trkpt>
      <trkpt lat="41.27958" lon="1.88371833">
        <ele>404.0</ele>
        <time>2019-12-21T13:18:03.441Z</time>
      </trkpt>
      <trkpt lat="41.27957333" lon="1.883755">
        <ele>405.0</ele>
        <time>2019-12-21T13:18:04.437Z</time>
      </trkpt>
      <trkpt lat="41.27957333" lon="1.883755">
        <ele>405.0</ele>
        <time>2019-12-21T13:18:05.418Z</time>
      </trkpt>
      <trkpt lat="41.27956667" lon="1.88379167">
        <ele>405.0</ele>
        <time>2019-12-21T13:18:06.417Z</time>
      </trkpt>
      <trkpt lat="41.27956167" lon="1.88383333">
        <ele>406.0</ele>
        <time>2019-12-21T13:18:07.442Z</time>
      </trkpt>
      <trkpt lat="41.27956167" lon="1.88383333">
        <ele>406.0</ele>
        <time>2019-12-21T13:18:08.443Z</time>
      </trkpt>
      <trkpt lat="41.27955833" lon="1.88385167">
        <ele>406.0</ele>
        <time>2019-12-21T13:18:09.415Z</time>
      </trkpt>
      <trkpt lat="41.27955833" lon="1.88385167">
        <ele>406.0</ele>
        <time>2019-12-21T13:18:10.418Z</time>
      </trkpt>
      <trkpt lat="41.279555" lon="1.88389">
        <ele>406.0</ele>
        <time>2019-12-21T13:18:11.442Z</time>
      </trkpt>
      <trkpt lat="41.27955333" lon="1.88390833">
        <ele>406.0</ele>
        <time>2019-12-21T13:18:12.437Z</time>
      </trkpt>
      <trkpt lat="41.27955333" lon="1.88390833">
        <ele>406.0</ele>
        <time>2019-12-21T13:18:13.442Z</time>
      </trkpt>
      <trkpt lat="41.27955" lon="1.88394667">
        <ele>407.0</ele>
        <time>2019-12-21T13:18:14.436Z</time>
      </trkpt>
      <trkpt lat="41.27955" lon="1.88394667">
        <ele>407.0</ele>
        <time>2019-12-21T13:18:15.442Z</time>
      </trkpt>
      <trkpt lat="41.27954833" lon="1.88398667">
        <ele>408.0</ele>
        <time>2019-12-21T13:18:16.415Z</time>
      </trkpt>
      <trkpt lat="41.279545" lon="1.88400833">
        <ele>408.0</ele>
        <time>2019-12-21T13:18:17.412Z</time>
      </trkpt>
      <trkpt lat="41.279545" lon="1.88402667">
        <ele>408.0</ele>
        <time>2019-12-21T13:18:18.411Z</time>
      </trkpt>
      <trkpt lat="41.279545" lon="1.88402667">
        <ele>408.0</ele>
        <time>2019-12-21T13:18:19.442Z</time>
      </trkpt>
      <trkpt lat="41.27954667" lon="1.88407">
        <ele>409.0</ele>
        <time>2019-12-21T13:18:20.416Z</time>
      </trkpt>
      <trkpt lat="41.27954667" lon="1.88407">
        <ele>409.0</ele>
        <time>2019-12-21T13:18:21.441Z</time>
      </trkpt>
      <trkpt lat="41.27955" lon="1.88411">
        <ele>409.0</ele>
        <time>2019-12-21T13:18:22.415Z</time>
      </trkpt>
      <trkpt lat="41.27955333" lon="1.88413167">
        <ele>409.0</ele>
        <time>2019-12-21T13:18:23.439Z</time>
      </trkpt>
      <trkpt lat="41.27955333" lon="1.88413167">
        <ele>409.0</ele>
        <time>2019-12-21T13:18:24.442Z</time>
      </trkpt>
      <trkpt lat="41.27956" lon="1.88417333">
        <ele>409.0</ele>
        <time>2019-12-21T13:18:25.442Z</time>
      </trkpt>
      <trkpt lat="41.279565" lon="1.88419167">
        <ele>409.0</ele>
        <time>2019-12-21T13:18:26.415Z</time>
      </trkpt>
      <trkpt lat="41.279565" lon="1.88419167">
        <ele>409.0</ele>
        <time>2019-12-21T13:18:27.416Z</time>
      </trkpt>
      <trkpt lat="41.27957167" lon="1.88423167">
        <ele>409.0</ele>
        <time>2019-12-21T13:18:28.413Z</time>
      </trkpt>
      <trkpt lat="41.27957167" lon="1.88423167">
        <ele>409.0</ele>
        <time>2019-12-21T13:18:29.415Z</time>
      </trkpt>
      <trkpt lat="41.27958" lon="1.884275">
        <ele>409.0</ele>
        <time>2019-12-21T13:18:30.413Z</time>
      </trkpt>
      <trkpt lat="41.27958" lon="1.884275">
        <ele>409.0</ele>
        <time>2019-12-21T13:18:31.405Z</time>
      </trkpt>
      <trkpt lat="41.27959167" lon="1.88432">
        <ele>410.0</ele>
        <time>2019-12-21T13:18:32.413Z</time>
      </trkpt>
      <trkpt lat="41.279595" lon="1.88433833">
        <ele>410.0</ele>
        <time>2019-12-21T13:18:33.437Z</time>
      </trkpt>
      <trkpt lat="41.279595" lon="1.88433833">
        <ele>410.0</ele>
        <time>2019-12-21T13:18:34.442Z</time>
      </trkpt>
      <trkpt lat="41.27961167" lon="1.88437667">
        <ele>410.0</ele>
        <time>2019-12-21T13:18:35.415Z</time>
      </trkpt>
      <trkpt lat="41.27962167" lon="1.884395">
        <ele>410.0</ele>
        <time>2019-12-21T13:18:36.415Z</time>
      </trkpt>
      <trkpt lat="41.27962167" lon="1.884395">
        <ele>410.0</ele>
        <time>2019-12-21T13:18:37.442Z</time>
      </trkpt>
      <trkpt lat="41.27964" lon="1.88443">
        <ele>411.0</ele>
        <time>2019-12-21T13:18:38.416Z</time>
      </trkpt>
      <trkpt lat="41.27964" lon="1.88443">
        <ele>411.0</ele>
        <time>2019-12-21T13:18:39.441Z</time>
      </trkpt>
      <trkpt lat="41.279665" lon="1.88446667">
        <ele>411.0</ele>
        <time>2019-12-21T13:18:40.443Z</time>
      </trkpt>
      <trkpt lat="41.279675" lon="1.88448667">
        <ele>412.0</ele>
        <time>2019-12-21T13:18:41.398Z</time>
      </trkpt>
      <trkpt lat="41.279675" lon="1.88448667">
        <ele>412.0</ele>
        <time>2019-12-21T13:18:42.422Z</time>
      </trkpt>
      <trkpt lat="41.27969667" lon="1.88452667">
        <ele>412.0</ele>
        <time>2019-12-21T13:18:43.400Z</time>
      </trkpt>
      <trkpt lat="41.27969667" lon="1.88452667">
        <ele>412.0</ele>
        <time>2019-12-21T13:18:44.398Z</time>
      </trkpt>
      <trkpt lat="41.27973333" lon="1.884565">
        <ele>413.0</ele>
        <time>2019-12-21T13:18:45.437Z</time>
      </trkpt>
      <trkpt lat="41.27973333" lon="1.884565">
        <ele>413.0</ele>
        <time>2019-12-21T13:18:46.442Z</time>
      </trkpt>
      <trkpt lat="41.27976167" lon="1.88459833">
        <ele>413.0</ele>
        <time>2019-12-21T13:18:47.416Z</time>
      </trkpt>
      <trkpt lat="41.27977167" lon="1.88461833">
        <ele>414.0</ele>
        <time>2019-12-21T13:18:48.419Z</time>
      </trkpt>
      <trkpt lat="41.27978167" lon="1.88463833">
        <ele>414.0</ele>
        <time>2019-12-21T13:18:49.437Z</time>
      </trkpt>
      <trkpt lat="41.27978167" lon="1.88463833">
        <ele>414.0</ele>
        <time>2019-12-21T13:18:50.423Z</time>
      </trkpt>
      <trkpt lat="41.27980333" lon="1.88467333">
        <ele>414.0</ele>
        <time>2019-12-21T13:18:51.417Z</time>
      </trkpt>
      <trkpt lat="41.27980333" lon="1.88467333">
        <ele>414.0</ele>
        <time>2019-12-21T13:18:52.423Z</time>
      </trkpt>
      <trkpt lat="41.279825" lon="1.88471">
        <ele>415.0</ele>
        <time>2019-12-21T13:18:53.417Z</time>
      </trkpt>
      <trkpt lat="41.279825" lon="1.88471">
        <ele>415.0</ele>
        <time>2019-12-21T13:18:54.442Z</time>
      </trkpt>
      <trkpt lat="41.27985" lon="1.88474167">
        <ele>415.0</ele>
        <time>2019-12-21T13:18:55.417Z</time>
      </trkpt>
      <trkpt lat="41.27985" lon="1.88475833">
        <ele>415.0</ele>
        <time>2019-12-21T13:18:56.437Z</time>
      </trkpt>
      <trkpt lat="41.27985" lon="1.88475833">
        <ele>415.0</ele>
        <time>2019-12-21T13:18:57.439Z</time>
      </trkpt>
      <trkpt lat="41.279875" lon="1.88480167">
        <ele>416.0</ele>
        <time>2019-12-21T13:18:58.437Z</time>
      </trkpt>
      <trkpt lat="41.279875" lon="1.88480167">
        <ele>416.0</ele>
        <time>2019-12-21T13:18:59.421Z</time>
      </trkpt>
      <trkpt lat="41.27990667" lon="1.884835">
        <ele>416.0</ele>
        <time>2019-12-21T13:19:00.437Z</time>
      </trkpt>
      <trkpt lat="41.27990667" lon="1.884835">
        <ele>416.0</ele>
        <time>2019-12-21T13:19:01.418Z</time>
      </trkpt>
      <trkpt lat="41.27993833" lon="1.88486833">
        <ele>416.0</ele>
        <time>2019-12-21T13:19:02.416Z</time>
      </trkpt>
      <trkpt lat="41.27993833" lon="1.88486833">
        <ele>416.0</ele>
        <time>2019-12-21T13:19:03.439Z</time>
      </trkpt>
      <trkpt lat="41.27997" lon="1.88490333">
        <ele>417.0</ele>
        <time>2019-12-21T13:19:04.414Z</time>
      </trkpt>
      <trkpt lat="41.27998667" lon="1.88491667">
        <ele>417.0</ele>
        <time>2019-12-21T13:19:05.413Z</time>
      </trkpt>
      <trkpt lat="41.28000333" lon="1.88493167">
        <ele>417.0</ele>
        <time>2019-12-21T13:19:06.413Z</time>
      </trkpt>
      <trkpt lat="41.28000333" lon="1.88493167">
        <ele>417.0</ele>
        <time>2019-12-21T13:19:07.414Z</time>
      </trkpt>
      <trkpt lat="41.28003667" lon="1.88496167">
        <ele>417.0</ele>
        <time>2019-12-21T13:19:08.437Z</time>
      </trkpt>
      <trkpt lat="41.28003667" lon="1.88496167">
        <ele>417.0</ele>
        <time>2019-12-21T13:19:09.444Z</time>
      </trkpt>
      <trkpt lat="41.28007167" lon="1.88498833">
        <ele>418.0</ele>
        <time>2019-12-21T13:19:10.443Z</time>
      </trkpt>
      <trkpt lat="41.28008833" lon="1.88499833">
        <ele>417.0</ele>
        <time>2019-12-21T13:19:11.398Z</time>
      </trkpt>
      <trkpt lat="41.28008833" lon="1.88499833">
        <ele>417.0</ele>
        <time>2019-12-21T13:19:12.422Z</time>
      </trkpt>
      <trkpt lat="41.28012833" lon="1.88502667">
        <ele>418.0</ele>
        <time>2019-12-21T13:19:13.443Z</time>
      </trkpt>
      <trkpt lat="41.28014667" lon="1.88504167">
        <ele>418.0</ele>
        <time>2019-12-21T13:19:14.440Z</time>
      </trkpt>
      <trkpt lat="41.28014667" lon="1.88504167">
        <ele>418.0</ele>
        <time>2019-12-21T13:19:15.422Z</time>
      </trkpt>
      <trkpt lat="41.280185" lon="1.88506833">
        <ele>418.0</ele>
        <time>2019-12-21T13:19:16.443Z</time>
      </trkpt>
      <trkpt lat="41.28020333" lon="1.88508">
        <ele>418.0</ele>
        <time>2019-12-21T13:19:17.441Z</time>
      </trkpt>
      <trkpt lat="41.28020333" lon="1.88508">
        <ele>418.0</ele>
        <time>2019-12-21T13:19:18.443Z</time>
      </trkpt>
      <trkpt lat="41.28024" lon="1.885105">
        <ele>419.0</ele>
        <time>2019-12-21T13:19:19.415Z</time>
      </trkpt>
      <trkpt lat="41.28024" lon="1.885105">
        <ele>419.0</ele>
        <time>2019-12-21T13:19:20.403Z</time>
      </trkpt>
      <trkpt lat="41.28028" lon="1.88513167">
        <ele>419.0</ele>
        <time>2019-12-21T13:19:21.408Z</time>
      </trkpt>
      <trkpt lat="41.28028" lon="1.88513167">
        <ele>419.0</ele>
        <time>2019-12-21T13:19:22.405Z</time>
      </trkpt>
      <trkpt lat="41.28032" lon="1.88516">
        <ele>419.0</ele>
        <time>2019-12-21T13:19:23.397Z</time>
      </trkpt>
      <trkpt lat="41.28036333" lon="1.88518333">
        <ele>419.0</ele>
        <time>2019-12-21T13:19:24.444Z</time>
      </trkpt>
      <trkpt lat="41.28038833" lon="1.88519333">
        <ele>418.0</ele>
        <time>2019-12-21T13:19:25.444Z</time>
      </trkpt>
      <trkpt lat="41.28038833" lon="1.88519333">
        <ele>418.0</ele>
        <time>2019-12-21T13:19:26.397Z</time>
      </trkpt>
      <trkpt lat="41.28038833" lon="1.88519333">
        <ele>418.0</ele>
        <time>2019-12-21T13:19:27.441Z</time>
      </trkpt>
      <trkpt lat="41.28043667" lon="1.885235">
        <ele>418.0</ele>
        <time>2019-12-21T13:19:28.417Z</time>
      </trkpt>
      <trkpt lat="41.28043667" lon="1.885235">
        <ele>418.0</ele>
        <time>2019-12-21T13:19:29.421Z</time>
      </trkpt>
      <trkpt lat="41.28049667" lon="1.88528">
        <ele>417.0</ele>
        <time>2019-12-21T13:19:30.443Z</time>
      </trkpt>
      <trkpt lat="41.28053167" lon="1.885305">
        <ele>417.0</ele>
        <time>2019-12-21T13:19:31.397Z</time>
      </trkpt>
      <trkpt lat="41.28053167" lon="1.885305">
        <ele>417.0</ele>
        <time>2019-12-21T13:19:32.476Z</time>
      </trkpt>
      <trkpt lat="41.280615" lon="1.88537333">
        <ele>416.0</ele>
        <time>2019-12-21T13:19:33.441Z</time>
      </trkpt>
      <trkpt lat="41.280615" lon="1.88537333">
        <ele>416.0</ele>
        <time>2019-12-21T13:19:34.423Z</time>
      </trkpt>
      <trkpt lat="41.28071833" lon="1.88545833">
        <ele>415.0</ele>
        <time>2019-12-21T13:19:35.440Z</time>
      </trkpt>
      <trkpt lat="41.28071833" lon="1.88545833">
        <ele>415.0</ele>
        <time>2019-12-21T13:19:36.444Z</time>
      </trkpt>
      <trkpt lat="41.28083833" lon="1.88556333">
        <ele>413.0</ele>
        <time>2019-12-21T13:19:37.418Z</time>
      </trkpt>
      <trkpt lat="41.28090333" lon="1.88562333">
        <ele>412.0</ele>
        <time>2019-12-21T13:19:38.417Z</time>
      </trkpt>
      <trkpt lat="41.28090333" lon="1.88562333">
        <ele>412.0</ele>
        <time>2019-12-21T13:19:39.444Z</time>
      </trkpt>
      <trkpt lat="41.28104333" lon="1.88576667">
        <ele>410.0</ele>
        <time>2019-12-21T13:19:40.438Z</time>
      </trkpt>
      <trkpt lat="41.28104333" lon="1.88576667">
        <ele>410.0</ele>
        <time>2019-12-21T13:19:41.418Z</time>
      </trkpt>
      <trkpt lat="41.28118667" lon="1.88593667">
        <ele>408.0</ele>
        <time>2019-12-21T13:19:42.443Z</time>
      </trkpt>
      <trkpt lat="41.28126167" lon="1.88602667">
        <ele>407.0</ele>
        <time>2019-12-21T13:19:43.444Z</time>
      </trkpt>
      <trkpt lat="41.28133833" lon="1.88612167">
        <ele>406.0</ele>
        <time>2019-12-21T13:19:44.423Z</time>
      </trkpt>
      <trkpt lat="41.28133833" lon="1.88612167">
        <ele>406.0</ele>
        <time>2019-12-21T13:19:45.405Z</time>
      </trkpt>
      <trkpt lat="41.28148833" lon="1.88634667">
        <ele>404.0</ele>
        <time>2019-12-21T13:19:46.405Z</time>
      </trkpt>
      <trkpt lat="41.28148833" lon="1.88634667">
        <ele>404.0</ele>
        <time>2019-12-21T13:19:47.406Z</time>
      </trkpt>
      <trkpt lat="41.28162" lon="1.88662">
        <ele>402.0</ele>
        <time>2019-12-21T13:19:48.410Z</time>
      </trkpt>
      <trkpt lat="41.28168667" lon="1.886765">
        <ele>400.0</ele>
        <time>2019-12-21T13:19:49.413Z</time>
      </trkpt>
      <trkpt lat="41.28176" lon="1.88691333">
        <ele>398.0</ele>
        <time>2019-12-21T13:19:50.413Z</time>
      </trkpt>
      <trkpt lat="41.28176" lon="1.88691333">
        <ele>398.0</ele>
        <time>2019-12-21T13:19:51.419Z</time>
      </trkpt>
      <trkpt lat="41.28192667" lon="1.88719167">
        <ele>394.0</ele>
        <time>2019-12-21T13:19:52.417Z</time>
      </trkpt>
      <trkpt lat="41.28192667" lon="1.88719167">
        <ele>394.0</ele>
        <time>2019-12-21T13:19:53.421Z</time>
      </trkpt>
      <trkpt lat="41.282115" lon="1.88743333">
        <ele>392.0</ele>
        <time>2019-12-21T13:19:54.444Z</time>
      </trkpt>
      <trkpt lat="41.282205" lon="1.887535">
        <ele>393.0</ele>
        <time>2019-12-21T13:19:55.417Z</time>
      </trkpt>
      <trkpt lat="41.282205" lon="1.887535">
        <ele>393.0</ele>
        <time>2019-12-21T13:19:56.444Z</time>
      </trkpt>
      <trkpt lat="41.28236" lon="1.88770667">
        <ele>394.0</ele>
        <time>2019-12-21T13:19:57.444Z</time>
      </trkpt>
      <trkpt lat="41.28242" lon="1.887775">
        <ele>395.0</ele>
        <time>2019-12-21T13:19:58.413Z</time>
      </trkpt>
      <trkpt lat="41.28242" lon="1.887775">
        <ele>395.0</ele>
        <time>2019-12-21T13:19:59.445Z</time>
      </trkpt>
      <trkpt lat="41.28250667" lon="1.88788333">
        <ele>397.0</ele>
        <time>2019-12-21T13:20:00.440Z</time>
      </trkpt>
      <trkpt lat="41.28250667" lon="1.88788333">
        <ele>397.0</ele>
        <time>2019-12-21T13:20:01.445Z</time>
      </trkpt>
      <trkpt lat="41.28256" lon="1.88796">
        <ele>398.0</ele>
        <time>2019-12-21T13:20:02.442Z</time>
      </trkpt>
      <trkpt lat="41.28256" lon="1.88796">
        <ele>398.0</ele>
        <time>2019-12-21T13:20:03.443Z</time>
      </trkpt>
      <trkpt lat="41.28259833" lon="1.88801">
        <ele>399.0</ele>
        <time>2019-12-21T13:20:04.442Z</time>
      </trkpt>
      <trkpt lat="41.28259833" lon="1.88801">
        <ele>399.0</ele>
        <time>2019-12-21T13:20:05.446Z</time>
      </trkpt>
      <trkpt lat="41.28262667" lon="1.88805">
        <ele>401.0</ele>
        <time>2019-12-21T13:20:06.444Z</time>
      </trkpt>
      <trkpt lat="41.28263833" lon="1.88806833">
        <ele>401.0</ele>
        <time>2019-12-21T13:20:07.437Z</time>
      </trkpt>
      <trkpt lat="41.28263833" lon="1.88806833">
        <ele>401.0</ele>
        <time>2019-12-21T13:20:08.442Z</time>
      </trkpt>
      <trkpt lat="41.28266167" lon="1.88809167">
        <ele>402.0</ele>
        <time>2019-12-21T13:20:09.443Z</time>
      </trkpt>
      <trkpt lat="41.28266167" lon="1.88809167">
        <ele>402.0</ele>
        <time>2019-12-21T13:20:10.423Z</time>
      </trkpt>
      <trkpt lat="41.28268333" lon="1.88812333">
        <ele>403.0</ele>
        <time>2019-12-21T13:20:11.399Z</time>
      </trkpt>
      <trkpt lat="41.28268333" lon="1.88812333">
        <ele>403.0</ele>
        <time>2019-12-21T13:20:12.443Z</time>
      </trkpt>
      <trkpt lat="41.28269333" lon="1.88815">
        <ele>405.0</ele>
        <time>2019-12-21T13:20:13.417Z</time>
      </trkpt>
      <trkpt lat="41.28269333" lon="1.88815">
        <ele>405.0</ele>
        <time>2019-12-21T13:20:14.444Z</time>
      </trkpt>
      <trkpt lat="41.28270667" lon="1.88818333">
        <ele>406.0</ele>
        <time>2019-12-21T13:20:15.417Z</time>
      </trkpt>
      <trkpt lat="41.28270667" lon="1.88818333">
        <ele>406.0</ele>
        <time>2019-12-21T13:20:16.444Z</time>
      </trkpt>
      <trkpt lat="41.28272333" lon="1.88821333">
        <ele>407.0</ele>
        <time>2019-12-21T13:20:17.441Z</time>
      </trkpt>
      <trkpt lat="41.28272333" lon="1.88821333">
        <ele>407.0</ele>
        <time>2019-12-21T13:20:18.444Z</time>
      </trkpt>
      <trkpt lat="41.28274" lon="1.88824667">
        <ele>408.0</ele>
        <time>2019-12-21T13:20:19.418Z</time>
      </trkpt>
      <trkpt lat="41.282745" lon="1.888265">
        <ele>408.0</ele>
        <time>2019-12-21T13:20:20.414Z</time>
      </trkpt>
      <trkpt lat="41.282745" lon="1.888265">
        <ele>408.0</ele>
        <time>2019-12-21T13:20:21.444Z</time>
      </trkpt>
      <trkpt lat="41.28275167" lon="1.88830167">
        <ele>409.0</ele>
        <time>2019-12-21T13:20:22.453Z</time>
      </trkpt>
      <trkpt lat="41.28275167" lon="1.88830167">
        <ele>409.0</ele>
        <time>2019-12-21T13:20:23.402Z</time>
      </trkpt>
      <trkpt lat="41.28276" lon="1.88833833">
        <ele>410.0</ele>
        <time>2019-12-21T13:20:24.442Z</time>
      </trkpt>
      <trkpt lat="41.28276" lon="1.88833833">
        <ele>410.0</ele>
        <time>2019-12-21T13:20:25.424Z</time>
      </trkpt>
      <trkpt lat="41.28276333" lon="1.88837333">
        <ele>411.0</ele>
        <time>2019-12-21T13:20:26.398Z</time>
      </trkpt>
      <trkpt lat="41.28276333" lon="1.88837333">
        <ele>411.0</ele>
        <time>2019-12-21T13:20:27.420Z</time>
      </trkpt>
      <trkpt lat="41.28277333" lon="1.88840833">
        <ele>412.0</ele>
        <time>2019-12-21T13:20:28.402Z</time>
      </trkpt>
      <trkpt lat="41.28277333" lon="1.88840833">
        <ele>412.0</ele>
        <time>2019-12-21T13:20:29.398Z</time>
      </trkpt>
      <trkpt lat="41.28277667" lon="1.88843667">
        <ele>412.0</ele>
        <time>2019-12-21T13:20:30.439Z</time>
      </trkpt>
      <trkpt lat="41.282775" lon="1.88847">
        <ele>413.0</ele>
        <time>2019-12-21T13:20:31.444Z</time>
      </trkpt>
      <trkpt lat="41.28276167" lon="1.8885">
        <ele>413.0</ele>
        <time>2019-12-21T13:20:32.444Z</time>
      </trkpt>
      <trkpt lat="41.28276167" lon="1.8885">
        <ele>413.0</ele>
        <time>2019-12-21T13:20:33.402Z</time>
      </trkpt>
      <trkpt lat="41.28276167" lon="1.8885">
        <ele>413.0</ele>
        <time>2019-12-21T13:20:34.401Z</time>
      </trkpt>
      <trkpt lat="41.28275333" lon="1.88855333">
        <ele>413.0</ele>
        <time>2019-12-21T13:20:35.403Z</time>
      </trkpt>
      <trkpt lat="41.28275667" lon="1.88857833">
        <ele>414.0</ele>
        <time>2019-12-21T13:20:36.405Z</time>
      </trkpt>
      <trkpt lat="41.28275833" lon="1.88859833">
        <ele>414.0</ele>
        <time>2019-12-21T13:20:37.397Z</time>
      </trkpt>
      <trkpt lat="41.28275833" lon="1.88859833">
        <ele>414.0</ele>
        <time>2019-12-21T13:20:38.419Z</time>
      </trkpt>
      <trkpt lat="41.282765" lon="1.88863167">
        <ele>413.0</ele>
        <time>2019-12-21T13:20:39.417Z</time>
      </trkpt>
      <trkpt lat="41.282765" lon="1.88863167">
        <ele>413.0</ele>
        <time>2019-12-21T13:20:40.442Z</time>
      </trkpt>
      <trkpt lat="41.28276333" lon="1.888665">
        <ele>413.0</ele>
        <time>2019-12-21T13:20:41.419Z</time>
      </trkpt>
      <trkpt lat="41.28276333" lon="1.888665">
        <ele>413.0</ele>
        <time>2019-12-21T13:20:42.444Z</time>
      </trkpt>
      <trkpt lat="41.28276667" lon="1.88869833">
        <ele>413.0</ele>
        <time>2019-12-21T13:20:43.417Z</time>
      </trkpt>
      <trkpt lat="41.28276667" lon="1.88869833">
        <ele>413.0</ele>
        <time>2019-12-21T13:20:44.442Z</time>
      </trkpt>
      <trkpt lat="41.28276333" lon="1.888735">
        <ele>413.0</ele>
        <time>2019-12-21T13:20:45.418Z</time>
      </trkpt>
      <trkpt lat="41.28276333" lon="1.888735">
        <ele>413.0</ele>
        <time>2019-12-21T13:20:46.444Z</time>
      </trkpt>
      <trkpt lat="41.28275667" lon="1.88876833">
        <ele>413.0</ele>
        <time>2019-12-21T13:20:47.419Z</time>
      </trkpt>
      <trkpt lat="41.28275667" lon="1.88876833">
        <ele>413.0</ele>
        <time>2019-12-21T13:20:48.444Z</time>
      </trkpt>
      <trkpt lat="41.28275833" lon="1.88881">
        <ele>413.0</ele>
        <time>2019-12-21T13:20:49.416Z</time>
      </trkpt>
      <trkpt lat="41.28275833" lon="1.88881">
        <ele>413.0</ele>
        <time>2019-12-21T13:20:50.444Z</time>
      </trkpt>
      <trkpt lat="41.28275833" lon="1.88885333">
        <ele>413.0</ele>
        <time>2019-12-21T13:20:51.397Z</time>
      </trkpt>
      <trkpt lat="41.28275833" lon="1.88885333">
        <ele>413.0</ele>
        <time>2019-12-21T13:20:52.445Z</time>
      </trkpt>
      <trkpt lat="41.28273833" lon="1.88887833">
        <ele>413.0</ele>
        <time>2019-12-21T13:20:53.442Z</time>
      </trkpt>
      <trkpt lat="41.28273833" lon="1.88887833">
        <ele>413.0</ele>
        <time>2019-12-21T13:20:54.444Z</time>
      </trkpt>
      <trkpt lat="41.28271833" lon="1.88891333">
        <ele>413.0</ele>
        <time>2019-12-21T13:20:55.419Z</time>
      </trkpt>
      <trkpt lat="41.28271" lon="1.88893">
        <ele>413.0</ele>
        <time>2019-12-21T13:20:56.417Z</time>
      </trkpt>
      <trkpt lat="41.28270333" lon="1.88894667">
        <ele>413.0</ele>
        <time>2019-12-21T13:20:57.442Z</time>
      </trkpt>
      <trkpt lat="41.28270333" lon="1.88894667">
        <ele>413.0</ele>
        <time>2019-12-21T13:20:58.444Z</time>
      </trkpt>
      <trkpt lat="41.28267667" lon="1.88898333">
        <ele>413.0</ele>
        <time>2019-12-21T13:20:59.417Z</time>
      </trkpt>
      <trkpt lat="41.28267667" lon="1.88898333">
        <ele>413.0</ele>
        <time>2019-12-21T13:21:00.424Z</time>
      </trkpt>
      <trkpt lat="41.28265667" lon="1.88902333">
        <ele>413.0</ele>
        <time>2019-12-21T13:21:01.415Z</time>
      </trkpt>
      <trkpt lat="41.28265667" lon="1.88902333">
        <ele>413.0</ele>
        <time>2019-12-21T13:21:02.417Z</time>
      </trkpt>
      <trkpt lat="41.28263167" lon="1.88905833">
        <ele>413.0</ele>
        <time>2019-12-21T13:21:03.414Z</time>
      </trkpt>
      <trkpt lat="41.28263167" lon="1.88905833">
        <ele>413.0</ele>
        <time>2019-12-21T13:21:04.403Z</time>
      </trkpt>
      <trkpt lat="41.28259667" lon="1.88909167">
        <ele>413.0</ele>
        <time>2019-12-21T13:21:05.402Z</time>
      </trkpt>
      <trkpt lat="41.28258833" lon="1.88910167">
        <ele>414.0</ele>
        <time>2019-12-21T13:21:06.444Z</time>
      </trkpt>
      <trkpt lat="41.28257667" lon="1.889115">
        <ele>414.0</ele>
        <time>2019-12-21T13:21:07.439Z</time>
      </trkpt>
      <trkpt lat="41.28257667" lon="1.889115">
        <ele>414.0</ele>
        <time>2019-12-21T13:21:08.445Z</time>
      </trkpt>
      <trkpt lat="41.28256" lon="1.88914667">
        <ele>414.0</ele>
        <time>2019-12-21T13:21:09.418Z</time>
      </trkpt>
      <trkpt lat="41.28256" lon="1.88914667">
        <ele>414.0</ele>
        <time>2019-12-21T13:21:10.444Z</time>
      </trkpt>
      <trkpt lat="41.282535" lon="1.88917333">
        <ele>414.0</ele>
        <time>2019-12-21T13:21:11.417Z</time>
      </trkpt>
      <trkpt lat="41.282525" lon="1.889185">
        <ele>414.0</ele>
        <time>2019-12-21T13:21:12.439Z</time>
      </trkpt>
      <trkpt lat="41.282525" lon="1.889185">
        <ele>414.0</ele>
        <time>2019-12-21T13:21:13.423Z</time>
      </trkpt>
      <trkpt lat="41.28251" lon="1.88921333">
        <ele>414.0</ele>
        <time>2019-12-21T13:21:14.411Z</time>
      </trkpt>
      <trkpt lat="41.28251" lon="1.88921333">
        <ele>414.0</ele>
        <time>2019-12-21T13:21:15.413Z</time>
      </trkpt>
      <trkpt lat="41.2825" lon="1.88924">
        <ele>415.0</ele>
        <time>2019-12-21T13:21:16.443Z</time>
      </trkpt>
      <trkpt lat="41.2825" lon="1.88924">
        <ele>415.0</ele>
        <time>2019-12-21T13:21:17.407Z</time>
      </trkpt>
      <trkpt lat="41.28248333" lon="1.88926167">
        <ele>415.0</ele>
        <time>2019-12-21T13:21:18.439Z</time>
      </trkpt>
      <trkpt lat="41.28248333" lon="1.88926167">
        <ele>415.0</ele>
        <time>2019-12-21T13:21:19.442Z</time>
      </trkpt>
      <trkpt lat="41.282445" lon="1.889295">
        <ele>416.0</ele>
        <time>2019-12-21T13:21:20.445Z</time>
      </trkpt>
      <trkpt lat="41.282445" lon="1.889295">
        <ele>416.0</ele>
        <time>2019-12-21T13:21:21.440Z</time>
      </trkpt>
      <trkpt lat="41.282445" lon="1.889295">
        <ele>416.0</ele>
        <time>2019-12-21T13:21:22.457Z</time>
      </trkpt>
      <trkpt lat="41.28243167" lon="1.88932333">
        <ele>417.0</ele>
        <time>2019-12-21T13:21:23.414Z</time>
      </trkpt>
      <trkpt lat="41.28243167" lon="1.88932333">
        <ele>417.0</ele>
        <time>2019-12-21T13:21:24.398Z</time>
      </trkpt>
      <trkpt lat="41.28241833" lon="1.889355">
        <ele>418.0</ele>
        <time>2019-12-21T13:21:25.444Z</time>
      </trkpt>
      <trkpt lat="41.28241" lon="1.88937167">
        <ele>418.0</ele>
        <time>2019-12-21T13:21:26.439Z</time>
      </trkpt>
      <trkpt lat="41.28241" lon="1.88937167">
        <ele>418.0</ele>
        <time>2019-12-21T13:21:27.444Z</time>
      </trkpt>
      <trkpt lat="41.28239333" lon="1.88940167">
        <ele>419.0</ele>
        <time>2019-12-21T13:21:28.439Z</time>
      </trkpt>
      <trkpt lat="41.28239333" lon="1.88940167">
        <ele>419.0</ele>
        <time>2019-12-21T13:21:29.444Z</time>
      </trkpt>
      <trkpt lat="41.28238" lon="1.88943667">
        <ele>419.0</ele>
        <time>2019-12-21T13:21:30.442Z</time>
      </trkpt>
      <trkpt lat="41.28238" lon="1.88943667">
        <ele>419.0</ele>
        <time>2019-12-21T13:21:31.444Z</time>
      </trkpt>
      <trkpt lat="41.28235833" lon="1.88947">
        <ele>420.0</ele>
        <time>2019-12-21T13:21:32.418Z</time>
      </trkpt>
      <trkpt lat="41.28235833" lon="1.88947">
        <ele>420.0</ele>
        <time>2019-12-21T13:21:33.444Z</time>
      </trkpt>
      <trkpt lat="41.28235" lon="1.88950667">
        <ele>420.0</ele>
        <time>2019-12-21T13:21:34.444Z</time>
      </trkpt>
      <trkpt lat="41.28235167" lon="1.88952667">
        <ele>421.0</ele>
        <time>2019-12-21T13:21:35.414Z</time>
      </trkpt>
      <trkpt lat="41.28235167" lon="1.88952667">
        <ele>421.0</ele>
        <time>2019-12-21T13:21:36.415Z</time>
      </trkpt>
      <trkpt lat="41.28234333" lon="1.88956667">
        <ele>421.0</ele>
        <time>2019-12-21T13:21:37.415Z</time>
      </trkpt>
      <trkpt lat="41.28234333" lon="1.88956667">
        <ele>421.0</ele>
        <time>2019-12-21T13:21:38.417Z</time>
      </trkpt>
      <trkpt lat="41.28233667" lon="1.88961167">
        <ele>421.0</ele>
        <time>2019-12-21T13:21:39.416Z</time>
      </trkpt>
      <trkpt lat="41.28233667" lon="1.88961167">
        <ele>421.0</ele>
        <time>2019-12-21T13:21:40.420Z</time>
      </trkpt>
      <trkpt lat="41.282335" lon="1.889655">
        <ele>422.0</ele>
        <time>2019-12-21T13:21:41.402Z</time>
      </trkpt>
      <trkpt lat="41.28233667" lon="1.889675">
        <ele>422.0</ele>
        <time>2019-12-21T13:21:42.404Z</time>
      </trkpt>
      <trkpt lat="41.28233833" lon="1.88969333">
        <ele>422.0</ele>
        <time>2019-12-21T13:21:43.397Z</time>
      </trkpt>
      <trkpt lat="41.28233833" lon="1.88969333">
        <ele>422.0</ele>
        <time>2019-12-21T13:21:44.419Z</time>
      </trkpt>
      <trkpt lat="41.28233333" lon="1.88972667">
        <ele>423.0</ele>
        <time>2019-12-21T13:21:45.417Z</time>
      </trkpt>
      <trkpt lat="41.28233333" lon="1.88972667">
        <ele>423.0</ele>
        <time>2019-12-21T13:21:46.444Z</time>
      </trkpt>
      <trkpt lat="41.28234333" lon="1.88976667">
        <ele>423.0</ele>
        <time>2019-12-21T13:21:47.418Z</time>
      </trkpt>
      <trkpt lat="41.28234667" lon="1.88979">
        <ele>424.0</ele>
        <time>2019-12-21T13:21:48.420Z</time>
      </trkpt>
      <trkpt lat="41.28234667" lon="1.88979">
        <ele>424.0</ele>
        <time>2019-12-21T13:21:49.444Z</time>
      </trkpt>
      <trkpt lat="41.282345" lon="1.889835">
        <ele>424.0</ele>
        <time>2019-12-21T13:21:50.417Z</time>
      </trkpt>
      <trkpt lat="41.282345" lon="1.889835">
        <ele>424.0</ele>
        <time>2019-12-21T13:21:51.445Z</time>
      </trkpt>
      <trkpt lat="41.28234333" lon="1.88988333">
        <ele>424.0</ele>
        <time>2019-12-21T13:21:52.398Z</time>
      </trkpt>
      <trkpt lat="41.28234333" lon="1.88988333">
        <ele>424.0</ele>
        <time>2019-12-21T13:21:53.447Z</time>
      </trkpt>
      <trkpt lat="41.28233833" lon="1.88992833">
        <ele>425.0</ele>
        <time>2019-12-21T13:21:54.439Z</time>
      </trkpt>
      <trkpt lat="41.28233833" lon="1.88992833">
        <ele>425.0</ele>
        <time>2019-12-21T13:21:55.424Z</time>
      </trkpt>
      <trkpt lat="41.28233333" lon="1.88997667">
        <ele>426.0</ele>
        <time>2019-12-21T13:21:56.418Z</time>
      </trkpt>
      <trkpt lat="41.28233" lon="1.89000167">
        <ele>426.0</ele>
        <time>2019-12-21T13:21:57.440Z</time>
      </trkpt>
      <trkpt lat="41.28233" lon="1.89000167">
        <ele>426.0</ele>
        <time>2019-12-21T13:21:58.444Z</time>
      </trkpt>
      <trkpt lat="41.28231833" lon="1.89004667">
        <ele>426.0</ele>
        <time>2019-12-21T13:21:59.416Z</time>
      </trkpt>
      <trkpt lat="41.28231167" lon="1.89007167">
        <ele>427.0</ele>
        <time>2019-12-21T13:22:00.420Z</time>
      </trkpt>
      <trkpt lat="41.28231167" lon="1.89007167">
        <ele>427.0</ele>
        <time>2019-12-21T13:22:01.444Z</time>
      </trkpt>
      <trkpt lat="41.28229667" lon="1.89012167">
        <ele>427.0</ele>
        <time>2019-12-21T13:22:02.418Z</time>
      </trkpt>
      <trkpt lat="41.28229667" lon="1.89012167">
        <ele>427.0</ele>
        <time>2019-12-21T13:22:03.444Z</time>
      </trkpt>
      <trkpt lat="41.28227667" lon="1.89017167">
        <ele>427.0</ele>
        <time>2019-12-21T13:22:04.439Z</time>
      </trkpt>
      <trkpt lat="41.28227667" lon="1.89017167">
        <ele>427.0</ele>
        <time>2019-12-21T13:22:05.448Z</time>
      </trkpt>
      <trkpt lat="41.28226" lon="1.89022167">
        <ele>428.0</ele>
        <time>2019-12-21T13:22:06.439Z</time>
      </trkpt>
      <trkpt lat="41.28226" lon="1.89022167">
        <ele>428.0</ele>
        <time>2019-12-21T13:22:07.444Z</time>
      </trkpt>
      <trkpt lat="41.28223667" lon="1.89028">
        <ele>428.0</ele>
        <time>2019-12-21T13:22:08.418Z</time>
      </trkpt>
      <trkpt lat="41.28223667" lon="1.89028">
        <ele>428.0</ele>
        <time>2019-12-21T13:22:09.444Z</time>
      </trkpt>
      <trkpt lat="41.282215" lon="1.89034167">
        <ele>429.0</ele>
        <time>2019-12-21T13:22:10.418Z</time>
      </trkpt>
      <trkpt lat="41.282215" lon="1.89034167">
        <ele>429.0</ele>
        <time>2019-12-21T13:22:11.447Z</time>
      </trkpt>
      <trkpt lat="41.28218833" lon="1.890405">
        <ele>429.0</ele>
        <time>2019-12-21T13:22:12.421Z</time>
      </trkpt>
      <trkpt lat="41.28218833" lon="1.890405">
        <ele>429.0</ele>
        <time>2019-12-21T13:22:13.444Z</time>
      </trkpt>
      <trkpt lat="41.282165" lon="1.89046833">
        <ele>429.0</ele>
        <time>2019-12-21T13:22:14.420Z</time>
      </trkpt>
      <trkpt lat="41.282165" lon="1.89046833">
        <ele>429.0</ele>
        <time>2019-12-21T13:22:15.442Z</time>
      </trkpt>
      <trkpt lat="41.28213833" lon="1.890535">
        <ele>429.0</ele>
        <time>2019-12-21T13:22:16.416Z</time>
      </trkpt>
      <trkpt lat="41.282125" lon="1.89057167">
        <ele>429.0</ele>
        <time>2019-12-21T13:22:17.412Z</time>
      </trkpt>
      <trkpt lat="41.28211" lon="1.89060667">
        <ele>429.0</ele>
        <time>2019-12-21T13:22:18.412Z</time>
      </trkpt>
      <trkpt lat="41.28211" lon="1.89060667">
        <ele>429.0</ele>
        <time>2019-12-21T13:22:19.401Z</time>
      </trkpt>
      <trkpt lat="41.28207667" lon="1.89068">
        <ele>429.0</ele>
        <time>2019-12-21T13:22:20.444Z</time>
      </trkpt>
      <trkpt lat="41.28206167" lon="1.89071667">
        <ele>429.0</ele>
        <time>2019-12-21T13:22:21.442Z</time>
      </trkpt>
      <trkpt lat="41.28206167" lon="1.89071667">
        <ele>429.0</ele>
        <time>2019-12-21T13:22:22.478Z</time>
      </trkpt>
      <trkpt lat="41.282035" lon="1.89079">
        <ele>429.0</ele>
        <time>2019-12-21T13:22:23.414Z</time>
      </trkpt>
      <trkpt lat="41.28202333" lon="1.89082833">
        <ele>430.0</ele>
        <time>2019-12-21T13:22:24.424Z</time>
      </trkpt>
      <trkpt lat="41.28202333" lon="1.89082833">
        <ele>430.0</ele>
        <time>2019-12-21T13:22:25.425Z</time>
      </trkpt>
      <trkpt lat="41.28200833" lon="1.89090667">
        <ele>430.0</ele>
        <time>2019-12-21T13:22:26.440Z</time>
      </trkpt>
      <trkpt lat="41.28200833" lon="1.89090667">
        <ele>430.0</ele>
        <time>2019-12-21T13:22:27.459Z</time>
      </trkpt>
      <trkpt lat="41.28200167" lon="1.890985">
        <ele>430.0</ele>
        <time>2019-12-21T13:22:28.439Z</time>
      </trkpt>
      <trkpt lat="41.28200167" lon="1.890985">
        <ele>430.0</ele>
        <time>2019-12-21T13:22:29.422Z</time>
      </trkpt>
      <trkpt lat="41.282" lon="1.89107">
        <ele>430.0</ele>
        <time>2019-12-21T13:22:30.417Z</time>
      </trkpt>
      <trkpt lat="41.28199833" lon="1.89111333">
        <ele>430.0</ele>
        <time>2019-12-21T13:22:31.414Z</time>
      </trkpt>
      <trkpt lat="41.28199833" lon="1.89111333">
        <ele>430.0</ele>
        <time>2019-12-21T13:22:32.415Z</time>
      </trkpt>
      <trkpt lat="41.282" lon="1.89120333">
        <ele>430.0</ele>
        <time>2019-12-21T13:22:33.415Z</time>
      </trkpt>
      <trkpt lat="41.28200333" lon="1.89129167">
        <ele>430.0</ele>
        <time>2019-12-21T13:22:34.444Z</time>
      </trkpt>
      <trkpt lat="41.28200333" lon="1.89129167">
        <ele>430.0</ele>
        <time>2019-12-21T13:22:35.456Z</time>
      </trkpt>
      <trkpt lat="41.28200667" lon="1.89133667">
        <ele>430.0</ele>
        <time>2019-12-21T13:22:36.439Z</time>
      </trkpt>
      <trkpt lat="41.28200667" lon="1.89133667">
        <ele>430.0</ele>
        <time>2019-12-21T13:22:37.444Z</time>
      </trkpt>
      <trkpt lat="41.28201833" lon="1.89142333">
        <ele>431.0</ele>
        <time>2019-12-21T13:22:38.418Z</time>
      </trkpt>
      <trkpt lat="41.28201833" lon="1.89142333">
        <ele>431.0</ele>
        <time>2019-12-21T13:22:39.442Z</time>
      </trkpt>
      <trkpt lat="41.28203" lon="1.89150833">
        <ele>431.0</ele>
        <time>2019-12-21T13:22:40.399Z</time>
      </trkpt>
      <trkpt lat="41.28203" lon="1.89150833">
        <ele>431.0</ele>
        <time>2019-12-21T13:22:41.397Z</time>
      </trkpt>
      <trkpt lat="41.28204333" lon="1.89159333">
        <ele>431.0</ele>
        <time>2019-12-21T13:22:42.439Z</time>
      </trkpt>
      <trkpt lat="41.28204333" lon="1.89159333">
        <ele>431.0</ele>
        <time>2019-12-21T13:22:43.445Z</time>
      </trkpt>
      <trkpt lat="41.28206" lon="1.891675">
        <ele>431.0</ele>
        <time>2019-12-21T13:22:44.398Z</time>
      </trkpt>
      <trkpt lat="41.28206" lon="1.891675">
        <ele>431.0</ele>
        <time>2019-12-21T13:22:45.419Z</time>
      </trkpt>
      <trkpt lat="41.28208" lon="1.89175833">
        <ele>432.0</ele>
        <time>2019-12-21T13:22:46.418Z</time>
      </trkpt>
      <trkpt lat="41.28208" lon="1.89175833">
        <ele>432.0</ele>
        <time>2019-12-21T13:22:47.421Z</time>
      </trkpt>
      <trkpt lat="41.28209833" lon="1.89184167">
        <ele>432.0</ele>
        <time>2019-12-21T13:22:48.416Z</time>
      </trkpt>
      <trkpt lat="41.28210833" lon="1.89188333">
        <ele>432.0</ele>
        <time>2019-12-21T13:22:49.411Z</time>
      </trkpt>
      <trkpt lat="41.28210833" lon="1.89188333">
        <ele>432.0</ele>
        <time>2019-12-21T13:22:50.414Z</time>
      </trkpt>
      <trkpt lat="41.28212667" lon="1.89196833">
        <ele>432.0</ele>
        <time>2019-12-21T13:22:51.413Z</time>
      </trkpt>
      <trkpt lat="41.28212667" lon="1.89196833">
        <ele>432.0</ele>
        <time>2019-12-21T13:22:52.403Z</time>
      </trkpt>
      <trkpt lat="41.282145" lon="1.89205667">
        <ele>432.0</ele>
        <time>2019-12-21T13:22:53.404Z</time>
      </trkpt>
      <trkpt lat="41.282155" lon="1.8921">
        <ele>432.0</ele>
        <time>2019-12-21T13:22:54.439Z</time>
      </trkpt>
      <trkpt lat="41.282155" lon="1.8921">
        <ele>432.0</ele>
        <time>2019-12-21T13:22:55.425Z</time>
      </trkpt>
      <trkpt lat="41.28217167" lon="1.89219167">
        <ele>432.0</ele>
        <time>2019-12-21T13:22:56.439Z</time>
      </trkpt>
      <trkpt lat="41.28217167" lon="1.89219167">
        <ele>432.0</ele>
        <time>2019-12-21T13:22:57.444Z</time>
      </trkpt>
      <trkpt lat="41.282185" lon="1.89228667">
        <ele>432.0</ele>
        <time>2019-12-21T13:22:58.445Z</time>
      </trkpt>
      <trkpt lat="41.28218667" lon="1.89233833">
        <ele>432.0</ele>
        <time>2019-12-21T13:22:59.443Z</time>
      </trkpt>
      <trkpt lat="41.28218667" lon="1.89233833">
        <ele>432.0</ele>
        <time>2019-12-21T13:23:00.425Z</time>
      </trkpt>
      <trkpt lat="41.28218333" lon="1.89244">
        <ele>432.0</ele>
        <time>2019-12-21T13:23:01.440Z</time>
      </trkpt>
      <trkpt lat="41.28218333" lon="1.89244">
        <ele>432.0</ele>
        <time>2019-12-21T13:23:02.445Z</time>
      </trkpt>
      <trkpt lat="41.28216833" lon="1.89254167">
        <ele>431.0</ele>
        <time>2019-12-21T13:23:03.439Z</time>
      </trkpt>
      <trkpt lat="41.28216833" lon="1.89254167">
        <ele>431.0</ele>
        <time>2019-12-21T13:23:04.397Z</time>
      </trkpt>
      <trkpt lat="41.28214" lon="1.89264667">
        <ele>431.0</ele>
        <time>2019-12-21T13:23:05.413Z</time>
      </trkpt>
      <trkpt lat="41.28212333" lon="1.8927">
        <ele>431.0</ele>
        <time>2019-12-21T13:23:06.416Z</time>
      </trkpt>
      <trkpt lat="41.28212333" lon="1.8927">
        <ele>431.0</ele>
        <time>2019-12-21T13:23:07.421Z</time>
      </trkpt>
      <trkpt lat="41.28208667" lon="1.89281">
        <ele>431.0</ele>
        <time>2019-12-21T13:23:08.417Z</time>
      </trkpt>
      <trkpt lat="41.28208667" lon="1.89281">
        <ele>431.0</ele>
        <time>2019-12-21T13:23:09.421Z</time>
      </trkpt>
      <trkpt lat="41.28204833" lon="1.89292">
        <ele>431.0</ele>
        <time>2019-12-21T13:23:10.418Z</time>
      </trkpt>
      <trkpt lat="41.28203167" lon="1.89297667">
        <ele>431.0</ele>
        <time>2019-12-21T13:23:11.442Z</time>
      </trkpt>
      <trkpt lat="41.28203167" lon="1.89297667">
        <ele>431.0</ele>
        <time>2019-12-21T13:23:12.408Z</time>
      </trkpt>
      <trkpt lat="41.28200167" lon="1.893095">
        <ele>431.0</ele>
        <time>2019-12-21T13:23:13.421Z</time>
      </trkpt>
      <trkpt lat="41.28198667" lon="1.89315667">
        <ele>430.0</ele>
        <time>2019-12-21T13:23:14.446Z</time>
      </trkpt>
      <trkpt lat="41.28198667" lon="1.89315667">
        <ele>430.0</ele>
        <time>2019-12-21T13:23:15.402Z</time>
      </trkpt>
      <trkpt lat="41.281965" lon="1.89329">
        <ele>430.0</ele>
        <time>2019-12-21T13:23:16.402Z</time>
      </trkpt>
      <trkpt lat="41.281965" lon="1.89329">
        <ele>430.0</ele>
        <time>2019-12-21T13:23:17.408Z</time>
      </trkpt>
      <trkpt lat="41.28195333" lon="1.89342167">
        <ele>429.0</ele>
        <time>2019-12-21T13:23:18.410Z</time>
      </trkpt>
      <trkpt lat="41.28195333" lon="1.89342167">
        <ele>429.0</ele>
        <time>2019-12-21T13:23:19.403Z</time>
      </trkpt>
      <trkpt lat="41.28195" lon="1.89353333">
        <ele>429.0</ele>
        <time>2019-12-21T13:23:20.402Z</time>
      </trkpt>
      <trkpt lat="41.28195333" lon="1.89358833">
        <ele>429.0</ele>
        <time>2019-12-21T13:23:21.404Z</time>
      </trkpt>
      <trkpt lat="41.28195333" lon="1.89358833">
        <ele>429.0</ele>
        <time>2019-12-21T13:23:22.403Z</time>
      </trkpt>
      <trkpt lat="41.28196667" lon="1.893715">
        <ele>429.0</ele>
        <time>2019-12-21T13:23:23.397Z</time>
      </trkpt>
      <trkpt lat="41.28196833" lon="1.89377667">
        <ele>429.0</ele>
        <time>2019-12-21T13:23:24.468Z</time>
      </trkpt>
      <trkpt lat="41.28197" lon="1.89383667">
        <ele>428.0</ele>
        <time>2019-12-21T13:23:25.399Z</time>
      </trkpt>
      <trkpt lat="41.28197" lon="1.89383667">
        <ele>428.0</ele>
        <time>2019-12-21T13:23:26.405Z</time>
      </trkpt>
      <trkpt lat="41.28197333" lon="1.89394333">
        <ele>428.0</ele>
        <time>2019-12-21T13:23:27.411Z</time>
      </trkpt>
      <trkpt lat="41.28197333" lon="1.89394333">
        <ele>428.0</ele>
        <time>2019-12-21T13:23:28.421Z</time>
      </trkpt>
      <trkpt lat="41.281975" lon="1.89400667">
        <ele>427.0</ele>
        <time>2019-12-21T13:23:29.418Z</time>
      </trkpt>
      <trkpt lat="41.281975" lon="1.894035">
        <ele>427.0</ele>
        <time>2019-12-21T13:23:30.420Z</time>
      </trkpt>
      <trkpt lat="41.281975" lon="1.894035">
        <ele>427.0</ele>
        <time>2019-12-21T13:23:31.445Z</time>
      </trkpt>
      <trkpt lat="41.28196333" lon="1.89410167">
        <ele>426.0</ele>
        <time>2019-12-21T13:23:32.440Z</time>
      </trkpt>
      <trkpt lat="41.28196333" lon="1.89410167">
        <ele>426.0</ele>
        <time>2019-12-21T13:23:33.445Z</time>
      </trkpt>
      <trkpt lat="41.28192167" lon="1.894215">
        <ele>425.0</ele>
        <time>2019-12-21T13:23:34.440Z</time>
      </trkpt>
      <trkpt lat="41.28192167" lon="1.894215">
        <ele>425.0</ele>
        <time>2019-12-21T13:23:35.424Z</time>
      </trkpt>
      <trkpt lat="41.28185667" lon="1.89436333">
        <ele>424.0</ele>
        <time>2019-12-21T13:23:36.421Z</time>
      </trkpt>
      <trkpt lat="41.28185667" lon="1.89436333">
        <ele>424.0</ele>
        <time>2019-12-21T13:23:37.445Z</time>
      </trkpt>
      <trkpt lat="41.28177167" lon="1.89454833">
        <ele>422.0</ele>
        <time>2019-12-21T13:23:38.440Z</time>
      </trkpt>
      <trkpt lat="41.28177167" lon="1.89454833">
        <ele>422.0</ele>
        <time>2019-12-21T13:23:39.444Z</time>
      </trkpt>
      <trkpt lat="41.28168333" lon="1.89475667">
        <ele>420.0</ele>
        <time>2019-12-21T13:23:40.418Z</time>
      </trkpt>
      <trkpt lat="41.28168333" lon="1.89475667">
        <ele>420.0</ele>
        <time>2019-12-21T13:23:41.408Z</time>
      </trkpt>
      <trkpt lat="41.281605" lon="1.89500333">
        <ele>419.0</ele>
        <time>2019-12-21T13:23:42.440Z</time>
      </trkpt>
      <trkpt lat="41.281605" lon="1.89500333">
        <ele>419.0</ele>
        <time>2019-12-21T13:23:43.445Z</time>
      </trkpt>
      <trkpt lat="41.28155667" lon="1.895275">
        <ele>418.0</ele>
        <time>2019-12-21T13:23:44.440Z</time>
      </trkpt>
      <trkpt lat="41.28155667" lon="1.895275">
        <ele>418.0</ele>
        <time>2019-12-21T13:23:45.425Z</time>
      </trkpt>
      <trkpt lat="41.28156333" lon="1.89555167">
        <ele>417.0</ele>
        <time>2019-12-21T13:23:46.440Z</time>
      </trkpt>
      <trkpt lat="41.28156333" lon="1.89555167">
        <ele>417.0</ele>
        <time>2019-12-21T13:23:47.423Z</time>
      </trkpt>
      <trkpt lat="41.281595" lon="1.89583167">
        <ele>415.0</ele>
        <time>2019-12-21T13:23:48.419Z</time>
      </trkpt>
      <trkpt lat="41.281595" lon="1.89583167">
        <ele>415.0</ele>
        <time>2019-12-21T13:23:49.445Z</time>
      </trkpt>
      <trkpt lat="41.28163667" lon="1.896105">
        <ele>414.0</ele>
        <time>2019-12-21T13:23:50.440Z</time>
      </trkpt>
      <trkpt lat="41.28163667" lon="1.896105">
        <ele>414.0</ele>
        <time>2019-12-21T13:23:51.443Z</time>
      </trkpt>
      <trkpt lat="41.28167167" lon="1.89637">
        <ele>414.0</ele>
        <time>2019-12-21T13:23:52.403Z</time>
      </trkpt>
      <trkpt lat="41.28168167" lon="1.89649667">
        <ele>413.0</ele>
        <time>2019-12-21T13:23:53.403Z</time>
      </trkpt>
      <trkpt lat="41.28168667" lon="1.89661667">
        <ele>414.0</ele>
        <time>2019-12-21T13:23:54.440Z</time>
      </trkpt>
      <trkpt lat="41.28168667" lon="1.89661667">
        <ele>414.0</ele>
        <time>2019-12-21T13:23:55.425Z</time>
      </trkpt>
      <trkpt lat="41.28168833" lon="1.896825">
        <ele>414.0</ele>
        <time>2019-12-21T13:23:56.440Z</time>
      </trkpt>
      <trkpt lat="41.28168833" lon="1.896825">
        <ele>414.0</ele>
        <time>2019-12-21T13:23:57.445Z</time>
      </trkpt>
      <trkpt lat="41.28167667" lon="1.89698833">
        <ele>415.0</ele>
        <time>2019-12-21T13:23:58.440Z</time>
      </trkpt>
      <trkpt lat="41.28167667" lon="1.89698833">
        <ele>415.0</ele>
        <time>2019-12-21T13:23:59.424Z</time>
      </trkpt>
      <trkpt lat="41.281655" lon="1.89711667">
        <ele>416.0</ele>
        <time>2019-12-21T13:24:00.418Z</time>
      </trkpt>
      <trkpt lat="41.281655" lon="1.89711667">
        <ele>416.0</ele>
        <time>2019-12-21T13:24:01.422Z</time>
      </trkpt>
      <trkpt lat="41.28163167" lon="1.89721667">
        <ele>416.0</ele>
        <time>2019-12-21T13:24:02.440Z</time>
      </trkpt>
      <trkpt lat="41.28163167" lon="1.89721667">
        <ele>416.0</ele>
        <time>2019-12-21T13:24:03.445Z</time>
      </trkpt>
      <trkpt lat="41.28161" lon="1.89729667">
        <ele>417.0</ele>
        <time>2019-12-21T13:24:04.441Z</time>
      </trkpt>
      <trkpt lat="41.28161" lon="1.89729667">
        <ele>417.0</ele>
        <time>2019-12-21T13:24:05.398Z</time>
      </trkpt>
      <trkpt lat="41.28158667" lon="1.89736167">
        <ele>417.0</ele>
        <time>2019-12-21T13:24:06.440Z</time>
      </trkpt>
      <trkpt lat="41.28158667" lon="1.89736167">
        <ele>417.0</ele>
        <time>2019-12-21T13:24:07.446Z</time>
      </trkpt>
      <trkpt lat="41.281565" lon="1.89742333">
        <ele>418.0</ele>
        <time>2019-12-21T13:24:08.443Z</time>
      </trkpt>
      <trkpt lat="41.281555" lon="1.897455">
        <ele>418.0</ele>
        <time>2019-12-21T13:24:09.440Z</time>
      </trkpt>
      <trkpt lat="41.281555" lon="1.897455">
        <ele>418.0</ele>
        <time>2019-12-21T13:24:10.425Z</time>
      </trkpt>
      <trkpt lat="41.28153333" lon="1.89752667">
        <ele>418.0</ele>
        <time>2019-12-21T13:24:11.421Z</time>
      </trkpt>
      <trkpt lat="41.28153333" lon="1.89752667">
        <ele>418.0</ele>
        <time>2019-12-21T13:24:12.445Z</time>
      </trkpt>
      <trkpt lat="41.28151667" lon="1.89759333">
        <ele>419.0</ele>
        <time>2019-12-21T13:24:13.441Z</time>
      </trkpt>
      <trkpt lat="41.28151667" lon="1.89759333">
        <ele>419.0</ele>
        <time>2019-12-21T13:24:14.445Z</time>
      </trkpt>
      <trkpt lat="41.28149333" lon="1.89765833">
        <ele>420.0</ele>
        <time>2019-12-21T13:24:15.440Z</time>
      </trkpt>
      <trkpt lat="41.28149333" lon="1.89765833">
        <ele>420.0</ele>
        <time>2019-12-21T13:24:16.445Z</time>
      </trkpt>
      <trkpt lat="41.28147167" lon="1.89772333">
        <ele>420.0</ele>
        <time>2019-12-21T13:24:17.448Z</time>
      </trkpt>
      <trkpt lat="41.28146" lon="1.89775333">
        <ele>420.0</ele>
        <time>2019-12-21T13:24:18.420Z</time>
      </trkpt>
      <trkpt lat="41.28146" lon="1.89775333">
        <ele>420.0</ele>
        <time>2019-12-21T13:24:19.445Z</time>
      </trkpt>
      <trkpt lat="41.28143667" lon="1.89781667">
        <ele>421.0</ele>
        <time>2019-12-21T13:24:20.440Z</time>
      </trkpt>
      <trkpt lat="41.28143667" lon="1.89781667">
        <ele>421.0</ele>
        <time>2019-12-21T13:24:21.444Z</time>
      </trkpt>
      <trkpt lat="41.28141667" lon="1.897875">
        <ele>421.0</ele>
        <time>2019-12-21T13:24:22.401Z</time>
      </trkpt>
      <trkpt lat="41.281405" lon="1.8979">
        <ele>421.0</ele>
        <time>2019-12-21T13:24:23.443Z</time>
      </trkpt>
      <trkpt lat="41.281405" lon="1.8979">
        <ele>421.0</ele>
        <time>2019-12-21T13:24:24.425Z</time>
      </trkpt>
      <trkpt lat="41.28137667" lon="1.89794">
        <ele>422.0</ele>
        <time>2019-12-21T13:24:25.442Z</time>
      </trkpt>
      <trkpt lat="41.28137667" lon="1.89794">
        <ele>422.0</ele>
        <time>2019-12-21T13:24:26.445Z</time>
      </trkpt>
      <trkpt lat="41.28135333" lon="1.89799167">
        <ele>422.0</ele>
        <time>2019-12-21T13:24:27.440Z</time>
      </trkpt>
      <trkpt lat="41.28135333" lon="1.89799167">
        <ele>422.0</ele>
        <time>2019-12-21T13:24:28.442Z</time>
      </trkpt>
      <trkpt lat="41.28133333" lon="1.89805">
        <ele>422.0</ele>
        <time>2019-12-21T13:24:29.418Z</time>
      </trkpt>
      <trkpt lat="41.28132333" lon="1.89807833">
        <ele>422.0</ele>
        <time>2019-12-21T13:24:30.419Z</time>
      </trkpt>
      <trkpt lat="41.28132333" lon="1.89807833">
        <ele>422.0</ele>
        <time>2019-12-21T13:24:31.445Z</time>
      </trkpt>
      <trkpt lat="41.2813" lon="1.89813667">
        <ele>422.0</ele>
        <time>2019-12-21T13:24:32.441Z</time>
      </trkpt>
      <trkpt lat="41.2813" lon="1.89813667">
        <ele>422.0</ele>
        <time>2019-12-21T13:24:33.445Z</time>
      </trkpt>
      <trkpt lat="41.281275" lon="1.89819167">
        <ele>422.0</ele>
        <time>2019-12-21T13:24:34.401Z</time>
      </trkpt>
      <trkpt lat="41.281275" lon="1.89819167">
        <ele>422.0</ele>
        <time>2019-12-21T13:24:35.424Z</time>
      </trkpt>
      <trkpt lat="41.28125167" lon="1.89824667">
        <ele>421.0</ele>
        <time>2019-12-21T13:24:36.422Z</time>
      </trkpt>
      <trkpt lat="41.28125167" lon="1.89824667">
        <ele>421.0</ele>
        <time>2019-12-21T13:24:37.446Z</time>
      </trkpt>
      <trkpt lat="41.28123" lon="1.8983">
        <ele>421.0</ele>
        <time>2019-12-21T13:24:38.440Z</time>
      </trkpt>
      <trkpt lat="41.28123" lon="1.8983">
        <ele>421.0</ele>
        <time>2019-12-21T13:24:39.445Z</time>
      </trkpt>
      <trkpt lat="41.28120667" lon="1.898355">
        <ele>421.0</ele>
        <time>2019-12-21T13:24:40.451Z</time>
      </trkpt>
      <trkpt lat="41.28120667" lon="1.898355">
        <ele>421.0</ele>
        <time>2019-12-21T13:24:41.449Z</time>
      </trkpt>
      <trkpt lat="41.28118833" lon="1.89840833">
        <ele>421.0</ele>
        <time>2019-12-21T13:24:42.441Z</time>
      </trkpt>
      <trkpt lat="41.28118833" lon="1.89840833">
        <ele>421.0</ele>
        <time>2019-12-21T13:24:43.446Z</time>
      </trkpt>
      <trkpt lat="41.28117" lon="1.89845833">
        <ele>421.0</ele>
        <time>2019-12-21T13:24:44.440Z</time>
      </trkpt>
      <trkpt lat="41.28117" lon="1.89845833">
        <ele>421.0</ele>
        <time>2019-12-21T13:24:45.442Z</time>
      </trkpt>
      <trkpt lat="41.28115" lon="1.89851167">
        <ele>422.0</ele>
        <time>2019-12-21T13:24:46.414Z</time>
      </trkpt>
      <trkpt lat="41.28114333" lon="1.89854">
        <ele>422.0</ele>
        <time>2019-12-21T13:24:47.413Z</time>
      </trkpt>
      <trkpt lat="41.281135" lon="1.898565">
        <ele>422.0</ele>
        <time>2019-12-21T13:24:48.413Z</time>
      </trkpt>
      <trkpt lat="41.281135" lon="1.898565">
        <ele>422.0</ele>
        <time>2019-12-21T13:24:49.403Z</time>
      </trkpt>
      <trkpt lat="41.281115" lon="1.89861333">
        <ele>422.0</ele>
        <time>2019-12-21T13:24:50.404Z</time>
      </trkpt>
      <trkpt lat="41.281115" lon="1.89861333">
        <ele>422.0</ele>
        <time>2019-12-21T13:24:51.401Z</time>
      </trkpt>
      <trkpt lat="41.28109667" lon="1.89866167">
        <ele>423.0</ele>
        <time>2019-12-21T13:24:52.445Z</time>
      </trkpt>
      <trkpt lat="41.28108667" lon="1.898685">
        <ele>423.0</ele>
        <time>2019-12-21T13:24:53.443Z</time>
      </trkpt>
      <trkpt lat="41.28108667" lon="1.898685">
        <ele>423.0</ele>
        <time>2019-12-21T13:24:54.446Z</time>
      </trkpt>
      <trkpt lat="41.28106167" lon="1.89873333">
        <ele>423.0</ele>
        <time>2019-12-21T13:24:55.444Z</time>
      </trkpt>
      <trkpt lat="41.28106167" lon="1.89873333">
        <ele>423.0</ele>
        <time>2019-12-21T13:24:56.445Z</time>
      </trkpt>
      <trkpt lat="41.28103833" lon="1.89878167">
        <ele>423.0</ele>
        <time>2019-12-21T13:24:57.400Z</time>
      </trkpt>
      <trkpt lat="41.28103833" lon="1.89878167">
        <ele>423.0</ele>
        <time>2019-12-21T13:24:58.433Z</time>
      </trkpt>
      <trkpt lat="41.28101667" lon="1.89883167">
        <ele>424.0</ele>
        <time>2019-12-21T13:24:59.417Z</time>
      </trkpt>
      <trkpt lat="41.28100333" lon="1.898855">
        <ele>424.0</ele>
        <time>2019-12-21T13:25:00.418Z</time>
      </trkpt>
      <trkpt lat="41.28100333" lon="1.898855">
        <ele>424.0</ele>
        <time>2019-12-21T13:25:01.446Z</time>
      </trkpt>
      <trkpt lat="41.28098" lon="1.89890833">
        <ele>424.0</ele>
        <time>2019-12-21T13:25:02.440Z</time>
      </trkpt>
      <trkpt lat="41.28098" lon="1.89890833">
        <ele>424.0</ele>
        <time>2019-12-21T13:25:03.451Z</time>
      </trkpt>
      <trkpt lat="41.28096" lon="1.898955">
        <ele>424.0</ele>
        <time>2019-12-21T13:25:04.426Z</time>
      </trkpt>
      <trkpt lat="41.28095" lon="1.89898">
        <ele>425.0</ele>
        <time>2019-12-21T13:25:05.446Z</time>
      </trkpt>
      <trkpt lat="41.28095" lon="1.89898">
        <ele>425.0</ele>
        <time>2019-12-21T13:25:06.425Z</time>
      </trkpt>
      <trkpt lat="41.28093167" lon="1.899025">
        <ele>425.0</ele>
        <time>2019-12-21T13:25:07.440Z</time>
      </trkpt>
      <trkpt lat="41.28093167" lon="1.899025">
        <ele>425.0</ele>
        <time>2019-12-21T13:25:08.445Z</time>
      </trkpt>
      <trkpt lat="41.28091333" lon="1.89907167">
        <ele>426.0</ele>
        <time>2019-12-21T13:25:09.418Z</time>
      </trkpt>
      <trkpt lat="41.28091333" lon="1.89907167">
        <ele>426.0</ele>
        <time>2019-12-21T13:25:10.445Z</time>
      </trkpt>
      <trkpt lat="41.28089667" lon="1.89912">
        <ele>426.0</ele>
        <time>2019-12-21T13:25:11.418Z</time>
      </trkpt>
      <trkpt lat="41.28088833" lon="1.899145">
        <ele>426.0</ele>
        <time>2019-12-21T13:25:12.420Z</time>
      </trkpt>
      <trkpt lat="41.28088833" lon="1.899145">
        <ele>426.0</ele>
        <time>2019-12-21T13:25:13.446Z</time>
      </trkpt>
      <trkpt lat="41.280865" lon="1.89918833">
        <ele>426.0</ele>
        <time>2019-12-21T13:25:14.443Z</time>
      </trkpt>
      <trkpt lat="41.280865" lon="1.89918833">
        <ele>426.0</ele>
        <time>2019-12-21T13:25:15.426Z</time>
      </trkpt>
      <trkpt lat="41.28084167" lon="1.899235">
        <ele>426.0</ele>
        <time>2019-12-21T13:25:16.406Z</time>
      </trkpt>
      <trkpt lat="41.28084167" lon="1.899235">
        <ele>426.0</ele>
        <time>2019-12-21T13:25:17.401Z</time>
      </trkpt>
      <trkpt lat="41.28082333" lon="1.89928333">
        <ele>427.0</ele>
        <time>2019-12-21T13:25:18.440Z</time>
      </trkpt>
      <trkpt lat="41.28082333" lon="1.89928333">
        <ele>427.0</ele>
        <time>2019-12-21T13:25:19.446Z</time>
      </trkpt>
      <trkpt lat="41.28080333" lon="1.89933333">
        <ele>427.0</ele>
        <time>2019-12-21T13:25:20.440Z</time>
      </trkpt>
      <trkpt lat="41.28080333" lon="1.89933333">
        <ele>427.0</ele>
        <time>2019-12-21T13:25:21.444Z</time>
      </trkpt>
      <trkpt lat="41.280785" lon="1.89938">
        <ele>427.0</ele>
        <time>2019-12-21T13:25:22.479Z</time>
      </trkpt>
      <trkpt lat="41.28077333" lon="1.89940333">
        <ele>427.0</ele>
        <time>2019-12-21T13:25:23.405Z</time>
      </trkpt>
      <trkpt lat="41.28077333" lon="1.89940333">
        <ele>427.0</ele>
        <time>2019-12-21T13:25:24.402Z</time>
      </trkpt>
      <trkpt lat="41.28075" lon="1.89944667">
        <ele>428.0</ele>
        <time>2019-12-21T13:25:25.425Z</time>
      </trkpt>
      <trkpt lat="41.28074167" lon="1.89947">
        <ele>428.0</ele>
        <time>2019-12-21T13:25:26.441Z</time>
      </trkpt>
      <trkpt lat="41.28072667" lon="1.899515">
        <ele>428.0</ele>
        <time>2019-12-21T13:25:27.443Z</time>
      </trkpt>
      <trkpt lat="41.28072667" lon="1.899515">
        <ele>428.0</ele>
        <time>2019-12-21T13:25:28.440Z</time>
      </trkpt>
      <trkpt lat="41.28072667" lon="1.899515">
        <ele>428.0</ele>
        <time>2019-12-21T13:25:29.423Z</time>
      </trkpt>
      <trkpt lat="41.280705" lon="1.89956167">
        <ele>428.0</ele>
        <time>2019-12-21T13:25:30.420Z</time>
      </trkpt>
      <trkpt lat="41.28069667" lon="1.89958667">
        <ele>428.0</ele>
        <time>2019-12-21T13:25:31.440Z</time>
      </trkpt>
      <trkpt lat="41.28069667" lon="1.89958667">
        <ele>428.0</ele>
        <time>2019-12-21T13:25:32.443Z</time>
      </trkpt>
      <trkpt lat="41.28067833" lon="1.89963667">
        <ele>428.0</ele>
        <time>2019-12-21T13:25:33.441Z</time>
      </trkpt>
      <trkpt lat="41.28067833" lon="1.89963667">
        <ele>428.0</ele>
        <time>2019-12-21T13:25:34.426Z</time>
      </trkpt>
      <trkpt lat="41.28066333" lon="1.89968833">
        <ele>428.0</ele>
        <time>2019-12-21T13:25:35.417Z</time>
      </trkpt>
      <trkpt lat="41.28066333" lon="1.89968833">
        <ele>428.0</ele>
        <time>2019-12-21T13:25:36.422Z</time>
      </trkpt>
      <trkpt lat="41.28065" lon="1.89974167">
        <ele>428.0</ele>
        <time>2019-12-21T13:25:37.417Z</time>
      </trkpt>
      <trkpt lat="41.28065" lon="1.89974167">
        <ele>428.0</ele>
        <time>2019-12-21T13:25:38.422Z</time>
      </trkpt>
      <trkpt lat="41.28064667" lon="1.89979167">
        <ele>429.0</ele>
        <time>2019-12-21T13:25:39.440Z</time>
      </trkpt>
      <trkpt lat="41.28064667" lon="1.89979167">
        <ele>429.0</ele>
        <time>2019-12-21T13:25:40.426Z</time>
      </trkpt>
      <trkpt lat="41.28064667" lon="1.89984">
        <ele>430.0</ele>
        <time>2019-12-21T13:25:41.420Z</time>
      </trkpt>
      <trkpt lat="41.280645" lon="1.899865">
        <ele>430.0</ele>
        <time>2019-12-21T13:25:42.440Z</time>
      </trkpt>
      <trkpt lat="41.280645" lon="1.899865">
        <ele>430.0</ele>
        <time>2019-12-21T13:25:43.486Z</time>
      </trkpt>
      <trkpt lat="41.28064333" lon="1.899915">
        <ele>430.0</ele>
        <time>2019-12-21T13:25:44.441Z</time>
      </trkpt>
      <trkpt lat="41.28064333" lon="1.899915">
        <ele>430.0</ele>
        <time>2019-12-21T13:25:45.426Z</time>
      </trkpt>
      <trkpt lat="41.28064167" lon="1.89996667">
        <ele>431.0</ele>
        <time>2019-12-21T13:25:46.426Z</time>
      </trkpt>
      <trkpt lat="41.28064167" lon="1.89996667">
        <ele>431.0</ele>
        <time>2019-12-21T13:25:47.424Z</time>
      </trkpt>
      <trkpt lat="41.28063833" lon="1.90001167">
        <ele>432.0</ele>
        <time>2019-12-21T13:25:48.420Z</time>
      </trkpt>
      <trkpt lat="41.28063833" lon="1.90001167">
        <ele>432.0</ele>
        <time>2019-12-21T13:25:49.447Z</time>
      </trkpt>
      <trkpt lat="41.28063833" lon="1.90006667">
        <ele>432.0</ele>
        <time>2019-12-21T13:25:50.443Z</time>
      </trkpt>
      <trkpt lat="41.28063833" lon="1.90006667">
        <ele>432.0</ele>
        <time>2019-12-21T13:25:51.446Z</time>
      </trkpt>
      <trkpt lat="41.28064" lon="1.90010833">
        <ele>433.0</ele>
        <time>2019-12-21T13:25:52.441Z</time>
      </trkpt>
      <trkpt lat="41.28064" lon="1.90010833">
        <ele>433.0</ele>
        <time>2019-12-21T13:25:53.424Z</time>
      </trkpt>
      <trkpt lat="41.28063833" lon="1.90015667">
        <ele>434.0</ele>
        <time>2019-12-21T13:25:54.426Z</time>
      </trkpt>
      <trkpt lat="41.28063667" lon="1.90018">
        <ele>434.0</ele>
        <time>2019-12-21T13:25:55.401Z</time>
      </trkpt>
      <trkpt lat="41.28063667" lon="1.90018">
        <ele>434.0</ele>
        <time>2019-12-21T13:25:56.426Z</time>
      </trkpt>
      <trkpt lat="41.28063667" lon="1.900215">
        <ele>435.0</ele>
        <time>2019-12-21T13:25:57.442Z</time>
      </trkpt>
      <trkpt lat="41.28063667" lon="1.900215">
        <ele>435.0</ele>
        <time>2019-12-21T13:25:58.443Z</time>
      </trkpt>
      <trkpt lat="41.28063167" lon="1.90025">
        <ele>436.0</ele>
        <time>2019-12-21T13:25:59.448Z</time>
      </trkpt>
      <trkpt lat="41.28062333" lon="1.900275">
        <ele>436.0</ele>
        <time>2019-12-21T13:26:00.421Z</time>
      </trkpt>
      <trkpt lat="41.28062333" lon="1.900275">
        <ele>436.0</ele>
        <time>2019-12-21T13:26:01.446Z</time>
      </trkpt>
      <trkpt lat="41.280625" lon="1.90033">
        <ele>436.0</ele>
        <time>2019-12-21T13:26:02.440Z</time>
      </trkpt>
      <trkpt lat="41.280625" lon="1.90033">
        <ele>436.0</ele>
        <time>2019-12-21T13:26:03.445Z</time>
      </trkpt>
      <trkpt lat="41.28063833" lon="1.90038167">
        <ele>437.0</ele>
        <time>2019-12-21T13:26:04.445Z</time>
      </trkpt>
      <trkpt lat="41.28063833" lon="1.90038167">
        <ele>437.0</ele>
        <time>2019-12-21T13:26:05.424Z</time>
      </trkpt>
      <trkpt lat="41.28063833" lon="1.90042333">
        <ele>437.0</ele>
        <time>2019-12-21T13:26:06.420Z</time>
      </trkpt>
      <trkpt lat="41.28063833" lon="1.90042333">
        <ele>437.0</ele>
        <time>2019-12-21T13:26:07.445Z</time>
      </trkpt>
      <trkpt lat="41.280635" lon="1.90045667">
        <ele>438.0</ele>
        <time>2019-12-21T13:26:08.441Z</time>
      </trkpt>
      <trkpt lat="41.280635" lon="1.90045667">
        <ele>438.0</ele>
        <time>2019-12-21T13:26:09.445Z</time>
      </trkpt>
      <trkpt lat="41.28063167" lon="1.90048667">
        <ele>438.0</ele>
        <time>2019-12-21T13:26:10.401Z</time>
      </trkpt>
      <trkpt lat="41.28063333" lon="1.90050667">
        <ele>439.0</ele>
        <time>2019-12-21T13:26:11.424Z</time>
      </trkpt>
      <trkpt lat="41.28063333" lon="1.90050667">
        <ele>439.0</ele>
        <time>2019-12-21T13:26:12.445Z</time>
      </trkpt>
      <trkpt lat="41.28063833" lon="1.90054667">
        <ele>439.0</ele>
        <time>2019-12-21T13:26:13.401Z</time>
      </trkpt>
      <trkpt lat="41.28063833" lon="1.90054667">
        <ele>439.0</ele>
        <time>2019-12-21T13:26:14.445Z</time>
      </trkpt>
      <trkpt lat="41.28064667" lon="1.90059">
        <ele>440.0</ele>
        <time>2019-12-21T13:26:15.443Z</time>
      </trkpt>
      <trkpt lat="41.28064667" lon="1.90059">
        <ele>440.0</ele>
        <time>2019-12-21T13:26:16.426Z</time>
      </trkpt>
      <trkpt lat="41.28066" lon="1.90064833">
        <ele>441.0</ele>
        <time>2019-12-21T13:26:17.423Z</time>
      </trkpt>
      <trkpt lat="41.28066" lon="1.90064833">
        <ele>441.0</ele>
        <time>2019-12-21T13:26:18.445Z</time>
      </trkpt>
      <trkpt lat="41.28066833" lon="1.9007">
        <ele>441.0</ele>
        <time>2019-12-21T13:26:19.447Z</time>
      </trkpt>
      <trkpt lat="41.28067333" lon="1.90072167">
        <ele>441.0</ele>
        <time>2019-12-21T13:26:20.443Z</time>
      </trkpt>
      <trkpt lat="41.28067333" lon="1.90072167">
        <ele>441.0</ele>
        <time>2019-12-21T13:26:21.446Z</time>
      </trkpt>
      <trkpt lat="41.28068667" lon="1.90076167">
        <ele>442.0</ele>
        <time>2019-12-21T13:26:22.453Z</time>
      </trkpt>
      <trkpt lat="41.28068667" lon="1.90076167">
        <ele>442.0</ele>
        <time>2019-12-21T13:26:23.409Z</time>
      </trkpt>
      <trkpt lat="41.28069167" lon="1.90079333">
        <ele>442.0</ele>
        <time>2019-12-21T13:26:24.411Z</time>
      </trkpt>
      <trkpt lat="41.28069167" lon="1.90079333">
        <ele>442.0</ele>
        <time>2019-12-21T13:26:25.413Z</time>
      </trkpt>
      <trkpt lat="41.280695" lon="1.900825">
        <ele>443.0</ele>
        <time>2019-12-21T13:26:26.415Z</time>
      </trkpt>
      <trkpt lat="41.28069667" lon="1.900845">
        <ele>443.0</ele>
        <time>2019-12-21T13:26:27.421Z</time>
      </trkpt>
      <trkpt lat="41.28069667" lon="1.900845">
        <ele>443.0</ele>
        <time>2019-12-21T13:26:28.446Z</time>
      </trkpt>
      <trkpt lat="41.28070333" lon="1.90089">
        <ele>443.0</ele>
        <time>2019-12-21T13:26:29.449Z</time>
      </trkpt>
      <trkpt lat="41.280705" lon="1.90091">
        <ele>444.0</ele>
        <time>2019-12-21T13:26:30.441Z</time>
      </trkpt>
      <trkpt lat="41.280705" lon="1.90091">
        <ele>444.0</ele>
        <time>2019-12-21T13:26:31.444Z</time>
      </trkpt>
      <trkpt lat="41.28069833" lon="1.90096667">
        <ele>443.0</ele>
        <time>2019-12-21T13:26:32.418Z</time>
      </trkpt>
      <trkpt lat="41.28070333" lon="1.900995">
        <ele>443.0</ele>
        <time>2019-12-21T13:26:33.421Z</time>
      </trkpt>
      <trkpt lat="41.28070333" lon="1.900995">
        <ele>443.0</ele>
        <time>2019-12-21T13:26:34.446Z</time>
      </trkpt>
      <trkpt lat="41.28070333" lon="1.901045">
        <ele>443.0</ele>
        <time>2019-12-21T13:26:35.420Z</time>
      </trkpt>
      <trkpt lat="41.28070167" lon="1.90106833">
        <ele>443.0</ele>
        <time>2019-12-21T13:26:36.422Z</time>
      </trkpt>
      <trkpt lat="41.28070167" lon="1.90109167">
        <ele>444.0</ele>
        <time>2019-12-21T13:26:37.441Z</time>
      </trkpt>
      <trkpt lat="41.28070167" lon="1.90109167">
        <ele>444.0</ele>
        <time>2019-12-21T13:26:38.446Z</time>
      </trkpt>
      <trkpt lat="41.28070667" lon="1.90114">
        <ele>444.0</ele>
        <time>2019-12-21T13:26:39.441Z</time>
      </trkpt>
      <trkpt lat="41.28070667" lon="1.90114">
        <ele>444.0</ele>
        <time>2019-12-21T13:26:40.426Z</time>
      </trkpt>
      <trkpt lat="41.280715" lon="1.90119">
        <ele>444.0</ele>
        <time>2019-12-21T13:26:41.401Z</time>
      </trkpt>
      <trkpt lat="41.280715" lon="1.90119">
        <ele>444.0</ele>
        <time>2019-12-21T13:26:42.446Z</time>
      </trkpt>
      <trkpt lat="41.280725" lon="1.901245">
        <ele>445.0</ele>
        <time>2019-12-21T13:26:43.441Z</time>
      </trkpt>
      <trkpt lat="41.280725" lon="1.901245">
        <ele>445.0</ele>
        <time>2019-12-21T13:26:44.426Z</time>
      </trkpt>
      <trkpt lat="41.280735" lon="1.901305">
        <ele>445.0</ele>
        <time>2019-12-21T13:26:45.420Z</time>
      </trkpt>
      <trkpt lat="41.280735" lon="1.901305">
        <ele>445.0</ele>
        <time>2019-12-21T13:26:46.439Z</time>
      </trkpt>
      <trkpt lat="41.28074333" lon="1.90136333">
        <ele>445.0</ele>
        <time>2019-12-21T13:26:47.419Z</time>
      </trkpt>
      <trkpt lat="41.28075" lon="1.901395">
        <ele>445.0</ele>
        <time>2019-12-21T13:26:48.400Z</time>
      </trkpt>
      <trkpt lat="41.28075" lon="1.901395">
        <ele>445.0</ele>
        <time>2019-12-21T13:26:49.422Z</time>
      </trkpt>
      <trkpt lat="41.28076333" lon="1.90145667">
        <ele>446.0</ele>
        <time>2019-12-21T13:26:50.412Z</time>
      </trkpt>
      <trkpt lat="41.28076333" lon="1.90145667">
        <ele>446.0</ele>
        <time>2019-12-21T13:26:51.404Z</time>
      </trkpt>
      <trkpt lat="41.28077667" lon="1.90152167">
        <ele>446.0</ele>
        <time>2019-12-21T13:26:52.405Z</time>
      </trkpt>
      <trkpt lat="41.28077667" lon="1.90152167">
        <ele>446.0</ele>
        <time>2019-12-21T13:26:53.403Z</time>
      </trkpt>
      <trkpt lat="41.28079667" lon="1.901585">
        <ele>446.0</ele>
        <time>2019-12-21T13:26:54.427Z</time>
      </trkpt>
      <trkpt lat="41.28079667" lon="1.901585">
        <ele>446.0</ele>
        <time>2019-12-21T13:26:55.447Z</time>
      </trkpt>
      <trkpt lat="41.28081667" lon="1.90165">
        <ele>446.0</ele>
        <time>2019-12-21T13:26:56.419Z</time>
      </trkpt>
      <trkpt lat="41.28082333" lon="1.90168167">
        <ele>446.0</ele>
        <time>2019-12-21T13:26:57.441Z</time>
      </trkpt>
      <trkpt lat="41.28082333" lon="1.90168167">
        <ele>446.0</ele>
        <time>2019-12-21T13:26:58.446Z</time>
      </trkpt>
      <trkpt lat="41.280835" lon="1.90174333">
        <ele>447.0</ele>
        <time>2019-12-21T13:26:59.401Z</time>
      </trkpt>
      <trkpt lat="41.280845" lon="1.901775">
        <ele>447.0</ele>
        <time>2019-12-21T13:27:00.441Z</time>
      </trkpt>
      <trkpt lat="41.280845" lon="1.901775">
        <ele>447.0</ele>
        <time>2019-12-21T13:27:01.446Z</time>
      </trkpt>
      <trkpt lat="41.280855" lon="1.90183833">
        <ele>447.0</ele>
        <time>2019-12-21T13:27:02.441Z</time>
      </trkpt>
      <trkpt lat="41.280855" lon="1.90183833">
        <ele>447.0</ele>
        <time>2019-12-21T13:27:03.405Z</time>
      </trkpt>
      <trkpt lat="41.280865" lon="1.90189833">
        <ele>448.0</ele>
        <time>2019-12-21T13:27:04.402Z</time>
      </trkpt>
      <trkpt lat="41.28087333" lon="1.90192833">
        <ele>448.0</ele>
        <time>2019-12-21T13:27:05.398Z</time>
      </trkpt>
      <trkpt lat="41.28088167" lon="1.90195833">
        <ele>448.0</ele>
        <time>2019-12-21T13:27:06.421Z</time>
      </trkpt>
      <trkpt lat="41.28088167" lon="1.90195833">
        <ele>448.0</ele>
        <time>2019-12-21T13:27:07.427Z</time>
      </trkpt>
      <trkpt lat="41.28089667" lon="1.902015">
        <ele>448.0</ele>
        <time>2019-12-21T13:27:08.418Z</time>
      </trkpt>
      <trkpt lat="41.28089667" lon="1.902015">
        <ele>448.0</ele>
        <time>2019-12-21T13:27:09.422Z</time>
      </trkpt>
      <trkpt lat="41.28091833" lon="1.90207167">
        <ele>449.0</ele>
        <time>2019-12-21T13:27:10.444Z</time>
      </trkpt>
      <trkpt lat="41.28091833" lon="1.90207167">
        <ele>449.0</ele>
        <time>2019-12-21T13:27:11.424Z</time>
      </trkpt>
      <trkpt lat="41.28093333" lon="1.90213167">
        <ele>449.0</ele>
        <time>2019-12-21T13:27:12.421Z</time>
      </trkpt>
      <trkpt lat="41.28093333" lon="1.90213167">
        <ele>449.0</ele>
        <time>2019-12-21T13:27:13.447Z</time>
      </trkpt>
      <trkpt lat="41.28095167" lon="1.902185">
        <ele>450.0</ele>
        <time>2019-12-21T13:27:14.423Z</time>
      </trkpt>
      <trkpt lat="41.28095167" lon="1.902185">
        <ele>450.0</ele>
        <time>2019-12-21T13:27:15.427Z</time>
      </trkpt>
      <trkpt lat="41.280975" lon="1.90223667">
        <ele>450.0</ele>
        <time>2019-12-21T13:27:16.423Z</time>
      </trkpt>
      <trkpt lat="41.280975" lon="1.90223667">
        <ele>450.0</ele>
        <time>2019-12-21T13:27:17.449Z</time>
      </trkpt>
      <trkpt lat="41.28099167" lon="1.90229">
        <ele>450.0</ele>
        <time>2019-12-21T13:27:18.442Z</time>
      </trkpt>
      <trkpt lat="41.28099167" lon="1.90229">
        <ele>450.0</ele>
        <time>2019-12-21T13:27:19.447Z</time>
      </trkpt>
      <trkpt lat="41.28101" lon="1.902345">
        <ele>450.0</ele>
        <time>2019-12-21T13:27:20.420Z</time>
      </trkpt>
      <trkpt lat="41.28102" lon="1.90237167">
        <ele>450.0</ele>
        <time>2019-12-21T13:27:21.441Z</time>
      </trkpt>
      <trkpt lat="41.28102" lon="1.90237167">
        <ele>450.0</ele>
        <time>2019-12-21T13:27:22.473Z</time>
      </trkpt>
      <trkpt lat="41.28103667" lon="1.902425">
        <ele>451.0</ele>
        <time>2019-12-21T13:27:23.414Z</time>
      </trkpt>
      <trkpt lat="41.28104333" lon="1.90245333">
        <ele>451.0</ele>
        <time>2019-12-21T13:27:24.414Z</time>
      </trkpt>
      <trkpt lat="41.28104333" lon="1.90245333">
        <ele>451.0</ele>
        <time>2019-12-21T13:27:25.415Z</time>
      </trkpt>
      <trkpt lat="41.28105833" lon="1.902505">
        <ele>452.0</ele>
        <time>2019-12-21T13:27:26.414Z</time>
      </trkpt>
      <trkpt lat="41.28105833" lon="1.902505">
        <ele>452.0</ele>
        <time>2019-12-21T13:27:27.403Z</time>
      </trkpt>
      <trkpt lat="41.28107833" lon="1.902555">
        <ele>452.0</ele>
        <time>2019-12-21T13:27:28.441Z</time>
      </trkpt>
      <trkpt lat="41.28107833" lon="1.902555">
        <ele>452.0</ele>
        <time>2019-12-21T13:27:29.424Z</time>
      </trkpt>
      <trkpt lat="41.281095" lon="1.90260333">
        <ele>452.0</ele>
        <time>2019-12-21T13:27:30.422Z</time>
      </trkpt>
      <trkpt lat="41.281095" lon="1.90260333">
        <ele>452.0</ele>
        <time>2019-12-21T13:27:31.422Z</time>
      </trkpt>
      <trkpt lat="41.28111167" lon="1.90265667">
        <ele>452.0</ele>
        <time>2019-12-21T13:27:32.441Z</time>
      </trkpt>
      <trkpt lat="41.28111167" lon="1.90265667">
        <ele>452.0</ele>
        <time>2019-12-21T13:27:33.446Z</time>
      </trkpt>
      <trkpt lat="41.28113333" lon="1.90271">
        <ele>453.0</ele>
        <time>2019-12-21T13:27:34.442Z</time>
      </trkpt>
      <trkpt lat="41.28113333" lon="1.90271">
        <ele>453.0</ele>
        <time>2019-12-21T13:27:35.448Z</time>
      </trkpt>
      <trkpt lat="41.28114833" lon="1.90276333">
        <ele>453.0</ele>
        <time>2019-12-21T13:27:36.420Z</time>
      </trkpt>
      <trkpt lat="41.28114833" lon="1.90276333">
        <ele>453.0</ele>
        <time>2019-12-21T13:27:37.423Z</time>
      </trkpt>
      <trkpt lat="41.28116667" lon="1.902815">
        <ele>454.0</ele>
        <time>2019-12-21T13:27:38.417Z</time>
      </trkpt>
      <trkpt lat="41.28116667" lon="1.902815">
        <ele>454.0</ele>
        <time>2019-12-21T13:27:39.421Z</time>
      </trkpt>
      <trkpt lat="41.28118167" lon="1.90286333">
        <ele>454.0</ele>
        <time>2019-12-21T13:27:40.444Z</time>
      </trkpt>
      <trkpt lat="41.28118167" lon="1.90286333">
        <ele>454.0</ele>
        <time>2019-12-21T13:27:41.417Z</time>
      </trkpt>
      <trkpt lat="41.28118833" lon="1.90291167">
        <ele>454.0</ele>
        <time>2019-12-21T13:27:42.397Z</time>
      </trkpt>
      <trkpt lat="41.28118833" lon="1.90291167">
        <ele>454.0</ele>
        <time>2019-12-21T13:27:43.420Z</time>
      </trkpt>
      <trkpt lat="41.28120167" lon="1.90297333">
        <ele>455.0</ele>
        <time>2019-12-21T13:27:44.441Z</time>
      </trkpt>
      <trkpt lat="41.28120167" lon="1.90297333">
        <ele>455.0</ele>
        <time>2019-12-21T13:27:45.427Z</time>
      </trkpt>
      <trkpt lat="41.28122167" lon="1.903025">
        <ele>455.0</ele>
        <time>2019-12-21T13:27:46.442Z</time>
      </trkpt>
      <trkpt lat="41.28122167" lon="1.903025">
        <ele>455.0</ele>
        <time>2019-12-21T13:27:47.430Z</time>
      </trkpt>
      <trkpt lat="41.28123333" lon="1.90307">
        <ele>456.0</ele>
        <time>2019-12-21T13:27:48.420Z</time>
      </trkpt>
      <trkpt lat="41.28123333" lon="1.90307">
        <ele>456.0</ele>
        <time>2019-12-21T13:27:49.406Z</time>
      </trkpt>
      <trkpt lat="41.28124167" lon="1.90311833">
        <ele>456.0</ele>
        <time>2019-12-21T13:27:50.410Z</time>
      </trkpt>
      <trkpt lat="41.28124167" lon="1.90311833">
        <ele>456.0</ele>
        <time>2019-12-21T13:27:51.413Z</time>
      </trkpt>
      <trkpt lat="41.28125333" lon="1.90315833">
        <ele>457.0</ele>
        <time>2019-12-21T13:27:52.417Z</time>
      </trkpt>
      <trkpt lat="41.28125833" lon="1.90317667">
        <ele>457.0</ele>
        <time>2019-12-21T13:27:53.421Z</time>
      </trkpt>
      <trkpt lat="41.28125833" lon="1.90317667">
        <ele>457.0</ele>
        <time>2019-12-21T13:27:54.446Z</time>
      </trkpt>
      <trkpt lat="41.28127167" lon="1.903215">
        <ele>457.0</ele>
        <time>2019-12-21T13:27:55.420Z</time>
      </trkpt>
      <trkpt lat="41.28127333" lon="1.90323667">
        <ele>457.0</ele>
        <time>2019-12-21T13:27:56.441Z</time>
      </trkpt>
      <trkpt lat="41.28127333" lon="1.90323667">
        <ele>457.0</ele>
        <time>2019-12-21T13:27:57.427Z</time>
      </trkpt>
      <trkpt lat="41.28127667" lon="1.90328667">
        <ele>458.0</ele>
        <time>2019-12-21T13:27:58.420Z</time>
      </trkpt>
      <trkpt lat="41.28127667" lon="1.90328667">
        <ele>458.0</ele>
        <time>2019-12-21T13:27:59.423Z</time>
      </trkpt>
      <trkpt lat="41.28129" lon="1.90334167">
        <ele>458.0</ele>
        <time>2019-12-21T13:28:00.421Z</time>
      </trkpt>
      <trkpt lat="41.28129" lon="1.90334167">
        <ele>458.0</ele>
        <time>2019-12-21T13:28:01.423Z</time>
      </trkpt>
      <trkpt lat="41.281295" lon="1.90339833">
        <ele>459.0</ele>
        <time>2019-12-21T13:28:02.417Z</time>
      </trkpt>
      <trkpt lat="41.281295" lon="1.90339833">
        <ele>459.0</ele>
        <time>2019-12-21T13:28:03.407Z</time>
      </trkpt>
      <trkpt lat="41.28129333" lon="1.90346167">
        <ele>459.0</ele>
        <time>2019-12-21T13:28:04.442Z</time>
      </trkpt>
      <trkpt lat="41.28129333" lon="1.90346167">
        <ele>459.0</ele>
        <time>2019-12-21T13:28:05.448Z</time>
      </trkpt>
      <trkpt lat="41.28129833" lon="1.90352833">
        <ele>459.0</ele>
        <time>2019-12-21T13:28:06.441Z</time>
      </trkpt>
      <trkpt lat="41.28129833" lon="1.90352833">
        <ele>459.0</ele>
        <time>2019-12-21T13:28:07.425Z</time>
      </trkpt>
      <trkpt lat="41.2813" lon="1.90359">
        <ele>460.0</ele>
        <time>2019-12-21T13:28:08.442Z</time>
      </trkpt>
      <trkpt lat="41.2813" lon="1.90359">
        <ele>460.0</ele>
        <time>2019-12-21T13:28:09.447Z</time>
      </trkpt>
      <trkpt lat="41.28130167" lon="1.90365">
        <ele>460.0</ele>
        <time>2019-12-21T13:28:10.420Z</time>
      </trkpt>
      <trkpt lat="41.28130167" lon="1.90365">
        <ele>460.0</ele>
        <time>2019-12-21T13:28:11.399Z</time>
      </trkpt>
      <trkpt lat="41.28130333" lon="1.90371167">
        <ele>460.0</ele>
        <time>2019-12-21T13:28:12.442Z</time>
      </trkpt>
      <trkpt lat="41.28130333" lon="1.90371167">
        <ele>460.0</ele>
        <time>2019-12-21T13:28:13.447Z</time>
      </trkpt>
      <trkpt lat="41.28130667" lon="1.90377">
        <ele>461.0</ele>
        <time>2019-12-21T13:28:14.442Z</time>
      </trkpt>
      <trkpt lat="41.28130667" lon="1.90377">
        <ele>461.0</ele>
        <time>2019-12-21T13:28:15.447Z</time>
      </trkpt>
      <trkpt lat="41.28130833" lon="1.90382833">
        <ele>461.0</ele>
        <time>2019-12-21T13:28:16.419Z</time>
      </trkpt>
      <trkpt lat="41.28130833" lon="1.90382833">
        <ele>461.0</ele>
        <time>2019-12-21T13:28:17.430Z</time>
      </trkpt>
      <trkpt lat="41.28131167" lon="1.903885">
        <ele>461.0</ele>
        <time>2019-12-21T13:28:18.442Z</time>
      </trkpt>
      <trkpt lat="41.28131167" lon="1.903885">
        <ele>461.0</ele>
        <time>2019-12-21T13:28:19.424Z</time>
      </trkpt>
      <trkpt lat="41.28131333" lon="1.90393833">
        <ele>461.0</ele>
        <time>2019-12-21T13:28:20.420Z</time>
      </trkpt>
      <trkpt lat="41.28131333" lon="1.90393833">
        <ele>461.0</ele>
        <time>2019-12-21T13:28:21.423Z</time>
      </trkpt>
      <trkpt lat="41.28131667" lon="1.90399167">
        <ele>461.0</ele>
        <time>2019-12-21T13:28:22.417Z</time>
      </trkpt>
      <trkpt lat="41.28131667" lon="1.90399167">
        <ele>461.0</ele>
        <time>2019-12-21T13:28:23.450Z</time>
      </trkpt>
      <trkpt lat="41.28131667" lon="1.904045">
        <ele>461.0</ele>
        <time>2019-12-21T13:28:24.443Z</time>
      </trkpt>
      <trkpt lat="41.28131667" lon="1.904045">
        <ele>461.0</ele>
        <time>2019-12-21T13:28:25.448Z</time>
      </trkpt>
      <trkpt lat="41.281315" lon="1.90409833">
        <ele>462.0</ele>
        <time>2019-12-21T13:28:26.420Z</time>
      </trkpt>
      <trkpt lat="41.281315" lon="1.90409833">
        <ele>462.0</ele>
        <time>2019-12-21T13:28:27.424Z</time>
      </trkpt>
      <trkpt lat="41.28130833" lon="1.904145">
        <ele>462.0</ele>
        <time>2019-12-21T13:28:28.414Z</time>
      </trkpt>
      <trkpt lat="41.28130833" lon="1.90416833">
        <ele>462.0</ele>
        <time>2019-12-21T13:28:29.417Z</time>
      </trkpt>
      <trkpt lat="41.28130833" lon="1.90416833">
        <ele>462.0</ele>
        <time>2019-12-21T13:28:30.407Z</time>
      </trkpt>
      <trkpt lat="41.28130833" lon="1.90421667">
        <ele>462.0</ele>
        <time>2019-12-21T13:28:31.411Z</time>
      </trkpt>
      <trkpt lat="41.28131167" lon="1.90424333">
        <ele>463.0</ele>
        <time>2019-12-21T13:28:32.412Z</time>
      </trkpt>
      <trkpt lat="41.28131333" lon="1.90427333">
        <ele>463.0</ele>
        <time>2019-12-21T13:28:33.415Z</time>
      </trkpt>
      <trkpt lat="41.28131333" lon="1.90427333">
        <ele>463.0</ele>
        <time>2019-12-21T13:28:34.405Z</time>
      </trkpt>
      <trkpt lat="41.28131167" lon="1.90432833">
        <ele>463.0</ele>
        <time>2019-12-21T13:28:35.407Z</time>
      </trkpt>
      <trkpt lat="41.28131" lon="1.90435667">
        <ele>464.0</ele>
        <time>2019-12-21T13:28:36.424Z</time>
      </trkpt>
      <trkpt lat="41.28131" lon="1.90435667">
        <ele>464.0</ele>
        <time>2019-12-21T13:28:37.427Z</time>
      </trkpt>
      <trkpt lat="41.28130833" lon="1.90441167">
        <ele>464.0</ele>
        <time>2019-12-21T13:28:38.410Z</time>
      </trkpt>
      <trkpt lat="41.28130833" lon="1.90441167">
        <ele>464.0</ele>
        <time>2019-12-21T13:28:39.413Z</time>
      </trkpt>
      <trkpt lat="41.281305" lon="1.90447333">
        <ele>464.0</ele>
        <time>2019-12-21T13:28:40.446Z</time>
      </trkpt>
      <trkpt lat="41.28130333" lon="1.90450167">
        <ele>464.0</ele>
        <time>2019-12-21T13:28:41.408Z</time>
      </trkpt>
      <trkpt lat="41.28129167" lon="1.90453333">
        <ele>464.0</ele>
        <time>2019-12-21T13:28:42.411Z</time>
      </trkpt>
      <trkpt lat="41.28129167" lon="1.90453333">
        <ele>464.0</ele>
        <time>2019-12-21T13:28:43.413Z</time>
      </trkpt>
      <trkpt lat="41.28127667" lon="1.90459833">
        <ele>465.0</ele>
        <time>2019-12-21T13:28:44.412Z</time>
      </trkpt>
      <trkpt lat="41.28127667" lon="1.90459833">
        <ele>465.0</ele>
        <time>2019-12-21T13:28:45.415Z</time>
      </trkpt>
      <trkpt lat="41.28126833" lon="1.90466167">
        <ele>465.0</ele>
        <time>2019-12-21T13:28:46.414Z</time>
      </trkpt>
      <trkpt lat="41.28126667" lon="1.90469333">
        <ele>465.0</ele>
        <time>2019-12-21T13:28:47.416Z</time>
      </trkpt>
      <trkpt lat="41.28126667" lon="1.904725">
        <ele>465.0</ele>
        <time>2019-12-21T13:28:48.443Z</time>
      </trkpt>
      <trkpt lat="41.28126667" lon="1.904725">
        <ele>465.0</ele>
        <time>2019-12-21T13:28:49.448Z</time>
      </trkpt>
      <trkpt lat="41.28126333" lon="1.90478833">
        <ele>465.0</ele>
        <time>2019-12-21T13:28:50.421Z</time>
      </trkpt>
      <trkpt lat="41.28126333" lon="1.90478833">
        <ele>465.0</ele>
        <time>2019-12-21T13:28:51.423Z</time>
      </trkpt>
      <trkpt lat="41.28125833" lon="1.90485333">
        <ele>465.0</ele>
        <time>2019-12-21T13:28:52.418Z</time>
      </trkpt>
      <trkpt lat="41.28125833" lon="1.90485333">
        <ele>465.0</ele>
        <time>2019-12-21T13:28:53.407Z</time>
      </trkpt>
      <trkpt lat="41.28125667" lon="1.90492333">
        <ele>465.0</ele>
        <time>2019-12-21T13:28:54.442Z</time>
      </trkpt>
      <trkpt lat="41.28125667" lon="1.90492333">
        <ele>465.0</ele>
        <time>2019-12-21T13:28:55.427Z</time>
      </trkpt>
      <trkpt lat="41.28125833" lon="1.90499333">
        <ele>465.0</ele>
        <time>2019-12-21T13:28:56.421Z</time>
      </trkpt>
      <trkpt lat="41.28125833" lon="1.90499333">
        <ele>465.0</ele>
        <time>2019-12-21T13:28:57.447Z</time>
      </trkpt>
      <trkpt lat="41.28126333" lon="1.90506167">
        <ele>466.0</ele>
        <time>2019-12-21T13:28:58.420Z</time>
      </trkpt>
      <trkpt lat="41.28126667" lon="1.90509833">
        <ele>466.0</ele>
        <time>2019-12-21T13:28:59.413Z</time>
      </trkpt>
      <trkpt lat="41.28127" lon="1.905135">
        <ele>466.0</ele>
        <time>2019-12-21T13:29:00.425Z</time>
      </trkpt>
      <trkpt lat="41.28127333" lon="1.90517333">
        <ele>466.0</ele>
        <time>2019-12-21T13:29:01.443Z</time>
      </trkpt>
      <trkpt lat="41.28127333" lon="1.90517333">
        <ele>466.0</ele>
        <time>2019-12-21T13:29:02.449Z</time>
      </trkpt>
      <trkpt lat="41.28128333" lon="1.90524667">
        <ele>466.0</ele>
        <time>2019-12-21T13:29:03.449Z</time>
      </trkpt>
      <trkpt lat="41.28129" lon="1.90528333">
        <ele>466.0</ele>
        <time>2019-12-21T13:29:04.443Z</time>
      </trkpt>
      <trkpt lat="41.28129" lon="1.90528333">
        <ele>466.0</ele>
        <time>2019-12-21T13:29:05.430Z</time>
      </trkpt>
      <trkpt lat="41.28129667" lon="1.905355">
        <ele>466.0</ele>
        <time>2019-12-21T13:29:06.422Z</time>
      </trkpt>
      <trkpt lat="41.28129667" lon="1.905355">
        <ele>466.0</ele>
        <time>2019-12-21T13:29:07.424Z</time>
      </trkpt>
      <trkpt lat="41.28131167" lon="1.90542667">
        <ele>466.0</ele>
        <time>2019-12-21T13:29:08.421Z</time>
      </trkpt>
      <trkpt lat="41.28131167" lon="1.90542667">
        <ele>466.0</ele>
        <time>2019-12-21T13:29:09.448Z</time>
      </trkpt>
      <trkpt lat="41.28133167" lon="1.90549667">
        <ele>467.0</ele>
        <time>2019-12-21T13:29:10.421Z</time>
      </trkpt>
      <trkpt lat="41.28133167" lon="1.90549667">
        <ele>467.0</ele>
        <time>2019-12-21T13:29:11.423Z</time>
      </trkpt>
      <trkpt lat="41.281355" lon="1.90556667">
        <ele>467.0</ele>
        <time>2019-12-21T13:29:12.420Z</time>
      </trkpt>
      <trkpt lat="41.281355" lon="1.90556667">
        <ele>467.0</ele>
        <time>2019-12-21T13:29:13.422Z</time>
      </trkpt>
      <trkpt lat="41.28138167" lon="1.90563333">
        <ele>467.0</ele>
        <time>2019-12-21T13:29:14.443Z</time>
      </trkpt>
      <trkpt lat="41.28138167" lon="1.90563333">
        <ele>467.0</ele>
        <time>2019-12-21T13:29:15.449Z</time>
      </trkpt>
      <trkpt lat="41.28142" lon="1.90569833">
        <ele>467.0</ele>
        <time>2019-12-21T13:29:16.421Z</time>
      </trkpt>
      <trkpt lat="41.28142" lon="1.90569833">
        <ele>467.0</ele>
        <time>2019-12-21T13:29:17.423Z</time>
      </trkpt>
      <trkpt lat="41.28146167" lon="1.90575667">
        <ele>467.0</ele>
        <time>2019-12-21T13:29:18.422Z</time>
      </trkpt>
      <trkpt lat="41.28146167" lon="1.90575667">
        <ele>467.0</ele>
        <time>2019-12-21T13:29:19.424Z</time>
      </trkpt>
      <trkpt lat="41.28150667" lon="1.90580667">
        <ele>468.0</ele>
        <time>2019-12-21T13:29:20.421Z</time>
      </trkpt>
      <trkpt lat="41.28150667" lon="1.90580667">
        <ele>468.0</ele>
        <time>2019-12-21T13:29:21.448Z</time>
      </trkpt>
      <trkpt lat="41.28154667" lon="1.90584">
        <ele>468.0</ele>
        <time>2019-12-21T13:29:22.421Z</time>
      </trkpt>
      <trkpt lat="41.28154667" lon="1.90584">
        <ele>468.0</ele>
        <time>2019-12-21T13:29:23.410Z</time>
      </trkpt>
      <trkpt lat="41.281585" lon="1.90587167">
        <ele>469.0</ele>
        <time>2019-12-21T13:29:24.413Z</time>
      </trkpt>
      <trkpt lat="41.281585" lon="1.90587167">
        <ele>469.0</ele>
        <time>2019-12-21T13:29:25.415Z</time>
      </trkpt>
      <trkpt lat="41.28163167" lon="1.90590333">
        <ele>469.0</ele>
        <time>2019-12-21T13:29:26.416Z</time>
      </trkpt>
      <trkpt lat="41.28163167" lon="1.90590333">
        <ele>469.0</ele>
        <time>2019-12-21T13:29:27.448Z</time>
      </trkpt>
      <trkpt lat="41.28168" lon="1.90593167">
        <ele>470.0</ele>
        <time>2019-12-21T13:29:28.421Z</time>
      </trkpt>
      <trkpt lat="41.28168" lon="1.90593167">
        <ele>470.0</ele>
        <time>2019-12-21T13:29:29.425Z</time>
      </trkpt>
      <trkpt lat="41.28173333" lon="1.905955">
        <ele>471.0</ele>
        <time>2019-12-21T13:29:30.446Z</time>
      </trkpt>
      <trkpt lat="41.28173333" lon="1.905955">
        <ele>471.0</ele>
        <time>2019-12-21T13:29:31.448Z</time>
      </trkpt>
      <trkpt lat="41.28178333" lon="1.90598">
        <ele>471.0</ele>
        <time>2019-12-21T13:29:32.420Z</time>
      </trkpt>
      <trkpt lat="41.28178333" lon="1.90598">
        <ele>471.0</ele>
        <time>2019-12-21T13:29:33.449Z</time>
      </trkpt>
      <trkpt lat="41.281835" lon="1.90600167">
        <ele>472.0</ele>
        <time>2019-12-21T13:29:34.489Z</time>
      </trkpt>
      <trkpt lat="41.281865" lon="1.90601">
        <ele>472.0</ele>
        <time>2019-12-21T13:29:35.450Z</time>
      </trkpt>
      <trkpt lat="41.28189" lon="1.90602">
        <ele>472.0</ele>
        <time>2019-12-21T13:29:36.423Z</time>
      </trkpt>
      <trkpt lat="41.28189" lon="1.90602">
        <ele>472.0</ele>
        <time>2019-12-21T13:29:37.424Z</time>
      </trkpt>
      <trkpt lat="41.281935" lon="1.90604167">
        <ele>472.0</ele>
        <time>2019-12-21T13:29:38.420Z</time>
      </trkpt>
      <trkpt lat="41.281955" lon="1.90605667">
        <ele>472.0</ele>
        <time>2019-12-21T13:29:39.416Z</time>
      </trkpt>
      <trkpt lat="41.281955" lon="1.90605667">
        <ele>472.0</ele>
        <time>2019-12-21T13:29:40.419Z</time>
      </trkpt>
      <trkpt lat="41.28199167" lon="1.90608167">
        <ele>473.0</ele>
        <time>2019-12-21T13:29:41.449Z</time>
      </trkpt>
      <trkpt lat="41.28201333" lon="1.90608833">
        <ele>473.0</ele>
        <time>2019-12-21T13:29:42.397Z</time>
      </trkpt>
      <trkpt lat="41.28201333" lon="1.90608833">
        <ele>473.0</ele>
        <time>2019-12-21T13:29:43.420Z</time>
      </trkpt>
      <trkpt lat="41.282055" lon="1.90610667">
        <ele>473.0</ele>
        <time>2019-12-21T13:29:44.415Z</time>
      </trkpt>
      <trkpt lat="41.282055" lon="1.90610667">
        <ele>473.0</ele>
        <time>2019-12-21T13:29:45.417Z</time>
      </trkpt>
      <trkpt lat="41.2821" lon="1.90612667">
        <ele>473.0</ele>
        <time>2019-12-21T13:29:46.402Z</time>
      </trkpt>
      <trkpt lat="41.2821" lon="1.90612667">
        <ele>473.0</ele>
        <time>2019-12-21T13:29:47.424Z</time>
      </trkpt>
      <trkpt lat="41.28214667" lon="1.90614333">
        <ele>474.0</ele>
        <time>2019-12-21T13:29:48.427Z</time>
      </trkpt>
      <trkpt lat="41.28217" lon="1.90615333">
        <ele>474.0</ele>
        <time>2019-12-21T13:29:49.421Z</time>
      </trkpt>
      <trkpt lat="41.28217" lon="1.90615333">
        <ele>474.0</ele>
        <time>2019-12-21T13:29:50.424Z</time>
      </trkpt>
      <trkpt lat="41.282215" lon="1.90617667">
        <ele>474.0</ele>
        <time>2019-12-21T13:29:51.409Z</time>
      </trkpt>
      <trkpt lat="41.28224" lon="1.90618667">
        <ele>474.0</ele>
        <time>2019-12-21T13:29:52.401Z</time>
      </trkpt>
      <trkpt lat="41.28224" lon="1.90618667">
        <ele>474.0</ele>
        <time>2019-12-21T13:29:53.424Z</time>
      </trkpt>
      <trkpt lat="41.28229" lon="1.90621167">
        <ele>474.0</ele>
        <time>2019-12-21T13:29:54.424Z</time>
      </trkpt>
      <trkpt lat="41.28229" lon="1.90621167">
        <ele>474.0</ele>
        <time>2019-12-21T13:29:55.425Z</time>
      </trkpt>
      <trkpt lat="41.28234333" lon="1.906245">
        <ele>474.0</ele>
        <time>2019-12-21T13:29:56.443Z</time>
      </trkpt>
      <trkpt lat="41.28234333" lon="1.906245">
        <ele>474.0</ele>
        <time>2019-12-21T13:29:57.447Z</time>
      </trkpt>
      <trkpt lat="41.28239333" lon="1.90629167">
        <ele>474.0</ele>
        <time>2019-12-21T13:29:58.420Z</time>
      </trkpt>
      <trkpt lat="41.282415" lon="1.90632167">
        <ele>474.0</ele>
        <time>2019-12-21T13:29:59.450Z</time>
      </trkpt>
      <trkpt lat="41.28243667" lon="1.90635333">
        <ele>474.0</ele>
        <time>2019-12-21T13:30:00.446Z</time>
      </trkpt>
      <trkpt lat="41.28243667" lon="1.90635333">
        <ele>474.0</ele>
        <time>2019-12-21T13:30:01.448Z</time>
      </trkpt>
      <trkpt lat="41.28247667" lon="1.90642667">
        <ele>473.0</ele>
        <time>2019-12-21T13:30:02.420Z</time>
      </trkpt>
      <trkpt lat="41.282495" lon="1.90646833">
        <ele>473.0</ele>
        <time>2019-12-21T13:30:03.401Z</time>
      </trkpt>
      <trkpt lat="41.282495" lon="1.90646833">
        <ele>473.0</ele>
        <time>2019-12-21T13:30:04.428Z</time>
      </trkpt>
      <trkpt lat="41.28253" lon="1.90656167">
        <ele>473.0</ele>
        <time>2019-12-21T13:30:05.421Z</time>
      </trkpt>
      <trkpt lat="41.28253" lon="1.90656167">
        <ele>473.0</ele>
        <time>2019-12-21T13:30:06.424Z</time>
      </trkpt>
      <trkpt lat="41.28255833" lon="1.906665">
        <ele>473.0</ele>
        <time>2019-12-21T13:30:07.421Z</time>
      </trkpt>
      <trkpt lat="41.28255833" lon="1.906665">
        <ele>473.0</ele>
        <time>2019-12-21T13:30:08.423Z</time>
      </trkpt>
      <trkpt lat="41.28258167" lon="1.90677667">
        <ele>473.0</ele>
        <time>2019-12-21T13:30:09.423Z</time>
      </trkpt>
      <trkpt lat="41.28258167" lon="1.90677667">
        <ele>473.0</ele>
        <time>2019-12-21T13:30:10.424Z</time>
      </trkpt>
      <trkpt lat="41.282595" lon="1.90689833">
        <ele>473.0</ele>
        <time>2019-12-21T13:30:11.420Z</time>
      </trkpt>
      <trkpt lat="41.282595" lon="1.90689833">
        <ele>473.0</ele>
        <time>2019-12-21T13:30:12.424Z</time>
      </trkpt>
      <trkpt lat="41.28259333" lon="1.90702667">
        <ele>473.0</ele>
        <time>2019-12-21T13:30:13.420Z</time>
      </trkpt>
      <trkpt lat="41.28259333" lon="1.90702667">
        <ele>473.0</ele>
        <time>2019-12-21T13:30:14.449Z</time>
      </trkpt>
      <trkpt lat="41.28257333" lon="1.90716333">
        <ele>472.0</ele>
        <time>2019-12-21T13:30:15.421Z</time>
      </trkpt>
      <trkpt lat="41.28255667" lon="1.90723167">
        <ele>472.0</ele>
        <time>2019-12-21T13:30:16.420Z</time>
      </trkpt>
      <trkpt lat="41.28255667" lon="1.90723167">
        <ele>472.0</ele>
        <time>2019-12-21T13:30:17.422Z</time>
      </trkpt>
      <trkpt lat="41.28250833" lon="1.90737333">
        <ele>472.0</ele>
        <time>2019-12-21T13:30:18.419Z</time>
      </trkpt>
      <trkpt lat="41.28248167" lon="1.90744833">
        <ele>472.0</ele>
        <time>2019-12-21T13:30:19.421Z</time>
      </trkpt>
      <trkpt lat="41.28248167" lon="1.90744833">
        <ele>472.0</ele>
        <time>2019-12-21T13:30:20.448Z</time>
      </trkpt>
      <trkpt lat="41.28241833" lon="1.90760167">
        <ele>471.0</ele>
        <time>2019-12-21T13:30:21.420Z</time>
      </trkpt>
      <trkpt lat="41.28238667" lon="1.90768">
        <ele>471.0</ele>
        <time>2019-12-21T13:30:22.416Z</time>
      </trkpt>
      <trkpt lat="41.28238667" lon="1.90768">
        <ele>471.0</ele>
        <time>2019-12-21T13:30:23.450Z</time>
      </trkpt>
      <trkpt lat="41.282325" lon="1.90784667">
        <ele>470.0</ele>
        <time>2019-12-21T13:30:24.444Z</time>
      </trkpt>
      <trkpt lat="41.282325" lon="1.90784667">
        <ele>470.0</ele>
        <time>2019-12-21T13:30:25.428Z</time>
      </trkpt>
      <trkpt lat="41.28227167" lon="1.90800333">
        <ele>470.0</ele>
        <time>2019-12-21T13:30:26.405Z</time>
      </trkpt>
      <trkpt lat="41.28227167" lon="1.90800333">
        <ele>470.0</ele>
        <time>2019-12-21T13:30:27.404Z</time>
      </trkpt>
      <trkpt lat="41.28222833" lon="1.90812333">
        <ele>469.0</ele>
        <time>2019-12-21T13:30:28.439Z</time>
      </trkpt>
      <trkpt lat="41.28222833" lon="1.90812333">
        <ele>469.0</ele>
        <time>2019-12-21T13:30:29.415Z</time>
      </trkpt>
      <trkpt lat="41.28218167" lon="1.90819667">
        <ele>469.0</ele>
        <time>2019-12-21T13:30:30.418Z</time>
      </trkpt>
      <trkpt lat="41.28218167" lon="1.90819667">
        <ele>469.0</ele>
        <time>2019-12-21T13:30:31.407Z</time>
      </trkpt>
      <trkpt lat="41.28213833" lon="1.90826167">
        <ele>469.0</ele>
        <time>2019-12-21T13:30:32.412Z</time>
      </trkpt>
      <trkpt lat="41.28213833" lon="1.90826167">
        <ele>469.0</ele>
        <time>2019-12-21T13:30:33.415Z</time>
      </trkpt>
      <trkpt lat="41.28212167" lon="1.90831333">
        <ele>468.0</ele>
        <time>2019-12-21T13:30:34.417Z</time>
      </trkpt>
      <trkpt lat="41.28212167" lon="1.90831333">
        <ele>468.0</ele>
        <time>2019-12-21T13:30:35.421Z</time>
      </trkpt>
      <trkpt lat="41.28212333" lon="1.90831333">
        <ele>468.0</ele>
        <time>2019-12-21T13:30:36.422Z</time>
      </trkpt>
      <trkpt lat="41.28212333" lon="1.90831333">
        <ele>468.0</ele>
        <time>2019-12-21T13:30:37.449Z</time>
      </trkpt>
      <trkpt lat="41.28212333" lon="1.90831333">
        <ele>468.0</ele>
        <time>2019-12-21T13:30:38.403Z</time>
      </trkpt>
      <trkpt lat="41.28211667" lon="1.90838333">
        <ele>467.0</ele>
        <time>2019-12-21T13:30:39.431Z</time>
      </trkpt>
      <trkpt lat="41.28211667" lon="1.90841">
        <ele>467.0</ele>
        <time>2019-12-21T13:30:40.430Z</time>
      </trkpt>
      <trkpt lat="41.28211833" lon="1.90844333">
        <ele>467.0</ele>
        <time>2019-12-21T13:30:41.427Z</time>
      </trkpt>
      <trkpt lat="41.28211833" lon="1.90844333">
        <ele>467.0</ele>
        <time>2019-12-21T13:30:42.431Z</time>
      </trkpt>
      <trkpt lat="41.28210667" lon="1.90852">
        <ele>468.0</ele>
        <time>2019-12-21T13:30:43.403Z</time>
      </trkpt>
      <trkpt lat="41.28209667" lon="1.90857">
        <ele>467.0</ele>
        <time>2019-12-21T13:30:44.401Z</time>
      </trkpt>
      <trkpt lat="41.28209667" lon="1.90857">
        <ele>467.0</ele>
        <time>2019-12-21T13:30:45.404Z</time>
      </trkpt>
      <trkpt lat="41.28208" lon="1.90867833">
        <ele>467.0</ele>
        <time>2019-12-21T13:30:46.425Z</time>
      </trkpt>
      <trkpt lat="41.28208" lon="1.90867833">
        <ele>467.0</ele>
        <time>2019-12-21T13:30:47.412Z</time>
      </trkpt>
      <trkpt lat="41.282065" lon="1.90879167">
        <ele>467.0</ele>
        <time>2019-12-21T13:30:48.436Z</time>
      </trkpt>
      <trkpt lat="41.282065" lon="1.90879167">
        <ele>467.0</ele>
        <time>2019-12-21T13:30:49.430Z</time>
      </trkpt>
      <trkpt lat="41.28203833" lon="1.908915">
        <ele>466.0</ele>
        <time>2019-12-21T13:30:50.404Z</time>
      </trkpt>
      <trkpt lat="41.28203833" lon="1.908915">
        <ele>466.0</ele>
        <time>2019-12-21T13:30:51.406Z</time>
      </trkpt>
      <trkpt lat="41.28201833" lon="1.90906167">
        <ele>466.0</ele>
        <time>2019-12-21T13:30:52.402Z</time>
      </trkpt>
      <trkpt lat="41.28201833" lon="1.90906167">
        <ele>466.0</ele>
        <time>2019-12-21T13:30:53.404Z</time>
      </trkpt>
      <trkpt lat="41.28200667" lon="1.909225">
        <ele>465.0</ele>
        <time>2019-12-21T13:30:54.425Z</time>
      </trkpt>
      <trkpt lat="41.28200667" lon="1.909225">
        <ele>465.0</ele>
        <time>2019-12-21T13:30:55.430Z</time>
      </trkpt>
      <trkpt lat="41.282" lon="1.909385">
        <ele>465.0</ele>
        <time>2019-12-21T13:30:56.425Z</time>
      </trkpt>
      <trkpt lat="41.282" lon="1.909385">
        <ele>465.0</ele>
        <time>2019-12-21T13:30:57.410Z</time>
      </trkpt>
      <trkpt lat="41.28199667" lon="1.90953667">
        <ele>465.0</ele>
        <time>2019-12-21T13:30:58.425Z</time>
      </trkpt>
      <trkpt lat="41.28199667" lon="1.90953667">
        <ele>465.0</ele>
        <time>2019-12-21T13:30:59.432Z</time>
      </trkpt>
      <trkpt lat="41.28200333" lon="1.90968167">
        <ele>464.0</ele>
        <time>2019-12-21T13:31:00.404Z</time>
      </trkpt>
      <trkpt lat="41.28200333" lon="1.90968167">
        <ele>464.0</ele>
        <time>2019-12-21T13:31:01.405Z</time>
      </trkpt>
      <trkpt lat="41.282025" lon="1.90980833">
        <ele>464.0</ele>
        <time>2019-12-21T13:31:02.402Z</time>
      </trkpt>
      <trkpt lat="41.282025" lon="1.90980833">
        <ele>464.0</ele>
        <time>2019-12-21T13:31:03.430Z</time>
      </trkpt>
      <trkpt lat="41.28206333" lon="1.90992167">
        <ele>464.0</ele>
        <time>2019-12-21T13:31:04.449Z</time>
      </trkpt>
      <trkpt lat="41.28206333" lon="1.90992167">
        <ele>464.0</ele>
        <time>2019-12-21T13:31:05.397Z</time>
      </trkpt>
      <trkpt lat="41.28210833" lon="1.910025">
        <ele>464.0</ele>
        <time>2019-12-21T13:31:06.404Z</time>
      </trkpt>
      <trkpt lat="41.28210833" lon="1.910025">
        <ele>464.0</ele>
        <time>2019-12-21T13:31:07.406Z</time>
      </trkpt>
      <trkpt lat="41.28216" lon="1.91011667">
        <ele>463.0</ele>
        <time>2019-12-21T13:31:08.403Z</time>
      </trkpt>
      <trkpt lat="41.28216" lon="1.91011667">
        <ele>463.0</ele>
        <time>2019-12-21T13:31:09.404Z</time>
      </trkpt>
      <trkpt lat="41.28222333" lon="1.91021167">
        <ele>463.0</ele>
        <time>2019-12-21T13:31:10.403Z</time>
      </trkpt>
      <trkpt lat="41.28225667" lon="1.91026333">
        <ele>463.0</ele>
        <time>2019-12-21T13:31:11.401Z</time>
      </trkpt>
      <trkpt lat="41.28229333" lon="1.91032">
        <ele>462.0</ele>
        <time>2019-12-21T13:31:12.405Z</time>
      </trkpt>
      <trkpt lat="41.28233" lon="1.91037833">
        <ele>462.0</ele>
        <time>2019-12-21T13:31:13.426Z</time>
      </trkpt>
      <trkpt lat="41.28233" lon="1.91037833">
        <ele>462.0</ele>
        <time>2019-12-21T13:31:14.430Z</time>
      </trkpt>
      <trkpt lat="41.28238667" lon="1.91051333">
        <ele>461.0</ele>
        <time>2019-12-21T13:31:15.404Z</time>
      </trkpt>
      <trkpt lat="41.28238667" lon="1.91051333">
        <ele>461.0</ele>
        <time>2019-12-21T13:31:16.430Z</time>
      </trkpt>
      <trkpt lat="41.282385" lon="1.91068">
        <ele>460.0</ele>
        <time>2019-12-21T13:31:17.405Z</time>
      </trkpt>
      <trkpt lat="41.282375" lon="1.91077167">
        <ele>459.0</ele>
        <time>2019-12-21T13:31:18.426Z</time>
      </trkpt>
      <trkpt lat="41.282375" lon="1.91077167">
        <ele>459.0</ele>
        <time>2019-12-21T13:31:19.430Z</time>
      </trkpt>
      <trkpt lat="41.28234667" lon="1.91096833">
        <ele>457.0</ele>
        <time>2019-12-21T13:31:20.404Z</time>
      </trkpt>
      <trkpt lat="41.28234667" lon="1.91096833">
        <ele>457.0</ele>
        <time>2019-12-21T13:31:21.406Z</time>
      </trkpt>
      <trkpt lat="41.28231833" lon="1.91116167">
        <ele>456.0</ele>
        <time>2019-12-21T13:31:22.425Z</time>
      </trkpt>
      <trkpt lat="41.28231833" lon="1.91116167">
        <ele>456.0</ele>
        <time>2019-12-21T13:31:23.433Z</time>
      </trkpt>
      <trkpt lat="41.28228333" lon="1.91135667">
        <ele>454.0</ele>
        <time>2019-12-21T13:31:24.404Z</time>
      </trkpt>
      <trkpt lat="41.28228333" lon="1.91135667">
        <ele>454.0</ele>
        <time>2019-12-21T13:31:25.405Z</time>
      </trkpt>
      <trkpt lat="41.28225667" lon="1.91154833">
        <ele>453.0</ele>
        <time>2019-12-21T13:31:26.407Z</time>
      </trkpt>
      <trkpt lat="41.28225667" lon="1.91154833">
        <ele>453.0</ele>
        <time>2019-12-21T13:31:27.407Z</time>
      </trkpt>
      <trkpt lat="41.28225667" lon="1.911735">
        <ele>451.0</ele>
        <time>2019-12-21T13:31:28.402Z</time>
      </trkpt>
      <trkpt lat="41.28225667" lon="1.911735">
        <ele>451.0</ele>
        <time>2019-12-21T13:31:29.405Z</time>
      </trkpt>
      <trkpt lat="41.28229667" lon="1.911915">
        <ele>450.0</ele>
        <time>2019-12-21T13:31:30.402Z</time>
      </trkpt>
      <trkpt lat="41.28229667" lon="1.911915">
        <ele>450.0</ele>
        <time>2019-12-21T13:31:31.405Z</time>
      </trkpt>
      <trkpt lat="41.28233167" lon="1.91209667">
        <ele>449.0</ele>
        <time>2019-12-21T13:31:32.402Z</time>
      </trkpt>
      <trkpt lat="41.28233167" lon="1.91209667">
        <ele>449.0</ele>
        <time>2019-12-21T13:31:33.431Z</time>
      </trkpt>
      <trkpt lat="41.282325" lon="1.912275">
        <ele>448.0</ele>
        <time>2019-12-21T13:31:34.403Z</time>
      </trkpt>
      <trkpt lat="41.282325" lon="1.912275">
        <ele>448.0</ele>
        <time>2019-12-21T13:31:35.405Z</time>
      </trkpt>
      <trkpt lat="41.28229333" lon="1.91245667">
        <ele>446.0</ele>
        <time>2019-12-21T13:31:36.422Z</time>
      </trkpt>
      <trkpt lat="41.28229333" lon="1.91245667">
        <ele>446.0</ele>
        <time>2019-12-21T13:31:37.411Z</time>
      </trkpt>
      <trkpt lat="41.28226167" lon="1.912645">
        <ele>445.0</ele>
        <time>2019-12-21T13:31:38.400Z</time>
      </trkpt>
      <trkpt lat="41.28226167" lon="1.912645">
        <ele>445.0</ele>
        <time>2019-12-21T13:31:39.431Z</time>
      </trkpt>
      <trkpt lat="41.28223667" lon="1.912815">
        <ele>443.0</ele>
        <time>2019-12-21T13:31:40.403Z</time>
      </trkpt>
      <trkpt lat="41.28223667" lon="1.912815">
        <ele>443.0</ele>
        <time>2019-12-21T13:31:41.477Z</time>
      </trkpt>
      <trkpt lat="41.282185" lon="1.91295167">
        <ele>441.0</ele>
        <time>2019-12-21T13:31:42.428Z</time>
      </trkpt>
      <trkpt lat="41.282185" lon="1.91295167">
        <ele>441.0</ele>
        <time>2019-12-21T13:31:43.431Z</time>
      </trkpt>
      <trkpt lat="41.28208167" lon="1.91303833">
        <ele>439.0</ele>
        <time>2019-12-21T13:31:44.426Z</time>
      </trkpt>
      <trkpt lat="41.28208167" lon="1.91303833">
        <ele>439.0</ele>
        <time>2019-12-21T13:31:45.431Z</time>
      </trkpt>
      <trkpt lat="41.28195333" lon="1.91305667">
        <ele>436.0</ele>
        <time>2019-12-21T13:31:46.426Z</time>
      </trkpt>
      <trkpt lat="41.28195333" lon="1.91305667">
        <ele>436.0</ele>
        <time>2019-12-21T13:31:47.433Z</time>
      </trkpt>
      <trkpt lat="41.2818" lon="1.91303667">
        <ele>433.0</ele>
        <time>2019-12-21T13:31:48.406Z</time>
      </trkpt>
      <trkpt lat="41.2818" lon="1.91303667">
        <ele>433.0</ele>
        <time>2019-12-21T13:31:49.407Z</time>
      </trkpt>
      <trkpt lat="41.281635" lon="1.91301">
        <ele>431.0</ele>
        <time>2019-12-21T13:31:50.401Z</time>
      </trkpt>
      <trkpt lat="41.281635" lon="1.91301">
        <ele>431.0</ele>
        <time>2019-12-21T13:31:51.432Z</time>
      </trkpt>
      <trkpt lat="41.28146333" lon="1.91299">
        <ele>429.0</ele>
        <time>2019-12-21T13:31:52.405Z</time>
      </trkpt>
      <trkpt lat="41.28146333" lon="1.91299">
        <ele>429.0</ele>
        <time>2019-12-21T13:31:53.406Z</time>
      </trkpt>
      <trkpt lat="41.28129167" lon="1.912985">
        <ele>426.0</ele>
        <time>2019-12-21T13:31:54.426Z</time>
      </trkpt>
      <trkpt lat="41.28129167" lon="1.912985">
        <ele>426.0</ele>
        <time>2019-12-21T13:31:55.431Z</time>
      </trkpt>
      <trkpt lat="41.28110333" lon="1.91297833">
        <ele>424.0</ele>
        <time>2019-12-21T13:31:56.426Z</time>
      </trkpt>
      <trkpt lat="41.28110333" lon="1.91297833">
        <ele>424.0</ele>
        <time>2019-12-21T13:31:57.431Z</time>
      </trkpt>
      <trkpt lat="41.28091" lon="1.91297667">
        <ele>422.0</ele>
        <time>2019-12-21T13:31:58.405Z</time>
      </trkpt>
      <trkpt lat="41.28091" lon="1.91297667">
        <ele>422.0</ele>
        <time>2019-12-21T13:31:59.406Z</time>
      </trkpt>
      <trkpt lat="41.28074167" lon="1.913">
        <ele>420.0</ele>
        <time>2019-12-21T13:32:00.403Z</time>
      </trkpt>
      <trkpt lat="41.28074167" lon="1.913">
        <ele>420.0</ele>
        <time>2019-12-21T13:32:01.405Z</time>
      </trkpt>
      <trkpt lat="41.280595" lon="1.91307">
        <ele>418.0</ele>
        <time>2019-12-21T13:32:02.403Z</time>
      </trkpt>
      <trkpt lat="41.280595" lon="1.91307">
        <ele>418.0</ele>
        <time>2019-12-21T13:32:03.432Z</time>
      </trkpt>
      <trkpt lat="41.28047667" lon="1.91320167">
        <ele>415.0</ele>
        <time>2019-12-21T13:32:04.441Z</time>
      </trkpt>
      <trkpt lat="41.280435" lon="1.91329167">
        <ele>415.0</ele>
        <time>2019-12-21T13:32:05.432Z</time>
      </trkpt>
      <trkpt lat="41.280435" lon="1.91329167">
        <ele>415.0</ele>
        <time>2019-12-21T13:32:06.431Z</time>
      </trkpt>
      <trkpt lat="41.280375" lon="1.91347167">
        <ele>413.0</ele>
        <time>2019-12-21T13:32:07.405Z</time>
      </trkpt>
      <trkpt lat="41.28034833" lon="1.91355833">
        <ele>412.0</ele>
        <time>2019-12-21T13:32:08.426Z</time>
      </trkpt>
      <trkpt lat="41.28034833" lon="1.91355833">
        <ele>412.0</ele>
        <time>2019-12-21T13:32:09.430Z</time>
      </trkpt>
      <trkpt lat="41.280275" lon="1.91371833">
        <ele>410.0</ele>
        <time>2019-12-21T13:32:10.405Z</time>
      </trkpt>
      <trkpt lat="41.28021167" lon="1.913775">
        <ele>409.0</ele>
        <time>2019-12-21T13:32:11.402Z</time>
      </trkpt>
      <trkpt lat="41.280135" lon="1.9138">
        <ele>408.0</ele>
        <time>2019-12-21T13:32:12.404Z</time>
      </trkpt>
      <trkpt lat="41.280135" lon="1.9138">
        <ele>408.0</ele>
        <time>2019-12-21T13:32:13.430Z</time>
      </trkpt>
      <trkpt lat="41.27998" lon="1.913755">
        <ele>406.0</ele>
        <time>2019-12-21T13:32:14.402Z</time>
      </trkpt>
      <trkpt lat="41.27991" lon="1.91369833">
        <ele>405.0</ele>
        <time>2019-12-21T13:32:15.432Z</time>
      </trkpt>
      <trkpt lat="41.27983667" lon="1.913635">
        <ele>404.0</ele>
        <time>2019-12-21T13:32:16.426Z</time>
      </trkpt>
      <trkpt lat="41.27983667" lon="1.913635">
        <ele>404.0</ele>
        <time>2019-12-21T13:32:17.413Z</time>
      </trkpt>
      <trkpt lat="41.27968167" lon="1.91351667">
        <ele>401.0</ele>
        <time>2019-12-21T13:32:18.407Z</time>
      </trkpt>
      <trkpt lat="41.27968167" lon="1.91351667">
        <ele>401.0</ele>
        <time>2019-12-21T13:32:19.406Z</time>
      </trkpt>
      <trkpt lat="41.27953333" lon="1.91343333">
        <ele>399.0</ele>
        <time>2019-12-21T13:32:20.402Z</time>
      </trkpt>
      <trkpt lat="41.27953333" lon="1.91343333">
        <ele>399.0</ele>
        <time>2019-12-21T13:32:21.403Z</time>
      </trkpt>
      <trkpt lat="41.27937333" lon="1.91342">
        <ele>396.0</ele>
        <time>2019-12-21T13:32:22.399Z</time>
      </trkpt>
      <trkpt lat="41.27937333" lon="1.91342">
        <ele>396.0</ele>
        <time>2019-12-21T13:32:23.433Z</time>
      </trkpt>
      <trkpt lat="41.27918333" lon="1.9135">
        <ele>394.0</ele>
        <time>2019-12-21T13:32:24.407Z</time>
      </trkpt>
      <trkpt lat="41.27918333" lon="1.9135">
        <ele>394.0</ele>
        <time>2019-12-21T13:32:25.431Z</time>
      </trkpt>
      <trkpt lat="41.278965" lon="1.91363167">
        <ele>391.0</ele>
        <time>2019-12-21T13:32:26.432Z</time>
      </trkpt>
      <trkpt lat="41.278845" lon="1.913705">
        <ele>390.0</ele>
        <time>2019-12-21T13:32:27.426Z</time>
      </trkpt>
      <trkpt lat="41.278845" lon="1.913705">
        <ele>390.0</ele>
        <time>2019-12-21T13:32:28.431Z</time>
      </trkpt>
      <trkpt lat="41.278585" lon="1.913855">
        <ele>386.0</ele>
        <time>2019-12-21T13:32:29.404Z</time>
      </trkpt>
      <trkpt lat="41.27845667" lon="1.91391667">
        <ele>384.0</ele>
        <time>2019-12-21T13:32:30.426Z</time>
      </trkpt>
      <trkpt lat="41.27845667" lon="1.91391667">
        <ele>384.0</ele>
        <time>2019-12-21T13:32:31.429Z</time>
      </trkpt>
      <trkpt lat="41.27819667" lon="1.91399">
        <ele>382.0</ele>
        <time>2019-12-21T13:32:32.404Z</time>
      </trkpt>
      <trkpt lat="41.27806667" lon="1.91399667">
        <ele>380.0</ele>
        <time>2019-12-21T13:32:33.408Z</time>
      </trkpt>
      <trkpt lat="41.27806667" lon="1.91399667">
        <ele>380.0</ele>
        <time>2019-12-21T13:32:34.431Z</time>
      </trkpt>
      <trkpt lat="41.27781167" lon="1.91397">
        <ele>378.0</ele>
        <time>2019-12-21T13:32:35.405Z</time>
      </trkpt>
      <trkpt lat="41.27768833" lon="1.913955">
        <ele>376.0</ele>
        <time>2019-12-21T13:32:36.411Z</time>
      </trkpt>
      <trkpt lat="41.27756833" lon="1.91394667">
        <ele>375.0</ele>
        <time>2019-12-21T13:32:37.426Z</time>
      </trkpt>
      <trkpt lat="41.27756833" lon="1.91394667">
        <ele>375.0</ele>
        <time>2019-12-21T13:32:38.432Z</time>
      </trkpt>
      <trkpt lat="41.27735667" lon="1.913945">
        <ele>373.0</ele>
        <time>2019-12-21T13:32:39.404Z</time>
      </trkpt>
      <trkpt lat="41.27725667" lon="1.91393333">
        <ele>372.0</ele>
        <time>2019-12-21T13:32:40.412Z</time>
      </trkpt>
      <trkpt lat="41.27716" lon="1.913915">
        <ele>370.0</ele>
        <time>2019-12-21T13:32:41.428Z</time>
      </trkpt>
      <trkpt lat="41.27716" lon="1.913915">
        <ele>370.0</ele>
        <time>2019-12-21T13:32:42.431Z</time>
      </trkpt>
      <trkpt lat="41.27696333" lon="1.91387167">
        <ele>368.0</ele>
        <time>2019-12-21T13:32:43.403Z</time>
      </trkpt>
      <trkpt lat="41.276865" lon="1.91384333">
        <ele>368.0</ele>
        <time>2019-12-21T13:32:44.426Z</time>
      </trkpt>
      <trkpt lat="41.276865" lon="1.91384333">
        <ele>368.0</ele>
        <time>2019-12-21T13:32:45.429Z</time>
      </trkpt>
      <trkpt lat="41.27666333" lon="1.91377667">
        <ele>365.0</ele>
        <time>2019-12-21T13:32:46.411Z</time>
      </trkpt>
      <trkpt lat="41.27666333" lon="1.91377667">
        <ele>365.0</ele>
        <time>2019-12-21T13:32:47.409Z</time>
      </trkpt>
      <trkpt lat="41.27646667" lon="1.91372833">
        <ele>364.0</ele>
        <time>2019-12-21T13:32:48.426Z</time>
      </trkpt>
      <trkpt lat="41.27646667" lon="1.91372833">
        <ele>364.0</ele>
        <time>2019-12-21T13:32:49.407Z</time>
      </trkpt>
      <trkpt lat="41.27627167" lon="1.91368333">
        <ele>362.0</ele>
        <time>2019-12-21T13:32:50.403Z</time>
      </trkpt>
      <trkpt lat="41.27627167" lon="1.91368333">
        <ele>362.0</ele>
        <time>2019-12-21T13:32:51.405Z</time>
      </trkpt>
      <trkpt lat="41.27607333" lon="1.91361833">
        <ele>360.0</ele>
        <time>2019-12-21T13:32:52.402Z</time>
      </trkpt>
      <trkpt lat="41.27607333" lon="1.91361833">
        <ele>360.0</ele>
        <time>2019-12-21T13:32:53.422Z</time>
      </trkpt>
      <trkpt lat="41.27588333" lon="1.91353167">
        <ele>358.0</ele>
        <time>2019-12-21T13:32:54.426Z</time>
      </trkpt>
      <trkpt lat="41.27588333" lon="1.91353167">
        <ele>358.0</ele>
        <time>2019-12-21T13:32:55.408Z</time>
      </trkpt>
      <trkpt lat="41.27570667" lon="1.913435">
        <ele>356.0</ele>
        <time>2019-12-21T13:32:56.411Z</time>
      </trkpt>
      <trkpt lat="41.275615" lon="1.91339">
        <ele>356.0</ele>
        <time>2019-12-21T13:32:57.425Z</time>
      </trkpt>
      <trkpt lat="41.275615" lon="1.91339">
        <ele>356.0</ele>
        <time>2019-12-21T13:32:58.407Z</time>
      </trkpt>
      <trkpt lat="41.27542833" lon="1.91331167">
        <ele>354.0</ele>
        <time>2019-12-21T13:32:59.433Z</time>
      </trkpt>
      <trkpt lat="41.27533667" lon="1.913275">
        <ele>353.0</ele>
        <time>2019-12-21T13:33:00.427Z</time>
      </trkpt>
      <trkpt lat="41.27533667" lon="1.913275">
        <ele>353.0</ele>
        <time>2019-12-21T13:33:01.429Z</time>
      </trkpt>
      <trkpt lat="41.27516667" lon="1.9132">
        <ele>352.0</ele>
        <time>2019-12-21T13:33:02.403Z</time>
      </trkpt>
      <trkpt lat="41.275085" lon="1.91316333">
        <ele>351.0</ele>
        <time>2019-12-21T13:33:03.407Z</time>
      </trkpt>
      <trkpt lat="41.27500667" lon="1.91313667">
        <ele>350.0</ele>
        <time>2019-12-21T13:33:04.450Z</time>
      </trkpt>
      <trkpt lat="41.27500667" lon="1.91313667">
        <ele>350.0</ele>
        <time>2019-12-21T13:33:05.397Z</time>
      </trkpt>
      <trkpt lat="41.27485167" lon="1.91312">
        <ele>348.0</ele>
        <time>2019-12-21T13:33:06.427Z</time>
      </trkpt>
      <trkpt lat="41.27485167" lon="1.91312">
        <ele>348.0</ele>
        <time>2019-12-21T13:33:07.412Z</time>
      </trkpt>
      <trkpt lat="41.274725" lon="1.91318667">
        <ele>348.0</ele>
        <time>2019-12-21T13:33:08.404Z</time>
      </trkpt>
      <trkpt lat="41.274725" lon="1.91318667">
        <ele>348.0</ele>
        <time>2019-12-21T13:33:09.406Z</time>
      </trkpt>
      <trkpt lat="41.27463833" lon="1.9133">
        <ele>347.0</ele>
        <time>2019-12-21T13:33:10.427Z</time>
      </trkpt>
      <trkpt lat="41.27463833" lon="1.9133">
        <ele>347.0</ele>
        <time>2019-12-21T13:33:11.409Z</time>
      </trkpt>
      <trkpt lat="41.27457167" lon="1.913445">
        <ele>346.0</ele>
        <time>2019-12-21T13:33:12.405Z</time>
      </trkpt>
      <trkpt lat="41.27457167" lon="1.913445">
        <ele>346.0</ele>
        <time>2019-12-21T13:33:13.407Z</time>
      </trkpt>
      <trkpt lat="41.27451833" lon="1.91361667">
        <ele>345.0</ele>
        <time>2019-12-21T13:33:14.403Z</time>
      </trkpt>
      <trkpt lat="41.27451833" lon="1.91361667">
        <ele>345.0</ele>
        <time>2019-12-21T13:33:15.405Z</time>
      </trkpt>
      <trkpt lat="41.27446667" lon="1.91380167">
        <ele>344.0</ele>
        <time>2019-12-21T13:33:16.412Z</time>
      </trkpt>
      <trkpt lat="41.27443667" lon="1.9139">
        <ele>344.0</ele>
        <time>2019-12-21T13:33:17.426Z</time>
      </trkpt>
      <trkpt lat="41.27443667" lon="1.9139">
        <ele>344.0</ele>
        <time>2019-12-21T13:33:18.431Z</time>
      </trkpt>
      <trkpt lat="41.274375" lon="1.91410667">
        <ele>342.0</ele>
        <time>2019-12-21T13:33:19.403Z</time>
      </trkpt>
      <trkpt lat="41.274375" lon="1.91410667">
        <ele>342.0</ele>
        <time>2019-12-21T13:33:20.405Z</time>
      </trkpt>
      <trkpt lat="41.27430167" lon="1.914315">
        <ele>341.0</ele>
        <time>2019-12-21T13:33:21.402Z</time>
      </trkpt>
      <trkpt lat="41.27430167" lon="1.914315">
        <ele>341.0</ele>
        <time>2019-12-21T13:33:22.405Z</time>
      </trkpt>
      <trkpt lat="41.27422333" lon="1.91447333">
        <ele>340.0</ele>
        <time>2019-12-21T13:33:23.405Z</time>
      </trkpt>
      <trkpt lat="41.27416667" lon="1.91451667">
        <ele>339.0</ele>
        <time>2019-12-21T13:33:24.404Z</time>
      </trkpt>
      <trkpt lat="41.27416667" lon="1.91451667">
        <ele>339.0</ele>
        <time>2019-12-21T13:33:25.406Z</time>
      </trkpt>
      <trkpt lat="41.27404333" lon="1.91453833">
        <ele>338.0</ele>
        <time>2019-12-21T13:33:26.412Z</time>
      </trkpt>
      <trkpt lat="41.27398333" lon="1.91454167">
        <ele>338.0</ele>
        <time>2019-12-21T13:33:27.406Z</time>
      </trkpt>
      <trkpt lat="41.27398333" lon="1.91454167">
        <ele>338.0</ele>
        <time>2019-12-21T13:33:28.432Z</time>
      </trkpt>
      <trkpt lat="41.27384833" lon="1.91454333">
        <ele>336.0</ele>
        <time>2019-12-21T13:33:29.405Z</time>
      </trkpt>
      <trkpt lat="41.27384833" lon="1.91454333">
        <ele>336.0</ele>
        <time>2019-12-21T13:33:30.407Z</time>
      </trkpt>
      <trkpt lat="41.273695" lon="1.91454">
        <ele>335.0</ele>
        <time>2019-12-21T13:33:31.403Z</time>
      </trkpt>
      <trkpt lat="41.27361" lon="1.91454">
        <ele>334.0</ele>
        <time>2019-12-21T13:33:32.399Z</time>
      </trkpt>
      <trkpt lat="41.27361" lon="1.91454">
        <ele>334.0</ele>
        <time>2019-12-21T13:33:33.412Z</time>
      </trkpt>
      <trkpt lat="41.27344667" lon="1.914575">
        <ele>332.0</ele>
        <time>2019-12-21T13:33:34.433Z</time>
      </trkpt>
      <trkpt lat="41.27344667" lon="1.914575">
        <ele>332.0</ele>
        <time>2019-12-21T13:33:35.433Z</time>
      </trkpt>
      <trkpt lat="41.27329667" lon="1.91468667">
        <ele>331.0</ele>
        <time>2019-12-21T13:33:36.412Z</time>
      </trkpt>
      <trkpt lat="41.27323" lon="1.914765">
        <ele>330.0</ele>
        <time>2019-12-21T13:33:37.427Z</time>
      </trkpt>
      <trkpt lat="41.27323" lon="1.914765">
        <ele>330.0</ele>
        <time>2019-12-21T13:33:38.432Z</time>
      </trkpt>
      <trkpt lat="41.27313333" lon="1.91496333">
        <ele>328.0</ele>
        <time>2019-12-21T13:33:39.405Z</time>
      </trkpt>
      <trkpt lat="41.27313333" lon="1.91496333">
        <ele>328.0</ele>
        <time>2019-12-21T13:33:40.406Z</time>
      </trkpt>
      <trkpt lat="41.27305667" lon="1.915315">
        <ele>327.0</ele>
        <time>2019-12-21T13:33:41.434Z</time>
      </trkpt>
      <trkpt lat="41.27305667" lon="1.915315">
        <ele>327.0</ele>
        <time>2019-12-21T13:33:42.402Z</time>
      </trkpt>
      <trkpt lat="41.27305667" lon="1.915315">
        <ele>327.0</ele>
        <time>2019-12-21T13:33:43.408Z</time>
      </trkpt>
      <trkpt lat="41.27302333" lon="1.91554833">
        <ele>326.0</ele>
        <time>2019-12-21T13:33:44.406Z</time>
      </trkpt>
      <trkpt lat="41.27302333" lon="1.91554833">
        <ele>326.0</ele>
        <time>2019-12-21T13:33:45.407Z</time>
      </trkpt>
      <trkpt lat="41.272995" lon="1.91577333">
        <ele>326.0</ele>
        <time>2019-12-21T13:33:46.427Z</time>
      </trkpt>
      <trkpt lat="41.272995" lon="1.91577333">
        <ele>326.0</ele>
        <time>2019-12-21T13:33:47.409Z</time>
      </trkpt>
      <trkpt lat="41.272945" lon="1.91597833">
        <ele>326.0</ele>
        <time>2019-12-21T13:33:48.406Z</time>
      </trkpt>
      <trkpt lat="41.272945" lon="1.91597833">
        <ele>326.0</ele>
        <time>2019-12-21T13:33:49.435Z</time>
      </trkpt>
      <trkpt lat="41.27285333" lon="1.91614167">
        <ele>325.0</ele>
        <time>2019-12-21T13:33:50.432Z</time>
      </trkpt>
      <trkpt lat="41.27279333" lon="1.91620333">
        <ele>325.0</ele>
        <time>2019-12-21T13:33:51.406Z</time>
      </trkpt>
      <trkpt lat="41.27279333" lon="1.91620333">
        <ele>325.0</ele>
        <time>2019-12-21T13:33:52.407Z</time>
      </trkpt>
      <trkpt lat="41.27265833" lon="1.91628">
        <ele>325.0</ele>
        <time>2019-12-21T13:33:53.404Z</time>
      </trkpt>
      <trkpt lat="41.27258667" lon="1.91629333">
        <ele>324.0</ele>
        <time>2019-12-21T13:33:54.397Z</time>
      </trkpt>
      <trkpt lat="41.27258667" lon="1.91629333">
        <ele>324.0</ele>
        <time>2019-12-21T13:33:55.432Z</time>
      </trkpt>
      <trkpt lat="41.27243667" lon="1.91629167">
        <ele>323.0</ele>
        <time>2019-12-21T13:33:56.406Z</time>
      </trkpt>
      <trkpt lat="41.27243667" lon="1.91629167">
        <ele>323.0</ele>
        <time>2019-12-21T13:33:57.433Z</time>
      </trkpt>
      <trkpt lat="41.272285" lon="1.91627">
        <ele>323.0</ele>
        <time>2019-12-21T13:33:58.427Z</time>
      </trkpt>
      <trkpt lat="41.272285" lon="1.91627">
        <ele>323.0</ele>
        <time>2019-12-21T13:33:59.434Z</time>
      </trkpt>
      <trkpt lat="41.27213167" lon="1.91624333">
        <ele>322.0</ele>
        <time>2019-12-21T13:34:00.408Z</time>
      </trkpt>
      <trkpt lat="41.27213167" lon="1.91624333">
        <ele>322.0</ele>
        <time>2019-12-21T13:34:01.422Z</time>
      </trkpt>
      <trkpt lat="41.27198667" lon="1.91622">
        <ele>322.0</ele>
        <time>2019-12-21T13:34:02.432Z</time>
      </trkpt>
      <trkpt lat="41.271915" lon="1.91620833">
        <ele>322.0</ele>
        <time>2019-12-21T13:34:03.406Z</time>
      </trkpt>
      <trkpt lat="41.271915" lon="1.91620833">
        <ele>322.0</ele>
        <time>2019-12-21T13:34:04.444Z</time>
      </trkpt>
      <trkpt lat="41.271775" lon="1.916185">
        <ele>321.0</ele>
        <time>2019-12-21T13:34:05.433Z</time>
      </trkpt>
      <trkpt lat="41.271705" lon="1.91617333">
        <ele>320.0</ele>
        <time>2019-12-21T13:34:06.412Z</time>
      </trkpt>
      <trkpt lat="41.271705" lon="1.91617333">
        <ele>320.0</ele>
        <time>2019-12-21T13:34:07.412Z</time>
      </trkpt>
      <trkpt lat="41.27156167" lon="1.91615667">
        <ele>320.0</ele>
        <time>2019-12-21T13:34:08.427Z</time>
      </trkpt>
      <trkpt lat="41.27156167" lon="1.91615667">
        <ele>320.0</ele>
        <time>2019-12-21T13:34:09.448Z</time>
      </trkpt>
      <trkpt lat="41.27142833" lon="1.91620333">
        <ele>319.0</ele>
        <time>2019-12-21T13:34:10.427Z</time>
      </trkpt>
      <trkpt lat="41.27142833" lon="1.91620333">
        <ele>319.0</ele>
        <time>2019-12-21T13:34:11.433Z</time>
      </trkpt>
      <trkpt lat="41.27133667" lon="1.91634167">
        <ele>318.0</ele>
        <time>2019-12-21T13:34:12.407Z</time>
      </trkpt>
      <trkpt lat="41.27132" lon="1.91643667">
        <ele>318.0</ele>
        <time>2019-12-21T13:34:13.403Z</time>
      </trkpt>
      <trkpt lat="41.27132" lon="1.91643667">
        <ele>318.0</ele>
        <time>2019-12-21T13:34:14.406Z</time>
      </trkpt>
      <trkpt lat="41.27134667" lon="1.91663167">
        <ele>318.0</ele>
        <time>2019-12-21T13:34:15.403Z</time>
      </trkpt>
      <trkpt lat="41.27134667" lon="1.91663167">
        <ele>318.0</ele>
        <time>2019-12-21T13:34:16.410Z</time>
      </trkpt>
      <trkpt lat="41.27140833" lon="1.91682833">
        <ele>317.0</ele>
        <time>2019-12-21T13:34:17.431Z</time>
      </trkpt>
      <trkpt lat="41.27144833" lon="1.91692833">
        <ele>317.0</ele>
        <time>2019-12-21T13:34:18.427Z</time>
      </trkpt>
      <trkpt lat="41.27144833" lon="1.91692833">
        <ele>317.0</ele>
        <time>2019-12-21T13:34:19.433Z</time>
      </trkpt>
      <trkpt lat="41.27154833" lon="1.917125">
        <ele>315.0</ele>
        <time>2019-12-21T13:34:20.406Z</time>
      </trkpt>
      <trkpt lat="41.27154833" lon="1.917125">
        <ele>315.0</ele>
        <time>2019-12-21T13:34:21.430Z</time>
      </trkpt>
      <trkpt lat="41.27167" lon="1.91734">
        <ele>312.0</ele>
        <time>2019-12-21T13:34:22.432Z</time>
      </trkpt>
      <trkpt lat="41.27173667" lon="1.91745667">
        <ele>311.0</ele>
        <time>2019-12-21T13:34:23.409Z</time>
      </trkpt>
      <trkpt lat="41.271805" lon="1.91757833">
        <ele>309.0</ele>
        <time>2019-12-21T13:34:24.407Z</time>
      </trkpt>
      <trkpt lat="41.271805" lon="1.91757833">
        <ele>309.0</ele>
        <time>2019-12-21T13:34:25.434Z</time>
      </trkpt>
      <trkpt lat="41.27193667" lon="1.917825">
        <ele>306.0</ele>
        <time>2019-12-21T13:34:26.428Z</time>
      </trkpt>
      <trkpt lat="41.27193667" lon="1.917825">
        <ele>306.0</ele>
        <time>2019-12-21T13:34:27.432Z</time>
      </trkpt>
      <trkpt lat="41.27204167" lon="1.918105">
        <ele>303.0</ele>
        <time>2019-12-21T13:34:28.433Z</time>
      </trkpt>
      <trkpt lat="41.27207833" lon="1.918255">
        <ele>302.0</ele>
        <time>2019-12-21T13:34:29.406Z</time>
      </trkpt>
      <trkpt lat="41.27207833" lon="1.918255">
        <ele>302.0</ele>
        <time>2019-12-21T13:34:30.408Z</time>
      </trkpt>
      <trkpt lat="41.27214167" lon="1.918545">
        <ele>299.0</ele>
        <time>2019-12-21T13:34:31.405Z</time>
      </trkpt>
      <trkpt lat="41.272185" lon="1.91869">
        <ele>299.0</ele>
        <time>2019-12-21T13:34:32.404Z</time>
      </trkpt>
      <trkpt lat="41.27223833" lon="1.91882667">
        <ele>297.0</ele>
        <time>2019-12-21T13:34:33.401Z</time>
      </trkpt>
      <trkpt lat="41.27223833" lon="1.91882667">
        <ele>297.0</ele>
        <time>2019-12-21T13:34:34.433Z</time>
      </trkpt>
      <trkpt lat="41.27236833" lon="1.91909">
        <ele>296.0</ele>
        <time>2019-12-21T13:34:35.398Z</time>
      </trkpt>
      <trkpt lat="41.27242" lon="1.91921333">
        <ele>295.0</ele>
        <time>2019-12-21T13:34:36.427Z</time>
      </trkpt>
      <trkpt lat="41.27242" lon="1.91921333">
        <ele>295.0</ele>
        <time>2019-12-21T13:34:37.412Z</time>
      </trkpt>
      <trkpt lat="41.27249167" lon="1.91941667">
        <ele>293.0</ele>
        <time>2019-12-21T13:34:38.427Z</time>
      </trkpt>
      <trkpt lat="41.27249167" lon="1.91941667">
        <ele>293.0</ele>
        <time>2019-12-21T13:34:39.432Z</time>
      </trkpt>
      <trkpt lat="41.27246333" lon="1.91957">
        <ele>292.0</ele>
        <time>2019-12-21T13:34:40.406Z</time>
      </trkpt>
      <trkpt lat="41.27246333" lon="1.91957">
        <ele>292.0</ele>
        <time>2019-12-21T13:34:41.435Z</time>
      </trkpt>
      <trkpt lat="41.27235" lon="1.91963667">
        <ele>290.0</ele>
        <time>2019-12-21T13:34:42.402Z</time>
      </trkpt>
      <trkpt lat="41.27235" lon="1.91963667">
        <ele>290.0</ele>
        <time>2019-12-21T13:34:43.434Z</time>
      </trkpt>
      <trkpt lat="41.27222167" lon="1.91959667">
        <ele>289.0</ele>
        <time>2019-12-21T13:34:44.399Z</time>
      </trkpt>
      <trkpt lat="41.27222167" lon="1.91959667">
        <ele>289.0</ele>
        <time>2019-12-21T13:34:45.433Z</time>
      </trkpt>
      <trkpt lat="41.27211667" lon="1.91953167">
        <ele>288.0</ele>
        <time>2019-12-21T13:34:46.398Z</time>
      </trkpt>
      <trkpt lat="41.27211667" lon="1.91953167">
        <ele>288.0</ele>
        <time>2019-12-21T13:34:47.402Z</time>
      </trkpt>
      <trkpt lat="41.27201167" lon="1.91946833">
        <ele>287.0</ele>
        <time>2019-12-21T13:34:48.427Z</time>
      </trkpt>
      <trkpt lat="41.27201167" lon="1.91946833">
        <ele>287.0</ele>
        <time>2019-12-21T13:34:49.433Z</time>
      </trkpt>
      <trkpt lat="41.27188167" lon="1.91939667">
        <ele>286.0</ele>
        <time>2019-12-21T13:34:50.406Z</time>
      </trkpt>
      <trkpt lat="41.27188167" lon="1.91939667">
        <ele>286.0</ele>
        <time>2019-12-21T13:34:51.432Z</time>
      </trkpt>
      <trkpt lat="41.27173333" lon="1.91932167">
        <ele>285.0</ele>
        <time>2019-12-21T13:34:52.406Z</time>
      </trkpt>
      <trkpt lat="41.27173333" lon="1.91932167">
        <ele>285.0</ele>
        <time>2019-12-21T13:34:53.406Z</time>
      </trkpt>
      <trkpt lat="41.27158333" lon="1.91924167">
        <ele>284.0</ele>
        <time>2019-12-21T13:34:54.398Z</time>
      </trkpt>
      <trkpt lat="41.27151167" lon="1.91921">
        <ele>283.0</ele>
        <time>2019-12-21T13:34:55.400Z</time>
      </trkpt>
      <trkpt lat="41.27151167" lon="1.91921">
        <ele>283.0</ele>
        <time>2019-12-21T13:34:56.432Z</time>
      </trkpt>
      <trkpt lat="41.27138667" lon="1.91919667">
        <ele>282.0</ele>
        <time>2019-12-21T13:34:57.427Z</time>
      </trkpt>
      <trkpt lat="41.27138667" lon="1.91919667">
        <ele>282.0</ele>
        <time>2019-12-21T13:34:58.432Z</time>
      </trkpt>
      <trkpt lat="41.27129667" lon="1.91928167">
        <ele>280.0</ele>
        <time>2019-12-21T13:34:59.405Z</time>
      </trkpt>
      <trkpt lat="41.27127" lon="1.91935667">
        <ele>280.0</ele>
        <time>2019-12-21T13:35:00.427Z</time>
      </trkpt>
      <trkpt lat="41.27127" lon="1.91935667">
        <ele>280.0</ele>
        <time>2019-12-21T13:35:01.432Z</time>
      </trkpt>
      <trkpt lat="41.27125833" lon="1.91954333">
        <ele>279.0</ele>
        <time>2019-12-21T13:35:02.406Z</time>
      </trkpt>
      <trkpt lat="41.27125167" lon="1.91964667">
        <ele>278.0</ele>
        <time>2019-12-21T13:35:03.427Z</time>
      </trkpt>
      <trkpt lat="41.27125167" lon="1.91964667">
        <ele>278.0</ele>
        <time>2019-12-21T13:35:04.461Z</time>
      </trkpt>
      <trkpt lat="41.27122167" lon="1.91986333">
        <ele>276.0</ele>
        <time>2019-12-21T13:35:05.434Z</time>
      </trkpt>
      <trkpt lat="41.271205" lon="1.919975">
        <ele>276.0</ele>
        <time>2019-12-21T13:35:06.431Z</time>
      </trkpt>
      <trkpt lat="41.271205" lon="1.919975">
        <ele>276.0</ele>
        <time>2019-12-21T13:35:07.434Z</time>
      </trkpt>
      <trkpt lat="41.27118667" lon="1.92021167">
        <ele>274.0</ele>
        <time>2019-12-21T13:35:08.430Z</time>
      </trkpt>
      <trkpt lat="41.27118167" lon="1.92033667">
        <ele>274.0</ele>
        <time>2019-12-21T13:35:09.438Z</time>
      </trkpt>
      <trkpt lat="41.27118167" lon="1.92033667">
        <ele>274.0</ele>
        <time>2019-12-21T13:35:10.432Z</time>
      </trkpt>
      <trkpt lat="41.271165" lon="1.92059667">
        <ele>272.0</ele>
        <time>2019-12-21T13:35:11.405Z</time>
      </trkpt>
      <trkpt lat="41.27115" lon="1.92072333">
        <ele>271.0</ele>
        <time>2019-12-21T13:35:12.402Z</time>
      </trkpt>
      <trkpt lat="41.27115" lon="1.92072333">
        <ele>271.0</ele>
        <time>2019-12-21T13:35:13.432Z</time>
      </trkpt>
      <trkpt lat="41.27107" lon="1.920945">
        <ele>270.0</ele>
        <time>2019-12-21T13:35:14.406Z</time>
      </trkpt>
      <trkpt lat="41.27100667" lon="1.92104167">
        <ele>269.0</ele>
        <time>2019-12-21T13:35:15.405Z</time>
      </trkpt>
      <trkpt lat="41.27100667" lon="1.92104167">
        <ele>269.0</ele>
        <time>2019-12-21T13:35:16.432Z</time>
      </trkpt>
      <trkpt lat="41.27085667" lon="1.921215">
        <ele>268.0</ele>
        <time>2019-12-21T13:35:17.406Z</time>
      </trkpt>
      <trkpt lat="41.270785" lon="1.921305">
        <ele>267.0</ele>
        <time>2019-12-21T13:35:18.402Z</time>
      </trkpt>
      <trkpt lat="41.270785" lon="1.921305">
        <ele>267.0</ele>
        <time>2019-12-21T13:35:19.404Z</time>
      </trkpt>
      <trkpt lat="41.27066833" lon="1.92147167">
        <ele>265.0</ele>
        <time>2019-12-21T13:35:20.402Z</time>
      </trkpt>
      <trkpt lat="41.27062167" lon="1.92155">
        <ele>264.0</ele>
        <time>2019-12-21T13:35:21.432Z</time>
      </trkpt>
      <trkpt lat="41.27058167" lon="1.92164167">
        <ele>263.0</ele>
        <time>2019-12-21T13:35:22.432Z</time>
      </trkpt>
      <trkpt lat="41.27058167" lon="1.92164167">
        <ele>263.0</ele>
        <time>2019-12-21T13:35:23.434Z</time>
      </trkpt>
      <trkpt lat="41.27058167" lon="1.92183167">
        <ele>261.0</ele>
        <time>2019-12-21T13:35:24.405Z</time>
      </trkpt>
      <trkpt lat="41.27058167" lon="1.92183167">
        <ele>261.0</ele>
        <time>2019-12-21T13:35:25.430Z</time>
      </trkpt>
      <trkpt lat="41.27062833" lon="1.92199833">
        <ele>259.0</ele>
        <time>2019-12-21T13:35:26.409Z</time>
      </trkpt>
      <trkpt lat="41.27066333" lon="1.922075">
        <ele>258.0</ele>
        <time>2019-12-21T13:35:27.405Z</time>
      </trkpt>
      <trkpt lat="41.27066333" lon="1.922075">
        <ele>258.0</ele>
        <time>2019-12-21T13:35:28.406Z</time>
      </trkpt>
      <trkpt lat="41.270735" lon="1.92225667">
        <ele>256.0</ele>
        <time>2019-12-21T13:35:29.402Z</time>
      </trkpt>
      <trkpt lat="41.27074167" lon="1.92236167">
        <ele>255.0</ele>
        <time>2019-12-21T13:35:30.404Z</time>
      </trkpt>
      <trkpt lat="41.27074167" lon="1.92236167">
        <ele>255.0</ele>
        <time>2019-12-21T13:35:31.405Z</time>
      </trkpt>
      <trkpt lat="41.27066667" lon="1.922545">
        <ele>254.0</ele>
        <time>2019-12-21T13:35:32.436Z</time>
      </trkpt>
      <trkpt lat="41.27066667" lon="1.922545">
        <ele>254.0</ele>
        <time>2019-12-21T13:35:33.433Z</time>
      </trkpt>
      <trkpt lat="41.27055" lon="1.9227">
        <ele>252.0</ele>
        <time>2019-12-21T13:35:34.426Z</time>
      </trkpt>
      <trkpt lat="41.27055" lon="1.9227">
        <ele>252.0</ele>
        <time>2019-12-21T13:35:35.408Z</time>
      </trkpt>
      <trkpt lat="41.27043333" lon="1.92286667">
        <ele>250.0</ele>
        <time>2019-12-21T13:35:36.438Z</time>
      </trkpt>
      <trkpt lat="41.27043333" lon="1.92286667">
        <ele>250.0</ele>
        <time>2019-12-21T13:35:37.409Z</time>
      </trkpt>
      <trkpt lat="41.27032167" lon="1.92306333">
        <ele>249.0</ele>
        <time>2019-12-21T13:35:38.427Z</time>
      </trkpt>
      <trkpt lat="41.27032167" lon="1.92306333">
        <ele>249.0</ele>
        <time>2019-12-21T13:35:39.432Z</time>
      </trkpt>
      <trkpt lat="41.270205" lon="1.92325167">
        <ele>247.0</ele>
        <time>2019-12-21T13:35:40.406Z</time>
      </trkpt>
      <trkpt lat="41.270205" lon="1.92325167">
        <ele>247.0</ele>
        <time>2019-12-21T13:35:41.409Z</time>
      </trkpt>
      <trkpt lat="41.27005" lon="1.92338833">
        <ele>245.0</ele>
        <time>2019-12-21T13:35:42.427Z</time>
      </trkpt>
      <trkpt lat="41.27005" lon="1.92338833">
        <ele>245.0</ele>
        <time>2019-12-21T13:35:43.432Z</time>
      </trkpt>
      <trkpt lat="41.26987167" lon="1.92348167">
        <ele>243.0</ele>
        <time>2019-12-21T13:35:44.404Z</time>
      </trkpt>
      <trkpt lat="41.26987167" lon="1.92348167">
        <ele>243.0</ele>
        <time>2019-12-21T13:35:45.432Z</time>
      </trkpt>
      <trkpt lat="41.26968333" lon="1.92355667">
        <ele>241.0</ele>
        <time>2019-12-21T13:35:46.409Z</time>
      </trkpt>
      <trkpt lat="41.26968333" lon="1.92355667">
        <ele>241.0</ele>
        <time>2019-12-21T13:35:47.409Z</time>
      </trkpt>
      <trkpt lat="41.26950167" lon="1.923625">
        <ele>239.0</ele>
        <time>2019-12-21T13:35:48.427Z</time>
      </trkpt>
      <trkpt lat="41.26950167" lon="1.923625">
        <ele>239.0</ele>
        <time>2019-12-21T13:35:49.409Z</time>
      </trkpt>
      <trkpt lat="41.26934667" lon="1.92366333">
        <ele>236.0</ele>
        <time>2019-12-21T13:35:50.404Z</time>
      </trkpt>
      <trkpt lat="41.26934667" lon="1.92366333">
        <ele>236.0</ele>
        <time>2019-12-21T13:35:51.432Z</time>
      </trkpt>
      <trkpt lat="41.26921" lon="1.92369667">
        <ele>234.0</ele>
        <time>2019-12-21T13:35:52.406Z</time>
      </trkpt>
      <trkpt lat="41.26921" lon="1.92369667">
        <ele>234.0</ele>
        <time>2019-12-21T13:35:53.407Z</time>
      </trkpt>
      <trkpt lat="41.269075" lon="1.92378">
        <ele>231.0</ele>
        <time>2019-12-21T13:35:54.430Z</time>
      </trkpt>
      <trkpt lat="41.269075" lon="1.92378">
        <ele>231.0</ele>
        <time>2019-12-21T13:35:55.433Z</time>
      </trkpt>
      <trkpt lat="41.26901167" lon="1.923945">
        <ele>225.0</ele>
        <time>2019-12-21T13:35:56.412Z</time>
      </trkpt>
      <trkpt lat="41.26901167" lon="1.923945">
        <ele>225.0</ele>
        <time>2019-12-21T13:35:57.431Z</time>
      </trkpt>
      <trkpt lat="41.26901833" lon="1.92413667">
        <ele>220.0</ele>
        <time>2019-12-21T13:35:58.404Z</time>
      </trkpt>
      <trkpt lat="41.26903167" lon="1.92424333">
        <ele>217.0</ele>
        <time>2019-12-21T13:35:59.404Z</time>
      </trkpt>
      <trkpt lat="41.26905333" lon="1.92435333">
        <ele>212.0</ele>
        <time>2019-12-21T13:36:00.428Z</time>
      </trkpt>
      <trkpt lat="41.26905333" lon="1.92435333">
        <ele>212.0</ele>
        <time>2019-12-21T13:36:01.432Z</time>
      </trkpt>
      <trkpt lat="41.26910333" lon="1.92456333">
        <ele>206.0</ele>
        <time>2019-12-21T13:36:02.405Z</time>
      </trkpt>
      <trkpt lat="41.26913" lon="1.92466833">
        <ele>203.0</ele>
        <time>2019-12-21T13:36:03.428Z</time>
      </trkpt>
      <trkpt lat="41.26913" lon="1.92466833">
        <ele>203.0</ele>
        <time>2019-12-21T13:36:04.468Z</time>
      </trkpt>
      <trkpt lat="41.26920333" lon="1.92487167">
        <ele>199.0</ele>
        <time>2019-12-21T13:36:05.435Z</time>
      </trkpt>
      <trkpt lat="41.26923667" lon="1.92495833">
        <ele>197.0</ele>
        <time>2019-12-21T13:36:06.409Z</time>
      </trkpt>
      <trkpt lat="41.26923667" lon="1.92495833">
        <ele>197.0</ele>
        <time>2019-12-21T13:36:07.409Z</time>
      </trkpt>
      <trkpt lat="41.269275" lon="1.925095">
        <ele>195.0</ele>
        <time>2019-12-21T13:36:08.402Z</time>
      </trkpt>
      <trkpt lat="41.269275" lon="1.925095">
        <ele>195.0</ele>
        <time>2019-12-21T13:36:09.443Z</time>
      </trkpt>
      <trkpt lat="41.26923333" lon="1.92518167">
        <ele>192.0</ele>
        <time>2019-12-21T13:36:10.428Z</time>
      </trkpt>
      <trkpt lat="41.26923333" lon="1.92518167">
        <ele>192.0</ele>
        <time>2019-12-21T13:36:11.409Z</time>
      </trkpt>
      <trkpt lat="41.26913333" lon="1.92515667">
        <ele>189.0</ele>
        <time>2019-12-21T13:36:12.408Z</time>
      </trkpt>
      <trkpt lat="41.26913333" lon="1.92515667">
        <ele>189.0</ele>
        <time>2019-12-21T13:36:13.431Z</time>
      </trkpt>
      <trkpt lat="41.269025" lon="1.92504833">
        <ele>185.0</ele>
        <time>2019-12-21T13:36:14.432Z</time>
      </trkpt>
      <trkpt lat="41.269025" lon="1.92504833">
        <ele>185.0</ele>
        <time>2019-12-21T13:36:15.433Z</time>
      </trkpt>
      <trkpt lat="41.26888667" lon="1.92487667">
        <ele>181.0</ele>
        <time>2019-12-21T13:36:16.407Z</time>
      </trkpt>
      <trkpt lat="41.26888667" lon="1.92487667">
        <ele>181.0</ele>
        <time>2019-12-21T13:36:17.408Z</time>
      </trkpt>
      <trkpt lat="41.268735" lon="1.92464833">
        <ele>179.0</ele>
        <time>2019-12-21T13:36:18.407Z</time>
      </trkpt>
      <trkpt lat="41.268735" lon="1.92464833">
        <ele>179.0</ele>
        <time>2019-12-21T13:36:19.409Z</time>
      </trkpt>
      <trkpt lat="41.26857333" lon="1.92439">
        <ele>175.0</ele>
        <time>2019-12-21T13:36:20.404Z</time>
      </trkpt>
      <trkpt lat="41.26857333" lon="1.92439">
        <ele>175.0</ele>
        <time>2019-12-21T13:36:21.433Z</time>
      </trkpt>
      <trkpt lat="41.26839167" lon="1.92411833">
        <ele>171.0</ele>
        <time>2019-12-21T13:36:22.405Z</time>
      </trkpt>
      <trkpt lat="41.26839167" lon="1.92411833">
        <ele>171.0</ele>
        <time>2019-12-21T13:36:23.406Z</time>
      </trkpt>
      <trkpt lat="41.26822167" lon="1.92385">
        <ele>167.0</ele>
        <time>2019-12-21T13:36:24.403Z</time>
      </trkpt>
      <trkpt lat="41.26822167" lon="1.92385">
        <ele>167.0</ele>
        <time>2019-12-21T13:36:25.433Z</time>
      </trkpt>
      <trkpt lat="41.26810333" lon="1.92364">
        <ele>163.0</ele>
        <time>2019-12-21T13:36:26.409Z</time>
      </trkpt>
      <trkpt lat="41.26810333" lon="1.92364">
        <ele>163.0</ele>
        <time>2019-12-21T13:36:27.434Z</time>
      </trkpt>
      <trkpt lat="41.26804" lon="1.923445">
        <ele>160.0</ele>
        <time>2019-12-21T13:36:28.405Z</time>
      </trkpt>
      <trkpt lat="41.26804" lon="1.923445">
        <ele>160.0</ele>
        <time>2019-12-21T13:36:29.406Z</time>
      </trkpt>
      <trkpt lat="41.267955" lon="1.92332167">
        <ele>157.0</ele>
        <time>2019-12-21T13:36:30.403Z</time>
      </trkpt>
      <trkpt lat="41.26788833" lon="1.92331333">
        <ele>156.0</ele>
        <time>2019-12-21T13:36:31.403Z</time>
      </trkpt>
      <trkpt lat="41.26788833" lon="1.92331333">
        <ele>156.0</ele>
        <time>2019-12-21T13:36:32.434Z</time>
      </trkpt>
      <trkpt lat="41.26776667" lon="1.923415">
        <ele>153.0</ele>
        <time>2019-12-21T13:36:33.399Z</time>
      </trkpt>
      <trkpt lat="41.267745" lon="1.92351333">
        <ele>152.0</ele>
        <time>2019-12-21T13:36:34.400Z</time>
      </trkpt>
      <trkpt lat="41.26777167" lon="1.92362">
        <ele>150.0</ele>
        <time>2019-12-21T13:36:35.411Z</time>
      </trkpt>
      <trkpt lat="41.26777167" lon="1.92362">
        <ele>150.0</ele>
        <time>2019-12-21T13:36:36.433Z</time>
      </trkpt>
      <trkpt lat="41.26782" lon="1.92385833">
        <ele>148.0</ele>
        <time>2019-12-21T13:36:37.406Z</time>
      </trkpt>
      <trkpt lat="41.26784833" lon="1.92398167">
        <ele>147.0</ele>
        <time>2019-12-21T13:36:38.402Z</time>
      </trkpt>
      <trkpt lat="41.26784833" lon="1.92398167">
        <ele>147.0</ele>
        <time>2019-12-21T13:36:39.433Z</time>
      </trkpt>
      <trkpt lat="41.26789" lon="1.92421333">
        <ele>143.0</ele>
        <time>2019-12-21T13:36:40.407Z</time>
      </trkpt>
      <trkpt lat="41.26789" lon="1.92421333">
        <ele>143.0</ele>
        <time>2019-12-21T13:36:41.409Z</time>
      </trkpt>
      <trkpt lat="41.267945" lon="1.92442167">
        <ele>141.0</ele>
        <time>2019-12-21T13:36:42.409Z</time>
      </trkpt>
      <trkpt lat="41.267945" lon="1.92442167">
        <ele>141.0</ele>
        <time>2019-12-21T13:36:43.433Z</time>
      </trkpt>
      <trkpt lat="41.26797167" lon="1.92465667">
        <ele>139.0</ele>
        <time>2019-12-21T13:36:44.406Z</time>
      </trkpt>
      <trkpt lat="41.26796833" lon="1.924895">
        <ele>137.0</ele>
        <time>2019-12-21T13:36:45.433Z</time>
      </trkpt>
      <trkpt lat="41.26796833" lon="1.924895">
        <ele>137.0</ele>
        <time>2019-12-21T13:36:46.432Z</time>
      </trkpt>
      <trkpt lat="41.26797" lon="1.92501">
        <ele>137.0</ele>
        <time>2019-12-21T13:36:47.406Z</time>
      </trkpt>
      <trkpt lat="41.26797833" lon="1.92512333">
        <ele>136.0</ele>
        <time>2019-12-21T13:36:48.402Z</time>
      </trkpt>
      <trkpt lat="41.26797833" lon="1.92512333">
        <ele>136.0</ele>
        <time>2019-12-21T13:36:49.399Z</time>
      </trkpt>
      <trkpt lat="41.26800167" lon="1.92536667">
        <ele>134.0</ele>
        <time>2019-12-21T13:36:50.433Z</time>
      </trkpt>
      <trkpt lat="41.26800333" lon="1.92550333">
        <ele>133.0</ele>
        <time>2019-12-21T13:36:51.429Z</time>
      </trkpt>
      <trkpt lat="41.26800333" lon="1.92550333">
        <ele>133.0</ele>
        <time>2019-12-21T13:36:52.433Z</time>
      </trkpt>
      <trkpt lat="41.26799333" lon="1.925795">
        <ele>130.0</ele>
        <time>2019-12-21T13:36:53.407Z</time>
      </trkpt>
      <trkpt lat="41.268005" lon="1.92594667">
        <ele>128.0</ele>
        <time>2019-12-21T13:36:54.407Z</time>
      </trkpt>
      <trkpt lat="41.268005" lon="1.92594667">
        <ele>128.0</ele>
        <time>2019-12-21T13:36:55.414Z</time>
      </trkpt>
      <trkpt lat="41.26806667" lon="1.92620667">
        <ele>125.0</ele>
        <time>2019-12-21T13:36:56.434Z</time>
      </trkpt>
      <trkpt lat="41.26806667" lon="1.92620667">
        <ele>125.0</ele>
        <time>2019-12-21T13:36:57.439Z</time>
      </trkpt>
      <trkpt lat="41.26814833" lon="1.92640833">
        <ele>123.0</ele>
        <time>2019-12-21T13:36:58.433Z</time>
      </trkpt>
      <trkpt lat="41.26816333" lon="1.926485">
        <ele>122.0</ele>
        <time>2019-12-21T13:36:59.400Z</time>
      </trkpt>
      <trkpt lat="41.26815333" lon="1.92654">
        <ele>121.0</ele>
        <time>2019-12-21T13:37:00.402Z</time>
      </trkpt>
      <trkpt lat="41.26815333" lon="1.92654">
        <ele>121.0</ele>
        <time>2019-12-21T13:37:01.433Z</time>
      </trkpt>
      <trkpt lat="41.26806833" lon="1.92657667">
        <ele>118.0</ele>
        <time>2019-12-21T13:37:02.398Z</time>
      </trkpt>
      <trkpt lat="41.26802167" lon="1.92654333">
        <ele>117.0</ele>
        <time>2019-12-21T13:37:03.403Z</time>
      </trkpt>
      <trkpt lat="41.26798167" lon="1.92648667">
        <ele>116.0</ele>
        <time>2019-12-21T13:37:04.439Z</time>
      </trkpt>
      <trkpt lat="41.26794167" lon="1.92641667">
        <ele>115.0</ele>
        <time>2019-12-21T13:37:05.433Z</time>
      </trkpt>
      <trkpt lat="41.26794167" lon="1.92641667">
        <ele>115.0</ele>
        <time>2019-12-21T13:37:06.433Z</time>
      </trkpt>
      <trkpt lat="41.26787167" lon="1.926255">
        <ele>113.0</ele>
        <time>2019-12-21T13:37:07.407Z</time>
      </trkpt>
      <trkpt lat="41.26784" lon="1.92617">
        <ele>113.0</ele>
        <time>2019-12-21T13:37:08.405Z</time>
      </trkpt>
      <trkpt lat="41.26784" lon="1.92617">
        <ele>113.0</ele>
        <time>2019-12-21T13:37:09.433Z</time>
      </trkpt>
      <trkpt lat="41.26779667" lon="1.92599833">
        <ele>111.0</ele>
        <time>2019-12-21T13:37:10.406Z</time>
      </trkpt>
      <trkpt lat="41.26779667" lon="1.92599833">
        <ele>111.0</ele>
        <time>2019-12-21T13:37:11.407Z</time>
      </trkpt>
      <trkpt lat="41.26777" lon="1.925825">
        <ele>109.0</ele>
        <time>2019-12-21T13:37:12.406Z</time>
      </trkpt>
      <trkpt lat="41.26777" lon="1.925825">
        <ele>109.0</ele>
        <time>2019-12-21T13:37:13.407Z</time>
      </trkpt>
      <trkpt lat="41.26774333" lon="1.92564667">
        <ele>108.0</ele>
        <time>2019-12-21T13:37:14.405Z</time>
      </trkpt>
      <trkpt lat="41.26774333" lon="1.92564667">
        <ele>108.0</ele>
        <time>2019-12-21T13:37:15.433Z</time>
      </trkpt>
      <trkpt lat="41.267705" lon="1.92545667">
        <ele>106.0</ele>
        <time>2019-12-21T13:37:16.428Z</time>
      </trkpt>
      <trkpt lat="41.267705" lon="1.92545667">
        <ele>106.0</ele>
        <time>2019-12-21T13:37:17.415Z</time>
      </trkpt>
      <trkpt lat="41.26763833" lon="1.92529">
        <ele>104.0</ele>
        <time>2019-12-21T13:37:18.409Z</time>
      </trkpt>
      <trkpt lat="41.26763833" lon="1.92529">
        <ele>104.0</ele>
        <time>2019-12-21T13:37:19.434Z</time>
      </trkpt>
      <trkpt lat="41.26755167" lon="1.92512333">
        <ele>102.0</ele>
        <time>2019-12-21T13:37:20.407Z</time>
      </trkpt>
      <trkpt lat="41.26755167" lon="1.92512333">
        <ele>102.0</ele>
        <time>2019-12-21T13:37:21.433Z</time>
      </trkpt>
      <trkpt lat="41.26747833" lon="1.924905">
        <ele>99.0</ele>
        <time>2019-12-21T13:37:22.406Z</time>
      </trkpt>
      <trkpt lat="41.26745" lon="1.92479833">
        <ele>98.0</ele>
        <time>2019-12-21T13:37:23.406Z</time>
      </trkpt>
      <trkpt lat="41.26745" lon="1.92479833">
        <ele>98.0</ele>
        <time>2019-12-21T13:37:24.407Z</time>
      </trkpt>
      <trkpt lat="41.26736667" lon="1.92467833">
        <ele>96.0</ele>
        <time>2019-12-21T13:37:25.405Z</time>
      </trkpt>
      <trkpt lat="41.26736667" lon="1.92467833">
        <ele>96.0</ele>
        <time>2019-12-21T13:37:26.409Z</time>
      </trkpt>
      <trkpt lat="41.26726167" lon="1.92469">
        <ele>94.0</ele>
        <time>2019-12-21T13:37:27.432Z</time>
      </trkpt>
      <trkpt lat="41.26726167" lon="1.92469">
        <ele>94.0</ele>
        <time>2019-12-21T13:37:28.433Z</time>
      </trkpt>
      <trkpt lat="41.267195" lon="1.924735">
        <ele>92.0</ele>
        <time>2019-12-21T13:37:29.406Z</time>
      </trkpt>
      <trkpt lat="41.26722" lon="1.92479167">
        <ele>91.0</ele>
        <time>2019-12-21T13:37:30.406Z</time>
      </trkpt>
      <trkpt lat="41.26722" lon="1.92479167">
        <ele>91.0</ele>
        <time>2019-12-21T13:37:31.406Z</time>
      </trkpt>
      <trkpt lat="41.267225" lon="1.92495">
        <ele>90.0</ele>
        <time>2019-12-21T13:37:32.398Z</time>
      </trkpt>
      <trkpt lat="41.267225" lon="1.92495">
        <ele>90.0</ele>
        <time>2019-12-21T13:37:33.402Z</time>
      </trkpt>
      <trkpt lat="41.267265" lon="1.92513333">
        <ele>89.0</ele>
        <time>2019-12-21T13:37:34.403Z</time>
      </trkpt>
      <trkpt lat="41.26729833" lon="1.92521833">
        <ele>88.0</ele>
        <time>2019-12-21T13:37:35.426Z</time>
      </trkpt>
      <trkpt lat="41.26729833" lon="1.92521833">
        <ele>88.0</ele>
        <time>2019-12-21T13:37:36.409Z</time>
      </trkpt>
      <trkpt lat="41.26737667" lon="1.92536833">
        <ele>87.0</ele>
        <time>2019-12-21T13:37:37.428Z</time>
      </trkpt>
      <trkpt lat="41.26737667" lon="1.92536833">
        <ele>87.0</ele>
        <time>2019-12-21T13:37:38.433Z</time>
      </trkpt>
      <trkpt lat="41.26746" lon="1.92551167">
        <ele>86.0</ele>
        <time>2019-12-21T13:37:39.428Z</time>
      </trkpt>
      <trkpt lat="41.26746" lon="1.92551167">
        <ele>86.0</ele>
        <time>2019-12-21T13:37:40.433Z</time>
      </trkpt>
      <trkpt lat="41.26746" lon="1.92566333">
        <ele>86.0</ele>
        <time>2019-12-21T13:37:41.411Z</time>
      </trkpt>
      <trkpt lat="41.26742833" lon="1.92573833">
        <ele>85.0</ele>
        <time>2019-12-21T13:37:42.409Z</time>
      </trkpt>
      <trkpt lat="41.26742833" lon="1.92573833">
        <ele>85.0</ele>
        <time>2019-12-21T13:37:43.433Z</time>
      </trkpt>
      <trkpt lat="41.26734167" lon="1.92590833">
        <ele>84.0</ele>
        <time>2019-12-21T13:37:44.433Z</time>
      </trkpt>
      <trkpt lat="41.26734167" lon="1.92590833">
        <ele>84.0</ele>
        <time>2019-12-21T13:37:45.432Z</time>
      </trkpt>
      <trkpt lat="41.267315" lon="1.92614">
        <ele>83.0</ele>
        <time>2019-12-21T13:37:46.432Z</time>
      </trkpt>
      <trkpt lat="41.26733" lon="1.92626333">
        <ele>82.0</ele>
        <time>2019-12-21T13:37:47.406Z</time>
      </trkpt>
      <trkpt lat="41.26736667" lon="1.926385">
        <ele>81.0</ele>
        <time>2019-12-21T13:37:48.409Z</time>
      </trkpt>
      <trkpt lat="41.26736667" lon="1.926385">
        <ele>81.0</ele>
        <time>2019-12-21T13:37:49.433Z</time>
      </trkpt>
      <trkpt lat="41.26746667" lon="1.92661667">
        <ele>79.0</ele>
        <time>2019-12-21T13:37:50.406Z</time>
      </trkpt>
      <trkpt lat="41.26746667" lon="1.92661667">
        <ele>79.0</ele>
        <time>2019-12-21T13:37:51.433Z</time>
      </trkpt>
      <trkpt lat="41.26756333" lon="1.92685333">
        <ele>78.0</ele>
        <time>2019-12-21T13:37:52.410Z</time>
      </trkpt>
      <trkpt lat="41.26756333" lon="1.92685333">
        <ele>78.0</ele>
        <time>2019-12-21T13:37:53.411Z</time>
      </trkpt>
      <trkpt lat="41.26766333" lon="1.9271">
        <ele>76.0</ele>
        <time>2019-12-21T13:37:54.408Z</time>
      </trkpt>
      <trkpt lat="41.26766333" lon="1.9271">
        <ele>76.0</ele>
        <time>2019-12-21T13:37:55.433Z</time>
      </trkpt>
      <trkpt lat="41.26775333" lon="1.92735667">
        <ele>74.0</ele>
        <time>2019-12-21T13:37:56.407Z</time>
      </trkpt>
      <trkpt lat="41.26775333" lon="1.92735667">
        <ele>74.0</ele>
        <time>2019-12-21T13:37:57.434Z</time>
      </trkpt>
      <trkpt lat="41.26780167" lon="1.927595">
        <ele>72.0</ele>
        <time>2019-12-21T13:37:58.399Z</time>
      </trkpt>
      <trkpt lat="41.267825" lon="1.92769">
        <ele>71.0</ele>
        <time>2019-12-21T13:37:59.410Z</time>
      </trkpt>
      <trkpt lat="41.26785" lon="1.92777">
        <ele>70.0</ele>
        <time>2019-12-21T13:38:00.428Z</time>
      </trkpt>
      <trkpt lat="41.26785" lon="1.92777">
        <ele>70.0</ele>
        <time>2019-12-21T13:38:01.432Z</time>
      </trkpt>
      <trkpt lat="41.26789167" lon="1.92792167">
        <ele>68.0</ele>
        <time>2019-12-21T13:38:02.406Z</time>
      </trkpt>
      <trkpt lat="41.26789167" lon="1.92792167">
        <ele>68.0</ele>
        <time>2019-12-21T13:38:03.433Z</time>
      </trkpt>
      <trkpt lat="41.26786333" lon="1.928025">
        <ele>66.0</ele>
        <time>2019-12-21T13:38:04.439Z</time>
      </trkpt>
      <trkpt lat="41.26782667" lon="1.92804667">
        <ele>66.0</ele>
        <time>2019-12-21T13:38:05.427Z</time>
      </trkpt>
      <trkpt lat="41.26782667" lon="1.92804667">
        <ele>66.0</ele>
        <time>2019-12-21T13:38:06.414Z</time>
      </trkpt>
      <trkpt lat="41.26774333" lon="1.928015">
        <ele>64.0</ele>
        <time>2019-12-21T13:38:07.407Z</time>
      </trkpt>
      <trkpt lat="41.26774333" lon="1.928015">
        <ele>64.0</ele>
        <time>2019-12-21T13:38:08.433Z</time>
      </trkpt>
      <trkpt lat="41.26768" lon="1.92789667">
        <ele>62.0</ele>
        <time>2019-12-21T13:38:09.428Z</time>
      </trkpt>
      <trkpt lat="41.26768" lon="1.92789667">
        <ele>62.0</ele>
        <time>2019-12-21T13:38:10.433Z</time>
      </trkpt>
      <trkpt lat="41.267625" lon="1.92774">
        <ele>60.0</ele>
        <time>2019-12-21T13:38:11.406Z</time>
      </trkpt>
      <trkpt lat="41.26759333" lon="1.92765667">
        <ele>60.0</ele>
        <time>2019-12-21T13:38:12.405Z</time>
      </trkpt>
      <trkpt lat="41.26759333" lon="1.92765667">
        <ele>60.0</ele>
        <time>2019-12-21T13:38:13.409Z</time>
      </trkpt>
      <trkpt lat="41.26752333" lon="1.92748">
        <ele>58.0</ele>
        <time>2019-12-21T13:38:14.405Z</time>
      </trkpt>
      <trkpt lat="41.26752333" lon="1.92748">
        <ele>58.0</ele>
        <time>2019-12-21T13:38:15.409Z</time>
      </trkpt>
      <trkpt lat="41.26744167" lon="1.9273">
        <ele>56.0</ele>
        <time>2019-12-21T13:38:16.410Z</time>
      </trkpt>
      <trkpt lat="41.26744167" lon="1.9273">
        <ele>56.0</ele>
        <time>2019-12-21T13:38:17.412Z</time>
      </trkpt>
      <trkpt lat="41.26734" lon="1.927125">
        <ele>55.0</ele>
        <time>2019-12-21T13:38:18.428Z</time>
      </trkpt>
      <trkpt lat="41.26734" lon="1.927125">
        <ele>55.0</ele>
        <time>2019-12-21T13:38:19.433Z</time>
      </trkpt>
      <trkpt lat="41.26721333" lon="1.92695167">
        <ele>53.0</ele>
        <time>2019-12-21T13:38:20.406Z</time>
      </trkpt>
      <trkpt lat="41.26721333" lon="1.92695167">
        <ele>53.0</ele>
        <time>2019-12-21T13:38:21.432Z</time>
      </trkpt>
      <trkpt lat="41.26708667" lon="1.92677">
        <ele>51.0</ele>
        <time>2019-12-21T13:38:22.406Z</time>
      </trkpt>
      <trkpt lat="41.26708667" lon="1.92677">
        <ele>51.0</ele>
        <time>2019-12-21T13:38:23.407Z</time>
      </trkpt>
      <trkpt lat="41.26699333" lon="1.92659333">
        <ele>50.0</ele>
        <time>2019-12-21T13:38:24.402Z</time>
      </trkpt>
      <trkpt lat="41.26699333" lon="1.92659333">
        <ele>50.0</ele>
        <time>2019-12-21T13:38:25.402Z</time>
      </trkpt>
      <trkpt lat="41.26691833" lon="1.926425">
        <ele>48.0</ele>
        <time>2019-12-21T13:38:26.414Z</time>
      </trkpt>
      <trkpt lat="41.266895" lon="1.926345">
        <ele>47.0</ele>
        <time>2019-12-21T13:38:27.428Z</time>
      </trkpt>
      <trkpt lat="41.266895" lon="1.926345">
        <ele>47.0</ele>
        <time>2019-12-21T13:38:28.434Z</time>
      </trkpt>
      <trkpt lat="41.26684167" lon="1.92624">
        <ele>46.0</ele>
        <time>2019-12-21T13:38:29.434Z</time>
      </trkpt>
      <trkpt lat="41.26679833" lon="1.92623333">
        <ele>45.0</ele>
        <time>2019-12-21T13:38:30.408Z</time>
      </trkpt>
      <trkpt lat="41.26679833" lon="1.92623333">
        <ele>45.0</ele>
        <time>2019-12-21T13:38:31.433Z</time>
      </trkpt>
      <trkpt lat="41.266725" lon="1.92624167">
        <ele>44.0</ele>
        <time>2019-12-21T13:38:32.406Z</time>
      </trkpt>
      <trkpt lat="41.266725" lon="1.92624167">
        <ele>44.0</ele>
        <time>2019-12-21T13:38:33.406Z</time>
      </trkpt>
      <trkpt lat="41.2667" lon="1.92625333">
        <ele>43.0</ele>
        <time>2019-12-21T13:38:34.428Z</time>
      </trkpt>
      <trkpt lat="41.2667" lon="1.92625333">
        <ele>43.0</ele>
        <time>2019-12-21T13:38:35.435Z</time>
      </trkpt>
      <trkpt lat="41.26668667" lon="1.926255">
        <ele>42.0</ele>
        <time>2019-12-21T13:38:36.409Z</time>
      </trkpt>
      <trkpt lat="41.26667333" lon="1.92626167">
        <ele>41.0</ele>
        <time>2019-12-21T13:38:37.426Z</time>
      </trkpt>
      <trkpt lat="41.26667333" lon="1.92626167">
        <ele>41.0</ele>
        <time>2019-12-21T13:38:38.432Z</time>
      </trkpt>
      <trkpt lat="41.26664833" lon="1.92629">
        <ele>40.0</ele>
        <time>2019-12-21T13:38:39.429Z</time>
      </trkpt>
      <trkpt lat="41.26664833" lon="1.92629">
        <ele>40.0</ele>
        <time>2019-12-21T13:38:40.433Z</time>
      </trkpt>
      <trkpt lat="41.26661667" lon="1.92632167">
        <ele>40.0</ele>
        <time>2019-12-21T13:38:41.399Z</time>
      </trkpt>
      <trkpt lat="41.2666" lon="1.926345">
        <ele>39.0</ele>
        <time>2019-12-21T13:38:42.410Z</time>
      </trkpt>
      <trkpt lat="41.26657667" lon="1.92638">
        <ele>39.0</ele>
        <time>2019-12-21T13:38:43.406Z</time>
      </trkpt>
      <trkpt lat="41.26657667" lon="1.92638">
        <ele>39.0</ele>
        <time>2019-12-21T13:38:44.407Z</time>
      </trkpt>
      <trkpt lat="41.26649833" lon="1.92647333">
        <ele>38.0</ele>
        <time>2019-12-21T13:38:45.409Z</time>
      </trkpt>
      <trkpt lat="41.26649833" lon="1.92647333">
        <ele>38.0</ele>
        <time>2019-12-21T13:38:46.399Z</time>
      </trkpt>
      <trkpt lat="41.26640667" lon="1.92659167">
        <ele>37.0</ele>
        <time>2019-12-21T13:38:47.401Z</time>
      </trkpt>
      <trkpt lat="41.26635833" lon="1.92663667">
        <ele>37.0</ele>
        <time>2019-12-21T13:38:48.405Z</time>
      </trkpt>
      <trkpt lat="41.26635833" lon="1.92663667">
        <ele>37.0</ele>
        <time>2019-12-21T13:38:49.406Z</time>
      </trkpt>
      <trkpt lat="41.266225" lon="1.92666833">
        <ele>36.0</ele>
        <time>2019-12-21T13:38:50.403Z</time>
      </trkpt>
      <trkpt lat="41.266225" lon="1.92666833">
        <ele>36.0</ele>
        <time>2019-12-21T13:38:51.433Z</time>
      </trkpt>
      <trkpt lat="41.26608167" lon="1.92669">
        <ele>34.0</ele>
        <time>2019-12-21T13:38:52.428Z</time>
      </trkpt>
      <trkpt lat="41.26608167" lon="1.92669">
        <ele>34.0</ele>
        <time>2019-12-21T13:38:53.435Z</time>
      </trkpt>
      <trkpt lat="41.26592333" lon="1.926695">
        <ele>33.0</ele>
        <time>2019-12-21T13:38:54.409Z</time>
      </trkpt>
      <trkpt lat="41.26592333" lon="1.926695">
        <ele>33.0</ele>
        <time>2019-12-21T13:38:55.434Z</time>
      </trkpt>
      <trkpt lat="41.26579833" lon="1.92670167">
        <ele>32.0</ele>
        <time>2019-12-21T13:38:56.409Z</time>
      </trkpt>
      <trkpt lat="41.26579833" lon="1.92670167">
        <ele>32.0</ele>
        <time>2019-12-21T13:38:57.410Z</time>
      </trkpt>
      <trkpt lat="41.265685" lon="1.92669">
        <ele>31.0</ele>
        <time>2019-12-21T13:38:58.407Z</time>
      </trkpt>
      <trkpt lat="41.265685" lon="1.92669">
        <ele>31.0</ele>
        <time>2019-12-21T13:38:59.411Z</time>
      </trkpt>
      <trkpt lat="41.26556667" lon="1.92664">
        <ele>29.0</ele>
        <time>2019-12-21T13:39:00.408Z</time>
      </trkpt>
      <trkpt lat="41.26556667" lon="1.92664">
        <ele>29.0</ele>
        <time>2019-12-21T13:39:01.433Z</time>
      </trkpt>
      <trkpt lat="41.26545333" lon="1.92665667">
        <ele>28.0</ele>
        <time>2019-12-21T13:39:02.406Z</time>
      </trkpt>
      <trkpt lat="41.26545333" lon="1.92665667">
        <ele>28.0</ele>
        <time>2019-12-21T13:39:03.433Z</time>
      </trkpt>
      <trkpt lat="41.265375" lon="1.92666667">
        <ele>26.0</ele>
        <time>2019-12-21T13:39:04.434Z</time>
      </trkpt>
      <trkpt lat="41.265375" lon="1.92666667">
        <ele>26.0</ele>
        <time>2019-12-21T13:39:05.435Z</time>
      </trkpt>
      <trkpt lat="41.26533" lon="1.92667333">
        <ele>26.0</ele>
        <time>2019-12-21T13:39:06.409Z</time>
      </trkpt>
      <trkpt lat="41.26530833" lon="1.92667333">
        <ele>25.0</ele>
        <time>2019-12-21T13:39:07.404Z</time>
      </trkpt>
      <trkpt lat="41.26530833" lon="1.92667333">
        <ele>25.0</ele>
        <time>2019-12-21T13:39:08.407Z</time>
      </trkpt>
      <trkpt lat="41.26527167" lon="1.92667833">
        <ele>24.0</ele>
        <time>2019-12-21T13:39:09.426Z</time>
      </trkpt>
      <trkpt lat="41.26527167" lon="1.92667833">
        <ele>24.0</ele>
        <time>2019-12-21T13:39:10.433Z</time>
      </trkpt>
      <trkpt lat="41.26525" lon="1.92668">
        <ele>23.0</ele>
        <time>2019-12-21T13:39:11.406Z</time>
      </trkpt>
      <trkpt lat="41.26523833" lon="1.92669167">
        <ele>22.0</ele>
        <time>2019-12-21T13:39:12.434Z</time>
      </trkpt>
      <trkpt lat="41.26521167" lon="1.92670167">
        <ele>22.0</ele>
        <time>2019-12-21T13:39:13.431Z</time>
      </trkpt>
      <trkpt lat="41.26521167" lon="1.92670167">
        <ele>22.0</ele>
        <time>2019-12-21T13:39:14.434Z</time>
      </trkpt>
      <trkpt lat="41.26512" lon="1.926735">
        <ele>21.0</ele>
        <time>2019-12-21T13:39:15.407Z</time>
      </trkpt>
      <trkpt lat="41.26499167" lon="1.92677">
        <ele>20.0</ele>
        <time>2019-12-21T13:39:16.438Z</time>
      </trkpt>
      <trkpt lat="41.26499167" lon="1.92677">
        <ele>20.0</ele>
        <time>2019-12-21T13:39:17.434Z</time>
      </trkpt>
      <trkpt lat="41.26491167" lon="1.92679167">
        <ele>19.0</ele>
        <time>2019-12-21T13:39:18.408Z</time>
      </trkpt>
      <trkpt lat="41.26482667" lon="1.92681333">
        <ele>19.0</ele>
        <time>2019-12-21T13:39:19.404Z</time>
      </trkpt>
      <trkpt lat="41.26482667" lon="1.92681333">
        <ele>19.0</ele>
        <time>2019-12-21T13:39:20.434Z</time>
      </trkpt>
      <trkpt lat="41.26465667" lon="1.92686667">
        <ele>18.0</ele>
        <time>2019-12-21T13:39:21.406Z</time>
      </trkpt>
      <trkpt lat="41.26465667" lon="1.92686667">
        <ele>18.0</ele>
        <time>2019-12-21T13:39:22.407Z</time>
      </trkpt>
      <trkpt lat="41.26448667" lon="1.92690667">
        <ele>17.0</ele>
        <time>2019-12-21T13:39:23.409Z</time>
      </trkpt>
      <trkpt lat="41.26448667" lon="1.92690667">
        <ele>17.0</ele>
        <time>2019-12-21T13:39:24.433Z</time>
      </trkpt>
      <trkpt lat="41.26432" lon="1.926955">
        <ele>16.0</ele>
        <time>2019-12-21T13:39:25.406Z</time>
      </trkpt>
      <trkpt lat="41.26432" lon="1.926955">
        <ele>16.0</ele>
        <time>2019-12-21T13:39:26.426Z</time>
      </trkpt>
      <trkpt lat="41.26414833" lon="1.92700167">
        <ele>15.0</ele>
        <time>2019-12-21T13:39:27.437Z</time>
      </trkpt>
      <trkpt lat="41.26406333" lon="1.92702167">
        <ele>14.0</ele>
        <time>2019-12-21T13:39:28.402Z</time>
      </trkpt>
      <trkpt lat="41.26398" lon="1.92704333">
        <ele>14.0</ele>
        <time>2019-12-21T13:39:29.432Z</time>
      </trkpt>
      <trkpt lat="41.26390167" lon="1.92707167">
        <ele>13.0</ele>
        <time>2019-12-21T13:39:30.434Z</time>
      </trkpt>
      <trkpt lat="41.26382667" lon="1.9271">
        <ele>13.0</ele>
        <time>2019-12-21T13:39:31.407Z</time>
      </trkpt>
      <trkpt lat="41.26382667" lon="1.9271">
        <ele>13.0</ele>
        <time>2019-12-21T13:39:32.402Z</time>
      </trkpt>
      <trkpt lat="41.263685" lon="1.92716833">
        <ele>12.0</ele>
        <time>2019-12-21T13:39:33.404Z</time>
      </trkpt>
      <trkpt lat="41.263685" lon="1.92716833">
        <ele>12.0</ele>
        <time>2019-12-21T13:39:34.399Z</time>
      </trkpt>
      <trkpt lat="41.26354667" lon="1.927255">
        <ele>11.0</ele>
        <time>2019-12-21T13:39:35.409Z</time>
      </trkpt>
      <trkpt lat="41.26347667" lon="1.92730667">
        <ele>11.0</ele>
        <time>2019-12-21T13:39:36.437Z</time>
      </trkpt>
      <trkpt lat="41.26347667" lon="1.92730667">
        <ele>11.0</ele>
        <time>2019-12-21T13:39:37.456Z</time>
      </trkpt>
      <trkpt lat="41.26334167" lon="1.9274">
        <ele>10.0</ele>
        <time>2019-12-21T13:39:38.432Z</time>
      </trkpt>
      <trkpt lat="41.26334167" lon="1.9274">
        <ele>10.0</ele>
        <time>2019-12-21T13:39:39.434Z</time>
      </trkpt>
      <trkpt lat="41.26324333" lon="1.92751">
        <ele>10.0</ele>
        <time>2019-12-21T13:39:40.406Z</time>
      </trkpt>
      <trkpt lat="41.26324333" lon="1.92751">
        <ele>10.0</ele>
        <time>2019-12-21T13:39:41.399Z</time>
      </trkpt>
      <trkpt lat="41.26316833" lon="1.9276">
        <ele>9.0</ele>
        <time>2019-12-21T13:39:42.434Z</time>
      </trkpt>
      <trkpt lat="41.26315667" lon="1.92762167">
        <ele>9.0</ele>
        <time>2019-12-21T13:39:43.430Z</time>
      </trkpt>
      <trkpt lat="41.26315667" lon="1.92762167">
        <ele>9.0</ele>
        <time>2019-12-21T13:39:44.434Z</time>
      </trkpt>
      <trkpt lat="41.26315667" lon="1.927645">
        <ele>9.0</ele>
        <time>2019-12-21T13:39:45.409Z</time>
      </trkpt>
      <trkpt lat="41.26315667" lon="1.927645">
        <ele>9.0</ele>
        <time>2019-12-21T13:39:46.434Z</time>
      </trkpt>
      <trkpt lat="41.26315333" lon="1.92766">
        <ele>9.0</ele>
        <time>2019-12-21T13:39:47.407Z</time>
      </trkpt>
      <trkpt lat="41.26315333" lon="1.92766">
        <ele>9.0</ele>
        <time>2019-12-21T13:39:48.411Z</time>
      </trkpt>
      <trkpt lat="41.26311833" lon="1.92776167">
        <ele>9.0</ele>
        <time>2019-12-21T13:39:49.414Z</time>
      </trkpt>
      <trkpt lat="41.26312833" lon="1.92780167">
        <ele>9.0</ele>
        <time>2019-12-21T13:39:50.407Z</time>
      </trkpt>
      <trkpt lat="41.26312833" lon="1.92780167">
        <ele>9.0</ele>
        <time>2019-12-21T13:39:51.405Z</time>
      </trkpt>
      <trkpt lat="41.263175" lon="1.92788833">
        <ele>9.0</ele>
        <time>2019-12-21T13:39:52.410Z</time>
      </trkpt>
      <trkpt lat="41.263175" lon="1.92788833">
        <ele>9.0</ele>
        <time>2019-12-21T13:39:53.404Z</time>
      </trkpt>
      <trkpt lat="41.26321667" lon="1.927965">
        <ele>9.0</ele>
        <time>2019-12-21T13:39:54.409Z</time>
      </trkpt>
      <trkpt lat="41.26321667" lon="1.927965">
        <ele>9.0</ele>
        <time>2019-12-21T13:39:55.405Z</time>
      </trkpt>
      <trkpt lat="41.26324833" lon="1.92803667">
        <ele>9.0</ele>
        <time>2019-12-21T13:39:56.409Z</time>
      </trkpt>
      <trkpt lat="41.26324833" lon="1.92803667">
        <ele>9.0</ele>
        <time>2019-12-21T13:39:57.405Z</time>
      </trkpt>
      <trkpt lat="41.26328" lon="1.92812167">
        <ele>9.0</ele>
        <time>2019-12-21T13:39:58.428Z</time>
      </trkpt>
      <trkpt lat="41.26329667" lon="1.92817667">
        <ele>9.0</ele>
        <time>2019-12-21T13:39:59.413Z</time>
      </trkpt>
      <trkpt lat="41.26331" lon="1.92824333">
        <ele>9.0</ele>
        <time>2019-12-21T13:40:00.419Z</time>
      </trkpt>
      <trkpt lat="41.26331" lon="1.92824333">
        <ele>9.0</ele>
        <time>2019-12-21T13:40:01.406Z</time>
      </trkpt>
      <trkpt lat="41.263335" lon="1.92840333">
        <ele>8.0</ele>
        <time>2019-12-21T13:40:02.410Z</time>
      </trkpt>
      <trkpt lat="41.26334" lon="1.92849167">
        <ele>8.0</ele>
        <time>2019-12-21T13:40:03.410Z</time>
      </trkpt>
      <trkpt lat="41.26334" lon="1.92849167">
        <ele>8.0</ele>
        <time>2019-12-21T13:40:04.408Z</time>
      </trkpt>
      <trkpt lat="41.26335167" lon="1.92868667">
        <ele>8.0</ele>
        <time>2019-12-21T13:40:05.409Z</time>
      </trkpt>
      <trkpt lat="41.26335167" lon="1.92868667">
        <ele>8.0</ele>
        <time>2019-12-21T13:40:06.404Z</time>
      </trkpt>
      <trkpt lat="41.26336667" lon="1.92889667">
        <ele>7.0</ele>
        <time>2019-12-21T13:40:07.409Z</time>
      </trkpt>
      <trkpt lat="41.26336667" lon="1.92889667">
        <ele>7.0</ele>
        <time>2019-12-21T13:40:08.406Z</time>
      </trkpt>
      <trkpt lat="41.26337333" lon="1.92911667">
        <ele>6.0</ele>
        <time>2019-12-21T13:40:09.408Z</time>
      </trkpt>
      <trkpt lat="41.263375" lon="1.92922667">
        <ele>5.0</ele>
        <time>2019-12-21T13:40:10.407Z</time>
      </trkpt>
      <trkpt lat="41.263375" lon="1.92922667">
        <ele>5.0</ele>
        <time>2019-12-21T13:40:11.407Z</time>
      </trkpt>
      <trkpt lat="41.26337" lon="1.92943333">
        <ele>4.0</ele>
        <time>2019-12-21T13:40:12.416Z</time>
      </trkpt>
      <trkpt lat="41.26337" lon="1.92943333">
        <ele>4.0</ele>
        <time>2019-12-21T13:40:13.409Z</time>
      </trkpt>
      <trkpt lat="41.26334833" lon="1.92961167">
        <ele>4.0</ele>
        <time>2019-12-21T13:40:14.409Z</time>
      </trkpt>
      <trkpt lat="41.26334833" lon="1.92961167">
        <ele>4.0</ele>
        <time>2019-12-21T13:40:15.405Z</time>
      </trkpt>
      <trkpt lat="41.26332" lon="1.92976333">
        <ele>3.0</ele>
        <time>2019-12-21T13:40:16.409Z</time>
      </trkpt>
      <trkpt lat="41.26332" lon="1.92976333">
        <ele>3.0</ele>
        <time>2019-12-21T13:40:17.407Z</time>
      </trkpt>
      <trkpt lat="41.26328" lon="1.929885">
        <ele>3.0</ele>
        <time>2019-12-21T13:40:18.430Z</time>
      </trkpt>
      <trkpt lat="41.26326333" lon="1.92993667">
        <ele>2.0</ele>
        <time>2019-12-21T13:40:19.418Z</time>
      </trkpt>
      <trkpt lat="41.26325" lon="1.92998167">
        <ele>2.0</ele>
        <time>2019-12-21T13:40:20.409Z</time>
      </trkpt>
      <trkpt lat="41.26325" lon="1.92998167">
        <ele>2.0</ele>
        <time>2019-12-21T13:40:21.405Z</time>
      </trkpt>
      <trkpt lat="41.26319" lon="1.93002">
        <ele>1.0</ele>
        <time>2019-12-21T13:40:22.407Z</time>
      </trkpt>
      <trkpt lat="41.26319" lon="1.93002">
        <ele>1.0</ele>
        <time>2019-12-21T13:40:23.404Z</time>
      </trkpt>
      <trkpt lat="41.26309333" lon="1.93003833">
        <ele>0.0</ele>
        <time>2019-12-21T13:40:24.410Z</time>
      </trkpt>
      <trkpt lat="41.26309333" lon="1.93003833">
        <ele>0.0</ele>
        <time>2019-12-21T13:40:25.406Z</time>
      </trkpt>
      <trkpt lat="41.26301667" lon="1.93006667">
        <ele>0.0</ele>
        <time>2019-12-21T13:40:26.409Z</time>
      </trkpt>
      <trkpt lat="41.26301667" lon="1.93006667">
        <ele>0.0</ele>
        <time>2019-12-21T13:40:27.405Z</time>
      </trkpt>
      <trkpt lat="41.26294667" lon="1.9301">
        <ele>-1.0</ele>
        <time>2019-12-21T13:40:28.409Z</time>
      </trkpt>
      <trkpt lat="41.26294667" lon="1.9301">
        <ele>-1.0</ele>
        <time>2019-12-21T13:40:29.407Z</time>
      </trkpt>
      <trkpt lat="41.26288167" lon="1.93013333">
        <ele>-2.0</ele>
        <time>2019-12-21T13:40:30.410Z</time>
      </trkpt>
      <trkpt lat="41.26288167" lon="1.93013333">
        <ele>-2.0</ele>
        <time>2019-12-21T13:40:31.406Z</time>
      </trkpt>
      <trkpt lat="41.262765" lon="1.93016667">
        <ele>-2.0</ele>
        <time>2019-12-21T13:40:32.432Z</time>
      </trkpt>
      <trkpt lat="41.2627" lon="1.930195">
        <ele>-3.0</ele>
        <time>2019-12-21T13:40:33.418Z</time>
      </trkpt>
      <trkpt lat="41.2627" lon="1.930195">
        <ele>-3.0</ele>
        <time>2019-12-21T13:40:34.407Z</time>
      </trkpt>
      <trkpt lat="41.262565" lon="1.93027667">
        <ele>-3.0</ele>
        <time>2019-12-21T13:40:35.409Z</time>
      </trkpt>
      <trkpt lat="41.262565" lon="1.93027667">
        <ele>-3.0</ele>
        <time>2019-12-21T13:40:36.404Z</time>
      </trkpt>
      <trkpt lat="41.26249833" lon="1.93039333">
        <ele>-2.0</ele>
        <time>2019-12-21T13:40:37.427Z</time>
      </trkpt>
      <trkpt lat="41.26249833" lon="1.93039333">
        <ele>-2.0</ele>
        <time>2019-12-21T13:40:38.410Z</time>
      </trkpt>
      <trkpt lat="41.26249167" lon="1.9305">
        <ele>-1.0</ele>
        <time>2019-12-21T13:40:39.409Z</time>
      </trkpt>
      <trkpt lat="41.26250167" lon="1.93055333">
        <ele>-1.0</ele>
        <time>2019-12-21T13:40:40.409Z</time>
      </trkpt>
      <trkpt lat="41.26250167" lon="1.93055333">
        <ele>-1.0</ele>
        <time>2019-12-21T13:40:41.422Z</time>
      </trkpt>
      <trkpt lat="41.26252" lon="1.93065833">
        <ele>0.0</ele>
        <time>2019-12-21T13:40:42.410Z</time>
      </trkpt>
      <trkpt lat="41.26252" lon="1.93065833">
        <ele>0.0</ele>
        <time>2019-12-21T13:40:43.406Z</time>
      </trkpt>
      <trkpt lat="41.26255167" lon="1.93078333">
        <ele>0.0</ele>
        <time>2019-12-21T13:40:44.414Z</time>
      </trkpt>
      <trkpt lat="41.26255167" lon="1.93078333">
        <ele>0.0</ele>
        <time>2019-12-21T13:40:45.404Z</time>
      </trkpt>
      <trkpt lat="41.26259167" lon="1.93091333">
        <ele>1.0</ele>
        <time>2019-12-21T13:40:46.410Z</time>
      </trkpt>
      <trkpt lat="41.26260833" lon="1.93097833">
        <ele>1.0</ele>
        <time>2019-12-21T13:40:47.411Z</time>
      </trkpt>
      <trkpt lat="41.26260833" lon="1.93097833">
        <ele>1.0</ele>
        <time>2019-12-21T13:40:48.407Z</time>
      </trkpt>
      <trkpt lat="41.26264833" lon="1.931115">
        <ele>1.0</ele>
        <time>2019-12-21T13:40:49.411Z</time>
      </trkpt>
      <trkpt lat="41.26264833" lon="1.931115">
        <ele>1.0</ele>
        <time>2019-12-21T13:40:50.405Z</time>
      </trkpt>
      <trkpt lat="41.26269" lon="1.93124833">
        <ele>1.0</ele>
        <time>2019-12-21T13:40:51.411Z</time>
      </trkpt>
      <trkpt lat="41.26269" lon="1.93124833">
        <ele>1.0</ele>
        <time>2019-12-21T13:40:52.419Z</time>
      </trkpt>
      <trkpt lat="41.26272833" lon="1.93138667">
        <ele>1.0</ele>
        <time>2019-12-21T13:40:53.410Z</time>
      </trkpt>
      <trkpt lat="41.26272833" lon="1.93138667">
        <ele>1.0</ele>
        <time>2019-12-21T13:40:54.404Z</time>
      </trkpt>
      <trkpt lat="41.26276333" lon="1.93152667">
        <ele>1.0</ele>
        <time>2019-12-21T13:40:55.427Z</time>
      </trkpt>
      <trkpt lat="41.26278167" lon="1.93159833">
        <ele>1.0</ele>
        <time>2019-12-21T13:40:56.411Z</time>
      </trkpt>
      <trkpt lat="41.26278167" lon="1.93159833">
        <ele>1.0</ele>
        <time>2019-12-21T13:40:57.406Z</time>
      </trkpt>
      <trkpt lat="41.26281333" lon="1.93174167">
        <ele>0.0</ele>
        <time>2019-12-21T13:40:58.409Z</time>
      </trkpt>
      <trkpt lat="41.26281333" lon="1.93174167">
        <ele>0.0</ele>
        <time>2019-12-21T13:40:59.405Z</time>
      </trkpt>
      <trkpt lat="41.262845" lon="1.93188333">
        <ele>0.0</ele>
        <time>2019-12-21T13:41:00.422Z</time>
      </trkpt>
      <trkpt lat="41.262845" lon="1.93188333">
        <ele>0.0</ele>
        <time>2019-12-21T13:41:01.408Z</time>
      </trkpt>
      <trkpt lat="41.26287333" lon="1.93201833">
        <ele>0.0</ele>
        <time>2019-12-21T13:41:02.410Z</time>
      </trkpt>
      <trkpt lat="41.26287333" lon="1.93201833">
        <ele>0.0</ele>
        <time>2019-12-21T13:41:03.400Z</time>
      </trkpt>
      <trkpt lat="41.26289833" lon="1.93215667">
        <ele>0.0</ele>
        <time>2019-12-21T13:41:04.422Z</time>
      </trkpt>
      <trkpt lat="41.26289833" lon="1.93215667">
        <ele>0.0</ele>
        <time>2019-12-21T13:41:05.405Z</time>
      </trkpt>
      <trkpt lat="41.26291667" lon="1.93229667">
        <ele>1.0</ele>
        <time>2019-12-21T13:41:06.409Z</time>
      </trkpt>
      <trkpt lat="41.26292333" lon="1.932365">
        <ele>0.0</ele>
        <time>2019-12-21T13:41:07.411Z</time>
      </trkpt>
      <trkpt lat="41.26293167" lon="1.93243">
        <ele>1.0</ele>
        <time>2019-12-21T13:41:08.410Z</time>
      </trkpt>
      <trkpt lat="41.26293167" lon="1.93243">
        <ele>1.0</ele>
        <time>2019-12-21T13:41:09.404Z</time>
      </trkpt>
      <trkpt lat="41.26295" lon="1.932565">
        <ele>1.0</ele>
        <time>2019-12-21T13:41:10.410Z</time>
      </trkpt>
      <trkpt lat="41.26295" lon="1.932565">
        <ele>1.0</ele>
        <time>2019-12-21T13:41:11.404Z</time>
      </trkpt>
      <trkpt lat="41.262975" lon="1.93271667">
        <ele>1.0</ele>
        <time>2019-12-21T13:41:12.410Z</time>
      </trkpt>
      <trkpt lat="41.262975" lon="1.93271667">
        <ele>1.0</ele>
        <time>2019-12-21T13:41:13.398Z</time>
      </trkpt>
      <trkpt lat="41.26299833" lon="1.93286833">
        <ele>1.0</ele>
        <time>2019-12-21T13:41:14.422Z</time>
      </trkpt>
      <trkpt lat="41.26299833" lon="1.93286833">
        <ele>1.0</ele>
        <time>2019-12-21T13:41:15.405Z</time>
      </trkpt>
      <trkpt lat="41.26302333" lon="1.93302167">
        <ele>1.0</ele>
        <time>2019-12-21T13:41:16.407Z</time>
      </trkpt>
      <trkpt lat="41.26302333" lon="1.93302167">
        <ele>1.0</ele>
        <time>2019-12-21T13:41:17.405Z</time>
      </trkpt>
      <trkpt lat="41.26305167" lon="1.93317833">
        <ele>2.0</ele>
        <time>2019-12-21T13:41:18.430Z</time>
      </trkpt>
      <trkpt lat="41.26306667" lon="1.93325833">
        <ele>2.0</ele>
        <time>2019-12-21T13:41:19.425Z</time>
      </trkpt>
      <trkpt lat="41.26308" lon="1.93334">
        <ele>2.0</ele>
        <time>2019-12-21T13:41:20.410Z</time>
      </trkpt>
      <trkpt lat="41.26308" lon="1.93334">
        <ele>2.0</ele>
        <time>2019-12-21T13:41:21.405Z</time>
      </trkpt>
      <trkpt lat="41.26310667" lon="1.9335">
        <ele>2.0</ele>
        <time>2019-12-21T13:41:22.410Z</time>
      </trkpt>
      <trkpt lat="41.26312" lon="1.93357833">
        <ele>2.0</ele>
        <time>2019-12-21T13:41:23.425Z</time>
      </trkpt>
      <trkpt lat="41.26312" lon="1.93357833">
        <ele>2.0</ele>
        <time>2019-12-21T13:41:24.409Z</time>
      </trkpt>
      <trkpt lat="41.26314333" lon="1.93373833">
        <ele>2.0</ele>
        <time>2019-12-21T13:41:25.411Z</time>
      </trkpt>
      <trkpt lat="41.26315667" lon="1.933815">
        <ele>2.0</ele>
        <time>2019-12-21T13:41:26.410Z</time>
      </trkpt>
      <trkpt lat="41.26315667" lon="1.933815">
        <ele>2.0</ele>
        <time>2019-12-21T13:41:27.406Z</time>
      </trkpt>
      <trkpt lat="41.263185" lon="1.93397333">
        <ele>2.0</ele>
        <time>2019-12-21T13:41:28.410Z</time>
      </trkpt>
      <trkpt lat="41.26319667" lon="1.93405167">
        <ele>2.0</ele>
        <time>2019-12-21T13:41:29.411Z</time>
      </trkpt>
      <trkpt lat="41.26319667" lon="1.93405167">
        <ele>2.0</ele>
        <time>2019-12-21T13:41:30.408Z</time>
      </trkpt>
      <trkpt lat="41.26322167" lon="1.93420667">
        <ele>2.0</ele>
        <time>2019-12-21T13:41:31.412Z</time>
      </trkpt>
      <trkpt lat="41.26322167" lon="1.93420667">
        <ele>2.0</ele>
        <time>2019-12-21T13:41:32.416Z</time>
      </trkpt>
      <trkpt lat="41.26324667" lon="1.93436333">
        <ele>2.0</ele>
        <time>2019-12-21T13:41:33.409Z</time>
      </trkpt>
      <trkpt lat="41.26324667" lon="1.93436333">
        <ele>2.0</ele>
        <time>2019-12-21T13:41:34.405Z</time>
      </trkpt>
      <trkpt lat="41.26327167" lon="1.93451667">
        <ele>2.0</ele>
        <time>2019-12-21T13:41:35.412Z</time>
      </trkpt>
      <trkpt lat="41.26327167" lon="1.93451667">
        <ele>2.0</ele>
        <time>2019-12-21T13:41:36.404Z</time>
      </trkpt>
      <trkpt lat="41.26329333" lon="1.934675">
        <ele>2.0</ele>
        <time>2019-12-21T13:41:37.428Z</time>
      </trkpt>
      <trkpt lat="41.26329333" lon="1.934675">
        <ele>2.0</ele>
        <time>2019-12-21T13:41:38.412Z</time>
      </trkpt>
      <trkpt lat="41.26331833" lon="1.93482833">
        <ele>2.0</ele>
        <time>2019-12-21T13:41:39.410Z</time>
      </trkpt>
      <trkpt lat="41.26331833" lon="1.93482833">
        <ele>2.0</ele>
        <time>2019-12-21T13:41:40.404Z</time>
      </trkpt>
      <trkpt lat="41.26334167" lon="1.93498">
        <ele>2.0</ele>
        <time>2019-12-21T13:41:41.409Z</time>
      </trkpt>
      <trkpt lat="41.263355" lon="1.93505833">
        <ele>2.0</ele>
        <time>2019-12-21T13:41:42.429Z</time>
      </trkpt>
      <trkpt lat="41.263355" lon="1.93505833">
        <ele>2.0</ele>
        <time>2019-12-21T13:41:43.412Z</time>
      </trkpt>
      <trkpt lat="41.26338167" lon="1.935215">
        <ele>2.0</ele>
        <time>2019-12-21T13:41:44.410Z</time>
      </trkpt>
      <trkpt lat="41.26338167" lon="1.935215">
        <ele>2.0</ele>
        <time>2019-12-21T13:41:45.403Z</time>
      </trkpt>
      <trkpt lat="41.26340667" lon="1.93537167">
        <ele>2.0</ele>
        <time>2019-12-21T13:41:46.427Z</time>
      </trkpt>
      <trkpt lat="41.26340667" lon="1.93537167">
        <ele>2.0</ele>
        <time>2019-12-21T13:41:47.410Z</time>
      </trkpt>
      <trkpt lat="41.26343167" lon="1.935525">
        <ele>2.0</ele>
        <time>2019-12-21T13:41:48.422Z</time>
      </trkpt>
      <trkpt lat="41.26343167" lon="1.935525">
        <ele>2.0</ele>
        <time>2019-12-21T13:41:49.406Z</time>
      </trkpt>
      <trkpt lat="41.26345833" lon="1.93568167">
        <ele>2.0</ele>
        <time>2019-12-21T13:41:50.409Z</time>
      </trkpt>
      <trkpt lat="41.26347167" lon="1.93576">
        <ele>2.0</ele>
        <time>2019-12-21T13:41:51.411Z</time>
      </trkpt>
      <trkpt lat="41.26347167" lon="1.93576">
        <ele>2.0</ele>
        <time>2019-12-21T13:41:52.405Z</time>
      </trkpt>
      <trkpt lat="41.26349833" lon="1.93592167">
        <ele>2.0</ele>
        <time>2019-12-21T13:41:53.410Z</time>
      </trkpt>
      <trkpt lat="41.26351" lon="1.93600167">
        <ele>2.0</ele>
        <time>2019-12-21T13:41:54.410Z</time>
      </trkpt>
      <trkpt lat="41.26352167" lon="1.93607833">
        <ele>2.0</ele>
        <time>2019-12-21T13:41:55.411Z</time>
      </trkpt>
      <trkpt lat="41.26352167" lon="1.93607833">
        <ele>2.0</ele>
        <time>2019-12-21T13:41:56.404Z</time>
      </trkpt>
      <trkpt lat="41.26354667" lon="1.93624">
        <ele>3.0</ele>
        <time>2019-12-21T13:41:57.410Z</time>
      </trkpt>
      <trkpt lat="41.26354667" lon="1.93624">
        <ele>3.0</ele>
        <time>2019-12-21T13:41:58.405Z</time>
      </trkpt>
      <trkpt lat="41.26357167" lon="1.936405">
        <ele>3.0</ele>
        <time>2019-12-21T13:41:59.410Z</time>
      </trkpt>
      <trkpt lat="41.26358667" lon="1.93648833">
        <ele>3.0</ele>
        <time>2019-12-21T13:42:00.410Z</time>
      </trkpt>
      <trkpt lat="41.26358667" lon="1.93648833">
        <ele>3.0</ele>
        <time>2019-12-21T13:42:01.406Z</time>
      </trkpt>
      <trkpt lat="41.26361333" lon="1.93665333">
        <ele>3.0</ele>
        <time>2019-12-21T13:42:02.412Z</time>
      </trkpt>
      <trkpt lat="41.26361333" lon="1.93665333">
        <ele>3.0</ele>
        <time>2019-12-21T13:42:03.408Z</time>
      </trkpt>
      <trkpt lat="41.26364167" lon="1.93681833">
        <ele>3.0</ele>
        <time>2019-12-21T13:42:04.410Z</time>
      </trkpt>
      <trkpt lat="41.26364167" lon="1.93681833">
        <ele>3.0</ele>
        <time>2019-12-21T13:42:05.405Z</time>
      </trkpt>
      <trkpt lat="41.26366667" lon="1.936985">
        <ele>3.0</ele>
        <time>2019-12-21T13:42:06.408Z</time>
      </trkpt>
      <trkpt lat="41.26366667" lon="1.936985">
        <ele>3.0</ele>
        <time>2019-12-21T13:42:07.407Z</time>
      </trkpt>
      <trkpt lat="41.26369167" lon="1.93716">
        <ele>3.0</ele>
        <time>2019-12-21T13:42:08.431Z</time>
      </trkpt>
      <trkpt lat="41.263705" lon="1.937245">
        <ele>3.0</ele>
        <time>2019-12-21T13:42:09.418Z</time>
      </trkpt>
      <trkpt lat="41.263705" lon="1.937245">
        <ele>3.0</ele>
        <time>2019-12-21T13:42:10.405Z</time>
      </trkpt>
      <trkpt lat="41.26372833" lon="1.93741167">
        <ele>3.0</ele>
        <time>2019-12-21T13:42:11.409Z</time>
      </trkpt>
      <trkpt lat="41.26372833" lon="1.93741167">
        <ele>3.0</ele>
        <time>2019-12-21T13:42:12.426Z</time>
      </trkpt>
      <trkpt lat="41.26375167" lon="1.93758">
        <ele>3.0</ele>
        <time>2019-12-21T13:42:13.413Z</time>
      </trkpt>
      <trkpt lat="41.263765" lon="1.93766333">
        <ele>3.0</ele>
        <time>2019-12-21T13:42:14.410Z</time>
      </trkpt>
      <trkpt lat="41.263765" lon="1.93766333">
        <ele>3.0</ele>
        <time>2019-12-21T13:42:15.405Z</time>
      </trkpt>
      <trkpt lat="41.26379333" lon="1.93783167">
        <ele>3.0</ele>
        <time>2019-12-21T13:42:16.410Z</time>
      </trkpt>
      <trkpt lat="41.26379333" lon="1.93783167">
        <ele>3.0</ele>
        <time>2019-12-21T13:42:17.403Z</time>
      </trkpt>
      <trkpt lat="41.26382167" lon="1.93800333">
        <ele>3.0</ele>
        <time>2019-12-21T13:42:18.427Z</time>
      </trkpt>
      <trkpt lat="41.263835" lon="1.938085">
        <ele>4.0</ele>
        <time>2019-12-21T13:42:19.411Z</time>
      </trkpt>
      <trkpt lat="41.263835" lon="1.938085">
        <ele>4.0</ele>
        <time>2019-12-21T13:42:20.405Z</time>
      </trkpt>
      <trkpt lat="41.26386" lon="1.93825167">
        <ele>4.0</ele>
        <time>2019-12-21T13:42:21.410Z</time>
      </trkpt>
      <trkpt lat="41.26386" lon="1.93825167">
        <ele>4.0</ele>
        <time>2019-12-21T13:42:22.410Z</time>
      </trkpt>
      <trkpt lat="41.26388" lon="1.93842">
        <ele>4.0</ele>
        <time>2019-12-21T13:42:23.409Z</time>
      </trkpt>
      <trkpt lat="41.26388" lon="1.93842">
        <ele>4.0</ele>
        <time>2019-12-21T13:42:24.405Z</time>
      </trkpt>
      <trkpt lat="41.263905" lon="1.93858833">
        <ele>4.0</ele>
        <time>2019-12-21T13:42:25.428Z</time>
      </trkpt>
      <trkpt lat="41.263905" lon="1.93858833">
        <ele>4.0</ele>
        <time>2019-12-21T13:42:26.412Z</time>
      </trkpt>
      <trkpt lat="41.26393" lon="1.938755">
        <ele>4.0</ele>
        <time>2019-12-21T13:42:27.410Z</time>
      </trkpt>
      <trkpt lat="41.26393" lon="1.938755">
        <ele>4.0</ele>
        <time>2019-12-21T13:42:28.407Z</time>
      </trkpt>
      <trkpt lat="41.26395667" lon="1.938925">
        <ele>4.0</ele>
        <time>2019-12-21T13:42:29.410Z</time>
      </trkpt>
      <trkpt lat="41.26395667" lon="1.938925">
        <ele>4.0</ele>
        <time>2019-12-21T13:42:30.406Z</time>
      </trkpt>
      <trkpt lat="41.26398167" lon="1.93909667">
        <ele>4.0</ele>
        <time>2019-12-21T13:42:31.429Z</time>
      </trkpt>
      <trkpt lat="41.26398167" lon="1.93909667">
        <ele>4.0</ele>
        <time>2019-12-21T13:42:32.425Z</time>
      </trkpt>
      <trkpt lat="41.264005" lon="1.939265">
        <ele>4.0</ele>
        <time>2019-12-21T13:42:33.410Z</time>
      </trkpt>
      <trkpt lat="41.264005" lon="1.939265">
        <ele>4.0</ele>
        <time>2019-12-21T13:42:34.408Z</time>
      </trkpt>
      <trkpt lat="41.26402833" lon="1.939435">
        <ele>4.0</ele>
        <time>2019-12-21T13:42:35.410Z</time>
      </trkpt>
      <trkpt lat="41.26402833" lon="1.939435">
        <ele>4.0</ele>
        <time>2019-12-21T13:42:36.406Z</time>
      </trkpt>
      <trkpt lat="41.26405" lon="1.93960667">
        <ele>4.0</ele>
        <time>2019-12-21T13:42:37.412Z</time>
      </trkpt>
      <trkpt lat="41.26405" lon="1.93960667">
        <ele>4.0</ele>
        <time>2019-12-21T13:42:38.408Z</time>
      </trkpt>
      <trkpt lat="41.26406833" lon="1.93978">
        <ele>5.0</ele>
        <time>2019-12-21T13:42:39.410Z</time>
      </trkpt>
      <trkpt lat="41.26406833" lon="1.93978">
        <ele>5.0</ele>
        <time>2019-12-21T13:42:40.406Z</time>
      </trkpt>
      <trkpt lat="41.264085" lon="1.93995333">
        <ele>5.0</ele>
        <time>2019-12-21T13:42:41.413Z</time>
      </trkpt>
      <trkpt lat="41.264085" lon="1.93995333">
        <ele>5.0</ele>
        <time>2019-12-21T13:42:42.400Z</time>
      </trkpt>
      <trkpt lat="41.26410333" lon="1.94012833">
        <ele>5.0</ele>
        <time>2019-12-21T13:42:43.407Z</time>
      </trkpt>
      <trkpt lat="41.26410333" lon="1.94012833">
        <ele>5.0</ele>
        <time>2019-12-21T13:42:44.413Z</time>
      </trkpt>
      <trkpt lat="41.26412167" lon="1.940305">
        <ele>5.0</ele>
        <time>2019-12-21T13:42:45.411Z</time>
      </trkpt>
      <trkpt lat="41.26413333" lon="1.94039333">
        <ele>5.0</ele>
        <time>2019-12-21T13:42:46.408Z</time>
      </trkpt>
      <trkpt lat="41.26413333" lon="1.94039333">
        <ele>5.0</ele>
        <time>2019-12-21T13:42:47.406Z</time>
      </trkpt>
      <trkpt lat="41.26415167" lon="1.94057">
        <ele>5.0</ele>
        <time>2019-12-21T13:42:48.431Z</time>
      </trkpt>
      <trkpt lat="41.26416167" lon="1.94065833">
        <ele>5.0</ele>
        <time>2019-12-21T13:42:49.417Z</time>
      </trkpt>
      <trkpt lat="41.26416167" lon="1.94065833">
        <ele>5.0</ele>
        <time>2019-12-21T13:42:50.406Z</time>
      </trkpt>
      <trkpt lat="41.26418167" lon="1.94083833">
        <ele>4.0</ele>
        <time>2019-12-21T13:42:51.411Z</time>
      </trkpt>
      <trkpt lat="41.26418167" lon="1.94083833">
        <ele>4.0</ele>
        <time>2019-12-21T13:42:52.416Z</time>
      </trkpt>
      <trkpt lat="41.26419833" lon="1.94101667">
        <ele>4.0</ele>
        <time>2019-12-21T13:42:53.407Z</time>
      </trkpt>
      <trkpt lat="41.26419833" lon="1.94101667">
        <ele>4.0</ele>
        <time>2019-12-21T13:42:54.406Z</time>
      </trkpt>
      <trkpt lat="41.264215" lon="1.94119167">
        <ele>3.0</ele>
        <time>2019-12-21T13:42:55.412Z</time>
      </trkpt>
      <trkpt lat="41.264215" lon="1.94119167">
        <ele>3.0</ele>
        <time>2019-12-21T13:42:56.406Z</time>
      </trkpt>
      <trkpt lat="41.26423333" lon="1.94136333">
        <ele>3.0</ele>
        <time>2019-12-21T13:42:57.411Z</time>
      </trkpt>
      <trkpt lat="41.26423333" lon="1.94136333">
        <ele>3.0</ele>
        <time>2019-12-21T13:42:58.406Z</time>
      </trkpt>
      <trkpt lat="41.26424833" lon="1.94153833">
        <ele>3.0</ele>
        <time>2019-12-21T13:42:59.411Z</time>
      </trkpt>
      <trkpt lat="41.26425833" lon="1.94162667">
        <ele>3.0</ele>
        <time>2019-12-21T13:43:00.416Z</time>
      </trkpt>
      <trkpt lat="41.26425833" lon="1.94162667">
        <ele>3.0</ele>
        <time>2019-12-21T13:43:01.407Z</time>
      </trkpt>
      <trkpt lat="41.264275" lon="1.941805">
        <ele>3.0</ele>
        <time>2019-12-21T13:43:02.410Z</time>
      </trkpt>
      <trkpt lat="41.264275" lon="1.941805">
        <ele>3.0</ele>
        <time>2019-12-21T13:43:03.406Z</time>
      </trkpt>
      <trkpt lat="41.26429667" lon="1.94198">
        <ele>3.0</ele>
        <time>2019-12-21T13:43:04.430Z</time>
      </trkpt>
      <trkpt lat="41.26430667" lon="1.94206667">
        <ele>2.0</ele>
        <time>2019-12-21T13:43:05.414Z</time>
      </trkpt>
      <trkpt lat="41.26430667" lon="1.94206667">
        <ele>2.0</ele>
        <time>2019-12-21T13:43:06.406Z</time>
      </trkpt>
      <trkpt lat="41.26432333" lon="1.94223833">
        <ele>2.0</ele>
        <time>2019-12-21T13:43:07.429Z</time>
      </trkpt>
      <trkpt lat="41.26432333" lon="1.94223833">
        <ele>2.0</ele>
        <time>2019-12-21T13:43:08.413Z</time>
      </trkpt>
      <trkpt lat="41.264335" lon="1.94241">
        <ele>2.0</ele>
        <time>2019-12-21T13:43:09.411Z</time>
      </trkpt>
      <trkpt lat="41.264335" lon="1.94241">
        <ele>2.0</ele>
        <time>2019-12-21T13:43:10.406Z</time>
      </trkpt>
      <trkpt lat="41.26434833" lon="1.942575">
        <ele>2.0</ele>
        <time>2019-12-21T13:43:11.410Z</time>
      </trkpt>
      <trkpt lat="41.26434833" lon="1.942575">
        <ele>2.0</ele>
        <time>2019-12-21T13:43:12.410Z</time>
      </trkpt>
      <trkpt lat="41.264365" lon="1.94274">
        <ele>2.0</ele>
        <time>2019-12-21T13:43:13.411Z</time>
      </trkpt>
      <trkpt lat="41.264365" lon="1.94274">
        <ele>2.0</ele>
        <time>2019-12-21T13:43:14.409Z</time>
      </trkpt>
      <trkpt lat="41.26438167" lon="1.942905">
        <ele>2.0</ele>
        <time>2019-12-21T13:43:15.411Z</time>
      </trkpt>
      <trkpt lat="41.26438167" lon="1.942905">
        <ele>2.0</ele>
        <time>2019-12-21T13:43:16.406Z</time>
      </trkpt>
      <trkpt lat="41.264395" lon="1.94307167">
        <ele>2.0</ele>
        <time>2019-12-21T13:43:17.410Z</time>
      </trkpt>
      <trkpt lat="41.264395" lon="1.94307167">
        <ele>2.0</ele>
        <time>2019-12-21T13:43:18.406Z</time>
      </trkpt>
      <trkpt lat="41.26441" lon="1.94323667">
        <ele>2.0</ele>
        <time>2019-12-21T13:43:19.412Z</time>
      </trkpt>
      <trkpt lat="41.26441" lon="1.94323667">
        <ele>2.0</ele>
        <time>2019-12-21T13:43:20.406Z</time>
      </trkpt>
      <trkpt lat="41.26442333" lon="1.94340333">
        <ele>2.0</ele>
        <time>2019-12-21T13:43:21.409Z</time>
      </trkpt>
      <trkpt lat="41.26442333" lon="1.94340333">
        <ele>2.0</ele>
        <time>2019-12-21T13:43:22.410Z</time>
      </trkpt>
      <trkpt lat="41.26443667" lon="1.94357167">
        <ele>2.0</ele>
        <time>2019-12-21T13:43:23.411Z</time>
      </trkpt>
      <trkpt lat="41.264445" lon="1.94365667">
        <ele>1.0</ele>
        <time>2019-12-21T13:43:24.410Z</time>
      </trkpt>
      <trkpt lat="41.26445333" lon="1.94374">
        <ele>1.0</ele>
        <time>2019-12-21T13:43:25.412Z</time>
      </trkpt>
      <trkpt lat="41.26446167" lon="1.94382667">
        <ele>1.0</ele>
        <time>2019-12-21T13:43:26.411Z</time>
      </trkpt>
      <trkpt lat="41.26446167" lon="1.94382667">
        <ele>1.0</ele>
        <time>2019-12-21T13:43:27.406Z</time>
      </trkpt>
      <trkpt lat="41.26447667" lon="1.94399167">
        <ele>2.0</ele>
        <time>2019-12-21T13:43:28.410Z</time>
      </trkpt>
      <trkpt lat="41.26447667" lon="1.94399167">
        <ele>2.0</ele>
        <time>2019-12-21T13:43:29.406Z</time>
      </trkpt>
      <trkpt lat="41.26449" lon="1.94416">
        <ele>2.0</ele>
        <time>2019-12-21T13:43:30.410Z</time>
      </trkpt>
      <trkpt lat="41.26449833" lon="1.944245">
        <ele>2.0</ele>
        <time>2019-12-21T13:43:31.412Z</time>
      </trkpt>
      <trkpt lat="41.26449833" lon="1.944245">
        <ele>2.0</ele>
        <time>2019-12-21T13:43:32.416Z</time>
      </trkpt>
      <trkpt lat="41.26451333" lon="1.94441333">
        <ele>2.0</ele>
        <time>2019-12-21T13:43:33.411Z</time>
      </trkpt>
      <trkpt lat="41.26451333" lon="1.94441333">
        <ele>2.0</ele>
        <time>2019-12-21T13:43:34.408Z</time>
      </trkpt>
      <trkpt lat="41.26453" lon="1.94458167">
        <ele>2.0</ele>
        <time>2019-12-21T13:43:35.411Z</time>
      </trkpt>
      <trkpt lat="41.26453" lon="1.94458167">
        <ele>2.0</ele>
        <time>2019-12-21T13:43:36.405Z</time>
      </trkpt>
      <trkpt lat="41.26454333" lon="1.94475">
        <ele>2.0</ele>
        <time>2019-12-21T13:43:37.429Z</time>
      </trkpt>
      <trkpt lat="41.26454333" lon="1.94475">
        <ele>2.0</ele>
        <time>2019-12-21T13:43:38.413Z</time>
      </trkpt>
      <trkpt lat="41.26456" lon="1.94492">
        <ele>3.0</ele>
        <time>2019-12-21T13:43:39.410Z</time>
      </trkpt>
      <trkpt lat="41.26456" lon="1.94492">
        <ele>3.0</ele>
        <time>2019-12-21T13:43:40.405Z</time>
      </trkpt>
      <trkpt lat="41.26458" lon="1.94508833">
        <ele>3.0</ele>
        <time>2019-12-21T13:43:41.410Z</time>
      </trkpt>
      <trkpt lat="41.26458" lon="1.94508833">
        <ele>3.0</ele>
        <time>2019-12-21T13:43:42.405Z</time>
      </trkpt>
      <trkpt lat="41.26459333" lon="1.94526">
        <ele>3.0</ele>
        <time>2019-12-21T13:43:43.433Z</time>
      </trkpt>
      <trkpt lat="41.26459333" lon="1.94526">
        <ele>3.0</ele>
        <time>2019-12-21T13:43:44.417Z</time>
      </trkpt>
      <trkpt lat="41.26461" lon="1.945435">
        <ele>3.0</ele>
        <time>2019-12-21T13:43:45.412Z</time>
      </trkpt>
      <trkpt lat="41.26461" lon="1.945435">
        <ele>3.0</ele>
        <time>2019-12-21T13:43:46.406Z</time>
      </trkpt>
      <trkpt lat="41.26462833" lon="1.94561333">
        <ele>4.0</ele>
        <time>2019-12-21T13:43:47.411Z</time>
      </trkpt>
      <trkpt lat="41.26462833" lon="1.94561333">
        <ele>4.0</ele>
        <time>2019-12-21T13:43:48.407Z</time>
      </trkpt>
      <trkpt lat="41.264645" lon="1.94579167">
        <ele>4.0</ele>
        <time>2019-12-21T13:43:49.430Z</time>
      </trkpt>
      <trkpt lat="41.264645" lon="1.94579167">
        <ele>4.0</ele>
        <time>2019-12-21T13:43:50.413Z</time>
      </trkpt>
      <trkpt lat="41.26466333" lon="1.94597167">
        <ele>4.0</ele>
        <time>2019-12-21T13:43:51.410Z</time>
      </trkpt>
      <trkpt lat="41.26466333" lon="1.94597167">
        <ele>4.0</ele>
        <time>2019-12-21T13:43:52.409Z</time>
      </trkpt>
      <trkpt lat="41.26468167" lon="1.94615167">
        <ele>4.0</ele>
        <time>2019-12-21T13:43:53.422Z</time>
      </trkpt>
      <trkpt lat="41.26468167" lon="1.94615167">
        <ele>4.0</ele>
        <time>2019-12-21T13:43:54.405Z</time>
      </trkpt>
      <trkpt lat="41.26469667" lon="1.94634">
        <ele>5.0</ele>
        <time>2019-12-21T13:43:55.412Z</time>
      </trkpt>
      <trkpt lat="41.26469667" lon="1.94634">
        <ele>5.0</ele>
        <time>2019-12-21T13:43:56.406Z</time>
      </trkpt>
      <trkpt lat="41.26471167" lon="1.946525">
        <ele>5.0</ele>
        <time>2019-12-21T13:43:57.412Z</time>
      </trkpt>
      <trkpt lat="41.26471167" lon="1.946525">
        <ele>5.0</ele>
        <time>2019-12-21T13:43:58.406Z</time>
      </trkpt>
      <trkpt lat="41.26472833" lon="1.94670333">
        <ele>5.0</ele>
        <time>2019-12-21T13:43:59.410Z</time>
      </trkpt>
      <trkpt lat="41.26472833" lon="1.94670333">
        <ele>5.0</ele>
        <time>2019-12-21T13:44:00.413Z</time>
      </trkpt>
      <trkpt lat="41.26474667" lon="1.94688167">
        <ele>5.0</ele>
        <time>2019-12-21T13:44:01.413Z</time>
      </trkpt>
      <trkpt lat="41.26474667" lon="1.94688167">
        <ele>5.0</ele>
        <time>2019-12-21T13:44:02.426Z</time>
      </trkpt>
      <trkpt lat="41.26476333" lon="1.94705833">
        <ele>5.0</ele>
        <time>2019-12-21T13:44:03.411Z</time>
      </trkpt>
      <trkpt lat="41.26476333" lon="1.94705833">
        <ele>5.0</ele>
        <time>2019-12-21T13:44:04.406Z</time>
      </trkpt>
      <trkpt lat="41.26477667" lon="1.94722667">
        <ele>6.0</ele>
        <time>2019-12-21T13:44:05.423Z</time>
      </trkpt>
      <trkpt lat="41.26477667" lon="1.94722667">
        <ele>6.0</ele>
        <time>2019-12-21T13:44:06.408Z</time>
      </trkpt>
      <trkpt lat="41.264795" lon="1.94740167">
        <ele>6.0</ele>
        <time>2019-12-21T13:44:07.412Z</time>
      </trkpt>
      <trkpt lat="41.264795" lon="1.94740167">
        <ele>6.0</ele>
        <time>2019-12-21T13:44:08.408Z</time>
      </trkpt>
      <trkpt lat="41.26481333" lon="1.947575">
        <ele>6.0</ele>
        <time>2019-12-21T13:44:09.411Z</time>
      </trkpt>
      <trkpt lat="41.26481333" lon="1.947575">
        <ele>6.0</ele>
        <time>2019-12-21T13:44:10.405Z</time>
      </trkpt>
      <trkpt lat="41.26483333" lon="1.94775">
        <ele>6.0</ele>
        <time>2019-12-21T13:44:11.411Z</time>
      </trkpt>
      <trkpt lat="41.26483333" lon="1.94775">
        <ele>6.0</ele>
        <time>2019-12-21T13:44:12.415Z</time>
      </trkpt>
      <trkpt lat="41.26485" lon="1.94792333">
        <ele>6.0</ele>
        <time>2019-12-21T13:44:13.412Z</time>
      </trkpt>
      <trkpt lat="41.26485" lon="1.94792333">
        <ele>6.0</ele>
        <time>2019-12-21T13:44:14.405Z</time>
      </trkpt>
      <trkpt lat="41.264865" lon="1.948095">
        <ele>6.0</ele>
        <time>2019-12-21T13:44:15.412Z</time>
      </trkpt>
      <trkpt lat="41.264865" lon="1.948095">
        <ele>6.0</ele>
        <time>2019-12-21T13:44:16.406Z</time>
      </trkpt>
      <trkpt lat="41.26488" lon="1.94826667">
        <ele>6.0</ele>
        <time>2019-12-21T13:44:17.411Z</time>
      </trkpt>
      <trkpt lat="41.26488" lon="1.94826667">
        <ele>6.0</ele>
        <time>2019-12-21T13:44:18.409Z</time>
      </trkpt>
      <trkpt lat="41.26489333" lon="1.94844">
        <ele>6.0</ele>
        <time>2019-12-21T13:44:19.412Z</time>
      </trkpt>
      <trkpt lat="41.26489333" lon="1.94844">
        <ele>6.0</ele>
        <time>2019-12-21T13:44:20.405Z</time>
      </trkpt>
      <trkpt lat="41.26490333" lon="1.94861167">
        <ele>6.0</ele>
        <time>2019-12-21T13:44:21.429Z</time>
      </trkpt>
      <trkpt lat="41.26490333" lon="1.94861167">
        <ele>6.0</ele>
        <time>2019-12-21T13:44:22.430Z</time>
      </trkpt>
      <trkpt lat="41.26491667" lon="1.94878667">
        <ele>6.0</ele>
        <time>2019-12-21T13:44:23.413Z</time>
      </trkpt>
      <trkpt lat="41.26491667" lon="1.94878667">
        <ele>6.0</ele>
        <time>2019-12-21T13:44:24.405Z</time>
      </trkpt>
      <trkpt lat="41.26493" lon="1.94896333">
        <ele>6.0</ele>
        <time>2019-12-21T13:44:25.430Z</time>
      </trkpt>
      <trkpt lat="41.26493333" lon="1.94905667">
        <ele>6.0</ele>
        <time>2019-12-21T13:44:26.414Z</time>
      </trkpt>
      <trkpt lat="41.26493333" lon="1.94905667">
        <ele>6.0</ele>
        <time>2019-12-21T13:44:27.406Z</time>
      </trkpt>
      <trkpt lat="41.26494833" lon="1.949235">
        <ele>6.0</ele>
        <time>2019-12-21T13:44:28.410Z</time>
      </trkpt>
      <trkpt lat="41.26495333" lon="1.94932333">
        <ele>6.0</ele>
        <time>2019-12-21T13:44:29.411Z</time>
      </trkpt>
      <trkpt lat="41.26495333" lon="1.94932333">
        <ele>6.0</ele>
        <time>2019-12-21T13:44:30.406Z</time>
      </trkpt>
      <trkpt lat="41.26496667" lon="1.94950167">
        <ele>6.0</ele>
        <time>2019-12-21T13:44:31.428Z</time>
      </trkpt>
      <trkpt lat="41.26496667" lon="1.94950167">
        <ele>6.0</ele>
        <time>2019-12-21T13:44:32.427Z</time>
      </trkpt>
      <trkpt lat="41.26498" lon="1.94968333">
        <ele>5.0</ele>
        <time>2019-12-21T13:44:33.419Z</time>
      </trkpt>
      <trkpt lat="41.26498" lon="1.94968333">
        <ele>5.0</ele>
        <time>2019-12-21T13:44:34.405Z</time>
      </trkpt>
      <trkpt lat="41.26499333" lon="1.949865">
        <ele>5.0</ele>
        <time>2019-12-21T13:44:35.429Z</time>
      </trkpt>
      <trkpt lat="41.26499333" lon="1.949865">
        <ele>5.0</ele>
        <time>2019-12-21T13:44:36.412Z</time>
      </trkpt>
      <trkpt lat="41.26500667" lon="1.95004333">
        <ele>5.0</ele>
        <time>2019-12-21T13:44:37.413Z</time>
      </trkpt>
      <trkpt lat="41.26500667" lon="1.95004333">
        <ele>5.0</ele>
        <time>2019-12-21T13:44:38.408Z</time>
      </trkpt>
      <trkpt lat="41.26501833" lon="1.95021833">
        <ele>5.0</ele>
        <time>2019-12-21T13:44:39.411Z</time>
      </trkpt>
      <trkpt lat="41.26501833" lon="1.95021833">
        <ele>5.0</ele>
        <time>2019-12-21T13:44:40.406Z</time>
      </trkpt>
      <trkpt lat="41.26502833" lon="1.95039167">
        <ele>5.0</ele>
        <time>2019-12-21T13:44:41.428Z</time>
      </trkpt>
      <trkpt lat="41.26502833" lon="1.95039167">
        <ele>5.0</ele>
        <time>2019-12-21T13:44:42.406Z</time>
      </trkpt>
      <trkpt lat="41.26504" lon="1.950565">
        <ele>5.0</ele>
        <time>2019-12-21T13:44:43.434Z</time>
      </trkpt>
      <trkpt lat="41.26504" lon="1.950565">
        <ele>5.0</ele>
        <time>2019-12-21T13:44:44.423Z</time>
      </trkpt>
      <trkpt lat="41.26505167" lon="1.95073667">
        <ele>6.0</ele>
        <time>2019-12-21T13:44:45.422Z</time>
      </trkpt>
      <trkpt lat="41.26505167" lon="1.95073667">
        <ele>6.0</ele>
        <time>2019-12-21T13:44:46.406Z</time>
      </trkpt>
      <trkpt lat="41.26506333" lon="1.95090667">
        <ele>6.0</ele>
        <time>2019-12-21T13:44:47.410Z</time>
      </trkpt>
      <trkpt lat="41.26506333" lon="1.95090667">
        <ele>6.0</ele>
        <time>2019-12-21T13:44:48.408Z</time>
      </trkpt>
      <trkpt lat="41.26507667" lon="1.95107833">
        <ele>6.0</ele>
        <time>2019-12-21T13:44:49.413Z</time>
      </trkpt>
      <trkpt lat="41.26507667" lon="1.95107833">
        <ele>6.0</ele>
        <time>2019-12-21T13:44:50.406Z</time>
      </trkpt>
      <trkpt lat="41.26508833" lon="1.951255">
        <ele>6.0</ele>
        <time>2019-12-21T13:44:51.412Z</time>
      </trkpt>
      <trkpt lat="41.26508833" lon="1.951255">
        <ele>6.0</ele>
        <time>2019-12-21T13:44:52.432Z</time>
      </trkpt>
      <trkpt lat="41.26509833" lon="1.95142667">
        <ele>6.0</ele>
        <time>2019-12-21T13:44:53.418Z</time>
      </trkpt>
      <trkpt lat="41.26509833" lon="1.95142667">
        <ele>6.0</ele>
        <time>2019-12-21T13:44:54.406Z</time>
      </trkpt>
      <trkpt lat="41.26511167" lon="1.95159667">
        <ele>6.0</ele>
        <time>2019-12-21T13:44:55.404Z</time>
      </trkpt>
      <trkpt lat="41.265115" lon="1.95168333">
        <ele>6.0</ele>
        <time>2019-12-21T13:44:56.428Z</time>
      </trkpt>
      <trkpt lat="41.265115" lon="1.95168333">
        <ele>6.0</ele>
        <time>2019-12-21T13:44:57.414Z</time>
      </trkpt>
      <trkpt lat="41.26512333" lon="1.951855">
        <ele>6.0</ele>
        <time>2019-12-21T13:44:58.410Z</time>
      </trkpt>
      <trkpt lat="41.26512667" lon="1.95194167">
        <ele>5.0</ele>
        <time>2019-12-21T13:44:59.409Z</time>
      </trkpt>
      <trkpt lat="41.26512667" lon="1.95194167">
        <ele>5.0</ele>
        <time>2019-12-21T13:45:00.410Z</time>
      </trkpt>
      <trkpt lat="41.265135" lon="1.95211833">
        <ele>5.0</ele>
        <time>2019-12-21T13:45:01.413Z</time>
      </trkpt>
      <trkpt lat="41.265135" lon="1.95211833">
        <ele>5.0</ele>
        <time>2019-12-21T13:45:02.419Z</time>
      </trkpt>
      <trkpt lat="41.26514" lon="1.95229333">
        <ele>5.0</ele>
        <time>2019-12-21T13:45:03.411Z</time>
      </trkpt>
      <trkpt lat="41.26514" lon="1.95229333">
        <ele>5.0</ele>
        <time>2019-12-21T13:45:04.406Z</time>
      </trkpt>
      <trkpt lat="41.26514167" lon="1.95246667">
        <ele>5.0</ele>
        <time>2019-12-21T13:45:05.429Z</time>
      </trkpt>
      <trkpt lat="41.265145" lon="1.95255333">
        <ele>5.0</ele>
        <time>2019-12-21T13:45:06.414Z</time>
      </trkpt>
      <trkpt lat="41.26514667" lon="1.95264167">
        <ele>5.0</ele>
        <time>2019-12-21T13:45:07.413Z</time>
      </trkpt>
      <trkpt lat="41.26514667" lon="1.95264167">
        <ele>5.0</ele>
        <time>2019-12-21T13:45:08.408Z</time>
      </trkpt>
      <trkpt lat="41.26515167" lon="1.95282333">
        <ele>5.0</ele>
        <time>2019-12-21T13:45:09.411Z</time>
      </trkpt>
      <trkpt lat="41.265155" lon="1.95291333">
        <ele>5.0</ele>
        <time>2019-12-21T13:45:10.409Z</time>
      </trkpt>
      <trkpt lat="41.265155" lon="1.95291333">
        <ele>5.0</ele>
        <time>2019-12-21T13:45:11.406Z</time>
      </trkpt>
      <trkpt lat="41.26515833" lon="1.95309333">
        <ele>5.0</ele>
        <time>2019-12-21T13:45:12.410Z</time>
      </trkpt>
      <trkpt lat="41.26516" lon="1.95318167">
        <ele>5.0</ele>
        <time>2019-12-21T13:45:13.435Z</time>
      </trkpt>
      <trkpt lat="41.26516" lon="1.95318167">
        <ele>5.0</ele>
        <time>2019-12-21T13:45:14.419Z</time>
      </trkpt>
      <trkpt lat="41.265165" lon="1.95336167">
        <ele>5.0</ele>
        <time>2019-12-21T13:45:15.428Z</time>
      </trkpt>
      <trkpt lat="41.265165" lon="1.95336167">
        <ele>5.0</ele>
        <time>2019-12-21T13:45:16.413Z</time>
      </trkpt>
      <trkpt lat="41.26517167" lon="1.95353833">
        <ele>5.0</ele>
        <time>2019-12-21T13:45:17.411Z</time>
      </trkpt>
      <trkpt lat="41.26517167" lon="1.95353833">
        <ele>5.0</ele>
        <time>2019-12-21T13:45:18.406Z</time>
      </trkpt>
      <trkpt lat="41.26517667" lon="1.95371833">
        <ele>5.0</ele>
        <time>2019-12-21T13:45:19.411Z</time>
      </trkpt>
      <trkpt lat="41.26517667" lon="1.95371833">
        <ele>5.0</ele>
        <time>2019-12-21T13:45:20.406Z</time>
      </trkpt>
      <trkpt lat="41.26518333" lon="1.953895">
        <ele>5.0</ele>
        <time>2019-12-21T13:45:21.412Z</time>
      </trkpt>
      <trkpt lat="41.26518333" lon="1.953895">
        <ele>5.0</ele>
        <time>2019-12-21T13:45:22.422Z</time>
      </trkpt>
      <trkpt lat="41.26519" lon="1.95407">
        <ele>5.0</ele>
        <time>2019-12-21T13:45:23.411Z</time>
      </trkpt>
      <trkpt lat="41.26519" lon="1.95407">
        <ele>5.0</ele>
        <time>2019-12-21T13:45:24.406Z</time>
      </trkpt>
      <trkpt lat="41.26519333" lon="1.95424333">
        <ele>5.0</ele>
        <time>2019-12-21T13:45:25.430Z</time>
      </trkpt>
      <trkpt lat="41.26519333" lon="1.95424333">
        <ele>5.0</ele>
        <time>2019-12-21T13:45:26.416Z</time>
      </trkpt>
      <trkpt lat="41.26520167" lon="1.95443">
        <ele>5.0</ele>
        <time>2019-12-21T13:45:27.412Z</time>
      </trkpt>
      <trkpt lat="41.26520167" lon="1.95443">
        <ele>5.0</ele>
        <time>2019-12-21T13:45:28.409Z</time>
      </trkpt>
      <trkpt lat="41.26520667" lon="1.95460333">
        <ele>5.0</ele>
        <time>2019-12-21T13:45:29.410Z</time>
      </trkpt>
      <trkpt lat="41.26520667" lon="1.95460333">
        <ele>5.0</ele>
        <time>2019-12-21T13:45:30.407Z</time>
      </trkpt>
      <trkpt lat="41.26521" lon="1.95477833">
        <ele>5.0</ele>
        <time>2019-12-21T13:45:31.430Z</time>
      </trkpt>
      <trkpt lat="41.26521" lon="1.95477833">
        <ele>5.0</ele>
        <time>2019-12-21T13:45:32.427Z</time>
      </trkpt>
      <trkpt lat="41.26521167" lon="1.954955">
        <ele>5.0</ele>
        <time>2019-12-21T13:45:33.411Z</time>
      </trkpt>
      <trkpt lat="41.26521167" lon="1.954955">
        <ele>5.0</ele>
        <time>2019-12-21T13:45:34.406Z</time>
      </trkpt>
      <trkpt lat="41.26521833" lon="1.95513167">
        <ele>5.0</ele>
        <time>2019-12-21T13:45:35.411Z</time>
      </trkpt>
      <trkpt lat="41.26521833" lon="1.95513167">
        <ele>5.0</ele>
        <time>2019-12-21T13:45:36.406Z</time>
      </trkpt>
      <trkpt lat="41.265225" lon="1.95531">
        <ele>6.0</ele>
        <time>2019-12-21T13:45:37.413Z</time>
      </trkpt>
      <trkpt lat="41.265225" lon="1.95531">
        <ele>6.0</ele>
        <time>2019-12-21T13:45:38.409Z</time>
      </trkpt>
      <trkpt lat="41.26522833" lon="1.955495">
        <ele>5.0</ele>
        <time>2019-12-21T13:45:39.411Z</time>
      </trkpt>
      <trkpt lat="41.26522833" lon="1.955495">
        <ele>5.0</ele>
        <time>2019-12-21T13:45:40.406Z</time>
      </trkpt>
      <trkpt lat="41.26523167" lon="1.955675">
        <ele>5.0</ele>
        <time>2019-12-21T13:45:41.410Z</time>
      </trkpt>
      <trkpt lat="41.26523333" lon="1.95576333">
        <ele>5.0</ele>
        <time>2019-12-21T13:45:42.411Z</time>
      </trkpt>
      <trkpt lat="41.265235" lon="1.95585333">
        <ele>5.0</ele>
        <time>2019-12-21T13:45:43.414Z</time>
      </trkpt>
      <trkpt lat="41.265235" lon="1.95585333">
        <ele>5.0</ele>
        <time>2019-12-21T13:45:44.406Z</time>
      </trkpt>
      <trkpt lat="41.26523833" lon="1.95603">
        <ele>5.0</ele>
        <time>2019-12-21T13:45:45.409Z</time>
      </trkpt>
      <trkpt lat="41.26523833" lon="1.95603">
        <ele>5.0</ele>
        <time>2019-12-21T13:45:46.406Z</time>
      </trkpt>
      <trkpt lat="41.26524333" lon="1.95620833">
        <ele>5.0</ele>
        <time>2019-12-21T13:45:47.411Z</time>
      </trkpt>
      <trkpt lat="41.26524333" lon="1.95620833">
        <ele>5.0</ele>
        <time>2019-12-21T13:45:48.406Z</time>
      </trkpt>
      <trkpt lat="41.26525" lon="1.956385">
        <ele>5.0</ele>
        <time>2019-12-21T13:45:49.429Z</time>
      </trkpt>
      <trkpt lat="41.26525" lon="1.956385">
        <ele>5.0</ele>
        <time>2019-12-21T13:45:50.412Z</time>
      </trkpt>
      <trkpt lat="41.26525333" lon="1.95655833">
        <ele>5.0</ele>
        <time>2019-12-21T13:45:51.432Z</time>
      </trkpt>
      <trkpt lat="41.26525333" lon="1.95655833">
        <ele>5.0</ele>
        <time>2019-12-21T13:45:52.406Z</time>
      </trkpt>
      <trkpt lat="41.26525667" lon="1.95673">
        <ele>5.0</ele>
        <time>2019-12-21T13:45:53.411Z</time>
      </trkpt>
      <trkpt lat="41.26525667" lon="1.95673">
        <ele>5.0</ele>
        <time>2019-12-21T13:45:54.406Z</time>
      </trkpt>
      <trkpt lat="41.26526167" lon="1.956905">
        <ele>5.0</ele>
        <time>2019-12-21T13:45:55.431Z</time>
      </trkpt>
      <trkpt lat="41.26526167" lon="1.956905">
        <ele>5.0</ele>
        <time>2019-12-21T13:45:56.410Z</time>
      </trkpt>
      <trkpt lat="41.26526333" lon="1.95707833">
        <ele>5.0</ele>
        <time>2019-12-21T13:45:57.412Z</time>
      </trkpt>
      <trkpt lat="41.26526333" lon="1.95707833">
        <ele>5.0</ele>
        <time>2019-12-21T13:45:58.406Z</time>
      </trkpt>
      <trkpt lat="41.26529333" lon="1.95725667">
        <ele>4.0</ele>
        <time>2019-12-21T13:45:59.413Z</time>
      </trkpt>
      <trkpt lat="41.26531667" lon="1.95733333">
        <ele>4.0</ele>
        <time>2019-12-21T13:46:00.411Z</time>
      </trkpt>
      <trkpt lat="41.26531667" lon="1.95733333">
        <ele>4.0</ele>
        <time>2019-12-21T13:46:01.406Z</time>
      </trkpt>
      <trkpt lat="41.26539333" lon="1.95746167">
        <ele>4.0</ele>
        <time>2019-12-21T13:46:02.411Z</time>
      </trkpt>
      <trkpt lat="41.26539333" lon="1.95746167">
        <ele>4.0</ele>
        <time>2019-12-21T13:46:03.409Z</time>
      </trkpt>
      <trkpt lat="41.265475" lon="1.95756">
        <ele>5.0</ele>
        <time>2019-12-21T13:46:04.411Z</time>
      </trkpt>
      <trkpt lat="41.265475" lon="1.95756">
        <ele>5.0</ele>
        <time>2019-12-21T13:46:05.409Z</time>
      </trkpt>
      <trkpt lat="41.265545" lon="1.95769">
        <ele>5.0</ele>
        <time>2019-12-21T13:46:06.411Z</time>
      </trkpt>
      <trkpt lat="41.26557167" lon="1.957765">
        <ele>5.0</ele>
        <time>2019-12-21T13:46:07.413Z</time>
      </trkpt>
      <trkpt lat="41.26557167" lon="1.957765">
        <ele>5.0</ele>
        <time>2019-12-21T13:46:08.407Z</time>
      </trkpt>
      <trkpt lat="41.265605" lon="1.95792667">
        <ele>5.0</ele>
        <time>2019-12-21T13:46:09.412Z</time>
      </trkpt>
      <trkpt lat="41.26561" lon="1.958005">
        <ele>5.0</ele>
        <time>2019-12-21T13:46:10.412Z</time>
      </trkpt>
      <trkpt lat="41.26561" lon="1.958005">
        <ele>5.0</ele>
        <time>2019-12-21T13:46:11.407Z</time>
      </trkpt>
      <trkpt lat="41.26561167" lon="1.95816667">
        <ele>5.0</ele>
        <time>2019-12-21T13:46:12.411Z</time>
      </trkpt>
      <trkpt lat="41.26561167" lon="1.95825">
        <ele>5.0</ele>
        <time>2019-12-21T13:46:13.413Z</time>
      </trkpt>
      <trkpt lat="41.26561167" lon="1.95825">
        <ele>5.0</ele>
        <time>2019-12-21T13:46:14.406Z</time>
      </trkpt>
      <trkpt lat="41.26561333" lon="1.95841333">
        <ele>5.0</ele>
        <time>2019-12-21T13:46:15.409Z</time>
      </trkpt>
      <trkpt lat="41.26561333" lon="1.95841333">
        <ele>5.0</ele>
        <time>2019-12-21T13:46:16.406Z</time>
      </trkpt>
      <trkpt lat="41.26562167" lon="1.95857833">
        <ele>5.0</ele>
        <time>2019-12-21T13:46:17.411Z</time>
      </trkpt>
      <trkpt lat="41.26562167" lon="1.95857833">
        <ele>5.0</ele>
        <time>2019-12-21T13:46:18.406Z</time>
      </trkpt>
      <trkpt lat="41.265635" lon="1.95873833">
        <ele>6.0</ele>
        <time>2019-12-21T13:46:19.431Z</time>
      </trkpt>
      <trkpt lat="41.265635" lon="1.95873833">
        <ele>6.0</ele>
        <time>2019-12-21T13:46:20.415Z</time>
      </trkpt>
      <trkpt lat="41.26564167" lon="1.958895">
        <ele>6.0</ele>
        <time>2019-12-21T13:46:21.411Z</time>
      </trkpt>
      <trkpt lat="41.26564167" lon="1.958895">
        <ele>6.0</ele>
        <time>2019-12-21T13:46:22.421Z</time>
      </trkpt>
      <trkpt lat="41.26563667" lon="1.95904667">
        <ele>6.0</ele>
        <time>2019-12-21T13:46:23.411Z</time>
      </trkpt>
      <trkpt lat="41.26563667" lon="1.95904667">
        <ele>6.0</ele>
        <time>2019-12-21T13:46:24.406Z</time>
      </trkpt>
      <trkpt lat="41.26563667" lon="1.95920333">
        <ele>6.0</ele>
        <time>2019-12-21T13:46:25.430Z</time>
      </trkpt>
      <trkpt lat="41.26563667" lon="1.95920333">
        <ele>6.0</ele>
        <time>2019-12-21T13:46:26.413Z</time>
      </trkpt>
      <trkpt lat="41.26563833" lon="1.95936333">
        <ele>6.0</ele>
        <time>2019-12-21T13:46:27.412Z</time>
      </trkpt>
      <trkpt lat="41.26563833" lon="1.95936333">
        <ele>6.0</ele>
        <time>2019-12-21T13:46:28.409Z</time>
      </trkpt>
      <trkpt lat="41.26564167" lon="1.95953">
        <ele>7.0</ele>
        <time>2019-12-21T13:46:29.411Z</time>
      </trkpt>
      <trkpt lat="41.26564167" lon="1.95953">
        <ele>7.0</ele>
        <time>2019-12-21T13:46:30.406Z</time>
      </trkpt>
      <trkpt lat="41.265645" lon="1.95970167">
        <ele>7.0</ele>
        <time>2019-12-21T13:46:31.429Z</time>
      </trkpt>
      <trkpt lat="41.265645" lon="1.95978833">
        <ele>7.0</ele>
        <time>2019-12-21T13:46:32.430Z</time>
      </trkpt>
      <trkpt lat="41.265645" lon="1.95978833">
        <ele>7.0</ele>
        <time>2019-12-21T13:46:33.414Z</time>
      </trkpt>
      <trkpt lat="41.26565" lon="1.959965">
        <ele>7.0</ele>
        <time>2019-12-21T13:46:34.411Z</time>
      </trkpt>
      <trkpt lat="41.26565" lon="1.959965">
        <ele>7.0</ele>
        <time>2019-12-21T13:46:35.435Z</time>
      </trkpt>
      <trkpt lat="41.26565333" lon="1.96014333">
        <ele>7.0</ele>
        <time>2019-12-21T13:46:36.419Z</time>
      </trkpt>
      <trkpt lat="41.26565667" lon="1.96023333">
        <ele>7.0</ele>
        <time>2019-12-21T13:46:37.411Z</time>
      </trkpt>
      <trkpt lat="41.26565667" lon="1.96023333">
        <ele>7.0</ele>
        <time>2019-12-21T13:46:38.406Z</time>
      </trkpt>
      <trkpt lat="41.26566" lon="1.96040833">
        <ele>7.0</ele>
        <time>2019-12-21T13:46:39.411Z</time>
      </trkpt>
      <trkpt lat="41.26566" lon="1.96040833">
        <ele>7.0</ele>
        <time>2019-12-21T13:46:40.412Z</time>
      </trkpt>
      <trkpt lat="41.265665" lon="1.96058333">
        <ele>8.0</ele>
        <time>2019-12-21T13:46:41.411Z</time>
      </trkpt>
      <trkpt lat="41.26566667" lon="1.96067">
        <ele>8.0</ele>
        <time>2019-12-21T13:46:42.419Z</time>
      </trkpt>
      <trkpt lat="41.26566833" lon="1.96075667">
        <ele>7.0</ele>
        <time>2019-12-21T13:46:43.413Z</time>
      </trkpt>
      <trkpt lat="41.26566833" lon="1.96075667">
        <ele>7.0</ele>
        <time>2019-12-21T13:46:44.406Z</time>
      </trkpt>
      <trkpt lat="41.26567167" lon="1.96093333">
        <ele>7.0</ele>
        <time>2019-12-21T13:46:45.411Z</time>
      </trkpt>
      <trkpt lat="41.26567167" lon="1.96093333">
        <ele>7.0</ele>
        <time>2019-12-21T13:46:46.404Z</time>
      </trkpt>
      <trkpt lat="41.26568" lon="1.96110833">
        <ele>7.0</ele>
        <time>2019-12-21T13:46:47.428Z</time>
      </trkpt>
      <trkpt lat="41.26568" lon="1.96110833">
        <ele>7.0</ele>
        <time>2019-12-21T13:46:48.419Z</time>
      </trkpt>
      <trkpt lat="41.26568667" lon="1.96128167">
        <ele>7.0</ele>
        <time>2019-12-21T13:46:49.414Z</time>
      </trkpt>
      <trkpt lat="41.26568667" lon="1.96128167">
        <ele>7.0</ele>
        <time>2019-12-21T13:46:50.406Z</time>
      </trkpt>
      <trkpt lat="41.265695" lon="1.96145667">
        <ele>7.0</ele>
        <time>2019-12-21T13:46:51.412Z</time>
      </trkpt>
      <trkpt lat="41.265695" lon="1.96145667">
        <ele>7.0</ele>
        <time>2019-12-21T13:46:52.423Z</time>
      </trkpt>
      <trkpt lat="41.26569667" lon="1.96164333">
        <ele>7.0</ele>
        <time>2019-12-21T13:46:53.408Z</time>
      </trkpt>
      <trkpt lat="41.26569667" lon="1.96164333">
        <ele>7.0</ele>
        <time>2019-12-21T13:46:54.406Z</time>
      </trkpt>
      <trkpt lat="41.26570167" lon="1.96182833">
        <ele>7.0</ele>
        <time>2019-12-21T13:46:55.431Z</time>
      </trkpt>
      <trkpt lat="41.26570167" lon="1.96182833">
        <ele>7.0</ele>
        <time>2019-12-21T13:46:56.425Z</time>
      </trkpt>
      <trkpt lat="41.26570667" lon="1.962005">
        <ele>7.0</ele>
        <time>2019-12-21T13:46:57.412Z</time>
      </trkpt>
      <trkpt lat="41.26570667" lon="1.962005">
        <ele>7.0</ele>
        <time>2019-12-21T13:46:58.407Z</time>
      </trkpt>
      <trkpt lat="41.26571333" lon="1.96218">
        <ele>7.0</ele>
        <time>2019-12-21T13:46:59.412Z</time>
      </trkpt>
      <trkpt lat="41.265715" lon="1.96226833">
        <ele>7.0</ele>
        <time>2019-12-21T13:47:00.415Z</time>
      </trkpt>
      <trkpt lat="41.265715" lon="1.96226833">
        <ele>7.0</ele>
        <time>2019-12-21T13:47:01.409Z</time>
      </trkpt>
      <trkpt lat="41.26572167" lon="1.96244333">
        <ele>8.0</ele>
        <time>2019-12-21T13:47:02.413Z</time>
      </trkpt>
      <trkpt lat="41.26572333" lon="1.96253167">
        <ele>8.0</ele>
        <time>2019-12-21T13:47:03.412Z</time>
      </trkpt>
      <trkpt lat="41.26572333" lon="1.96253167">
        <ele>8.0</ele>
        <time>2019-12-21T13:47:04.407Z</time>
      </trkpt>
      <trkpt lat="41.26572833" lon="1.96270833">
        <ele>8.0</ele>
        <time>2019-12-21T13:47:05.410Z</time>
      </trkpt>
      <trkpt lat="41.26572833" lon="1.96270833">
        <ele>8.0</ele>
        <time>2019-12-21T13:47:06.406Z</time>
      </trkpt>
      <trkpt lat="41.26573333" lon="1.962885">
        <ele>8.0</ele>
        <time>2019-12-21T13:47:07.430Z</time>
      </trkpt>
      <trkpt lat="41.26573333" lon="1.962885">
        <ele>8.0</ele>
        <time>2019-12-21T13:47:08.413Z</time>
      </trkpt>
      <trkpt lat="41.26573667" lon="1.96306667">
        <ele>8.0</ele>
        <time>2019-12-21T13:47:09.411Z</time>
      </trkpt>
      <trkpt lat="41.26574" lon="1.963155">
        <ele>8.0</ele>
        <time>2019-12-21T13:47:10.412Z</time>
      </trkpt>
      <trkpt lat="41.26574" lon="1.963155">
        <ele>8.0</ele>
        <time>2019-12-21T13:47:11.407Z</time>
      </trkpt>
      <trkpt lat="41.26574333" lon="1.963335">
        <ele>8.0</ele>
        <time>2019-12-21T13:47:12.412Z</time>
      </trkpt>
      <trkpt lat="41.265745" lon="1.96342667">
        <ele>8.0</ele>
        <time>2019-12-21T13:47:13.414Z</time>
      </trkpt>
      <trkpt lat="41.265745" lon="1.96342667">
        <ele>8.0</ele>
        <time>2019-12-21T13:47:14.406Z</time>
      </trkpt>
      <trkpt lat="41.26574667" lon="1.96360667">
        <ele>8.0</ele>
        <time>2019-12-21T13:47:15.412Z</time>
      </trkpt>
      <trkpt lat="41.26574667" lon="1.96360667">
        <ele>8.0</ele>
        <time>2019-12-21T13:47:16.407Z</time>
      </trkpt>
      <trkpt lat="41.26574833" lon="1.96378667">
        <ele>8.0</ele>
        <time>2019-12-21T13:47:17.412Z</time>
      </trkpt>
      <trkpt lat="41.26574833" lon="1.96378667">
        <ele>8.0</ele>
        <time>2019-12-21T13:47:18.407Z</time>
      </trkpt>
      <trkpt lat="41.26575" lon="1.963965">
        <ele>8.0</ele>
        <time>2019-12-21T13:47:19.431Z</time>
      </trkpt>
      <trkpt lat="41.26575" lon="1.963965">
        <ele>8.0</ele>
        <time>2019-12-21T13:47:20.422Z</time>
      </trkpt>
      <trkpt lat="41.26575667" lon="1.96414667">
        <ele>8.0</ele>
        <time>2019-12-21T13:47:21.412Z</time>
      </trkpt>
      <trkpt lat="41.26575667" lon="1.96414667">
        <ele>8.0</ele>
        <time>2019-12-21T13:47:22.420Z</time>
      </trkpt>
      <trkpt lat="41.26576" lon="1.96432667">
        <ele>8.0</ele>
        <time>2019-12-21T13:47:23.413Z</time>
      </trkpt>
      <trkpt lat="41.26576167" lon="1.964415">
        <ele>9.0</ele>
        <time>2019-12-21T13:47:24.412Z</time>
      </trkpt>
      <trkpt lat="41.26576167" lon="1.9645">
        <ele>9.0</ele>
        <time>2019-12-21T13:47:25.413Z</time>
      </trkpt>
      <trkpt lat="41.26576167" lon="1.9645">
        <ele>9.0</ele>
        <time>2019-12-21T13:47:26.407Z</time>
      </trkpt>
      <trkpt lat="41.265765" lon="1.964675">
        <ele>9.0</ele>
        <time>2019-12-21T13:47:27.412Z</time>
      </trkpt>
      <trkpt lat="41.265765" lon="1.964675">
        <ele>9.0</ele>
        <time>2019-12-21T13:47:28.406Z</time>
      </trkpt>
      <trkpt lat="41.26577167" lon="1.96485167">
        <ele>9.0</ele>
        <time>2019-12-21T13:47:29.412Z</time>
      </trkpt>
      <trkpt lat="41.26577167" lon="1.96485167">
        <ele>9.0</ele>
        <time>2019-12-21T13:47:30.407Z</time>
      </trkpt>
      <trkpt lat="41.26577833" lon="1.96503">
        <ele>9.0</ele>
        <time>2019-12-21T13:47:31.430Z</time>
      </trkpt>
      <trkpt lat="41.26578" lon="1.96511667">
        <ele>9.0</ele>
        <time>2019-12-21T13:47:32.401Z</time>
      </trkpt>
      <trkpt lat="41.26578167" lon="1.96520167">
        <ele>10.0</ele>
        <time>2019-12-21T13:47:33.432Z</time>
      </trkpt>
      <trkpt lat="41.26578167" lon="1.96520167">
        <ele>10.0</ele>
        <time>2019-12-21T13:47:34.426Z</time>
      </trkpt>
      <trkpt lat="41.26578333" lon="1.96537833">
        <ele>10.0</ele>
        <time>2019-12-21T13:47:35.412Z</time>
      </trkpt>
      <trkpt lat="41.26578333" lon="1.965465">
        <ele>10.0</ele>
        <time>2019-12-21T13:47:36.412Z</time>
      </trkpt>
      <trkpt lat="41.26578333" lon="1.965465">
        <ele>10.0</ele>
        <time>2019-12-21T13:47:37.421Z</time>
      </trkpt>
      <trkpt lat="41.265785" lon="1.96563833">
        <ele>10.0</ele>
        <time>2019-12-21T13:47:38.412Z</time>
      </trkpt>
      <trkpt lat="41.265785" lon="1.96563833">
        <ele>10.0</ele>
        <time>2019-12-21T13:47:39.407Z</time>
      </trkpt>
      <trkpt lat="41.26578333" lon="1.96581333">
        <ele>10.0</ele>
        <time>2019-12-21T13:47:40.412Z</time>
      </trkpt>
      <trkpt lat="41.26578333" lon="1.96581333">
        <ele>10.0</ele>
        <time>2019-12-21T13:47:41.406Z</time>
      </trkpt>
      <trkpt lat="41.26578" lon="1.96599">
        <ele>11.0</ele>
        <time>2019-12-21T13:47:42.412Z</time>
      </trkpt>
      <trkpt lat="41.26577833" lon="1.96607667">
        <ele>11.0</ele>
        <time>2019-12-21T13:47:43.413Z</time>
      </trkpt>
      <trkpt lat="41.26577833" lon="1.96607667">
        <ele>11.0</ele>
        <time>2019-12-21T13:47:44.406Z</time>
      </trkpt>
      <trkpt lat="41.26577833" lon="1.96625">
        <ele>11.0</ele>
        <time>2019-12-21T13:47:45.412Z</time>
      </trkpt>
      <trkpt lat="41.26577833" lon="1.96625">
        <ele>11.0</ele>
        <time>2019-12-21T13:47:46.422Z</time>
      </trkpt>
      <trkpt lat="41.26577667" lon="1.96642">
        <ele>11.0</ele>
        <time>2019-12-21T13:47:47.412Z</time>
      </trkpt>
      <trkpt lat="41.26577667" lon="1.96642">
        <ele>11.0</ele>
        <time>2019-12-21T13:47:48.407Z</time>
      </trkpt>
      <trkpt lat="41.265775" lon="1.96659667">
        <ele>11.0</ele>
        <time>2019-12-21T13:47:49.431Z</time>
      </trkpt>
      <trkpt lat="41.265775" lon="1.96668667">
        <ele>10.0</ele>
        <time>2019-12-21T13:47:50.428Z</time>
      </trkpt>
      <trkpt lat="41.265775" lon="1.96668667">
        <ele>10.0</ele>
        <time>2019-12-21T13:47:51.430Z</time>
      </trkpt>
      <trkpt lat="41.26577667" lon="1.96686167">
        <ele>10.0</ele>
        <time>2019-12-21T13:47:52.422Z</time>
      </trkpt>
      <trkpt lat="41.26577667" lon="1.96686167">
        <ele>10.0</ele>
        <time>2019-12-21T13:47:53.407Z</time>
      </trkpt>
      <trkpt lat="41.26577833" lon="1.96704167">
        <ele>10.0</ele>
        <time>2019-12-21T13:47:54.413Z</time>
      </trkpt>
      <trkpt lat="41.26577833" lon="1.96713">
        <ele>10.0</ele>
        <time>2019-12-21T13:47:55.414Z</time>
      </trkpt>
      <trkpt lat="41.26577833" lon="1.96713">
        <ele>10.0</ele>
        <time>2019-12-21T13:47:56.407Z</time>
      </trkpt>
      <trkpt lat="41.26578167" lon="1.96730667">
        <ele>10.0</ele>
        <time>2019-12-21T13:47:57.412Z</time>
      </trkpt>
      <trkpt lat="41.26578167" lon="1.96730667">
        <ele>10.0</ele>
        <time>2019-12-21T13:47:58.407Z</time>
      </trkpt>
      <trkpt lat="41.26577833" lon="1.96747667">
        <ele>10.0</ele>
        <time>2019-12-21T13:47:59.412Z</time>
      </trkpt>
      <trkpt lat="41.26577833" lon="1.96747667">
        <ele>10.0</ele>
        <time>2019-12-21T13:48:00.410Z</time>
      </trkpt>
      <trkpt lat="41.265775" lon="1.96764833">
        <ele>9.0</ele>
        <time>2019-12-21T13:48:01.414Z</time>
      </trkpt>
      <trkpt lat="41.265775" lon="1.96764833">
        <ele>9.0</ele>
        <time>2019-12-21T13:48:02.422Z</time>
      </trkpt>
      <trkpt lat="41.26577167" lon="1.96782667">
        <ele>9.0</ele>
        <time>2019-12-21T13:48:03.412Z</time>
      </trkpt>
      <trkpt lat="41.26577167" lon="1.96782667">
        <ele>9.0</ele>
        <time>2019-12-21T13:48:04.407Z</time>
      </trkpt>
      <trkpt lat="41.26577333" lon="1.96800833">
        <ele>8.0</ele>
        <time>2019-12-21T13:48:05.423Z</time>
      </trkpt>
      <trkpt lat="41.26577333" lon="1.96800833">
        <ele>8.0</ele>
        <time>2019-12-21T13:48:06.407Z</time>
      </trkpt>
      <trkpt lat="41.26577833" lon="1.96818833">
        <ele>8.0</ele>
        <time>2019-12-21T13:48:07.432Z</time>
      </trkpt>
      <trkpt lat="41.26577833" lon="1.96818833">
        <ele>8.0</ele>
        <time>2019-12-21T13:48:08.428Z</time>
      </trkpt>
      <trkpt lat="41.26578667" lon="1.96836333">
        <ele>7.0</ele>
        <time>2019-12-21T13:48:09.411Z</time>
      </trkpt>
      <trkpt lat="41.26579" lon="1.96845">
        <ele>7.0</ele>
        <time>2019-12-21T13:48:10.422Z</time>
      </trkpt>
      <trkpt lat="41.26579" lon="1.96845">
        <ele>7.0</ele>
        <time>2019-12-21T13:48:11.407Z</time>
      </trkpt>
      <trkpt lat="41.26579167" lon="1.96861667">
        <ele>7.0</ele>
        <time>2019-12-21T13:48:12.413Z</time>
      </trkpt>
      <trkpt lat="41.26578833" lon="1.9687">
        <ele>7.0</ele>
        <time>2019-12-21T13:48:13.414Z</time>
      </trkpt>
      <trkpt lat="41.26578833" lon="1.9687">
        <ele>7.0</ele>
        <time>2019-12-21T13:48:14.407Z</time>
      </trkpt>
      <trkpt lat="41.26579" lon="1.96887">
        <ele>7.0</ele>
        <time>2019-12-21T13:48:15.412Z</time>
      </trkpt>
      <trkpt lat="41.26579" lon="1.96887">
        <ele>7.0</ele>
        <time>2019-12-21T13:48:16.407Z</time>
      </trkpt>
      <trkpt lat="41.26579833" lon="1.96904">
        <ele>7.0</ele>
        <time>2019-12-21T13:48:17.432Z</time>
      </trkpt>
      <trkpt lat="41.26579833" lon="1.96904">
        <ele>7.0</ele>
        <time>2019-12-21T13:48:18.417Z</time>
      </trkpt>
      <trkpt lat="41.26581667" lon="1.96921333">
        <ele>6.0</ele>
        <time>2019-12-21T13:48:19.414Z</time>
      </trkpt>
      <trkpt lat="41.26581667" lon="1.96921333">
        <ele>6.0</ele>
        <time>2019-12-21T13:48:20.407Z</time>
      </trkpt>
      <trkpt lat="41.26584167" lon="1.96938">
        <ele>6.0</ele>
        <time>2019-12-21T13:48:21.412Z</time>
      </trkpt>
      <trkpt lat="41.26584167" lon="1.96938">
        <ele>6.0</ele>
        <time>2019-12-21T13:48:22.423Z</time>
      </trkpt>
      <trkpt lat="41.26586833" lon="1.96954667">
        <ele>5.0</ele>
        <time>2019-12-21T13:48:23.412Z</time>
      </trkpt>
      <trkpt lat="41.26586833" lon="1.96954667">
        <ele>5.0</ele>
        <time>2019-12-21T13:48:24.406Z</time>
      </trkpt>
      <trkpt lat="41.2659" lon="1.96972">
        <ele>4.0</ele>
        <time>2019-12-21T13:48:25.430Z</time>
      </trkpt>
      <trkpt lat="41.2659" lon="1.96972">
        <ele>4.0</ele>
        <time>2019-12-21T13:48:26.413Z</time>
      </trkpt>
      <trkpt lat="41.26593667" lon="1.969885">
        <ele>4.0</ele>
        <time>2019-12-21T13:48:27.412Z</time>
      </trkpt>
      <trkpt lat="41.26593667" lon="1.969885">
        <ele>4.0</ele>
        <time>2019-12-21T13:48:28.407Z</time>
      </trkpt>
      <trkpt lat="41.26597167" lon="1.97004167">
        <ele>4.0</ele>
        <time>2019-12-21T13:48:29.412Z</time>
      </trkpt>
      <trkpt lat="41.26597167" lon="1.97004167">
        <ele>4.0</ele>
        <time>2019-12-21T13:48:30.407Z</time>
      </trkpt>
      <trkpt lat="41.266005" lon="1.97018833">
        <ele>4.0</ele>
        <time>2019-12-21T13:48:31.432Z</time>
      </trkpt>
      <trkpt lat="41.266005" lon="1.97018833">
        <ele>4.0</ele>
        <time>2019-12-21T13:48:32.407Z</time>
      </trkpt>
      <trkpt lat="41.26603333" lon="1.97033167">
        <ele>4.0</ele>
        <time>2019-12-21T13:48:33.413Z</time>
      </trkpt>
      <trkpt lat="41.26603333" lon="1.97033167">
        <ele>4.0</ele>
        <time>2019-12-21T13:48:34.407Z</time>
      </trkpt>
      <trkpt lat="41.26606167" lon="1.97047667">
        <ele>4.0</ele>
        <time>2019-12-21T13:48:35.413Z</time>
      </trkpt>
      <trkpt lat="41.26606167" lon="1.97047667">
        <ele>4.0</ele>
        <time>2019-12-21T13:48:36.408Z</time>
      </trkpt>
      <trkpt lat="41.26609" lon="1.97061667">
        <ele>4.0</ele>
        <time>2019-12-21T13:48:37.432Z</time>
      </trkpt>
      <trkpt lat="41.26609" lon="1.97061667">
        <ele>4.0</ele>
        <time>2019-12-21T13:48:38.417Z</time>
      </trkpt>
      <trkpt lat="41.26611667" lon="1.97075833">
        <ele>4.0</ele>
        <time>2019-12-21T13:48:39.410Z</time>
      </trkpt>
      <trkpt lat="41.26611667" lon="1.97075833">
        <ele>4.0</ele>
        <time>2019-12-21T13:48:40.407Z</time>
      </trkpt>
      <trkpt lat="41.26613" lon="1.97090667">
        <ele>4.0</ele>
        <time>2019-12-21T13:48:41.410Z</time>
      </trkpt>
      <trkpt lat="41.266135" lon="1.97098333">
        <ele>4.0</ele>
        <time>2019-12-21T13:48:42.412Z</time>
      </trkpt>
      <trkpt lat="41.26614167" lon="1.97105833">
        <ele>4.0</ele>
        <time>2019-12-21T13:48:43.415Z</time>
      </trkpt>
      <trkpt lat="41.26614167" lon="1.97105833">
        <ele>4.0</ele>
        <time>2019-12-21T13:48:44.408Z</time>
      </trkpt>
      <trkpt lat="41.26615667" lon="1.97120333">
        <ele>4.0</ele>
        <time>2019-12-21T13:48:45.412Z</time>
      </trkpt>
      <trkpt lat="41.26615667" lon="1.97120333">
        <ele>4.0</ele>
        <time>2019-12-21T13:48:46.407Z</time>
      </trkpt>
      <trkpt lat="41.26617167" lon="1.97134833">
        <ele>4.0</ele>
        <time>2019-12-21T13:48:47.432Z</time>
      </trkpt>
      <trkpt lat="41.266175" lon="1.97142333">
        <ele>4.0</ele>
        <time>2019-12-21T13:48:48.423Z</time>
      </trkpt>
      <trkpt lat="41.266175" lon="1.97150333">
        <ele>4.0</ele>
        <time>2019-12-21T13:48:49.415Z</time>
      </trkpt>
      <trkpt lat="41.266175" lon="1.97150333">
        <ele>4.0</ele>
        <time>2019-12-21T13:48:50.407Z</time>
      </trkpt>
      <trkpt lat="41.26617167" lon="1.97166">
        <ele>5.0</ele>
        <time>2019-12-21T13:48:51.413Z</time>
      </trkpt>
      <trkpt lat="41.26617167" lon="1.97166">
        <ele>5.0</ele>
        <time>2019-12-21T13:48:52.427Z</time>
      </trkpt>
      <trkpt lat="41.266165" lon="1.97182667">
        <ele>5.0</ele>
        <time>2019-12-21T13:48:53.412Z</time>
      </trkpt>
      <trkpt lat="41.266165" lon="1.97182667">
        <ele>5.0</ele>
        <time>2019-12-21T13:48:54.407Z</time>
      </trkpt>
      <trkpt lat="41.26615333" lon="1.97199333">
        <ele>5.0</ele>
        <time>2019-12-21T13:48:55.430Z</time>
      </trkpt>
      <trkpt lat="41.26614667" lon="1.97207667">
        <ele>5.0</ele>
        <time>2019-12-21T13:48:56.414Z</time>
      </trkpt>
      <trkpt lat="41.26614667" lon="1.97207667">
        <ele>5.0</ele>
        <time>2019-12-21T13:48:57.409Z</time>
      </trkpt>
      <trkpt lat="41.26613333" lon="1.97224667">
        <ele>5.0</ele>
        <time>2019-12-21T13:48:58.412Z</time>
      </trkpt>
      <trkpt lat="41.26613333" lon="1.97224667">
        <ele>5.0</ele>
        <time>2019-12-21T13:48:59.407Z</time>
      </trkpt>
      <trkpt lat="41.26611" lon="1.97241">
        <ele>5.0</ele>
        <time>2019-12-21T13:49:00.417Z</time>
      </trkpt>
      <trkpt lat="41.26609833" lon="1.97249167">
        <ele>5.0</ele>
        <time>2019-12-21T13:49:01.416Z</time>
      </trkpt>
      <trkpt lat="41.266085" lon="1.97257333">
        <ele>5.0</ele>
        <time>2019-12-21T13:49:02.432Z</time>
      </trkpt>
      <trkpt lat="41.266085" lon="1.97257333">
        <ele>5.0</ele>
        <time>2019-12-21T13:49:03.400Z</time>
      </trkpt>
      <trkpt lat="41.26606333" lon="1.97272667">
        <ele>5.0</ele>
        <time>2019-12-21T13:49:04.406Z</time>
      </trkpt>
      <trkpt lat="41.26606333" lon="1.97272667">
        <ele>5.0</ele>
        <time>2019-12-21T13:49:05.425Z</time>
      </trkpt>
      <trkpt lat="41.26603667" lon="1.97288">
        <ele>5.0</ele>
        <time>2019-12-21T13:49:06.412Z</time>
      </trkpt>
      <trkpt lat="41.26602" lon="1.97295667">
        <ele>5.0</ele>
        <time>2019-12-21T13:49:07.417Z</time>
      </trkpt>
      <trkpt lat="41.26602" lon="1.97295667">
        <ele>5.0</ele>
        <time>2019-12-21T13:49:08.408Z</time>
      </trkpt>
      <trkpt lat="41.265985" lon="1.97311333">
        <ele>5.0</ele>
        <time>2019-12-21T13:49:09.422Z</time>
      </trkpt>
      <trkpt lat="41.265985" lon="1.97311333">
        <ele>5.0</ele>
        <time>2019-12-21T13:49:10.413Z</time>
      </trkpt>
      <trkpt lat="41.26594667" lon="1.97326333">
        <ele>6.0</ele>
        <time>2019-12-21T13:49:11.413Z</time>
      </trkpt>
      <trkpt lat="41.26594667" lon="1.97326333">
        <ele>6.0</ele>
        <time>2019-12-21T13:49:12.409Z</time>
      </trkpt>
      <trkpt lat="41.26591333" lon="1.97340667">
        <ele>6.0</ele>
        <time>2019-12-21T13:49:13.412Z</time>
      </trkpt>
      <trkpt lat="41.26591333" lon="1.97340667">
        <ele>6.0</ele>
        <time>2019-12-21T13:49:14.420Z</time>
      </trkpt>
      <trkpt lat="41.26589" lon="1.97352167">
        <ele>6.0</ele>
        <time>2019-12-21T13:49:15.412Z</time>
      </trkpt>
      <trkpt lat="41.26587833" lon="1.97357833">
        <ele>6.0</ele>
        <time>2019-12-21T13:49:16.413Z</time>
      </trkpt>
      <trkpt lat="41.26587833" lon="1.97357833">
        <ele>6.0</ele>
        <time>2019-12-21T13:49:17.427Z</time>
      </trkpt>
      <trkpt lat="41.26585667" lon="1.97368833">
        <ele>7.0</ele>
        <time>2019-12-21T13:49:18.413Z</time>
      </trkpt>
      <trkpt lat="41.26584333" lon="1.97374667">
        <ele>7.0</ele>
        <time>2019-12-21T13:49:19.415Z</time>
      </trkpt>
      <trkpt lat="41.26584333" lon="1.97374667">
        <ele>7.0</ele>
        <time>2019-12-21T13:49:20.407Z</time>
      </trkpt>
      <trkpt lat="41.26582" lon="1.97386667">
        <ele>7.0</ele>
        <time>2019-12-21T13:49:21.413Z</time>
      </trkpt>
      <trkpt lat="41.26582" lon="1.97386667">
        <ele>7.0</ele>
        <time>2019-12-21T13:49:22.427Z</time>
      </trkpt>
      <trkpt lat="41.26578667" lon="1.97399167">
        <ele>7.0</ele>
        <time>2019-12-21T13:49:23.412Z</time>
      </trkpt>
      <trkpt lat="41.26578667" lon="1.97399167">
        <ele>7.0</ele>
        <time>2019-12-21T13:49:24.408Z</time>
      </trkpt>
      <trkpt lat="41.265755" lon="1.974125">
        <ele>7.0</ele>
        <time>2019-12-21T13:49:25.431Z</time>
      </trkpt>
      <trkpt lat="41.265755" lon="1.974125">
        <ele>7.0</ele>
        <time>2019-12-21T13:49:26.415Z</time>
      </trkpt>
      <trkpt lat="41.26572833" lon="1.97426333">
        <ele>7.0</ele>
        <time>2019-12-21T13:49:27.414Z</time>
      </trkpt>
      <trkpt lat="41.26572833" lon="1.97426333">
        <ele>7.0</ele>
        <time>2019-12-21T13:49:28.407Z</time>
      </trkpt>
      <trkpt lat="41.26569833" lon="1.9744">
        <ele>7.0</ele>
        <time>2019-12-21T13:49:29.414Z</time>
      </trkpt>
      <trkpt lat="41.26569833" lon="1.9744">
        <ele>7.0</ele>
        <time>2019-12-21T13:49:30.407Z</time>
      </trkpt>
      <trkpt lat="41.26567167" lon="1.97454">
        <ele>7.0</ele>
        <time>2019-12-21T13:49:31.441Z</time>
      </trkpt>
      <trkpt lat="41.26567167" lon="1.97454">
        <ele>7.0</ele>
        <time>2019-12-21T13:49:32.432Z</time>
      </trkpt>
      <trkpt lat="41.26565" lon="1.97468333">
        <ele>7.0</ele>
        <time>2019-12-21T13:49:33.415Z</time>
      </trkpt>
      <trkpt lat="41.26565" lon="1.97468333">
        <ele>7.0</ele>
        <time>2019-12-21T13:49:34.408Z</time>
      </trkpt>
      <trkpt lat="41.26564167" lon="1.97482833">
        <ele>6.0</ele>
        <time>2019-12-21T13:49:35.412Z</time>
      </trkpt>
      <trkpt lat="41.26564167" lon="1.97482833">
        <ele>6.0</ele>
        <time>2019-12-21T13:49:36.407Z</time>
      </trkpt>
      <trkpt lat="41.265635" lon="1.974975">
        <ele>6.0</ele>
        <time>2019-12-21T13:49:37.397Z</time>
      </trkpt>
      <trkpt lat="41.265635" lon="1.974975">
        <ele>6.0</ele>
        <time>2019-12-21T13:49:38.414Z</time>
      </trkpt>
      <trkpt lat="41.26563333" lon="1.97512167">
        <ele>6.0</ele>
        <time>2019-12-21T13:49:39.414Z</time>
      </trkpt>
      <trkpt lat="41.26563333" lon="1.97512167">
        <ele>6.0</ele>
        <time>2019-12-21T13:49:40.408Z</time>
      </trkpt>
      <trkpt lat="41.26563167" lon="1.97527">
        <ele>6.0</ele>
        <time>2019-12-21T13:49:41.425Z</time>
      </trkpt>
      <trkpt lat="41.26563" lon="1.97534333">
        <ele>6.0</ele>
        <time>2019-12-21T13:49:42.413Z</time>
      </trkpt>
      <trkpt lat="41.265625" lon="1.975415">
        <ele>6.0</ele>
        <time>2019-12-21T13:49:43.416Z</time>
      </trkpt>
      <trkpt lat="41.265625" lon="1.975415">
        <ele>6.0</ele>
        <time>2019-12-21T13:49:44.408Z</time>
      </trkpt>
      <trkpt lat="41.26562" lon="1.975565">
        <ele>6.0</ele>
        <time>2019-12-21T13:49:45.411Z</time>
      </trkpt>
      <trkpt lat="41.26561833" lon="1.97563833">
        <ele>6.0</ele>
        <time>2019-12-21T13:49:46.413Z</time>
      </trkpt>
      <trkpt lat="41.26561833" lon="1.97563833">
        <ele>6.0</ele>
        <time>2019-12-21T13:49:47.412Z</time>
      </trkpt>
      <trkpt lat="41.265615" lon="1.97579">
        <ele>6.0</ele>
        <time>2019-12-21T13:49:48.414Z</time>
      </trkpt>
      <trkpt lat="41.265615" lon="1.97586333">
        <ele>6.0</ele>
        <time>2019-12-21T13:49:49.416Z</time>
      </trkpt>
      <trkpt lat="41.265615" lon="1.97586333">
        <ele>6.0</ele>
        <time>2019-12-21T13:49:50.408Z</time>
      </trkpt>
      <trkpt lat="41.265605" lon="1.97600333">
        <ele>6.0</ele>
        <time>2019-12-21T13:49:51.414Z</time>
      </trkpt>
      <trkpt lat="41.265605" lon="1.97600333">
        <ele>6.0</ele>
        <time>2019-12-21T13:49:52.427Z</time>
      </trkpt>
      <trkpt lat="41.26559667" lon="1.97614667">
        <ele>7.0</ele>
        <time>2019-12-21T13:49:53.413Z</time>
      </trkpt>
      <trkpt lat="41.26559667" lon="1.97614667">
        <ele>7.0</ele>
        <time>2019-12-21T13:49:54.408Z</time>
      </trkpt>
      <trkpt lat="41.26559333" lon="1.97629833">
        <ele>7.0</ele>
        <time>2019-12-21T13:49:55.431Z</time>
      </trkpt>
      <trkpt lat="41.26559333" lon="1.97629833">
        <ele>7.0</ele>
        <time>2019-12-21T13:49:56.415Z</time>
      </trkpt>
      <trkpt lat="41.26559167" lon="1.97645833">
        <ele>7.0</ele>
        <time>2019-12-21T13:49:57.422Z</time>
      </trkpt>
      <trkpt lat="41.26559167" lon="1.97645833">
        <ele>7.0</ele>
        <time>2019-12-21T13:49:58.410Z</time>
      </trkpt>
      <trkpt lat="41.26559167" lon="1.976625">
        <ele>7.0</ele>
        <time>2019-12-21T13:49:59.413Z</time>
      </trkpt>
      <trkpt lat="41.26559333" lon="1.97670833">
        <ele>7.0</ele>
        <time>2019-12-21T13:50:00.422Z</time>
      </trkpt>
      <trkpt lat="41.26559333" lon="1.97670833">
        <ele>7.0</ele>
        <time>2019-12-21T13:50:01.414Z</time>
      </trkpt>
      <trkpt lat="41.26559333" lon="1.97687167">
        <ele>7.0</ele>
        <time>2019-12-21T13:50:02.433Z</time>
      </trkpt>
      <trkpt lat="41.26559333" lon="1.97687167">
        <ele>7.0</ele>
        <time>2019-12-21T13:50:03.418Z</time>
      </trkpt>
      <trkpt lat="41.26558833" lon="1.97704">
        <ele>8.0</ele>
        <time>2019-12-21T13:50:04.412Z</time>
      </trkpt>
      <trkpt lat="41.26558833" lon="1.97704">
        <ele>8.0</ele>
        <time>2019-12-21T13:50:05.408Z</time>
      </trkpt>
      <trkpt lat="41.26558333" lon="1.97720333">
        <ele>8.0</ele>
        <time>2019-12-21T13:50:06.414Z</time>
      </trkpt>
      <trkpt lat="41.26558333" lon="1.97720333">
        <ele>8.0</ele>
        <time>2019-12-21T13:50:07.412Z</time>
      </trkpt>
      <trkpt lat="41.26557833" lon="1.977375">
        <ele>8.0</ele>
        <time>2019-12-21T13:50:08.413Z</time>
      </trkpt>
      <trkpt lat="41.26557833" lon="1.977375">
        <ele>8.0</ele>
        <time>2019-12-21T13:50:09.408Z</time>
      </trkpt>
      <trkpt lat="41.26557667" lon="1.97754">
        <ele>8.0</ele>
        <time>2019-12-21T13:50:10.414Z</time>
      </trkpt>
      <trkpt lat="41.26557667" lon="1.97754">
        <ele>8.0</ele>
        <time>2019-12-21T13:50:11.408Z</time>
      </trkpt>
      <trkpt lat="41.26557667" lon="1.97771">
        <ele>8.0</ele>
        <time>2019-12-21T13:50:12.431Z</time>
      </trkpt>
      <trkpt lat="41.26557667" lon="1.97779333">
        <ele>8.0</ele>
        <time>2019-12-21T13:50:13.416Z</time>
      </trkpt>
      <trkpt lat="41.26557667" lon="1.97779333">
        <ele>8.0</ele>
        <time>2019-12-21T13:50:14.408Z</time>
      </trkpt>
      <trkpt lat="41.26557667" lon="1.97796333">
        <ele>8.0</ele>
        <time>2019-12-21T13:50:15.415Z</time>
      </trkpt>
      <trkpt lat="41.26557667" lon="1.97796333">
        <ele>8.0</ele>
        <time>2019-12-21T13:50:16.408Z</time>
      </trkpt>
      <trkpt lat="41.26557" lon="1.97812667">
        <ele>8.0</ele>
        <time>2019-12-21T13:50:17.410Z</time>
      </trkpt>
      <trkpt lat="41.26557" lon="1.97820833">
        <ele>7.0</ele>
        <time>2019-12-21T13:50:18.413Z</time>
      </trkpt>
      <trkpt lat="41.26556833" lon="1.97829167">
        <ele>7.0</ele>
        <time>2019-12-21T13:50:19.416Z</time>
      </trkpt>
      <trkpt lat="41.26556833" lon="1.97829167">
        <ele>7.0</ele>
        <time>2019-12-21T13:50:20.408Z</time>
      </trkpt>
      <trkpt lat="41.26556333" lon="1.97845667">
        <ele>7.0</ele>
        <time>2019-12-21T13:50:21.413Z</time>
      </trkpt>
      <trkpt lat="41.26556333" lon="1.97845667">
        <ele>7.0</ele>
        <time>2019-12-21T13:50:22.428Z</time>
      </trkpt>
      <trkpt lat="41.26556" lon="1.97862">
        <ele>7.0</ele>
        <time>2019-12-21T13:50:23.415Z</time>
      </trkpt>
      <trkpt lat="41.26555833" lon="1.97870333">
        <ele>7.0</ele>
        <time>2019-12-21T13:50:24.414Z</time>
      </trkpt>
      <trkpt lat="41.26555833" lon="1.97870333">
        <ele>7.0</ele>
        <time>2019-12-21T13:50:25.432Z</time>
      </trkpt>
      <trkpt lat="41.26555667" lon="1.97886833">
        <ele>7.0</ele>
        <time>2019-12-21T13:50:26.422Z</time>
      </trkpt>
      <trkpt lat="41.26555667" lon="1.97886833">
        <ele>7.0</ele>
        <time>2019-12-21T13:50:27.408Z</time>
      </trkpt>
      <trkpt lat="41.26555667" lon="1.97903667">
        <ele>7.0</ele>
        <time>2019-12-21T13:50:28.412Z</time>
      </trkpt>
      <trkpt lat="41.26555667" lon="1.97912">
        <ele>7.0</ele>
        <time>2019-12-21T13:50:29.411Z</time>
      </trkpt>
      <trkpt lat="41.26555667" lon="1.97912">
        <ele>7.0</ele>
        <time>2019-12-21T13:50:30.409Z</time>
      </trkpt>
      <trkpt lat="41.26555333" lon="1.97928167">
        <ele>6.0</ele>
        <time>2019-12-21T13:50:31.441Z</time>
      </trkpt>
      <trkpt lat="41.26555333" lon="1.97928167">
        <ele>6.0</ele>
        <time>2019-12-21T13:50:32.412Z</time>
      </trkpt>
      <trkpt lat="41.265555" lon="1.97944667">
        <ele>6.0</ele>
        <time>2019-12-21T13:50:33.414Z</time>
      </trkpt>
      <trkpt lat="41.265555" lon="1.97944667">
        <ele>6.0</ele>
        <time>2019-12-21T13:50:34.408Z</time>
      </trkpt>
      <trkpt lat="41.26556333" lon="1.97962">
        <ele>6.0</ele>
        <time>2019-12-21T13:50:35.413Z</time>
      </trkpt>
      <trkpt lat="41.26557" lon="1.97970667">
        <ele>6.0</ele>
        <time>2019-12-21T13:50:36.413Z</time>
      </trkpt>
      <trkpt lat="41.26557667" lon="1.97979333">
        <ele>5.0</ele>
        <time>2019-12-21T13:50:37.414Z</time>
      </trkpt>
      <trkpt lat="41.26557667" lon="1.97979333">
        <ele>5.0</ele>
        <time>2019-12-21T13:50:38.412Z</time>
      </trkpt>
      <trkpt lat="41.26559333" lon="1.97997667">
        <ele>5.0</ele>
        <time>2019-12-21T13:50:39.415Z</time>
      </trkpt>
      <trkpt lat="41.26559333" lon="1.97997667">
        <ele>5.0</ele>
        <time>2019-12-21T13:50:40.410Z</time>
      </trkpt>
      <trkpt lat="41.265625" lon="1.98014167">
        <ele>5.0</ele>
        <time>2019-12-21T13:50:41.425Z</time>
      </trkpt>
      <trkpt lat="41.265625" lon="1.98014167">
        <ele>5.0</ele>
        <time>2019-12-21T13:50:42.432Z</time>
      </trkpt>
      <trkpt lat="41.26567833" lon="1.98029667">
        <ele>5.0</ele>
        <time>2019-12-21T13:50:43.419Z</time>
      </trkpt>
      <trkpt lat="41.26567833" lon="1.98029667">
        <ele>5.0</ele>
        <time>2019-12-21T13:50:44.409Z</time>
      </trkpt>
      <trkpt lat="41.26573833" lon="1.980445">
        <ele>4.0</ele>
        <time>2019-12-21T13:50:45.416Z</time>
      </trkpt>
      <trkpt lat="41.26573833" lon="1.980445">
        <ele>4.0</ele>
        <time>2019-12-21T13:50:46.406Z</time>
      </trkpt>
      <trkpt lat="41.265795" lon="1.98059167">
        <ele>4.0</ele>
        <time>2019-12-21T13:50:47.430Z</time>
      </trkpt>
      <trkpt lat="41.265795" lon="1.98059167">
        <ele>4.0</ele>
        <time>2019-12-21T13:50:48.402Z</time>
      </trkpt>
      <trkpt lat="41.26585167" lon="1.98073167">
        <ele>4.0</ele>
        <time>2019-12-21T13:50:49.425Z</time>
      </trkpt>
      <trkpt lat="41.26588" lon="1.98080167">
        <ele>4.0</ele>
        <time>2019-12-21T13:50:50.415Z</time>
      </trkpt>
      <trkpt lat="41.26588" lon="1.98080167">
        <ele>4.0</ele>
        <time>2019-12-21T13:50:51.410Z</time>
      </trkpt>
      <trkpt lat="41.26592667" lon="1.98094833">
        <ele>4.0</ele>
        <time>2019-12-21T13:50:52.425Z</time>
      </trkpt>
      <trkpt lat="41.26592667" lon="1.98094833">
        <ele>4.0</ele>
        <time>2019-12-21T13:50:53.413Z</time>
      </trkpt>
      <trkpt lat="41.265965" lon="1.98109167">
        <ele>5.0</ele>
        <time>2019-12-21T13:50:54.414Z</time>
      </trkpt>
      <trkpt lat="41.26598" lon="1.98116833">
        <ele>5.0</ele>
        <time>2019-12-21T13:50:55.418Z</time>
      </trkpt>
      <trkpt lat="41.26598" lon="1.98116833">
        <ele>5.0</ele>
        <time>2019-12-21T13:50:56.410Z</time>
      </trkpt>
      <trkpt lat="41.26600333" lon="1.981325">
        <ele>5.0</ele>
        <time>2019-12-21T13:50:57.414Z</time>
      </trkpt>
      <trkpt lat="41.26600333" lon="1.981325">
        <ele>5.0</ele>
        <time>2019-12-21T13:50:58.416Z</time>
      </trkpt>
      <trkpt lat="41.26603" lon="1.98148167">
        <ele>5.0</ele>
        <time>2019-12-21T13:50:59.416Z</time>
      </trkpt>
      <trkpt lat="41.266045" lon="1.98156167">
        <ele>5.0</ele>
        <time>2019-12-21T13:51:00.405Z</time>
      </trkpt>
      <trkpt lat="41.266045" lon="1.98156167">
        <ele>5.0</ele>
        <time>2019-12-21T13:51:01.441Z</time>
      </trkpt>
      <trkpt lat="41.26606667" lon="1.98172">
        <ele>5.0</ele>
        <time>2019-12-21T13:51:02.430Z</time>
      </trkpt>
      <trkpt lat="41.26606667" lon="1.98172">
        <ele>5.0</ele>
        <time>2019-12-21T13:51:03.415Z</time>
      </trkpt>
      <trkpt lat="41.26607833" lon="1.98188">
        <ele>6.0</ele>
        <time>2019-12-21T13:51:04.416Z</time>
      </trkpt>
      <trkpt lat="41.26607833" lon="1.98188">
        <ele>6.0</ele>
        <time>2019-12-21T13:51:05.417Z</time>
      </trkpt>
      <trkpt lat="41.26608" lon="1.98203667">
        <ele>6.0</ele>
        <time>2019-12-21T13:51:06.416Z</time>
      </trkpt>
      <trkpt lat="41.26607833" lon="1.982115">
        <ele>6.0</ele>
        <time>2019-12-21T13:51:07.417Z</time>
      </trkpt>
      <trkpt lat="41.26607833" lon="1.982115">
        <ele>6.0</ele>
        <time>2019-12-21T13:51:08.423Z</time>
      </trkpt>
      <trkpt lat="41.26607667" lon="1.98228">
        <ele>7.0</ele>
        <time>2019-12-21T13:51:09.416Z</time>
      </trkpt>
      <trkpt lat="41.26607667" lon="1.98228">
        <ele>7.0</ele>
        <time>2019-12-21T13:51:10.410Z</time>
      </trkpt>
      <trkpt lat="41.26607" lon="1.982445">
        <ele>7.0</ele>
        <time>2019-12-21T13:51:11.416Z</time>
      </trkpt>
      <trkpt lat="41.26607" lon="1.982445">
        <ele>7.0</ele>
        <time>2019-12-21T13:51:12.427Z</time>
      </trkpt>
      <trkpt lat="41.26605333" lon="1.98261333">
        <ele>7.0</ele>
        <time>2019-12-21T13:51:13.417Z</time>
      </trkpt>
      <trkpt lat="41.26605333" lon="1.98261333">
        <ele>7.0</ele>
        <time>2019-12-21T13:51:14.410Z</time>
      </trkpt>
      <trkpt lat="41.26603" lon="1.98277833">
        <ele>8.0</ele>
        <time>2019-12-21T13:51:15.412Z</time>
      </trkpt>
      <trkpt lat="41.26603" lon="1.98277833">
        <ele>8.0</ele>
        <time>2019-12-21T13:51:16.412Z</time>
      </trkpt>
      <trkpt lat="41.26601" lon="1.98293667">
        <ele>8.0</ele>
        <time>2019-12-21T13:51:17.416Z</time>
      </trkpt>
      <trkpt lat="41.26601" lon="1.98293667">
        <ele>8.0</ele>
        <time>2019-12-21T13:51:18.420Z</time>
      </trkpt>
      <trkpt lat="41.26598833" lon="1.9831">
        <ele>8.0</ele>
        <time>2019-12-21T13:51:19.417Z</time>
      </trkpt>
      <trkpt lat="41.265975" lon="1.98318333">
        <ele>7.0</ele>
        <time>2019-12-21T13:51:20.415Z</time>
      </trkpt>
      <trkpt lat="41.265975" lon="1.98318333">
        <ele>7.0</ele>
        <time>2019-12-21T13:51:21.408Z</time>
      </trkpt>
      <trkpt lat="41.26593833" lon="1.98334667">
        <ele>7.0</ele>
        <time>2019-12-21T13:51:22.433Z</time>
      </trkpt>
      <trkpt lat="41.26593833" lon="1.98334667">
        <ele>7.0</ele>
        <time>2019-12-21T13:51:23.417Z</time>
      </trkpt>
      <trkpt lat="41.265895" lon="1.98351">
        <ele>7.0</ele>
        <time>2019-12-21T13:51:24.416Z</time>
      </trkpt>
      <trkpt lat="41.26587" lon="1.983585">
        <ele>7.0</ele>
        <time>2019-12-21T13:51:25.417Z</time>
      </trkpt>
      <trkpt lat="41.26587" lon="1.983585">
        <ele>7.0</ele>
        <time>2019-12-21T13:51:26.407Z</time>
      </trkpt>
      <trkpt lat="41.265815" lon="1.98373167">
        <ele>7.0</ele>
        <time>2019-12-21T13:51:27.431Z</time>
      </trkpt>
      <trkpt lat="41.265815" lon="1.98373167">
        <ele>7.0</ele>
        <time>2019-12-21T13:51:28.423Z</time>
      </trkpt>
      <trkpt lat="41.26576667" lon="1.98387167">
        <ele>7.0</ele>
        <time>2019-12-21T13:51:29.416Z</time>
      </trkpt>
      <trkpt lat="41.26576667" lon="1.98387167">
        <ele>7.0</ele>
        <time>2019-12-21T13:51:30.410Z</time>
      </trkpt>
      <trkpt lat="41.26572" lon="1.98401167">
        <ele>7.0</ele>
        <time>2019-12-21T13:51:31.441Z</time>
      </trkpt>
      <trkpt lat="41.26572" lon="1.98401167">
        <ele>7.0</ele>
        <time>2019-12-21T13:51:32.431Z</time>
      </trkpt>
      <trkpt lat="41.265685" lon="1.98415833">
        <ele>7.0</ele>
        <time>2019-12-21T13:51:33.416Z</time>
      </trkpt>
      <trkpt lat="41.265685" lon="1.98415833">
        <ele>7.0</ele>
        <time>2019-12-21T13:51:34.410Z</time>
      </trkpt>
      <trkpt lat="41.26564833" lon="1.98430167">
        <ele>7.0</ele>
        <time>2019-12-21T13:51:35.416Z</time>
      </trkpt>
      <trkpt lat="41.26564833" lon="1.98430167">
        <ele>7.0</ele>
        <time>2019-12-21T13:51:36.410Z</time>
      </trkpt>
      <trkpt lat="41.26558833" lon="1.98445333">
        <ele>7.0</ele>
        <time>2019-12-21T13:51:37.434Z</time>
      </trkpt>
      <trkpt lat="41.26558833" lon="1.98445333">
        <ele>7.0</ele>
        <time>2019-12-21T13:51:38.426Z</time>
      </trkpt>
      <trkpt lat="41.26552667" lon="1.98460333">
        <ele>7.0</ele>
        <time>2019-12-21T13:51:39.416Z</time>
      </trkpt>
      <trkpt lat="41.26552667" lon="1.98460333">
        <ele>7.0</ele>
        <time>2019-12-21T13:51:40.407Z</time>
      </trkpt>
      <trkpt lat="41.26546" lon="1.98475167">
        <ele>6.0</ele>
        <time>2019-12-21T13:51:41.412Z</time>
      </trkpt>
      <trkpt lat="41.26543167" lon="1.98482833">
        <ele>6.0</ele>
        <time>2019-12-21T13:51:42.427Z</time>
      </trkpt>
      <trkpt lat="41.26543167" lon="1.98482833">
        <ele>6.0</ele>
        <time>2019-12-21T13:51:43.415Z</time>
      </trkpt>
      <trkpt lat="41.26537333" lon="1.98498">
        <ele>6.0</ele>
        <time>2019-12-21T13:51:44.417Z</time>
      </trkpt>
      <trkpt lat="41.26534333" lon="1.985055">
        <ele>6.0</ele>
        <time>2019-12-21T13:51:45.416Z</time>
      </trkpt>
      <trkpt lat="41.26534333" lon="1.985055">
        <ele>6.0</ele>
        <time>2019-12-21T13:51:46.410Z</time>
      </trkpt>
      <trkpt lat="41.26529333" lon="1.98521">
        <ele>6.0</ele>
        <time>2019-12-21T13:51:47.417Z</time>
      </trkpt>
      <trkpt lat="41.26527" lon="1.985295">
        <ele>5.0</ele>
        <time>2019-12-21T13:51:48.425Z</time>
      </trkpt>
      <trkpt lat="41.26525333" lon="1.98537833">
        <ele>5.0</ele>
        <time>2019-12-21T13:51:49.433Z</time>
      </trkpt>
      <trkpt lat="41.26525333" lon="1.98537833">
        <ele>5.0</ele>
        <time>2019-12-21T13:51:50.417Z</time>
      </trkpt>
      <trkpt lat="41.26523167" lon="1.98554333">
        <ele>5.0</ele>
        <time>2019-12-21T13:51:51.416Z</time>
      </trkpt>
      <trkpt lat="41.26523167" lon="1.98554333">
        <ele>5.0</ele>
        <time>2019-12-21T13:51:52.432Z</time>
      </trkpt>
      <trkpt lat="41.26521833" lon="1.98571167">
        <ele>5.0</ele>
        <time>2019-12-21T13:51:53.417Z</time>
      </trkpt>
      <trkpt lat="41.265215" lon="1.98579333">
        <ele>5.0</ele>
        <time>2019-12-21T13:51:54.414Z</time>
      </trkpt>
      <trkpt lat="41.26521333" lon="1.98587667">
        <ele>5.0</ele>
        <time>2019-12-21T13:51:55.418Z</time>
      </trkpt>
      <trkpt lat="41.26521333" lon="1.98587667">
        <ele>5.0</ele>
        <time>2019-12-21T13:51:56.410Z</time>
      </trkpt>
      <trkpt lat="41.26521" lon="1.98604167">
        <ele>4.0</ele>
        <time>2019-12-21T13:51:57.416Z</time>
      </trkpt>
      <trkpt lat="41.26521" lon="1.98604167">
        <ele>4.0</ele>
        <time>2019-12-21T13:51:58.410Z</time>
      </trkpt>
      <trkpt lat="41.26521" lon="1.98621333">
        <ele>4.0</ele>
        <time>2019-12-21T13:51:59.416Z</time>
      </trkpt>
      <trkpt lat="41.26521" lon="1.98621333">
        <ele>4.0</ele>
        <time>2019-12-21T13:52:00.414Z</time>
      </trkpt>
      <trkpt lat="41.26520833" lon="1.98639">
        <ele>4.0</ele>
        <time>2019-12-21T13:52:01.418Z</time>
      </trkpt>
      <trkpt lat="41.26520667" lon="1.98647833">
        <ele>3.0</ele>
        <time>2019-12-21T13:52:02.430Z</time>
      </trkpt>
      <trkpt lat="41.26520667" lon="1.98647833">
        <ele>3.0</ele>
        <time>2019-12-21T13:52:03.413Z</time>
      </trkpt>
      <trkpt lat="41.26520333" lon="1.98665">
        <ele>3.0</ele>
        <time>2019-12-21T13:52:04.416Z</time>
      </trkpt>
      <trkpt lat="41.26520167" lon="1.98673667">
        <ele>3.0</ele>
        <time>2019-12-21T13:52:05.416Z</time>
      </trkpt>
      <trkpt lat="41.26520167" lon="1.98673667">
        <ele>3.0</ele>
        <time>2019-12-21T13:52:06.410Z</time>
      </trkpt>
      <trkpt lat="41.26520167" lon="1.98690833">
        <ele>2.0</ele>
        <time>2019-12-21T13:52:07.434Z</time>
      </trkpt>
      <trkpt lat="41.26520167" lon="1.98690833">
        <ele>2.0</ele>
        <time>2019-12-21T13:52:08.419Z</time>
      </trkpt>
      <trkpt lat="41.26520167" lon="1.98708">
        <ele>2.0</ele>
        <time>2019-12-21T13:52:09.416Z</time>
      </trkpt>
      <trkpt lat="41.26520167" lon="1.98708">
        <ele>2.0</ele>
        <time>2019-12-21T13:52:10.412Z</time>
      </trkpt>
      <trkpt lat="41.265205" lon="1.98724833">
        <ele>2.0</ele>
        <time>2019-12-21T13:52:11.416Z</time>
      </trkpt>
      <trkpt lat="41.265205" lon="1.98724833">
        <ele>2.0</ele>
        <time>2019-12-21T13:52:12.427Z</time>
      </trkpt>
      <trkpt lat="41.26520833" lon="1.98742">
        <ele>2.0</ele>
        <time>2019-12-21T13:52:13.423Z</time>
      </trkpt>
      <trkpt lat="41.26520833" lon="1.98742">
        <ele>2.0</ele>
        <time>2019-12-21T13:52:14.411Z</time>
      </trkpt>
      <trkpt lat="41.26520667" lon="1.987595">
        <ele>1.0</ele>
        <time>2019-12-21T13:52:15.414Z</time>
      </trkpt>
      <trkpt lat="41.26520667" lon="1.987595">
        <ele>1.0</ele>
        <time>2019-12-21T13:52:16.410Z</time>
      </trkpt>
      <trkpt lat="41.26520833" lon="1.98776833">
        <ele>1.0</ele>
        <time>2019-12-21T13:52:17.405Z</time>
      </trkpt>
      <trkpt lat="41.26520833" lon="1.98776833">
        <ele>1.0</ele>
        <time>2019-12-21T13:52:18.430Z</time>
      </trkpt>
      <trkpt lat="41.26520833" lon="1.98794667">
        <ele>1.0</ele>
        <time>2019-12-21T13:52:19.419Z</time>
      </trkpt>
      <trkpt lat="41.26520833" lon="1.98794667">
        <ele>1.0</ele>
        <time>2019-12-21T13:52:20.411Z</time>
      </trkpt>
      <trkpt lat="41.26520667" lon="1.98812">
        <ele>1.0</ele>
        <time>2019-12-21T13:52:21.416Z</time>
      </trkpt>
      <trkpt lat="41.26520667" lon="1.98812">
        <ele>1.0</ele>
        <time>2019-12-21T13:52:22.411Z</time>
      </trkpt>
      <trkpt lat="41.26520667" lon="1.98828833">
        <ele>1.0</ele>
        <time>2019-12-21T13:52:23.416Z</time>
      </trkpt>
      <trkpt lat="41.26520667" lon="1.98837333">
        <ele>1.0</ele>
        <time>2019-12-21T13:52:24.416Z</time>
      </trkpt>
      <trkpt lat="41.26520667" lon="1.98837333">
        <ele>1.0</ele>
        <time>2019-12-21T13:52:25.410Z</time>
      </trkpt>
      <trkpt lat="41.265205" lon="1.98854">
        <ele>1.0</ele>
        <time>2019-12-21T13:52:26.435Z</time>
      </trkpt>
      <trkpt lat="41.265205" lon="1.98854">
        <ele>1.0</ele>
        <time>2019-12-21T13:52:27.419Z</time>
      </trkpt>
      <trkpt lat="41.26520667" lon="1.98871167">
        <ele>1.0</ele>
        <time>2019-12-21T13:52:28.416Z</time>
      </trkpt>
      <trkpt lat="41.26520667" lon="1.98871167">
        <ele>1.0</ele>
        <time>2019-12-21T13:52:29.407Z</time>
      </trkpt>
      <trkpt lat="41.265205" lon="1.98887833">
        <ele>1.0</ele>
        <time>2019-12-21T13:52:30.431Z</time>
      </trkpt>
      <trkpt lat="41.26520333" lon="1.98896167">
        <ele>1.0</ele>
        <time>2019-12-21T13:52:31.418Z</time>
      </trkpt>
      <trkpt lat="41.26520333" lon="1.98896167">
        <ele>1.0</ele>
        <time>2019-12-21T13:52:32.432Z</time>
      </trkpt>
      <trkpt lat="41.26520167" lon="1.98913333">
        <ele>1.0</ele>
        <time>2019-12-21T13:52:33.418Z</time>
      </trkpt>
      <trkpt lat="41.26520167" lon="1.98913333">
        <ele>1.0</ele>
        <time>2019-12-21T13:52:34.410Z</time>
      </trkpt>
      <trkpt lat="41.26520167" lon="1.98930333">
        <ele>1.0</ele>
        <time>2019-12-21T13:52:35.432Z</time>
      </trkpt>
      <trkpt lat="41.26520167" lon="1.98930333">
        <ele>1.0</ele>
        <time>2019-12-21T13:52:36.416Z</time>
      </trkpt>
      <trkpt lat="41.2652" lon="1.98947667">
        <ele>1.0</ele>
        <time>2019-12-21T13:52:37.419Z</time>
      </trkpt>
      <trkpt lat="41.2652" lon="1.98947667">
        <ele>1.0</ele>
        <time>2019-12-21T13:52:38.410Z</time>
      </trkpt>
      <trkpt lat="41.2652" lon="1.98964667">
        <ele>1.0</ele>
        <time>2019-12-21T13:52:39.433Z</time>
      </trkpt>
      <trkpt lat="41.2652" lon="1.98973167">
        <ele>1.0</ele>
        <time>2019-12-21T13:52:40.417Z</time>
      </trkpt>
      <trkpt lat="41.2652" lon="1.98973167">
        <ele>1.0</ele>
        <time>2019-12-21T13:52:41.411Z</time>
      </trkpt>
      <trkpt lat="41.26519833" lon="1.98990167">
        <ele>1.0</ele>
        <time>2019-12-21T13:52:42.425Z</time>
      </trkpt>
      <trkpt lat="41.26519833" lon="1.98990167">
        <ele>1.0</ele>
        <time>2019-12-21T13:52:43.413Z</time>
      </trkpt>
      <trkpt lat="41.26519833" lon="1.99007333">
        <ele>2.0</ele>
        <time>2019-12-21T13:52:44.417Z</time>
      </trkpt>
      <trkpt lat="41.26519833" lon="1.99007333">
        <ele>2.0</ele>
        <time>2019-12-21T13:52:45.412Z</time>
      </trkpt>
      <trkpt lat="41.26519667" lon="1.990245">
        <ele>2.0</ele>
        <time>2019-12-21T13:52:46.414Z</time>
      </trkpt>
      <trkpt lat="41.26519667" lon="1.990245">
        <ele>2.0</ele>
        <time>2019-12-21T13:52:47.410Z</time>
      </trkpt>
      <trkpt lat="41.26519333" lon="1.99041167">
        <ele>2.0</ele>
        <time>2019-12-21T13:52:48.433Z</time>
      </trkpt>
      <trkpt lat="41.26519167" lon="1.99049667">
        <ele>2.0</ele>
        <time>2019-12-21T13:52:49.419Z</time>
      </trkpt>
      <trkpt lat="41.26519167" lon="1.99049667">
        <ele>2.0</ele>
        <time>2019-12-21T13:52:50.410Z</time>
      </trkpt>
      <trkpt lat="41.26519167" lon="1.99067">
        <ele>2.0</ele>
        <time>2019-12-21T13:52:51.440Z</time>
      </trkpt>
      <trkpt lat="41.26519167" lon="1.99067">
        <ele>2.0</ele>
        <time>2019-12-21T13:52:52.402Z</time>
      </trkpt>
      <trkpt lat="41.26519833" lon="1.99084">
        <ele>2.0</ele>
        <time>2019-12-21T13:52:53.424Z</time>
      </trkpt>
      <trkpt lat="41.26519833" lon="1.99084">
        <ele>2.0</ele>
        <time>2019-12-21T13:52:54.411Z</time>
      </trkpt>
      <trkpt lat="41.26523167" lon="1.991">
        <ele>2.0</ele>
        <time>2019-12-21T13:52:55.419Z</time>
      </trkpt>
      <trkpt lat="41.26523167" lon="1.991">
        <ele>2.0</ele>
        <time>2019-12-21T13:52:56.412Z</time>
      </trkpt>
      <trkpt lat="41.26529" lon="1.99115167">
        <ele>1.0</ele>
        <time>2019-12-21T13:52:57.411Z</time>
      </trkpt>
      <trkpt lat="41.26532833" lon="1.99122">
        <ele>1.0</ele>
        <time>2019-12-21T13:52:58.416Z</time>
      </trkpt>
      <trkpt lat="41.26532833" lon="1.99122">
        <ele>1.0</ele>
        <time>2019-12-21T13:52:59.419Z</time>
      </trkpt>
      <trkpt lat="41.26540833" lon="1.99133833">
        <ele>1.0</ele>
        <time>2019-12-21T13:53:00.425Z</time>
      </trkpt>
      <trkpt lat="41.26540833" lon="1.99133833">
        <ele>1.0</ele>
        <time>2019-12-21T13:53:01.413Z</time>
      </trkpt>
      <trkpt lat="41.26547" lon="1.99143167">
        <ele>2.0</ele>
        <time>2019-12-21T13:53:02.428Z</time>
      </trkpt>
      <trkpt lat="41.265495" lon="1.99147">
        <ele>2.0</ele>
        <time>2019-12-21T13:53:03.416Z</time>
      </trkpt>
      <trkpt lat="41.265495" lon="1.99147">
        <ele>2.0</ele>
        <time>2019-12-21T13:53:04.411Z</time>
      </trkpt>
      <trkpt lat="41.26554167" lon="1.99153833">
        <ele>1.0</ele>
        <time>2019-12-21T13:53:05.416Z</time>
      </trkpt>
      <trkpt lat="41.26554167" lon="1.99153833">
        <ele>1.0</ele>
        <time>2019-12-21T13:53:06.411Z</time>
      </trkpt>
      <trkpt lat="41.26559667" lon="1.99161333">
        <ele>1.0</ele>
        <time>2019-12-21T13:53:07.433Z</time>
      </trkpt>
      <trkpt lat="41.26559667" lon="1.99161333">
        <ele>1.0</ele>
        <time>2019-12-21T13:53:08.423Z</time>
      </trkpt>
      <trkpt lat="41.26564667" lon="1.99170833">
        <ele>1.0</ele>
        <time>2019-12-21T13:53:09.420Z</time>
      </trkpt>
      <trkpt lat="41.26564667" lon="1.99170833">
        <ele>1.0</ele>
        <time>2019-12-21T13:53:10.411Z</time>
      </trkpt>
      <trkpt lat="41.265675" lon="1.99182667">
        <ele>1.0</ele>
        <time>2019-12-21T13:53:11.417Z</time>
      </trkpt>
      <trkpt lat="41.265675" lon="1.99182667">
        <ele>1.0</ele>
        <time>2019-12-21T13:53:12.428Z</time>
      </trkpt>
      <trkpt lat="41.26565333" lon="1.991955">
        <ele>1.0</ele>
        <time>2019-12-21T13:53:13.418Z</time>
      </trkpt>
      <trkpt lat="41.26565333" lon="1.991955">
        <ele>1.0</ele>
        <time>2019-12-21T13:53:14.411Z</time>
      </trkpt>
      <trkpt lat="41.26559667" lon="1.99208333">
        <ele>1.0</ele>
        <time>2019-12-21T13:53:15.417Z</time>
      </trkpt>
      <trkpt lat="41.26559667" lon="1.99208333">
        <ele>1.0</ele>
        <time>2019-12-21T13:53:16.411Z</time>
      </trkpt>
      <trkpt lat="41.26552333" lon="1.99220833">
        <ele>1.0</ele>
        <time>2019-12-21T13:53:17.416Z</time>
      </trkpt>
      <trkpt lat="41.26552333" lon="1.99220833">
        <ele>1.0</ele>
        <time>2019-12-21T13:53:18.411Z</time>
      </trkpt>
      <trkpt lat="41.26544833" lon="1.99232833">
        <ele>1.0</ele>
        <time>2019-12-21T13:53:19.426Z</time>
      </trkpt>
      <trkpt lat="41.26541167" lon="1.99238667">
        <ele>1.0</ele>
        <time>2019-12-21T13:53:20.417Z</time>
      </trkpt>
      <trkpt lat="41.26541167" lon="1.99238667">
        <ele>1.0</ele>
        <time>2019-12-21T13:53:21.412Z</time>
      </trkpt>
      <trkpt lat="41.26534" lon="1.99250833">
        <ele>1.0</ele>
        <time>2019-12-21T13:53:22.425Z</time>
      </trkpt>
      <trkpt lat="41.26534" lon="1.99250833">
        <ele>1.0</ele>
        <time>2019-12-21T13:53:23.411Z</time>
      </trkpt>
      <trkpt lat="41.26528" lon="1.99263667">
        <ele>1.0</ele>
        <time>2019-12-21T13:53:24.416Z</time>
      </trkpt>
      <trkpt lat="41.26525833" lon="1.99270833">
        <ele>1.0</ele>
        <time>2019-12-21T13:53:25.418Z</time>
      </trkpt>
      <trkpt lat="41.26524333" lon="1.99278333">
        <ele>1.0</ele>
        <time>2019-12-21T13:53:26.421Z</time>
      </trkpt>
      <trkpt lat="41.26524333" lon="1.99278333">
        <ele>1.0</ele>
        <time>2019-12-21T13:53:27.403Z</time>
      </trkpt>
      <trkpt lat="41.265225" lon="1.992935">
        <ele>1.0</ele>
        <time>2019-12-21T13:53:28.420Z</time>
      </trkpt>
      <trkpt lat="41.265225" lon="1.992935">
        <ele>1.0</ele>
        <time>2019-12-21T13:53:29.406Z</time>
      </trkpt>
      <trkpt lat="41.26521833" lon="1.99309333">
        <ele>0.0</ele>
        <time>2019-12-21T13:53:30.410Z</time>
      </trkpt>
      <trkpt lat="41.26521667" lon="1.99317333">
        <ele>0.0</ele>
        <time>2019-12-21T13:53:31.431Z</time>
      </trkpt>
      <trkpt lat="41.26521667" lon="1.99317333">
        <ele>0.0</ele>
        <time>2019-12-21T13:53:32.397Z</time>
      </trkpt>
      <trkpt lat="41.26521667" lon="1.993335">
        <ele>0.0</ele>
        <time>2019-12-21T13:53:33.406Z</time>
      </trkpt>
      <trkpt lat="41.26521667" lon="1.993335">
        <ele>0.0</ele>
        <time>2019-12-21T13:53:34.430Z</time>
      </trkpt>
      <trkpt lat="41.265215" lon="1.99349333">
        <ele>0.0</ele>
        <time>2019-12-21T13:53:35.421Z</time>
      </trkpt>
      <trkpt lat="41.265215" lon="1.99349333">
        <ele>0.0</ele>
        <time>2019-12-21T13:53:36.406Z</time>
      </trkpt>
      <trkpt lat="41.26521333" lon="1.993655">
        <ele>0.0</ele>
        <time>2019-12-21T13:53:37.425Z</time>
      </trkpt>
      <trkpt lat="41.26521333" lon="1.993655">
        <ele>0.0</ele>
        <time>2019-12-21T13:53:38.436Z</time>
      </trkpt>
      <trkpt lat="41.265215" lon="1.99381667">
        <ele>0.0</ele>
        <time>2019-12-21T13:53:39.404Z</time>
      </trkpt>
      <trkpt lat="41.265215" lon="1.99381667">
        <ele>0.0</ele>
        <time>2019-12-21T13:53:40.422Z</time>
      </trkpt>
      <trkpt lat="41.265215" lon="1.99397833">
        <ele>0.0</ele>
        <time>2019-12-21T13:53:41.414Z</time>
      </trkpt>
      <trkpt lat="41.265215" lon="1.99405833">
        <ele>0.0</ele>
        <time>2019-12-21T13:53:42.424Z</time>
      </trkpt>
      <trkpt lat="41.265215" lon="1.99414167">
        <ele>0.0</ele>
        <time>2019-12-21T13:53:43.424Z</time>
      </trkpt>
      <trkpt lat="41.265215" lon="1.994225">
        <ele>0.0</ele>
        <time>2019-12-21T13:53:44.429Z</time>
      </trkpt>
      <trkpt lat="41.265215" lon="1.994225">
        <ele>0.0</ele>
        <time>2019-12-21T13:53:45.414Z</time>
      </trkpt>
      <trkpt lat="41.26521833" lon="1.99439167">
        <ele>0.0</ele>
        <time>2019-12-21T13:53:46.414Z</time>
      </trkpt>
      <trkpt lat="41.26521833" lon="1.99439167">
        <ele>0.0</ele>
        <time>2019-12-21T13:53:47.411Z</time>
      </trkpt>
      <trkpt lat="41.26522" lon="1.99455833">
        <ele>0.0</ele>
        <time>2019-12-21T13:53:48.416Z</time>
      </trkpt>
      <trkpt lat="41.26522" lon="1.99464167">
        <ele>0.0</ele>
        <time>2019-12-21T13:53:49.418Z</time>
      </trkpt>
      <trkpt lat="41.26522" lon="1.99464167">
        <ele>0.0</ele>
        <time>2019-12-21T13:53:50.411Z</time>
      </trkpt>
      <trkpt lat="41.26521667" lon="1.99480667">
        <ele>0.0</ele>
        <time>2019-12-21T13:53:51.433Z</time>
      </trkpt>
      <trkpt lat="41.26521667" lon="1.99480667">
        <ele>0.0</ele>
        <time>2019-12-21T13:53:52.426Z</time>
      </trkpt>
      <trkpt lat="41.26521833" lon="1.99497167">
        <ele>0.0</ele>
        <time>2019-12-21T13:53:53.417Z</time>
      </trkpt>
      <trkpt lat="41.26521833" lon="1.99497167">
        <ele>0.0</ele>
        <time>2019-12-21T13:53:54.411Z</time>
      </trkpt>
      <trkpt lat="41.26522" lon="1.99513833">
        <ele>0.0</ele>
        <time>2019-12-21T13:53:55.433Z</time>
      </trkpt>
      <trkpt lat="41.26522" lon="1.99513833">
        <ele>0.0</ele>
        <time>2019-12-21T13:53:56.416Z</time>
      </trkpt>
      <trkpt lat="41.26522167" lon="1.995305">
        <ele>0.0</ele>
        <time>2019-12-21T13:53:57.417Z</time>
      </trkpt>
      <trkpt lat="41.26522167" lon="1.995305">
        <ele>0.0</ele>
        <time>2019-12-21T13:53:58.411Z</time>
      </trkpt>
      <trkpt lat="41.26522333" lon="1.99547333">
        <ele>0.0</ele>
        <time>2019-12-21T13:53:59.414Z</time>
      </trkpt>
      <trkpt lat="41.26522167" lon="1.995565">
        <ele>0.0</ele>
        <time>2019-12-21T13:54:00.415Z</time>
      </trkpt>
      <trkpt lat="41.26522167" lon="1.995565">
        <ele>0.0</ele>
        <time>2019-12-21T13:54:01.407Z</time>
      </trkpt>
      <trkpt lat="41.26522333" lon="1.99573333">
        <ele>0.0</ele>
        <time>2019-12-21T13:54:02.416Z</time>
      </trkpt>
      <trkpt lat="41.26522333" lon="1.99581833">
        <ele>0.0</ele>
        <time>2019-12-21T13:54:03.417Z</time>
      </trkpt>
      <trkpt lat="41.26522333" lon="1.99581833">
        <ele>0.0</ele>
        <time>2019-12-21T13:54:04.411Z</time>
      </trkpt>
      <trkpt lat="41.26522333" lon="1.99598667">
        <ele>0.0</ele>
        <time>2019-12-21T13:54:05.417Z</time>
      </trkpt>
      <trkpt lat="41.26522333" lon="1.99598667">
        <ele>0.0</ele>
        <time>2019-12-21T13:54:06.411Z</time>
      </trkpt>
      <trkpt lat="41.26522667" lon="1.99615333">
        <ele>0.0</ele>
        <time>2019-12-21T13:54:07.402Z</time>
      </trkpt>
      <trkpt lat="41.26522667" lon="1.99615333">
        <ele>0.0</ele>
        <time>2019-12-21T13:54:08.426Z</time>
      </trkpt>
      <trkpt lat="41.26523167" lon="1.99632">
        <ele>0.0</ele>
        <time>2019-12-21T13:54:09.416Z</time>
      </trkpt>
      <trkpt lat="41.26523167" lon="1.99632">
        <ele>0.0</ele>
        <time>2019-12-21T13:54:10.429Z</time>
      </trkpt>
      <trkpt lat="41.26523667" lon="1.99649">
        <ele>0.0</ele>
        <time>2019-12-21T13:54:11.417Z</time>
      </trkpt>
      <trkpt lat="41.26523833" lon="1.996575">
        <ele>1.0</ele>
        <time>2019-12-21T13:54:12.422Z</time>
      </trkpt>
      <trkpt lat="41.26523833" lon="1.996575">
        <ele>1.0</ele>
        <time>2019-12-21T13:54:13.413Z</time>
      </trkpt>
      <trkpt lat="41.26524167" lon="1.99674333">
        <ele>1.0</ele>
        <time>2019-12-21T13:54:14.416Z</time>
      </trkpt>
      <trkpt lat="41.26524333" lon="1.99682833">
        <ele>1.0</ele>
        <time>2019-12-21T13:54:15.417Z</time>
      </trkpt>
      <trkpt lat="41.26524333" lon="1.99682833">
        <ele>1.0</ele>
        <time>2019-12-21T13:54:16.412Z</time>
      </trkpt>
      <trkpt lat="41.26524667" lon="1.996995">
        <ele>1.0</ele>
        <time>2019-12-21T13:54:17.414Z</time>
      </trkpt>
      <trkpt lat="41.26524667" lon="1.996995">
        <ele>1.0</ele>
        <time>2019-12-21T13:54:18.411Z</time>
      </trkpt>
      <trkpt lat="41.26525167" lon="1.997165">
        <ele>1.0</ele>
        <time>2019-12-21T13:54:19.422Z</time>
      </trkpt>
      <trkpt lat="41.26525167" lon="1.997165">
        <ele>1.0</ele>
        <time>2019-12-21T13:54:20.409Z</time>
      </trkpt>
      <trkpt lat="41.265255" lon="1.99732667">
        <ele>1.0</ele>
        <time>2019-12-21T13:54:21.432Z</time>
      </trkpt>
      <trkpt lat="41.265255" lon="1.99732667">
        <ele>1.0</ele>
        <time>2019-12-21T13:54:22.425Z</time>
      </trkpt>
      <trkpt lat="41.26525833" lon="1.99749">
        <ele>2.0</ele>
        <time>2019-12-21T13:54:23.417Z</time>
      </trkpt>
      <trkpt lat="41.26525833" lon="1.99749">
        <ele>2.0</ele>
        <time>2019-12-21T13:54:24.422Z</time>
      </trkpt>
      <trkpt lat="41.26526" lon="1.99765333">
        <ele>2.0</ele>
        <time>2019-12-21T13:54:25.420Z</time>
      </trkpt>
      <trkpt lat="41.26526" lon="1.99765333">
        <ele>2.0</ele>
        <time>2019-12-21T13:54:26.412Z</time>
      </trkpt>
      <trkpt lat="41.265265" lon="1.99781833">
        <ele>2.0</ele>
        <time>2019-12-21T13:54:27.417Z</time>
      </trkpt>
      <trkpt lat="41.265265" lon="1.99781833">
        <ele>2.0</ele>
        <time>2019-12-21T13:54:28.411Z</time>
      </trkpt>
      <trkpt lat="41.26526833" lon="1.99798167">
        <ele>2.0</ele>
        <time>2019-12-21T13:54:29.433Z</time>
      </trkpt>
      <trkpt lat="41.26526833" lon="1.99798167">
        <ele>2.0</ele>
        <time>2019-12-21T13:54:30.416Z</time>
      </trkpt>
      <trkpt lat="41.26527" lon="1.99814667">
        <ele>3.0</ele>
        <time>2019-12-21T13:54:31.418Z</time>
      </trkpt>
      <trkpt lat="41.26527" lon="1.99814667">
        <ele>3.0</ele>
        <time>2019-12-21T13:54:32.425Z</time>
      </trkpt>
      <trkpt lat="41.26527333" lon="1.99832">
        <ele>3.0</ele>
        <time>2019-12-21T13:54:33.414Z</time>
      </trkpt>
      <trkpt lat="41.26527667" lon="1.99840667">
        <ele>2.0</ele>
        <time>2019-12-21T13:54:34.417Z</time>
      </trkpt>
      <trkpt lat="41.26527667" lon="1.99840667">
        <ele>2.0</ele>
        <time>2019-12-21T13:54:35.411Z</time>
      </trkpt>
      <trkpt lat="41.26528" lon="1.998575">
        <ele>2.0</ele>
        <time>2019-12-21T13:54:36.436Z</time>
      </trkpt>
      <trkpt lat="41.26528333" lon="1.99866">
        <ele>1.0</ele>
        <time>2019-12-21T13:54:37.419Z</time>
      </trkpt>
      <trkpt lat="41.26528333" lon="1.99866">
        <ele>1.0</ele>
        <time>2019-12-21T13:54:38.411Z</time>
      </trkpt>
      <trkpt lat="41.26529167" lon="1.998825">
        <ele>1.0</ele>
        <time>2019-12-21T13:54:39.436Z</time>
      </trkpt>
      <trkpt lat="41.26529167" lon="1.998825">
        <ele>1.0</ele>
        <time>2019-12-21T13:54:40.425Z</time>
      </trkpt>
      <trkpt lat="41.26531167" lon="1.99898833">
        <ele>1.0</ele>
        <time>2019-12-21T13:54:41.414Z</time>
      </trkpt>
      <trkpt lat="41.26533333" lon="1.99906667">
        <ele>1.0</ele>
        <time>2019-12-21T13:54:42.425Z</time>
      </trkpt>
      <trkpt lat="41.26535833" lon="1.99914333">
        <ele>1.0</ele>
        <time>2019-12-21T13:54:43.416Z</time>
      </trkpt>
      <trkpt lat="41.26535833" lon="1.99914333">
        <ele>1.0</ele>
        <time>2019-12-21T13:54:44.412Z</time>
      </trkpt>
      <trkpt lat="41.26542333" lon="1.99928833">
        <ele>0.0</ele>
        <time>2019-12-21T13:54:45.422Z</time>
      </trkpt>
      <trkpt lat="41.26542333" lon="1.99928833">
        <ele>0.0</ele>
        <time>2019-12-21T13:54:46.412Z</time>
      </trkpt>
      <trkpt lat="41.26549333" lon="1.99942833">
        <ele>0.0</ele>
        <time>2019-12-21T13:54:47.416Z</time>
      </trkpt>
      <trkpt lat="41.26549333" lon="1.99942833">
        <ele>0.0</ele>
        <time>2019-12-21T13:54:48.411Z</time>
      </trkpt>
      <trkpt lat="41.26556833" lon="1.99956833">
        <ele>0.0</ele>
        <time>2019-12-21T13:54:49.435Z</time>
      </trkpt>
      <trkpt lat="41.26556833" lon="1.99956833">
        <ele>0.0</ele>
        <time>2019-12-21T13:54:50.418Z</time>
      </trkpt>
      <trkpt lat="41.26564333" lon="1.99970667">
        <ele>0.0</ele>
        <time>2019-12-21T13:54:51.416Z</time>
      </trkpt>
      <trkpt lat="41.26568" lon="1.999775">
        <ele>0.0</ele>
        <time>2019-12-21T13:54:52.425Z</time>
      </trkpt>
      <trkpt lat="41.26568" lon="1.999775">
        <ele>0.0</ele>
        <time>2019-12-21T13:54:53.411Z</time>
      </trkpt>
      <trkpt lat="41.26575" lon="1.99991167">
        <ele>0.0</ele>
        <time>2019-12-21T13:54:54.416Z</time>
      </trkpt>
      <trkpt lat="41.265785" lon="1.99998167">
        <ele>0.0</ele>
        <time>2019-12-21T13:54:55.419Z</time>
      </trkpt>
      <trkpt lat="41.265785" lon="1.99998167">
        <ele>0.0</ele>
        <time>2019-12-21T13:54:56.411Z</time>
      </trkpt>
      <trkpt lat="41.26585167" lon="2.00012667">
        <ele>0.0</ele>
        <time>2019-12-21T13:54:57.425Z</time>
      </trkpt>
      <trkpt lat="41.26585167" lon="2.00012667">
        <ele>0.0</ele>
        <time>2019-12-21T13:54:58.411Z</time>
      </trkpt>
      <trkpt lat="41.26591167" lon="2.00028333">
        <ele>0.0</ele>
        <time>2019-12-21T13:54:59.417Z</time>
      </trkpt>
      <trkpt lat="41.26591167" lon="2.00028333">
        <ele>0.0</ele>
        <time>2019-12-21T13:55:00.416Z</time>
      </trkpt>
      <trkpt lat="41.26596" lon="2.00044167">
        <ele>0.0</ele>
        <time>2019-12-21T13:55:01.419Z</time>
      </trkpt>
      <trkpt lat="41.26596" lon="2.00044167">
        <ele>0.0</ele>
        <time>2019-12-21T13:55:02.425Z</time>
      </trkpt>
      <trkpt lat="41.26599333" lon="2.00060333">
        <ele>0.0</ele>
        <time>2019-12-21T13:55:03.417Z</time>
      </trkpt>
      <trkpt lat="41.26599333" lon="2.00060333">
        <ele>0.0</ele>
        <time>2019-12-21T13:55:04.412Z</time>
      </trkpt>
      <trkpt lat="41.26600667" lon="2.00077">
        <ele>0.0</ele>
        <time>2019-12-21T13:55:05.415Z</time>
      </trkpt>
      <trkpt lat="41.26600667" lon="2.00085333">
        <ele>0.0</ele>
        <time>2019-12-21T13:55:06.416Z</time>
      </trkpt>
      <trkpt lat="41.26600333" lon="2.00093333">
        <ele>1.0</ele>
        <time>2019-12-21T13:55:07.417Z</time>
      </trkpt>
      <trkpt lat="41.26600333" lon="2.00093333">
        <ele>1.0</ele>
        <time>2019-12-21T13:55:08.411Z</time>
      </trkpt>
      <trkpt lat="41.26599" lon="2.0011">
        <ele>1.0</ele>
        <time>2019-12-21T13:55:09.417Z</time>
      </trkpt>
      <trkpt lat="41.26599" lon="2.0011">
        <ele>1.0</ele>
        <time>2019-12-21T13:55:10.411Z</time>
      </trkpt>
      <trkpt lat="41.26596167" lon="2.00126">
        <ele>1.0</ele>
        <time>2019-12-21T13:55:11.430Z</time>
      </trkpt>
      <trkpt lat="41.26596167" lon="2.00126">
        <ele>1.0</ele>
        <time>2019-12-21T13:55:12.428Z</time>
      </trkpt>
      <trkpt lat="41.26591667" lon="2.00141667">
        <ele>1.0</ele>
        <time>2019-12-21T13:55:13.419Z</time>
      </trkpt>
      <trkpt lat="41.26591667" lon="2.00141667">
        <ele>1.0</ele>
        <time>2019-12-21T13:55:14.412Z</time>
      </trkpt>
      <trkpt lat="41.26586333" lon="2.001565">
        <ele>2.0</ele>
        <time>2019-12-21T13:55:15.416Z</time>
      </trkpt>
      <trkpt lat="41.26583333" lon="2.001635">
        <ele>2.0</ele>
        <time>2019-12-21T13:55:16.418Z</time>
      </trkpt>
      <trkpt lat="41.26583333" lon="2.001635">
        <ele>2.0</ele>
        <time>2019-12-21T13:55:17.411Z</time>
      </trkpt>
      <trkpt lat="41.26575333" lon="2.00176667">
        <ele>1.0</ele>
        <time>2019-12-21T13:55:18.433Z</time>
      </trkpt>
      <trkpt lat="41.26571" lon="2.00182833">
        <ele>1.0</ele>
        <time>2019-12-21T13:55:19.419Z</time>
      </trkpt>
      <trkpt lat="41.26571" lon="2.00182833">
        <ele>1.0</ele>
        <time>2019-12-21T13:55:20.412Z</time>
      </trkpt>
      <trkpt lat="41.26562167" lon="2.00194667">
        <ele>2.0</ele>
        <time>2019-12-21T13:55:21.402Z</time>
      </trkpt>
      <trkpt lat="41.26562167" lon="2.00194667">
        <ele>2.0</ele>
        <time>2019-12-21T13:55:22.432Z</time>
      </trkpt>
      <trkpt lat="41.26553333" lon="2.00206">
        <ele>2.0</ele>
        <time>2019-12-21T13:55:23.417Z</time>
      </trkpt>
      <trkpt lat="41.26549333" lon="2.00212167">
        <ele>2.0</ele>
        <time>2019-12-21T13:55:24.417Z</time>
      </trkpt>
      <trkpt lat="41.26546167" lon="2.00218833">
        <ele>2.0</ele>
        <time>2019-12-21T13:55:25.419Z</time>
      </trkpt>
      <trkpt lat="41.26546167" lon="2.00218833">
        <ele>2.0</ele>
        <time>2019-12-21T13:55:26.420Z</time>
      </trkpt>
      <trkpt lat="41.26542" lon="2.00233333">
        <ele>2.0</ele>
        <time>2019-12-21T13:55:27.418Z</time>
      </trkpt>
      <trkpt lat="41.26542" lon="2.00233333">
        <ele>2.0</ele>
        <time>2019-12-21T13:55:28.402Z</time>
      </trkpt>
      <trkpt lat="41.26541333" lon="2.00248833">
        <ele>2.0</ele>
        <time>2019-12-21T13:55:29.425Z</time>
      </trkpt>
      <trkpt lat="41.26541333" lon="2.00248833">
        <ele>2.0</ele>
        <time>2019-12-21T13:55:30.412Z</time>
      </trkpt>
      <trkpt lat="41.26541833" lon="2.00264833">
        <ele>2.0</ele>
        <time>2019-12-21T13:55:31.419Z</time>
      </trkpt>
      <trkpt lat="41.26541833" lon="2.00264833">
        <ele>2.0</ele>
        <time>2019-12-21T13:55:32.433Z</time>
      </trkpt>
      <trkpt lat="41.26542167" lon="2.00280667">
        <ele>2.0</ele>
        <time>2019-12-21T13:55:33.425Z</time>
      </trkpt>
      <trkpt lat="41.26542167" lon="2.00280667">
        <ele>2.0</ele>
        <time>2019-12-21T13:55:34.412Z</time>
      </trkpt>
      <trkpt lat="41.265425" lon="2.00296833">
        <ele>3.0</ele>
        <time>2019-12-21T13:55:35.417Z</time>
      </trkpt>
      <trkpt lat="41.265425" lon="2.00296833">
        <ele>3.0</ele>
        <time>2019-12-21T13:55:36.412Z</time>
      </trkpt>
      <trkpt lat="41.26542667" lon="2.00312833">
        <ele>3.0</ele>
        <time>2019-12-21T13:55:37.416Z</time>
      </trkpt>
      <trkpt lat="41.26543" lon="2.00320833">
        <ele>3.0</ele>
        <time>2019-12-21T13:55:38.414Z</time>
      </trkpt>
      <trkpt lat="41.26543" lon="2.00320833">
        <ele>3.0</ele>
        <time>2019-12-21T13:55:39.412Z</time>
      </trkpt>
      <trkpt lat="41.26544" lon="2.00337167">
        <ele>3.0</ele>
        <time>2019-12-21T13:55:40.417Z</time>
      </trkpt>
      <trkpt lat="41.26544" lon="2.00337167">
        <ele>3.0</ele>
        <time>2019-12-21T13:55:41.433Z</time>
      </trkpt>
      <trkpt lat="41.26544167" lon="2.00353667">
        <ele>3.0</ele>
        <time>2019-12-21T13:55:42.429Z</time>
      </trkpt>
      <trkpt lat="41.265445" lon="2.00362167">
        <ele>3.0</ele>
        <time>2019-12-21T13:55:43.419Z</time>
      </trkpt>
      <trkpt lat="41.265445" lon="2.00362167">
        <ele>3.0</ele>
        <time>2019-12-21T13:55:44.412Z</time>
      </trkpt>
      <trkpt lat="41.26544833" lon="2.00379167">
        <ele>3.0</ele>
        <time>2019-12-21T13:55:45.417Z</time>
      </trkpt>
      <trkpt lat="41.26545167" lon="2.00387667">
        <ele>3.0</ele>
        <time>2019-12-21T13:55:46.417Z</time>
      </trkpt>
      <trkpt lat="41.26545167" lon="2.00387667">
        <ele>3.0</ele>
        <time>2019-12-21T13:55:47.412Z</time>
      </trkpt>
      <trkpt lat="41.26546167" lon="2.004045">
        <ele>3.0</ele>
        <time>2019-12-21T13:55:48.397Z</time>
      </trkpt>
      <trkpt lat="41.265465" lon="2.00412833">
        <ele>3.0</ele>
        <time>2019-12-21T13:55:49.421Z</time>
      </trkpt>
      <trkpt lat="41.265465" lon="2.00412833">
        <ele>3.0</ele>
        <time>2019-12-21T13:55:50.412Z</time>
      </trkpt>
      <trkpt lat="41.26547167" lon="2.00429667">
        <ele>4.0</ele>
        <time>2019-12-21T13:55:51.398Z</time>
      </trkpt>
      <trkpt lat="41.26547167" lon="2.00429667">
        <ele>4.0</ele>
        <time>2019-12-21T13:55:52.420Z</time>
      </trkpt>
      <trkpt lat="41.26548167" lon="2.00446667">
        <ele>3.0</ele>
        <time>2019-12-21T13:55:53.418Z</time>
      </trkpt>
      <trkpt lat="41.26548167" lon="2.00446667">
        <ele>3.0</ele>
        <time>2019-12-21T13:55:54.412Z</time>
      </trkpt>
      <trkpt lat="41.265485" lon="2.00463667">
        <ele>3.0</ele>
        <time>2019-12-21T13:55:55.420Z</time>
      </trkpt>
      <trkpt lat="41.265485" lon="2.00463667">
        <ele>3.0</ele>
        <time>2019-12-21T13:55:56.413Z</time>
      </trkpt>
      <trkpt lat="41.26550333" lon="2.00480667">
        <ele>3.0</ele>
        <time>2019-12-21T13:55:57.417Z</time>
      </trkpt>
      <trkpt lat="41.26550333" lon="2.00480667">
        <ele>3.0</ele>
        <time>2019-12-21T13:55:58.413Z</time>
      </trkpt>
      <trkpt lat="41.26555333" lon="2.00497">
        <ele>2.0</ele>
        <time>2019-12-21T13:55:59.417Z</time>
      </trkpt>
      <trkpt lat="41.26558833" lon="2.00505833">
        <ele>2.0</ele>
        <time>2019-12-21T13:56:00.420Z</time>
      </trkpt>
      <trkpt lat="41.26562" lon="2.00513">
        <ele>2.0</ele>
        <time>2019-12-21T13:56:01.419Z</time>
      </trkpt>
      <trkpt lat="41.26562" lon="2.00513">
        <ele>2.0</ele>
        <time>2019-12-21T13:56:02.413Z</time>
      </trkpt>
      <trkpt lat="41.26569167" lon="2.00527">
        <ele>1.0</ele>
        <time>2019-12-21T13:56:03.408Z</time>
      </trkpt>
      <trkpt lat="41.26569167" lon="2.00527">
        <ele>1.0</ele>
        <time>2019-12-21T13:56:04.432Z</time>
      </trkpt>
      <trkpt lat="41.26576167" lon="2.00540167">
        <ele>1.0</ele>
        <time>2019-12-21T13:56:05.417Z</time>
      </trkpt>
      <trkpt lat="41.26576167" lon="2.00540167">
        <ele>1.0</ele>
        <time>2019-12-21T13:56:06.412Z</time>
      </trkpt>
      <trkpt lat="41.26583833" lon="2.005515">
        <ele>1.0</ele>
        <time>2019-12-21T13:56:07.435Z</time>
      </trkpt>
      <trkpt lat="41.26583833" lon="2.005515">
        <ele>1.0</ele>
        <time>2019-12-21T13:56:08.421Z</time>
      </trkpt>
      <trkpt lat="41.26591833" lon="2.00562167">
        <ele>2.0</ele>
        <time>2019-12-21T13:56:09.416Z</time>
      </trkpt>
      <trkpt lat="41.26596" lon="2.00567667">
        <ele>2.0</ele>
        <time>2019-12-21T13:56:10.417Z</time>
      </trkpt>
      <trkpt lat="41.26596" lon="2.00567667">
        <ele>2.0</ele>
        <time>2019-12-21T13:56:11.408Z</time>
      </trkpt>
      <trkpt lat="41.26604333" lon="2.00579833">
        <ele>2.0</ele>
        <time>2019-12-21T13:56:12.417Z</time>
      </trkpt>
      <trkpt lat="41.266075" lon="2.00587167">
        <ele>2.0</ele>
        <time>2019-12-21T13:56:13.419Z</time>
      </trkpt>
      <trkpt lat="41.266075" lon="2.00587167">
        <ele>2.0</ele>
        <time>2019-12-21T13:56:14.412Z</time>
      </trkpt>
      <trkpt lat="41.266125" lon="2.00603833">
        <ele>3.0</ele>
        <time>2019-12-21T13:56:15.419Z</time>
      </trkpt>
      <trkpt lat="41.266125" lon="2.00603833">
        <ele>3.0</ele>
        <time>2019-12-21T13:56:16.413Z</time>
      </trkpt>
      <trkpt lat="41.26616" lon="2.0062">
        <ele>3.0</ele>
        <time>2019-12-21T13:56:17.417Z</time>
      </trkpt>
      <trkpt lat="41.26616" lon="2.0062">
        <ele>3.0</ele>
        <time>2019-12-21T13:56:18.412Z</time>
      </trkpt>
      <trkpt lat="41.26619333" lon="2.006355">
        <ele>3.0</ele>
        <time>2019-12-21T13:56:19.436Z</time>
      </trkpt>
      <trkpt lat="41.26619333" lon="2.006355">
        <ele>3.0</ele>
        <time>2019-12-21T13:56:20.418Z</time>
      </trkpt>
      <trkpt lat="41.26624333" lon="2.006495">
        <ele>4.0</ele>
        <time>2019-12-21T13:56:21.416Z</time>
      </trkpt>
      <trkpt lat="41.26626167" lon="2.00656">
        <ele>4.0</ele>
        <time>2019-12-21T13:56:22.422Z</time>
      </trkpt>
      <trkpt lat="41.26626167" lon="2.00656">
        <ele>4.0</ele>
        <time>2019-12-21T13:56:23.412Z</time>
      </trkpt>
      <trkpt lat="41.26629667" lon="2.006695">
        <ele>4.0</ele>
        <time>2019-12-21T13:56:24.417Z</time>
      </trkpt>
      <trkpt lat="41.266315" lon="2.00676333">
        <ele>4.0</ele>
        <time>2019-12-21T13:56:25.417Z</time>
      </trkpt>
      <trkpt lat="41.266315" lon="2.00676333">
        <ele>4.0</ele>
        <time>2019-12-21T13:56:26.412Z</time>
      </trkpt>
      <trkpt lat="41.266355" lon="2.00690333">
        <ele>5.0</ele>
        <time>2019-12-21T13:56:27.418Z</time>
      </trkpt>
      <trkpt lat="41.26637667" lon="2.00697167">
        <ele>5.0</ele>
        <time>2019-12-21T13:56:28.418Z</time>
      </trkpt>
      <trkpt lat="41.26637667" lon="2.00697167">
        <ele>5.0</ele>
        <time>2019-12-21T13:56:29.413Z</time>
      </trkpt>
      <trkpt lat="41.26642167" lon="2.00711167">
        <ele>5.0</ele>
        <time>2019-12-21T13:56:30.417Z</time>
      </trkpt>
      <trkpt lat="41.26644333" lon="2.00718667">
        <ele>5.0</ele>
        <time>2019-12-21T13:56:31.420Z</time>
      </trkpt>
      <trkpt lat="41.26644333" lon="2.00718667">
        <ele>5.0</ele>
        <time>2019-12-21T13:56:32.432Z</time>
      </trkpt>
      <trkpt lat="41.26648667" lon="2.00732833">
        <ele>5.0</ele>
        <time>2019-12-21T13:56:33.419Z</time>
      </trkpt>
      <trkpt lat="41.26648667" lon="2.00732833">
        <ele>5.0</ele>
        <time>2019-12-21T13:56:34.413Z</time>
      </trkpt>
      <trkpt lat="41.26654" lon="2.00748">
        <ele>4.0</ele>
        <time>2019-12-21T13:56:35.417Z</time>
      </trkpt>
      <trkpt lat="41.26654" lon="2.00748">
        <ele>4.0</ele>
        <time>2019-12-21T13:56:36.412Z</time>
      </trkpt>
      <trkpt lat="41.26659667" lon="2.00761">
        <ele>4.0</ele>
        <time>2019-12-21T13:56:37.418Z</time>
      </trkpt>
      <trkpt lat="41.26659667" lon="2.00761">
        <ele>4.0</ele>
        <time>2019-12-21T13:56:38.425Z</time>
      </trkpt>
      <trkpt lat="41.26665" lon="2.00774333">
        <ele>4.0</ele>
        <time>2019-12-21T13:56:39.430Z</time>
      </trkpt>
      <trkpt lat="41.26665" lon="2.00774333">
        <ele>4.0</ele>
        <time>2019-12-21T13:56:40.436Z</time>
      </trkpt>
      <trkpt lat="41.26671" lon="2.00787167">
        <ele>3.0</ele>
        <time>2019-12-21T13:56:41.428Z</time>
      </trkpt>
      <trkpt lat="41.26671" lon="2.00787167">
        <ele>3.0</ele>
        <time>2019-12-21T13:56:42.409Z</time>
      </trkpt>
      <trkpt lat="41.26677" lon="2.007995">
        <ele>3.0</ele>
        <time>2019-12-21T13:56:43.433Z</time>
      </trkpt>
      <trkpt lat="41.26677" lon="2.007995">
        <ele>3.0</ele>
        <time>2019-12-21T13:56:44.402Z</time>
      </trkpt>
      <trkpt lat="41.26683167" lon="2.00812">
        <ele>3.0</ele>
        <time>2019-12-21T13:56:45.409Z</time>
      </trkpt>
      <trkpt lat="41.26683167" lon="2.00812">
        <ele>3.0</ele>
        <time>2019-12-21T13:56:46.415Z</time>
      </trkpt>
      <trkpt lat="41.26688667" lon="2.00825">
        <ele>3.0</ele>
        <time>2019-12-21T13:56:47.421Z</time>
      </trkpt>
      <trkpt lat="41.26688667" lon="2.00825">
        <ele>3.0</ele>
        <time>2019-12-21T13:56:48.427Z</time>
      </trkpt>
      <trkpt lat="41.266935" lon="2.008385">
        <ele>3.0</ele>
        <time>2019-12-21T13:56:49.433Z</time>
      </trkpt>
      <trkpt lat="41.266935" lon="2.008385">
        <ele>3.0</ele>
        <time>2019-12-21T13:56:50.404Z</time>
      </trkpt>
      <trkpt lat="41.26697" lon="2.00852833">
        <ele>3.0</ele>
        <time>2019-12-21T13:56:51.411Z</time>
      </trkpt>
      <trkpt lat="41.26697" lon="2.00852833">
        <ele>3.0</ele>
        <time>2019-12-21T13:56:52.417Z</time>
      </trkpt>
      <trkpt lat="41.267005" lon="2.008675">
        <ele>4.0</ele>
        <time>2019-12-21T13:56:53.417Z</time>
      </trkpt>
      <trkpt lat="41.26702167" lon="2.00875333">
        <ele>4.0</ele>
        <time>2019-12-21T13:56:54.418Z</time>
      </trkpt>
      <trkpt lat="41.26703667" lon="2.00883167">
        <ele>4.0</ele>
        <time>2019-12-21T13:56:55.420Z</time>
      </trkpt>
      <trkpt lat="41.26703667" lon="2.00883167">
        <ele>4.0</ele>
        <time>2019-12-21T13:56:56.427Z</time>
      </trkpt>
      <trkpt lat="41.267065" lon="2.00898667">
        <ele>4.0</ele>
        <time>2019-12-21T13:56:57.418Z</time>
      </trkpt>
      <trkpt lat="41.267065" lon="2.00898667">
        <ele>4.0</ele>
        <time>2019-12-21T13:56:58.413Z</time>
      </trkpt>
      <trkpt lat="41.267085" lon="2.00914667">
        <ele>4.0</ele>
        <time>2019-12-21T13:56:59.417Z</time>
      </trkpt>
      <trkpt lat="41.267085" lon="2.00914667">
        <ele>4.0</ele>
        <time>2019-12-21T13:57:00.411Z</time>
      </trkpt>
      <trkpt lat="41.26710333" lon="2.009305">
        <ele>5.0</ele>
        <time>2019-12-21T13:57:01.434Z</time>
      </trkpt>
      <trkpt lat="41.26710333" lon="2.009305">
        <ele>5.0</ele>
        <time>2019-12-21T13:57:02.434Z</time>
      </trkpt>
      <trkpt lat="41.26711167" lon="2.00946333">
        <ele>5.0</ele>
        <time>2019-12-21T13:57:03.419Z</time>
      </trkpt>
      <trkpt lat="41.26711167" lon="2.00946333">
        <ele>5.0</ele>
        <time>2019-12-21T13:57:04.424Z</time>
      </trkpt>
      <trkpt lat="41.26709667" lon="2.00960667">
        <ele>5.0</ele>
        <time>2019-12-21T13:57:05.428Z</time>
      </trkpt>
      <trkpt lat="41.26709667" lon="2.00960667">
        <ele>5.0</ele>
        <time>2019-12-21T13:57:06.436Z</time>
      </trkpt>
      <trkpt lat="41.26708667" lon="2.00976">
        <ele>6.0</ele>
        <time>2019-12-21T13:57:07.402Z</time>
      </trkpt>
      <trkpt lat="41.26708667" lon="2.00976">
        <ele>6.0</ele>
        <time>2019-12-21T13:57:08.413Z</time>
      </trkpt>
      <trkpt lat="41.26708" lon="2.0099">
        <ele>6.0</ele>
        <time>2019-12-21T13:57:09.418Z</time>
      </trkpt>
      <trkpt lat="41.26708" lon="2.0099">
        <ele>6.0</ele>
        <time>2019-12-21T13:57:10.412Z</time>
      </trkpt>
      <trkpt lat="41.26706833" lon="2.01004167">
        <ele>7.0</ele>
        <time>2019-12-21T13:57:11.418Z</time>
      </trkpt>
      <trkpt lat="41.26706833" lon="2.01004167">
        <ele>7.0</ele>
        <time>2019-12-21T13:57:12.414Z</time>
      </trkpt>
      <trkpt lat="41.267055" lon="2.01018167">
        <ele>7.0</ele>
        <time>2019-12-21T13:57:13.418Z</time>
      </trkpt>
      <trkpt lat="41.267055" lon="2.01018167">
        <ele>7.0</ele>
        <time>2019-12-21T13:57:14.412Z</time>
      </trkpt>
      <trkpt lat="41.26703" lon="2.01032167">
        <ele>8.0</ele>
        <time>2019-12-21T13:57:15.418Z</time>
      </trkpt>
      <trkpt lat="41.26703" lon="2.01032167">
        <ele>8.0</ele>
        <time>2019-12-21T13:57:16.412Z</time>
      </trkpt>
      <trkpt lat="41.26699333" lon="2.01046167">
        <ele>8.0</ele>
        <time>2019-12-21T13:57:17.435Z</time>
      </trkpt>
      <trkpt lat="41.26699333" lon="2.01046167">
        <ele>8.0</ele>
        <time>2019-12-21T13:57:18.420Z</time>
      </trkpt>
      <trkpt lat="41.266945" lon="2.010615">
        <ele>8.0</ele>
        <time>2019-12-21T13:57:19.420Z</time>
      </trkpt>
      <trkpt lat="41.266945" lon="2.010615">
        <ele>8.0</ele>
        <time>2019-12-21T13:57:20.412Z</time>
      </trkpt>
      <trkpt lat="41.26689833" lon="2.01077167">
        <ele>9.0</ele>
        <time>2019-12-21T13:57:21.418Z</time>
      </trkpt>
      <trkpt lat="41.26689833" lon="2.01077167">
        <ele>9.0</ele>
        <time>2019-12-21T13:57:22.431Z</time>
      </trkpt>
      <trkpt lat="41.266855" lon="2.01092667">
        <ele>9.0</ele>
        <time>2019-12-21T13:57:23.418Z</time>
      </trkpt>
      <trkpt lat="41.266855" lon="2.01092667">
        <ele>9.0</ele>
        <time>2019-12-21T13:57:24.413Z</time>
      </trkpt>
      <trkpt lat="41.26682333" lon="2.01108167">
        <ele>9.0</ele>
        <time>2019-12-21T13:57:25.417Z</time>
      </trkpt>
      <trkpt lat="41.26682333" lon="2.01108167">
        <ele>9.0</ele>
        <time>2019-12-21T13:57:26.413Z</time>
      </trkpt>
      <trkpt lat="41.26681167" lon="2.01123833">
        <ele>9.0</ele>
        <time>2019-12-21T13:57:27.418Z</time>
      </trkpt>
      <trkpt lat="41.26681167" lon="2.01123833">
        <ele>9.0</ele>
        <time>2019-12-21T13:57:28.412Z</time>
      </trkpt>
      <trkpt lat="41.266805" lon="2.011395">
        <ele>10.0</ele>
        <time>2019-12-21T13:57:29.418Z</time>
      </trkpt>
      <trkpt lat="41.266805" lon="2.011395">
        <ele>10.0</ele>
        <time>2019-12-21T13:57:30.412Z</time>
      </trkpt>
      <trkpt lat="41.26679833" lon="2.01155">
        <ele>10.0</ele>
        <time>2019-12-21T13:57:31.419Z</time>
      </trkpt>
      <trkpt lat="41.26679833" lon="2.01155">
        <ele>10.0</ele>
        <time>2019-12-21T13:57:32.432Z</time>
      </trkpt>
      <trkpt lat="41.266795" lon="2.01170667">
        <ele>10.0</ele>
        <time>2019-12-21T13:57:33.419Z</time>
      </trkpt>
      <trkpt lat="41.26679833" lon="2.01178167">
        <ele>10.0</ele>
        <time>2019-12-21T13:57:34.417Z</time>
      </trkpt>
      <trkpt lat="41.26679833" lon="2.01178167">
        <ele>10.0</ele>
        <time>2019-12-21T13:57:35.412Z</time>
      </trkpt>
      <trkpt lat="41.26682333" lon="2.01192667">
        <ele>11.0</ele>
        <time>2019-12-21T13:57:36.417Z</time>
      </trkpt>
      <trkpt lat="41.26683833" lon="2.012005">
        <ele>11.0</ele>
        <time>2019-12-21T13:57:37.420Z</time>
      </trkpt>
      <trkpt lat="41.26683833" lon="2.012005">
        <ele>11.0</ele>
        <time>2019-12-21T13:57:38.412Z</time>
      </trkpt>
      <trkpt lat="41.26686667" lon="2.012155">
        <ele>11.0</ele>
        <time>2019-12-21T13:57:39.418Z</time>
      </trkpt>
      <trkpt lat="41.26686667" lon="2.012155">
        <ele>11.0</ele>
        <time>2019-12-21T13:57:40.412Z</time>
      </trkpt>
      <trkpt lat="41.26688667" lon="2.012315">
        <ele>11.0</ele>
        <time>2019-12-21T13:57:41.429Z</time>
      </trkpt>
      <trkpt lat="41.26688667" lon="2.012315">
        <ele>11.0</ele>
        <time>2019-12-21T13:57:42.429Z</time>
      </trkpt>
      <trkpt lat="41.26689167" lon="2.01248333">
        <ele>11.0</ele>
        <time>2019-12-21T13:57:43.419Z</time>
      </trkpt>
      <trkpt lat="41.26689167" lon="2.01248333">
        <ele>11.0</ele>
        <time>2019-12-21T13:57:44.412Z</time>
      </trkpt>
      <trkpt lat="41.26689" lon="2.01264833">
        <ele>12.0</ele>
        <time>2019-12-21T13:57:45.416Z</time>
      </trkpt>
      <trkpt lat="41.26689167" lon="2.01272667">
        <ele>12.0</ele>
        <time>2019-12-21T13:57:46.418Z</time>
      </trkpt>
      <trkpt lat="41.26689167" lon="2.01272667">
        <ele>12.0</ele>
        <time>2019-12-21T13:57:47.413Z</time>
      </trkpt>
      <trkpt lat="41.2669" lon="2.01287667">
        <ele>12.0</ele>
        <time>2019-12-21T13:57:48.417Z</time>
      </trkpt>
      <trkpt lat="41.266905" lon="2.01294833">
        <ele>12.0</ele>
        <time>2019-12-21T13:57:49.420Z</time>
      </trkpt>
      <trkpt lat="41.266905" lon="2.01294833">
        <ele>12.0</ele>
        <time>2019-12-21T13:57:50.413Z</time>
      </trkpt>
      <trkpt lat="41.26693" lon="2.01310833">
        <ele>12.0</ele>
        <time>2019-12-21T13:57:51.397Z</time>
      </trkpt>
      <trkpt lat="41.26693" lon="2.01310833">
        <ele>12.0</ele>
        <time>2019-12-21T13:57:52.419Z</time>
      </trkpt>
      <trkpt lat="41.26695833" lon="2.01327">
        <ele>12.0</ele>
        <time>2019-12-21T13:57:53.417Z</time>
      </trkpt>
      <trkpt lat="41.26695833" lon="2.01327">
        <ele>12.0</ele>
        <time>2019-12-21T13:57:54.412Z</time>
      </trkpt>
      <trkpt lat="41.26698167" lon="2.013425">
        <ele>12.0</ele>
        <time>2019-12-21T13:57:55.436Z</time>
      </trkpt>
      <trkpt lat="41.26698167" lon="2.013425">
        <ele>12.0</ele>
        <time>2019-12-21T13:57:56.419Z</time>
      </trkpt>
      <trkpt lat="41.267005" lon="2.01358167">
        <ele>12.0</ele>
        <time>2019-12-21T13:57:57.417Z</time>
      </trkpt>
      <trkpt lat="41.26702667" lon="2.01366">
        <ele>12.0</ele>
        <time>2019-12-21T13:57:58.417Z</time>
      </trkpt>
      <trkpt lat="41.26702667" lon="2.01366">
        <ele>12.0</ele>
        <time>2019-12-21T13:57:59.413Z</time>
      </trkpt>
      <trkpt lat="41.26707333" lon="2.01381167">
        <ele>13.0</ele>
        <time>2019-12-21T13:58:00.404Z</time>
      </trkpt>
      <trkpt lat="41.26707333" lon="2.01381167">
        <ele>13.0</ele>
        <time>2019-12-21T13:58:01.429Z</time>
      </trkpt>
      <trkpt lat="41.26710667" lon="2.01395667">
        <ele>13.0</ele>
        <time>2019-12-21T13:58:02.432Z</time>
      </trkpt>
      <trkpt lat="41.26711833" lon="2.01403333">
        <ele>13.0</ele>
        <time>2019-12-21T13:58:03.418Z</time>
      </trkpt>
      <trkpt lat="41.26711833" lon="2.01403333">
        <ele>13.0</ele>
        <time>2019-12-21T13:58:04.413Z</time>
      </trkpt>
      <trkpt lat="41.267135" lon="2.01419">
        <ele>13.0</ele>
        <time>2019-12-21T13:58:05.418Z</time>
      </trkpt>
      <trkpt lat="41.267135" lon="2.01419">
        <ele>13.0</ele>
        <time>2019-12-21T13:58:06.412Z</time>
      </trkpt>
      <trkpt lat="41.26714333" lon="2.01435">
        <ele>13.0</ele>
        <time>2019-12-21T13:58:07.419Z</time>
      </trkpt>
      <trkpt lat="41.26714333" lon="2.01435">
        <ele>13.0</ele>
        <time>2019-12-21T13:58:08.413Z</time>
      </trkpt>
      <trkpt lat="41.267145" lon="2.014515">
        <ele>13.0</ele>
        <time>2019-12-21T13:58:09.413Z</time>
      </trkpt>
      <trkpt lat="41.267145" lon="2.014515">
        <ele>13.0</ele>
        <time>2019-12-21T13:58:10.420Z</time>
      </trkpt>
      <trkpt lat="41.26716167" lon="2.01466833">
        <ele>13.0</ele>
        <time>2019-12-21T13:58:11.427Z</time>
      </trkpt>
      <trkpt lat="41.26716167" lon="2.01466833">
        <ele>13.0</ele>
        <time>2019-12-21T13:58:12.425Z</time>
      </trkpt>
      <trkpt lat="41.267175" lon="2.01482333">
        <ele>13.0</ele>
        <time>2019-12-21T13:58:13.432Z</time>
      </trkpt>
      <trkpt lat="41.26719" lon="2.0149">
        <ele>13.0</ele>
        <time>2019-12-21T13:58:14.432Z</time>
      </trkpt>
      <trkpt lat="41.26719" lon="2.0149">
        <ele>13.0</ele>
        <time>2019-12-21T13:58:15.421Z</time>
      </trkpt>
      <trkpt lat="41.26719333" lon="2.015055">
        <ele>12.0</ele>
        <time>2019-12-21T13:58:16.419Z</time>
      </trkpt>
      <trkpt lat="41.26719333" lon="2.015055">
        <ele>12.0</ele>
        <time>2019-12-21T13:58:17.410Z</time>
      </trkpt>
      <trkpt lat="41.26718333" lon="2.01519833">
        <ele>12.0</ele>
        <time>2019-12-21T13:58:18.418Z</time>
      </trkpt>
      <trkpt lat="41.26718333" lon="2.01526833">
        <ele>12.0</ele>
        <time>2019-12-21T13:58:19.414Z</time>
      </trkpt>
      <trkpt lat="41.26718333" lon="2.01526833">
        <ele>12.0</ele>
        <time>2019-12-21T13:58:20.421Z</time>
      </trkpt>
      <trkpt lat="41.26718833" lon="2.01540167">
        <ele>12.0</ele>
        <time>2019-12-21T13:58:21.430Z</time>
      </trkpt>
      <trkpt lat="41.26719333" lon="2.01547167">
        <ele>12.0</ele>
        <time>2019-12-21T13:58:22.429Z</time>
      </trkpt>
      <trkpt lat="41.26719333" lon="2.01547167">
        <ele>12.0</ele>
        <time>2019-12-21T13:58:23.423Z</time>
      </trkpt>
      <trkpt lat="41.26719667" lon="2.015615">
        <ele>12.0</ele>
        <time>2019-12-21T13:58:24.412Z</time>
      </trkpt>
      <trkpt lat="41.2672" lon="2.01568333">
        <ele>12.0</ele>
        <time>2019-12-21T13:58:25.430Z</time>
      </trkpt>
      <trkpt lat="41.2672" lon="2.01568333">
        <ele>12.0</ele>
        <time>2019-12-21T13:58:26.420Z</time>
      </trkpt>
      <trkpt lat="41.26720167" lon="2.01582167">
        <ele>12.0</ele>
        <time>2019-12-21T13:58:27.426Z</time>
      </trkpt>
      <trkpt lat="41.26720333" lon="2.01588833">
        <ele>12.0</ele>
        <time>2019-12-21T13:58:28.426Z</time>
      </trkpt>
      <trkpt lat="41.26720667" lon="2.01596">
        <ele>12.0</ele>
        <time>2019-12-21T13:58:29.434Z</time>
      </trkpt>
      <trkpt lat="41.26720667" lon="2.01596">
        <ele>12.0</ele>
        <time>2019-12-21T13:58:30.422Z</time>
      </trkpt>
      <trkpt lat="41.26723" lon="2.01610333">
        <ele>12.0</ele>
        <time>2019-12-21T13:58:31.426Z</time>
      </trkpt>
      <trkpt lat="41.26723" lon="2.01610333">
        <ele>12.0</ele>
        <time>2019-12-21T13:58:32.418Z</time>
      </trkpt>
      <trkpt lat="41.26724833" lon="2.01624167">
        <ele>13.0</ele>
        <time>2019-12-21T13:58:33.398Z</time>
      </trkpt>
      <trkpt lat="41.26725333" lon="2.01631333">
        <ele>13.0</ele>
        <time>2019-12-21T13:58:34.427Z</time>
      </trkpt>
      <trkpt lat="41.26725333" lon="2.01631333">
        <ele>13.0</ele>
        <time>2019-12-21T13:58:35.419Z</time>
      </trkpt>
      <trkpt lat="41.26726167" lon="2.01646333">
        <ele>13.0</ele>
        <time>2019-12-21T13:58:36.424Z</time>
      </trkpt>
      <trkpt lat="41.26726" lon="2.016545">
        <ele>13.0</ele>
        <time>2019-12-21T13:58:37.424Z</time>
      </trkpt>
      <trkpt lat="41.26726" lon="2.016545">
        <ele>13.0</ele>
        <time>2019-12-21T13:58:38.415Z</time>
      </trkpt>
      <trkpt lat="41.26726833" lon="2.01671">
        <ele>13.0</ele>
        <time>2019-12-21T13:58:39.407Z</time>
      </trkpt>
      <trkpt lat="41.26726833" lon="2.01671">
        <ele>13.0</ele>
        <time>2019-12-21T13:58:40.399Z</time>
      </trkpt>
      <trkpt lat="41.26727833" lon="2.01687167">
        <ele>13.0</ele>
        <time>2019-12-21T13:58:41.430Z</time>
      </trkpt>
      <trkpt lat="41.26727833" lon="2.01687167">
        <ele>13.0</ele>
        <time>2019-12-21T13:58:42.414Z</time>
      </trkpt>
      <trkpt lat="41.26728833" lon="2.01703">
        <ele>13.0</ele>
        <time>2019-12-21T13:58:43.424Z</time>
      </trkpt>
      <trkpt lat="41.26728833" lon="2.01703">
        <ele>13.0</ele>
        <time>2019-12-21T13:58:44.418Z</time>
      </trkpt>
      <trkpt lat="41.26729667" lon="2.01717833">
        <ele>13.0</ele>
        <time>2019-12-21T13:58:45.427Z</time>
      </trkpt>
      <trkpt lat="41.26729667" lon="2.01717833">
        <ele>13.0</ele>
        <time>2019-12-21T13:58:46.433Z</time>
      </trkpt>
      <trkpt lat="41.26730167" lon="2.017325">
        <ele>13.0</ele>
        <time>2019-12-21T13:58:47.399Z</time>
      </trkpt>
      <trkpt lat="41.26731" lon="2.01739833">
        <ele>13.0</ele>
        <time>2019-12-21T13:58:48.419Z</time>
      </trkpt>
      <trkpt lat="41.26731" lon="2.01739833">
        <ele>13.0</ele>
        <time>2019-12-21T13:58:49.412Z</time>
      </trkpt>
      <trkpt lat="41.267325" lon="2.01755">
        <ele>13.0</ele>
        <time>2019-12-21T13:58:50.434Z</time>
      </trkpt>
      <trkpt lat="41.26732833" lon="2.017625">
        <ele>13.0</ele>
        <time>2019-12-21T13:58:51.420Z</time>
      </trkpt>
      <trkpt lat="41.26732833" lon="2.017625">
        <ele>13.0</ele>
        <time>2019-12-21T13:58:52.434Z</time>
      </trkpt>
      <trkpt lat="41.26734167" lon="2.01776667">
        <ele>13.0</ele>
        <time>2019-12-21T13:58:53.428Z</time>
      </trkpt>
      <trkpt lat="41.26734167" lon="2.01776667">
        <ele>13.0</ele>
        <time>2019-12-21T13:58:54.413Z</time>
      </trkpt>
      <trkpt lat="41.26736" lon="2.01792">
        <ele>13.0</ele>
        <time>2019-12-21T13:58:55.419Z</time>
      </trkpt>
      <trkpt lat="41.26736" lon="2.01792">
        <ele>13.0</ele>
        <time>2019-12-21T13:58:56.413Z</time>
      </trkpt>
      <trkpt lat="41.26737" lon="2.01807333">
        <ele>13.0</ele>
        <time>2019-12-21T13:58:57.418Z</time>
      </trkpt>
      <trkpt lat="41.26737167" lon="2.01814667">
        <ele>13.0</ele>
        <time>2019-12-21T13:58:58.418Z</time>
      </trkpt>
      <trkpt lat="41.26737167" lon="2.01814667">
        <ele>13.0</ele>
        <time>2019-12-21T13:58:59.413Z</time>
      </trkpt>
      <trkpt lat="41.26737" lon="2.01828333">
        <ele>13.0</ele>
        <time>2019-12-21T13:59:00.422Z</time>
      </trkpt>
      <trkpt lat="41.26737167" lon="2.018355">
        <ele>13.0</ele>
        <time>2019-12-21T13:59:01.432Z</time>
      </trkpt>
      <trkpt lat="41.26737167" lon="2.018355">
        <ele>13.0</ele>
        <time>2019-12-21T13:59:02.432Z</time>
      </trkpt>
      <trkpt lat="41.26738167" lon="2.01850833">
        <ele>13.0</ele>
        <time>2019-12-21T13:59:03.419Z</time>
      </trkpt>
      <trkpt lat="41.26738167" lon="2.01850833">
        <ele>13.0</ele>
        <time>2019-12-21T13:59:04.413Z</time>
      </trkpt>
      <trkpt lat="41.26738333" lon="2.01865667">
        <ele>13.0</ele>
        <time>2019-12-21T13:59:05.418Z</time>
      </trkpt>
      <trkpt lat="41.26738333" lon="2.01865667">
        <ele>13.0</ele>
        <time>2019-12-21T13:59:06.414Z</time>
      </trkpt>
      <trkpt lat="41.2674" lon="2.0188">
        <ele>13.0</ele>
        <time>2019-12-21T13:59:07.420Z</time>
      </trkpt>
      <trkpt lat="41.2674" lon="2.0188">
        <ele>13.0</ele>
        <time>2019-12-21T13:59:08.413Z</time>
      </trkpt>
      <trkpt lat="41.26741667" lon="2.018955">
        <ele>13.0</ele>
        <time>2019-12-21T13:59:09.424Z</time>
      </trkpt>
      <trkpt lat="41.26741667" lon="2.018955">
        <ele>13.0</ele>
        <time>2019-12-21T13:59:10.413Z</time>
      </trkpt>
      <trkpt lat="41.26741833" lon="2.01908167">
        <ele>13.0</ele>
        <time>2019-12-21T13:59:11.398Z</time>
      </trkpt>
      <trkpt lat="41.26743667" lon="2.01914667">
        <ele>13.0</ele>
        <time>2019-12-21T13:59:12.423Z</time>
      </trkpt>
      <trkpt lat="41.26743667" lon="2.01914667">
        <ele>13.0</ele>
        <time>2019-12-21T13:59:13.415Z</time>
      </trkpt>
      <trkpt lat="41.26746" lon="2.01928667">
        <ele>14.0</ele>
        <time>2019-12-21T13:59:14.418Z</time>
      </trkpt>
      <trkpt lat="41.26746667" lon="2.01935167">
        <ele>14.0</ele>
        <time>2019-12-21T13:59:15.419Z</time>
      </trkpt>
      <trkpt lat="41.26746667" lon="2.01935167">
        <ele>14.0</ele>
        <time>2019-12-21T13:59:16.414Z</time>
      </trkpt>
      <trkpt lat="41.26747333" lon="2.01948">
        <ele>15.0</ele>
        <time>2019-12-21T13:59:17.418Z</time>
      </trkpt>
      <trkpt lat="41.26747333" lon="2.01948">
        <ele>15.0</ele>
        <time>2019-12-21T13:59:18.414Z</time>
      </trkpt>
      <trkpt lat="41.26745333" lon="2.01961333">
        <ele>15.0</ele>
        <time>2019-12-21T13:59:19.420Z</time>
      </trkpt>
      <trkpt lat="41.26745333" lon="2.01961333">
        <ele>15.0</ele>
        <time>2019-12-21T13:59:20.414Z</time>
      </trkpt>
      <trkpt lat="41.26745" lon="2.01974667">
        <ele>15.0</ele>
        <time>2019-12-21T13:59:21.417Z</time>
      </trkpt>
      <trkpt lat="41.267475" lon="2.01979333">
        <ele>15.0</ele>
        <time>2019-12-21T13:59:22.427Z</time>
      </trkpt>
      <trkpt lat="41.267475" lon="2.01979333">
        <ele>15.0</ele>
        <time>2019-12-21T13:59:23.414Z</time>
      </trkpt>
      <trkpt lat="41.26755167" lon="2.019815">
        <ele>15.0</ele>
        <time>2019-12-21T13:59:24.419Z</time>
      </trkpt>
      <trkpt lat="41.26755167" lon="2.019815">
        <ele>15.0</ele>
        <time>2019-12-21T13:59:25.415Z</time>
      </trkpt>
      <trkpt lat="41.26763333" lon="2.01979667">
        <ele>15.0</ele>
        <time>2019-12-21T13:59:26.418Z</time>
      </trkpt>
      <trkpt lat="41.267675" lon="2.01979">
        <ele>15.0</ele>
        <time>2019-12-21T13:59:27.418Z</time>
      </trkpt>
      <trkpt lat="41.267675" lon="2.01979">
        <ele>15.0</ele>
        <time>2019-12-21T13:59:28.413Z</time>
      </trkpt>
      <trkpt lat="41.26776833" lon="2.01979667">
        <ele>15.0</ele>
        <time>2019-12-21T13:59:29.416Z</time>
      </trkpt>
      <trkpt lat="41.26776833" lon="2.01979667">
        <ele>15.0</ele>
        <time>2019-12-21T13:59:30.413Z</time>
      </trkpt>
      <trkpt lat="41.26786333" lon="2.01979333">
        <ele>15.0</ele>
        <time>2019-12-21T13:59:31.436Z</time>
      </trkpt>
      <trkpt lat="41.26786333" lon="2.01979333">
        <ele>15.0</ele>
        <time>2019-12-21T13:59:32.436Z</time>
      </trkpt>
      <trkpt lat="41.26796333" lon="2.01979333">
        <ele>15.0</ele>
        <time>2019-12-21T13:59:33.419Z</time>
      </trkpt>
      <trkpt lat="41.26796333" lon="2.01979333">
        <ele>15.0</ele>
        <time>2019-12-21T13:59:34.413Z</time>
      </trkpt>
      <trkpt lat="41.26806333" lon="2.01977833">
        <ele>16.0</ele>
        <time>2019-12-21T13:59:35.398Z</time>
      </trkpt>
      <trkpt lat="41.26806333" lon="2.01977833">
        <ele>16.0</ele>
        <time>2019-12-21T13:59:36.420Z</time>
      </trkpt>
      <trkpt lat="41.26816333" lon="2.01975667">
        <ele>17.0</ele>
        <time>2019-12-21T13:59:37.420Z</time>
      </trkpt>
      <trkpt lat="41.26816333" lon="2.01975667">
        <ele>17.0</ele>
        <time>2019-12-21T13:59:38.413Z</time>
      </trkpt>
      <trkpt lat="41.26827" lon="2.01975333">
        <ele>17.0</ele>
        <time>2019-12-21T13:59:39.418Z</time>
      </trkpt>
      <trkpt lat="41.26827" lon="2.01975333">
        <ele>17.0</ele>
        <time>2019-12-21T13:59:40.413Z</time>
      </trkpt>
      <trkpt lat="41.26838333" lon="2.01976167">
        <ele>18.0</ele>
        <time>2019-12-21T13:59:41.418Z</time>
      </trkpt>
      <trkpt lat="41.26838333" lon="2.01976167">
        <ele>18.0</ele>
        <time>2019-12-21T13:59:42.429Z</time>
      </trkpt>
      <trkpt lat="41.26848333" lon="2.01975833">
        <ele>19.0</ele>
        <time>2019-12-21T13:59:43.421Z</time>
      </trkpt>
      <trkpt lat="41.26848333" lon="2.01975833">
        <ele>19.0</ele>
        <time>2019-12-21T13:59:44.414Z</time>
      </trkpt>
      <trkpt lat="41.26851833" lon="2.01975833">
        <ele>18.0</ele>
        <time>2019-12-21T13:59:45.418Z</time>
      </trkpt>
      <trkpt lat="41.26852667" lon="2.01975667">
        <ele>18.0</ele>
        <time>2019-12-21T13:59:46.419Z</time>
      </trkpt>
      <trkpt lat="41.26852667" lon="2.01975667">
        <ele>18.0</ele>
        <time>2019-12-21T13:59:47.413Z</time>
      </trkpt>
      <trkpt lat="41.26853667" lon="2.01975833">
        <ele>19.0</ele>
        <time>2019-12-21T13:59:48.419Z</time>
      </trkpt>
      <trkpt lat="41.26855333" lon="2.01976">
        <ele>19.0</ele>
        <time>2019-12-21T13:59:49.433Z</time>
      </trkpt>
      <trkpt lat="41.26855333" lon="2.01976">
        <ele>19.0</ele>
        <time>2019-12-21T13:59:50.417Z</time>
      </trkpt>
      <trkpt lat="41.268605" lon="2.01975833">
        <ele>19.0</ele>
        <time>2019-12-21T13:59:51.420Z</time>
      </trkpt>
      <trkpt lat="41.268605" lon="2.01975833">
        <ele>19.0</ele>
        <time>2019-12-21T13:59:52.426Z</time>
      </trkpt>
      <trkpt lat="41.26867333" lon="2.01975">
        <ele>19.0</ele>
        <time>2019-12-21T13:59:53.410Z</time>
      </trkpt>
      <trkpt lat="41.26871333" lon="2.01974667">
        <ele>20.0</ele>
        <time>2019-12-21T13:59:54.433Z</time>
      </trkpt>
      <trkpt lat="41.268755" lon="2.019745">
        <ele>20.0</ele>
        <time>2019-12-21T13:59:55.418Z</time>
      </trkpt>
      <trkpt lat="41.268755" lon="2.019745">
        <ele>20.0</ele>
        <time>2019-12-21T13:59:56.414Z</time>
      </trkpt>
      <trkpt lat="41.26884333" lon="2.01974833">
        <ele>20.0</ele>
        <time>2019-12-21T13:59:57.418Z</time>
      </trkpt>
      <trkpt lat="41.26884333" lon="2.01974833">
        <ele>20.0</ele>
        <time>2019-12-21T13:59:58.415Z</time>
      </trkpt>
      <trkpt lat="41.26893833" lon="2.01974167">
        <ele>21.0</ele>
        <time>2019-12-21T13:59:59.418Z</time>
      </trkpt>
      <trkpt lat="41.26893833" lon="2.01974167">
        <ele>21.0</ele>
        <time>2019-12-21T14:00:00.432Z</time>
      </trkpt>
      <trkpt lat="41.269025" lon="2.01973167">
        <ele>25.0</ele>
        <time>2019-12-21T14:00:01.429Z</time>
      </trkpt>
      <trkpt lat="41.269025" lon="2.01973167">
        <ele>25.0</ele>
        <time>2019-12-21T14:00:02.414Z</time>
      </trkpt>
      <trkpt lat="41.269115" lon="2.019725">
        <ele>27.0</ele>
        <time>2019-12-21T14:00:03.400Z</time>
      </trkpt>
      <trkpt lat="41.269115" lon="2.019725">
        <ele>27.0</ele>
        <time>2019-12-21T14:00:04.424Z</time>
      </trkpt>
      <trkpt lat="41.26920333" lon="2.01972333">
        <ele>29.0</ele>
        <time>2019-12-21T14:00:05.416Z</time>
      </trkpt>
      <trkpt lat="41.26920333" lon="2.01972333">
        <ele>29.0</ele>
        <time>2019-12-21T14:00:06.414Z</time>
      </trkpt>
      <trkpt lat="41.26929333" lon="2.01972">
        <ele>30.0</ele>
        <time>2019-12-21T14:00:07.397Z</time>
      </trkpt>
      <trkpt lat="41.26929333" lon="2.01972">
        <ele>30.0</ele>
        <time>2019-12-21T14:00:08.420Z</time>
      </trkpt>
      <trkpt lat="41.269385" lon="2.019755">
        <ele>29.0</ele>
        <time>2019-12-21T14:00:09.419Z</time>
      </trkpt>
      <trkpt lat="41.269385" lon="2.019755">
        <ele>29.0</ele>
        <time>2019-12-21T14:00:10.414Z</time>
      </trkpt>
      <trkpt lat="41.26947167" lon="2.01979">
        <ele>28.0</ele>
        <time>2019-12-21T14:00:11.419Z</time>
      </trkpt>
      <trkpt lat="41.26947167" lon="2.01979">
        <ele>28.0</ele>
        <time>2019-12-21T14:00:12.428Z</time>
      </trkpt>
      <trkpt lat="41.26955667" lon="2.01978667">
        <ele>27.0</ele>
        <time>2019-12-21T14:00:13.422Z</time>
      </trkpt>
      <trkpt lat="41.26955667" lon="2.01978667">
        <ele>27.0</ele>
        <time>2019-12-21T14:00:14.414Z</time>
      </trkpt>
      <trkpt lat="41.26963667" lon="2.01976833">
        <ele>27.0</ele>
        <time>2019-12-21T14:00:15.418Z</time>
      </trkpt>
      <trkpt lat="41.26963667" lon="2.01976833">
        <ele>27.0</ele>
        <time>2019-12-21T14:00:16.414Z</time>
      </trkpt>
      <trkpt lat="41.26971833" lon="2.01974833">
        <ele>26.0</ele>
        <time>2019-12-21T14:00:17.418Z</time>
      </trkpt>
      <trkpt lat="41.26971833" lon="2.01974833">
        <ele>26.0</ele>
        <time>2019-12-21T14:00:18.413Z</time>
      </trkpt>
      <trkpt lat="41.269795" lon="2.01974">
        <ele>26.0</ele>
        <time>2019-12-21T14:00:19.437Z</time>
      </trkpt>
      <trkpt lat="41.269795" lon="2.01974">
        <ele>26.0</ele>
        <time>2019-12-21T14:00:20.419Z</time>
      </trkpt>
      <trkpt lat="41.26987" lon="2.01973">
        <ele>25.0</ele>
        <time>2019-12-21T14:00:21.418Z</time>
      </trkpt>
      <trkpt lat="41.26990667" lon="2.019725">
        <ele>25.0</ele>
        <time>2019-12-21T14:00:22.428Z</time>
      </trkpt>
      <trkpt lat="41.26990667" lon="2.019725">
        <ele>25.0</ele>
        <time>2019-12-21T14:00:23.413Z</time>
      </trkpt>
      <trkpt lat="41.26998167" lon="2.01972333">
        <ele>24.0</ele>
        <time>2019-12-21T14:00:24.419Z</time>
      </trkpt>
      <trkpt lat="41.26998167" lon="2.01972333">
        <ele>24.0</ele>
        <time>2019-12-21T14:00:25.412Z</time>
      </trkpt>
      <trkpt lat="41.27005833" lon="2.01972833">
        <ele>23.0</ele>
        <time>2019-12-21T14:00:26.398Z</time>
      </trkpt>
      <trkpt lat="41.27009667" lon="2.01972833">
        <ele>23.0</ele>
        <time>2019-12-21T14:00:27.424Z</time>
      </trkpt>
      <trkpt lat="41.27009667" lon="2.01972833">
        <ele>23.0</ele>
        <time>2019-12-21T14:00:28.414Z</time>
      </trkpt>
      <trkpt lat="41.27018167" lon="2.019735">
        <ele>21.0</ele>
        <time>2019-12-21T14:00:29.419Z</time>
      </trkpt>
      <trkpt lat="41.27018167" lon="2.019735">
        <ele>21.0</ele>
        <time>2019-12-21T14:00:30.414Z</time>
      </trkpt>
      <trkpt lat="41.27026833" lon="2.01973167">
        <ele>20.0</ele>
        <time>2019-12-21T14:00:31.397Z</time>
      </trkpt>
      <trkpt lat="41.27026833" lon="2.01973167">
        <ele>20.0</ele>
        <time>2019-12-21T14:00:32.402Z</time>
      </trkpt>
      <trkpt lat="41.27035667" lon="2.01973">
        <ele>19.0</ele>
        <time>2019-12-21T14:00:33.426Z</time>
      </trkpt>
      <trkpt lat="41.27035667" lon="2.01973">
        <ele>19.0</ele>
        <time>2019-12-21T14:00:34.414Z</time>
      </trkpt>
      <trkpt lat="41.270445" lon="2.01973167">
        <ele>19.0</ele>
        <time>2019-12-21T14:00:35.419Z</time>
      </trkpt>
      <trkpt lat="41.270445" lon="2.01973167">
        <ele>19.0</ele>
        <time>2019-12-21T14:00:36.414Z</time>
      </trkpt>
      <trkpt lat="41.27053333" lon="2.01973">
        <ele>19.0</ele>
        <time>2019-12-21T14:00:37.400Z</time>
      </trkpt>
      <trkpt lat="41.27053333" lon="2.01973">
        <ele>19.0</ele>
        <time>2019-12-21T14:00:38.432Z</time>
      </trkpt>
      <trkpt lat="41.27063" lon="2.01972833">
        <ele>19.0</ele>
        <time>2019-12-21T14:00:39.419Z</time>
      </trkpt>
      <trkpt lat="41.27063" lon="2.01972833">
        <ele>19.0</ele>
        <time>2019-12-21T14:00:40.417Z</time>
      </trkpt>
      <trkpt lat="41.27072833" lon="2.01974">
        <ele>18.0</ele>
        <time>2019-12-21T14:00:41.433Z</time>
      </trkpt>
      <trkpt lat="41.27072833" lon="2.01974">
        <ele>18.0</ele>
        <time>2019-12-21T14:00:42.433Z</time>
      </trkpt>
      <trkpt lat="41.27082667" lon="2.01974167">
        <ele>17.0</ele>
        <time>2019-12-21T14:00:43.422Z</time>
      </trkpt>
      <trkpt lat="41.27082667" lon="2.01974167">
        <ele>17.0</ele>
        <time>2019-12-21T14:00:44.414Z</time>
      </trkpt>
      <trkpt lat="41.27093333" lon="2.01974167">
        <ele>16.0</ele>
        <time>2019-12-21T14:00:45.420Z</time>
      </trkpt>
      <trkpt lat="41.27093333" lon="2.01974167">
        <ele>16.0</ele>
        <time>2019-12-21T14:00:46.414Z</time>
      </trkpt>
      <trkpt lat="41.27104833" lon="2.01974167">
        <ele>15.0</ele>
        <time>2019-12-21T14:00:47.418Z</time>
      </trkpt>
      <trkpt lat="41.27104833" lon="2.01974167">
        <ele>15.0</ele>
        <time>2019-12-21T14:00:48.414Z</time>
      </trkpt>
      <trkpt lat="41.27116667" lon="2.01974167">
        <ele>14.0</ele>
        <time>2019-12-21T14:00:49.398Z</time>
      </trkpt>
      <trkpt lat="41.27116667" lon="2.01974167">
        <ele>14.0</ele>
        <time>2019-12-21T14:00:50.432Z</time>
      </trkpt>
      <trkpt lat="41.27129667" lon="2.01974">
        <ele>13.0</ele>
        <time>2019-12-21T14:00:51.418Z</time>
      </trkpt>
      <trkpt lat="41.27129667" lon="2.01974">
        <ele>13.0</ele>
        <time>2019-12-21T14:00:52.423Z</time>
      </trkpt>
      <trkpt lat="41.27143667" lon="2.01974">
        <ele>11.0</ele>
        <time>2019-12-21T14:00:53.418Z</time>
      </trkpt>
      <trkpt lat="41.27151" lon="2.01973833">
        <ele>11.0</ele>
        <time>2019-12-21T14:00:54.418Z</time>
      </trkpt>
      <trkpt lat="41.271585" lon="2.01973833">
        <ele>10.0</ele>
        <time>2019-12-21T14:00:55.421Z</time>
      </trkpt>
      <trkpt lat="41.271585" lon="2.01973833">
        <ele>10.0</ele>
        <time>2019-12-21T14:00:56.414Z</time>
      </trkpt>
      <trkpt lat="41.27174167" lon="2.01974167">
        <ele>9.0</ele>
        <time>2019-12-21T14:00:57.417Z</time>
      </trkpt>
      <trkpt lat="41.27182167" lon="2.01974333">
        <ele>9.0</ele>
        <time>2019-12-21T14:00:58.429Z</time>
      </trkpt>
      <trkpt lat="41.27182167" lon="2.01974333">
        <ele>9.0</ele>
        <time>2019-12-21T14:00:59.416Z</time>
      </trkpt>
      <trkpt lat="41.271985" lon="2.01974">
        <ele>8.0</ele>
        <time>2019-12-21T14:01:00.421Z</time>
      </trkpt>
      <trkpt lat="41.27206667" lon="2.01973833">
        <ele>8.0</ele>
        <time>2019-12-21T14:01:01.421Z</time>
      </trkpt>
      <trkpt lat="41.27206667" lon="2.01973833">
        <ele>8.0</ele>
        <time>2019-12-21T14:01:02.432Z</time>
      </trkpt>
      <trkpt lat="41.272235" lon="2.01974167">
        <ele>7.0</ele>
        <time>2019-12-21T14:01:03.419Z</time>
      </trkpt>
      <trkpt lat="41.272235" lon="2.01974167">
        <ele>7.0</ele>
        <time>2019-12-21T14:01:04.422Z</time>
      </trkpt>
      <trkpt lat="41.27240167" lon="2.019745">
        <ele>6.0</ele>
        <time>2019-12-21T14:01:05.419Z</time>
      </trkpt>
      <trkpt lat="41.27240167" lon="2.019745">
        <ele>6.0</ele>
        <time>2019-12-21T14:01:06.414Z</time>
      </trkpt>
      <trkpt lat="41.27256" lon="2.01972">
        <ele>5.0</ele>
        <time>2019-12-21T14:01:07.418Z</time>
      </trkpt>
      <trkpt lat="41.27256" lon="2.01972">
        <ele>5.0</ele>
        <time>2019-12-21T14:01:08.416Z</time>
      </trkpt>
      <trkpt lat="41.27270667" lon="2.01965333">
        <ele>4.0</ele>
        <time>2019-12-21T14:01:09.419Z</time>
      </trkpt>
      <trkpt lat="41.27277833" lon="2.01961833">
        <ele>4.0</ele>
        <time>2019-12-21T14:01:10.417Z</time>
      </trkpt>
      <trkpt lat="41.27277833" lon="2.01961833">
        <ele>4.0</ele>
        <time>2019-12-21T14:01:11.414Z</time>
      </trkpt>
      <trkpt lat="41.27291333" lon="2.019595">
        <ele>3.0</ele>
        <time>2019-12-21T14:01:12.419Z</time>
      </trkpt>
      <trkpt lat="41.27298" lon="2.01959167">
        <ele>3.0</ele>
        <time>2019-12-21T14:01:13.421Z</time>
      </trkpt>
      <trkpt lat="41.27298" lon="2.01959167">
        <ele>3.0</ele>
        <time>2019-12-21T14:01:14.414Z</time>
      </trkpt>
      <trkpt lat="41.27310167" lon="2.01962">
        <ele>3.0</ele>
        <time>2019-12-21T14:01:15.420Z</time>
      </trkpt>
      <trkpt lat="41.273165" lon="2.019625">
        <ele>3.0</ele>
        <time>2019-12-21T14:01:16.420Z</time>
      </trkpt>
      <trkpt lat="41.273165" lon="2.019625">
        <ele>3.0</ele>
        <time>2019-12-21T14:01:17.414Z</time>
      </trkpt>
      <trkpt lat="41.27330667" lon="2.01962333">
        <ele>2.0</ele>
        <time>2019-12-21T14:01:18.418Z</time>
      </trkpt>
      <trkpt lat="41.27338" lon="2.01963">
        <ele>2.0</ele>
        <time>2019-12-21T14:01:19.421Z</time>
      </trkpt>
      <trkpt lat="41.27344667" lon="2.01963667">
        <ele>2.0</ele>
        <time>2019-12-21T14:01:20.419Z</time>
      </trkpt>
      <trkpt lat="41.273505" lon="2.01964">
        <ele>1.0</ele>
        <time>2019-12-21T14:01:21.420Z</time>
      </trkpt>
      <trkpt lat="41.273505" lon="2.01964">
        <ele>1.0</ele>
        <time>2019-12-21T14:01:22.423Z</time>
      </trkpt>
      <trkpt lat="41.273645" lon="2.01964">
        <ele>1.0</ele>
        <time>2019-12-21T14:01:23.419Z</time>
      </trkpt>
      <trkpt lat="41.273645" lon="2.01964">
        <ele>1.0</ele>
        <time>2019-12-21T14:01:24.414Z</time>
      </trkpt>
      <trkpt lat="41.273785" lon="2.01962667">
        <ele>0.0</ele>
        <time>2019-12-21T14:01:25.397Z</time>
      </trkpt>
      <trkpt lat="41.273785" lon="2.01962667">
        <ele>0.0</ele>
        <time>2019-12-21T14:01:26.420Z</time>
      </trkpt>
      <trkpt lat="41.27393" lon="2.01963167">
        <ele>0.0</ele>
        <time>2019-12-21T14:01:27.420Z</time>
      </trkpt>
      <trkpt lat="41.27399833" lon="2.01963333">
        <ele>0.0</ele>
        <time>2019-12-21T14:01:28.420Z</time>
      </trkpt>
      <trkpt lat="41.27399833" lon="2.01963333">
        <ele>0.0</ele>
        <time>2019-12-21T14:01:29.413Z</time>
      </trkpt>
      <trkpt lat="41.27414833" lon="2.01962667">
        <ele>3.0</ele>
        <time>2019-12-21T14:01:30.435Z</time>
      </trkpt>
      <trkpt lat="41.27414833" lon="2.01962667">
        <ele>3.0</ele>
        <time>2019-12-21T14:01:31.418Z</time>
      </trkpt>
      <trkpt lat="41.27429167" lon="2.01962333">
        <ele>4.0</ele>
        <time>2019-12-21T14:01:32.422Z</time>
      </trkpt>
      <trkpt lat="41.27429167" lon="2.01962333">
        <ele>4.0</ele>
        <time>2019-12-21T14:01:33.415Z</time>
      </trkpt>
      <trkpt lat="41.27442667" lon="2.01961833">
        <ele>5.0</ele>
        <time>2019-12-21T14:01:34.400Z</time>
      </trkpt>
      <trkpt lat="41.27442667" lon="2.01961833">
        <ele>5.0</ele>
        <time>2019-12-21T14:01:35.424Z</time>
      </trkpt>
      <trkpt lat="41.27455833" lon="2.019615">
        <ele>5.0</ele>
        <time>2019-12-21T14:01:36.419Z</time>
      </trkpt>
      <trkpt lat="41.27455833" lon="2.019615">
        <ele>5.0</ele>
        <time>2019-12-21T14:01:37.420Z</time>
      </trkpt>
      <trkpt lat="41.27468833" lon="2.01961333">
        <ele>5.0</ele>
        <time>2019-12-21T14:01:38.419Z</time>
      </trkpt>
      <trkpt lat="41.27468833" lon="2.01961333">
        <ele>5.0</ele>
        <time>2019-12-21T14:01:39.418Z</time>
      </trkpt>
      <trkpt lat="41.274815" lon="2.01961">
        <ele>5.0</ele>
        <time>2019-12-21T14:01:40.419Z</time>
      </trkpt>
      <trkpt lat="41.274815" lon="2.01961">
        <ele>5.0</ele>
        <time>2019-12-21T14:01:41.433Z</time>
      </trkpt>
      <trkpt lat="41.274945" lon="2.01960667">
        <ele>5.0</ele>
        <time>2019-12-21T14:01:42.432Z</time>
      </trkpt>
      <trkpt lat="41.27501" lon="2.01960333">
        <ele>5.0</ele>
        <time>2019-12-21T14:01:43.422Z</time>
      </trkpt>
      <trkpt lat="41.27501" lon="2.01960333">
        <ele>5.0</ele>
        <time>2019-12-21T14:01:44.410Z</time>
      </trkpt>
      <trkpt lat="41.27514" lon="2.01960333">
        <ele>5.0</ele>
        <time>2019-12-21T14:01:45.433Z</time>
      </trkpt>
      <trkpt lat="41.275205" lon="2.01960333">
        <ele>5.0</ele>
        <time>2019-12-21T14:01:46.420Z</time>
      </trkpt>
      <trkpt lat="41.275205" lon="2.01960333">
        <ele>5.0</ele>
        <time>2019-12-21T14:01:47.417Z</time>
      </trkpt>
      <trkpt lat="41.27533167" lon="2.01960333">
        <ele>5.0</ele>
        <time>2019-12-21T14:01:48.420Z</time>
      </trkpt>
      <trkpt lat="41.27539667" lon="2.01960167">
        <ele>5.0</ele>
        <time>2019-12-21T14:01:49.422Z</time>
      </trkpt>
      <trkpt lat="41.27546167" lon="2.01960167">
        <ele>5.0</ele>
        <time>2019-12-21T14:01:50.420Z</time>
      </trkpt>
      <trkpt lat="41.27546167" lon="2.01960167">
        <ele>5.0</ele>
        <time>2019-12-21T14:01:51.415Z</time>
      </trkpt>
      <trkpt lat="41.27559333" lon="2.01960333">
        <ele>4.0</ele>
        <time>2019-12-21T14:01:52.421Z</time>
      </trkpt>
      <trkpt lat="41.27559333" lon="2.01960333">
        <ele>4.0</ele>
        <time>2019-12-21T14:01:53.416Z</time>
      </trkpt>
      <trkpt lat="41.27572333" lon="2.01959833">
        <ele>5.0</ele>
        <time>2019-12-21T14:01:54.412Z</time>
      </trkpt>
      <trkpt lat="41.27579" lon="2.01959667">
        <ele>5.0</ele>
        <time>2019-12-21T14:01:55.397Z</time>
      </trkpt>
      <trkpt lat="41.27579" lon="2.01959667">
        <ele>5.0</ele>
        <time>2019-12-21T14:01:56.420Z</time>
      </trkpt>
      <trkpt lat="41.27592" lon="2.019595">
        <ele>5.0</ele>
        <time>2019-12-21T14:01:57.420Z</time>
      </trkpt>
      <trkpt lat="41.27592" lon="2.019595">
        <ele>5.0</ele>
        <time>2019-12-21T14:01:58.415Z</time>
      </trkpt>
      <trkpt lat="41.27605167" lon="2.01959">
        <ele>5.0</ele>
        <time>2019-12-21T14:01:59.427Z</time>
      </trkpt>
      <trkpt lat="41.27605167" lon="2.01959">
        <ele>5.0</ele>
        <time>2019-12-21T14:02:00.421Z</time>
      </trkpt>
      <trkpt lat="41.27617833" lon="2.01958667">
        <ele>5.0</ele>
        <time>2019-12-21T14:02:01.419Z</time>
      </trkpt>
      <trkpt lat="41.27624333" lon="2.01958833">
        <ele>5.0</ele>
        <time>2019-12-21T14:02:02.422Z</time>
      </trkpt>
      <trkpt lat="41.27624333" lon="2.01958833">
        <ele>5.0</ele>
        <time>2019-12-21T14:02:03.418Z</time>
      </trkpt>
      <trkpt lat="41.27637167" lon="2.01959167">
        <ele>4.0</ele>
        <time>2019-12-21T14:02:04.417Z</time>
      </trkpt>
      <trkpt lat="41.27637167" lon="2.01959167">
        <ele>4.0</ele>
        <time>2019-12-21T14:02:05.410Z</time>
      </trkpt>
      <trkpt lat="41.27649667" lon="2.01959167">
        <ele>4.0</ele>
        <time>2019-12-21T14:02:06.432Z</time>
      </trkpt>
      <trkpt lat="41.27649667" lon="2.01959167">
        <ele>4.0</ele>
        <time>2019-12-21T14:02:07.417Z</time>
      </trkpt>
      <trkpt lat="41.27662333" lon="2.01959333">
        <ele>5.0</ele>
        <time>2019-12-21T14:02:08.419Z</time>
      </trkpt>
      <trkpt lat="41.27662333" lon="2.01959333">
        <ele>5.0</ele>
        <time>2019-12-21T14:02:09.415Z</time>
      </trkpt>
      <trkpt lat="41.27675167" lon="2.01959167">
        <ele>5.0</ele>
        <time>2019-12-21T14:02:10.419Z</time>
      </trkpt>
      <trkpt lat="41.27675167" lon="2.01959167">
        <ele>5.0</ele>
        <time>2019-12-21T14:02:11.417Z</time>
      </trkpt>
      <trkpt lat="41.27687833" lon="2.01959167">
        <ele>5.0</ele>
        <time>2019-12-21T14:02:12.424Z</time>
      </trkpt>
      <trkpt lat="41.27687833" lon="2.01959167">
        <ele>5.0</ele>
        <time>2019-12-21T14:02:13.420Z</time>
      </trkpt>
      <trkpt lat="41.276995" lon="2.01958167">
        <ele>7.0</ele>
        <time>2019-12-21T14:02:14.420Z</time>
      </trkpt>
      <trkpt lat="41.276995" lon="2.01958167">
        <ele>7.0</ele>
        <time>2019-12-21T14:02:15.415Z</time>
      </trkpt>
      <trkpt lat="41.27711833" lon="2.01958833">
        <ele>7.0</ele>
        <time>2019-12-21T14:02:16.420Z</time>
      </trkpt>
      <trkpt lat="41.27711833" lon="2.01958833">
        <ele>7.0</ele>
        <time>2019-12-21T14:02:17.417Z</time>
      </trkpt>
      <trkpt lat="41.27724" lon="2.01959">
        <ele>7.0</ele>
        <time>2019-12-21T14:02:18.422Z</time>
      </trkpt>
      <trkpt lat="41.27724" lon="2.01959">
        <ele>7.0</ele>
        <time>2019-12-21T14:02:19.417Z</time>
      </trkpt>
      <trkpt lat="41.27735833" lon="2.01957833">
        <ele>9.0</ele>
        <time>2019-12-21T14:02:20.420Z</time>
      </trkpt>
      <trkpt lat="41.27742" lon="2.01957833">
        <ele>9.0</ele>
        <time>2019-12-21T14:02:21.420Z</time>
      </trkpt>
      <trkpt lat="41.27742" lon="2.01957833">
        <ele>9.0</ele>
        <time>2019-12-21T14:02:22.426Z</time>
      </trkpt>
      <trkpt lat="41.277545" lon="2.01957667">
        <ele>10.0</ele>
        <time>2019-12-21T14:02:23.420Z</time>
      </trkpt>
      <trkpt lat="41.27760833" lon="2.019575">
        <ele>10.0</ele>
        <time>2019-12-21T14:02:24.420Z</time>
      </trkpt>
      <trkpt lat="41.27760833" lon="2.019575">
        <ele>10.0</ele>
        <time>2019-12-21T14:02:25.417Z</time>
      </trkpt>
      <trkpt lat="41.27772333" lon="2.01957833">
        <ele>12.0</ele>
        <time>2019-12-21T14:02:26.420Z</time>
      </trkpt>
      <trkpt lat="41.27772333" lon="2.01957833">
        <ele>12.0</ele>
        <time>2019-12-21T14:02:27.416Z</time>
      </trkpt>
      <trkpt lat="41.27784833" lon="2.01958667">
        <ele>12.0</ele>
        <time>2019-12-21T14:02:28.421Z</time>
      </trkpt>
      <trkpt lat="41.27790833" lon="2.01959">
        <ele>12.0</ele>
        <time>2019-12-21T14:02:29.420Z</time>
      </trkpt>
      <trkpt lat="41.27790833" lon="2.01959">
        <ele>12.0</ele>
        <time>2019-12-21T14:02:30.415Z</time>
      </trkpt>
      <trkpt lat="41.27803167" lon="2.01958667">
        <ele>12.0</ele>
        <time>2019-12-21T14:02:31.398Z</time>
      </trkpt>
      <trkpt lat="41.27809" lon="2.019585">
        <ele>12.0</ele>
        <time>2019-12-21T14:02:32.423Z</time>
      </trkpt>
      <trkpt lat="41.27809" lon="2.019585">
        <ele>12.0</ele>
        <time>2019-12-21T14:02:33.413Z</time>
      </trkpt>
      <trkpt lat="41.27822" lon="2.01957167">
        <ele>12.0</ele>
        <time>2019-12-21T14:02:34.418Z</time>
      </trkpt>
      <trkpt lat="41.27822" lon="2.01957167">
        <ele>12.0</ele>
        <time>2019-12-21T14:02:35.415Z</time>
      </trkpt>
      <trkpt lat="41.278355" lon="2.01956">
        <ele>13.0</ele>
        <time>2019-12-21T14:02:36.418Z</time>
      </trkpt>
      <trkpt lat="41.278355" lon="2.01956">
        <ele>13.0</ele>
        <time>2019-12-21T14:02:37.417Z</time>
      </trkpt>
      <trkpt lat="41.27848667" lon="2.019545">
        <ele>13.0</ele>
        <time>2019-12-21T14:02:38.419Z</time>
      </trkpt>
      <trkpt lat="41.27855167" lon="2.01953667">
        <ele>14.0</ele>
        <time>2019-12-21T14:02:39.421Z</time>
      </trkpt>
      <trkpt lat="41.27855167" lon="2.01953667">
        <ele>14.0</ele>
        <time>2019-12-21T14:02:40.417Z</time>
      </trkpt>
      <trkpt lat="41.27868333" lon="2.01951667">
        <ele>14.0</ele>
        <time>2019-12-21T14:02:41.420Z</time>
      </trkpt>
      <trkpt lat="41.27868333" lon="2.01951667">
        <ele>14.0</ele>
        <time>2019-12-21T14:02:42.427Z</time>
      </trkpt>
      <trkpt lat="41.27881333" lon="2.01950167">
        <ele>14.0</ele>
        <time>2019-12-21T14:02:43.421Z</time>
      </trkpt>
      <trkpt lat="41.27887667" lon="2.01949667">
        <ele>14.0</ele>
        <time>2019-12-21T14:02:44.420Z</time>
      </trkpt>
      <trkpt lat="41.27894167" lon="2.01948667">
        <ele>14.0</ele>
        <time>2019-12-21T14:02:45.422Z</time>
      </trkpt>
      <trkpt lat="41.27894167" lon="2.01948667">
        <ele>14.0</ele>
        <time>2019-12-21T14:02:46.419Z</time>
      </trkpt>
      <trkpt lat="41.27907167" lon="2.01947167">
        <ele>13.0</ele>
        <time>2019-12-21T14:02:47.419Z</time>
      </trkpt>
      <trkpt lat="41.27907167" lon="2.01947167">
        <ele>13.0</ele>
        <time>2019-12-21T14:02:48.415Z</time>
      </trkpt>
      <trkpt lat="41.27920167" lon="2.01944833">
        <ele>12.0</ele>
        <time>2019-12-21T14:02:49.423Z</time>
      </trkpt>
      <trkpt lat="41.27920167" lon="2.01944833">
        <ele>12.0</ele>
        <time>2019-12-21T14:02:50.418Z</time>
      </trkpt>
      <trkpt lat="41.27933333" lon="2.01941833">
        <ele>12.0</ele>
        <time>2019-12-21T14:02:51.420Z</time>
      </trkpt>
      <trkpt lat="41.27933333" lon="2.01941833">
        <ele>12.0</ele>
        <time>2019-12-21T14:02:52.432Z</time>
      </trkpt>
      <trkpt lat="41.27946" lon="2.01939167">
        <ele>12.0</ele>
        <time>2019-12-21T14:02:53.421Z</time>
      </trkpt>
      <trkpt lat="41.27946" lon="2.01939167">
        <ele>12.0</ele>
        <time>2019-12-21T14:02:54.417Z</time>
      </trkpt>
      <trkpt lat="41.27958667" lon="2.01937">
        <ele>12.0</ele>
        <time>2019-12-21T14:02:55.402Z</time>
      </trkpt>
      <trkpt lat="41.279655" lon="2.01935667">
        <ele>11.0</ele>
        <time>2019-12-21T14:02:56.427Z</time>
      </trkpt>
      <trkpt lat="41.279655" lon="2.01935667">
        <ele>11.0</ele>
        <time>2019-12-21T14:02:57.415Z</time>
      </trkpt>
      <trkpt lat="41.27978667" lon="2.01932333">
        <ele>10.0</ele>
        <time>2019-12-21T14:02:58.419Z</time>
      </trkpt>
      <trkpt lat="41.27978667" lon="2.01932333">
        <ele>10.0</ele>
        <time>2019-12-21T14:02:59.399Z</time>
      </trkpt>
      <trkpt lat="41.27991667" lon="2.01929167">
        <ele>9.0</ele>
        <time>2019-12-21T14:03:00.430Z</time>
      </trkpt>
      <trkpt lat="41.27998167" lon="2.019275">
        <ele>9.0</ele>
        <time>2019-12-21T14:03:01.430Z</time>
      </trkpt>
      <trkpt lat="41.27998167" lon="2.019275">
        <ele>9.0</ele>
        <time>2019-12-21T14:03:02.415Z</time>
      </trkpt>
      <trkpt lat="41.28010667" lon="2.01924333">
        <ele>7.0</ele>
        <time>2019-12-21T14:03:03.400Z</time>
      </trkpt>
      <trkpt lat="41.28016833" lon="2.01922333">
        <ele>7.0</ele>
        <time>2019-12-21T14:03:04.421Z</time>
      </trkpt>
      <trkpt lat="41.28016833" lon="2.01922333">
        <ele>7.0</ele>
        <time>2019-12-21T14:03:05.408Z</time>
      </trkpt>
      <trkpt lat="41.28029167" lon="2.01918167">
        <ele>6.0</ele>
        <time>2019-12-21T14:03:06.430Z</time>
      </trkpt>
      <trkpt lat="41.28029167" lon="2.01918167">
        <ele>6.0</ele>
        <time>2019-12-21T14:03:07.417Z</time>
      </trkpt>
      <trkpt lat="41.28041167" lon="2.01914167">
        <ele>5.0</ele>
        <time>2019-12-21T14:03:08.421Z</time>
      </trkpt>
      <trkpt lat="41.28047167" lon="2.01912167">
        <ele>4.0</ele>
        <time>2019-12-21T14:03:09.422Z</time>
      </trkpt>
      <trkpt lat="41.28047167" lon="2.01912167">
        <ele>4.0</ele>
        <time>2019-12-21T14:03:10.417Z</time>
      </trkpt>
      <trkpt lat="41.28059333" lon="2.01908167">
        <ele>4.0</ele>
        <time>2019-12-21T14:03:11.420Z</time>
      </trkpt>
      <trkpt lat="41.28059333" lon="2.01908167">
        <ele>4.0</ele>
        <time>2019-12-21T14:03:12.433Z</time>
      </trkpt>
      <trkpt lat="41.28071667" lon="2.01904167">
        <ele>4.0</ele>
        <time>2019-12-21T14:03:13.422Z</time>
      </trkpt>
      <trkpt lat="41.28078" lon="2.01901833">
        <ele>4.0</ele>
        <time>2019-12-21T14:03:14.421Z</time>
      </trkpt>
      <trkpt lat="41.28078" lon="2.01901833">
        <ele>4.0</ele>
        <time>2019-12-21T14:03:15.416Z</time>
      </trkpt>
      <trkpt lat="41.28090833" lon="2.01896833">
        <ele>3.0</ele>
        <time>2019-12-21T14:03:16.420Z</time>
      </trkpt>
      <trkpt lat="41.28090833" lon="2.01896833">
        <ele>3.0</ele>
        <time>2019-12-21T14:03:17.418Z</time>
      </trkpt>
      <trkpt lat="41.28103833" lon="2.01892167">
        <ele>3.0</ele>
        <time>2019-12-21T14:03:18.418Z</time>
      </trkpt>
      <trkpt lat="41.28103833" lon="2.01892167">
        <ele>3.0</ele>
        <time>2019-12-21T14:03:19.417Z</time>
      </trkpt>
      <trkpt lat="41.28116333" lon="2.01886833">
        <ele>3.0</ele>
        <time>2019-12-21T14:03:20.420Z</time>
      </trkpt>
      <trkpt lat="41.28116333" lon="2.01886833">
        <ele>3.0</ele>
        <time>2019-12-21T14:03:21.416Z</time>
      </trkpt>
      <trkpt lat="41.28128833" lon="2.01881833">
        <ele>3.0</ele>
        <time>2019-12-21T14:03:22.420Z</time>
      </trkpt>
      <trkpt lat="41.28134833" lon="2.01879333">
        <ele>3.0</ele>
        <time>2019-12-21T14:03:23.421Z</time>
      </trkpt>
      <trkpt lat="41.28134833" lon="2.01879333">
        <ele>3.0</ele>
        <time>2019-12-21T14:03:24.418Z</time>
      </trkpt>
      <trkpt lat="41.28147" lon="2.01873833">
        <ele>3.0</ele>
        <time>2019-12-21T14:03:25.418Z</time>
      </trkpt>
      <trkpt lat="41.28153167" lon="2.01871333">
        <ele>3.0</ele>
        <time>2019-12-21T14:03:26.421Z</time>
      </trkpt>
      <trkpt lat="41.28153167" lon="2.01871333">
        <ele>3.0</ele>
        <time>2019-12-21T14:03:27.415Z</time>
      </trkpt>
      <trkpt lat="41.281655" lon="2.01866333">
        <ele>3.0</ele>
        <time>2019-12-21T14:03:28.400Z</time>
      </trkpt>
      <trkpt lat="41.281655" lon="2.01866333">
        <ele>3.0</ele>
        <time>2019-12-21T14:03:29.423Z</time>
      </trkpt>
      <trkpt lat="41.28177833" lon="2.01861167">
        <ele>3.0</ele>
        <time>2019-12-21T14:03:30.420Z</time>
      </trkpt>
      <trkpt lat="41.28177833" lon="2.01861167">
        <ele>3.0</ele>
        <time>2019-12-21T14:03:31.417Z</time>
      </trkpt>
      <trkpt lat="41.281905" lon="2.018565">
        <ele>3.0</ele>
        <time>2019-12-21T14:03:32.421Z</time>
      </trkpt>
      <trkpt lat="41.281905" lon="2.018565">
        <ele>3.0</ele>
        <time>2019-12-21T14:03:33.416Z</time>
      </trkpt>
      <trkpt lat="41.28202833" lon="2.01851333">
        <ele>2.0</ele>
        <time>2019-12-21T14:03:34.421Z</time>
      </trkpt>
      <trkpt lat="41.28202833" lon="2.01851333">
        <ele>2.0</ele>
        <time>2019-12-21T14:03:35.411Z</time>
      </trkpt>
      <trkpt lat="41.28215" lon="2.01846">
        <ele>2.0</ele>
        <time>2019-12-21T14:03:36.433Z</time>
      </trkpt>
      <trkpt lat="41.28215" lon="2.01846">
        <ele>2.0</ele>
        <time>2019-12-21T14:03:37.416Z</time>
      </trkpt>
      <trkpt lat="41.282265" lon="2.01840833">
        <ele>2.0</ele>
        <time>2019-12-21T14:03:38.433Z</time>
      </trkpt>
      <trkpt lat="41.282265" lon="2.01840833">
        <ele>2.0</ele>
        <time>2019-12-21T14:03:39.417Z</time>
      </trkpt>
      <trkpt lat="41.28238667" lon="2.01836">
        <ele>3.0</ele>
        <time>2019-12-21T14:03:40.418Z</time>
      </trkpt>
      <trkpt lat="41.28238667" lon="2.01836">
        <ele>3.0</ele>
        <time>2019-12-21T14:03:41.416Z</time>
      </trkpt>
      <trkpt lat="41.28250667" lon="2.01830833">
        <ele>3.0</ele>
        <time>2019-12-21T14:03:42.425Z</time>
      </trkpt>
      <trkpt lat="41.28250667" lon="2.01830833">
        <ele>3.0</ele>
        <time>2019-12-21T14:03:43.418Z</time>
      </trkpt>
      <trkpt lat="41.282625" lon="2.01825667">
        <ele>3.0</ele>
        <time>2019-12-21T14:03:44.421Z</time>
      </trkpt>
      <trkpt lat="41.282625" lon="2.01825667">
        <ele>3.0</ele>
        <time>2019-12-21T14:03:45.425Z</time>
      </trkpt>
      <trkpt lat="41.28274333" lon="2.018205">
        <ele>3.0</ele>
        <time>2019-12-21T14:03:46.419Z</time>
      </trkpt>
      <trkpt lat="41.28274333" lon="2.018205">
        <ele>3.0</ele>
        <time>2019-12-21T14:03:47.416Z</time>
      </trkpt>
      <trkpt lat="41.28286167" lon="2.018155">
        <ele>3.0</ele>
        <time>2019-12-21T14:03:48.420Z</time>
      </trkpt>
      <trkpt lat="41.28291833" lon="2.01813667">
        <ele>3.0</ele>
        <time>2019-12-21T14:03:49.423Z</time>
      </trkpt>
      <trkpt lat="41.28291833" lon="2.01813667">
        <ele>3.0</ele>
        <time>2019-12-21T14:03:50.415Z</time>
      </trkpt>
      <trkpt lat="41.28303833" lon="2.01809333">
        <ele>3.0</ele>
        <time>2019-12-21T14:03:51.422Z</time>
      </trkpt>
      <trkpt lat="41.28303833" lon="2.01809333">
        <ele>3.0</ele>
        <time>2019-12-21T14:03:52.432Z</time>
      </trkpt>
      <trkpt lat="41.28315667" lon="2.018045">
        <ele>4.0</ele>
        <time>2019-12-21T14:03:53.418Z</time>
      </trkpt>
      <trkpt lat="41.28321667" lon="2.01802">
        <ele>4.0</ele>
        <time>2019-12-21T14:03:54.421Z</time>
      </trkpt>
      <trkpt lat="41.28321667" lon="2.01802">
        <ele>4.0</ele>
        <time>2019-12-21T14:03:55.417Z</time>
      </trkpt>
      <trkpt lat="41.28333167" lon="2.01797833">
        <ele>4.0</ele>
        <time>2019-12-21T14:03:56.420Z</time>
      </trkpt>
      <trkpt lat="41.28333167" lon="2.01797833">
        <ele>4.0</ele>
        <time>2019-12-21T14:03:57.415Z</time>
      </trkpt>
      <trkpt lat="41.28344" lon="2.01794">
        <ele>5.0</ele>
        <time>2019-12-21T14:03:58.411Z</time>
      </trkpt>
      <trkpt lat="41.28349833" lon="2.017915">
        <ele>5.0</ele>
        <time>2019-12-21T14:03:59.435Z</time>
      </trkpt>
      <trkpt lat="41.28349833" lon="2.017915">
        <ele>5.0</ele>
        <time>2019-12-21T14:04:00.428Z</time>
      </trkpt>
      <trkpt lat="41.28361667" lon="2.01786333">
        <ele>6.0</ele>
        <time>2019-12-21T14:04:01.429Z</time>
      </trkpt>
      <trkpt lat="41.28367833" lon="2.01783833">
        <ele>6.0</ele>
        <time>2019-12-21T14:04:02.433Z</time>
      </trkpt>
      <trkpt lat="41.28367833" lon="2.01783833">
        <ele>6.0</ele>
        <time>2019-12-21T14:04:03.418Z</time>
      </trkpt>
      <trkpt lat="41.2838" lon="2.017785">
        <ele>6.0</ele>
        <time>2019-12-21T14:04:04.421Z</time>
      </trkpt>
      <trkpt lat="41.2838" lon="2.017785">
        <ele>6.0</ele>
        <time>2019-12-21T14:04:05.418Z</time>
      </trkpt>
      <trkpt lat="41.28392" lon="2.017735">
        <ele>6.0</ele>
        <time>2019-12-21T14:04:06.420Z</time>
      </trkpt>
      <trkpt lat="41.28398" lon="2.01770833">
        <ele>6.0</ele>
        <time>2019-12-21T14:04:07.423Z</time>
      </trkpt>
      <trkpt lat="41.28398" lon="2.01770833">
        <ele>6.0</ele>
        <time>2019-12-21T14:04:08.416Z</time>
      </trkpt>
      <trkpt lat="41.284105" lon="2.017655">
        <ele>6.0</ele>
        <time>2019-12-21T14:04:09.418Z</time>
      </trkpt>
      <trkpt lat="41.28416833" lon="2.01762667">
        <ele>6.0</ele>
        <time>2019-12-21T14:04:10.421Z</time>
      </trkpt>
      <trkpt lat="41.28416833" lon="2.01762667">
        <ele>6.0</ele>
        <time>2019-12-21T14:04:11.415Z</time>
      </trkpt>
      <trkpt lat="41.28429167" lon="2.01757333">
        <ele>6.0</ele>
        <time>2019-12-21T14:04:12.421Z</time>
      </trkpt>
      <trkpt lat="41.28435333" lon="2.01755">
        <ele>6.0</ele>
        <time>2019-12-21T14:04:13.420Z</time>
      </trkpt>
      <trkpt lat="41.28435333" lon="2.01755">
        <ele>6.0</ele>
        <time>2019-12-21T14:04:14.415Z</time>
      </trkpt>
      <trkpt lat="41.28447333" lon="2.017495">
        <ele>6.0</ele>
        <time>2019-12-21T14:04:15.400Z</time>
      </trkpt>
      <trkpt lat="41.28447333" lon="2.017495">
        <ele>6.0</ele>
        <time>2019-12-21T14:04:16.422Z</time>
      </trkpt>
      <trkpt lat="41.28459333" lon="2.01744667">
        <ele>6.0</ele>
        <time>2019-12-21T14:04:17.421Z</time>
      </trkpt>
      <trkpt lat="41.28459333" lon="2.01744667">
        <ele>6.0</ele>
        <time>2019-12-21T14:04:18.415Z</time>
      </trkpt>
      <trkpt lat="41.28471833" lon="2.01739667">
        <ele>6.0</ele>
        <time>2019-12-21T14:04:19.422Z</time>
      </trkpt>
      <trkpt lat="41.28471833" lon="2.01739667">
        <ele>6.0</ele>
        <time>2019-12-21T14:04:20.419Z</time>
      </trkpt>
      <trkpt lat="41.28484167" lon="2.01734333">
        <ele>6.0</ele>
        <time>2019-12-21T14:04:21.420Z</time>
      </trkpt>
      <trkpt lat="41.28490333" lon="2.01731833">
        <ele>6.0</ele>
        <time>2019-12-21T14:04:22.433Z</time>
      </trkpt>
      <trkpt lat="41.28490333" lon="2.01731833">
        <ele>6.0</ele>
        <time>2019-12-21T14:04:23.418Z</time>
      </trkpt>
      <trkpt lat="41.28502333" lon="2.01727">
        <ele>7.0</ele>
        <time>2019-12-21T14:04:24.420Z</time>
      </trkpt>
      <trkpt lat="41.28508167" lon="2.01724833">
        <ele>7.0</ele>
        <time>2019-12-21T14:04:25.423Z</time>
      </trkpt>
      <trkpt lat="41.28508167" lon="2.01724833">
        <ele>7.0</ele>
        <time>2019-12-21T14:04:26.416Z</time>
      </trkpt>
      <trkpt lat="41.28520333" lon="2.0172">
        <ele>7.0</ele>
        <time>2019-12-21T14:04:27.418Z</time>
      </trkpt>
      <trkpt lat="41.28526167" lon="2.01717333">
        <ele>7.0</ele>
        <time>2019-12-21T14:04:28.422Z</time>
      </trkpt>
      <trkpt lat="41.28526167" lon="2.01717333">
        <ele>7.0</ele>
        <time>2019-12-21T14:04:29.415Z</time>
      </trkpt>
      <trkpt lat="41.28538" lon="2.01712333">
        <ele>7.0</ele>
        <time>2019-12-21T14:04:30.421Z</time>
      </trkpt>
      <trkpt lat="41.28544" lon="2.01709667">
        <ele>7.0</ele>
        <time>2019-12-21T14:04:31.419Z</time>
      </trkpt>
      <trkpt lat="41.28544" lon="2.01709667">
        <ele>7.0</ele>
        <time>2019-12-21T14:04:32.433Z</time>
      </trkpt>
      <trkpt lat="41.28556" lon="2.01704667">
        <ele>8.0</ele>
        <time>2019-12-21T14:04:33.420Z</time>
      </trkpt>
      <trkpt lat="41.28556" lon="2.01704667">
        <ele>8.0</ele>
        <time>2019-12-21T14:04:34.415Z</time>
      </trkpt>
      <trkpt lat="41.28568167" lon="2.016995">
        <ele>8.0</ele>
        <time>2019-12-21T14:04:35.421Z</time>
      </trkpt>
      <trkpt lat="41.28568167" lon="2.016995">
        <ele>8.0</ele>
        <time>2019-12-21T14:04:36.419Z</time>
      </trkpt>
      <trkpt lat="41.2858" lon="2.01694333">
        <ele>9.0</ele>
        <time>2019-12-21T14:04:37.422Z</time>
      </trkpt>
      <trkpt lat="41.2858" lon="2.01694333">
        <ele>9.0</ele>
        <time>2019-12-21T14:04:38.415Z</time>
      </trkpt>
      <trkpt lat="41.28592" lon="2.01689833">
        <ele>9.0</ele>
        <time>2019-12-21T14:04:39.400Z</time>
      </trkpt>
      <trkpt lat="41.28592" lon="2.01689833">
        <ele>9.0</ele>
        <time>2019-12-21T14:04:40.423Z</time>
      </trkpt>
      <trkpt lat="41.28603667" lon="2.01685333">
        <ele>10.0</ele>
        <time>2019-12-21T14:04:41.433Z</time>
      </trkpt>
      <trkpt lat="41.28609667" lon="2.01683333">
        <ele>10.0</ele>
        <time>2019-12-21T14:04:42.432Z</time>
      </trkpt>
      <trkpt lat="41.286155" lon="2.01680833">
        <ele>10.0</ele>
        <time>2019-12-21T14:04:43.423Z</time>
      </trkpt>
      <trkpt lat="41.286155" lon="2.01680833">
        <ele>10.0</ele>
        <time>2019-12-21T14:04:44.415Z</time>
      </trkpt>
      <trkpt lat="41.28627333" lon="2.01676833">
        <ele>11.0</ele>
        <time>2019-12-21T14:04:45.420Z</time>
      </trkpt>
      <trkpt lat="41.28627333" lon="2.01676833">
        <ele>11.0</ele>
        <time>2019-12-21T14:04:46.417Z</time>
      </trkpt>
      <trkpt lat="41.28639167" lon="2.01672833">
        <ele>11.0</ele>
        <time>2019-12-21T14:04:47.420Z</time>
      </trkpt>
      <trkpt lat="41.28645333" lon="2.01670667">
        <ele>12.0</ele>
        <time>2019-12-21T14:04:48.420Z</time>
      </trkpt>
      <trkpt lat="41.28645333" lon="2.01670667">
        <ele>12.0</ele>
        <time>2019-12-21T14:04:49.417Z</time>
      </trkpt>
      <trkpt lat="41.286575" lon="2.01665167">
        <ele>12.0</ele>
        <time>2019-12-21T14:04:50.420Z</time>
      </trkpt>
      <trkpt lat="41.286575" lon="2.01665167">
        <ele>12.0</ele>
        <time>2019-12-21T14:04:51.432Z</time>
      </trkpt>
      <trkpt lat="41.28669667" lon="2.0166">
        <ele>12.0</ele>
        <time>2019-12-21T14:04:52.429Z</time>
      </trkpt>
      <trkpt lat="41.28669667" lon="2.0166">
        <ele>12.0</ele>
        <time>2019-12-21T14:04:53.419Z</time>
      </trkpt>
      <trkpt lat="41.286815" lon="2.016545">
        <ele>13.0</ele>
        <time>2019-12-21T14:04:54.420Z</time>
      </trkpt>
      <trkpt lat="41.286875" lon="2.01651833">
        <ele>13.0</ele>
        <time>2019-12-21T14:04:55.423Z</time>
      </trkpt>
      <trkpt lat="41.286875" lon="2.01651833">
        <ele>13.0</ele>
        <time>2019-12-21T14:04:56.416Z</time>
      </trkpt>
      <trkpt lat="41.28699167" lon="2.01647">
        <ele>14.0</ele>
        <time>2019-12-21T14:04:57.400Z</time>
      </trkpt>
      <trkpt lat="41.28699167" lon="2.01647">
        <ele>14.0</ele>
        <time>2019-12-21T14:04:58.425Z</time>
      </trkpt>
      <trkpt lat="41.28711167" lon="2.01641833">
        <ele>14.0</ele>
        <time>2019-12-21T14:04:59.420Z</time>
      </trkpt>
      <trkpt lat="41.28711167" lon="2.01641833">
        <ele>14.0</ele>
        <time>2019-12-21T14:05:00.415Z</time>
      </trkpt>
      <trkpt lat="41.28723667" lon="2.01636667">
        <ele>14.0</ele>
        <time>2019-12-21T14:05:01.398Z</time>
      </trkpt>
      <trkpt lat="41.28723667" lon="2.01636667">
        <ele>14.0</ele>
        <time>2019-12-21T14:05:02.422Z</time>
      </trkpt>
      <trkpt lat="41.28736" lon="2.01631333">
        <ele>14.0</ele>
        <time>2019-12-21T14:05:03.422Z</time>
      </trkpt>
      <trkpt lat="41.28736" lon="2.01631333">
        <ele>14.0</ele>
        <time>2019-12-21T14:05:04.416Z</time>
      </trkpt>
      <trkpt lat="41.287485" lon="2.01626">
        <ele>14.0</ele>
        <time>2019-12-21T14:05:05.421Z</time>
      </trkpt>
      <trkpt lat="41.287485" lon="2.01626">
        <ele>14.0</ele>
        <time>2019-12-21T14:05:06.430Z</time>
      </trkpt>
      <trkpt lat="41.28761" lon="2.01621">
        <ele>14.0</ele>
        <time>2019-12-21T14:05:07.424Z</time>
      </trkpt>
      <trkpt lat="41.28761" lon="2.01621">
        <ele>14.0</ele>
        <time>2019-12-21T14:05:08.416Z</time>
      </trkpt>
      <trkpt lat="41.28773" lon="2.01616">
        <ele>15.0</ele>
        <time>2019-12-21T14:05:09.421Z</time>
      </trkpt>
      <trkpt lat="41.28773" lon="2.01616">
        <ele>15.0</ele>
        <time>2019-12-21T14:05:10.416Z</time>
      </trkpt>
      <trkpt lat="41.28785" lon="2.01611167">
        <ele>15.0</ele>
        <time>2019-12-21T14:05:11.421Z</time>
      </trkpt>
      <trkpt lat="41.28791" lon="2.01608833">
        <ele>15.0</ele>
        <time>2019-12-21T14:05:12.432Z</time>
      </trkpt>
      <trkpt lat="41.28791" lon="2.01608833">
        <ele>15.0</ele>
        <time>2019-12-21T14:05:13.417Z</time>
      </trkpt>
      <trkpt lat="41.28803" lon="2.016045">
        <ele>15.0</ele>
        <time>2019-12-21T14:05:14.421Z</time>
      </trkpt>
      <trkpt lat="41.28809167" lon="2.01602">
        <ele>15.0</ele>
        <time>2019-12-21T14:05:15.420Z</time>
      </trkpt>
      <trkpt lat="41.28809167" lon="2.01602">
        <ele>15.0</ele>
        <time>2019-12-21T14:05:16.418Z</time>
      </trkpt>
      <trkpt lat="41.28821167" lon="2.01597">
        <ele>15.0</ele>
        <time>2019-12-21T14:05:17.421Z</time>
      </trkpt>
      <trkpt lat="41.28821167" lon="2.01597">
        <ele>15.0</ele>
        <time>2019-12-21T14:05:18.418Z</time>
      </trkpt>
      <trkpt lat="41.28833333" lon="2.01592">
        <ele>15.0</ele>
        <time>2019-12-21T14:05:19.424Z</time>
      </trkpt>
      <trkpt lat="41.28833333" lon="2.01592">
        <ele>15.0</ele>
        <time>2019-12-21T14:05:20.416Z</time>
      </trkpt>
      <trkpt lat="41.28846" lon="2.01586833">
        <ele>15.0</ele>
        <time>2019-12-21T14:05:21.420Z</time>
      </trkpt>
      <trkpt lat="41.28846" lon="2.01586833">
        <ele>15.0</ele>
        <time>2019-12-21T14:05:22.426Z</time>
      </trkpt>
      <trkpt lat="41.28858" lon="2.01582">
        <ele>15.0</ele>
        <time>2019-12-21T14:05:23.420Z</time>
      </trkpt>
      <trkpt lat="41.28864" lon="2.0158">
        <ele>15.0</ele>
        <time>2019-12-21T14:05:24.420Z</time>
      </trkpt>
      <trkpt lat="41.28869833" lon="2.01577833">
        <ele>15.0</ele>
        <time>2019-12-21T14:05:25.423Z</time>
      </trkpt>
      <trkpt lat="41.28869833" lon="2.01577833">
        <ele>15.0</ele>
        <time>2019-12-21T14:05:26.412Z</time>
      </trkpt>
      <trkpt lat="41.28881333" lon="2.01573833">
        <ele>15.0</ele>
        <time>2019-12-21T14:05:27.436Z</time>
      </trkpt>
      <trkpt lat="41.28881333" lon="2.01573833">
        <ele>15.0</ele>
        <time>2019-12-21T14:05:28.419Z</time>
      </trkpt>
      <trkpt lat="41.28893333" lon="2.01568667">
        <ele>15.0</ele>
        <time>2019-12-21T14:05:29.421Z</time>
      </trkpt>
      <trkpt lat="41.28893333" lon="2.01568667">
        <ele>15.0</ele>
        <time>2019-12-21T14:05:30.415Z</time>
      </trkpt>
      <trkpt lat="41.289055" lon="2.01564167">
        <ele>16.0</ele>
        <time>2019-12-21T14:05:31.398Z</time>
      </trkpt>
      <trkpt lat="41.289055" lon="2.01564167">
        <ele>16.0</ele>
        <time>2019-12-21T14:05:32.421Z</time>
      </trkpt>
      <trkpt lat="41.28917333" lon="2.01559833">
        <ele>17.0</ele>
        <time>2019-12-21T14:05:33.422Z</time>
      </trkpt>
      <trkpt lat="41.28923167" lon="2.01557333">
        <ele>17.0</ele>
        <time>2019-12-21T14:05:34.410Z</time>
      </trkpt>
      <trkpt lat="41.28923167" lon="2.01557333">
        <ele>17.0</ele>
        <time>2019-12-21T14:05:35.436Z</time>
      </trkpt>
      <trkpt lat="41.28934833" lon="2.01552333">
        <ele>17.0</ele>
        <time>2019-12-21T14:05:36.436Z</time>
      </trkpt>
      <trkpt lat="41.28940667" lon="2.0155">
        <ele>18.0</ele>
        <time>2019-12-21T14:05:37.424Z</time>
      </trkpt>
      <trkpt lat="41.28940667" lon="2.0155">
        <ele>18.0</ele>
        <time>2019-12-21T14:05:38.416Z</time>
      </trkpt>
      <trkpt lat="41.28952167" lon="2.01545833">
        <ele>18.0</ele>
        <time>2019-12-21T14:05:39.421Z</time>
      </trkpt>
      <trkpt lat="41.28952167" lon="2.01545833">
        <ele>18.0</ele>
        <time>2019-12-21T14:05:40.416Z</time>
      </trkpt>
      <trkpt lat="41.28963833" lon="2.01541333">
        <ele>19.0</ele>
        <time>2019-12-21T14:05:41.421Z</time>
      </trkpt>
      <trkpt lat="41.28968667" lon="2.01539333">
        <ele>19.0</ele>
        <time>2019-12-21T14:05:42.432Z</time>
      </trkpt>
      <trkpt lat="41.28971667" lon="2.01537667">
        <ele>19.0</ele>
        <time>2019-12-21T14:05:43.423Z</time>
      </trkpt>
      <trkpt lat="41.28971667" lon="2.01537667">
        <ele>19.0</ele>
        <time>2019-12-21T14:05:44.416Z</time>
      </trkpt>
      <trkpt lat="41.28974333" lon="2.01533833">
        <ele>19.0</ele>
        <time>2019-12-21T14:05:45.420Z</time>
      </trkpt>
      <trkpt lat="41.28974333" lon="2.01533833">
        <ele>19.0</ele>
        <time>2019-12-21T14:05:46.416Z</time>
      </trkpt>
      <trkpt lat="41.28978" lon="2.01531833">
        <ele>18.0</ele>
        <time>2019-12-21T14:05:47.418Z</time>
      </trkpt>
      <trkpt lat="41.28978" lon="2.01531833">
        <ele>18.0</ele>
        <time>2019-12-21T14:05:48.420Z</time>
      </trkpt>
      <trkpt lat="41.28982667" lon="2.01531">
        <ele>18.0</ele>
        <time>2019-12-21T14:05:49.423Z</time>
      </trkpt>
      <trkpt lat="41.28982667" lon="2.01531">
        <ele>18.0</ele>
        <time>2019-12-21T14:05:50.416Z</time>
      </trkpt>
      <trkpt lat="41.28988833" lon="2.01528667">
        <ele>19.0</ele>
        <time>2019-12-21T14:05:51.421Z</time>
      </trkpt>
      <trkpt lat="41.28992333" lon="2.015265">
        <ele>19.0</ele>
        <time>2019-12-21T14:05:52.432Z</time>
      </trkpt>
      <trkpt lat="41.28992333" lon="2.015265">
        <ele>19.0</ele>
        <time>2019-12-21T14:05:53.417Z</time>
      </trkpt>
      <trkpt lat="41.28999667" lon="2.015225">
        <ele>19.0</ele>
        <time>2019-12-21T14:05:54.400Z</time>
      </trkpt>
      <trkpt lat="41.29003667" lon="2.01520833">
        <ele>19.0</ele>
        <time>2019-12-21T14:05:55.425Z</time>
      </trkpt>
      <trkpt lat="41.29003667" lon="2.01520833">
        <ele>19.0</ele>
        <time>2019-12-21T14:05:56.416Z</time>
      </trkpt>
      <trkpt lat="41.29011667" lon="2.01517167">
        <ele>19.0</ele>
        <time>2019-12-21T14:05:57.421Z</time>
      </trkpt>
      <trkpt lat="41.29011667" lon="2.01517167">
        <ele>19.0</ele>
        <time>2019-12-21T14:05:58.416Z</time>
      </trkpt>
      <trkpt lat="41.29019833" lon="2.01514333">
        <ele>20.0</ele>
        <time>2019-12-21T14:05:59.421Z</time>
      </trkpt>
      <trkpt lat="41.29024167" lon="2.01512667">
        <ele>20.0</ele>
        <time>2019-12-21T14:06:00.427Z</time>
      </trkpt>
      <trkpt lat="41.29028" lon="2.01513333">
        <ele>18.0</ele>
        <time>2019-12-21T14:06:01.432Z</time>
      </trkpt>
      <trkpt lat="41.29028" lon="2.01513333">
        <ele>18.0</ele>
        <time>2019-12-21T14:06:02.401Z</time>
      </trkpt>
      <trkpt lat="41.290365" lon="2.01511667">
        <ele>17.0</ele>
        <time>2019-12-21T14:06:03.425Z</time>
      </trkpt>
      <trkpt lat="41.290365" lon="2.01511667">
        <ele>17.0</ele>
        <time>2019-12-21T14:06:04.416Z</time>
      </trkpt>
      <trkpt lat="41.29045667" lon="2.015085">
        <ele>15.0</ele>
        <time>2019-12-21T14:06:05.409Z</time>
      </trkpt>
      <trkpt lat="41.29045667" lon="2.015085">
        <ele>15.0</ele>
        <time>2019-12-21T14:06:06.432Z</time>
      </trkpt>
      <trkpt lat="41.29055667" lon="2.01504833">
        <ele>12.0</ele>
        <time>2019-12-21T14:06:07.424Z</time>
      </trkpt>
      <trkpt lat="41.29055667" lon="2.01504833">
        <ele>12.0</ele>
        <time>2019-12-21T14:06:08.418Z</time>
      </trkpt>
      <trkpt lat="41.29065667" lon="2.01500333">
        <ele>10.0</ele>
        <time>2019-12-21T14:06:09.436Z</time>
      </trkpt>
      <trkpt lat="41.29065667" lon="2.01500333">
        <ele>10.0</ele>
        <time>2019-12-21T14:06:10.419Z</time>
      </trkpt>
      <trkpt lat="41.29075333" lon="2.01495333">
        <ele>9.0</ele>
        <time>2019-12-21T14:06:11.418Z</time>
      </trkpt>
      <trkpt lat="41.29075333" lon="2.01495333">
        <ele>9.0</ele>
        <time>2019-12-21T14:06:12.423Z</time>
      </trkpt>
      <trkpt lat="41.29084833" lon="2.01490833">
        <ele>9.0</ele>
        <time>2019-12-21T14:06:13.424Z</time>
      </trkpt>
      <trkpt lat="41.29084833" lon="2.01490833">
        <ele>9.0</ele>
        <time>2019-12-21T14:06:14.416Z</time>
      </trkpt>
      <trkpt lat="41.29093167" lon="2.01484833">
        <ele>8.0</ele>
        <time>2019-12-21T14:06:15.423Z</time>
      </trkpt>
      <trkpt lat="41.29093167" lon="2.01484833">
        <ele>8.0</ele>
        <time>2019-12-21T14:06:16.416Z</time>
      </trkpt>
      <trkpt lat="41.290955" lon="2.01472833">
        <ele>7.0</ele>
        <time>2019-12-21T14:06:17.433Z</time>
      </trkpt>
      <trkpt lat="41.290955" lon="2.01472833">
        <ele>7.0</ele>
        <time>2019-12-21T14:06:18.418Z</time>
      </trkpt>
      <trkpt lat="41.29097167" lon="2.01460667">
        <ele>8.0</ele>
        <time>2019-12-21T14:06:19.421Z</time>
      </trkpt>
      <trkpt lat="41.29097167" lon="2.01460667">
        <ele>8.0</ele>
        <time>2019-12-21T14:06:20.416Z</time>
      </trkpt>
      <trkpt lat="41.291005" lon="2.01450333">
        <ele>8.0</ele>
        <time>2019-12-21T14:06:21.421Z</time>
      </trkpt>
      <trkpt lat="41.291005" lon="2.01450333">
        <ele>8.0</ele>
        <time>2019-12-21T14:06:22.433Z</time>
      </trkpt>
      <trkpt lat="41.29105167" lon="2.01440167">
        <ele>8.0</ele>
        <time>2019-12-21T14:06:23.422Z</time>
      </trkpt>
      <trkpt lat="41.29105167" lon="2.01440167">
        <ele>8.0</ele>
        <time>2019-12-21T14:06:24.416Z</time>
      </trkpt>
      <trkpt lat="41.29109833" lon="2.01431">
        <ele>7.0</ele>
        <time>2019-12-21T14:06:25.423Z</time>
      </trkpt>
      <trkpt lat="41.29109833" lon="2.01431">
        <ele>7.0</ele>
        <time>2019-12-21T14:06:26.416Z</time>
      </trkpt>
      <trkpt lat="41.291155" lon="2.01424333">
        <ele>7.0</ele>
        <time>2019-12-21T14:06:27.422Z</time>
      </trkpt>
      <trkpt lat="41.291155" lon="2.01424333">
        <ele>7.0</ele>
        <time>2019-12-21T14:06:28.416Z</time>
      </trkpt>
      <trkpt lat="41.29122167" lon="2.0142">
        <ele>6.0</ele>
        <time>2019-12-21T14:06:29.421Z</time>
      </trkpt>
      <trkpt lat="41.29122167" lon="2.0142">
        <ele>6.0</ele>
        <time>2019-12-21T14:06:30.416Z</time>
      </trkpt>
      <trkpt lat="41.2913" lon="2.01419167">
        <ele>5.0</ele>
        <time>2019-12-21T14:06:31.400Z</time>
      </trkpt>
      <trkpt lat="41.2913" lon="2.01419167">
        <ele>5.0</ele>
        <time>2019-12-21T14:06:32.432Z</time>
      </trkpt>
      <trkpt lat="41.291385" lon="2.01419167">
        <ele>5.0</ele>
        <time>2019-12-21T14:06:33.423Z</time>
      </trkpt>
      <trkpt lat="41.291385" lon="2.01419167">
        <ele>5.0</ele>
        <time>2019-12-21T14:06:34.416Z</time>
      </trkpt>
      <trkpt lat="41.29148333" lon="2.01419833">
        <ele>5.0</ele>
        <time>2019-12-21T14:06:35.421Z</time>
      </trkpt>
      <trkpt lat="41.29148333" lon="2.01419833">
        <ele>5.0</ele>
        <time>2019-12-21T14:06:36.416Z</time>
      </trkpt>
      <trkpt lat="41.29158" lon="2.01423167">
        <ele>4.0</ele>
        <time>2019-12-21T14:06:37.402Z</time>
      </trkpt>
      <trkpt lat="41.29158" lon="2.01423167">
        <ele>4.0</ele>
        <time>2019-12-21T14:06:38.402Z</time>
      </trkpt>
      <trkpt lat="41.29167333" lon="2.01429667">
        <ele>4.0</ele>
        <time>2019-12-21T14:06:39.424Z</time>
      </trkpt>
      <trkpt lat="41.29167333" lon="2.01429667">
        <ele>4.0</ele>
        <time>2019-12-21T14:06:40.416Z</time>
      </trkpt>
      <trkpt lat="41.291755" lon="2.01437833">
        <ele>5.0</ele>
        <time>2019-12-21T14:06:41.435Z</time>
      </trkpt>
      <trkpt lat="41.291755" lon="2.01437833">
        <ele>5.0</ele>
        <time>2019-12-21T14:06:42.432Z</time>
      </trkpt>
      <trkpt lat="41.29184667" lon="2.01444667">
        <ele>5.0</ele>
        <time>2019-12-21T14:06:43.424Z</time>
      </trkpt>
      <trkpt lat="41.29184667" lon="2.01444667">
        <ele>5.0</ele>
        <time>2019-12-21T14:06:44.417Z</time>
      </trkpt>
      <trkpt lat="41.29194833" lon="2.01445167">
        <ele>6.0</ele>
        <time>2019-12-21T14:06:45.422Z</time>
      </trkpt>
      <trkpt lat="41.29194833" lon="2.01445167">
        <ele>6.0</ele>
        <time>2019-12-21T14:06:46.416Z</time>
      </trkpt>
      <trkpt lat="41.29204333" lon="2.01441167">
        <ele>6.0</ele>
        <time>2019-12-21T14:06:47.402Z</time>
      </trkpt>
      <trkpt lat="41.29209167" lon="2.01438667">
        <ele>6.0</ele>
        <time>2019-12-21T14:06:48.425Z</time>
      </trkpt>
      <trkpt lat="41.29214" lon="2.01436333">
        <ele>6.0</ele>
        <time>2019-12-21T14:06:49.420Z</time>
      </trkpt>
      <trkpt lat="41.29214" lon="2.01436333">
        <ele>6.0</ele>
        <time>2019-12-21T14:06:50.416Z</time>
      </trkpt>
      <trkpt lat="41.29223333" lon="2.01431833">
        <ele>6.0</ele>
        <time>2019-12-21T14:06:51.422Z</time>
      </trkpt>
      <trkpt lat="41.29223333" lon="2.01431833">
        <ele>6.0</ele>
        <time>2019-12-21T14:06:52.427Z</time>
      </trkpt>
      <trkpt lat="41.29233167" lon="2.01427667">
        <ele>6.0</ele>
        <time>2019-12-21T14:06:53.422Z</time>
      </trkpt>
      <trkpt lat="41.29233167" lon="2.01427667">
        <ele>6.0</ele>
        <time>2019-12-21T14:06:54.417Z</time>
      </trkpt>
      <trkpt lat="41.29243167" lon="2.01422667">
        <ele>6.0</ele>
        <time>2019-12-21T14:06:55.424Z</time>
      </trkpt>
      <trkpt lat="41.29243167" lon="2.01422667">
        <ele>6.0</ele>
        <time>2019-12-21T14:06:56.416Z</time>
      </trkpt>
      <trkpt lat="41.29253" lon="2.01417667">
        <ele>6.0</ele>
        <time>2019-12-21T14:06:57.404Z</time>
      </trkpt>
      <trkpt lat="41.29253" lon="2.01417667">
        <ele>6.0</ele>
        <time>2019-12-21T14:06:58.428Z</time>
      </trkpt>
      <trkpt lat="41.29262833" lon="2.01412">
        <ele>6.0</ele>
        <time>2019-12-21T14:06:59.422Z</time>
      </trkpt>
      <trkpt lat="41.29268" lon="2.01409333">
        <ele>6.0</ele>
        <time>2019-12-21T14:07:00.425Z</time>
      </trkpt>
      <trkpt lat="41.29268" lon="2.01409333">
        <ele>6.0</ele>
        <time>2019-12-21T14:07:01.419Z</time>
      </trkpt>
      <trkpt lat="41.29278333" lon="2.014045">
        <ele>6.0</ele>
        <time>2019-12-21T14:07:02.432Z</time>
      </trkpt>
      <trkpt lat="41.29278333" lon="2.014045">
        <ele>6.0</ele>
        <time>2019-12-21T14:07:03.416Z</time>
      </trkpt>
      <trkpt lat="41.292885" lon="2.01399167">
        <ele>6.0</ele>
        <time>2019-12-21T14:07:04.420Z</time>
      </trkpt>
      <trkpt lat="41.292885" lon="2.01399167">
        <ele>6.0</ele>
        <time>2019-12-21T14:07:05.416Z</time>
      </trkpt>
      <trkpt lat="41.29298833" lon="2.01393667">
        <ele>6.0</ele>
        <time>2019-12-21T14:07:06.421Z</time>
      </trkpt>
      <trkpt lat="41.29304" lon="2.01391167">
        <ele>5.0</ele>
        <time>2019-12-21T14:07:07.423Z</time>
      </trkpt>
      <trkpt lat="41.29304" lon="2.01391167">
        <ele>5.0</ele>
        <time>2019-12-21T14:07:08.416Z</time>
      </trkpt>
      <trkpt lat="41.29314667" lon="2.01385167">
        <ele>5.0</ele>
        <time>2019-12-21T14:07:09.433Z</time>
      </trkpt>
      <trkpt lat="41.29314667" lon="2.01385167">
        <ele>5.0</ele>
        <time>2019-12-21T14:07:10.416Z</time>
      </trkpt>
      <trkpt lat="41.29325" lon="2.01379">
        <ele>5.0</ele>
        <time>2019-12-21T14:07:11.422Z</time>
      </trkpt>
      <trkpt lat="41.29325" lon="2.01379">
        <ele>5.0</ele>
        <time>2019-12-21T14:07:12.430Z</time>
      </trkpt>
      <trkpt lat="41.29335667" lon="2.01373">
        <ele>5.0</ele>
        <time>2019-12-21T14:07:13.433Z</time>
      </trkpt>
      <trkpt lat="41.29335667" lon="2.01373">
        <ele>5.0</ele>
        <time>2019-12-21T14:07:14.417Z</time>
      </trkpt>
      <trkpt lat="41.293465" lon="2.01366833">
        <ele>5.0</ele>
        <time>2019-12-21T14:07:15.422Z</time>
      </trkpt>
      <trkpt lat="41.293465" lon="2.01366833">
        <ele>5.0</ele>
        <time>2019-12-21T14:07:16.417Z</time>
      </trkpt>
      <trkpt lat="41.29357167" lon="2.01361">
        <ele>5.0</ele>
        <time>2019-12-21T14:07:17.401Z</time>
      </trkpt>
      <trkpt lat="41.29362333" lon="2.01358">
        <ele>5.0</ele>
        <time>2019-12-21T14:07:18.426Z</time>
      </trkpt>
      <trkpt lat="41.29367667" lon="2.01354667">
        <ele>5.0</ele>
        <time>2019-12-21T14:07:19.424Z</time>
      </trkpt>
      <trkpt lat="41.29367667" lon="2.01354667">
        <ele>5.0</ele>
        <time>2019-12-21T14:07:20.420Z</time>
      </trkpt>
      <trkpt lat="41.29378333" lon="2.01348">
        <ele>5.0</ele>
        <time>2019-12-21T14:07:21.420Z</time>
      </trkpt>
      <trkpt lat="41.29378333" lon="2.01348">
        <ele>5.0</ele>
        <time>2019-12-21T14:07:22.426Z</time>
      </trkpt>
      <trkpt lat="41.29388833" lon="2.01341333">
        <ele>5.0</ele>
        <time>2019-12-21T14:07:23.422Z</time>
      </trkpt>
      <trkpt lat="41.29388833" lon="2.01341333">
        <ele>5.0</ele>
        <time>2019-12-21T14:07:24.416Z</time>
      </trkpt>
      <trkpt lat="41.29399333" lon="2.013345">
        <ele>5.0</ele>
        <time>2019-12-21T14:07:25.399Z</time>
      </trkpt>
      <trkpt lat="41.29404667" lon="2.01331167">
        <ele>5.0</ele>
        <time>2019-12-21T14:07:26.412Z</time>
      </trkpt>
      <trkpt lat="41.29404667" lon="2.01331167">
        <ele>5.0</ele>
        <time>2019-12-21T14:07:27.432Z</time>
      </trkpt>
      <trkpt lat="41.29415333" lon="2.01323833">
        <ele>4.0</ele>
        <time>2019-12-21T14:07:28.422Z</time>
      </trkpt>
      <trkpt lat="41.29415333" lon="2.01323833">
        <ele>4.0</ele>
        <time>2019-12-21T14:07:29.419Z</time>
      </trkpt>
      <trkpt lat="41.29425667" lon="2.01316167">
        <ele>4.0</ele>
        <time>2019-12-21T14:07:30.422Z</time>
      </trkpt>
      <trkpt lat="41.29431" lon="2.01312667">
        <ele>4.0</ele>
        <time>2019-12-21T14:07:31.432Z</time>
      </trkpt>
      <trkpt lat="41.29431" lon="2.01312667">
        <ele>4.0</ele>
        <time>2019-12-21T14:07:32.402Z</time>
      </trkpt>
      <trkpt lat="41.29441333" lon="2.013065">
        <ele>4.0</ele>
        <time>2019-12-21T14:07:33.424Z</time>
      </trkpt>
      <trkpt lat="41.29441333" lon="2.013065">
        <ele>4.0</ele>
        <time>2019-12-21T14:07:34.417Z</time>
      </trkpt>
      <trkpt lat="41.29447167" lon="2.01297667">
        <ele>4.0</ele>
        <time>2019-12-21T14:07:35.423Z</time>
      </trkpt>
      <trkpt lat="41.29447167" lon="2.01297667">
        <ele>4.0</ele>
        <time>2019-12-21T14:07:36.417Z</time>
      </trkpt>
      <trkpt lat="41.29450333" lon="2.01293">
        <ele>5.0</ele>
        <time>2019-12-21T14:07:37.400Z</time>
      </trkpt>
      <trkpt lat="41.29450333" lon="2.01293">
        <ele>5.0</ele>
        <time>2019-12-21T14:07:38.423Z</time>
      </trkpt>
      <trkpt lat="41.29456" lon="2.01286167">
        <ele>5.0</ele>
        <time>2019-12-21T14:07:39.423Z</time>
      </trkpt>
      <trkpt lat="41.29456" lon="2.01286167">
        <ele>5.0</ele>
        <time>2019-12-21T14:07:40.417Z</time>
      </trkpt>
      <trkpt lat="41.29462833" lon="2.01275667">
        <ele>5.0</ele>
        <time>2019-12-21T14:07:41.433Z</time>
      </trkpt>
      <trkpt lat="41.29462833" lon="2.01275667">
        <ele>5.0</ele>
        <time>2019-12-21T14:07:42.417Z</time>
      </trkpt>
      <trkpt lat="41.29471333" lon="2.01271">
        <ele>6.0</ele>
        <time>2019-12-21T14:07:43.400Z</time>
      </trkpt>
      <trkpt lat="41.29475333" lon="2.01271333">
        <ele>6.0</ele>
        <time>2019-12-21T14:07:44.424Z</time>
      </trkpt>
      <trkpt lat="41.29475333" lon="2.01271333">
        <ele>6.0</ele>
        <time>2019-12-21T14:07:45.418Z</time>
      </trkpt>
      <trkpt lat="41.29482333" lon="2.01274333">
        <ele>7.0</ele>
        <time>2019-12-21T14:07:46.422Z</time>
      </trkpt>
      <trkpt lat="41.29482333" lon="2.01274333">
        <ele>7.0</ele>
        <time>2019-12-21T14:07:47.418Z</time>
      </trkpt>
      <trkpt lat="41.29486667" lon="2.01281667">
        <ele>7.0</ele>
        <time>2019-12-21T14:07:48.423Z</time>
      </trkpt>
      <trkpt lat="41.29487667" lon="2.01284667">
        <ele>7.0</ele>
        <time>2019-12-21T14:07:49.424Z</time>
      </trkpt>
      <trkpt lat="41.29487667" lon="2.01284667">
        <ele>7.0</ele>
        <time>2019-12-21T14:07:50.417Z</time>
      </trkpt>
      <trkpt lat="41.29488833" lon="2.01287333">
        <ele>7.0</ele>
        <time>2019-12-21T14:07:51.422Z</time>
      </trkpt>
      <trkpt lat="41.29488833" lon="2.01287333">
        <ele>7.0</ele>
        <time>2019-12-21T14:07:52.432Z</time>
      </trkpt>
      <trkpt lat="41.29489333" lon="2.01287">
        <ele>8.0</ele>
        <time>2019-12-21T14:07:53.420Z</time>
      </trkpt>
      <trkpt lat="41.29489333" lon="2.01286833">
        <ele>8.0</ele>
        <time>2019-12-21T14:07:54.422Z</time>
      </trkpt>
      <trkpt lat="41.29498333" lon="2.01282667">
        <ele>4.0</ele>
        <time>2019-12-21T14:07:55.427Z</time>
      </trkpt>
      <trkpt lat="41.29498333" lon="2.01282667">
        <ele>4.0</ele>
        <time>2019-12-21T14:07:56.418Z</time>
      </trkpt>
      <trkpt lat="41.29500833" lon="2.01280167">
        <ele>4.0</ele>
        <time>2019-12-21T14:07:57.411Z</time>
      </trkpt>
      <trkpt lat="41.29500833" lon="2.01280167">
        <ele>4.0</ele>
        <time>2019-12-21T14:07:58.416Z</time>
      </trkpt>
      <trkpt lat="41.29505833" lon="2.01273667">
        <ele>4.0</ele>
        <time>2019-12-21T14:07:59.429Z</time>
      </trkpt>
      <trkpt lat="41.29505833" lon="2.01273667">
        <ele>4.0</ele>
        <time>2019-12-21T14:08:00.415Z</time>
      </trkpt>
      <trkpt lat="41.29510333" lon="2.01269">
        <ele>4.0</ele>
        <time>2019-12-21T14:08:01.416Z</time>
      </trkpt>
      <trkpt lat="41.29513167" lon="2.01267333">
        <ele>4.0</ele>
        <time>2019-12-21T14:08:02.431Z</time>
      </trkpt>
      <trkpt lat="41.29513167" lon="2.01267333">
        <ele>4.0</ele>
        <time>2019-12-21T14:08:03.415Z</time>
      </trkpt>
      <trkpt lat="41.29523" lon="2.01261667">
        <ele>4.0</ele>
        <time>2019-12-21T14:08:04.429Z</time>
      </trkpt>
      <trkpt lat="41.29523" lon="2.01261667">
        <ele>4.0</ele>
        <time>2019-12-21T14:08:05.410Z</time>
      </trkpt>
      <trkpt lat="41.29523" lon="2.01261667">
        <ele>4.0</ele>
        <time>2019-12-21T14:08:06.416Z</time>
      </trkpt>
      <trkpt lat="41.29530167" lon="2.01256833">
        <ele>4.0</ele>
        <time>2019-12-21T14:08:07.410Z</time>
      </trkpt>
      <trkpt lat="41.29537833" lon="2.012515">
        <ele>4.0</ele>
        <time>2019-12-21T14:08:08.433Z</time>
      </trkpt>
      <trkpt lat="41.29537833" lon="2.012515">
        <ele>4.0</ele>
        <time>2019-12-21T14:08:09.418Z</time>
      </trkpt>
      <trkpt lat="41.29537833" lon="2.012515">
        <ele>4.0</ele>
        <time>2019-12-21T14:08:10.415Z</time>
      </trkpt>
      <trkpt lat="41.29545667" lon="2.01245167">
        <ele>3.0</ele>
        <time>2019-12-21T14:08:11.411Z</time>
      </trkpt>
      <trkpt lat="41.29545667" lon="2.01245167">
        <ele>3.0</ele>
        <time>2019-12-21T14:08:12.415Z</time>
      </trkpt>
      <trkpt lat="41.29553667" lon="2.01239">
        <ele>3.0</ele>
        <time>2019-12-21T14:08:13.431Z</time>
      </trkpt>
      <trkpt lat="41.29553667" lon="2.01239">
        <ele>3.0</ele>
        <time>2019-12-21T14:08:14.412Z</time>
      </trkpt>
      <trkpt lat="41.295615" lon="2.012335">
        <ele>3.0</ele>
        <time>2019-12-21T14:08:15.416Z</time>
      </trkpt>
      <trkpt lat="41.29565667" lon="2.012305">
        <ele>3.0</ele>
        <time>2019-12-21T14:08:16.416Z</time>
      </trkpt>
      <trkpt lat="41.29569833" lon="2.012275">
        <ele>3.0</ele>
        <time>2019-12-21T14:08:17.429Z</time>
      </trkpt>
      <trkpt lat="41.29569833" lon="2.012275">
        <ele>3.0</ele>
        <time>2019-12-21T14:08:18.420Z</time>
      </trkpt>
      <trkpt lat="41.29578333" lon="2.01221333">
        <ele>3.0</ele>
        <time>2019-12-21T14:08:19.425Z</time>
      </trkpt>
      <trkpt lat="41.29578333" lon="2.01221333">
        <ele>3.0</ele>
        <time>2019-12-21T14:08:20.418Z</time>
      </trkpt>
      <trkpt lat="41.295865" lon="2.01214667">
        <ele>3.0</ele>
        <time>2019-12-21T14:08:21.432Z</time>
      </trkpt>
      <trkpt lat="41.295865" lon="2.01214667">
        <ele>3.0</ele>
        <time>2019-12-21T14:08:22.434Z</time>
      </trkpt>
      <trkpt lat="41.29595167" lon="2.01209667">
        <ele>3.0</ele>
        <time>2019-12-21T14:08:23.411Z</time>
      </trkpt>
      <trkpt lat="41.29595167" lon="2.01209667">
        <ele>3.0</ele>
        <time>2019-12-21T14:08:24.416Z</time>
      </trkpt>
      <trkpt lat="41.29604167" lon="2.01206667">
        <ele>3.0</ele>
        <time>2019-12-21T14:08:25.429Z</time>
      </trkpt>
      <trkpt lat="41.29604167" lon="2.01206667">
        <ele>3.0</ele>
        <time>2019-12-21T14:08:26.417Z</time>
      </trkpt>
      <trkpt lat="41.29612667" lon="2.012105">
        <ele>4.0</ele>
        <time>2019-12-21T14:08:27.431Z</time>
      </trkpt>
      <trkpt lat="41.29612667" lon="2.012105">
        <ele>4.0</ele>
        <time>2019-12-21T14:08:28.416Z</time>
      </trkpt>
      <trkpt lat="41.29621" lon="2.01214667">
        <ele>5.0</ele>
        <time>2019-12-21T14:08:29.433Z</time>
      </trkpt>
      <trkpt lat="41.29621" lon="2.01214667">
        <ele>5.0</ele>
        <time>2019-12-21T14:08:30.417Z</time>
      </trkpt>
      <trkpt lat="41.29629167" lon="2.01210833">
        <ele>5.0</ele>
        <time>2019-12-21T14:08:31.432Z</time>
      </trkpt>
      <trkpt lat="41.29629167" lon="2.01210833">
        <ele>5.0</ele>
        <time>2019-12-21T14:08:32.418Z</time>
      </trkpt>
      <trkpt lat="41.29633" lon="2.012005">
        <ele>5.0</ele>
        <time>2019-12-21T14:08:33.431Z</time>
      </trkpt>
      <trkpt lat="41.29633" lon="2.012005">
        <ele>5.0</ele>
        <time>2019-12-21T14:08:34.416Z</time>
      </trkpt>
      <trkpt lat="41.29644167" lon="2.0119">
        <ele>6.0</ele>
        <time>2019-12-21T14:08:35.452Z</time>
      </trkpt>
      <trkpt lat="41.29644167" lon="2.0119">
        <ele>6.0</ele>
        <time>2019-12-21T14:08:36.411Z</time>
      </trkpt>
      <trkpt lat="41.29644167" lon="2.0119">
        <ele>6.0</ele>
        <time>2019-12-21T14:08:37.416Z</time>
      </trkpt>
      <trkpt lat="41.29654667" lon="2.011785">
        <ele>7.0</ele>
        <time>2019-12-21T14:08:38.431Z</time>
      </trkpt>
      <trkpt lat="41.29654667" lon="2.011785">
        <ele>7.0</ele>
        <time>2019-12-21T14:08:39.412Z</time>
      </trkpt>
      <trkpt lat="41.29654667" lon="2.011785">
        <ele>7.0</ele>
        <time>2019-12-21T14:08:40.416Z</time>
      </trkpt>
      <trkpt lat="41.296625" lon="2.01169833">
        <ele>7.0</ele>
        <time>2019-12-21T14:08:41.427Z</time>
      </trkpt>
      <trkpt lat="41.29671667" lon="2.01161167">
        <ele>7.0</ele>
        <time>2019-12-21T14:08:42.435Z</time>
      </trkpt>
      <trkpt lat="41.29671667" lon="2.01161167">
        <ele>7.0</ele>
        <time>2019-12-21T14:08:43.403Z</time>
      </trkpt>
      <trkpt lat="41.29671667" lon="2.01161167">
        <ele>7.0</ele>
        <time>2019-12-21T14:08:44.417Z</time>
      </trkpt>
      <trkpt lat="41.29680333" lon="2.01152667">
        <ele>7.0</ele>
        <time>2019-12-21T14:08:45.431Z</time>
      </trkpt>
      <trkpt lat="41.29680333" lon="2.01152667">
        <ele>7.0</ele>
        <time>2019-12-21T14:08:46.414Z</time>
      </trkpt>
      <trkpt lat="41.296885" lon="2.01143">
        <ele>8.0</ele>
        <time>2019-12-21T14:08:47.429Z</time>
      </trkpt>
      <trkpt lat="41.296925" lon="2.01138167">
        <ele>8.0</ele>
        <time>2019-12-21T14:08:48.411Z</time>
      </trkpt>
      <trkpt lat="41.296925" lon="2.01138167">
        <ele>8.0</ele>
        <time>2019-12-21T14:08:49.416Z</time>
      </trkpt>
      <trkpt lat="41.29705" lon="2.01127">
        <ele>8.0</ele>
        <time>2019-12-21T14:08:50.429Z</time>
      </trkpt>
      <trkpt lat="41.29705" lon="2.01127">
        <ele>8.0</ele>
        <time>2019-12-21T14:08:51.413Z</time>
      </trkpt>
      <trkpt lat="41.29711667" lon="2.01119833">
        <ele>9.0</ele>
        <time>2019-12-21T14:08:52.433Z</time>
      </trkpt>
      <trkpt lat="41.29711667" lon="2.01119833">
        <ele>9.0</ele>
        <time>2019-12-21T14:08:53.421Z</time>
      </trkpt>
      <trkpt lat="41.29711667" lon="2.01119833">
        <ele>9.0</ele>
        <time>2019-12-21T14:08:54.416Z</time>
      </trkpt>
      <trkpt lat="41.29718333" lon="2.01118333">
        <ele>10.0</ele>
        <time>2019-12-21T14:08:55.429Z</time>
      </trkpt>
      <trkpt lat="41.29718333" lon="2.01118333">
        <ele>10.0</ele>
        <time>2019-12-21T14:08:56.419Z</time>
      </trkpt>
      <trkpt lat="41.297225" lon="2.01122167">
        <ele>11.0</ele>
        <time>2019-12-21T14:08:57.432Z</time>
      </trkpt>
      <trkpt lat="41.297225" lon="2.01122167">
        <ele>11.0</ele>
        <time>2019-12-21T14:08:58.416Z</time>
      </trkpt>
      <trkpt lat="41.297245" lon="2.01126833">
        <ele>12.0</ele>
        <time>2019-12-21T14:08:59.435Z</time>
      </trkpt>
      <trkpt lat="41.297245" lon="2.01126833">
        <ele>12.0</ele>
        <time>2019-12-21T14:09:00.418Z</time>
      </trkpt>
      <trkpt lat="41.29725167" lon="2.01128333">
        <ele>12.0</ele>
        <time>2019-12-21T14:09:01.423Z</time>
      </trkpt>
      <trkpt lat="41.29725167" lon="2.01128333">
        <ele>12.0</ele>
        <time>2019-12-21T14:09:02.415Z</time>
      </trkpt>
      <trkpt lat="41.29725167" lon="2.01128333">
        <ele>12.0</ele>
        <time>2019-12-21T14:09:03.416Z</time>
      </trkpt>
      <trkpt lat="41.29728" lon="2.01128333">
        <ele>10.0</ele>
        <time>2019-12-21T14:09:04.423Z</time>
      </trkpt>
      <trkpt lat="41.29728" lon="2.01128333">
        <ele>10.0</ele>
        <time>2019-12-21T14:09:05.416Z</time>
      </trkpt>
      <trkpt lat="41.297315" lon="2.01123167">
        <ele>9.0</ele>
        <time>2019-12-21T14:09:06.418Z</time>
      </trkpt>
      <trkpt lat="41.297315" lon="2.01123167">
        <ele>9.0</ele>
        <time>2019-12-21T14:09:07.419Z</time>
      </trkpt>
      <trkpt lat="41.29733833" lon="2.011145">
        <ele>9.0</ele>
        <time>2019-12-21T14:09:08.429Z</time>
      </trkpt>
      <trkpt lat="41.29733833" lon="2.011145">
        <ele>9.0</ele>
        <time>2019-12-21T14:09:09.417Z</time>
      </trkpt>
      <trkpt lat="41.29735" lon="2.01104833">
        <ele>9.0</ele>
        <time>2019-12-21T14:09:10.429Z</time>
      </trkpt>
      <trkpt lat="41.29735" lon="2.01104833">
        <ele>9.0</ele>
        <time>2019-12-21T14:09:11.416Z</time>
      </trkpt>
      <trkpt lat="41.29737667" lon="2.01096333">
        <ele>9.0</ele>
        <time>2019-12-21T14:09:12.421Z</time>
      </trkpt>
      <trkpt lat="41.29737667" lon="2.01096333">
        <ele>9.0</ele>
        <time>2019-12-21T14:09:13.416Z</time>
      </trkpt>
      <trkpt lat="41.29743833" lon="2.01089167">
        <ele>8.0</ele>
        <time>2019-12-21T14:09:14.421Z</time>
      </trkpt>
      <trkpt lat="41.29743833" lon="2.01089167">
        <ele>8.0</ele>
        <time>2019-12-21T14:09:15.416Z</time>
      </trkpt>
      <trkpt lat="41.29751" lon="2.01082667">
        <ele>7.0</ele>
        <time>2019-12-21T14:09:16.423Z</time>
      </trkpt>
      <trkpt lat="41.29751" lon="2.01082667">
        <ele>7.0</ele>
        <time>2019-12-21T14:09:17.416Z</time>
      </trkpt>
      <trkpt lat="41.29759833" lon="2.01073667">
        <ele>7.0</ele>
        <time>2019-12-21T14:09:18.424Z</time>
      </trkpt>
      <trkpt lat="41.29764167" lon="2.01070167">
        <ele>7.0</ele>
        <time>2019-12-21T14:09:19.421Z</time>
      </trkpt>
      <trkpt lat="41.29764167" lon="2.01070167">
        <ele>7.0</ele>
        <time>2019-12-21T14:09:20.416Z</time>
      </trkpt>
      <trkpt lat="41.29772667" lon="2.01063333">
        <ele>6.0</ele>
        <time>2019-12-21T14:09:21.422Z</time>
      </trkpt>
      <trkpt lat="41.29776833" lon="2.0106">
        <ele>6.0</ele>
        <time>2019-12-21T14:09:22.423Z</time>
      </trkpt>
      <trkpt lat="41.29776833" lon="2.0106">
        <ele>6.0</ele>
        <time>2019-12-21T14:09:23.417Z</time>
      </trkpt>
      <trkpt lat="41.29785333" lon="2.010535">
        <ele>6.0</ele>
        <time>2019-12-21T14:09:24.421Z</time>
      </trkpt>
      <trkpt lat="41.29785333" lon="2.010535">
        <ele>6.0</ele>
        <time>2019-12-21T14:09:25.416Z</time>
      </trkpt>
      <trkpt lat="41.29793667" lon="2.01045333">
        <ele>6.0</ele>
        <time>2019-12-21T14:09:26.421Z</time>
      </trkpt>
      <trkpt lat="41.29793667" lon="2.01045333">
        <ele>6.0</ele>
        <time>2019-12-21T14:09:27.416Z</time>
      </trkpt>
      <trkpt lat="41.29802167" lon="2.01038333">
        <ele>6.0</ele>
        <time>2019-12-21T14:09:28.423Z</time>
      </trkpt>
      <trkpt lat="41.29802167" lon="2.01038333">
        <ele>6.0</ele>
        <time>2019-12-21T14:09:29.421Z</time>
      </trkpt>
      <trkpt lat="41.29811167" lon="2.01035333">
        <ele>6.0</ele>
        <time>2019-12-21T14:09:30.421Z</time>
      </trkpt>
      <trkpt lat="41.29811167" lon="2.01035333">
        <ele>6.0</ele>
        <time>2019-12-21T14:09:31.416Z</time>
      </trkpt>
      <trkpt lat="41.29821167" lon="2.010365">
        <ele>5.0</ele>
        <time>2019-12-21T14:09:32.422Z</time>
      </trkpt>
      <trkpt lat="41.29821167" lon="2.010365">
        <ele>5.0</ele>
        <time>2019-12-21T14:09:33.416Z</time>
      </trkpt>
      <trkpt lat="41.29829833" lon="2.01043167">
        <ele>5.0</ele>
        <time>2019-12-21T14:09:34.399Z</time>
      </trkpt>
      <trkpt lat="41.29833667" lon="2.010475">
        <ele>5.0</ele>
        <time>2019-12-21T14:09:35.422Z</time>
      </trkpt>
      <trkpt lat="41.29833667" lon="2.010475">
        <ele>5.0</ele>
        <time>2019-12-21T14:09:36.437Z</time>
      </trkpt>
      <trkpt lat="41.29842167" lon="2.010495">
        <ele>4.0</ele>
        <time>2019-12-21T14:09:37.421Z</time>
      </trkpt>
      <trkpt lat="41.29842167" lon="2.010495">
        <ele>4.0</ele>
        <time>2019-12-21T14:09:38.416Z</time>
      </trkpt>
      <trkpt lat="41.29848333" lon="2.01040667">
        <ele>3.0</ele>
        <time>2019-12-21T14:09:39.421Z</time>
      </trkpt>
      <trkpt lat="41.29850333" lon="2.01035167">
        <ele>3.0</ele>
        <time>2019-12-21T14:09:40.419Z</time>
      </trkpt>
      <trkpt lat="41.29850333" lon="2.01035167">
        <ele>3.0</ele>
        <time>2019-12-21T14:09:41.419Z</time>
      </trkpt>
      <trkpt lat="41.29849833" lon="2.01024">
        <ele>4.0</ele>
        <time>2019-12-21T14:09:42.421Z</time>
      </trkpt>
      <trkpt lat="41.29849833" lon="2.01024">
        <ele>4.0</ele>
        <time>2019-12-21T14:09:43.416Z</time>
      </trkpt>
      <trkpt lat="41.29848833" lon="2.010115">
        <ele>4.0</ele>
        <time>2019-12-21T14:09:44.421Z</time>
      </trkpt>
      <trkpt lat="41.29848833" lon="2.010115">
        <ele>4.0</ele>
        <time>2019-12-21T14:09:45.416Z</time>
      </trkpt>
      <trkpt lat="41.29853" lon="2.010005">
        <ele>4.0</ele>
        <time>2019-12-21T14:09:46.423Z</time>
      </trkpt>
      <trkpt lat="41.29853" lon="2.010005">
        <ele>4.0</ele>
        <time>2019-12-21T14:09:47.416Z</time>
      </trkpt>
      <trkpt lat="41.29860333" lon="2.00992">
        <ele>5.0</ele>
        <time>2019-12-21T14:09:48.421Z</time>
      </trkpt>
      <trkpt lat="41.298645" lon="2.00988333">
        <ele>5.0</ele>
        <time>2019-12-21T14:09:49.422Z</time>
      </trkpt>
      <trkpt lat="41.298645" lon="2.00988333">
        <ele>5.0</ele>
        <time>2019-12-21T14:09:50.415Z</time>
      </trkpt>
      <trkpt lat="41.29873" lon="2.009815">
        <ele>6.0</ele>
        <time>2019-12-21T14:09:51.421Z</time>
      </trkpt>
      <trkpt lat="41.29877333" lon="2.00978">
        <ele>6.0</ele>
        <time>2019-12-21T14:09:52.424Z</time>
      </trkpt>
      <trkpt lat="41.29877333" lon="2.00978">
        <ele>6.0</ele>
        <time>2019-12-21T14:09:53.416Z</time>
      </trkpt>
      <trkpt lat="41.29886167" lon="2.00971">
        <ele>6.0</ele>
        <time>2019-12-21T14:09:54.421Z</time>
      </trkpt>
      <trkpt lat="41.29886167" lon="2.00971">
        <ele>6.0</ele>
        <time>2019-12-21T14:09:55.416Z</time>
      </trkpt>
      <trkpt lat="41.29895167" lon="2.00963333">
        <ele>6.0</ele>
        <time>2019-12-21T14:09:56.421Z</time>
      </trkpt>
      <trkpt lat="41.29895167" lon="2.00963333">
        <ele>6.0</ele>
        <time>2019-12-21T14:09:57.417Z</time>
      </trkpt>
      <trkpt lat="41.29904167" lon="2.00955333">
        <ele>7.0</ele>
        <time>2019-12-21T14:09:58.424Z</time>
      </trkpt>
      <trkpt lat="41.29904167" lon="2.00955333">
        <ele>7.0</ele>
        <time>2019-12-21T14:09:59.416Z</time>
      </trkpt>
      <trkpt lat="41.29913167" lon="2.00947">
        <ele>8.0</ele>
        <time>2019-12-21T14:10:00.421Z</time>
      </trkpt>
      <trkpt lat="41.29913167" lon="2.00947">
        <ele>8.0</ele>
        <time>2019-12-21T14:10:01.416Z</time>
      </trkpt>
      <trkpt lat="41.29922167" lon="2.00939333">
        <ele>9.0</ele>
        <time>2019-12-21T14:10:02.432Z</time>
      </trkpt>
      <trkpt lat="41.29922167" lon="2.00939333">
        <ele>9.0</ele>
        <time>2019-12-21T14:10:03.416Z</time>
      </trkpt>
      <trkpt lat="41.29930833" lon="2.00932167">
        <ele>9.0</ele>
        <time>2019-12-21T14:10:04.399Z</time>
      </trkpt>
      <trkpt lat="41.29930833" lon="2.00932167">
        <ele>9.0</ele>
        <time>2019-12-21T14:10:05.422Z</time>
      </trkpt>
      <trkpt lat="41.299395" lon="2.00924667">
        <ele>9.0</ele>
        <time>2019-12-21T14:10:06.422Z</time>
      </trkpt>
      <trkpt lat="41.29943833" lon="2.00921">
        <ele>9.0</ele>
        <time>2019-12-21T14:10:07.422Z</time>
      </trkpt>
      <trkpt lat="41.29943833" lon="2.00921">
        <ele>9.0</ele>
        <time>2019-12-21T14:10:08.416Z</time>
      </trkpt>
      <trkpt lat="41.299525" lon="2.00914167">
        <ele>10.0</ele>
        <time>2019-12-21T14:10:09.431Z</time>
      </trkpt>
      <trkpt lat="41.29956667" lon="2.009105">
        <ele>11.0</ele>
        <time>2019-12-21T14:10:10.429Z</time>
      </trkpt>
      <trkpt lat="41.29956667" lon="2.009105">
        <ele>11.0</ele>
        <time>2019-12-21T14:10:11.416Z</time>
      </trkpt>
      <trkpt lat="41.299655" lon="2.009025">
        <ele>11.0</ele>
        <time>2019-12-21T14:10:12.421Z</time>
      </trkpt>
      <trkpt lat="41.299655" lon="2.009025">
        <ele>11.0</ele>
        <time>2019-12-21T14:10:13.416Z</time>
      </trkpt>
      <trkpt lat="41.299745" lon="2.00895333">
        <ele>12.0</ele>
        <time>2019-12-21T14:10:14.405Z</time>
      </trkpt>
      <trkpt lat="41.299745" lon="2.00895333">
        <ele>12.0</ele>
        <time>2019-12-21T14:10:15.428Z</time>
      </trkpt>
      <trkpt lat="41.29983333" lon="2.00887833">
        <ele>12.0</ele>
        <time>2019-12-21T14:10:16.425Z</time>
      </trkpt>
      <trkpt lat="41.29983333" lon="2.00887833">
        <ele>12.0</ele>
        <time>2019-12-21T14:10:17.416Z</time>
      </trkpt>
      <trkpt lat="41.29992167" lon="2.00880333">
        <ele>13.0</ele>
        <time>2019-12-21T14:10:18.423Z</time>
      </trkpt>
      <trkpt lat="41.29992167" lon="2.00880333">
        <ele>13.0</ele>
        <time>2019-12-21T14:10:19.424Z</time>
      </trkpt>
      <trkpt lat="41.30001333" lon="2.00872833">
        <ele>13.0</ele>
        <time>2019-12-21T14:10:20.421Z</time>
      </trkpt>
      <trkpt lat="41.30001333" lon="2.00872833">
        <ele>13.0</ele>
        <time>2019-12-21T14:10:21.398Z</time>
      </trkpt>
      <trkpt lat="41.300105" lon="2.00865667">
        <ele>13.0</ele>
        <time>2019-12-21T14:10:22.422Z</time>
      </trkpt>
      <trkpt lat="41.30015" lon="2.00862167">
        <ele>14.0</ele>
        <time>2019-12-21T14:10:23.421Z</time>
      </trkpt>
      <trkpt lat="41.30015" lon="2.00862167">
        <ele>14.0</ele>
        <time>2019-12-21T14:10:24.416Z</time>
      </trkpt>
      <trkpt lat="41.30023833" lon="2.00854167">
        <ele>14.0</ele>
        <time>2019-12-21T14:10:25.421Z</time>
      </trkpt>
      <trkpt lat="41.30023833" lon="2.00854167">
        <ele>14.0</ele>
        <time>2019-12-21T14:10:26.416Z</time>
      </trkpt>
      <trkpt lat="41.300325" lon="2.00846">
        <ele>14.0</ele>
        <time>2019-12-21T14:10:27.402Z</time>
      </trkpt>
      <trkpt lat="41.300375" lon="2.00841167">
        <ele>14.0</ele>
        <time>2019-12-21T14:10:28.425Z</time>
      </trkpt>
      <trkpt lat="41.300375" lon="2.00841167">
        <ele>14.0</ele>
        <time>2019-12-21T14:10:29.419Z</time>
      </trkpt>
      <trkpt lat="41.300475" lon="2.00832333">
        <ele>13.0</ele>
        <time>2019-12-21T14:10:30.422Z</time>
      </trkpt>
      <trkpt lat="41.300475" lon="2.00832333">
        <ele>13.0</ele>
        <time>2019-12-21T14:10:31.401Z</time>
      </trkpt>
      <trkpt lat="41.30056667" lon="2.008255">
        <ele>13.0</ele>
        <time>2019-12-21T14:10:32.423Z</time>
      </trkpt>
      <trkpt lat="41.30061167" lon="2.00821667">
        <ele>13.0</ele>
        <time>2019-12-21T14:10:33.418Z</time>
      </trkpt>
      <trkpt lat="41.30061167" lon="2.00821667">
        <ele>13.0</ele>
        <time>2019-12-21T14:10:34.418Z</time>
      </trkpt>
      <trkpt lat="41.300705" lon="2.00814">
        <ele>14.0</ele>
        <time>2019-12-21T14:10:35.422Z</time>
      </trkpt>
      <trkpt lat="41.30074833" lon="2.0081">
        <ele>14.0</ele>
        <time>2019-12-21T14:10:36.423Z</time>
      </trkpt>
      <trkpt lat="41.30074833" lon="2.0081">
        <ele>14.0</ele>
        <time>2019-12-21T14:10:37.416Z</time>
      </trkpt>
      <trkpt lat="41.30083667" lon="2.008025">
        <ele>14.0</ele>
        <time>2019-12-21T14:10:38.433Z</time>
      </trkpt>
      <trkpt lat="41.30083667" lon="2.008025">
        <ele>14.0</ele>
        <time>2019-12-21T14:10:39.424Z</time>
      </trkpt>
      <trkpt lat="41.30092667" lon="2.00795167">
        <ele>14.0</ele>
        <time>2019-12-21T14:10:40.429Z</time>
      </trkpt>
      <trkpt lat="41.30092667" lon="2.00795167">
        <ele>14.0</ele>
        <time>2019-12-21T14:10:41.430Z</time>
      </trkpt>
      <trkpt lat="41.30102167" lon="2.00788333">
        <ele>15.0</ele>
        <time>2019-12-21T14:10:42.419Z</time>
      </trkpt>
      <trkpt lat="41.30102167" lon="2.00788333">
        <ele>15.0</ele>
        <time>2019-12-21T14:10:43.419Z</time>
      </trkpt>
      <trkpt lat="41.30112" lon="2.00781167">
        <ele>16.0</ele>
        <time>2019-12-21T14:10:44.421Z</time>
      </trkpt>
      <trkpt lat="41.301165" lon="2.00778167">
        <ele>16.0</ele>
        <time>2019-12-21T14:10:45.421Z</time>
      </trkpt>
      <trkpt lat="41.301205" lon="2.00776167">
        <ele>17.0</ele>
        <time>2019-12-21T14:10:46.424Z</time>
      </trkpt>
      <trkpt lat="41.301205" lon="2.00776167">
        <ele>17.0</ele>
        <time>2019-12-21T14:10:47.416Z</time>
      </trkpt>
      <trkpt lat="41.30125667" lon="2.00770167">
        <ele>17.0</ele>
        <time>2019-12-21T14:10:48.421Z</time>
      </trkpt>
      <trkpt lat="41.30125667" lon="2.00770167">
        <ele>17.0</ele>
        <time>2019-12-21T14:10:49.421Z</time>
      </trkpt>
      <trkpt lat="41.30128" lon="2.007635">
        <ele>17.0</ele>
        <time>2019-12-21T14:10:50.428Z</time>
      </trkpt>
      <trkpt lat="41.30128" lon="2.007635">
        <ele>17.0</ele>
        <time>2019-12-21T14:10:51.397Z</time>
      </trkpt>
      <trkpt lat="41.30131833" lon="2.0076">
        <ele>18.0</ele>
        <time>2019-12-21T14:10:52.425Z</time>
      </trkpt>
      <trkpt lat="41.30131833" lon="2.0076">
        <ele>18.0</ele>
        <time>2019-12-21T14:10:53.416Z</time>
      </trkpt>
      <trkpt lat="41.30137" lon="2.00754667">
        <ele>18.0</ele>
        <time>2019-12-21T14:10:54.419Z</time>
      </trkpt>
      <trkpt lat="41.30140667" lon="2.00753">
        <ele>18.0</ele>
        <time>2019-12-21T14:10:55.425Z</time>
      </trkpt>
      <trkpt lat="41.30140667" lon="2.00753">
        <ele>18.0</ele>
        <time>2019-12-21T14:10:56.416Z</time>
      </trkpt>
      <trkpt lat="41.30145" lon="2.00758167">
        <ele>19.0</ele>
        <time>2019-12-21T14:10:57.421Z</time>
      </trkpt>
      <trkpt lat="41.30146667" lon="2.00758833">
        <ele>20.0</ele>
        <time>2019-12-21T14:10:58.425Z</time>
      </trkpt>
      <trkpt lat="41.30146667" lon="2.00758833">
        <ele>20.0</ele>
        <time>2019-12-21T14:10:59.419Z</time>
      </trkpt>
      <trkpt lat="41.301495" lon="2.007525">
        <ele>20.0</ele>
        <time>2019-12-21T14:11:00.421Z</time>
      </trkpt>
      <trkpt lat="41.301495" lon="2.007525">
        <ele>20.0</ele>
        <time>2019-12-21T14:11:01.419Z</time>
      </trkpt>
      <trkpt lat="41.30150833" lon="2.00748833">
        <ele>21.0</ele>
        <time>2019-12-21T14:11:02.422Z</time>
      </trkpt>
      <trkpt lat="41.30150833" lon="2.00748833">
        <ele>21.0</ele>
        <time>2019-12-21T14:11:03.416Z</time>
      </trkpt>
      <trkpt lat="41.30157833" lon="2.00743667">
        <ele>21.0</ele>
        <time>2019-12-21T14:11:04.399Z</time>
      </trkpt>
      <trkpt lat="41.30157833" lon="2.00743667">
        <ele>21.0</ele>
        <time>2019-12-21T14:11:05.436Z</time>
      </trkpt>
      <trkpt lat="41.30165167" lon="2.00738">
        <ele>21.0</ele>
        <time>2019-12-21T14:11:06.422Z</time>
      </trkpt>
      <trkpt lat="41.30165167" lon="2.00738">
        <ele>21.0</ele>
        <time>2019-12-21T14:11:07.417Z</time>
      </trkpt>
      <trkpt lat="41.30172167" lon="2.007335">
        <ele>21.0</ele>
        <time>2019-12-21T14:11:08.423Z</time>
      </trkpt>
      <trkpt lat="41.30172167" lon="2.007335">
        <ele>21.0</ele>
        <time>2019-12-21T14:11:09.403Z</time>
      </trkpt>
      <trkpt lat="41.30179" lon="2.00727">
        <ele>21.0</ele>
        <time>2019-12-21T14:11:10.435Z</time>
      </trkpt>
      <trkpt lat="41.30179" lon="2.00727">
        <ele>21.0</ele>
        <time>2019-12-21T14:11:11.419Z</time>
      </trkpt>
      <trkpt lat="41.301865" lon="2.00722167">
        <ele>21.0</ele>
        <time>2019-12-21T14:11:12.422Z</time>
      </trkpt>
      <trkpt lat="41.301865" lon="2.00722167">
        <ele>21.0</ele>
        <time>2019-12-21T14:11:13.416Z</time>
      </trkpt>
      <trkpt lat="41.30194167" lon="2.00718167">
        <ele>22.0</ele>
        <time>2019-12-21T14:11:14.422Z</time>
      </trkpt>
      <trkpt lat="41.30194167" lon="2.00718167">
        <ele>22.0</ele>
        <time>2019-12-21T14:11:15.417Z</time>
      </trkpt>
      <trkpt lat="41.30201167" lon="2.00716667">
        <ele>22.0</ele>
        <time>2019-12-21T14:11:16.424Z</time>
      </trkpt>
      <trkpt lat="41.30203667" lon="2.00717333">
        <ele>22.0</ele>
        <time>2019-12-21T14:11:17.424Z</time>
      </trkpt>
      <trkpt lat="41.30203667" lon="2.00717333">
        <ele>22.0</ele>
        <time>2019-12-21T14:11:18.417Z</time>
      </trkpt>
      <trkpt lat="41.30208167" lon="2.007175">
        <ele>22.0</ele>
        <time>2019-12-21T14:11:19.428Z</time>
      </trkpt>
      <trkpt lat="41.30209333" lon="2.007165">
        <ele>23.0</ele>
        <time>2019-12-21T14:11:20.421Z</time>
      </trkpt>
      <trkpt lat="41.30209333" lon="2.007165">
        <ele>23.0</ele>
        <time>2019-12-21T14:11:21.398Z</time>
      </trkpt>
      <trkpt lat="41.30212167" lon="2.00712333">
        <ele>23.0</ele>
        <time>2019-12-21T14:11:22.436Z</time>
      </trkpt>
      <trkpt lat="41.30211" lon="2.00702333">
        <ele>25.0</ele>
        <time>2019-12-21T14:11:23.423Z</time>
      </trkpt>
      <trkpt lat="41.30211" lon="2.00702333">
        <ele>25.0</ele>
        <time>2019-12-21T14:11:24.419Z</time>
      </trkpt>
      <trkpt lat="41.30209" lon="2.00693333">
        <ele>26.0</ele>
        <time>2019-12-21T14:11:25.421Z</time>
      </trkpt>
      <trkpt lat="41.30209" lon="2.00693333">
        <ele>26.0</ele>
        <time>2019-12-21T14:11:26.415Z</time>
      </trkpt>
      <trkpt lat="41.302095" lon="2.006865">
        <ele>27.0</ele>
        <time>2019-12-21T14:11:27.398Z</time>
      </trkpt>
      <trkpt lat="41.30212" lon="2.00682667">
        <ele>27.0</ele>
        <time>2019-12-21T14:11:28.423Z</time>
      </trkpt>
      <trkpt lat="41.30212" lon="2.00682667">
        <ele>27.0</ele>
        <time>2019-12-21T14:11:29.416Z</time>
      </trkpt>
      <trkpt lat="41.30219667" lon="2.006745">
        <ele>28.0</ele>
        <time>2019-12-21T14:11:30.429Z</time>
      </trkpt>
      <trkpt lat="41.30219667" lon="2.006745">
        <ele>28.0</ele>
        <time>2019-12-21T14:11:31.416Z</time>
      </trkpt>
      <trkpt lat="41.30228333" lon="2.00666333">
        <ele>28.0</ele>
        <time>2019-12-21T14:11:32.422Z</time>
      </trkpt>
      <trkpt lat="41.30228333" lon="2.00666333">
        <ele>28.0</ele>
        <time>2019-12-21T14:11:33.416Z</time>
      </trkpt>
      <trkpt lat="41.302345" lon="2.00657">
        <ele>29.0</ele>
        <time>2019-12-21T14:11:34.424Z</time>
      </trkpt>
      <trkpt lat="41.302345" lon="2.00657">
        <ele>29.0</ele>
        <time>2019-12-21T14:11:35.417Z</time>
      </trkpt>
      <trkpt lat="41.30245333" lon="2.00644667">
        <ele>30.0</ele>
        <time>2019-12-21T14:11:36.421Z</time>
      </trkpt>
      <trkpt lat="41.30245333" lon="2.00644667">
        <ele>30.0</ele>
        <time>2019-12-21T14:11:37.417Z</time>
      </trkpt>
      <trkpt lat="41.30252333" lon="2.00633667">
        <ele>31.0</ele>
        <time>2019-12-21T14:11:38.423Z</time>
      </trkpt>
      <trkpt lat="41.30252333" lon="2.00633667">
        <ele>31.0</ele>
        <time>2019-12-21T14:11:39.416Z</time>
      </trkpt>
      <trkpt lat="41.30259" lon="2.00625833">
        <ele>31.0</ele>
        <time>2019-12-21T14:11:40.429Z</time>
      </trkpt>
      <trkpt lat="41.30259" lon="2.00625833">
        <ele>31.0</ele>
        <time>2019-12-21T14:11:41.418Z</time>
      </trkpt>
      <trkpt lat="41.30265" lon="2.00617">
        <ele>32.0</ele>
        <time>2019-12-21T14:11:42.423Z</time>
      </trkpt>
      <trkpt lat="41.30265" lon="2.00617">
        <ele>32.0</ele>
        <time>2019-12-21T14:11:43.417Z</time>
      </trkpt>
      <trkpt lat="41.30272" lon="2.00607833">
        <ele>33.0</ele>
        <time>2019-12-21T14:11:44.422Z</time>
      </trkpt>
      <trkpt lat="41.30272" lon="2.00607833">
        <ele>33.0</ele>
        <time>2019-12-21T14:11:45.417Z</time>
      </trkpt>
      <trkpt lat="41.30276667" lon="2.00598833">
        <ele>33.0</ele>
        <time>2019-12-21T14:11:46.400Z</time>
      </trkpt>
      <trkpt lat="41.30276667" lon="2.00598833">
        <ele>33.0</ele>
        <time>2019-12-21T14:11:47.424Z</time>
      </trkpt>
      <trkpt lat="41.30282667" lon="2.00590833">
        <ele>34.0</ele>
        <time>2019-12-21T14:11:48.423Z</time>
      </trkpt>
      <trkpt lat="41.30282667" lon="2.00590833">
        <ele>34.0</ele>
        <time>2019-12-21T14:11:49.417Z</time>
      </trkpt>
      <trkpt lat="41.30288667" lon="2.00581667">
        <ele>35.0</ele>
        <time>2019-12-21T14:11:50.422Z</time>
      </trkpt>
      <trkpt lat="41.30288667" lon="2.00581667">
        <ele>35.0</ele>
        <time>2019-12-21T14:11:51.417Z</time>
      </trkpt>
      <trkpt lat="41.30293667" lon="2.00573">
        <ele>36.0</ele>
        <time>2019-12-21T14:11:52.424Z</time>
      </trkpt>
      <trkpt lat="41.30293667" lon="2.00573">
        <ele>36.0</ele>
        <time>2019-12-21T14:11:53.417Z</time>
      </trkpt>
      <trkpt lat="41.30300667" lon="2.00565167">
        <ele>36.0</ele>
        <time>2019-12-21T14:11:54.421Z</time>
      </trkpt>
      <trkpt lat="41.30300667" lon="2.00565167">
        <ele>36.0</ele>
        <time>2019-12-21T14:11:55.417Z</time>
      </trkpt>
      <trkpt lat="41.30306667" lon="2.00557">
        <ele>37.0</ele>
        <time>2019-12-21T14:11:56.424Z</time>
      </trkpt>
      <trkpt lat="41.30306667" lon="2.00557">
        <ele>37.0</ele>
        <time>2019-12-21T14:11:57.416Z</time>
      </trkpt>
      <trkpt lat="41.303125" lon="2.00547667">
        <ele>38.0</ele>
        <time>2019-12-21T14:11:58.420Z</time>
      </trkpt>
      <trkpt lat="41.30315333" lon="2.00542667">
        <ele>38.0</ele>
        <time>2019-12-21T14:11:59.422Z</time>
      </trkpt>
      <trkpt lat="41.30315333" lon="2.00542667">
        <ele>38.0</ele>
        <time>2019-12-21T14:12:00.414Z</time>
      </trkpt>
      <trkpt lat="41.30319667" lon="2.00535333">
        <ele>38.0</ele>
        <time>2019-12-21T14:12:01.434Z</time>
      </trkpt>
      <trkpt lat="41.30319667" lon="2.00535333">
        <ele>38.0</ele>
        <time>2019-12-21T14:12:02.416Z</time>
      </trkpt>
      <trkpt lat="41.30323333" lon="2.00528">
        <ele>39.0</ele>
        <time>2019-12-21T14:12:03.421Z</time>
      </trkpt>
      <trkpt lat="41.30326333" lon="2.00524833">
        <ele>39.0</ele>
        <time>2019-12-21T14:12:04.429Z</time>
      </trkpt>
      <trkpt lat="41.30326333" lon="2.00524833">
        <ele>39.0</ele>
        <time>2019-12-21T14:12:05.417Z</time>
      </trkpt>
      <trkpt lat="41.30334" lon="2.005175">
        <ele>39.0</ele>
        <time>2019-12-21T14:12:06.422Z</time>
      </trkpt>
      <trkpt lat="41.30334" lon="2.005175">
        <ele>39.0</ele>
        <time>2019-12-21T14:12:07.417Z</time>
      </trkpt>
      <trkpt lat="41.30342167" lon="2.00508167">
        <ele>40.0</ele>
        <time>2019-12-21T14:12:08.422Z</time>
      </trkpt>
      <trkpt lat="41.30345167" lon="2.00503667">
        <ele>40.0</ele>
        <time>2019-12-21T14:12:09.429Z</time>
      </trkpt>
      <trkpt lat="41.30345167" lon="2.00503667">
        <ele>40.0</ele>
        <time>2019-12-21T14:12:10.431Z</time>
      </trkpt>
      <trkpt lat="41.30350833" lon="2.00494">
        <ele>40.0</ele>
        <time>2019-12-21T14:12:11.423Z</time>
      </trkpt>
      <trkpt lat="41.30350833" lon="2.00494">
        <ele>40.0</ele>
        <time>2019-12-21T14:12:12.418Z</time>
      </trkpt>
      <trkpt lat="41.30358167" lon="2.00483167">
        <ele>40.0</ele>
        <time>2019-12-21T14:12:13.422Z</time>
      </trkpt>
      <trkpt lat="41.30358167" lon="2.00483167">
        <ele>40.0</ele>
        <time>2019-12-21T14:12:14.417Z</time>
      </trkpt>
      <trkpt lat="41.303605" lon="2.004715">
        <ele>40.0</ele>
        <time>2019-12-21T14:12:15.423Z</time>
      </trkpt>
      <trkpt lat="41.30361" lon="2.004645">
        <ele>39.0</ele>
        <time>2019-12-21T14:12:16.430Z</time>
      </trkpt>
      <trkpt lat="41.30361" lon="2.004645">
        <ele>39.0</ele>
        <time>2019-12-21T14:12:17.417Z</time>
      </trkpt>
      <trkpt lat="41.30359167" lon="2.004495">
        <ele>38.0</ele>
        <time>2019-12-21T14:12:18.423Z</time>
      </trkpt>
      <trkpt lat="41.30359167" lon="2.004495">
        <ele>38.0</ele>
        <time>2019-12-21T14:12:19.413Z</time>
      </trkpt>
      <trkpt lat="41.303565" lon="2.00439">
        <ele>38.0</ele>
        <time>2019-12-21T14:12:20.402Z</time>
      </trkpt>
      <trkpt lat="41.303565" lon="2.00439">
        <ele>38.0</ele>
        <time>2019-12-21T14:12:21.434Z</time>
      </trkpt>
      <trkpt lat="41.303555" lon="2.00427333">
        <ele>37.0</ele>
        <time>2019-12-21T14:12:22.424Z</time>
      </trkpt>
      <trkpt lat="41.303555" lon="2.00427333">
        <ele>37.0</ele>
        <time>2019-12-21T14:12:23.417Z</time>
      </trkpt>
      <trkpt lat="41.30355333" lon="2.00416">
        <ele>37.0</ele>
        <time>2019-12-21T14:12:24.423Z</time>
      </trkpt>
      <trkpt lat="41.30355833" lon="2.00410167">
        <ele>37.0</ele>
        <time>2019-12-21T14:12:25.421Z</time>
      </trkpt>
      <trkpt lat="41.30355833" lon="2.00410167">
        <ele>37.0</ele>
        <time>2019-12-21T14:12:26.417Z</time>
      </trkpt>
      <trkpt lat="41.30353167" lon="2.003995">
        <ele>38.0</ele>
        <time>2019-12-21T14:12:27.423Z</time>
      </trkpt>
      <trkpt lat="41.30349167" lon="2.00393333">
        <ele>37.0</ele>
        <time>2019-12-21T14:12:28.422Z</time>
      </trkpt>
      <trkpt lat="41.30349167" lon="2.00393333">
        <ele>37.0</ele>
        <time>2019-12-21T14:12:29.417Z</time>
      </trkpt>
      <trkpt lat="41.30341667" lon="2.00382333">
        <ele>38.0</ele>
        <time>2019-12-21T14:12:30.422Z</time>
      </trkpt>
      <trkpt lat="41.30338" lon="2.00377167">
        <ele>38.0</ele>
        <time>2019-12-21T14:12:31.423Z</time>
      </trkpt>
      <trkpt lat="41.30338" lon="2.00377167">
        <ele>38.0</ele>
        <time>2019-12-21T14:12:32.418Z</time>
      </trkpt>
      <trkpt lat="41.30327833" lon="2.00367333">
        <ele>37.0</ele>
        <time>2019-12-21T14:12:33.421Z</time>
      </trkpt>
      <trkpt lat="41.30324167" lon="2.00362833">
        <ele>36.0</ele>
        <time>2019-12-21T14:12:34.424Z</time>
      </trkpt>
      <trkpt lat="41.30324167" lon="2.00362833">
        <ele>36.0</ele>
        <time>2019-12-21T14:12:35.417Z</time>
      </trkpt>
      <trkpt lat="41.30320333" lon="2.00350167">
        <ele>35.0</ele>
        <time>2019-12-21T14:12:36.423Z</time>
      </trkpt>
      <trkpt lat="41.30320333" lon="2.00350167">
        <ele>35.0</ele>
        <time>2019-12-21T14:12:37.417Z</time>
      </trkpt>
      <trkpt lat="41.30316833" lon="2.00337167">
        <ele>34.0</ele>
        <time>2019-12-21T14:12:38.424Z</time>
      </trkpt>
      <trkpt lat="41.30316833" lon="2.00337167">
        <ele>34.0</ele>
        <time>2019-12-21T14:12:39.417Z</time>
      </trkpt>
      <trkpt lat="41.30314333" lon="2.00324833">
        <ele>32.0</ele>
        <time>2019-12-21T14:12:40.412Z</time>
      </trkpt>
      <trkpt lat="41.30314333" lon="2.00324833">
        <ele>32.0</ele>
        <time>2019-12-21T14:12:41.421Z</time>
      </trkpt>
      <trkpt lat="41.30311333" lon="2.00313167">
        <ele>31.0</ele>
        <time>2019-12-21T14:12:42.434Z</time>
      </trkpt>
      <trkpt lat="41.30311333" lon="2.00313167">
        <ele>31.0</ele>
        <time>2019-12-21T14:12:43.416Z</time>
      </trkpt>
      <trkpt lat="41.30308" lon="2.003025">
        <ele>30.0</ele>
        <time>2019-12-21T14:12:44.403Z</time>
      </trkpt>
      <trkpt lat="41.30308" lon="2.003025">
        <ele>30.0</ele>
        <time>2019-12-21T14:12:45.426Z</time>
      </trkpt>
      <trkpt lat="41.30306" lon="2.002915">
        <ele>29.0</ele>
        <time>2019-12-21T14:12:46.425Z</time>
      </trkpt>
      <trkpt lat="41.30306" lon="2.002915">
        <ele>29.0</ele>
        <time>2019-12-21T14:12:47.417Z</time>
      </trkpt>
      <trkpt lat="41.30306" lon="2.0028">
        <ele>28.0</ele>
        <time>2019-12-21T14:12:48.423Z</time>
      </trkpt>
      <trkpt lat="41.30306" lon="2.0028">
        <ele>28.0</ele>
        <time>2019-12-21T14:12:49.419Z</time>
      </trkpt>
      <trkpt lat="41.30304667" lon="2.00268">
        <ele>27.0</ele>
        <time>2019-12-21T14:12:50.435Z</time>
      </trkpt>
      <trkpt lat="41.30303167" lon="2.00262833">
        <ele>27.0</ele>
        <time>2019-12-21T14:12:51.424Z</time>
      </trkpt>
      <trkpt lat="41.30303167" lon="2.00262833">
        <ele>27.0</ele>
        <time>2019-12-21T14:12:52.419Z</time>
      </trkpt>
      <trkpt lat="41.303005" lon="2.002525">
        <ele>27.0</ele>
        <time>2019-12-21T14:12:53.423Z</time>
      </trkpt>
      <trkpt lat="41.30299333" lon="2.00247167">
        <ele>26.0</ele>
        <time>2019-12-21T14:12:54.423Z</time>
      </trkpt>
      <trkpt lat="41.30299333" lon="2.00247167">
        <ele>26.0</ele>
        <time>2019-12-21T14:12:55.417Z</time>
      </trkpt>
      <trkpt lat="41.30296833" lon="2.00237667">
        <ele>26.0</ele>
        <time>2019-12-21T14:12:56.422Z</time>
      </trkpt>
      <trkpt lat="41.30296167" lon="2.00232">
        <ele>26.0</ele>
        <time>2019-12-21T14:12:57.423Z</time>
      </trkpt>
      <trkpt lat="41.30296167" lon="2.00232">
        <ele>26.0</ele>
        <time>2019-12-21T14:12:58.419Z</time>
      </trkpt>
      <trkpt lat="41.30302" lon="2.00226">
        <ele>25.0</ele>
        <time>2019-12-21T14:12:59.423Z</time>
      </trkpt>
      <trkpt lat="41.303055" lon="2.00224">
        <ele>25.0</ele>
        <time>2019-12-21T14:13:00.428Z</time>
      </trkpt>
      <trkpt lat="41.303055" lon="2.00224">
        <ele>25.0</ele>
        <time>2019-12-21T14:13:01.398Z</time>
      </trkpt>
      <trkpt lat="41.30314167" lon="2.00219667">
        <ele>25.0</ele>
        <time>2019-12-21T14:13:02.422Z</time>
      </trkpt>
      <trkpt lat="41.30318333" lon="2.00216333">
        <ele>25.0</ele>
        <time>2019-12-21T14:13:03.425Z</time>
      </trkpt>
      <trkpt lat="41.303225" lon="2.00211167">
        <ele>25.0</ele>
        <time>2019-12-21T14:13:04.425Z</time>
      </trkpt>
      <trkpt lat="41.303225" lon="2.00211167">
        <ele>25.0</ele>
        <time>2019-12-21T14:13:05.417Z</time>
      </trkpt>
      <trkpt lat="41.30328833" lon="2.00207">
        <ele>25.0</ele>
        <time>2019-12-21T14:13:06.423Z</time>
      </trkpt>
      <trkpt lat="41.30328833" lon="2.00207">
        <ele>25.0</ele>
        <time>2019-12-21T14:13:07.420Z</time>
      </trkpt>
      <trkpt lat="41.30336167" lon="2.00202333">
        <ele>25.0</ele>
        <time>2019-12-21T14:13:08.423Z</time>
      </trkpt>
      <trkpt lat="41.30336167" lon="2.00202333">
        <ele>25.0</ele>
        <time>2019-12-21T14:13:09.418Z</time>
      </trkpt>
      <trkpt lat="41.30344833" lon="2.00197833">
        <ele>25.0</ele>
        <time>2019-12-21T14:13:10.407Z</time>
      </trkpt>
      <trkpt lat="41.30344833" lon="2.00197833">
        <ele>25.0</ele>
        <time>2019-12-21T14:13:11.421Z</time>
      </trkpt>
      <trkpt lat="41.30353667" lon="2.00193167">
        <ele>25.0</ele>
        <time>2019-12-21T14:13:12.425Z</time>
      </trkpt>
      <trkpt lat="41.30353667" lon="2.00193167">
        <ele>25.0</ele>
        <time>2019-12-21T14:13:13.417Z</time>
      </trkpt>
      <trkpt lat="41.30362167" lon="2.00189167">
        <ele>26.0</ele>
        <time>2019-12-21T14:13:14.423Z</time>
      </trkpt>
      <trkpt lat="41.30367333" lon="2.00187667">
        <ele>26.0</ele>
        <time>2019-12-21T14:13:15.422Z</time>
      </trkpt>
      <trkpt lat="41.30370833" lon="2.00184167">
        <ele>26.0</ele>
        <time>2019-12-21T14:13:16.424Z</time>
      </trkpt>
      <trkpt lat="41.30370833" lon="2.00184167">
        <ele>26.0</ele>
        <time>2019-12-21T14:13:17.417Z</time>
      </trkpt>
      <trkpt lat="41.30381167" lon="2.001765">
        <ele>26.0</ele>
        <time>2019-12-21T14:13:18.421Z</time>
      </trkpt>
      <trkpt lat="41.30381167" lon="2.001765">
        <ele>26.0</ele>
        <time>2019-12-21T14:13:19.417Z</time>
      </trkpt>
      <trkpt lat="41.30387333" lon="2.00173167">
        <ele>27.0</ele>
        <time>2019-12-21T14:13:20.429Z</time>
      </trkpt>
      <trkpt lat="41.30392833" lon="2.00170667">
        <ele>27.0</ele>
        <time>2019-12-21T14:13:21.423Z</time>
      </trkpt>
      <trkpt lat="41.30397667" lon="2.00166333">
        <ele>27.0</ele>
        <time>2019-12-21T14:13:22.424Z</time>
      </trkpt>
      <trkpt lat="41.30397667" lon="2.00166333">
        <ele>27.0</ele>
        <time>2019-12-21T14:13:23.418Z</time>
      </trkpt>
      <trkpt lat="41.30402667" lon="2.00153833">
        <ele>28.0</ele>
        <time>2019-12-21T14:13:24.421Z</time>
      </trkpt>
      <trkpt lat="41.30402667" lon="2.00153833">
        <ele>28.0</ele>
        <time>2019-12-21T14:13:25.417Z</time>
      </trkpt>
      <trkpt lat="41.30403333" lon="2.00142">
        <ele>28.0</ele>
        <time>2019-12-21T14:13:26.423Z</time>
      </trkpt>
      <trkpt lat="41.30403333" lon="2.00142">
        <ele>28.0</ele>
        <time>2019-12-21T14:13:27.417Z</time>
      </trkpt>
      <trkpt lat="41.30402" lon="2.00131167">
        <ele>28.0</ele>
        <time>2019-12-21T14:13:28.401Z</time>
      </trkpt>
      <trkpt lat="41.30402" lon="2.00131167">
        <ele>28.0</ele>
        <time>2019-12-21T14:13:29.423Z</time>
      </trkpt>
      <trkpt lat="41.30401" lon="2.00120167">
        <ele>28.0</ele>
        <time>2019-12-21T14:13:30.428Z</time>
      </trkpt>
      <trkpt lat="41.30401" lon="2.00120167">
        <ele>28.0</ele>
        <time>2019-12-21T14:13:31.420Z</time>
      </trkpt>
      <trkpt lat="41.30400167" lon="2.00109167">
        <ele>28.0</ele>
        <time>2019-12-21T14:13:32.426Z</time>
      </trkpt>
      <trkpt lat="41.30400167" lon="2.00109167">
        <ele>28.0</ele>
        <time>2019-12-21T14:13:33.417Z</time>
      </trkpt>
      <trkpt lat="41.30395333" lon="2.001">
        <ele>28.0</ele>
        <time>2019-12-21T14:13:34.421Z</time>
      </trkpt>
      <trkpt lat="41.30395333" lon="2.001">
        <ele>28.0</ele>
        <time>2019-12-21T14:13:35.416Z</time>
      </trkpt>
      <trkpt lat="41.303925" lon="2.00088667">
        <ele>28.0</ele>
        <time>2019-12-21T14:13:36.423Z</time>
      </trkpt>
      <trkpt lat="41.303925" lon="2.00088667">
        <ele>28.0</ele>
        <time>2019-12-21T14:13:37.417Z</time>
      </trkpt>
      <trkpt lat="41.30391667" lon="2.000765">
        <ele>28.0</ele>
        <time>2019-12-21T14:13:38.423Z</time>
      </trkpt>
      <trkpt lat="41.30391667" lon="2.000765">
        <ele>28.0</ele>
        <time>2019-12-21T14:13:39.418Z</time>
      </trkpt>
      <trkpt lat="41.30390833" lon="2.00064667">
        <ele>28.0</ele>
        <time>2019-12-21T14:13:40.435Z</time>
      </trkpt>
      <trkpt lat="41.30390833" lon="2.00064667">
        <ele>28.0</ele>
        <time>2019-12-21T14:13:41.418Z</time>
      </trkpt>
      <trkpt lat="41.30388333" lon="2.00053833">
        <ele>29.0</ele>
        <time>2019-12-21T14:13:42.426Z</time>
      </trkpt>
      <trkpt lat="41.30387167" lon="2.00049167">
        <ele>29.0</ele>
        <time>2019-12-21T14:13:43.432Z</time>
      </trkpt>
      <trkpt lat="41.30387167" lon="2.00049167">
        <ele>29.0</ele>
        <time>2019-12-21T14:13:44.418Z</time>
      </trkpt>
      <trkpt lat="41.30385333" lon="2.000385">
        <ele>29.0</ele>
        <time>2019-12-21T14:13:45.423Z</time>
      </trkpt>
      <trkpt lat="41.30384333" lon="2.00033333">
        <ele>30.0</ele>
        <time>2019-12-21T14:13:46.425Z</time>
      </trkpt>
      <trkpt lat="41.30384333" lon="2.00033333">
        <ele>30.0</ele>
        <time>2019-12-21T14:13:47.420Z</time>
      </trkpt>
      <trkpt lat="41.30379667" lon="2.00021667">
        <ele>30.0</ele>
        <time>2019-12-21T14:13:48.423Z</time>
      </trkpt>
      <trkpt lat="41.30379667" lon="2.00021667">
        <ele>30.0</ele>
        <time>2019-12-21T14:13:49.418Z</time>
      </trkpt>
      <trkpt lat="41.30378667" lon="2.00009167">
        <ele>30.0</ele>
        <time>2019-12-21T14:13:50.432Z</time>
      </trkpt>
      <trkpt lat="41.30378667" lon="2.00009167">
        <ele>30.0</ele>
        <time>2019-12-21T14:13:51.420Z</time>
      </trkpt>
      <trkpt lat="41.30374833" lon="1.99996167">
        <ele>30.0</ele>
        <time>2019-12-21T14:13:52.405Z</time>
      </trkpt>
      <trkpt lat="41.30374833" lon="1.99996167">
        <ele>30.0</ele>
        <time>2019-12-21T14:13:53.429Z</time>
      </trkpt>
      <trkpt lat="41.30367833" lon="1.99985333">
        <ele>32.0</ele>
        <time>2019-12-21T14:13:54.423Z</time>
      </trkpt>
      <trkpt lat="41.30367833" lon="1.99985333">
        <ele>32.0</ele>
        <time>2019-12-21T14:13:55.419Z</time>
      </trkpt>
      <trkpt lat="41.30365167" lon="1.99972">
        <ele>33.0</ele>
        <time>2019-12-21T14:13:56.424Z</time>
      </trkpt>
      <trkpt lat="41.30365167" lon="1.99972">
        <ele>33.0</ele>
        <time>2019-12-21T14:13:57.417Z</time>
      </trkpt>
      <trkpt lat="41.30364167" lon="1.99959167">
        <ele>33.0</ele>
        <time>2019-12-21T14:13:58.425Z</time>
      </trkpt>
      <trkpt lat="41.30363833" lon="1.99953">
        <ele>33.0</ele>
        <time>2019-12-21T14:13:59.423Z</time>
      </trkpt>
      <trkpt lat="41.30363833" lon="1.99953">
        <ele>33.0</ele>
        <time>2019-12-21T14:14:00.417Z</time>
      </trkpt>
      <trkpt lat="41.30367667" lon="1.99940667">
        <ele>34.0</ele>
        <time>2019-12-21T14:14:01.404Z</time>
      </trkpt>
      <trkpt lat="41.30365333" lon="1.99934167">
        <ele>34.0</ele>
        <time>2019-12-21T14:14:02.427Z</time>
      </trkpt>
      <trkpt lat="41.30365333" lon="1.99934167">
        <ele>34.0</ele>
        <time>2019-12-21T14:14:03.417Z</time>
      </trkpt>
      <trkpt lat="41.30360667" lon="1.99920667">
        <ele>34.0</ele>
        <time>2019-12-21T14:14:04.402Z</time>
      </trkpt>
      <trkpt lat="41.30360667" lon="1.99920667">
        <ele>34.0</ele>
        <time>2019-12-21T14:14:05.425Z</time>
      </trkpt>
      <trkpt lat="41.30353167" lon="1.99905333">
        <ele>33.0</ele>
        <time>2019-12-21T14:14:06.430Z</time>
      </trkpt>
      <trkpt lat="41.30351333" lon="1.99898167">
        <ele>32.0</ele>
        <time>2019-12-21T14:14:07.423Z</time>
      </trkpt>
      <trkpt lat="41.30351333" lon="1.99898167">
        <ele>32.0</ele>
        <time>2019-12-21T14:14:08.418Z</time>
      </trkpt>
      <trkpt lat="41.30348" lon="1.998845">
        <ele>32.0</ele>
        <time>2019-12-21T14:14:09.413Z</time>
      </trkpt>
      <trkpt lat="41.30348" lon="1.998845">
        <ele>32.0</ele>
        <time>2019-12-21T14:14:10.398Z</time>
      </trkpt>
      <trkpt lat="41.30345" lon="1.99872667">
        <ele>32.0</ele>
        <time>2019-12-21T14:14:11.432Z</time>
      </trkpt>
      <trkpt lat="41.30345" lon="1.99872667">
        <ele>32.0</ele>
        <time>2019-12-21T14:14:12.419Z</time>
      </trkpt>
      <trkpt lat="41.303425" lon="1.99861333">
        <ele>32.0</ele>
        <time>2019-12-21T14:14:13.423Z</time>
      </trkpt>
      <trkpt lat="41.303425" lon="1.99861333">
        <ele>32.0</ele>
        <time>2019-12-21T14:14:14.417Z</time>
      </trkpt>
      <trkpt lat="41.30339667" lon="1.99849167">
        <ele>31.0</ele>
        <time>2019-12-21T14:14:15.421Z</time>
      </trkpt>
      <trkpt lat="41.30338333" lon="1.998435">
        <ele>31.0</ele>
        <time>2019-12-21T14:14:16.425Z</time>
      </trkpt>
      <trkpt lat="41.30338333" lon="1.998435">
        <ele>31.0</ele>
        <time>2019-12-21T14:14:17.418Z</time>
      </trkpt>
      <trkpt lat="41.30336" lon="1.99832333">
        <ele>31.0</ele>
        <time>2019-12-21T14:14:18.423Z</time>
      </trkpt>
      <trkpt lat="41.30334833" lon="1.99826">
        <ele>31.0</ele>
        <time>2019-12-21T14:14:19.432Z</time>
      </trkpt>
      <trkpt lat="41.30334833" lon="1.99826">
        <ele>31.0</ele>
        <time>2019-12-21T14:14:20.417Z</time>
      </trkpt>
      <trkpt lat="41.30332" lon="1.99813167">
        <ele>31.0</ele>
        <time>2019-12-21T14:14:21.436Z</time>
      </trkpt>
      <trkpt lat="41.30331" lon="1.99806833">
        <ele>31.0</ele>
        <time>2019-12-21T14:14:22.425Z</time>
      </trkpt>
      <trkpt lat="41.30331" lon="1.99806833">
        <ele>31.0</ele>
        <time>2019-12-21T14:14:23.424Z</time>
      </trkpt>
      <trkpt lat="41.303285" lon="1.99794333">
        <ele>30.0</ele>
        <time>2019-12-21T14:14:24.425Z</time>
      </trkpt>
      <trkpt lat="41.30327" lon="1.99788">
        <ele>30.0</ele>
        <time>2019-12-21T14:14:25.423Z</time>
      </trkpt>
      <trkpt lat="41.30327" lon="1.99788">
        <ele>30.0</ele>
        <time>2019-12-21T14:14:26.418Z</time>
      </trkpt>
      <trkpt lat="41.303235" lon="1.997755">
        <ele>30.0</ele>
        <time>2019-12-21T14:14:27.423Z</time>
      </trkpt>
      <trkpt lat="41.30321667" lon="1.99769333">
        <ele>30.0</ele>
        <time>2019-12-21T14:14:28.425Z</time>
      </trkpt>
      <trkpt lat="41.30321667" lon="1.99769333">
        <ele>30.0</ele>
        <time>2019-12-21T14:14:29.414Z</time>
      </trkpt>
      <trkpt lat="41.30318167" lon="1.99757167">
        <ele>29.0</ele>
        <time>2019-12-21T14:14:30.397Z</time>
      </trkpt>
      <trkpt lat="41.30318167" lon="1.99757167">
        <ele>29.0</ele>
        <time>2019-12-21T14:14:31.418Z</time>
      </trkpt>
      <trkpt lat="41.30314" lon="1.99745167">
        <ele>29.0</ele>
        <time>2019-12-21T14:14:32.423Z</time>
      </trkpt>
      <trkpt lat="41.30312" lon="1.99739333">
        <ele>29.0</ele>
        <time>2019-12-21T14:14:33.425Z</time>
      </trkpt>
      <trkpt lat="41.30312" lon="1.99739333">
        <ele>29.0</ele>
        <time>2019-12-21T14:14:34.420Z</time>
      </trkpt>
      <trkpt lat="41.30307833" lon="1.99727667">
        <ele>29.0</ele>
        <time>2019-12-21T14:14:35.423Z</time>
      </trkpt>
      <trkpt lat="41.30307833" lon="1.99727667">
        <ele>29.0</ele>
        <time>2019-12-21T14:14:36.417Z</time>
      </trkpt>
      <trkpt lat="41.30303833" lon="1.99715667">
        <ele>28.0</ele>
        <time>2019-12-21T14:14:37.403Z</time>
      </trkpt>
      <trkpt lat="41.30303833" lon="1.99715667">
        <ele>28.0</ele>
        <time>2019-12-21T14:14:38.427Z</time>
      </trkpt>
      <trkpt lat="41.30302833" lon="1.99702167">
        <ele>28.0</ele>
        <time>2019-12-21T14:14:39.423Z</time>
      </trkpt>
      <trkpt lat="41.30304" lon="1.99696333">
        <ele>28.0</ele>
        <time>2019-12-21T14:14:40.432Z</time>
      </trkpt>
      <trkpt lat="41.30304" lon="1.99696333">
        <ele>28.0</ele>
        <time>2019-12-21T14:14:41.400Z</time>
      </trkpt>
      <trkpt lat="41.30307167" lon="1.99684333">
        <ele>28.0</ele>
        <time>2019-12-21T14:14:42.423Z</time>
      </trkpt>
      <trkpt lat="41.30309" lon="1.996785">
        <ele>28.0</ele>
        <time>2019-12-21T14:14:43.429Z</time>
      </trkpt>
      <trkpt lat="41.30309" lon="1.996785">
        <ele>28.0</ele>
        <time>2019-12-21T14:14:44.418Z</time>
      </trkpt>
      <trkpt lat="41.30313" lon="1.996685">
        <ele>28.0</ele>
        <time>2019-12-21T14:14:45.423Z</time>
      </trkpt>
      <trkpt lat="41.303155" lon="1.99663333">
        <ele>28.0</ele>
        <time>2019-12-21T14:14:46.425Z</time>
      </trkpt>
      <trkpt lat="41.303155" lon="1.99663333">
        <ele>28.0</ele>
        <time>2019-12-21T14:14:47.420Z</time>
      </trkpt>
      <trkpt lat="41.30320833" lon="1.99654333">
        <ele>28.0</ele>
        <time>2019-12-21T14:14:48.432Z</time>
      </trkpt>
      <trkpt lat="41.30320833" lon="1.99654333">
        <ele>28.0</ele>
        <time>2019-12-21T14:14:49.418Z</time>
      </trkpt>
      <trkpt lat="41.30327167" lon="1.99646">
        <ele>27.0</ele>
        <time>2019-12-21T14:14:50.423Z</time>
      </trkpt>
      <trkpt lat="41.30330333" lon="1.996415">
        <ele>27.0</ele>
        <time>2019-12-21T14:14:51.424Z</time>
      </trkpt>
      <trkpt lat="41.30330333" lon="1.996415">
        <ele>27.0</ele>
        <time>2019-12-21T14:14:52.420Z</time>
      </trkpt>
      <trkpt lat="41.30336667" lon="1.99632833">
        <ele>27.0</ele>
        <time>2019-12-21T14:14:53.429Z</time>
      </trkpt>
      <trkpt lat="41.30336667" lon="1.99632833">
        <ele>27.0</ele>
        <time>2019-12-21T14:14:54.418Z</time>
      </trkpt>
      <trkpt lat="41.30342667" lon="1.996245">
        <ele>27.0</ele>
        <time>2019-12-21T14:14:55.424Z</time>
      </trkpt>
      <trkpt lat="41.30342667" lon="1.996245">
        <ele>27.0</ele>
        <time>2019-12-21T14:14:56.418Z</time>
      </trkpt>
      <trkpt lat="41.30348667" lon="1.99616667">
        <ele>27.0</ele>
        <time>2019-12-21T14:14:57.423Z</time>
      </trkpt>
      <trkpt lat="41.30351333" lon="1.99613">
        <ele>27.0</ele>
        <time>2019-12-21T14:14:58.425Z</time>
      </trkpt>
      <trkpt lat="41.30351333" lon="1.99613">
        <ele>27.0</ele>
        <time>2019-12-21T14:14:59.418Z</time>
      </trkpt>
      <trkpt lat="41.30351167" lon="1.99602833">
        <ele>27.0</ele>
        <time>2019-12-21T14:15:00.433Z</time>
      </trkpt>
      <trkpt lat="41.30351167" lon="1.99602833">
        <ele>27.0</ele>
        <time>2019-12-21T14:15:01.418Z</time>
      </trkpt>
      <trkpt lat="41.30346167" lon="1.995945">
        <ele>27.0</ele>
        <time>2019-12-21T14:15:02.424Z</time>
      </trkpt>
      <trkpt lat="41.30346167" lon="1.995945">
        <ele>27.0</ele>
        <time>2019-12-21T14:15:03.418Z</time>
      </trkpt>
      <trkpt lat="41.303405" lon="1.995875">
        <ele>27.0</ele>
        <time>2019-12-21T14:15:04.401Z</time>
      </trkpt>
      <trkpt lat="41.303405" lon="1.995875">
        <ele>27.0</ele>
        <time>2019-12-21T14:15:05.424Z</time>
      </trkpt>
      <trkpt lat="41.303355" lon="1.995795">
        <ele>27.0</ele>
        <time>2019-12-21T14:15:06.423Z</time>
      </trkpt>
      <trkpt lat="41.303355" lon="1.995795">
        <ele>27.0</ele>
        <time>2019-12-21T14:15:07.418Z</time>
      </trkpt>
      <trkpt lat="41.30331" lon="1.99572333">
        <ele>27.0</ele>
        <time>2019-12-21T14:15:08.421Z</time>
      </trkpt>
      <trkpt lat="41.30331" lon="1.99572333">
        <ele>27.0</ele>
        <time>2019-12-21T14:15:09.425Z</time>
      </trkpt>
      <trkpt lat="41.30327667" lon="1.99566333">
        <ele>27.0</ele>
        <time>2019-12-21T14:15:10.423Z</time>
      </trkpt>
      <trkpt lat="41.30327667" lon="1.99566333">
        <ele>27.0</ele>
        <time>2019-12-21T14:15:11.399Z</time>
      </trkpt>
      <trkpt lat="41.30325167" lon="1.99558833">
        <ele>27.0</ele>
        <time>2019-12-21T14:15:12.425Z</time>
      </trkpt>
      <trkpt lat="41.30325167" lon="1.99558833">
        <ele>27.0</ele>
        <time>2019-12-21T14:15:13.418Z</time>
      </trkpt>
      <trkpt lat="41.30323833" lon="1.99555833">
        <ele>27.0</ele>
        <time>2019-12-21T14:15:14.423Z</time>
      </trkpt>
      <trkpt lat="41.30323833" lon="1.99555833">
        <ele>27.0</ele>
        <time>2019-12-21T14:15:15.418Z</time>
      </trkpt>
      <trkpt lat="41.30321333" lon="1.99551833">
        <ele>27.0</ele>
        <time>2019-12-21T14:15:16.401Z</time>
      </trkpt>
      <trkpt lat="41.30321333" lon="1.99551833">
        <ele>27.0</ele>
        <time>2019-12-21T14:15:17.424Z</time>
      </trkpt>
      <trkpt lat="41.303165" lon="1.995445">
        <ele>27.0</ele>
        <time>2019-12-21T14:15:18.423Z</time>
      </trkpt>
      <trkpt lat="41.303165" lon="1.995445">
        <ele>27.0</ele>
        <time>2019-12-21T14:15:19.418Z</time>
      </trkpt>
      <trkpt lat="41.30312833" lon="1.995365">
        <ele>27.0</ele>
        <time>2019-12-21T14:15:20.429Z</time>
      </trkpt>
      <trkpt lat="41.30312833" lon="1.995365">
        <ele>27.0</ele>
        <time>2019-12-21T14:15:21.434Z</time>
      </trkpt>
      <trkpt lat="41.303105" lon="1.99527167">
        <ele>26.0</ele>
        <time>2019-12-21T14:15:22.425Z</time>
      </trkpt>
      <trkpt lat="41.303105" lon="1.99527167">
        <ele>26.0</ele>
        <time>2019-12-21T14:15:23.418Z</time>
      </trkpt>
      <trkpt lat="41.30309167" lon="1.99516833">
        <ele>27.0</ele>
        <time>2019-12-21T14:15:24.423Z</time>
      </trkpt>
      <trkpt lat="41.30309167" lon="1.99516833">
        <ele>27.0</ele>
        <time>2019-12-21T14:15:25.418Z</time>
      </trkpt>
      <trkpt lat="41.303095" lon="1.99505667">
        <ele>27.0</ele>
        <time>2019-12-21T14:15:26.424Z</time>
      </trkpt>
      <trkpt lat="41.303095" lon="1.99505667">
        <ele>27.0</ele>
        <time>2019-12-21T14:15:27.418Z</time>
      </trkpt>
      <trkpt lat="41.303105" lon="1.99494167">
        <ele>27.0</ele>
        <time>2019-12-21T14:15:28.401Z</time>
      </trkpt>
      <trkpt lat="41.303105" lon="1.99494167">
        <ele>27.0</ele>
        <time>2019-12-21T14:15:29.424Z</time>
      </trkpt>
      <trkpt lat="41.30312667" lon="1.99483333">
        <ele>27.0</ele>
        <time>2019-12-21T14:15:30.431Z</time>
      </trkpt>
      <trkpt lat="41.30312667" lon="1.99483333">
        <ele>27.0</ele>
        <time>2019-12-21T14:15:31.418Z</time>
      </trkpt>
      <trkpt lat="41.30315833" lon="1.994725">
        <ele>27.0</ele>
        <time>2019-12-21T14:15:32.430Z</time>
      </trkpt>
      <trkpt lat="41.30315833" lon="1.994725">
        <ele>27.0</ele>
        <time>2019-12-21T14:15:33.418Z</time>
      </trkpt>
      <trkpt lat="41.30319" lon="1.99461333">
        <ele>27.0</ele>
        <time>2019-12-21T14:15:34.402Z</time>
      </trkpt>
      <trkpt lat="41.30319" lon="1.99461333">
        <ele>27.0</ele>
        <time>2019-12-21T14:15:35.425Z</time>
      </trkpt>
      <trkpt lat="41.30321333" lon="1.994495">
        <ele>27.0</ele>
        <time>2019-12-21T14:15:36.423Z</time>
      </trkpt>
      <trkpt lat="41.30321333" lon="1.994495">
        <ele>27.0</ele>
        <time>2019-12-21T14:15:37.419Z</time>
      </trkpt>
      <trkpt lat="41.30322667" lon="1.99438667">
        <ele>28.0</ele>
        <time>2019-12-21T14:15:38.404Z</time>
      </trkpt>
      <trkpt lat="41.30322667" lon="1.99438667">
        <ele>28.0</ele>
        <time>2019-12-21T14:15:39.427Z</time>
      </trkpt>
      <trkpt lat="41.303245" lon="1.994255">
        <ele>28.0</ele>
        <time>2019-12-21T14:15:40.433Z</time>
      </trkpt>
      <trkpt lat="41.303245" lon="1.994255">
        <ele>28.0</ele>
        <time>2019-12-21T14:15:41.418Z</time>
      </trkpt>
      <trkpt lat="41.303255" lon="1.99410667">
        <ele>28.0</ele>
        <time>2019-12-21T14:15:42.419Z</time>
      </trkpt>
      <trkpt lat="41.30324667" lon="1.99403667">
        <ele>28.0</ele>
        <time>2019-12-21T14:15:43.423Z</time>
      </trkpt>
      <trkpt lat="41.30323333" lon="1.99397">
        <ele>28.0</ele>
        <time>2019-12-21T14:15:44.423Z</time>
      </trkpt>
      <trkpt lat="41.30323333" lon="1.99397">
        <ele>28.0</ele>
        <time>2019-12-21T14:15:45.418Z</time>
      </trkpt>
      <trkpt lat="41.3032" lon="1.99384333">
        <ele>28.0</ele>
        <time>2019-12-21T14:15:46.402Z</time>
      </trkpt>
      <trkpt lat="41.3032" lon="1.99384333">
        <ele>28.0</ele>
        <time>2019-12-21T14:15:47.398Z</time>
      </trkpt>
      <trkpt lat="41.30316167" lon="1.99372667">
        <ele>28.0</ele>
        <time>2019-12-21T14:15:48.425Z</time>
      </trkpt>
      <trkpt lat="41.30313833" lon="1.99367">
        <ele>28.0</ele>
        <time>2019-12-21T14:15:49.423Z</time>
      </trkpt>
      <trkpt lat="41.30313833" lon="1.99367">
        <ele>28.0</ele>
        <time>2019-12-21T14:15:50.418Z</time>
      </trkpt>
      <trkpt lat="41.303095" lon="1.993555">
        <ele>28.0</ele>
        <time>2019-12-21T14:15:51.424Z</time>
      </trkpt>
      <trkpt lat="41.303095" lon="1.993555">
        <ele>28.0</ele>
        <time>2019-12-21T14:15:52.423Z</time>
      </trkpt>
      <trkpt lat="41.30308" lon="1.99343833">
        <ele>28.0</ele>
        <time>2019-12-21T14:15:53.423Z</time>
      </trkpt>
      <trkpt lat="41.30308" lon="1.99343833">
        <ele>28.0</ele>
        <time>2019-12-21T14:15:54.419Z</time>
      </trkpt>
      <trkpt lat="41.30306667" lon="1.99330833">
        <ele>28.0</ele>
        <time>2019-12-21T14:15:55.423Z</time>
      </trkpt>
      <trkpt lat="41.30306667" lon="1.99330833">
        <ele>28.0</ele>
        <time>2019-12-21T14:15:56.418Z</time>
      </trkpt>
      <trkpt lat="41.30306167" lon="1.99318667">
        <ele>28.0</ele>
        <time>2019-12-21T14:15:57.423Z</time>
      </trkpt>
      <trkpt lat="41.30306167" lon="1.99312">
        <ele>28.0</ele>
        <time>2019-12-21T14:15:58.425Z</time>
      </trkpt>
      <trkpt lat="41.30306167" lon="1.99312">
        <ele>28.0</ele>
        <time>2019-12-21T14:15:59.418Z</time>
      </trkpt>
      <trkpt lat="41.303065" lon="1.99299">
        <ele>28.0</ele>
        <time>2019-12-21T14:16:00.437Z</time>
      </trkpt>
      <trkpt lat="41.303065" lon="1.99299">
        <ele>28.0</ele>
        <time>2019-12-21T14:16:01.419Z</time>
      </trkpt>
      <trkpt lat="41.30305833" lon="1.99286">
        <ele>28.0</ele>
        <time>2019-12-21T14:16:02.404Z</time>
      </trkpt>
      <trkpt lat="41.30305167" lon="1.9928">
        <ele>28.0</ele>
        <time>2019-12-21T14:16:03.427Z</time>
      </trkpt>
      <trkpt lat="41.30304667" lon="1.99274167">
        <ele>28.0</ele>
        <time>2019-12-21T14:16:04.426Z</time>
      </trkpt>
      <trkpt lat="41.30304667" lon="1.99274167">
        <ele>28.0</ele>
        <time>2019-12-21T14:16:05.419Z</time>
      </trkpt>
      <trkpt lat="41.30305833" lon="1.99263667">
        <ele>28.0</ele>
        <time>2019-12-21T14:16:06.429Z</time>
      </trkpt>
      <trkpt lat="41.30305833" lon="1.99263667">
        <ele>28.0</ele>
        <time>2019-12-21T14:16:07.419Z</time>
      </trkpt>
      <trkpt lat="41.30309667" lon="1.99252167">
        <ele>27.0</ele>
        <time>2019-12-21T14:16:08.423Z</time>
      </trkpt>
      <trkpt lat="41.30309667" lon="1.99252167">
        <ele>27.0</ele>
        <time>2019-12-21T14:16:09.426Z</time>
      </trkpt>
      <trkpt lat="41.30313333" lon="1.99241833">
        <ele>27.0</ele>
        <time>2019-12-21T14:16:10.434Z</time>
      </trkpt>
      <trkpt lat="41.30313333" lon="1.99241833">
        <ele>27.0</ele>
        <time>2019-12-21T14:16:11.421Z</time>
      </trkpt>
      <trkpt lat="41.303175" lon="1.99230167">
        <ele>28.0</ele>
        <time>2019-12-21T14:16:12.423Z</time>
      </trkpt>
      <trkpt lat="41.303175" lon="1.99230167">
        <ele>28.0</ele>
        <time>2019-12-21T14:16:13.422Z</time>
      </trkpt>
      <trkpt lat="41.30322167" lon="1.99222333">
        <ele>28.0</ele>
        <time>2019-12-21T14:16:14.418Z</time>
      </trkpt>
      <trkpt lat="41.30324667" lon="1.992165">
        <ele>28.0</ele>
        <time>2019-12-21T14:16:15.424Z</time>
      </trkpt>
      <trkpt lat="41.30326667" lon="1.99210667">
        <ele>28.0</ele>
        <time>2019-12-21T14:16:16.426Z</time>
      </trkpt>
      <trkpt lat="41.30329" lon="1.99205333">
        <ele>28.0</ele>
        <time>2019-12-21T14:16:17.424Z</time>
      </trkpt>
      <trkpt lat="41.30329" lon="1.99205333">
        <ele>28.0</ele>
        <time>2019-12-21T14:16:18.418Z</time>
      </trkpt>
      <trkpt lat="41.30332833" lon="1.99194667">
        <ele>28.0</ele>
        <time>2019-12-21T14:16:19.423Z</time>
      </trkpt>
      <trkpt lat="41.30332833" lon="1.99194667">
        <ele>28.0</ele>
        <time>2019-12-21T14:16:20.418Z</time>
      </trkpt>
      <trkpt lat="41.303365" lon="1.99184333">
        <ele>29.0</ele>
        <time>2019-12-21T14:16:21.435Z</time>
      </trkpt>
      <trkpt lat="41.303385" lon="1.991795">
        <ele>29.0</ele>
        <time>2019-12-21T14:16:22.426Z</time>
      </trkpt>
      <trkpt lat="41.303385" lon="1.991795">
        <ele>29.0</ele>
        <time>2019-12-21T14:16:23.418Z</time>
      </trkpt>
      <trkpt lat="41.30342167" lon="1.99171333">
        <ele>29.0</ele>
        <time>2019-12-21T14:16:24.424Z</time>
      </trkpt>
      <trkpt lat="41.30342167" lon="1.99171333">
        <ele>29.0</ele>
        <time>2019-12-21T14:16:25.418Z</time>
      </trkpt>
      <trkpt lat="41.30347667" lon="1.99165167">
        <ele>30.0</ele>
        <time>2019-12-21T14:16:26.402Z</time>
      </trkpt>
    </trkseg>
  </trk>
</gpx>
